
Distance (Route):
Temperature : 9.5°C
Humidity : 90.6%
Pressure : 0hPa| Receiver | Frames | First received | Last received |
|---|---|---|---|
| DO3MHA-11 | 676 | 2026-08-31 02:22:33 | 2026-08-31 04:23:09 |
| DO3MHA-12 | 573 | 2026-08-31 02:22:42 | 2026-08-31 04:22:33 |
| BAUMI2-15 | 412 | 2026-08-31 02:30:50 | 2026-08-31 04:03:41 |
| OE5DRO-10 | 274 | 2026-08-31 02:29:00 | 2026-08-31 04:24:40 |
| OE5MMP-10 | 252 | 2026-08-31 03:01:13 | 2026-08-31 04:06:01 |
| PG1ADW-2 | 179 | 2026-08-31 02:55:37 | 2026-08-31 04:24:07 |
| OE5DXL-15 | 162 | 2026-08-31 02:22:52 | 2026-08-31 04:23:26 |
| DG1MFX-10 | 155 | 2026-08-31 02:27:30 | 2026-08-31 04:17:17 |
| OE5WHR-10 | 126 | 2026-08-31 02:53:47 | 2026-08-31 03:56:40 |
| DB0NH | 116 | 2026-08-31 02:28:54 | 2026-08-31 03:58:40 |
| OE3JTB-15 | 110 | 2026-08-31 02:39:43 | 2026-08-31 04:08:44 |
| IN3HCDX | 100 | 2026-08-31 02:29:45 | 2026-08-31 03:52:44 |
| NBG1-10 | 98 | 2026-08-31 02:29:50 | 2026-08-31 03:57:17 |
| DL6DJ-15 | 92 | 2026-08-31 02:30:25 | 2026-08-31 03:55:52 |
| OM5KV | 73 | 2026-08-31 03:16:46 | 2026-08-31 03:50:48 |
| DB0UT-7 | 52 | 2026-08-31 02:43:22 | 2026-08-31 03:51:50 |
| OE5REO-15 | 39 | 2026-08-31 03:12:40 | 2026-08-31 03:52:05 |
| OE5HKT-10 | 33 | 2026-08-31 03:07:05 | 2026-08-31 04:00:31 |
| OE8JPQ-2 | 30 | 2026-08-31 03:14:27 | 2026-08-31 03:53:04 |
| DF7PN | 20 | 2026-08-31 03:19:14 | 2026-08-31 03:45:07 |
| DB0ND-19 | 18 | 2026-08-31 02:32:49 | 2026-08-31 03:54:01 |
| DM7RM-13 | 11 | 2026-08-31 03:20:04 | 2026-08-31 03:41:42 |
| IN3IJJ | 9 | 2026-08-31 02:47:01 | 2026-08-31 02:59:57 |
| DG1MJG | 7 | 2026-08-31 03:34:40 | 2026-08-31 03:44:20 |
| S52SK | 6 | 2026-08-31 03:06:42 | 2026-08-31 03:44:45 |
| DF3TZ-5 | 2 | 2026-08-31 02:53:09 | 2026-08-31 02:53:40 |
| Receiver | Date | Latitude | Longitude | Direction | Speed | Altitude | Climb | Temperature | Humidity | Pressure | Voltage | Killtimer | Uptime | BKT | XDATA |
|---|---|---|---|---|---|---|---|---|---|---|---|---|---|---|---|
| OE5DRO-10 | 2026-08-31 04:24:40 | 47.50560 | 13.05410 | 101° | 22km/h | 2313m | -5.5m/s | 9.5°C | 90.6% | 0hPa | 2.7V | 00:00:00 | 00:00:00 | 00:00:00 | |
| OE5DRO-10 | 2026-08-31 04:24:38 | 47.50561 | 13.05394 | 95° | 24km/h | 2322m | -4.5m/s | 9.4°C | 92.4% | 0hPa | 2.7V | 00:00:00 | 00:00:00 | 00:00:00 | |
| OE5DRO-10 | 2026-08-31 04:24:36 | 47.50563 | 13.05377 | 103° | 22km/h | 2332m | -4.7m/s | 9.3°C | 91.4% | 0hPa | 2.7V | 07:42:00 | 00:00:00 | 00:00:00 | |
| OE5DRO-10 | 2026-08-31 04:24:34 | 47.50564 | 13.05361 | 96° | 24km/h | 2341m | -4.4m/s | 9.1°C | 94.5% | 0hPa | 2.7V | 00:00:00 | 00:00:00 | 00:00:00 | |
| OE5DRO-10 | 2026-08-31 04:24:32 | 47.50566 | 13.05344 | 100° | 22km/h | 2350m | -4.2m/s | 9.1°C | 94.3% | 0hPa | 2.7V | 00:00:00 | 00:00:00 | 00:00:00 | |
| OE5DRO-10 | 2026-08-31 04:24:30 | 47.50567 | 13.05328 | 91° | 24km/h | 2358m | -4.3m/s | 9.0°C | 94.4% | 0hPa | 2.7V | 00:00:00 | 00:00:00 | 00:00:00 | |
| OE5DRO-10 | 2026-08-31 04:24:28 | 47.50568 | 13.05310 | 97° | 22km/h | 2366m | -3.6m/s | 8.9°C | 95.5% | 0hPa | 2.7V | 00:00:00 | 00:00:00 | 00:00:00 | |
| OE5DRO-10 | 2026-08-31 04:24:26 | 47.50568 | 13.05294 | 98° | 24km/h | 2373m | -4.3m/s | 8.9°C | 96.1% | 0hPa | 2.7V | 00:00:00 | 00:00:00 | 00:00:00 | |
| OE5DRO-10 | 2026-08-31 04:24:24 | 47.50571 | 13.05278 | 106° | 22km/h | 2382m | -4.2m/s | 8.8°C | 95.9% | 0hPa | 2.7V | 00:00:00 | 00:00:00 | 00:00:00 | |
| OE5DRO-10 | 2026-08-31 04:24:22 | 47.50573 | 13.05262 | 105° | 22km/h | 2391m | -4.8m/s | 8.7°C | 96.5% | 0hPa | 2.7V | 00:00:00 | 00:00:00 | 00:00:00 | |
| OE5DRO-10 | 2026-08-31 04:24:20 | 47.50576 | 13.05246 | 104° | 24km/h | 2402m | -5.4m/s | 8.5°C | 97.5% | 0hPa | 2.7V | 07:43:00 | 00:00:00 | 00:00:00 | |
| OE5DRO-10 | 2026-08-31 04:24:18 | 47.50579 | 13.05229 | 109° | 22km/h | 2412m | -4.8m/s | 8.4°C | 97.9% | 0hPa | 2.7V | 00:00:00 | 00:00:00 | 00:00:00 | |
| OE5DRO-10 | 2026-08-31 04:24:16 | 47.50582 | 13.05214 | 104° | 24km/h | 2423m | -5.2m/s | 8.3°C | 98.8% | 0hPa | 2.7V | 00:00:00 | 00:00:00 | 00:00:00 | |
| OE5DRO-10 | 2026-08-31 04:24:14 | 47.50585 | 13.05197 | 108° | 20km/h | 2433m | -4.5m/s | 8.2°C | 98.0% | 0hPa | 2.7V | 00:00:00 | 00:00:00 | 00:00:00 | |
| OE5DRO-10 | 2026-08-31 04:24:12 | 47.50587 | 13.05182 | 97° | 22km/h | 2442m | -4.2m/s | 8.1°C | 96.6% | 0hPa | 2.7V | 00:00:00 | 00:00:00 | 00:00:00 | |
| OE5DRO-10 | 2026-08-31 04:24:10 | 47.50589 | 13.05166 | 102° | 20km/h | 2451m | -4.5m/s | 8.0°C | 96.5% | 0hPa | 2.7V | 00:00:00 | 00:00:00 | 00:00:00 | |
| OE5DRO-10 | 2026-08-31 04:24:08 | 47.50591 | 13.05151 | 101° | 24km/h | 2459m | -4.4m/s | 7.9°C | 98.5% | 0hPa | 2.7V | 00:00:00 | 00:00:00 | 00:00:00 | |
| PG1ADW-2 | 2026-08-31 04:24:07 | 47.50592 | 13.05142 | 109° | 22km/h | 2464m | -4.1m/s | 7.8°C | 0% | 0hPa | 2.7V | 00:00:00 | 00:00:00 | 00:00:00 | |
| OE5DRO-10 | 2026-08-31 04:24:06 | 47.50594 | 13.05134 | 105° | 22km/h | 2468m | -4.0m/s | 7.7°C | 0% | 0hPa | 2.7V | 00:00:00 | 00:00:00 | 00:00:00 | |
| OE5DRO-10 | 2026-08-31 04:24:04 | 47.50597 | 13.05118 | 110° | 22km/h | 2476m | -3.6m/s | 7.8°C | 0% | 0hPa | 2.7V | 07:43:00 | 00:00:00 | 00:00:00 | |
| OE5DRO-10 | 2026-08-31 04:24:02 | 47.50600 | 13.05102 | 102° | 24km/h | 2484m | -3.6m/s | 7.7°C | 0% | 0hPa | 2.7V | 00:00:00 | 00:00:00 | 00:00:00 | |
| OE5DRO-10 | 2026-08-31 04:24:00 | 47.50604 | 13.05084 | 115° | 24km/h | 2491m | -3.6m/s | 7.7°C | 0% | 0hPa | 2.7V | 00:00:00 | 00:00:00 | 00:00:00 | |
| OE5DRO-10 | 2026-08-31 04:23:58 | 47.50608 | 13.05068 | 107° | 26km/h | 2498m | -3.6m/s | 7.6°C | 0% | 0hPa | 2.7V | 00:00:00 | 00:00:00 | 00:00:00 | |
| OE5DRO-10 | 2026-08-31 04:23:56 | 47.50613 | 13.05051 | 118° | 24km/h | 2505m | -3.7m/s | 7.5°C | 0% | 0hPa | 2.7V | 00:00:00 | 00:00:00 | 00:00:00 | |
| OE5DRO-10 | 2026-08-31 04:23:54 | 47.50618 | 13.05034 | 106° | 26km/h | 2513m | -3.7m/s | 7.5°C | 0% | 0hPa | 2.7V | 00:00:00 | 00:00:00 | 00:00:00 | |
| OE5DRO-10 | 2026-08-31 04:23:52 | 47.50622 | 13.05016 | 114° | 24km/h | 2520m | -3.5m/s | 7.4°C | 0% | 0hPa | 2.7V | 00:00:00 | 00:00:00 | 00:00:00 | |
| OE5DRO-10 | 2026-08-31 04:23:50 | 47.50626 | 13.04998 | 109° | 27km/h | 2526m | -3.0m/s | 7.4°C | 0% | 0hPa | 2.7V | 00:00:00 | 00:00:00 | 00:00:00 | |
| OE5DRO-10 | 2026-08-31 04:23:48 | 47.50631 | 13.04980 | 108° | 26km/h | 2533m | -3.3m/s | 7.4°C | 0% | 0hPa | 2.7V | 07:43:00 | 00:00:00 | 00:00:00 | |
| OE5DRO-10 | 2026-08-31 04:23:46 | 47.50635 | 13.04961 | 112° | 26km/h | 2539m | -2.9m/s | 7.4°C | 0% | 0hPa | 2.7V | 00:00:00 | 00:00:00 | 00:00:00 | |
| OE5DRO-10 | 2026-08-31 04:23:44 | 47.50640 | 13.04943 | 106° | 27km/h | 2546m | -2.9m/s | 7.3°C | 0% | 0hPa | 2.7V | 00:00:00 | 00:00:00 | 00:00:00 | |
| OE5DRO-10 | 2026-08-31 04:23:42 | 47.50644 | 13.04924 | 115° | 26km/h | 2552m | -3.7m/s | 7.3°C | 0% | 0hPa | 2.7V | 00:00:00 | 00:00:00 | 00:00:00 | |
| OE5DRO-10 | 2026-08-31 04:23:40 | 47.50649 | 13.04906 | 108° | 27km/h | 2559m | -3.5m/s | 7.2°C | 0% | 0hPa | 2.7V | 00:00:00 | 00:00:00 | 00:00:00 | |
| OE5DRO-10 | 2026-08-31 04:23:38 | 47.50654 | 13.04887 | 118° | 24km/h | 2566m | -3.7m/s | 7.1°C | 0% | 0hPa | 2.7V | 00:00:00 | 00:00:00 | 00:00:00 | |
| OE5DRO-10 | 2026-08-31 04:23:36 | 47.50658 | 13.04870 | 104° | 26km/h | 2574m | -3.7m/s | 7.1°C | 0% | 0hPa | 2.7V | 00:00:00 | 00:00:00 | 00:00:00 | |
| PG1ADW-2 | 2026-08-31 04:23:35 | 47.50660 | 13.04861 | 112° | 24km/h | 2577m | -3.5m/s | 7.1°C | 0% | 0hPa | 2.7V | 00:00:00 | 02:37:31 | 00:00:00 | |
| OE5DRO-10 | 2026-08-31 04:23:34 | 47.50662 | 13.04853 | 105° | 24km/h | 2581m | -3.3m/s | 7.0°C | 0% | 0hPa | 2.7V | 00:00:00 | 00:00:00 | 00:00:00 | |
| OE5DRO-10 | 2026-08-31 04:23:32 | 47.50664 | 13.04835 | 104° | 22km/h | 2588m | -3.9m/s | 6.9°C | 0% | 0hPa | 2.7V | 07:43:00 | 00:00:00 | 00:00:00 | |
| OE5DRO-10 | 2026-08-31 04:23:30 | 47.50667 | 13.04819 | 98° | 22km/h | 2595m | -2.9m/s | 7.0°C | 0% | 0hPa | 2.7V | 00:00:00 | 00:00:00 | 00:00:00 | |
| OE5DRO-10 | 2026-08-31 04:23:28 | 47.50669 | 13.04803 | 115° | 20km/h | 2601m | -3.3m/s | 6.8°C | 0% | 0hPa | 2.7V | 00:00:00 | 00:00:00 | 00:00:00 | |
| OE5DXL-15 | 2026-08-31 04:23:26 | 47.50673 | 13.04790 | 105° | 20km/h | 2608m | -3.0m/s | 6.8°C | 0% | 0hPa | 2.7V | 00:00:00 | 00:00:00 | 00:00:00 | |
| OE5DRO-10 | 2026-08-31 04:23:24 | 47.50677 | 13.04775 | 108° | 20km/h | 2615m | -3.9m/s | 6.8°C | 0% | 0hPa | 2.7V | 00:00:00 | 00:00:00 | 00:00:00 | |
| OE5DRO-10 | 2026-08-31 04:23:22 | 47.50680 | 13.04760 | 106° | 22km/h | 2622m | -3.3m/s | 6.7°C | 0% | 0hPa | 2.7V | 00:00:00 | 00:00:00 | 00:00:00 | |
| OE5DXL-15 | 2026-08-31 04:23:20 | 47.50682 | 13.04744 | 110° | 22km/h | 2628m | -2.7m/s | 6.7°C | 0% | 0hPa | 2.7V | 00:00:00 | 00:00:00 | 00:00:00 | |
| OE5DRO-10 | 2026-08-31 04:23:18 | 47.50686 | 13.04729 | 103° | 22km/h | 2634m | -3.6m/s | 6.7°C | 0% | 0hPa | 2.7V | 00:00:00 | 00:00:00 | 00:00:00 | |
| OE5DRO-10 | 2026-08-31 04:23:16 | 47.50689 | 13.04712 | 114° | 22km/h | 2641m | -3.0m/s | 6.7°C | 0% | 0hPa | 2.7V | 07:44:00 | 00:00:00 | 00:00:00 | |
| OE5DXL-15 | 2026-08-31 04:23:14 | 47.50692 | 13.04697 | 107° | 22km/h | 2647m | -3.5m/s | 6.5°C | 0% | 0hPa | 2.7V | 00:00:00 | 00:00:00 | 00:00:00 | |
| PG1ADW-2 | 2026-08-31 04:23:13 | 47.50695 | 13.04689 | 112° | 20km/h | 2651m | -3.2m/s | 6.6°C | 0% | 0hPa | 2.7V | 00:00:00 | 00:00:00 | 00:00:00 | |
| OE5DRO-10 | 2026-08-31 04:23:12 | 47.50697 | 13.04681 | 116° | 20km/h | 2654m | -3.0m/s | 6.6°C | 0% | 0hPa | 2.7V | 00:00:00 | 00:00:00 | 00:00:00 | |
| OE5DRO-10 | 2026-08-31 04:23:10 | 47.50701 | 13.04667 | 111° | 22km/h | 2661m | -3.2m/s | 6.5°C | 0% | 0hPa | 2.7V | 00:00:00 | 00:00:00 | 00:00:00 | |
| DO3MHA-11 | 2026-08-31 04:23:09 | 47.50703 | 13.04659 | 122° | 22km/h | 2664m | -3.0m/s | 6.5°C | 0% | 0hPa | 2.7V | 07:44:00 | 02:37:05 | 00:00:00 | |
| OE5DXL-15 | 2026-08-31 04:23:08 | 47.50706 | 13.04653 | 123° | 20km/h | 2667m | -3.4m/s | 6.6°C | 0% | 0hPa | 2.7V | 00:00:00 | 00:00:00 | 00:00:00 | |
| OE5DRO-10 | 2026-08-31 04:23:06 | 47.50711 | 13.04639 | 117° | 22km/h | 2674m | -3.7m/s | 6.5°C | 0% | 0hPa | 2.7V | 00:00:00 | 00:00:00 | 00:00:00 | |
| OE5DRO-10 | 2026-08-31 04:23:04 | 47.50717 | 13.04625 | 126° | 20km/h | 2681m | -3.5m/s | 6.4°C | 0% | 0hPa | 2.7V | 00:00:00 | 00:00:00 | 00:00:00 | |
| OE5DXL-15 | 2026-08-31 04:23:02 | 47.50723 | 13.04612 | 121° | 20km/h | 2688m | -3.3m/s | 6.5°C | 0% | 0hPa | 2.7V | 00:00:00 | 00:00:00 | 00:00:00 | |
| OE5DRO-10 | 2026-08-31 04:23:00 | 47.50728 | 13.04599 | 121° | 18km/h | 2694m | -3.3m/s | 6.4°C | 0% | 0hPa | 2.7V | 07:44:00 | 00:00:00 | 00:00:00 | |
| OE5DRO-10 | 2026-08-31 04:22:58 | 47.50732 | 13.04586 | 117° | 20km/h | 2701m | -3.5m/s | 6.4°C | 0% | 0hPa | 2.7V | 00:00:00 | 00:00:00 | 00:00:00 | |
| OE5DXL-15 | 2026-08-31 04:22:56 | 47.50737 | 13.04573 | 118° | 20km/h | 2709m | -3.9m/s | 6.3°C | 0% | 0hPa | 2.7V | 00:00:00 | 00:00:00 | 00:00:00 | |
| OE5DRO-10 | 2026-08-31 04:22:54 | 47.50741 | 13.04560 | 117° | 20km/h | 2716m | -4.2m/s | 6.3°C | 0% | 0hPa | 2.7V | 00:00:00 | 00:00:00 | 00:00:00 | |
| PG1ADW-2 | 2026-08-31 04:22:53 | 47.50744 | 13.04553 | 123° | 22km/h | 2721m | -4.5m/s | 6.4°C | 0% | 0hPa | 2.7V | 00:00:00 | 00:00:00 | 00:00:00 | |
| OE5DRO-10 | 2026-08-31 04:22:52 | 47.50746 | 13.04546 | 116° | 22km/h | 2725m | -4.0m/s | 6.3°C | 0% | 0hPa | 2.7V | 00:00:00 | 00:00:00 | 00:00:00 | |
| OE5DXL-15 | 2026-08-31 04:22:50 | 47.50751 | 13.04532 | 120° | 22km/h | 2733m | -4.0m/s | 6.3°C | 0% | 0hPa | 2.7V | 00:00:00 | 00:00:00 | 00:00:00 | |
| DO3MHA-11 | 2026-08-31 04:22:49 | 47.50754 | 13.04524 | 127° | 22km/h | 2737m | -3.8m/s | 6.2°C | 0% | 0hPa | 2.7V | 00:00:00 | 02:36:45 | 00:00:00 | |
| OE5DRO-10 | 2026-08-31 04:22:48 | 47.50757 | 13.04518 | 123° | 22km/h | 2741m | -3.9m/s | 6.2°C | 0% | 0hPa | 2.7V | 00:00:00 | 00:00:00 | 00:00:00 | |
| OE5DRO-10 | 2026-08-31 04:22:46 | 47.50763 | 13.04503 | 125° | 22km/h | 2748m | -3.6m/s | 6.1°C | 0% | 0hPa | 2.7V | 00:00:00 | 00:00:00 | 00:00:00 | |
| OE5DXL-15 | 2026-08-31 04:22:44 | 47.50768 | 13.04490 | 114° | 22km/h | 2756m | -3.7m/s | 6.0°C | 0% | 0hPa | 2.7V | 07:44:00 | 00:00:00 | 00:00:00 | |
| OE5DRO-10 | 2026-08-31 04:22:42 | 47.50773 | 13.04476 | 125° | 20km/h | 2763m | -3.9m/s | 6.1°C | 0% | 0hPa | 2.7V | 00:00:00 | 00:00:00 | 00:00:00 | |
| DO3MHA-11 | 2026-08-31 04:22:40 | 47.50778 | 13.04462 | 111° | 22km/h | 2772m | -3.9m/s | 6.0°C | 0% | 0hPa | 2.7V | 00:00:00 | 02:36:36 | 00:00:00 | |
| OE5DXL-15 | 2026-08-31 04:22:38 | 47.50783 | 13.04447 | 121° | 22km/h | 2779m | -3.8m/s | 5.9°C | 0% | 0hPa | 2.7V | 00:00:00 | 00:00:00 | 00:00:00 | |
| OE5DRO-10 | 2026-08-31 04:22:36 | 47.50787 | 13.04433 | 110° | 24km/h | 2787m | -3.7m/s | 5.8°C | 0% | 0hPa | 2.7V | 00:00:00 | 00:00:00 | 00:00:00 | |
| DO3MHA-11 | 2026-08-31 04:22:35 | 47.50789 | 13.04425 | 117° | 22km/h | 2791m | -3.6m/s | 5.8°C | 0% | 0hPa | 2.7V | 00:00:00 | 02:36:31 | 00:00:00 | |
| OE5DRO-10 | 2026-08-31 04:22:34 | 47.50792 | 13.04417 | 118° | 22km/h | 2795m | -3.9m/s | 5.8°C | 0% | 0hPa | 2.7V | 00:00:00 | 00:00:00 | 00:00:00 | |
| DO3MHA-12 | 2026-08-31 04:22:33 | 47.50794 | 13.04410 | 108° | 22km/h | 2798m | -3.8m/s | 5.8°C | 0% | 0hPa | 2.7V | 07:44:00 | 02:36:29 | 00:00:00 | |
| OE5DXL-15 | 2026-08-31 04:22:32 | 47.50796 | 13.04402 | 111° | 22km/h | 2802m | -3.7m/s | 5.8°C | 0% | 0hPa | 2.7V | 00:00:00 | 00:00:00 | 00:00:00 | |
| DO3MHA-11 | 2026-08-31 04:22:30 | 47.50801 | 13.04387 | 114° | 22km/h | 2810m | -3.5m/s | 5.7°C | 0% | 0hPa | 2.7V | 00:00:00 | 02:36:26 | 00:00:00 | |
| OE5DRO-10 | 2026-08-31 04:22:28 | 47.50805 | 13.04371 | 113° | 24km/h | 2817m | -3.6m/s | 5.4°C | 0% | 0hPa | 2.7V | 07:44:00 | 00:00:00 | 00:00:00 | |
| OE5DXL-15 | 2026-08-31 04:22:26 | 47.50809 | 13.04356 | 110° | 24km/h | 2823m | -3.3m/s | 5.4°C | 0% | 0hPa | 2.7V | 00:00:00 | 00:00:00 | 00:00:00 | |
| DO3MHA-11 | 2026-08-31 04:22:25 | 47.50811 | 13.04348 | 109° | 24km/h | 2827m | -3.4m/s | 5.4°C | 0% | 0hPa | 2.7V | 00:00:00 | 02:36:21 | 00:00:00 | |
| OE5DRO-10 | 2026-08-31 04:22:24 | 47.50813 | 13.04339 | 117° | 24km/h | 2830m | -3.4m/s | 5.4°C | 0% | 0hPa | 2.7V | 00:00:00 | 00:00:00 | 00:00:00 | |
| OE5DRO-10 | 2026-08-31 04:22:22 | 47.50818 | 13.04324 | 108° | 22km/h | 2836m | -3.2m/s | 5.4°C | 0% | 0hPa | 2.7V | 00:00:00 | 00:00:00 | 00:00:00 | |
| DO3MHA-11 | 2026-08-31 04:22:20 | 47.50822 | 13.04308 | 115° | 24km/h | 2843m | -2.8m/s | 5.2°C | 0% | 0hPa | 2.7V | 00:00:00 | 02:36:16 | 00:00:00 | |
| DO3MHA-12 | 2026-08-31 04:22:19 | 47.50824 | 13.04300 | 112° | 24km/h | 2846m | -3.1m/s | 5.2°C | 0% | 0hPa | 2.7V | 00:00:00 | 02:36:15 | 00:00:00 | |
| OE5DRO-10 | 2026-08-31 04:22:18 | 47.50826 | 13.04292 | 107° | 24km/h | 2849m | -3.0m/s | 5.2°C | 0% | 0hPa | 2.7V | 00:00:00 | 00:00:00 | 00:00:00 | |
| OE5DRO-10 | 2026-08-31 04:22:16 | 47.50830 | 13.04276 | 116° | 22km/h | 2855m | -3.2m/s | 5.2°C | 0% | 0hPa | 2.7V | 00:00:00 | 00:00:00 | 00:00:00 | |
| DO3MHA-11 | 2026-08-31 04:22:15 | 47.50832 | 13.04268 | 110° | 24km/h | 2858m | -3.2m/s | 5.1°C | 0% | 0hPa | 2.7V | 00:00:00 | 02:36:11 | 00:00:00 | |
| OE5DRO-10 | 2026-08-31 04:22:14 | 47.50834 | 13.04260 | 109° | 26km/h | 2861m | -3.1m/s | 5.1°C | 0% | 0hPa | 2.7V | 00:00:00 | 00:00:00 | 00:00:00 | |
| OE5DXL-15 | 2026-08-31 04:22:13 | 47.50836 | 13.04251 | 116° | 24km/h | 2864m | -3.1m/s | 5.1°C | 0% | 0hPa | 2.7V | 00:00:00 | 00:00:00 | 00:00:00 | |
| OE5DRO-10 | 2026-08-31 04:22:12 | 47.50839 | 13.04243 | 117° | 22km/h | 2868m | -3.2m/s | 5.1°C | 0% | 0hPa | 2.7V | 07:45:00 | 00:00:00 | 00:00:00 | |
| DO3MHA-11 | 2026-08-31 04:22:10 | 47.50843 | 13.04227 | 111° | 24km/h | 2874m | -3.4m/s | 5.1°C | 0% | 0hPa | 2.7V | 07:45:00 | 02:36:06 | 00:00:00 | |
| DO3MHA-12 | 2026-08-31 04:22:08 | 47.50848 | 13.04211 | 113° | 22km/h | 2880m | -2.9m/s | 5.1°C | 0% | 0hPa | 2.7V | 00:00:00 | 02:36:04 | 00:00:00 | |
| OE5DXL-15 | 2026-08-31 04:22:07 | 47.50850 | 13.04203 | 107° | 22km/h | 2883m | -3.0m/s | 5.0°C | 0% | 0hPa | 2.7V | 00:00:00 | 00:00:00 | 00:00:00 | |
| OE5DRO-10 | 2026-08-31 04:22:06 | 47.50852 | 13.04195 | 112° | 22km/h | 2886m | -2.7m/s | 5.0°C | 0% | 0hPa | 2.7V | 00:00:00 | 00:00:00 | 00:00:00 | |
| DO3MHA-11 | 2026-08-31 04:22:05 | 47.50854 | 13.04188 | 116° | 20km/h | 2889m | -2.7m/s | 5.0°C | 0% | 0hPa | 2.7V | 00:00:00 | 02:36:01 | 00:00:00 | |
| OE5DRO-10 | 2026-08-31 04:22:04 | 47.50856 | 13.04181 | 106° | 20km/h | 2892m | -2.6m/s | 5.0°C | 0% | 0hPa | 2.7V | 00:00:00 | 00:00:00 | 00:00:00 | |
| OE5DXL-15 | 2026-08-31 04:22:01 | 47.50859 | 13.04158 | 104° | 22km/h | 2900m | -3.1m/s | 4.9°C | 0% | 0hPa | 2.7V | 00:00:00 | 00:00:00 | 00:00:00 | |
| DO3MHA-11 | 2026-08-31 04:22:00 | 47.50860 | 13.04150 | 94° | 24km/h | 2903m | -3.1m/s | 4.9°C | 0% | 0hPa | 2.7V | 00:00:00 | 02:35:56 | 00:00:00 | |
| DO3MHA-12 | 2026-08-31 04:21:58 | 47.50862 | 13.04134 | 106° | 26km/h | 2909m | -3.4m/s | 4.9°C | 0% | 0hPa | 2.7V | 00:00:00 | 02:35:54 | 00:00:00 | |
| OE5DRO-10 | 2026-08-31 04:21:56 | 47.50865 | 13.04117 | 104° | 26km/h | 2916m | -3.5m/s | 4.9°C | 0% | 0hPa | 2.7V | 07:45:00 | 00:00:00 | 00:00:00 | |
| DO3MHA-11 | 2026-08-31 04:21:55 | 47.50867 | 13.04107 | 111° | 27km/h | 2919m | -3.3m/s | 4.9°C | 0% | 0hPa | 2.7V | 00:00:00 | 02:35:51 | 00:00:00 | |
| OE5DRO-10 | 2026-08-31 04:21:54 | 47.50870 | 13.04097 | 114° | 27km/h | 2922m | -3.9m/s | 4.8°C | 0% | 0hPa | 2.7V | 00:00:00 | 00:00:00 | 00:00:00 | |
| DO3MHA-12 | 2026-08-31 04:21:53 | 47.50872 | 13.04088 | 111° | 27km/h | 2926m | -3.3m/s | 4.8°C | 0% | 0hPa | 2.7V | 00:00:00 | 02:35:49 | 00:00:00 | |
| OE5DRO-10 | 2026-08-31 04:21:52 | 47.50875 | 13.04079 | 107° | 29km/h | 2930m | -3.5m/s | 4.8°C | 0% | 0hPa | 2.7V | 00:00:00 | 00:00:00 | 00:00:00 | |
| DO3MHA-11 | 2026-08-31 04:21:50 | 47.50880 | 13.04059 | 112° | 27km/h | 2937m | -4.7m/s | 4.8°C | 0% | 0hPa | 2.7V | 00:00:00 | 02:35:46 | 00:00:00 | |
| OE5DXL-15 | 2026-08-31 04:21:49 | 47.50882 | 13.04049 | 108° | 27km/h | 2942m | -4.4m/s | 4.8°C | 0% | 0hPa | 2.7V | 00:00:00 | 00:00:00 | 00:00:00 | |
| DO3MHA-12 | 2026-08-31 04:21:48 | 47.50884 | 13.04040 | 112° | 27km/h | 2946m | -3.8m/s | 4.7°C | 0% | 0hPa | 2.7V | 00:00:00 | 02:35:44 | 00:00:00 | |
| PG1ADW-2 | 2026-08-31 04:21:46 | 47.50890 | 13.04020 | 110° | 27km/h | 2954m | -4.7m/s | 4.7°C | 0% | 0hPa | 2.7V | 00:00:00 | 00:00:00 | 00:00:00 | |
| DO3MHA-11 | 2026-08-31 04:21:45 | 47.50891 | 13.04011 | 106° | 26km/h | 2958m | -3.7m/s | 4.7°C | 0% | 0hPa | 2.7V | 00:00:00 | 02:35:41 | 00:00:00 | |
| OE5DRO-10 | 2026-08-31 04:21:44 | 47.50893 | 13.04001 | 105° | 27km/h | 2962m | -3.3m/s | 4.6°C | 0% | 0hPa | 2.7V | 00:00:00 | 00:00:00 | 00:00:00 | |
| OE5DXL-15 | 2026-08-31 04:21:43 | 47.50895 | 13.03992 | 109° | 26km/h | 2965m | -4.0m/s | 4.6°C | 0% | 0hPa | 2.7V | 00:00:00 | 00:00:00 | 00:00:00 | |
| OE5DRO-10 | 2026-08-31 04:21:42 | 47.50897 | 13.03983 | 106° | 24km/h | 2969m | -3.9m/s | 4.6°C | 0% | 0hPa | 2.7V | 00:00:00 | 00:00:00 | 00:00:00 | |
| DO3MHA-11 | 2026-08-31 04:21:40 | 47.50900 | 13.03965 | 106° | 27km/h | 2976m | -3.5m/s | 4.7°C | 0% | 0hPa | 2.7V | 00:00:00 | 02:35:36 | 00:00:00 | |
| DO3MHA-12 | 2026-08-31 04:21:38 | 47.50904 | 13.03946 | 114° | 27km/h | 2984m | -4.1m/s | 4.7°C | 0% | 0hPa | 2.7V | 00:00:00 | 02:35:34 | 00:00:00 | |
| OE5DXL-15 | 2026-08-31 04:21:37 | 47.50906 | 13.03937 | 107° | 29km/h | 2988m | -4.0m/s | 4.6°C | 0% | 0hPa | 2.7V | 00:00:00 | 00:00:00 | 00:00:00 | |
| OE5DRO-10 | 2026-08-31 04:21:36 | 47.50908 | 13.03927 | 109° | 29km/h | 2993m | -4.5m/s | 4.6°C | 0% | 0hPa | 2.7V | 00:00:00 | 00:00:00 | 00:00:00 | |
| DO3MHA-11 | 2026-08-31 04:21:35 | 47.50911 | 13.03917 | 115° | 29km/h | 2997m | -4.8m/s | 4.6°C | 0% | 0hPa | 2.7V | 00:00:00 | 02:35:31 | 00:00:00 | |
| OE5DRO-10 | 2026-08-31 04:21:34 | 47.50914 | 13.03907 | 114° | 29km/h | 3002m | -4.9m/s | 4.5°C | 0% | 0hPa | 2.7V | 00:00:00 | 00:00:00 | 00:00:00 | |
| DO3MHA-12 | 2026-08-31 04:21:33 | 47.50917 | 13.03897 | 113° | 29km/h | 3007m | -4.2m/s | 4.4°C | 0% | 0hPa | 2.7V | 00:00:00 | 02:35:29 | 00:00:00 | |
| OE5DRO-10 | 2026-08-31 04:21:32 | 47.50919 | 13.03886 | 110° | 31km/h | 3011m | -5.1m/s | 4.4°C | 0% | 0hPa | 2.7V | 00:00:00 | 00:00:00 | 00:00:00 | |
| OE5DXL-15 | 2026-08-31 04:21:31 | 47.50922 | 13.03876 | 113° | 29km/h | 3017m | -5.4m/s | 3.9°C | 0% | 0hPa | 2.7V | 00:00:00 | 00:00:00 | 00:00:00 | |
| DO3MHA-11 | 2026-08-31 04:21:30 | 47.50925 | 13.03866 | 113° | 29km/h | 3022m | -4.6m/s | 3.9°C | 0% | 0hPa | 2.7V | 07:45:00 | 02:35:26 | 00:00:00 | |
| DO3MHA-12 | 2026-08-31 04:21:28 | 47.50930 | 13.03845 | 106° | 31km/h | 3031m | -4.0m/s | 3.7°C | 0% | 0hPa | 2.7V | 00:00:00 | 02:35:24 | 00:00:00 | |
| OE5DRO-10 | 2026-08-31 04:21:26 | 47.50935 | 13.03823 | 115° | 29km/h | 3039m | -4.7m/s | 3.7°C | 0% | 0hPa | 2.7V | 00:00:00 | 00:00:00 | 00:00:00 | |
| DO3MHA-11 | 2026-08-31 04:21:25 | 47.50938 | 13.03813 | 106° | 29km/h | 3044m | -4.4m/s | 3.7°C | 0% | 0hPa | 2.7V | 00:00:00 | 02:35:21 | 00:00:00 | |
| DO3MHA-12 | 2026-08-31 04:21:23 | 47.50943 | 13.03792 | 115° | 29km/h | 3053m | -4.2m/s | 3.6°C | 0% | 0hPa | 2.7V | 00:00:00 | 02:35:19 | 00:00:00 | |
| OE5DRO-10 | 2026-08-31 04:21:22 | 47.50946 | 13.03782 | 114° | 27km/h | 3058m | -4.5m/s | 3.9°C | 0% | 0hPa | 2.7V | 07:45:00 | 00:00:00 | 00:00:00 | |
| DO3MHA-11 | 2026-08-31 04:21:20 | 47.50951 | 13.03762 | 115° | 27km/h | 3067m | -4.4m/s | 3.8°C | 0% | 0hPa | 2.7V | 00:00:00 | 02:35:16 | 00:00:00 | |
| DO3MHA-12 | 2026-08-31 04:21:18 | 47.50958 | 13.03744 | 118° | 27km/h | 3076m | -4.0m/s | 3.8°C | 0% | 0hPa | 2.7V | 00:00:00 | 02:35:14 | 00:00:00 | |
| DO3MHA-11 | 2026-08-31 04:21:15 | 47.50967 | 13.03717 | 120° | 27km/h | 3089m | -4.8m/s | 4.2°C | 0% | 0hPa | 2.7V | 00:00:00 | 02:35:11 | 00:00:00 | |
| DO3MHA-12 | 2026-08-31 04:21:13 | 47.50973 | 13.03698 | 115° | 29km/h | 3099m | -5.2m/s | 4.1°C | 0% | 0hPa | 2.7V | 00:00:00 | 02:35:09 | 00:00:00 | |
| DO3MHA-11 | 2026-08-31 04:21:10 | 47.50983 | 13.03671 | 117° | 29km/h | 3113m | -4.3m/s | 4.1°C | 0% | 0hPa | 2.7V | 00:00:00 | 02:35:06 | 00:00:00 | |
| DO3MHA-12 | 2026-08-31 04:21:08 | 47.50991 | 13.03651 | 126° | 29km/h | 3121m | -3.9m/s | 4.1°C | 0% | 0hPa | 2.7V | 00:00:00 | 02:35:04 | 00:00:00 | |
| OE5DXL-15 | 2026-08-31 04:21:06 | 47.50998 | 13.03634 | 120° | 29km/h | 3129m | -4.1m/s | 4.2°C | 0% | 0hPa | 2.7V | 00:00:00 | 00:00:00 | 00:00:00 | |
| DO3MHA-11 | 2026-08-31 04:21:05 | 47.51002 | 13.03624 | 124° | 29km/h | 3133m | -3.5m/s | 4.2°C | 0% | 0hPa | 2.7V | 00:00:00 | 02:35:01 | 00:00:00 | |
| DO3MHA-12 | 2026-08-31 04:21:03 | 47.51010 | 13.03607 | 124° | 29km/h | 3140m | -3.7m/s | 4.1°C | 0% | 0hPa | 2.7V | 07:46:00 | 02:34:59 | 00:00:00 | |
| OE5DRO-10 | 2026-08-31 04:21:01 | 47.51018 | 13.03589 | 124° | 29km/h | 3148m | -3.5m/s | 4.1°C | 0% | 0hPa | 2.7V | 00:00:00 | 00:00:00 | 00:00:00 | |
| DO3MHA-11 | 2026-08-31 04:21:00 | 47.51022 | 13.03580 | 129° | 29km/h | 3151m | -3.4m/s | 4.0°C | 0% | 0hPa | 2.7V | 00:00:00 | 02:34:56 | 00:00:00 | |
| DO3MHA-12 | 2026-08-31 04:20:58 | 47.51031 | 13.03562 | 124° | 31km/h | 3158m | -3.4m/s | 4.0°C | 0% | 0hPa | 2.7V | 00:00:00 | 02:34:54 | 00:00:00 | |
| DO3MHA-11 | 2026-08-31 04:20:55 | 47.51044 | 13.03535 | 123° | 31km/h | 3168m | -3.7m/s | 4.0°C | 0% | 0hPa | 2.7V | 00:00:00 | 02:34:51 | 00:00:00 | |
| OE5DRO-10 | 2026-08-31 04:20:54 | 47.51048 | 13.03526 | 125° | 31km/h | 3171m | -3.4m/s | 3.9°C | 0% | 0hPa | 2.7V | 00:00:00 | 00:00:00 | 00:00:00 | |
| DO3MHA-12 | 2026-08-31 04:20:53 | 47.51053 | 13.03517 | 131° | 31km/h | 3175m | -3.5m/s | 3.9°C | 0% | 0hPa | 2.7V | 00:00:00 | 02:34:49 | 00:00:00 | |
| DO3MHA-11 | 2026-08-31 04:20:50 | 47.51068 | 13.03490 | 128° | 33km/h | 3186m | -3.1m/s | 3.8°C | 0% | 0hPa | 2.7V | 07:46:00 | 02:34:46 | 00:00:00 | |
| DO3MHA-12 | 2026-08-31 04:20:48 | 47.51078 | 13.03471 | 132° | 31km/h | 3193m | -4.1m/s | 3.8°C | 0% | 0hPa | 2.7V | 00:00:00 | 02:34:44 | 00:00:00 | |
| OE5DRO-10 | 2026-08-31 04:20:47 | 47.51083 | 13.03462 | 127° | 31km/h | 3197m | -3.6m/s | 3.8°C | 0% | 0hPa | 2.7V | 00:00:00 | 00:00:00 | 00:00:00 | |
| OE5DXL-15 | 2026-08-31 04:20:46 | 47.51088 | 13.03452 | 129° | 29km/h | 3200m | -3.2m/s | 3.7°C | 0% | 0hPa | 2.7V | 00:00:00 | 00:00:00 | 00:00:00 | |
| DO3MHA-11 | 2026-08-31 04:20:45 | 47.51093 | 13.03443 | 133° | 29km/h | 3204m | -3.7m/s | 3.7°C | 0% | 0hPa | 2.7V | 00:00:00 | 02:34:41 | 00:00:00 | |
| DO3MHA-12 | 2026-08-31 04:20:43 | 47.51103 | 13.03427 | 129° | 29km/h | 3212m | -4.0m/s | 3.6°C | 0% | 0hPa | 2.7V | 00:00:00 | 02:34:39 | 00:00:00 | |
| PG1ADW-2 | 2026-08-31 04:20:41 | 47.51113 | 13.03410 | 136° | 31km/h | 3220m | -4.0m/s | 3.6°C | 0% | 0hPa | 2.7V | 00:00:00 | 02:34:37 | 00:00:00 | |
| DO3MHA-11 | 2026-08-31 04:20:40 | 47.51118 | 13.03402 | 133° | 27km/h | 3224m | -3.8m/s | 3.6°C | 0% | 0hPa | 2.7V | 00:00:00 | 02:34:36 | 00:00:00 | |
| DO3MHA-12 | 2026-08-31 04:20:38 | 47.51127 | 13.03386 | 133° | 27km/h | 3231m | -3.8m/s | 3.6°C | 0% | 0hPa | 2.7V | 00:00:00 | 02:34:34 | 00:00:00 | |
| DO3MHA-11 | 2026-08-31 04:20:35 | 47.51142 | 13.03363 | 128° | 27km/h | 3241m | -3.3m/s | 3.5°C | 0% | 0hPa | 2.7V | 00:00:00 | 02:34:31 | 00:00:00 | |
| DO3MHA-12 | 2026-08-31 04:20:33 | 47.51151 | 13.03347 | 137° | 29km/h | 3248m | -2.6m/s | 3.5°C | 0% | 0hPa | 2.7V | 00:00:00 | 02:34:29 | 00:00:00 | |
| DO3MHA-11 | 2026-08-31 04:20:30 | 47.51165 | 13.03323 | 129° | 33km/h | 3256m | -2.9m/s | 3.4°C | 0% | 0hPa | 2.7V | 00:00:00 | 02:34:26 | 00:00:00 | |
| DO3MHA-12 | 2026-08-31 04:20:28 | 47.51174 | 13.03305 | 124° | 33km/h | 3262m | -2.4m/s | 3.4°C | 0% | 0hPa | 2.7V | 00:00:00 | 02:34:24 | 00:00:00 | |
| OE5DXL-15 | 2026-08-31 04:20:26 | 47.51184 | 13.03284 | 128° | 31km/h | 3267m | -2.8m/s | 3.4°C | 0% | 0hPa | 2.7V | 07:46:00 | 00:00:00 | 00:00:00 | |
| DO3MHA-11 | 2026-08-31 04:20:25 | 47.51189 | 13.03274 | 128° | 31km/h | 3270m | -3.0m/s | 3.4°C | 0% | 0hPa | 2.7V | 00:00:00 | 02:34:21 | 00:00:00 | |
| DO3MHA-12 | 2026-08-31 04:20:23 | 47.51198 | 13.03254 | 126° | 31km/h | 3275m | -2.5m/s | 3.4°C | 0% | 0hPa | 2.7V | 07:46:00 | 02:34:19 | 00:00:00 | |
| DO3MHA-11 | 2026-08-31 04:20:20 | 47.51213 | 13.03227 | 128° | 31km/h | 3285m | -3.5m/s | 3.3°C | 0% | 0hPa | 2.7V | 00:00:00 | 02:34:16 | 00:00:00 | |
| PG1ADW-2 | 2026-08-31 04:20:19 | 47.51217 | 13.03217 | 125° | 31km/h | 3288m | -3.5m/s | 3.3°C | 0% | 0hPa | 2.7V | 00:00:00 | 00:00:00 | 00:00:00 | |
| DO3MHA-12 | 2026-08-31 04:20:18 | 47.51222 | 13.03208 | 131° | 31km/h | 3292m | -4.1m/s | 3.3°C | 0% | 0hPa | 2.7V | 00:00:00 | 02:34:14 | 00:00:00 | |
| DO3MHA-11 | 2026-08-31 04:20:15 | 47.51236 | 13.03182 | 126° | 31km/h | 3304m | -4.0m/s | 3.3°C | 0% | 0hPa | 2.7V | 00:00:00 | 02:34:11 | 00:00:00 | |
| DO3MHA-12 | 2026-08-31 04:20:13 | 47.51246 | 13.03164 | 130° | 31km/h | 3311m | -3.9m/s | 3.3°C | 0% | 0hPa | 2.7V | 00:00:00 | 02:34:09 | 00:00:00 | |
| OE5DRO-10 | 2026-08-31 04:20:12 | 47.51251 | 13.03155 | 126° | 31km/h | 3315m | -3.8m/s | 3.3°C | 0% | 0hPa | 2.7V | 00:00:00 | 00:00:00 | 00:00:00 | |
| DO3MHA-11 | 2026-08-31 04:20:10 | 47.51261 | 13.03136 | 134° | 31km/h | 3323m | -3.5m/s | 2.9°C | 0% | 0hPa | 2.7V | 07:47:00 | 02:34:06 | 00:00:00 | |
| DO3MHA-12 | 2026-08-31 04:20:08 | 47.51271 | 13.03119 | 126° | 31km/h | 3330m | -3.5m/s | 2.2°C | 0% | 0hPa | 2.7V | 00:00:00 | 02:34:04 | 00:00:00 | |
| DO3MHA-11 | 2026-08-31 04:20:05 | 47.51286 | 13.03092 | 128° | 31km/h | 3340m | -3.4m/s | 1.9°C | 0% | 0hPa | 2.7V | 00:00:00 | 02:34:01 | 00:00:00 | |
| DO3MHA-12 | 2026-08-31 04:20:03 | 47.51295 | 13.03073 | 128° | 33km/h | 3347m | -3.3m/s | 1.9°C | 0% | 0hPa | 2.7V | 00:00:00 | 02:33:59 | 00:00:00 | |
| DO3MHA-11 | 2026-08-31 04:20:00 | 47.51309 | 13.03045 | 124° | 31km/h | 3356m | -3.1m/s | 1.9°C | 0% | 0hPa | 2.7V | 00:00:00 | 02:33:56 | 00:00:00 | |
| PG1ADW-2 | 2026-08-31 04:19:59 | 47.51314 | 13.03036 | 130° | 29km/h | 3360m | -3.0m/s | 1.8°C | 0% | 0hPa | 2.7V | 00:00:00 | 00:00:00 | 00:00:00 | |
| OE5DRO-10 | 2026-08-31 04:19:58 | 47.51319 | 13.03027 | 132° | 29km/h | 3363m | -2.8m/s | 1.8°C | 0% | 0hPa | 2.7V | 00:00:00 | 00:00:00 | 00:00:00 | |
| DO3MHA-11 | 2026-08-31 04:19:55 | 47.51333 | 13.02999 | 128° | 29km/h | 3371m | -2.9m/s | 1.8°C | 0% | 0hPa | 2.7V | 00:00:00 | 02:33:51 | 00:00:00 | |
| DO3MHA-12 | 2026-08-31 04:19:53 | 47.51341 | 13.02981 | 120° | 29km/h | 3377m | -2.4m/s | 1.7°C | 0% | 0hPa | 2.7V | 00:00:00 | 02:33:49 | 00:00:00 | |
| OE5DRO-10 | 2026-08-31 04:19:51 | 47.51349 | 13.02962 | 126° | 29km/h | 3382m | -2.3m/s | 1.7°C | 0% | 0hPa | 2.7V | 00:00:00 | 00:00:00 | 00:00:00 | |
| DO3MHA-11 | 2026-08-31 04:19:50 | 47.51353 | 13.02953 | 123° | 29km/h | 3384m | -1.8m/s | 1.7°C | 0% | 0hPa | 2.7V | 00:00:00 | 02:33:46 | 00:00:00 | |
| OE5DXL-15 | 2026-08-31 04:19:46 | 47.51368 | 13.02914 | 119° | 29km/h | 3391m | -1.8m/s | 1.6°C | 0% | 0hPa | 2.7V | 00:00:00 | 00:00:00 | 00:00:00 | |
| OE5DRO-10 | 2026-08-31 04:19:44 | 47.51374 | 13.02894 | 116° | 29km/h | 3395m | -1.7m/s | 1.7°C | 0% | 0hPa | 2.7V | 00:00:00 | 00:00:00 | 00:00:00 | |
| DO3MHA-12 | 2026-08-31 04:19:41 | 47.51384 | 13.02866 | 114° | 27km/h | 3399m | -1.5m/s | 2.0°C | 0% | 0hPa | 2.7V | 00:00:00 | 02:33:37 | 00:00:00 | |
| DO3MHA-11 | 2026-08-31 04:19:40 | 47.51387 | 13.02857 | 115° | 27km/h | 3401m | -1.7m/s | 1.8°C | 0% | 0hPa | 2.7V | 00:00:00 | 02:33:36 | 00:00:00 | |
| PG1ADW-2 | 2026-08-31 04:19:39 | 47.51390 | 13.02847 | 121° | 29km/h | 3403m | -1.6m/s | 1.9°C | 0% | 0hPa | 2.7V | 00:00:00 | 00:00:00 | 00:00:00 | |
| OE5DRO-10 | 2026-08-31 04:19:37 | 47.51397 | 13.02829 | 115° | 29km/h | 3406m | -1.4m/s | 1.7°C | 0% | 0hPa | 2.7V | 00:00:00 | 00:00:00 | 00:00:00 | |
| DO3MHA-12 | 2026-08-31 04:19:36 | 47.51400 | 13.02820 | 114° | 29km/h | 3408m | -1.9m/s | 1.6°C | 0% | 0hPa | 2.7V | 07:47:00 | 02:33:32 | 00:00:00 | |
| DO3MHA-11 | 2026-08-31 04:19:35 | 47.51403 | 13.02810 | 119° | 29km/h | 3410m | -1.8m/s | 1.9°C | 0% | 0hPa | 2.7V | 00:00:00 | 02:33:31 | 00:00:00 | |
| DO3MHA-11 | 2026-08-31 04:19:30 | 47.51419 | 13.02762 | 115° | 29km/h | 3419m | -1.8m/s | 2.1°C | 0% | 0hPa | 2.7V | 07:47:00 | 02:33:26 | 00:00:00 | |
| DO3MHA-12 | 2026-08-31 04:19:29 | 47.51422 | 13.02752 | 112° | 29km/h | 3421m | -1.9m/s | 2.0°C | 0% | 0hPa | 2.7V | 00:00:00 | 02:33:25 | 00:00:00 | |
| OE5DXL-15 | 2026-08-31 04:19:26 | 47.51431 | 13.02721 | 112° | 27km/h | 3426m | -1.8m/s | 1.9°C | 0% | 0hPa | 2.7V | 00:00:00 | 00:00:00 | 00:00:00 | |
| DO3MHA-11 | 2026-08-31 04:19:25 | 47.51433 | 13.02710 | 108° | 27km/h | 3427m | -1.3m/s | 2.0°C | 0% | 0hPa | 2.7V | 00:00:00 | 02:33:21 | 00:00:00 | |
| DO3MHA-12 | 2026-08-31 04:19:24 | 47.51436 | 13.02700 | 113° | 31km/h | 3428m | -1.4m/s | 2.0°C | 0% | 0hPa | 2.7V | 00:00:00 | 02:33:20 | 00:00:00 | |
| OE5DRO-10 | 2026-08-31 04:19:23 | 47.51439 | 13.02690 | 116° | 26km/h | 3430m | -1.7m/s | 2.0°C | 0% | 0hPa | 2.7V | 00:00:00 | 00:00:00 | 00:00:00 | |
| DO3MHA-11 | 2026-08-31 04:19:20 | 47.51446 | 13.02662 | 110° | 26km/h | 3434m | -1.9m/s | 2.1°C | 0% | 0hPa | 2.7V | 00:00:00 | 02:33:16 | 00:00:00 | |
| DO3MHA-12 | 2026-08-31 04:19:19 | 47.51449 | 13.02653 | 115° | 26km/h | 3437m | -2.6m/s | 2.0°C | 0% | 0hPa | 2.7V | 00:00:00 | 02:33:15 | 00:00:00 | |
| OE5DRO-10 | 2026-08-31 04:19:16 | 47.51456 | 13.02627 | 113° | 26km/h | 3444m | -2.6m/s | 2.0°C | 0% | 0hPa | 2.7V | 00:00:00 | 00:00:00 | 00:00:00 | |
| DO3MHA-11 | 2026-08-31 04:19:15 | 47.51458 | 13.02618 | 117° | 26km/h | 3446m | -2.0m/s | 2.0°C | 0% | 0hPa | 2.7V | 00:00:00 | 02:33:11 | 00:00:00 | |
| DO3MHA-12 | 2026-08-31 04:19:12 | 47.51465 | 13.02590 | 112° | 27km/h | 3454m | -2.7m/s | 2.0°C | 0% | 0hPa | 2.7V | 00:00:00 | 02:33:08 | 00:00:00 | |
| DO3MHA-11 | 2026-08-31 04:19:10 | 47.51470 | 13.02572 | 108° | 26km/h | 3459m | -2.9m/s | 1.9°C | 0% | 0hPa | 2.7V | 00:00:00 | 02:33:06 | 00:00:00 | |
| OE5DRO-10 | 2026-08-31 04:19:09 | 47.51472 | 13.02563 | 107° | 26km/h | 3462m | -2.5m/s | 1.9°C | 0% | 0hPa | 2.7V | 00:00:00 | 00:00:00 | 00:00:00 | |
| DO3MHA-12 | 2026-08-31 04:19:07 | 47.51476 | 13.02544 | 109° | 26km/h | 3466m | -2.2m/s | 1.8°C | 0% | 0hPa | 2.7V | 00:00:00 | 02:33:03 | 00:00:00 | |
| OE5DXL-15 | 2026-08-31 04:19:06 | 47.51478 | 13.02535 | 102° | 24km/h | 3468m | -2.7m/s | 1.8°C | 0% | 0hPa | 2.7V | 00:00:00 | 00:00:00 | 00:00:00 | |
| DO3MHA-11 | 2026-08-31 04:19:05 | 47.51480 | 13.02525 | 103° | 26km/h | 3471m | -2.0m/s | 1.8°C | 0% | 0hPa | 2.7V | 00:00:00 | 02:33:01 | 00:00:00 | |
| OE5DRO-10 | 2026-08-31 04:19:02 | 47.51485 | 13.02498 | 103° | 26km/h | 3477m | -2.0m/s | 1.7°C | 0% | 0hPa | 2.7V | 00:00:00 | 00:00:00 | 00:00:00 | |
| DO3MHA-12 | 2026-08-31 04:19:01 | 47.51487 | 13.02488 | 108° | 24km/h | 3479m | -2.3m/s | 1.7°C | 0% | 0hPa | 2.7V | 00:00:00 | 02:32:57 | 00:00:00 | |
| DO3MHA-11 | 2026-08-31 04:19:00 | 47.51490 | 13.02479 | 117° | 24km/h | 3481m | -1.9m/s | 1.5°C | 0% | 0hPa | 2.7V | 00:00:00 | 02:32:56 | 00:00:00 | |
| PG1ADW-2 | 2026-08-31 04:18:59 | 47.51492 | 13.02471 | 116° | 22km/h | 3483m | -1.7m/s | 1.6°C | 0% | 0hPa | 2.7V | 00:00:00 | 00:00:00 | 00:00:00 | |
| DO3MHA-11 | 2026-08-31 04:18:55 | 47.51504 | 13.02441 | 125° | 22km/h | 3489m | -1.4m/s | 1.5°C | 0% | 0hPa | 2.7V | 00:00:00 | 02:32:51 | 00:00:00 | |
| DO3MHA-11 | 2026-08-31 04:18:50 | 47.51519 | 13.02407 | 124° | 24km/h | 3500m | -3.3m/s | 1.3°C | 0% | 0hPa | 2.7V | 07:48:00 | 02:32:46 | 00:00:00 | |
| OE5DRO-10 | 2026-08-31 04:18:48 | 47.51527 | 13.02394 | 129° | 22km/h | 3505m | -2.2m/s | 1.3°C | 0% | 0hPa | 2.7V | 00:00:00 | 00:00:00 | 00:00:00 | |
| OE5DXL-15 | 2026-08-31 04:18:46 | 47.51534 | 13.02380 | 129° | 20km/h | 3511m | -2.9m/s | 1.3°C | 0% | 0hPa | 2.7V | 00:00:00 | 00:00:00 | 00:00:00 | |
| DO3MHA-11 | 2026-08-31 04:18:45 | 47.51538 | 13.02374 | 136° | 20km/h | 3513m | -1.8m/s | 1.3°C | 0% | 0hPa | 2.7V | 00:00:00 | 02:32:41 | 00:00:00 | |
| OE5DRO-10 | 2026-08-31 04:18:41 | 47.51553 | 13.02351 | 142° | 18km/h | 3524m | -2.0m/s | 1.4°C | 0% | 0hPa | 2.7V | 00:00:00 | 00:00:00 | 00:00:00 | |
| DO3MHA-11 | 2026-08-31 04:18:40 | 47.51556 | 13.02346 | 140° | 18km/h | 3527m | -3.4m/s | 1.4°C | 0% | 0hPa | 2.7V | 00:00:00 | 02:32:36 | 00:00:00 | |
| PG1ADW-2 | 2026-08-31 04:18:39 | 47.51560 | 13.02342 | 140° | 20km/h | 3531m | -4.5m/s | 1.3°C | 0% | 0hPa | 2.7V | 07:48:00 | 00:00:00 | 00:00:00 | |
| DO3MHA-11 | 2026-08-31 04:18:35 | 47.51573 | 13.02326 | 143° | 18km/h | 3544m | -3.4m/s | 1.3°C | 0% | 0hPa | 2.7V | 00:00:00 | 02:32:31 | 00:00:00 | |
| OE5DRO-10 | 2026-08-31 04:18:34 | 47.51576 | 13.02322 | 145° | 20km/h | 3547m | -3.8m/s | 1.3°C | 0% | 0hPa | 2.7V | 07:48:00 | 00:00:00 | 00:00:00 | |
| DO3MHA-11 | 2026-08-31 04:18:30 | 47.51594 | 13.02308 | 154° | 22km/h | 3562m | -3.7m/s | 1.2°C | 0% | 0hPa | 2.7V | 00:00:00 | 02:32:26 | 00:00:00 | |
| OE5DRO-10 | 2026-08-31 04:18:27 | 47.51609 | 13.02299 | 151° | 24km/h | 3570m | -2.8m/s | 1.0°C | 0% | 0hPa | 2.7V | 00:00:00 | 00:00:00 | 00:00:00 | |
| OE5DXL-15 | 2026-08-31 04:18:26 | 47.51614 | 13.02295 | 159° | 24km/h | 3573m | -2.3m/s | 0.9°C | 0% | 0hPa | 2.7V | 00:00:00 | 00:00:00 | 00:00:00 | |
| DO3MHA-11 | 2026-08-31 04:18:25 | 47.51619 | 13.02292 | 162° | 24km/h | 3574m | -1.2m/s | 1.0°C | 0% | 0hPa | 2.7V | 00:00:00 | 02:32:21 | 00:00:00 | |
| DO3MHA-11 | 2026-08-31 04:18:20 | 47.51645 | 13.02273 | 148° | 26km/h | 3578m | -1.0m/s | 1.5°C | 0% | 0hPa | 2.7V | 00:00:00 | 02:32:16 | 00:00:00 | |
| PG1ADW-2 | 2026-08-31 04:18:19 | 47.51650 | 13.02268 | 145° | 24km/h | 3579m | -0.9m/s | 1.3°C | 0% | 0hPa | 2.7V | 00:00:00 | 00:00:00 | 00:00:00 | |
| DO3MHA-11 | 2026-08-31 04:18:15 | 47.51673 | 13.02249 | 149° | 24km/h | 3583m | -1.0m/s | 1.6°C | 0% | 0hPa | 2.7V | 00:00:00 | 02:32:11 | 00:00:00 | |
| OE5DRO-10 | 2026-08-31 04:18:13 | 47.51684 | 13.02242 | 159° | 24km/h | 3586m | -2.1m/s | 1.3°C | 0% | 0hPa | 2.7V | 00:00:00 | 00:00:00 | 00:00:00 | |
| DO3MHA-11 | 2026-08-31 04:18:10 | 47.51699 | 13.02230 | 158° | 24km/h | 3590m | -0.9m/s | 1.8°C | 0% | 0hPa | 2.7V | 07:49:00 | 02:32:06 | 00:00:00 | |
| OE5DXL-15 | 2026-08-31 04:18:06 | 47.51721 | 13.02214 | 159° | 26km/h | 3594m | -0.5m/s | 1.7°C | 0% | 0hPa | 2.7V | 00:00:00 | 00:00:00 | 00:00:00 | |
| DO3MHA-11 | 2026-08-31 04:18:05 | 47.51727 | 13.02210 | 155° | 26km/h | 3595m | -0.5m/s | 1.3°C | 0% | 0hPa | 2.7V | 00:00:00 | 02:32:01 | 00:00:00 | |
| DO3MHA-12 | 2026-08-31 04:18:00 | 47.51756 | 13.02189 | 150° | 24km/h | 3597m | -0.1m/s | 1.1°C | 0% | 0hPa | 2.7V | 00:00:00 | 02:31:56 | 00:00:00 | |
| PG1ADW-2 | 2026-08-31 04:17:59 | 47.51761 | 13.02185 | 154° | 26km/h | 3597m | -0.4m/s | 1.1°C | 0% | 0hPa | 2.7V | 00:00:00 | 02:31:55 | 00:00:00 | |
| DO3MHA-11 | 2026-08-31 04:17:58 | 47.51766 | 13.02181 | 157° | 24km/h | 3598m | -0.8m/s | 0°C | 0% | 0hPa | 2.7V | 00:00:00 | 02:31:54 | 00:00:00 | |
| DO3MHA-11 | 2026-08-31 04:17:53 | 47.51794 | 13.02163 | 152° | 27km/h | 3603m | -1.5m/s | 1.0°C | 0% | 0hPa | 2.7V | 00:00:00 | 02:31:49 | 00:00:00 | |
| OE5DRO-10 | 2026-08-31 04:17:52 | 47.51799 | 13.02158 | 152° | 27km/h | 3605m | -1.5m/s | 1.0°C | 0% | 0hPa | 2.7V | 00:00:00 | 00:00:00 | 00:00:00 | |
| DO3MHA-11 | 2026-08-31 04:17:48 | 47.51824 | 13.02138 | 150° | 27km/h | 3609m | -0.4m/s | 0.9°C | 0% | 0hPa | 2.7V | 00:00:00 | 02:31:44 | 00:00:00 | |
| OE5DXL-15 | 2026-08-31 04:17:45 | 47.51842 | 13.02124 | 150° | 26km/h | 3612m | -1.0m/s | 0.9°C | 0% | 0hPa | 2.7V | 07:49:00 | 00:00:00 | 00:00:00 | |
| DO3MHA-11 | 2026-08-31 04:17:43 | 47.51855 | 13.02114 | 155° | 26km/h | 3613m | -1.3m/s | 0.8°C | 0% | 0hPa | 2.7V | 00:00:00 | 02:31:39 | 00:00:00 | |
| PG1ADW-2 | 2026-08-31 04:17:39 | 47.51878 | 13.02094 | 152° | 26km/h | 3618m | -1.3m/s | 0.9°C | 0% | 0hPa | 2.7V | 00:00:00 | 00:00:00 | 00:00:00 | |
| DO3MHA-11 | 2026-08-31 04:17:38 | 47.51883 | 13.02089 | 147° | 27km/h | 3620m | -2.2m/s | 1.0°C | 0% | 0hPa | 2.7V | 00:00:00 | 02:31:34 | 00:00:00 | |
| DO3MHA-11 | 2026-08-31 04:17:33 | 47.51914 | 13.02063 | 149° | 26km/h | 3627m | -1.4m/s | 0.6°C | 0% | 0hPa | 2.7V | 00:00:00 | 02:31:29 | 00:00:00 | |
| OE5DRO-10 | 2026-08-31 04:17:31 | 47.51925 | 13.02054 | 149° | 26km/h | 3630m | -1.1m/s | 0.7°C | 0% | 0hPa | 2.7V | 07:49:00 | 00:00:00 | 00:00:00 | |
| DO3MHA-12 | 2026-08-31 04:17:29 | 47.51935 | 13.02043 | 147° | 24km/h | 3632m | -0.8m/s | 0.7°C | 0% | 0hPa | 2.7V | 07:49:00 | 02:31:25 | 00:00:00 | |
| DO3MHA-12 | 2026-08-31 04:17:23 | 47.51964 | 13.02012 | 142° | 26km/h | 3639m | -1.6m/s | 0.8°C | 0% | 0hPa | 2.7V | 00:00:00 | 02:31:19 | 00:00:00 | |
| OE5DXL-15 | 2026-08-31 04:17:21 | 47.51975 | 13.02002 | 151° | 27km/h | 3641m | -1.0m/s | 0.8°C | 0% | 0hPa | 2.7V | 00:00:00 | 00:00:00 | 00:00:00 | |
| PG1ADW-2 | 2026-08-31 04:17:19 | 47.51986 | 13.01992 | 147° | 26km/h | 3644m | -2.2m/s | 0.7°C | 0% | 0hPa | 2.7V | 00:00:00 | 00:00:00 | 00:00:00 | |
| DO3MHA-12 | 2026-08-31 04:17:18 | 47.51992 | 13.01986 | 146° | 27km/h | 3645m | -1.1m/s | 0.6°C | 0% | 0hPa | 2.7V | 00:00:00 | 02:31:14 | 00:00:00 | |
| DG1MFX-10 | 2026-08-31 04:17:17 | 47.51992 | 13.01986 | 147° | 29km/h | 3645m | -1.1m/s | 0.7°C | 135.1% | 0hPa | 2.7V | 07:50:00 | 00:00:00 | 00:00:00 | |
| OE5DRO-10 | 2026-08-31 04:17:15 | 47.52008 | 13.01969 | 142° | 26km/h | 3648m | -0.9m/s | 0.6°C | 0% | 0hPa | 2.7V | 00:00:00 | 00:00:00 | 00:00:00 | |
| DO3MHA-12 | 2026-08-31 04:17:13 | 47.52018 | 13.01956 | 141° | 27km/h | 3651m | -0.8m/s | 0.7°C | 0% | 0hPa | 2.7V | 00:00:00 | 02:31:09 | 00:00:00 | |
| DO3MHA-12 | 2026-08-31 04:17:08 | 47.52045 | 13.01926 | 146° | 26km/h | 3658m | -1.9m/s | 0.5°C | 0% | 0hPa | 2.7V | 00:00:00 | 02:31:04 | 00:00:00 | |
| OE5DRO-10 | 2026-08-31 04:16:59 | 47.52091 | 13.01875 | 139° | 29km/h | 3676m | -2.1m/s | 0.5°C | 0% | 0hPa | 2.7V | 00:00:00 | 00:00:00 | 00:00:00 | |
| DO3MHA-11 | 2026-08-31 04:16:58 | 47.52096 | 13.01868 | 138° | 27km/h | 3678m | -2.4m/s | 0.4°C | 0% | 0hPa | 2.7V | 00:00:00 | 02:30:54 | 00:00:00 | |
| DG1MFX-10 | 2026-08-31 04:16:56 | 47.52101 | 13.01861 | 137° | 29km/h | 3680m | -2.5m/s | 0.5°C | 132.1% | 0hPa | 2.7V | 07:50:00 | 00:00:00 | 00:00:00 | |
| DO3MHA-11 | 2026-08-31 04:16:53 | 47.52122 | 13.01833 | 141° | 29km/h | 3686m | -0.4m/s | 0.4°C | 0% | 0hPa | 2.7V | 00:00:00 | 02:30:49 | 00:00:00 | |
| OE5DXL-15 | 2026-08-31 04:16:51 | 47.52134 | 13.01821 | 147° | 27km/h | 3688m | -0.9m/s | 0.4°C | 0% | 0hPa | 2.7V | 00:00:00 | 00:00:00 | 00:00:00 | |
| DO3MHA-12 | 2026-08-31 04:16:48 | 47.52153 | 13.01801 | 148° | 27km/h | 3689m | -0.3m/s | 0.5°C | 0% | 0hPa | 2.7V | 07:50:00 | 02:30:44 | 00:00:00 | |
| OE5DRO-10 | 2026-08-31 04:16:43 | 47.52183 | 13.01773 | 148° | 26km/h | 3689m | -0.0m/s | 0.5°C | 0% | 0hPa | 2.7V | 00:00:00 | 00:00:00 | 00:00:00 | |
| PG1ADW-2 | 2026-08-31 04:16:39 | 47.52204 | 13.01751 | 137° | 26km/h | 3688m | 0.8m/s | 0.5°C | 0% | 0hPa | 2.7V | 00:00:00 | 02:30:35 | 00:00:00 | |
| DO3MHA-12 | 2026-08-31 04:16:38 | 47.52209 | 13.01745 | 139° | 26km/h | 3688m | -0.2m/s | 0.5°C | 0% | 0hPa | 2.7V | 00:00:00 | 02:30:34 | 00:00:00 | |
| DG1MFX-10 | 2026-08-31 04:16:36 | 47.52214 | 13.01738 | 138° | 24km/h | 3688m | -0.1m/s | 0.5°C | 135.0% | 0hPa | 2.7V | 07:50:00 | 00:00:00 | 00:00:00 | |
| DO3MHA-11 | 2026-08-31 04:16:28 | 47.52250 | 13.01671 | 129° | 26km/h | 3685m | -0.5m/s | 0.4°C | 0% | 0hPa | 2.7V | 00:00:00 | 02:30:24 | 00:00:00 | |
| OE5DRO-10 | 2026-08-31 04:16:24 | 47.52267 | 13.01641 | 130° | 26km/h | 3687m | -0.4m/s | 0.3°C | 0% | 0hPa | 2.7V | 00:00:00 | 00:00:00 | 00:00:00 | |
| DO3MHA-12 | 2026-08-31 04:16:23 | 47.52271 | 13.01634 | 131° | 26km/h | 3688m | -1.1m/s | 0.4°C | 0% | 0hPa | 2.7V | 00:00:00 | 02:30:19 | 00:00:00 | |
| DO3MHA-11 | 2026-08-31 04:16:22 | 47.52276 | 13.01627 | 131° | 24km/h | 3689m | -0.5m/s | 0.4°C | 0% | 0hPa | 2.7V | 00:00:00 | 02:30:18 | 00:00:00 | |
| PG1ADW-2 | 2026-08-31 04:16:19 | 47.52287 | 13.01605 | 131° | 24km/h | 3690m | -1.0m/s | 0.3°C | 0% | 0hPa | 2.7V | 00:00:00 | 00:00:00 | 00:00:00 | |
| DO3MHA-12 | 2026-08-31 04:16:18 | 47.52291 | 13.01598 | 131° | 24km/h | 3691m | -0.7m/s | 0.4°C | 0% | 0hPa | 2.7V | 00:00:00 | 02:30:14 | 00:00:00 | |
| DO3MHA-11 | 2026-08-31 04:16:17 | 47.52295 | 13.01591 | 132° | 24km/h | 3692m | -1.3m/s | 0.4°C | 0% | 0hPa | 2.7V | 00:00:00 | 02:30:13 | 00:00:00 | |
| DG1MFX-10 | 2026-08-31 04:16:16 | 47.52295 | 13.01591 | 133° | 24km/h | 3692m | -1.4m/s | 0.4°C | 135.0% | 0hPa | 2.7V | 07:51:00 | 00:00:00 | 00:00:00 | |
| DO3MHA-12 | 2026-08-31 04:16:12 | 47.52314 | 13.01555 | 123° | 24km/h | 3697m | -0.8m/s | 0.1°C | 0% | 0hPa | 2.7V | 00:00:00 | 02:30:08 | 00:00:00 | |
| OE5DRO-10 | 2026-08-31 04:16:10 | 47.52321 | 13.01541 | 126° | 24km/h | 3700m | -2.0m/s | 0.2°C | 0% | 0hPa | 2.7V | 00:00:00 | 00:00:00 | 00:00:00 | |
| DO3MHA-12 | 2026-08-31 04:16:07 | 47.52331 | 13.01518 | 124° | 24km/h | 3705m | -1.5m/s | 0.2°C | 0% | 0hPa | 2.7V | 00:00:00 | 02:30:03 | 00:00:00 | |
| DO3MHA-11 | 2026-08-31 04:16:02 | 47.52347 | 13.01480 | 122° | 24km/h | 3713m | -1.1m/s | 0.2°C | 0% | 0hPa | 2.7V | 00:00:00 | 02:29:58 | 00:00:00 | |
| OE5DXL-15 | 2026-08-31 04:16:01 | 47.52350 | 13.01472 | 124° | 20km/h | 3715m | -2.1m/s | 0.2°C | 0% | 0hPa | 2.7V | 00:00:00 | 00:00:00 | 00:00:00 | |
| PG1ADW-2 | 2026-08-31 04:15:59 | 47.52357 | 13.01458 | 126° | 20km/h | 3718m | -1.3m/s | 0.2°C | 0% | 0hPa | 2.7V | 07:51:00 | 00:00:00 | 00:00:00 | |
| DO3MHA-11 | 2026-08-31 04:15:57 | 47.52363 | 13.01446 | 132° | 20km/h | 3722m | -2.0m/s | 0.2°C | 0% | 0hPa | 2.7V | 07:51:00 | 02:29:53 | 00:00:00 | |
| OE5DRO-10 | 2026-08-31 04:15:56 | 47.52367 | 13.01441 | 136° | 20km/h | 3724m | -2.4m/s | 0.2°C | 0% | 0hPa | 2.7V | 07:51:00 | 00:00:00 | 00:00:00 | |
| DG1MFX-10 | 2026-08-31 04:15:55 | 47.52367 | 13.01441 | 137° | 20km/h | 3724m | -2.4m/s | 0.3°C | 128.3% | 0hPa | 2.7V | 07:51:00 | 00:00:00 | 00:00:00 | |
| DO3MHA-12 | 2026-08-31 04:15:52 | 47.52381 | 13.01419 | 132° | 18km/h | 3732m | -1.2m/s | 0.3°C | 0% | 0hPa | 2.7V | 00:00:00 | 02:29:48 | 00:00:00 | |
| OE5DRO-10 | 2026-08-31 04:15:49 | 47.52391 | 13.01404 | 132° | 18km/h | 3736m | -0.5m/s | 0.2°C | 0% | 0hPa | 2.7V | 00:00:00 | 00:00:00 | 00:00:00 | |
| DO3MHA-12 | 2026-08-31 04:15:47 | 47.52397 | 13.01393 | 125° | 18km/h | 3737m | -0.4m/s | 0.2°C | 0% | 0hPa | 2.7V | 00:00:00 | 02:29:43 | 00:00:00 | |
| OE5DXL-15 | 2026-08-31 04:15:41 | 47.52411 | 13.01358 | 120° | 18km/h | 3737m | -0.4m/s | 0.3°C | 0% | 0hPa | 2.7V | 00:00:00 | 00:00:00 | 00:00:00 | |
| DO3MHA-11 | 2026-08-31 04:15:40 | 47.52413 | 13.01352 | 119° | 18km/h | 3737m | -0.3m/s | 0.3°C | 0% | 0hPa | 2.7V | 00:00:00 | 02:29:36 | 00:00:00 | |
| PG1ADW-2 | 2026-08-31 04:15:39 | 47.52416 | 13.01347 | 129° | 18km/h | 3737m | -0.0m/s | 0.3°C | 0% | 0hPa | 2.7V | 00:00:00 | 00:00:00 | 00:00:00 | |
| DG1MFX-10 | 2026-08-31 04:15:35 | 47.52423 | 13.01332 | 129° | 18km/h | 3738m | -0.1m/s | 0.5°C | 136.5% | 0hPa | 2.7V | 07:52:00 | 00:00:00 | 00:00:00 | |
| DO3MHA-12 | 2026-08-31 04:15:31 | 47.52438 | 13.01307 | 140° | 18km/h | 3736m | 0.1m/s | 0.4°C | 0% | 0hPa | 2.7V | 00:00:00 | 02:29:27 | 00:00:00 | |
| DO3MHA-11 | 2026-08-31 04:15:30 | 47.52441 | 13.01302 | 134° | 16km/h | 3736m | 0.3m/s | 0.5°C | 0% | 0hPa | 2.7V | 00:00:00 | 02:29:26 | 00:00:00 | |
| OE5DRO-10 | 2026-08-31 04:15:24 | 47.52458 | 13.01274 | 137° | 18km/h | 3735m | -0.2m/s | 0.5°C | 0% | 0hPa | 2.7V | 00:00:00 | 00:00:00 | 00:00:00 | |
| DO3MHA-12 | 2026-08-31 04:15:21 | 47.52467 | 13.01260 | 138° | 18km/h | 3736m | -0.2m/s | 0.5°C | 0% | 0hPa | 2.7V | 00:00:00 | 02:29:17 | 00:00:00 | |
| DO3MHA-11 | 2026-08-31 04:15:20 | 47.52470 | 13.01255 | 134° | 18km/h | 3736m | -0.1m/s | 0.5°C | 0% | 0hPa | 2.7V | 00:00:00 | 02:29:16 | 00:00:00 | |
| PG1ADW-2 | 2026-08-31 04:15:19 | 47.52473 | 13.01250 | 132° | 18km/h | 3736m | -0.3m/s | 0.5°C | 0% | 0hPa | 2.7V | 00:00:00 | 02:29:15 | 00:00:00 | |
| DG1MFX-10 | 2026-08-31 04:15:15 | 47.52483 | 13.01235 | 131° | 18km/h | 3737m | 0.7m/s | 0.5°C | 136.3% | 0hPa | 2.6V | 07:52:00 | 00:00:00 | 00:00:00 | |
| OE5DXL-15 | 2026-08-31 04:15:12 | 47.52497 | 13.01215 | 133° | 18km/h | 3735m | -0.0m/s | 0.4°C | 0% | 0hPa | 2.6V | 00:00:00 | 00:00:00 | 00:00:00 | |
| DO3MHA-12 | 2026-08-31 04:15:11 | 47.52500 | 13.01210 | 136° | 18km/h | 3735m | -0.3m/s | 0.4°C | 0% | 0hPa | 2.6V | 00:00:00 | 02:29:07 | 00:00:00 | |
| DO3MHA-11 | 2026-08-31 04:15:10 | 47.52503 | 13.01206 | 136° | 18km/h | 3736m | 0.3m/s | 0.4°C | 0% | 0hPa | 2.6V | 00:00:00 | 02:29:06 | 00:00:00 | |
| OE5DRO-10 | 2026-08-31 04:15:05 | 47.52518 | 13.01181 | 131° | 18km/h | 3733m | 0.2m/s | 0.5°C | 0% | 0hPa | 2.7V | 00:00:00 | 00:00:00 | 00:00:00 | |
| DO3MHA-12 | 2026-08-31 04:15:01 | 47.52530 | 13.01161 | 129° | 18km/h | 3732m | 0.5m/s | 0.6°C | 0% | 0hPa | 2.7V | 00:00:00 | 02:28:57 | 00:00:00 | |
| DO3MHA-11 | 2026-08-31 04:15:00 | 47.52533 | 13.01156 | 137° | 18km/h | 3732m | 0.4m/s | 0.6°C | 0% | 0hPa | 2.7V | 00:00:00 | 02:28:56 | 00:00:00 | |
| PG1ADW-2 | 2026-08-31 04:14:59 | 47.52536 | 13.01151 | 135° | 18km/h | 3731m | 0.2m/s | 0.6°C | 0% | 0hPa | 2.7V | 00:00:00 | 00:00:00 | 00:00:00 | |
| DG1MFX-10 | 2026-08-31 04:14:54 | 47.52549 | 13.01132 | 140° | 16km/h | 3731m | 0.0m/s | 0.6°C | 133.8% | 0hPa | 2.7V | 07:52:00 | 00:00:00 | 00:00:00 | |
| DO3MHA-11 | 2026-08-31 04:14:50 | 47.52565 | 13.01108 | 130° | 18km/h | 3730m | 0.3m/s | 0.6°C | 0% | 0hPa | 2.7V | 07:52:00 | 02:28:46 | 00:00:00 | |
| OE5DRO-10 | 2026-08-31 04:14:46 | 47.52577 | 13.01087 | 136° | 18km/h | 3726m | 1.0m/s | 0.6°C | 0% | 0hPa | 2.7V | 00:00:00 | 00:00:00 | 00:00:00 | |
| OE5DXL-15 | 2026-08-31 04:14:41 | 47.52592 | 13.01063 | 134° | 18km/h | 3723m | 0.7m/s | 0.6°C | 0% | 0hPa | 2.7V | 00:00:00 | 00:00:00 | 00:00:00 | |
| DO3MHA-12 | 2026-08-31 04:14:40 | 47.52595 | 13.01058 | 132° | 18km/h | 3722m | 0.6m/s | 0.6°C | 0% | 0hPa | 2.7V | 00:00:00 | 02:28:36 | 00:00:00 | |
| PG1ADW-2 | 2026-08-31 04:14:39 | 47.52599 | 13.01053 | 134° | 18km/h | 3721m | 0.3m/s | 0.6°C | 0% | 0hPa | 2.7V | 00:00:00 | 00:00:00 | 00:00:00 | |
| DG1MFX-10 | 2026-08-31 04:14:33 | 47.52613 | 13.01030 | 132° | 18km/h | 3719m | 0.5m/s | 0.7°C | 135.1% | 0hPa | 2.7V | 07:53:00 | 00:00:00 | 00:00:00 | |
| DO3MHA-12 | 2026-08-31 04:14:30 | 47.52625 | 13.01010 | 133° | 18km/h | 3716m | 0.2m/s | 0.6°C | 0% | 0hPa | 2.7V | 00:00:00 | 02:28:26 | 00:00:00 | |
| OE5DRO-10 | 2026-08-31 04:14:27 | 47.52635 | 13.00995 | 133° | 18km/h | 3715m | 0.5m/s | 0.6°C | 0% | 0hPa | 2.7V | 00:00:00 | 00:00:00 | 00:00:00 | |
| DO3MHA-12 | 2026-08-31 04:14:20 | 47.52658 | 13.00963 | 129° | 18km/h | 3711m | 1.5m/s | 0.7°C | 0% | 0hPa | 2.7V | 00:00:00 | 02:28:16 | 00:00:00 | |
| PG1ADW-2 | 2026-08-31 04:14:19 | 47.52661 | 13.00958 | 134° | 20km/h | 3709m | 1.5m/s | 0.7°C | 0% | 0hPa | 2.7V | 00:00:00 | 00:00:00 | 00:00:00 | |
| DG1MFX-10 | 2026-08-31 04:14:13 | 47.52677 | 13.00932 | 139° | 18km/h | 3705m | 0.4m/s | 0.8°C | 133.9% | 0hPa | 2.7V | 07:53:00 | 00:00:00 | 00:00:00 | |
| OE5DXL-15 | 2026-08-31 04:14:11 | 47.52687 | 13.00917 | 136° | 20km/h | 3705m | -0.5m/s | 0.7°C | 0% | 0hPa | 2.7V | 07:53:00 | 00:00:00 | 00:00:00 | |
| DO3MHA-11 | 2026-08-31 04:14:10 | 47.52690 | 13.00912 | 132° | 20km/h | 3705m | -0.0m/s | 0.7°C | 0% | 0hPa | 2.7V | 00:00:00 | 02:28:06 | 00:00:00 | |
| OE5DRO-10 | 2026-08-31 04:14:08 | 47.52697 | 13.00902 | 139° | 20km/h | 3706m | -0.2m/s | 0.7°C | 0% | 0hPa | 2.7V | 00:00:00 | 00:00:00 | 00:00:00 | |
| DO3MHA-11 | 2026-08-31 04:14:00 | 47.52725 | 13.00861 | 137° | 20km/h | 3705m | 0.0m/s | 0.6°C | 0% | 0hPa | 2.6V | 00:00:00 | 02:27:56 | 00:00:00 | |
| PG1ADW-2 | 2026-08-31 04:13:59 | 47.52729 | 13.00855 | 133° | 20km/h | 3705m | 0.3m/s | 0.6°C | 0% | 0hPa | 2.6V | 00:00:00 | 02:27:55 | 00:00:00 | |
| DG1MFX-10 | 2026-08-31 04:13:52 | 47.52749 | 13.00822 | 131° | 20km/h | 3703m | 0.2m/s | 0.6°C | 137.5% | 0hPa | 2.6V | 07:54:00 | 00:00:00 | 00:00:00 | |
| DO3MHA-12 | 2026-08-31 04:13:50 | 47.52760 | 13.00806 | 131° | 20km/h | 3701m | 0.8m/s | 0.6°C | 0% | 0hPa | 2.6V | 00:00:00 | 02:27:46 | 00:00:00 | |
| OE5DRO-10 | 2026-08-31 04:13:49 | 47.52763 | 13.00800 | 131° | 20km/h | 3700m | 0.9m/s | 0.6°C | 0% | 0hPa | 2.7V | 07:53:00 | 00:00:00 | 00:00:00 | |
| OE5DXL-15 | 2026-08-31 04:13:45 | 47.52775 | 13.00777 | 134° | 20km/h | 3698m | 0.6m/s | 0.6°C | 0% | 0hPa | 2.7V | 00:00:00 | 00:00:00 | 00:00:00 | |
| DO3MHA-11 | 2026-08-31 04:13:40 | 47.52791 | 13.00750 | 127° | 22km/h | 3695m | 0.6m/s | 0.6°C | 0% | 0hPa | 2.7V | 00:00:00 | 02:27:36 | 00:00:00 | |
| PG1ADW-2 | 2026-08-31 04:13:39 | 47.52793 | 13.00744 | 120° | 20km/h | 3694m | 0.7m/s | 0.6°C | 0% | 0hPa | 2.7V | 00:00:00 | 00:00:00 | 00:00:00 | |
| DG1MFX-10 | 2026-08-31 04:13:32 | 47.52811 | 13.00704 | 124° | 22km/h | 3690m | 0.4m/s | 0.7°C | 138.1% | 0hPa | 2.7V | 07:54:00 | 00:00:00 | 00:00:00 | |
| DO3MHA-11 | 2026-08-31 04:13:30 | 47.52821 | 13.00685 | 130° | 18km/h | 3689m | -0.8m/s | 0.7°C | 0% | 0hPa | 2.7V | 07:53:00 | 02:27:26 | 00:00:00 | |
| DO3MHA-11 | 2026-08-31 04:13:22 | 47.52844 | 13.00642 | 124° | 24km/h | 3689m | 0.3m/s | 0.7°C | 0% | 0hPa | 2.7V | 00:00:00 | 02:27:18 | 00:00:00 | |
| PG1ADW-2 | 2026-08-31 04:13:19 | 47.52853 | 13.00622 | 120° | 24km/h | 3687m | 0.8m/s | 0.7°C | 0% | 0hPa | 2.7V | 07:54:00 | 00:00:00 | 00:00:00 | |
| OE5DXL-15 | 2026-08-31 04:13:14 | 47.52871 | 13.00585 | 127° | 24km/h | 3683m | 1.1m/s | 0.8°C | 0% | 0hPa | 2.6V | 00:00:00 | 00:00:00 | 00:00:00 | |
| DO3MHA-12 | 2026-08-31 04:13:12 | 47.52878 | 13.00570 | 125° | 22km/h | 3680m | 1.3m/s | 0.9°C | 0% | 0hPa | 2.7V | 00:00:00 | 02:27:08 | 00:00:00 | |
| OE5DRO-10 | 2026-08-31 04:13:11 | 47.52881 | 13.00562 | 126° | 24km/h | 3679m | 1.8m/s | 0.9°C | 0% | 0hPa | 2.7V | 00:00:00 | 00:00:00 | 00:00:00 | |
| DO3MHA-12 | 2026-08-31 04:13:02 | 47.52909 | 13.00501 | 127° | 26km/h | 3670m | 0.7m/s | 0.8°C | 0% | 0hPa | 2.7V | 00:00:00 | 02:26:58 | 00:00:00 | |
| PG1ADW-2 | 2026-08-31 04:12:59 | 47.52921 | 13.00478 | 135° | 24km/h | 3668m | 0.8m/s | 0.9°C | 0% | 0hPa | 2.7V | 00:00:00 | 00:00:00 | 00:00:00 | |
| DO3MHA-12 | 2026-08-31 04:12:52 | 47.52951 | 13.00427 | 129° | 26km/h | 3666m | -0.6m/s | 1.0°C | 0% | 0hPa | 2.7V | 00:00:00 | 02:26:48 | 00:00:00 | |
| DG1MFX-10 | 2026-08-31 04:12:50 | 47.52955 | 13.00419 | 127° | 26km/h | 3666m | 1.1m/s | 1.1°C | 133.5% | 0hPa | 2.7V | 07:55:00 | 00:00:00 | 00:00:00 | |
| DO3MHA-12 | 2026-08-31 04:12:47 | 47.52969 | 13.00388 | 119° | 22km/h | 3663m | 1.0m/s | 1.0°C | 0% | 0hPa | 2.7V | 00:00:00 | 02:26:43 | 00:00:00 | |
| OE5DRO-10 | 2026-08-31 04:12:45 | 47.52975 | 13.00373 | 120° | 24km/h | 3661m | 1.5m/s | 1.1°C | 0% | 0hPa | 2.7V | 00:00:00 | 00:00:00 | 00:00:00 | |
| OE5DXL-15 | 2026-08-31 04:12:44 | 47.52977 | 13.00366 | 121° | 26km/h | 3659m | 1.5m/s | 1.1°C | 0% | 0hPa | 2.7V | 00:00:00 | 02:26:40 | 00:00:00 | |
| PG1ADW-2 | 2026-08-31 04:12:39 | 47.52992 | 13.00333 | 127° | 26km/h | 3655m | 1.4m/s | 1.1°C | 0% | 0hPa | 2.7V | 00:00:00 | 02:26:35 | 00:00:00 | |
| DO3MHA-11 | 2026-08-31 04:12:37 | 47.52999 | 13.00319 | 127° | 26km/h | 3652m | 1.3m/s | 1.1°C | 0% | 0hPa | 2.7V | 00:00:00 | 02:26:33 | 00:00:00 | |
| DG1MFX-10 | 2026-08-31 04:12:30 | 47.53021 | 13.00273 | 122° | 27km/h | 3644m | 1.0m/s | 1.2°C | 138.8% | 0hPa | 2.7V | 07:55:00 | 00:00:00 | 00:00:00 | |
| DO3MHA-12 | 2026-08-31 04:12:27 | 47.53037 | 13.00239 | 121° | 26km/h | 3638m | 1.9m/s | 1.2°C | 0% | 0hPa | 2.7V | 00:00:00 | 02:26:23 | 00:00:00 | |
| OE5DRO-10 | 2026-08-31 04:12:26 | 47.53040 | 13.00230 | 124° | 27km/h | 3637m | 1.7m/s | 1.2°C | 0% | 0hPa | 2.7V | 00:00:00 | 00:00:00 | 00:00:00 | |
| PG1ADW-2 | 2026-08-31 04:12:19 | 47.53066 | 13.00173 | 124° | 27km/h | 3628m | 0.8m/s | 1.3°C | 0% | 0hPa | 2.7V | 00:00:00 | 00:00:00 | 00:00:00 | |
| DO3MHA-11 | 2026-08-31 04:12:17 | 47.53072 | 13.00156 | 120° | 29km/h | 3626m | 0.5m/s | 1.2°C | 0% | 0hPa | 2.6V | 07:55:00 | 02:26:13 | 00:00:00 | |
| OE5DXL-15 | 2026-08-31 04:12:14 | 47.53083 | 13.00127 | 118° | 27km/h | 3625m | 0.6m/s | 1.2°C | 0% | 0hPa | 2.7V | 00:00:00 | 00:00:00 | 00:00:00 | |
| DG1MFX-10 | 2026-08-31 04:12:09 | 47.53097 | 13.00087 | 117° | 31km/h | 3623m | 0.4m/s | 1.3°C | 136.0% | 0hPa | 2.7V | 07:55:00 | 00:00:00 | 00:00:00 | |
| DO3MHA-11 | 2026-08-31 04:12:07 | 47.53106 | 13.00057 | 111° | 26km/h | 3620m | 1.0m/s | 1.2°C | 0% | 0hPa | 2.7V | 00:00:00 | 02:26:03 | 00:00:00 | |
| PG1ADW-2 | 2026-08-31 04:11:59 | 47.53126 | 12.99985 | 117° | 27km/h | 3613m | 0.4m/s | 1.2°C | 0% | 0hPa | 2.7V | 00:00:00 | 00:00:00 | 00:00:00 | |
| DO3MHA-11 | 2026-08-31 04:11:57 | 47.53132 | 12.99967 | 116° | 27km/h | 3612m | 0.1m/s | 1.2°C | 0% | 0hPa | 2.7V | 00:00:00 | 02:25:53 | 00:00:00 | |
| DG1MFX-10 | 2026-08-31 04:11:49 | 47.53155 | 12.99904 | 123° | 27km/h | 3608m | 0.6m/s | 1.3°C | 136.7% | 0hPa | 2.7V | 07:55:00 | 00:00:00 | 00:00:00 | |
| OE5DRO-10 | 2026-08-31 04:11:48 | 47.53162 | 12.99887 | 121° | 27km/h | 3606m | 0.9m/s | 1.3°C | 0% | 0hPa | 2.7V | 00:00:00 | 00:00:00 | 00:00:00 | |
| DO3MHA-11 | 2026-08-31 04:11:47 | 47.53166 | 12.99878 | 120° | 26km/h | 3605m | 1.3m/s | 1.3°C | 0% | 0hPa | 2.7V | 00:00:00 | 02:25:43 | 00:00:00 | |
| OE5DXL-15 | 2026-08-31 04:11:44 | 47.53175 | 12.99852 | 113° | 26km/h | 3601m | 0.9m/s | 1.3°C | 0% | 0hPa | 2.7V | 00:00:00 | 00:00:00 | 00:00:00 | |
| PG1ADW-2 | 2026-08-31 04:11:39 | 47.53190 | 12.99810 | 122° | 26km/h | 3597m | -0.1m/s | 1.4°C | 0% | 0hPa | 2.6V | 00:00:00 | 00:00:00 | 00:00:00 | |
| DO3MHA-12 | 2026-08-31 04:11:37 | 47.53197 | 12.99792 | 117° | 27km/h | 3597m | 0.2m/s | 1.4°C | 0% | 0hPa | 2.6V | 00:00:00 | 02:25:33 | 00:00:00 | |
| OE5DRO-10 | 2026-08-31 04:11:29 | 47.53225 | 12.99722 | 119° | 22km/h | 3595m | -0.5m/s | 1.4°C | 0% | 0hPa | 2.6V | 07:55:00 | 00:00:00 | 00:00:00 | |
| PG1ADW-2 | 2026-08-31 04:11:19 | 47.53249 | 12.99643 | 114° | 22km/h | 3590m | 1.3m/s | 1.4°C | 0% | 0hPa | 2.7V | 00:00:00 | 02:25:15 | 00:00:00 | |
| DO3MHA-11 | 2026-08-31 04:11:17 | 47.53254 | 12.99629 | 121° | 22km/h | 3588m | -0.5m/s | 1.4°C | 0% | 0hPa | 2.7V | 00:00:00 | 02:25:13 | 00:00:00 | |
| OE5DXL-15 | 2026-08-31 04:11:14 | 47.53263 | 12.99608 | 125° | 22km/h | 3589m | -0.6m/s | 1.3°C | 0% | 0hPa | 2.7V | 00:00:00 | 00:00:00 | 00:00:00 | |
| DO3MHA-12 | 2026-08-31 04:11:12 | 47.53269 | 12.99594 | 121° | 20km/h | 3591m | -0.7m/s | 1.2°C | 0% | 0hPa | 2.7V | 00:00:00 | 02:25:08 | 00:00:00 | |
| DG1MFX-10 | 2026-08-31 04:11:08 | 47.53276 | 12.99574 | 114° | 20km/h | 3592m | -0.7m/s | 1.5°C | 127.7% | 0hPa | 2.7V | 07:56:00 | 00:00:00 | 00:00:00 | |
| DO3MHA-12 | 2026-08-31 04:11:07 | 47.53280 | 12.99560 | 111° | 22km/h | 3594m | -1.3m/s | 1.4°C | 0% | 0hPa | 2.7V | 07:56:00 | 02:25:03 | 00:00:00 | |
| DO3MHA-11 | 2026-08-31 04:11:06 | 47.53282 | 12.99552 | 112° | 22km/h | 3595m | -0.8m/s | 1.3°C | 0% | 0hPa | 2.6V | 07:56:00 | 02:25:02 | 00:00:00 | |
| DO3MHA-12 | 2026-08-31 04:11:02 | 47.53291 | 12.99522 | 117° | 22km/h | 3597m | -0.5m/s | 1.0°C | 0% | 0hPa | 2.6V | 00:00:00 | 02:24:58 | 00:00:00 | |
| DO3MHA-11 | 2026-08-31 04:11:00 | 47.53296 | 12.99507 | 114° | 20km/h | 3599m | -0.9m/s | 0.3°C | 0% | 0hPa | 2.6V | 00:00:00 | 02:24:56 | 00:00:00 | |
| PG1ADW-2 | 2026-08-31 04:10:59 | 47.53298 | 12.99500 | 113° | 24km/h | 3600m | -1.1m/s | 0.2°C | 0% | 0hPa | 2.6V | 00:00:00 | 00:00:00 | 00:00:00 | |
| DO3MHA-12 | 2026-08-31 04:10:57 | 47.53302 | 12.99487 | 117° | 20km/h | 3602m | -1.2m/s | 0.1°C | 0% | 0hPa | 2.6V | 00:00:00 | 02:24:53 | 00:00:00 | |
| DO3MHA-11 | 2026-08-31 04:10:55 | 47.53307 | 12.99473 | 120° | 22km/h | 3605m | -1.8m/s | 0.1°C | 0% | 0hPa | 2.6V | 00:00:00 | 02:24:51 | 00:00:00 | |
| OE5DXL-15 | 2026-08-31 04:10:54 | 47.53310 | 12.99467 | 120° | 24km/h | 3607m | -1.7m/s | 0.1°C | 0% | 0hPa | 2.6V | 00:00:00 | 00:00:00 | 00:00:00 | |
| OE5DRO-10 | 2026-08-31 04:10:53 | 47.53312 | 12.99460 | 121° | 22km/h | 3609m | -2.0m/s | 0.1°C | 0% | 0hPa | 2.6V | 00:00:00 | 00:00:00 | 00:00:00 | |
| DO3MHA-12 | 2026-08-31 04:10:52 | 47.53315 | 12.99453 | 121° | 22km/h | 3611m | -1.5m/s | 0.1°C | 0% | 0hPa | 2.6V | 00:00:00 | 02:24:48 | 00:00:00 | |
| DO3MHA-11 | 2026-08-31 04:10:50 | 47.53321 | 12.99439 | 120° | 24km/h | 3614m | -1.1m/s | 0.0°C | 0% | 0hPa | 2.6V | 00:00:00 | 02:24:46 | 00:00:00 | |
| DG1MFX-10 | 2026-08-31 04:10:48 | 47.53323 | 12.99432 | 125° | 24km/h | 3615m | -1.1m/s | 0.1°C | 135.2% | 0hPa | 2.6V | 07:56:00 | 00:00:00 | 00:00:00 | |
| DO3MHA-12 | 2026-08-31 04:10:47 | 47.53330 | 12.99417 | 124° | 26km/h | 3617m | -1.1m/s | 0.0°C | 0% | 0hPa | 2.6V | 00:00:00 | 02:24:43 | 00:00:00 | |
| OE5DRO-10 | 2026-08-31 04:10:46 | 47.53333 | 12.99410 | 125° | 26km/h | 3618m | -1.4m/s | 0.0°C | 0% | 0hPa | 2.6V | 00:00:00 | 00:00:00 | 00:00:00 | |
| DO3MHA-11 | 2026-08-31 04:10:45 | 47.53336 | 12.99402 | 124° | 26km/h | 3620m | -1.4m/s | 0.0°C | 0% | 0hPa | 2.6V | 00:00:00 | 02:24:41 | 00:00:00 | |
| DO3MHA-12 | 2026-08-31 04:10:42 | 47.53347 | 12.99377 | 122° | 26km/h | 3623m | -1.8m/s | 0.0°C | 0% | 0hPa | 2.6V | 00:00:00 | 02:24:38 | 00:00:00 | |
| DO3MHA-11 | 2026-08-31 04:10:40 | 47.53354 | 12.99360 | 122° | 26km/h | 3626m | -1.0m/s | 0.0°C | 0% | 0hPa | 2.6V | 00:00:00 | 02:24:36 | 00:00:00 | |
| PG1ADW-2 | 2026-08-31 04:10:39 | 47.53357 | 12.99353 | 123° | 26km/h | 3627m | -1.2m/s | 0.0°C | 0% | 0hPa | 2.6V | 07:56:00 | 00:00:00 | 00:00:00 | |
| DO3MHA-12 | 2026-08-31 04:10:37 | 47.53364 | 12.99336 | 124° | 26km/h | 3629m | -0.4m/s | 0.0°C | 0% | 0hPa | 2.6V | 00:00:00 | 02:24:33 | 00:00:00 | |
| OE5DXL-15 | 2026-08-31 04:10:34 | 47.53375 | 12.99314 | 127° | 27km/h | 3631m | -0.5m/s | 0.0°C | 0% | 0hPa | 2.7V | 07:56:00 | 00:00:00 | 00:00:00 | |
| DO3MHA-12 | 2026-08-31 04:10:32 | 47.53382 | 12.99299 | 129° | 26km/h | 3633m | -0.6m/s | 0.0°C | 0% | 0hPa | 2.7V | 00:00:00 | 02:24:28 | 00:00:00 | |
| DO3MHA-11 | 2026-08-31 04:10:30 | 47.53390 | 12.99283 | 128° | 27km/h | 3634m | -1.0m/s | 0.0°C | 0% | 0hPa | 2.7V | 00:00:00 | 02:24:26 | 00:00:00 | |
| DO3MHA-12 | 2026-08-31 04:10:27 | 47.53402 | 12.99260 | 129° | 27km/h | 3637m | -0.7m/s | 0.0°C | 0% | 0hPa | 2.7V | 07:56:00 | 02:24:23 | 00:00:00 | |
| DO3MHA-11 | 2026-08-31 04:10:25 | 47.53411 | 12.99244 | 128° | 27km/h | 3640m | -1.6m/s | 0.0°C | 0% | 0hPa | 2.7V | 07:56:00 | 02:24:21 | 00:00:00 | |
| DO3MHA-12 | 2026-08-31 04:10:22 | 47.53423 | 12.99219 | 121° | 27km/h | 3644m | -1.0m/s | 0.0°C | 0% | 0hPa | 2.7V | 00:00:00 | 02:24:18 | 00:00:00 | |
| DO3MHA-11 | 2026-08-31 04:10:20 | 47.53430 | 12.99201 | 125° | 27km/h | 3645m | -1.5m/s | 0.0°C | 0% | 0hPa | 2.7V | 00:00:00 | 02:24:16 | 00:00:00 | |
| PG1ADW-2 | 2026-08-31 04:10:19 | 47.53434 | 12.99193 | 125° | 27km/h | 3647m | -1.8m/s | 0.0°C | 0% | 0hPa | 2.7V | 00:00:00 | 00:00:00 | 00:00:00 | |
| OE5DRO-10 | 2026-08-31 04:10:18 | 47.53438 | 12.99185 | 126° | 26km/h | 3649m | -1.6m/s | 0.0°C | 0% | 0hPa | 2.7V | 00:00:00 | 00:00:00 | 00:00:00 | |
| DO3MHA-12 | 2026-08-31 04:10:17 | 47.53442 | 12.99177 | 122° | 26km/h | 3651m | -1.6m/s | 0.0°C | 0% | 0hPa | 2.7V | 00:00:00 | 02:24:13 | 00:00:00 | |
| DO3MHA-11 | 2026-08-31 04:10:15 | 47.53449 | 12.99160 | 128° | 26km/h | 3654m | -2.3m/s | 0.0°C | 0% | 0hPa | 2.7V | 00:00:00 | 02:24:11 | 00:00:00 | |
| OE5DXL-15 | 2026-08-31 04:10:14 | 47.53453 | 12.99153 | 128° | 27km/h | 3656m | -1.6m/s | 0.0°C | 0% | 0hPa | 2.7V | 00:00:00 | 00:00:00 | 00:00:00 | |
| DO3MHA-12 | 2026-08-31 04:10:12 | 47.53461 | 12.99138 | 131° | 26km/h | 3660m | -2.1m/s | 0.0°C | 0% | 0hPa | 2.7V | 00:00:00 | 02:24:08 | 00:00:00 | |
| OE5DRO-10 | 2026-08-31 04:10:11 | 47.53466 | 12.99130 | 135° | 26km/h | 3662m | -1.5m/s | 0.0°C | 0% | 0hPa | 2.7V | 00:00:00 | 00:00:00 | 00:00:00 | |
| DO3MHA-11 | 2026-08-31 04:10:10 | 47.53470 | 12.99123 | 132° | 26km/h | 3664m | -2.1m/s | 0.0°C | 0% | 0hPa | 2.7V | 00:00:00 | 02:24:06 | 00:00:00 | |
| DO3MHA-12 | 2026-08-31 04:10:07 | 47.53483 | 12.99102 | 136° | 27km/h | 3670m | -1.5m/s | 0.0°C | 0% | 0hPa | 2.7V | 00:00:00 | 02:24:03 | 00:00:00 | |
| DG1MFX-10 | 2026-08-31 04:10:06 | 47.53483 | 12.99102 | 136° | 27km/h | 3670m | -1.5m/s | 0.0°C | 130.2% | 0hPa | 2.7V | 07:57:00 | 00:00:00 | 00:00:00 | |
| DO3MHA-11 | 2026-08-31 04:10:05 | 47.53492 | 12.99087 | 135° | 27km/h | 3674m | -1.7m/s | -0.0°C | 0% | 0hPa | 2.7V | 00:00:00 | 02:24:01 | 00:00:00 | |
| OE5DRO-10 | 2026-08-31 04:10:04 | 47.53497 | 12.99080 | 132° | 27km/h | 3675m | -1.2m/s | -0.0°C | 0% | 0hPa | 2.7V | 00:00:00 | 00:00:00 | 00:00:00 | |
| DO3MHA-12 | 2026-08-31 04:10:02 | 47.53506 | 12.99065 | 131° | 27km/h | 3679m | -2.1m/s | -0.0°C | 0% | 0hPa | 2.7V | 00:00:00 | 02:23:58 | 00:00:00 | |
| DO3MHA-11 | 2026-08-31 04:10:00 | 47.53514 | 12.99049 | 133° | 27km/h | 3683m | -1.6m/s | -0.0°C | 0% | 0hPa | 2.7V | 00:00:00 | 02:23:56 | 00:00:00 | |
| PG1ADW-2 | 2026-08-31 04:09:59 | 47.53519 | 12.99041 | 128° | 26km/h | 3684m | -2.3m/s | -0.0°C | 0% | 0hPa | 2.7V | 00:00:00 | 02:23:55 | 00:00:00 | |
| DO3MHA-12 | 2026-08-31 04:09:57 | 47.53527 | 12.99025 | 128° | 27km/h | 3689m | -2.7m/s | -0.0°C | 0% | 0hPa | 2.7V | 00:00:00 | 02:23:53 | 00:00:00 | |
| DO3MHA-11 | 2026-08-31 04:09:55 | 47.53536 | 12.99009 | 128° | 26km/h | 3695m | -2.4m/s | -0.0°C | 0% | 0hPa | 2.7V | 00:00:00 | 02:23:51 | 00:00:00 | |
| OE5DXL-15 | 2026-08-31 04:09:53 | 47.53544 | 12.98993 | 127° | 26km/h | 3699m | -2.3m/s | -0.0°C | 0% | 0hPa | 2.7V | 00:00:00 | 00:00:00 | 00:00:00 | |
| DO3MHA-12 | 2026-08-31 04:09:52 | 47.53548 | 12.98986 | 130° | 26km/h | 3702m | -2.2m/s | -0.0°C | 0% | 0hPa | 2.7V | 00:00:00 | 02:23:48 | 00:00:00 | |
| DO3MHA-11 | 2026-08-31 04:09:50 | 47.53556 | 12.98971 | 131° | 26km/h | 3706m | -2.1m/s | -0.0°C | 0% | 0hPa | 2.7V | 00:00:00 | 02:23:46 | 00:00:00 | |
| DO3MHA-12 | 2026-08-31 04:09:47 | 47.53569 | 12.98947 | 126° | 26km/h | 3712m | -1.2m/s | -0.0°C | 0% | 0hPa | 2.7V | 07:57:00 | 02:23:43 | 00:00:00 | |
| DO3MHA-11 | 2026-08-31 04:09:45 | 47.53577 | 12.98932 | 128° | 26km/h | 3715m | -1.2m/s | -0.0°C | 0% | 0hPa | 2.7V | 07:57:00 | 02:23:41 | 00:00:00 | |
| OE5DRO-10 | 2026-08-31 04:09:43 | 47.53584 | 12.98917 | 126° | 26km/h | 3717m | -0.9m/s | -0.0°C | 0% | 0hPa | 2.6V | 00:00:00 | 00:00:00 | 00:00:00 | |
| DO3MHA-12 | 2026-08-31 04:09:42 | 47.53588 | 12.98909 | 127° | 26km/h | 3718m | -1.0m/s | -0.0°C | 0% | 0hPa | 2.6V | 00:00:00 | 02:23:38 | 00:00:00 | |
| DO3MHA-11 | 2026-08-31 04:09:40 | 47.53595 | 12.98894 | 127° | 26km/h | 3720m | -0.7m/s | -0.0°C | 0% | 0hPa | 2.6V | 00:00:00 | 02:23:36 | 00:00:00 | |
| PG1ADW-2 | 2026-08-31 04:09:39 | 47.53599 | 12.98886 | 127° | 26km/h | 3721m | -1.0m/s | -0.0°C | 0% | 0hPa | 2.6V | 00:00:00 | 00:00:00 | 00:00:00 | |
| DO3MHA-12 | 2026-08-31 04:09:37 | 47.53607 | 12.98871 | 126° | 26km/h | 3723m | -1.0m/s | -0.0°C | 0% | 0hPa | 2.6V | 00:00:00 | 02:23:33 | 00:00:00 | |
| DO3MHA-11 | 2026-08-31 04:09:35 | 47.53615 | 12.98855 | 127° | 24km/h | 3725m | -1.2m/s | -0.0°C | 0% | 0hPa | 2.6V | 00:00:00 | 02:23:31 | 00:00:00 | |
| DO3MHA-12 | 2026-08-31 04:09:32 | 47.53625 | 12.98833 | 127° | 24km/h | 3729m | -1.0m/s | -0.0°C | 0% | 0hPa | 2.6V | 00:00:00 | 02:23:28 | 00:00:00 | |
| DO3MHA-11 | 2026-08-31 04:09:30 | 47.53633 | 12.98819 | 128° | 26km/h | 3731m | -1.4m/s | -0.0°C | 0% | 0hPa | 2.6V | 00:00:00 | 02:23:26 | 00:00:00 | |
| DO3MHA-12 | 2026-08-31 04:09:27 | 47.53645 | 12.98797 | 130° | 26km/h | 3735m | -1.2m/s | -0.0°C | 0% | 0hPa | 2.7V | 00:00:00 | 02:23:23 | 00:00:00 | |
| DO3MHA-11 | 2026-08-31 04:09:25 | 47.53653 | 12.98782 | 127° | 27km/h | 3737m | -0.8m/s | -0.0°C | 0% | 0hPa | 2.7V | 00:00:00 | 02:23:21 | 00:00:00 | |
| DG1MFX-10 | 2026-08-31 04:09:24 | 47.53653 | 12.98782 | 128° | 27km/h | 3737m | -0.8m/s | -0.0°C | 123.7% | 0hPa | 2.7V | 07:58:00 | 00:00:00 | 00:00:00 | |
| OE5DXL-15 | 2026-08-31 04:09:23 | 47.53660 | 12.98766 | 126° | 26km/h | 3739m | -1.0m/s | -0.0°C | 0% | 0hPa | 2.7V | 00:00:00 | 00:00:00 | 00:00:00 | |
| DO3MHA-12 | 2026-08-31 04:09:22 | 47.53664 | 12.98758 | 124° | 27km/h | 3740m | -0.7m/s | -0.0°C | 0% | 0hPa | 2.6V | 00:00:00 | 02:23:18 | 00:00:00 | |
| DO3MHA-11 | 2026-08-31 04:09:20 | 47.53673 | 12.98741 | 126° | 27km/h | 3742m | -0.9m/s | -0.0°C | 0% | 0hPa | 2.7V | 00:00:00 | 02:23:16 | 00:00:00 | |
| PG1ADW-2 | 2026-08-31 04:09:19 | 47.53676 | 12.98733 | 122° | 26km/h | 3743m | -0.6m/s | -0.0°C | 0% | 0hPa | 2.7V | 00:00:00 | 00:00:00 | 00:00:00 | |
| DO3MHA-12 | 2026-08-31 04:09:17 | 47.53684 | 12.98716 | 129° | 26km/h | 3744m | -0.5m/s | -0.0°C | 0% | 0hPa | 2.6V | 00:00:00 | 02:23:13 | 00:00:00 | |
| DO3MHA-11 | 2026-08-31 04:09:15 | 47.53692 | 12.98701 | 127° | 26km/h | 3745m | -1.0m/s | -0.0°C | 0% | 0hPa | 2.6V | 00:00:00 | 02:23:11 | 00:00:00 | |
| DO3MHA-12 | 2026-08-31 04:09:12 | 47.53703 | 12.98679 | 126° | 26km/h | 3749m | -1.0m/s | -0.0°C | 0% | 0hPa | 2.6V | 00:00:00 | 02:23:08 | 00:00:00 | |
| OE5DRO-10 | 2026-08-31 04:09:11 | 47.53707 | 12.98671 | 128° | 26km/h | 3750m | -1.1m/s | -0.0°C | 0% | 0hPa | 2.6V | 07:58:00 | 00:00:00 | 00:00:00 | |
| DO3MHA-11 | 2026-08-31 04:09:10 | 47.53711 | 12.98663 | 127° | 26km/h | 3751m | -0.9m/s | -0.0°C | 0% | 0hPa | 2.6V | 00:00:00 | 02:23:06 | 00:00:00 | |
| DO3MHA-12 | 2026-08-31 04:09:07 | 47.53722 | 12.98640 | 124° | 26km/h | 3756m | -1.5m/s | -0.0°C | 0% | 0hPa | 2.6V | 07:58:00 | 02:23:03 | 00:00:00 | |
| DO3MHA-11 | 2026-08-31 04:09:05 | 47.53730 | 12.98625 | 123° | 26km/h | 3759m | -1.4m/s | -0.0°C | 0% | 0hPa | 2.6V | 07:58:00 | 02:23:01 | 00:00:00 | |
| DG1MFX-10 | 2026-08-31 04:09:03 | 47.53733 | 12.98617 | 128° | 26km/h | 3760m | -1.6m/s | -0.0°C | 121.3% | 0hPa | 2.6V | 07:58:00 | 00:00:00 | 00:00:00 | |
| DO3MHA-12 | 2026-08-31 04:09:02 | 47.53741 | 12.98601 | 126° | 26km/h | 3763m | -1.5m/s | -0.0°C | 0% | 0hPa | 2.6V | 00:00:00 | 02:22:58 | 00:00:00 | |
| DO3MHA-11 | 2026-08-31 04:09:00 | 47.53749 | 12.98584 | 125° | 26km/h | 3766m | -1.8m/s | -0.0°C | 0% | 0hPa | 2.6V | 00:00:00 | 02:22:56 | 00:00:00 | |
| PG1ADW-2 | 2026-08-31 04:08:59 | 47.53752 | 12.98576 | 127° | 26km/h | 3768m | -1.8m/s | -0.0°C | 0% | 0hPa | 2.6V | 00:00:00 | 00:00:00 | 00:00:00 | |
| DO3MHA-12 | 2026-08-31 04:08:57 | 47.53760 | 12.98560 | 126° | 26km/h | 3771m | -2.0m/s | -0.0°C | 0% | 0hPa | 2.6V | 00:00:00 | 02:22:53 | 00:00:00 | |
| DO3MHA-11 | 2026-08-31 04:08:55 | 47.53768 | 12.98545 | 129° | 26km/h | 3775m | -2.0m/s | -0.0°C | 0% | 0hPa | 2.6V | 00:00:00 | 02:22:51 | 00:00:00 | |
| OE5DXL-15 | 2026-08-31 04:08:53 | 47.53776 | 12.98529 | 128° | 24km/h | 3780m | -1.8m/s | -0.0°C | 0% | 0hPa | 2.6V | 00:00:00 | 00:00:00 | 00:00:00 | |
| DO3MHA-12 | 2026-08-31 04:08:52 | 47.53780 | 12.98521 | 126° | 27km/h | 3781m | -1.8m/s | -0.0°C | 0% | 0hPa | 2.6V | 00:00:00 | 02:22:48 | 00:00:00 | |
| DO3MHA-12 | 2026-08-31 04:08:47 | 47.53799 | 12.98480 | 125° | 26km/h | 3791m | -1.8m/s | -0.1°C | 0% | 0hPa | 2.6V | 00:00:00 | 02:22:43 | 00:00:00 | |
| DO3MHA-11 | 2026-08-31 04:08:45 | 47.53806 | 12.98464 | 124° | 24km/h | 3795m | -2.1m/s | -0.0°C | 0% | 0hPa | 2.6V | 00:00:00 | 02:22:41 | 00:00:00 | |
| OE3JTB-15 | 2026-08-31 04:08:44 | 47.53810 | 12.98456 | 125° | 24km/h | 3797m | -1.7m/s | -0.0°C | 0% | 0hPa | 2.7V | 00:00:00 | 00:00:00 | 00:00:00 | |
| DG1MFX-10 | 2026-08-31 04:08:43 | 47.53810 | 12.98456 | 126° | 24km/h | 3797m | -1.8m/s | -0.1°C | 121.5% | 0hPa | 2.7V | 07:59:00 | 00:00:00 | 00:00:00 | |
| DO3MHA-12 | 2026-08-31 04:08:42 | 47.53816 | 12.98440 | 123° | 24km/h | 3801m | -2.1m/s | -0.1°C | 0% | 0hPa | 2.7V | 00:00:00 | 02:22:38 | 00:00:00 | |
| DO3MHA-11 | 2026-08-31 04:08:40 | 47.53822 | 12.98425 | 123° | 24km/h | 3805m | -2.3m/s | -0.1°C | 0% | 0hPa | 2.7V | 00:00:00 | 02:22:36 | 00:00:00 | |
| OE5DRO-10 | 2026-08-31 04:08:39 | 47.53825 | 12.98418 | 119° | 24km/h | 3808m | -2.7m/s | -0.1°C | 0% | 0hPa | 2.7V | 00:00:00 | 00:00:00 | 00:00:00 | |
| DO3MHA-12 | 2026-08-31 04:08:37 | 47.53830 | 12.98403 | 118° | 24km/h | 3813m | -1.8m/s | -0.1°C | 0% | 0hPa | 2.6V | 00:00:00 | 02:22:33 | 00:00:00 | |
| DO3MHA-11 | 2026-08-31 04:08:35 | 47.53836 | 12.98388 | 121° | 24km/h | 3818m | -3.3m/s | -0.1°C | 0% | 0hPa | 2.6V | 00:00:00 | 02:22:31 | 00:00:00 | |
| DO3MHA-12 | 2026-08-31 04:08:32 | 47.53844 | 12.98365 | 113° | 24km/h | 3827m | -2.6m/s | -0.2°C | 0% | 0hPa | 2.6V | 00:00:00 | 02:22:28 | 00:00:00 | |
| DO3MHA-11 | 2026-08-31 04:08:30 | 47.53849 | 12.98349 | 112° | 24km/h | 3833m | -3.3m/s | -0.2°C | 0% | 0hPa | 2.6V | 00:00:00 | 02:22:26 | 00:00:00 | |
| DO3MHA-12 | 2026-08-31 04:08:27 | 47.53855 | 12.98325 | 112° | 24km/h | 3842m | -3.0m/s | -0.2°C | 0% | 0hPa | 2.6V | 07:58:00 | 02:22:23 | 00:00:00 | |
| DO3MHA-11 | 2026-08-31 04:08:25 | 47.53860 | 12.98308 | 113° | 24km/h | 3847m | -2.5m/s | -0.3°C | 0% | 0hPa | 2.6V | 07:58:00 | 02:22:21 | 00:00:00 | |
| OE5DXL-15 | 2026-08-31 04:08:23 | 47.53864 | 12.98292 | 108° | 20km/h | 3853m | -3.3m/s | -0.3°C | 0% | 0hPa | 2.6V | 00:00:00 | 00:00:00 | 00:00:00 | |
| DO3MHA-12 | 2026-08-31 04:08:22 | 47.53865 | 12.98283 | 104° | 22km/h | 3856m | -2.2m/s | -0.3°C | 0% | 0hPa | 2.6V | 00:00:00 | 02:22:18 | 00:00:00 | |
| DO3MHA-11 | 2026-08-31 04:08:20 | 47.53868 | 12.98268 | 108° | 22km/h | 3861m | -2.4m/s | -0.3°C | 0% | 0hPa | 2.7V | 00:00:00 | 02:22:16 | 00:00:00 | |
| PG1ADW-2 | 2026-08-31 04:08:19 | 47.53869 | 12.98260 | 108° | 20km/h | 3863m | -2.3m/s | -0.3°C | 0% | 0hPa | 2.7V | 00:00:00 | 00:00:00 | 00:00:00 | |
| DO3MHA-12 | 2026-08-31 04:08:17 | 47.53872 | 12.98244 | 105° | 20km/h | 3867m | -1.2m/s | -0.4°C | 0% | 0hPa | 2.6V | 00:00:00 | 02:22:13 | 00:00:00 | |
| DO3MHA-11 | 2026-08-31 04:08:15 | 47.53874 | 12.98229 | 103° | 20km/h | 3870m | -1.8m/s | -0.4°C | 0% | 0hPa | 2.6V | 00:00:00 | 02:22:11 | 00:00:00 | |
| DO3MHA-12 | 2026-08-31 04:08:12 | 47.53877 | 12.98206 | 101° | 22km/h | 3876m | -1.9m/s | -0.3°C | 0% | 0hPa | 2.6V | 00:00:00 | 02:22:08 | 00:00:00 | |
| DO3MHA-11 | 2026-08-31 04:08:10 | 47.53879 | 12.98190 | 97° | 22km/h | 3880m | -1.7m/s | -0.3°C | 0% | 0hPa | 2.6V | 00:00:00 | 02:22:06 | 00:00:00 | |
| DO3MHA-12 | 2026-08-31 04:08:07 | 47.53879 | 12.98183 | 93° | 20km/h | 3885m | -1.6m/s | -0.3°C | 0% | 0hPa | 2.6V | 00:00:00 | 02:22:03 | 00:00:00 | |
| OE3JTB-15 | 2026-08-31 04:08:06 | 47.53879 | 12.98159 | 95° | 20km/h | 3887m | -1.5m/s | -0.3°C | 0% | 0hPa | 2.7V | 00:00:00 | 00:00:00 | 00:00:00 | |
| DO3MHA-11 | 2026-08-31 04:08:05 | 47.53880 | 12.98151 | 96° | 20km/h | 3889m | -1.6m/s | -0.3°C | 0% | 0hPa | 2.6V | 00:00:00 | 02:22:01 | 00:00:00 | |
| DO3MHA-12 | 2026-08-31 04:08:02 | 47.53882 | 12.98129 | 98° | 20km/h | 3893m | -1.7m/s | -0.3°C | 0% | 0hPa | 2.6V | 00:00:00 | 02:21:58 | 00:00:00 | |
| DG1MFX-10 | 2026-08-31 04:08:01 | 47.53882 | 12.98129 | 98° | 20km/h | 3893m | -1.8m/s | -0.3°C | 119.5% | 0hPa | 2.6V | 07:59:00 | 00:00:00 | 00:00:00 | |
| DO3MHA-11 | 2026-08-31 04:08:00 | 47.53883 | 12.98114 | 95° | 18km/h | 3897m | -1.8m/s | -0.3°C | 0% | 0hPa | 2.6V | 00:00:00 | 02:21:56 | 00:00:00 | |
| PG1ADW-2 | 2026-08-31 04:07:59 | 47.53883 | 12.98107 | 93° | 18km/h | 3898m | -1.7m/s | -0.3°C | 0% | 0hPa | 2.6V | 07:59:00 | 00:00:00 | 00:00:00 | |
| DO3MHA-12 | 2026-08-31 04:07:57 | 47.53883 | 12.98092 | 91° | 18km/h | 3902m | -1.4m/s | -0.3°C | 0% | 0hPa | 2.6V | 00:00:00 | 02:21:53 | 00:00:00 | |
| DO3MHA-11 | 2026-08-31 04:07:55 | 47.53883 | 12.98079 | 91° | 18km/h | 3905m | -1.5m/s | -0.3°C | 0% | 0hPa | 2.6V | 00:00:00 | 02:21:51 | 00:00:00 | |
| OE5DXL-15 | 2026-08-31 04:07:53 | 47.53883 | 12.98065 | 87° | 16km/h | 3908m | -1.5m/s | -0.3°C | 0% | 0hPa | 2.6V | 00:00:00 | 00:00:00 | 00:00:00 | |
| DO3MHA-12 | 2026-08-31 04:07:52 | 47.53883 | 12.98058 | 86° | 18km/h | 3909m | -1.2m/s | -0.3°C | 0% | 0hPa | 2.7V | 00:00:00 | 02:21:48 | 00:00:00 | |
| OE5DRO-10 | 2026-08-31 04:07:51 | 47.53882 | 12.98051 | 89° | 16km/h | 3911m | -1.4m/s | -0.3°C | 0% | 0hPa | 2.7V | 00:00:00 | 00:00:00 | 00:00:00 | |
| DO3MHA-11 | 2026-08-31 04:07:50 | 47.53882 | 12.98044 | 90° | 18km/h | 3912m | -1.1m/s | -0.3°C | 0% | 0hPa | 2.7V | 00:00:00 | 02:21:46 | 00:00:00 | |
| DO3MHA-12 | 2026-08-31 04:07:47 | 47.53882 | 12.98024 | 92° | 16km/h | 3915m | -1.5m/s | -0.4°C | 0% | 0hPa | 2.7V | 07:59:00 | 02:21:43 | 00:00:00 | |
| DO3MHA-11 | 2026-08-31 04:07:45 | 47.53882 | 12.98011 | 87° | 16km/h | 3918m | -1.0m/s | -0.4°C | 0% | 0hPa | 2.7V | 07:59:00 | 02:21:41 | 00:00:00 | |
| DO3MHA-12 | 2026-08-31 04:07:42 | 47.53882 | 12.97992 | 87° | 16km/h | 3922m | -1.1m/s | -0.4°C | 0% | 0hPa | 2.7V | 00:00:00 | 02:21:38 | 00:00:00 | |
| DO3MHA-11 | 2026-08-31 04:07:40 | 47.53882 | 12.97980 | 89° | 16km/h | 3925m | -1.5m/s | -0.4°C | 0% | 0hPa | 2.7V | 00:00:00 | 02:21:36 | 00:00:00 | |
| PG1ADW-2 | 2026-08-31 04:07:39 | 47.53882 | 12.97974 | 99° | 16km/h | 3926m | -1.2m/s | -0.4°C | 0% | 0hPa | 2.7V | 00:00:00 | 00:00:00 | 00:00:00 | |
| DO3MHA-12 | 2026-08-31 04:07:37 | 47.53882 | 12.97962 | 91° | 16km/h | 3929m | -1.6m/s | -0.4°C | 0% | 0hPa | 2.7V | 00:00:00 | 02:21:33 | 00:00:00 | |
| DO3MHA-11 | 2026-08-31 04:07:35 | 47.53882 | 12.97950 | 89° | 16km/h | 3932m | -1.2m/s | -0.4°C | 0% | 0hPa | 2.7V | 00:00:00 | 02:21:31 | 00:00:00 | |
| DO3MHA-12 | 2026-08-31 04:07:32 | 47.53882 | 12.97932 | 87° | 15km/h | 3936m | -1.4m/s | -0.4°C | 0% | 0hPa | 2.7V | 00:00:00 | 02:21:28 | 00:00:00 | |
| DO3MHA-11 | 2026-08-31 04:07:30 | 47.53881 | 12.97921 | 88° | 15km/h | 3939m | -1.5m/s | -0.4°C | 0% | 0hPa | 2.7V | 00:00:00 | 02:21:26 | 00:00:00 | |
| DO3MHA-12 | 2026-08-31 04:07:27 | 47.53880 | 12.97904 | 92° | 16km/h | 3944m | -1.5m/s | -0.4°C | 0% | 0hPa | 2.7V | 00:00:00 | 02:21:23 | 00:00:00 | |
| DO3MHA-11 | 2026-08-31 04:07:25 | 47.53880 | 12.97892 | 85° | 16km/h | 3947m | -1.5m/s | -0.5°C | 0% | 0hPa | 2.7V | 00:00:00 | 02:21:21 | 00:00:00 | |
| OE5DXL-15 | 2026-08-31 04:07:23 | 47.53879 | 12.97880 | 85° | 16km/h | 3951m | -1.6m/s | -0.5°C | 0% | 0hPa | 2.7V | 00:00:00 | 00:00:00 | 00:00:00 | |
| DO3MHA-12 | 2026-08-31 04:07:22 | 47.53879 | 12.97873 | 84° | 18km/h | 3953m | -1.4m/s | -0.5°C | 0% | 0hPa | 2.7V | 00:00:00 | 02:21:18 | 00:00:00 | |
| DO3MHA-11 | 2026-08-31 04:07:20 | 47.53878 | 12.97860 | 80° | 16km/h | 3955m | -1.0m/s | -0.5°C | 0% | 0hPa | 2.6V | 00:00:00 | 02:21:16 | 00:00:00 | |
| PG1ADW-2 | 2026-08-31 04:07:19 | 47.53877 | 12.97853 | 82° | 16km/h | 3957m | -1.9m/s | -0.5°C | 0% | 0hPa | 2.6V | 08:00:00 | 02:21:15 | 00:00:00 | |
| OE3JTB-15 | 2026-08-31 04:07:18 | 47.53876 | 12.97847 | 83° | 15km/h | 3958m | -1.4m/s | -0.5°C | 0% | 0hPa | 2.7V | 00:00:00 | 02:21:14 | 00:00:00 | |
| DO3MHA-12 | 2026-08-31 04:07:17 | 47.53876 | 12.97841 | 81° | 16km/h | 3960m | -1.4m/s | -0.5°C | 0% | 0hPa | 2.7V | 00:00:00 | 02:21:13 | 00:00:00 | |
| DO3MHA-11 | 2026-08-31 04:07:15 | 47.53875 | 12.97829 | 87° | 16km/h | 3963m | -1.9m/s | -0.5°C | 0% | 0hPa | 2.7V | 08:00:00 | 02:21:11 | 00:00:00 | |
| DO3MHA-12 | 2026-08-31 04:07:12 | 47.53874 | 12.97810 | 81° | 16km/h | 3969m | -1.7m/s | -0.6°C | 0% | 0hPa | 2.7V | 00:00:00 | 02:21:08 | 00:00:00 | |
| DO3MHA-11 | 2026-08-31 04:07:10 | 47.53873 | 12.97797 | 84° | 16km/h | 3972m | -1.8m/s | -0.6°C | 0% | 0hPa | 2.7V | 00:00:00 | 02:21:06 | 00:00:00 | |
| DO3MHA-12 | 2026-08-31 04:07:07 | 47.53871 | 12.97779 | 86° | 16km/h | 3978m | -1.5m/s | -0.7°C | 0% | 0hPa | 2.7V | 08:00:00 | 02:21:03 | 00:00:00 | |
| DO3MHA-11 | 2026-08-31 04:07:05 | 47.53871 | 12.97767 | 85° | 15km/h | 3981m | -1.5m/s | -0.7°C | 0% | 0hPa | 2.7V | 00:00:00 | 02:21:01 | 00:00:00 | |
| OE5DRO-10 | 2026-08-31 04:07:03 | 47.53869 | 12.97756 | 81° | 15km/h | 3984m | -1.5m/s | -0.7°C | 0% | 0hPa | 2.7V | 00:00:00 | 00:00:00 | 00:00:00 | |
| DO3MHA-12 | 2026-08-31 04:07:02 | 47.53869 | 12.97751 | 86° | 15km/h | 3986m | -1.8m/s | -0.8°C | 0% | 0hPa | 2.7V | 00:00:00 | 02:20:58 | 00:00:00 | |
| DO3MHA-11 | 2026-08-31 04:07:00 | 47.53868 | 12.97740 | 78° | 15km/h | 3990m | -1.3m/s | -0.8°C | 0% | 0hPa | 2.7V | 00:00:00 | 02:20:56 | 00:00:00 | |
| PG1ADW-2 | 2026-08-31 04:06:59 | 47.53867 | 12.97735 | 81° | 15km/h | 3991m | -1.8m/s | -0.8°C | 0% | 0hPa | 2.7V | 00:00:00 | 00:00:00 | 00:00:00 | |
| DG1MFX-10 | 2026-08-31 04:06:58 | 47.53867 | 12.97735 | 81° | 15km/h | 3991m | -1.9m/s | -0.8°C | 120.1% | 0hPa | 2.7V | 08:01:00 | 00:00:00 | 00:00:00 | |
| DO3MHA-12 | 2026-08-31 04:06:57 | 47.53867 | 12.97724 | 85° | 15km/h | 3994m | -1.3m/s | -0.7°C | 0% | 0hPa | 2.7V | 00:00:00 | 02:20:53 | 00:00:00 | |
| DO3MHA-11 | 2026-08-31 04:06:55 | 47.53866 | 12.97713 | 85° | 15km/h | 3998m | -1.6m/s | -0.8°C | 0% | 0hPa | 2.7V | 00:00:00 | 02:20:51 | 00:00:00 | |
| OE5DXL-15 | 2026-08-31 04:06:53 | 47.53865 | 12.97703 | 85° | 13km/h | 4002m | -2.0m/s | -0.8°C | 0% | 0hPa | 2.7V | 00:00:00 | 00:00:00 | 00:00:00 | |
| DO3MHA-12 | 2026-08-31 04:06:52 | 47.53864 | 12.97697 | 82° | 15km/h | 4004m | -2.0m/s | -0.8°C | 0% | 0hPa | 2.7V | 00:00:00 | 02:20:48 | 00:00:00 | |
| DO3MHA-11 | 2026-08-31 04:06:50 | 47.53863 | 12.97687 | 84° | 15km/h | 4008m | -2.1m/s | -0.9°C | 0% | 0hPa | 2.7V | 00:00:00 | 02:20:46 | 00:00:00 | |
| OE3JTB-15 | 2026-08-31 04:06:49 | 47.53863 | 12.97682 | 80° | 13km/h | 4010m | -2.3m/s | -0.9°C | 0% | 0hPa | 2.7V | 00:00:00 | 00:00:00 | 00:00:00 | |
| DO3MHA-12 | 2026-08-31 04:06:47 | 47.53862 | 12.97671 | 85° | 15km/h | 4014m | -1.8m/s | -0.9°C | 0% | 0hPa | 2.7V | 00:00:00 | 02:20:43 | 00:00:00 | |
| DO3MHA-11 | 2026-08-31 04:06:45 | 47.53861 | 12.97661 | 86° | 13km/h | 4018m | -1.9m/s | -0.8°C | 0% | 0hPa | 2.7V | 00:00:00 | 02:20:41 | 00:00:00 | |
| DO3MHA-12 | 2026-08-31 04:06:42 | 47.53861 | 12.97646 | 91° | 13km/h | 4024m | -1.6m/s | -0.8°C | 0% | 0hPa | 2.6V | 00:00:00 | 02:20:38 | 00:00:00 | |
| DO3MHA-11 | 2026-08-31 04:06:40 | 47.53860 | 12.97636 | 83° | 13km/h | 4028m | -1.7m/s | -0.8°C | 0% | 0hPa | 2.6V | 00:00:00 | 02:20:36 | 00:00:00 | |
| PG1ADW-2 | 2026-08-31 04:06:39 | 47.53860 | 12.97631 | 83° | 13km/h | 4029m | -1.7m/s | -0.9°C | 0% | 0hPa | 2.6V | 00:00:00 | 00:00:00 | 00:00:00 | |
| DO3MHA-12 | 2026-08-31 04:06:37 | 47.53859 | 12.97622 | 80° | 13km/h | 4033m | -1.5m/s | -0.9°C | 0% | 0hPa | 2.6V | 00:00:00 | 02:20:33 | 00:00:00 | |
| DO3MHA-11 | 2026-08-31 04:06:35 | 47.53858 | 12.97612 | 83° | 13km/h | 4036m | -1.2m/s | -0.9°C | 0% | 0hPa | 2.6V | 00:00:00 | 02:20:31 | 00:00:00 | |
| DO3MHA-12 | 2026-08-31 04:06:31 | 47.53856 | 12.97592 | 88° | 15km/h | 4040m | -0.9m/s | -0.9°C | 0% | 0hPa | 2.6V | 00:00:00 | 02:20:27 | 00:00:00 | |
| DO3MHA-11 | 2026-08-31 04:06:30 | 47.53856 | 12.97587 | 95° | 15km/h | 4041m | -1.3m/s | -0.9°C | 0% | 0hPa | 2.6V | 08:00:00 | 02:20:26 | 00:00:00 | |
| DO3MHA-12 | 2026-08-31 04:06:26 | 47.53856 | 12.97567 | 95° | 13km/h | 4048m | -1.4m/s | -1.0°C | 0% | 0hPa | 2.6V | 00:00:00 | 02:20:22 | 00:00:00 | |
| DO3MHA-11 | 2026-08-31 04:06:25 | 47.53856 | 12.97562 | 96° | 13km/h | 4050m | -1.4m/s | -1.0°C | 0% | 0hPa | 2.6V | 00:00:00 | 02:20:21 | 00:00:00 | |
| OE5DXL-15 | 2026-08-31 04:06:23 | 47.53856 | 12.97552 | 92° | 15km/h | 4053m | -1.1m/s | -1.1°C | 0% | 0hPa | 2.6V | 08:00:00 | 00:00:00 | 00:00:00 | |
| DO3MHA-12 | 2026-08-31 04:06:21 | 47.53857 | 12.97542 | 95° | 13km/h | 4054m | -0.7m/s | -1.1°C | 0% | 0hPa | 2.7V | 08:01:00 | 02:20:17 | 00:00:00 | |
| PG1ADW-2 | 2026-08-31 04:06:19 | 47.53857 | 12.97533 | 92° | 15km/h | 4056m | -0.8m/s | -1.1°C | 0% | 0hPa | 2.7V | 00:00:00 | 00:00:00 | 00:00:00 | |
| DO3MHA-12 | 2026-08-31 04:06:16 | 47.53857 | 12.97519 | 85° | 13km/h | 4060m | -1.3m/s | -1.0°C | 0% | 0hPa | 2.7V | 00:00:00 | 02:20:12 | 00:00:00 | |
| DO3MHA-11 | 2026-08-31 04:06:15 | 47.53857 | 12.97514 | 81° | 13km/h | 4061m | -1.5m/s | -1.1°C | 0% | 0hPa | 2.7V | 00:00:00 | 02:20:11 | 00:00:00 | |
| DO3MHA-12 | 2026-08-31 04:06:11 | 47.53853 | 12.97496 | 71° | 15km/h | 4068m | -1.4m/s | -1.1°C | 0% | 0hPa | 2.7V | 00:00:00 | 02:20:07 | 00:00:00 | |
| DO3MHA-11 | 2026-08-31 04:06:10 | 47.53852 | 12.97491 | 70° | 15km/h | 4069m | -1.2m/s | -1.1°C | 0% | 0hPa | 2.7V | 00:00:00 | 02:20:06 | 00:00:00 | |
| DO3MHA-12 | 2026-08-31 04:06:06 | 47.53846 | 12.97471 | 70° | 15km/h | 4074m | -1.5m/s | -1.1°C | 0% | 0hPa | 2.7V | 00:00:00 | 02:20:02 | 00:00:00 | |
| DO3MHA-11 | 2026-08-31 04:06:05 | 47.53845 | 12.97466 | 63° | 16km/h | 4076m | -1.4m/s | -1.1°C | 0% | 0hPa | 2.7V | 00:00:00 | 02:20:01 | 00:00:00 | |
| OE5MMP-10 | 2026-08-31 04:06:01 | 47.53839 | 12.97444 | 69° | 15km/h | 4082m | -1.9m/s | -1.1°C | 0% | 0hPa | 2.7V | 00:00:00 | 02:19:57 | 00:00:00 | |
| DO3MHA-11 | 2026-08-31 04:06:00 | 47.53837 | 12.97439 | 71° | 15km/h | 4084m | -2.0m/s | -1.1°C | 0% | 0hPa | 2.7V | 00:00:00 | 02:19:56 | 00:00:00 | |
| PG1ADW-2 | 2026-08-31 04:05:59 | 47.53836 | 12.97433 | 73° | 13km/h | 4086m | -2.2m/s | -1.2°C | 0% | 0hPa | 2.6V | 00:00:00 | 02:19:55 | 00:00:00 | |
| DO3MHA-12 | 2026-08-31 04:05:56 | 47.53833 | 12.97418 | 75° | 13km/h | 4092m | -1.8m/s | -1.2°C | 0% | 0hPa | 2.6V | 00:00:00 | 02:19:52 | 00:00:00 | |
| DO3MHA-11 | 2026-08-31 04:05:55 | 47.53832 | 12.97413 | 80° | 13km/h | 4094m | -1.8m/s | -1.2°C | 0% | 0hPa | 2.6V | 00:00:00 | 02:19:51 | 00:00:00 | |
| OE5DXL-15 | 2026-08-31 04:05:53 | 47.53831 | 12.97403 | 80° | 15km/h | 4098m | -2.1m/s | -1.2°C | 0% | 0hPa | 2.6V | 00:00:00 | 00:00:00 | 00:00:00 | |
| DO3MHA-12 | 2026-08-31 04:05:51 | 47.53830 | 12.97394 | 83° | 13km/h | 4102m | -1.9m/s | -1.3°C | 0% | 0hPa | 2.6V | 00:00:00 | 02:19:47 | 00:00:00 | |
| DO3MHA-11 | 2026-08-31 04:05:50 | 47.53829 | 12.97389 | 80° | 13km/h | 4104m | -1.5m/s | -1.3°C | 0% | 0hPa | 2.6V | 00:00:00 | 02:19:46 | 00:00:00 | |
| OE5MMP-10 | 2026-08-31 04:05:47 | 47.53826 | 12.97375 | 70° | 16km/h | 4108m | -1.3m/s | -1.3°C | 0% | 0hPa | 2.6V | 00:00:00 | 02:19:43 | 00:00:00 | |
| DO3MHA-12 | 2026-08-31 04:05:46 | 47.53825 | 12.97370 | 67° | 13km/h | 4109m | -1.3m/s | -1.3°C | 0% | 0hPa | 2.6V | 00:00:00 | 02:19:42 | 00:00:00 | |
| DO3MHA-11 | 2026-08-31 04:05:45 | 47.53823 | 12.97366 | 64° | 13km/h | 4111m | -1.6m/s | -1.3°C | 0% | 0hPa | 2.6V | 08:01:00 | 02:19:41 | 00:00:00 | |
| OE5DRO-10 | 2026-08-31 04:05:43 | 47.53820 | 12.97356 | 67° | 15km/h | 4114m | -1.4m/s | -1.3°C | 0% | 0hPa | 2.7V | 00:00:00 | 00:00:00 | 00:00:00 | |
| DO3MHA-12 | 2026-08-31 04:05:41 | 47.53817 | 12.97348 | 69° | 13km/h | 4116m | -1.1m/s | -1.3°C | 0% | 0hPa | 2.7V | 00:00:00 | 02:19:37 | 00:00:00 | |
| DO3MHA-11 | 2026-08-31 04:05:40 | 47.53816 | 12.97343 | 65° | 13km/h | 4117m | -1.4m/s | -1.3°C | 0% | 0hPa | 2.7V | 00:00:00 | 02:19:36 | 00:00:00 | |
| PG1ADW-2 | 2026-08-31 04:05:39 | 47.53814 | 12.97339 | 64° | 16km/h | 4119m | -1.0m/s | -1.4°C | 0% | 0hPa | 2.7V | 00:00:00 | 00:00:00 | 00:00:00 | |
| DO3MHA-12 | 2026-08-31 04:05:36 | 47.53810 | 12.97325 | 65° | 15km/h | 4122m | -1.4m/s | -1.4°C | 0% | 0hPa | 2.7V | 08:01:00 | 02:19:32 | 00:00:00 | |
| DO3MHA-11 | 2026-08-31 04:05:35 | 47.53809 | 12.97321 | 69° | 15km/h | 4124m | -1.5m/s | -1.4°C | 0% | 0hPa | 2.6V | 00:00:00 | 02:19:31 | 00:00:00 | |
| DO3MHA-12 | 2026-08-31 04:05:31 | 47.53802 | 12.97300 | 65° | 16km/h | 4129m | -1.1m/s | -1.4°C | 0% | 0hPa | 2.6V | 00:00:00 | 02:19:27 | 00:00:00 | |
| DO3MHA-11 | 2026-08-31 04:05:30 | 47.53801 | 12.97294 | 68° | 16km/h | 4130m | -1.9m/s | -1.4°C | 0% | 0hPa | 2.6V | 00:00:00 | 02:19:26 | 00:00:00 | |
| OE5DRO-10 | 2026-08-31 04:05:27 | 47.53795 | 12.97278 | 64° | 16km/h | 4136m | -2.0m/s | -1.4°C | 0% | 0hPa | 2.6V | 08:01:00 | 00:00:00 | 00:00:00 | |
| DO3MHA-12 | 2026-08-31 04:05:26 | 47.53793 | 12.97272 | 64° | 16km/h | 4139m | -2.4m/s | -1.4°C | 0% | 0hPa | 2.6V | 00:00:00 | 02:19:22 | 00:00:00 | |
| DO3MHA-11 | 2026-08-31 04:05:25 | 47.53791 | 12.97267 | 59° | 18km/h | 4140m | -1.4m/s | -1.3°C | 0% | 0hPa | 2.6V | 00:00:00 | 02:19:21 | 00:00:00 | |
| OE5DXL-15 | 2026-08-31 04:05:23 | 47.53787 | 12.97255 | 61° | 18km/h | 4144m | -2.2m/s | -1.3°C | 0% | 0hPa | 2.6V | 00:00:00 | 00:00:00 | 00:00:00 | |
| OE3JTB-15 | 2026-08-31 04:05:22 | 47.53784 | 12.97250 | 59° | 18km/h | 4146m | -2.7m/s | -1.3°C | 0% | 0hPa | 2.6V | 00:00:00 | 00:00:00 | 00:00:00 | |
| DO3MHA-12 | 2026-08-31 04:05:21 | 47.53782 | 12.97245 | 59° | 16km/h | 4149m | -2.4m/s | -1.3°C | 0% | 0hPa | 2.6V | 00:00:00 | 02:19:17 | 00:00:00 | |
| DO3MHA-11 | 2026-08-31 04:05:20 | 47.53780 | 12.97239 | 57° | 16km/h | 4151m | -2.0m/s | -1.3°C | 0% | 0hPa | 2.6V | 00:00:00 | 02:19:16 | 00:00:00 | |
| PG1ADW-2 | 2026-08-31 04:05:19 | 47.53777 | 12.97233 | 61° | 18km/h | 4154m | -2.4m/s | -1.4°C | 0% | 0hPa | 2.6V | 00:00:00 | 00:00:00 | 00:00:00 | |
| DO3MHA-12 | 2026-08-31 04:05:16 | 47.53771 | 12.97218 | 55° | 18km/h | 4161m | -2.2m/s | -1.4°C | 0% | 0hPa | 2.6V | 00:00:00 | 02:19:12 | 00:00:00 | |
| DO3MHA-11 | 2026-08-31 04:05:15 | 47.53768 | 12.97212 | 58° | 18km/h | 4163m | -2.4m/s | -1.4°C | 0% | 0hPa | 2.6V | 00:00:00 | 02:19:11 | 00:00:00 | |
| DG1MFX-10 | 2026-08-31 04:05:14 | 47.53768 | 12.97212 | 58° | 18km/h | 4163m | -2.5m/s | -1.4°C | 118.4% | 0hPa | 2.7V | 08:02:00 | 00:00:00 | 00:00:00 | |
| DO3MHA-12 | 2026-08-31 04:05:11 | 47.53758 | 12.97190 | 62° | 18km/h | 4172m | -2.0m/s | -1.4°C | 0% | 0hPa | 2.7V | 00:00:00 | 02:19:07 | 00:00:00 | |
| DO3MHA-11 | 2026-08-31 04:05:10 | 47.53756 | 12.97184 | 57° | 18km/h | 4174m | -1.7m/s | -1.5°C | 0% | 0hPa | 2.7V | 00:00:00 | 02:19:06 | 00:00:00 | |
| OE5MMP-10 | 2026-08-31 04:05:09 | 47.53754 | 12.97179 | 60° | 20km/h | 4175m | -1.8m/s | -1.5°C | 0% | 0hPa | 2.7V | 00:00:00 | 02:19:05 | 00:00:00 | |
| DO3MHA-12 | 2026-08-31 04:05:06 | 47.53746 | 12.97162 | 60° | 20km/h | 4182m | -1.7m/s | -1.6°C | 0% | 0hPa | 2.7V | 00:00:00 | 02:19:02 | 00:00:00 | |
| DO3MHA-11 | 2026-08-31 04:05:05 | 47.53744 | 12.97156 | 57° | 20km/h | 4183m | -2.0m/s | -1.6°C | 0% | 0hPa | 2.6V | 00:00:00 | 02:19:01 | 00:00:00 | |
| OE5MMP-10 | 2026-08-31 04:04:59 | 47.53726 | 12.97118 | 53° | 22km/h | 4196m | -1.7m/s | -1.7°C | 0% | 0hPa | 2.6V | 00:00:00 | 02:18:55 | 00:00:00 | |
| DO3MHA-12 | 2026-08-31 04:04:58 | 47.53723 | 12.97112 | 52° | 20km/h | 4198m | -1.9m/s | -1.7°C | 0% | 0hPa | 2.6V | 00:00:00 | 02:18:54 | 00:00:00 | |
| DO3MHA-11 | 2026-08-31 04:04:57 | 47.53719 | 12.97106 | 50° | 22km/h | 4200m | -2.0m/s | -1.7°C | 0% | 0hPa | 2.6V | 08:02:00 | 02:18:53 | 00:00:00 | |
| OE5DRO-10 | 2026-08-31 04:04:55 | 47.53713 | 12.97095 | 53° | 22km/h | 4204m | -2.0m/s | -1.7°C | 0% | 0hPa | 2.6V | 00:00:00 | 00:00:00 | 00:00:00 | |
| OE5DXL-15 | 2026-08-31 04:04:53 | 47.53706 | 12.97082 | 50° | 20km/h | 4208m | -2.2m/s | -1.8°C | 0% | 0hPa | 2.6V | 00:00:00 | 00:00:00 | 00:00:00 | |
| DO3MHA-11 | 2026-08-31 04:04:52 | 47.53702 | 12.97077 | 49° | 22km/h | 4211m | -2.2m/s | -1.9°C | 0% | 0hPa | 2.7V | 00:00:00 | 02:18:48 | 00:00:00 | |
| OE5MMP-10 | 2026-08-31 04:04:49 | 47.53692 | 12.97058 | 48° | 20km/h | 4217m | -1.9m/s | -1.9°C | 0% | 0hPa | 2.7V | 00:00:00 | 02:18:45 | 00:00:00 | |
| DO3MHA-12 | 2026-08-31 04:04:48 | 47.53688 | 12.97052 | 55° | 22km/h | 4218m | -1.5m/s | -2.0°C | 0% | 0hPa | 2.7V | 08:02:00 | 02:18:44 | 00:00:00 | |
| DO3MHA-11 | 2026-08-31 04:04:47 | 47.53685 | 12.97045 | 52° | 22km/h | 4220m | -1.7m/s | -2.0°C | 0% | 0hPa | 2.6V | 00:00:00 | 02:18:43 | 00:00:00 | |
| DO3MHA-12 | 2026-08-31 04:04:43 | 47.53671 | 12.97020 | 52° | 20km/h | 4228m | -2.0m/s | -2.0°C | 0% | 0hPa | 2.6V | 00:00:00 | 02:18:39 | 00:00:00 | |
| DO3MHA-11 | 2026-08-31 04:04:42 | 47.53668 | 12.97014 | 54° | 20km/h | 4230m | -1.9m/s | -2.0°C | 0% | 0hPa | 2.6V | 00:00:00 | 02:18:38 | 00:00:00 | |
| PG1ADW-2 | 2026-08-31 04:04:39 | 47.53659 | 12.96997 | 52° | 20km/h | 4237m | -2.3m/s | -2.0°C | 0% | 0hPa | 2.6V | 00:00:00 | 02:18:35 | 00:00:00 | |
| DO3MHA-12 | 2026-08-31 04:04:38 | 47.53656 | 12.96991 | 53° | 20km/h | 4239m | -2.1m/s | -2.0°C | 0% | 0hPa | 2.6V | 00:00:00 | 02:18:34 | 00:00:00 | |
| DO3MHA-11 | 2026-08-31 04:04:37 | 47.53653 | 12.96985 | 51° | 20km/h | 4241m | -2.2m/s | -2.1°C | 0% | 0hPa | 2.6V | 00:00:00 | 02:18:33 | 00:00:00 | |
| OE5MMP-10 | 2026-08-31 04:04:34 | 47.53643 | 12.96967 | 54° | 22km/h | 4249m | -2.7m/s | -2.0°C | 0% | 0hPa | 2.6V | 00:00:00 | 02:18:30 | 00:00:00 | |
| DO3MHA-12 | 2026-08-31 04:04:33 | 47.53640 | 12.96960 | 56° | 20km/h | 4252m | -2.6m/s | -2.1°C | 0% | 0hPa | 2.6V | 00:00:00 | 02:18:29 | 00:00:00 | |
| DO3MHA-11 | 2026-08-31 04:04:32 | 47.53637 | 12.96954 | 55° | 20km/h | 4254m | -2.5m/s | -2.1°C | 0% | 0hPa | 2.6V | 00:00:00 | 02:18:28 | 00:00:00 | |
| DO3MHA-12 | 2026-08-31 04:04:28 | 47.53625 | 12.96928 | 58° | 20km/h | 4264m | -2.1m/s | -2.2°C | 0% | 0hPa | 2.6V | 00:00:00 | 02:18:24 | 00:00:00 | |
| OE5MMP-10 | 2026-08-31 04:04:24 | 47.53613 | 12.96902 | 58° | 22km/h | 4274m | -3.0m/s | -2.2°C | 0% | 0hPa | 2.6V | 08:02:00 | 02:18:20 | 00:00:00 | |
| OE5DXL-15 | 2026-08-31 04:04:23 | 47.53610 | 12.96895 | 56° | 22km/h | 4276m | -2.4m/s | -2.2°C | 0% | 0hPa | 2.6V | 00:00:00 | 00:00:00 | 00:00:00 | |
| DO3MHA-11 | 2026-08-31 04:04:22 | 47.53608 | 12.96889 | 57° | 22km/h | 4279m | -2.8m/s | -2.3°C | 0% | 0hPa | 2.6V | 00:00:00 | 02:18:18 | 00:00:00 | |
| PG1ADW-2 | 2026-08-31 04:04:19 | 47.53599 | 12.96869 | 59° | 22km/h | 4287m | -2.9m/s | -2.5°C | 0% | 0hPa | 2.6V | 08:03:00 | 00:00:00 | 00:00:00 | |
| DO3MHA-12 | 2026-08-31 04:04:18 | 47.53596 | 12.96863 | 57° | 22km/h | 4290m | -2.8m/s | -2.5°C | 0% | 0hPa | 2.7V | 00:00:00 | 02:18:14 | 00:00:00 | |
| DO3MHA-11 | 2026-08-31 04:04:17 | 47.53593 | 12.96856 | 54° | 22km/h | 4292m | -2.5m/s | -2.5°C | 0% | 0hPa | 2.6V | 00:00:00 | 02:18:13 | 00:00:00 | |
| OE5MMP-10 | 2026-08-31 04:04:14 | 47.53584 | 12.96835 | 62° | 24km/h | 4302m | -2.9m/s | -2.6°C | 0% | 0hPa | 2.6V | 00:00:00 | 02:18:10 | 00:00:00 | |
| DO3MHA-12 | 2026-08-31 04:04:13 | 47.53581 | 12.96828 | 60° | 24km/h | 4305m | -3.2m/s | -2.6°C | 0% | 0hPa | 2.6V | 00:00:00 | 02:18:09 | 00:00:00 | |
| DO3MHA-11 | 2026-08-31 04:04:12 | 47.53578 | 12.96821 | 61° | 24km/h | 4308m | -3.1m/s | -2.6°C | 0% | 0hPa | 2.6V | 08:03:00 | 02:18:08 | 00:00:00 | |
| DG1MFX-10 | 2026-08-31 04:04:11 | 47.53578 | 12.96821 | 62° | 24km/h | 4308m | -3.2m/s | -2.7°C | 108.7% | 0hPa | 2.5V | 08:03:00 | 00:00:00 | 00:00:00 | |
| DO3MHA-12 | 2026-08-31 04:04:08 | 47.53567 | 12.96791 | 62° | 24km/h | 4320m | -2.4m/s | -2.9°C | 0% | 0hPa | 2.5V | 00:00:00 | 02:18:04 | 00:00:00 | |
| DO3MHA-11 | 2026-08-31 04:04:07 | 47.53564 | 12.96783 | 63° | 24km/h | 4322m | -2.6m/s | -2.9°C | 0% | 0hPa | 2.5V | 00:00:00 | 02:18:03 | 00:00:00 | |
| DO3MHA-11 | 2026-08-31 04:04:02 | 47.53550 | 12.96743 | 64° | 22km/h | 4334m | -2.7m/s | -2.9°C | 0% | 0hPa | 2.5V | 00:00:00 | 02:17:58 | 00:00:00 | |
| PG1ADW-2 | 2026-08-31 04:03:59 | 47.53542 | 12.96721 | 62° | 24km/h | 4342m | -2.6m/s | -2.8°C | 0% | 0hPa | 2.5V | 00:00:00 | 00:00:00 | 00:00:00 | |
| DO3MHA-12 | 2026-08-31 04:03:58 | 47.53539 | 12.96713 | 63° | 24km/h | 4345m | -2.5m/s | -2.8°C | 0% | 0hPa | 2.5V | 00:00:00 | 02:17:54 | 00:00:00 | |
| DO3MHA-11 | 2026-08-31 04:03:57 | 47.53536 | 12.96706 | 61° | 24km/h | 4348m | -2.8m/s | -2.8°C | 0% | 0hPa | 2.5V | 00:00:00 | 02:17:53 | 00:00:00 | |
| OE3JTB-15 | 2026-08-31 04:03:55 | 47.53530 | 12.96691 | 59° | 26km/h | 4353m | -3.0m/s | -3.0°C | 0% | 0hPa | 2.6V | 08:03:00 | 00:00:00 | 00:00:00 | |
| DO3MHA-12 | 2026-08-31 04:03:53 | 47.53524 | 12.96676 | 60° | 24km/h | 4360m | -3.0m/s | -3.0°C | 0% | 0hPa | 2.5V | 00:00:00 | 02:17:49 | 00:00:00 | |
| DO3MHA-11 | 2026-08-31 04:03:52 | 47.53521 | 12.96669 | 57° | 24km/h | 4363m | -3.0m/s | -2.7°C | 0% | 0hPa | 2.5V | 00:00:00 | 02:17:48 | 00:00:00 | |
| OE5DRO-10 | 2026-08-31 04:03:51 | 47.53518 | 12.96661 | 58° | 26km/h | 4366m | -2.7m/s | -2.4°C | 0% | 0hPa | 2.5V | 00:00:00 | 00:00:00 | 00:00:00 | |
| DG1MFX-10 | 2026-08-31 04:03:50 | 47.53518 | 12.96661 | 59° | 24km/h | 4366m | -2.8m/s | -2.5°C | 119.2% | 0hPa | 2.6V | 08:03:00 | 00:00:00 | 00:00:00 | |
| DO3MHA-11 | 2026-08-31 04:03:47 | 47.53505 | 12.96630 | 58° | 26km/h | 4376m | -2.7m/s | -2.5°C | 0% | 0hPa | 2.6V | 00:00:00 | 02:17:43 | 00:00:00 | |
| DO3MHA-12 | 2026-08-31 04:03:43 | 47.53491 | 12.96598 | 56° | 26km/h | 4386m | -2.2m/s | -2.7°C | 0% | 0hPa | 2.6V | 00:00:00 | 02:17:39 | 00:00:00 | |
| DO3MHA-11 | 2026-08-31 04:03:42 | 47.53487 | 12.96590 | 59° | 26km/h | 4388m | -2.1m/s | -2.6°C | 0% | 0hPa | 2.6V | 00:00:00 | 02:17:38 | 00:00:00 | |
| BAUMI2-15 | 2026-08-31 04:03:41 | 47.53484 | 12.96581 | 61° | 27km/h | 4390m | -1.7m/s | -2.7°C | 0% | 0hPa | 2.5V | 00:00:00 | 02:17:37 | 00:00:00 | |
| PG1ADW-2 | 2026-08-31 04:03:39 | 47.53477 | 12.96565 | 61° | 26km/h | 4394m | -2.3m/s | -2.9°C | 0% | 0hPa | 2.5V | 00:00:00 | 00:00:00 | 00:00:00 | |
| DO3MHA-12 | 2026-08-31 04:03:38 | 47.53474 | 12.96557 | 59° | 26km/h | 4396m | -2.1m/s | -2.8°C | 0% | 0hPa | 2.5V | 00:00:00 | 02:17:34 | 00:00:00 | |
| DO3MHA-11 | 2026-08-31 04:03:37 | 47.53471 | 12.96549 | 62° | 26km/h | 4399m | -2.2m/s | -2.7°C | 0% | 0hPa | 2.5V | 00:00:00 | 02:17:33 | 00:00:00 | |
| OE5DRO-10 | 2026-08-31 04:03:35 | 47.53465 | 12.96533 | 59° | 26km/h | 4403m | -2.5m/s | -2.8°C | 0% | 0hPa | 2.5V | 00:00:00 | 00:00:00 | 00:00:00 | |
| DO3MHA-12 | 2026-08-31 04:03:33 | 47.53458 | 12.96517 | 63° | 26km/h | 4408m | -2.3m/s | -2.8°C | 0% | 0hPa | 2.5V | 00:00:00 | 02:17:29 | 00:00:00 | |
| DO3MHA-11 | 2026-08-31 04:03:32 | 47.53455 | 12.96508 | 61° | 26km/h | 4410m | -2.4m/s | -2.8°C | 0% | 0hPa | 2.6V | 00:00:00 | 02:17:28 | 00:00:00 | |
| DG1MFX-10 | 2026-08-31 04:03:30 | 47.53452 | 12.96500 | 58° | 26km/h | 4413m | -2.6m/s | -2.9°C | 119.1% | 0hPa | 2.6V | 08:04:00 | 00:00:00 | 00:00:00 | |
| DO3MHA-12 | 2026-08-31 04:03:28 | 47.53442 | 12.96476 | 60° | 26km/h | 4420m | -2.4m/s | -2.9°C | 0% | 0hPa | 2.6V | 00:00:00 | 02:17:24 | 00:00:00 | |
| DO3MHA-11 | 2026-08-31 04:03:27 | 47.53439 | 12.96468 | 59° | 26km/h | 4422m | -2.1m/s | -2.8°C | 0% | 0hPa | 2.6V | 08:03:00 | 02:17:23 | 00:00:00 | |
| OE3JTB-15 | 2026-08-31 04:03:26 | 47.53436 | 12.96459 | 60° | 24km/h | 4424m | -2.0m/s | -2.7°C | 0% | 0hPa | 2.6V | 00:00:00 | 00:00:00 | 00:00:00 | |
| DO3MHA-12 | 2026-08-31 04:03:23 | 47.53426 | 12.96435 | 58° | 24km/h | 4431m | -2.3m/s | -2.7°C | 0% | 0hPa | 2.6V | 00:00:00 | 02:17:19 | 00:00:00 | |
| DO3MHA-11 | 2026-08-31 04:03:22 | 47.53422 | 12.96427 | 58° | 24km/h | 4433m | -2.0m/s | -2.7°C | 0% | 0hPa | 2.6V | 00:00:00 | 02:17:18 | 00:00:00 | |
| PG1ADW-2 | 2026-08-31 04:03:19 | 47.53413 | 12.96404 | 59° | 24km/h | 4439m | -1.5m/s | -2.8°C | 0% | 0hPa | 2.6V | 00:00:00 | 02:17:15 | 00:00:00 | |
| DO3MHA-12 | 2026-08-31 04:03:18 | 47.53410 | 12.96397 | 61° | 24km/h | 4441m | -1.7m/s | -2.9°C | 0% | 0hPa | 2.5V | 08:04:00 | 02:17:14 | 00:00:00 | |
| DO3MHA-11 | 2026-08-31 04:03:17 | 47.53407 | 12.96389 | 63° | 24km/h | 4442m | -1.5m/s | -2.9°C | 0% | 0hPa | 2.5V | 00:00:00 | 02:17:13 | 00:00:00 | |
| DO3MHA-12 | 2026-08-31 04:03:13 | 47.53396 | 12.96358 | 63° | 24km/h | 4452m | -2.3m/s | -2.9°C | 0% | 0hPa | 2.5V | 00:00:00 | 02:17:09 | 00:00:00 | |
| DO3MHA-11 | 2026-08-31 04:03:12 | 47.53393 | 12.96350 | 63° | 24km/h | 4454m | -1.9m/s | -2.9°C | 0% | 0hPa | 2.5V | 00:00:00 | 02:17:08 | 00:00:00 | |
| DG1MFX-10 | 2026-08-31 04:03:09 | 47.53387 | 12.96334 | 62° | 24km/h | 4459m | -2.5m/s | -2.9°C | 115.7% | 0hPa | 2.6V | 08:04:00 | 00:00:00 | 00:00:00 | |
| DO3MHA-12 | 2026-08-31 04:03:08 | 47.53381 | 12.96319 | 64° | 24km/h | 4464m | -2.9m/s | -2.8°C | 0% | 0hPa | 2.6V | 00:00:00 | 02:17:04 | 00:00:00 | |
| DO3MHA-11 | 2026-08-31 04:03:07 | 47.53379 | 12.96311 | 65° | 24km/h | 4467m | -2.7m/s | -2.8°C | 0% | 0hPa | 2.6V | 00:00:00 | 02:17:03 | 00:00:00 | |
| DO3MHA-12 | 2026-08-31 04:03:03 | 47.53368 | 12.96279 | 66° | 26km/h | 4477m | -2.1m/s | -3.3°C | 0% | 0hPa | 2.6V | 00:00:00 | 02:16:59 | 00:00:00 | |
| DO3MHA-11 | 2026-08-31 04:03:02 | 47.53365 | 12.96271 | 63° | 26km/h | 4479m | -2.3m/s | -3.3°C | 0% | 0hPa | 2.6V | 00:00:00 | 02:16:58 | 00:00:00 | |
| PG1ADW-2 | 2026-08-31 04:02:59 | 47.53357 | 12.96245 | 64° | 24km/h | 4486m | -2.8m/s | -3.6°C | 0% | 0hPa | 2.6V | 00:00:00 | 00:00:00 | 00:00:00 | |
| DO3MHA-12 | 2026-08-31 04:02:58 | 47.53354 | 12.96237 | 64° | 24km/h | 4489m | -2.3m/s | -3.6°C | 0% | 0hPa | 2.6V | 00:00:00 | 02:16:54 | 00:00:00 | |
| DO3MHA-11 | 2026-08-31 04:02:57 | 47.53351 | 12.96229 | 62° | 24km/h | 4491m | -2.3m/s | -3.4°C | 0% | 0hPa | 2.6V | 00:00:00 | 02:16:53 | 00:00:00 | |
| OE5DXL-15 | 2026-08-31 04:02:53 | 47.53340 | 12.96197 | 63° | 24km/h | 4502m | -2.7m/s | -3.9°C | 0% | 0hPa | 2.6V | 00:00:00 | 00:00:00 | 00:00:00 | |
| DO3MHA-11 | 2026-08-31 04:02:52 | 47.53338 | 12.96189 | 66° | 24km/h | 4504m | -2.2m/s | -4.1°C | 0% | 0hPa | 2.6V | 00:00:00 | 02:16:48 | 00:00:00 | |
| OE5MMP-10 | 2026-08-31 04:02:50 | 47.53333 | 12.96173 | 68° | 24km/h | 4509m | -2.6m/s | -4.2°C | 0% | 0hPa | 2.6V | 00:00:00 | 02:16:46 | 00:00:00 | |
| DO3MHA-12 | 2026-08-31 04:02:48 | 47.53329 | 12.96156 | 70° | 24km/h | 4513m | -2.6m/s | -4.2°C | 0% | 0hPa | 2.6V | 00:00:00 | 02:16:44 | 00:00:00 | |
| DO3MHA-11 | 2026-08-31 04:02:47 | 47.53326 | 12.96148 | 69° | 24km/h | 4516m | -2.2m/s | -4.2°C | 0% | 0hPa | 2.6V | 00:00:00 | 02:16:43 | 00:00:00 | |
| DO3MHA-12 | 2026-08-31 04:02:43 | 47.53317 | 12.96115 | 68° | 24km/h | 4526m | -3.1m/s | -4.2°C | 0% | 0hPa | 2.6V | 00:00:00 | 02:16:39 | 00:00:00 | |
| DO3MHA-11 | 2026-08-31 04:02:42 | 47.53314 | 12.96107 | 68° | 26km/h | 4529m | -2.9m/s | -4.2°C | 0% | 0hPa | 2.6V | 08:04:00 | 02:16:38 | 00:00:00 | |
| OE5MMP-10 | 2026-08-31 04:02:40 | 47.53310 | 12.96090 | 68° | 24km/h | 4534m | -2.7m/s | -4.2°C | 0% | 0hPa | 2.6V | 00:00:00 | 02:16:36 | 00:00:00 | |
| PG1ADW-2 | 2026-08-31 04:02:39 | 47.53307 | 12.96081 | 68° | 24km/h | 4537m | -2.6m/s | -4.3°C | 0% | 0hPa | 2.6V | 00:00:00 | 00:00:00 | 00:00:00 | |
| DO3MHA-12 | 2026-08-31 04:02:38 | 47.53305 | 12.96073 | 68° | 26km/h | 4539m | -2.9m/s | -4.3°C | 0% | 0hPa | 2.6V | 00:00:00 | 02:16:34 | 00:00:00 | |
| DO3MHA-11 | 2026-08-31 04:02:37 | 47.53302 | 12.96064 | 67° | 26km/h | 4542m | -3.1m/s | -4.3°C | 0% | 0hPa | 2.6V | 00:00:00 | 02:16:33 | 00:00:00 | |
| DO3MHA-12 | 2026-08-31 04:02:33 | 47.53291 | 12.96028 | 67° | 24km/h | 4554m | -2.8m/s | -4.3°C | 0% | 0hPa | 2.6V | 08:04:00 | 02:16:29 | 00:00:00 | |
| DO3MHA-11 | 2026-08-31 04:02:32 | 47.53288 | 12.96020 | 65° | 24km/h | 4557m | -3.0m/s | -4.4°C | 0% | 0hPa | 2.6V | 00:00:00 | 02:16:28 | 00:00:00 | |
| OE5DRO-10 | 2026-08-31 04:02:31 | 47.53286 | 12.96012 | 63° | 24km/h | 4560m | -2.5m/s | -4.4°C | 0% | 0hPa | 2.6V | 00:00:00 | 00:00:00 | 00:00:00 | |
| DO3MHA-12 | 2026-08-31 04:02:28 | 47.53277 | 12.95987 | 65° | 22km/h | 4567m | -2.8m/s | -4.4°C | 0% | 0hPa | 2.6V | 00:00:00 | 02:16:24 | 00:00:00 | |
| DO3MHA-11 | 2026-08-31 04:02:27 | 47.53275 | 12.95979 | 65° | 24km/h | 4570m | -3.2m/s | -4.4°C | 0% | 0hPa | 2.6V | 00:00:00 | 02:16:23 | 00:00:00 | |
| OE5DXL-15 | 2026-08-31 04:02:23 | 47.53264 | 12.95949 | 62° | 24km/h | 4583m | -3.4m/s | -4.5°C | 0% | 0hPa | 2.5V | 00:00:00 | 00:00:00 | 00:00:00 | |
| DO3MHA-11 | 2026-08-31 04:02:22 | 47.53262 | 12.95941 | 61° | 24km/h | 4586m | -3.4m/s | -4.5°C | 0% | 0hPa | 2.5V | 00:00:00 | 02:16:18 | 00:00:00 | |
| OE5MMP-10 | 2026-08-31 04:02:21 | 47.53259 | 12.95934 | 59° | 24km/h | 4590m | -3.1m/s | -4.4°C | 0% | 0hPa | 2.5V | 00:00:00 | 02:16:17 | 00:00:00 | |
| PG1ADW-2 | 2026-08-31 04:02:19 | 47.53253 | 12.95919 | 60° | 24km/h | 4596m | -3.1m/s | -4.2°C | 0% | 0hPa | 2.5V | 00:00:00 | 00:00:00 | 00:00:00 | |
| DO3MHA-12 | 2026-08-31 04:02:18 | 47.53250 | 12.95911 | 63° | 22km/h | 4599m | -3.1m/s | -4.0°C | 0% | 0hPa | 2.5V | 00:00:00 | 02:16:14 | 00:00:00 | |
| DO3MHA-11 | 2026-08-31 04:02:17 | 47.53247 | 12.95904 | 64° | 22km/h | 4602m | -2.4m/s | -4.1°C | 0% | 0hPa | 2.6V | 00:00:00 | 02:16:13 | 00:00:00 | |
| OE5DRO-10 | 2026-08-31 04:02:15 | 47.53242 | 12.95889 | 62° | 24km/h | 4607m | -2.9m/s | -4.1°C | 0% | 0hPa | 2.6V | 00:00:00 | 00:00:00 | 00:00:00 | |
| DO3MHA-12 | 2026-08-31 04:02:13 | 47.53236 | 12.95874 | 62° | 24km/h | 4613m | -2.5m/s | -4.2°C | 0% | 0hPa | 2.6V | 00:00:00 | 02:16:09 | 00:00:00 | |
| DO3MHA-11 | 2026-08-31 04:02:12 | 47.53233 | 12.95866 | 60° | 24km/h | 4616m | -2.9m/s | -4.0°C | 0% | 0hPa | 2.6V | 00:00:00 | 02:16:08 | 00:00:00 | |
| DO3MHA-12 | 2026-08-31 04:02:08 | 47.53222 | 12.95835 | 61° | 24km/h | 4628m | -3.2m/s | -4.4°C | 0% | 0hPa | 2.5V | 00:00:00 | 02:16:04 | 00:00:00 | |
| DO3MHA-11 | 2026-08-31 04:02:07 | 47.53219 | 12.95827 | 61° | 24km/h | 4631m | -2.9m/s | -4.5°C | 0% | 0hPa | 2.5V | 00:00:00 | 02:16:03 | 00:00:00 | |
| OE5MMP-10 | 2026-08-31 04:02:06 | 47.53216 | 12.95819 | 63° | 24km/h | 4634m | -2.4m/s | -4.5°C | 0% | 0hPa | 2.5V | 00:00:00 | 02:16:02 | 00:00:00 | |
| DO3MHA-12 | 2026-08-31 04:02:03 | 47.53207 | 12.95796 | 57° | 24km/h | 4642m | -2.6m/s | -4.5°C | 0% | 0hPa | 2.5V | 00:00:00 | 02:15:59 | 00:00:00 | |
| DO3MHA-11 | 2026-08-31 04:02:02 | 47.53204 | 12.95789 | 57° | 22km/h | 4644m | -2.6m/s | -4.6°C | 0% | 0hPa | 2.6V | 00:00:00 | 02:15:58 | 00:00:00 | |
| OE3JTB-15 | 2026-08-31 04:01:59 | 47.53195 | 12.95767 | 60° | 24km/h | 4653m | -2.9m/s | -4.7°C | 0% | 0hPa | 2.6V | 00:00:00 | 00:00:00 | 00:00:00 | |
| DO3MHA-12 | 2026-08-31 04:01:58 | 47.53192 | 12.95760 | 60° | 24km/h | 4656m | -2.9m/s | -4.7°C | 0% | 0hPa | 2.6V | 00:00:00 | 02:15:54 | 00:00:00 | |
| DO3MHA-11 | 2026-08-31 04:01:57 | 47.53189 | 12.95753 | 61° | 24km/h | 4659m | -3.3m/s | -4.8°C | 0% | 0hPa | 2.6V | 08:05:00 | 02:15:53 | 00:00:00 | |
| OE5MMP-10 | 2026-08-31 04:01:56 | 47.53186 | 12.95745 | 60° | 24km/h | 4663m | -3.1m/s | -4.8°C | 0% | 0hPa | 2.6V | 00:00:00 | 02:15:52 | 00:00:00 | |
| DO3MHA-12 | 2026-08-31 04:01:53 | 47.53176 | 12.95723 | 60° | 24km/h | 4672m | -2.8m/s | -5.0°C | 0% | 0hPa | 2.5V | 00:00:00 | 02:15:49 | 00:00:00 | |
| DO3MHA-11 | 2026-08-31 04:01:52 | 47.53173 | 12.95715 | 60° | 24km/h | 4675m | -3.3m/s | -5.1°C | 0% | 0hPa | 2.5V | 00:00:00 | 02:15:48 | 00:00:00 | |
| DO3MHA-12 | 2026-08-31 04:01:48 | 47.53160 | 12.95686 | 60° | 22km/h | 4688m | -3.4m/s | -5.1°C | 0% | 0hPa | 2.5V | 08:05:00 | 02:15:44 | 00:00:00 | |
| DO3MHA-11 | 2026-08-31 04:01:47 | 47.53157 | 12.95678 | 59° | 22km/h | 4691m | -3.3m/s | -5.2°C | 0% | 0hPa | 2.6V | 00:00:00 | 02:15:43 | 00:00:00 | |
| OE5MMP-10 | 2026-08-31 04:01:46 | 47.53154 | 12.95671 | 61° | 24km/h | 4694m | -3.2m/s | -5.2°C | 0% | 0hPa | 2.6V | 00:00:00 | 02:15:42 | 00:00:00 | |
| DO3MHA-12 | 2026-08-31 04:01:43 | 47.53146 | 12.95649 | 60° | 24km/h | 4703m | -3.2m/s | -5.2°C | 0% | 0hPa | 2.6V | 00:00:00 | 02:15:39 | 00:00:00 | |
| DO3MHA-11 | 2026-08-31 04:01:42 | 47.53143 | 12.95641 | 61° | 22km/h | 4707m | -3.1m/s | -5.2°C | 0% | 0hPa | 2.6V | 00:00:00 | 02:15:38 | 00:00:00 | |
| PG1ADW-2 | 2026-08-31 04:01:39 | 47.53134 | 12.95619 | 58° | 24km/h | 4716m | -3.0m/s | -5.3°C | 0% | 0hPa | 2.5V | 00:00:00 | 00:00:00 | 00:00:00 | |
| DO3MHA-12 | 2026-08-31 04:01:38 | 47.53130 | 12.95612 | 60° | 24km/h | 4719m | -3.0m/s | -5.3°C | 0% | 0hPa | 2.5V | 00:00:00 | 02:15:34 | 00:00:00 | |
| DO3MHA-11 | 2026-08-31 04:01:37 | 47.53127 | 12.95605 | 58° | 24km/h | 4722m | -3.0m/s | -5.3°C | 0% | 0hPa | 2.5V | 00:00:00 | 02:15:33 | 00:00:00 | |
| DO3MHA-12 | 2026-08-31 04:01:33 | 47.53114 | 12.95575 | 56° | 24km/h | 4735m | -3.3m/s | -5.3°C | 0% | 0hPa | 2.5V | 00:00:00 | 02:15:29 | 00:00:00 | |
| DO3MHA-11 | 2026-08-31 04:01:32 | 47.53111 | 12.95568 | 57° | 24km/h | 4738m | -3.2m/s | -5.4°C | 0% | 0hPa | 2.5V | 00:00:00 | 02:15:28 | 00:00:00 | |
| OE3JTB-15 | 2026-08-31 04:01:30 | 47.53104 | 12.95553 | 57° | 24km/h | 4745m | -3.4m/s | -5.4°C | 0% | 0hPa | 2.5V | 00:00:00 | 02:15:26 | 00:00:00 | |
| DO3MHA-11 | 2026-08-31 04:01:27 | 47.53094 | 12.95530 | 55° | 24km/h | 4755m | -3.2m/s | -5.4°C | 0% | 0hPa | 2.5V | 00:00:00 | 02:15:23 | 00:00:00 | |
| DG1MFX-10 | 2026-08-31 04:01:26 | 47.53094 | 12.95530 | 56° | 24km/h | 4755m | -3.3m/s | -5.5°C | 112.4% | 0hPa | 2.6V | 08:06:00 | 00:00:00 | 00:00:00 | |
| DO3MHA-12 | 2026-08-31 04:01:23 | 47.53081 | 12.95501 | 55° | 24km/h | 4767m | -3.3m/s | -5.5°C | 0% | 0hPa | 2.6V | 00:00:00 | 02:15:19 | 00:00:00 | |
| DO3MHA-11 | 2026-08-31 04:01:22 | 47.53077 | 12.95494 | 54° | 24km/h | 4771m | -3.2m/s | -5.5°C | 0% | 0hPa | 2.6V | 00:00:00 | 02:15:18 | 00:00:00 | |
| PG1ADW-2 | 2026-08-31 04:01:19 | 47.53067 | 12.95472 | 53° | 24km/h | 4780m | -2.8m/s | -5.6°C | 0% | 0hPa | 2.6V | 08:06:00 | 00:00:00 | 00:00:00 | |
| DO3MHA-12 | 2026-08-31 04:01:18 | 47.53063 | 12.95465 | 56° | 24km/h | 4783m | -3.2m/s | -5.6°C | 0% | 0hPa | 2.6V | 00:00:00 | 02:15:14 | 00:00:00 | |
| DO3MHA-11 | 2026-08-31 04:01:17 | 47.53060 | 12.95457 | 57° | 24km/h | 4786m | -2.8m/s | -5.6°C | 0% | 0hPa | 2.6V | 00:00:00 | 02:15:13 | 00:00:00 | |
| DO3MHA-12 | 2026-08-31 04:01:13 | 47.53046 | 12.95426 | 59° | 24km/h | 4798m | -3.3m/s | -5.7°C | 0% | 0hPa | 2.6V | 00:00:00 | 02:15:09 | 00:00:00 | |
| DO3MHA-11 | 2026-08-31 04:01:12 | 47.53043 | 12.95418 | 59° | 24km/h | 4801m | -2.8m/s | -5.7°C | 0% | 0hPa | 2.6V | 08:06:00 | 02:15:08 | 00:00:00 | |
| OE5DRO-10 | 2026-08-31 04:01:11 | 47.53040 | 12.95410 | 59° | 26km/h | 4804m | -2.9m/s | -5.7°C | 0% | 0hPa | 2.6V | 00:00:00 | 00:00:00 | 00:00:00 | |
| DO3MHA-12 | 2026-08-31 04:01:08 | 47.53030 | 12.95387 | 57° | 24km/h | 4813m | -3.3m/s | -5.8°C | 0% | 0hPa | 2.6V | 00:00:00 | 02:15:04 | 00:00:00 | |
| OE5MMP-10 | 2026-08-31 04:01:07 | 47.53026 | 12.95380 | 56° | 26km/h | 4816m | -3.0m/s | -5.9°C | 0% | 0hPa | 2.6V | 00:00:00 | 02:15:03 | 00:00:00 | |
| DG1MFX-10 | 2026-08-31 04:01:06 | 47.53026 | 12.95380 | 56° | 26km/h | 4816m | -3.1m/s | -5.9°C | 113.9% | 0hPa | 2.6V | 08:06:00 | 00:00:00 | 00:00:00 | |
| DO3MHA-12 | 2026-08-31 04:01:03 | 47.53012 | 12.95349 | 60° | 26km/h | 4829m | -2.8m/s | -5.9°C | 0% | 0hPa | 2.6V | 08:06:00 | 02:14:59 | 00:00:00 | |
| DO3MHA-11 | 2026-08-31 04:01:02 | 47.53009 | 12.95341 | 60° | 26km/h | 4832m | -3.3m/s | -5.9°C | 0% | 0hPa | 2.5V | 00:00:00 | 02:14:58 | 00:00:00 | |
| OE3JTB-15 | 2026-08-31 04:01:01 | 47.53006 | 12.95333 | 61° | 27km/h | 4835m | -2.7m/s | -5.9°C | 0% | 0hPa | 2.5V | 00:00:00 | 00:00:00 | 00:00:00 | |
| PG1ADW-2 | 2026-08-31 04:00:59 | 47.53000 | 12.95317 | 63° | 27km/h | 4841m | -2.9m/s | -5.9°C | 0% | 0hPa | 2.5V | 00:00:00 | 00:00:00 | 00:00:00 | |
| DO3MHA-12 | 2026-08-31 04:00:58 | 47.52997 | 12.95308 | 64° | 27km/h | 4844m | -3.0m/s | -5.9°C | 0% | 0hPa | 2.5V | 00:00:00 | 02:14:54 | 00:00:00 | |
| OE5MMP-10 | 2026-08-31 04:00:57 | 47.52994 | 12.95299 | 64° | 27km/h | 4847m | -3.2m/s | -6.0°C | 0% | 0hPa | 2.5V | 00:00:00 | 02:14:53 | 00:00:00 | |
| OE5DRO-10 | 2026-08-31 04:00:55 | 47.52988 | 12.95282 | 65° | 27km/h | 4853m | -3.0m/s | -6.0°C | 0% | 0hPa | 2.5V | 00:00:00 | 00:00:00 | 00:00:00 | |
| OE5DXL-15 | 2026-08-31 04:00:53 | 47.52982 | 12.95263 | 65° | 29km/h | 4860m | -3.1m/s | -6.0°C | 0% | 0hPa | 2.5V | 00:00:00 | 00:00:00 | 00:00:00 | |
| DO3MHA-11 | 2026-08-31 04:00:52 | 47.52979 | 12.95253 | 66° | 29km/h | 4863m | -2.8m/s | -6.1°C | 0% | 0hPa | 2.5V | 00:00:00 | 02:14:48 | 00:00:00 | |
| DO3MHA-12 | 2026-08-31 04:00:48 | 47.52966 | 12.95215 | 65° | 27km/h | 4873m | -1.9m/s | -6.1°C | 0% | 0hPa | 2.5V | 00:00:00 | 02:14:44 | 00:00:00 | |
| OE5MMP-10 | 2026-08-31 04:00:47 | 47.52963 | 12.95205 | 62° | 29km/h | 4876m | -2.7m/s | -6.1°C | 0% | 0hPa | 2.5V | 00:00:00 | 02:14:43 | 00:00:00 | |
| DG1MFX-10 | 2026-08-31 04:00:45 | 47.52960 | 12.95196 | 60° | 27km/h | 4879m | -2.6m/s | -6.2°C | 119.3% | 0hPa | 2.6V | 08:06:00 | 00:00:00 | 00:00:00 | |
| DO3MHA-12 | 2026-08-31 04:00:43 | 47.52949 | 12.95169 | 62° | 29km/h | 4887m | -2.6m/s | -6.2°C | 0% | 0hPa | 2.6V | 00:00:00 | 02:14:39 | 00:00:00 | |
| DO3MHA-11 | 2026-08-31 04:00:42 | 47.52946 | 12.95160 | 60° | 29km/h | 4890m | -2.7m/s | -6.2°C | 0% | 0hPa | 2.6V | 00:00:00 | 02:14:38 | 00:00:00 | |
| PG1ADW-2 | 2026-08-31 04:00:39 | 47.52935 | 12.95132 | 60° | 29km/h | 4898m | -2.3m/s | -6.2°C | 0% | 0hPa | 2.5V | 00:00:00 | 02:14:35 | 00:00:00 | |
| DO3MHA-12 | 2026-08-31 04:00:38 | 47.52931 | 12.95123 | 58° | 29km/h | 4901m | -2.6m/s | -6.0°C | 0% | 0hPa | 2.5V | 00:00:00 | 02:14:34 | 00:00:00 | |
| DO3MHA-11 | 2026-08-31 04:00:37 | 47.52927 | 12.95114 | 62° | 29km/h | 4904m | -2.8m/s | -6.1°C | 0% | 0hPa | 2.5V | 00:00:00 | 02:14:33 | 00:00:00 | |
| DO3MHA-12 | 2026-08-31 04:00:33 | 47.52913 | 12.95075 | 62° | 29km/h | 4915m | -2.9m/s | -5.9°C | 0% | 0hPa | 2.5V | 00:00:00 | 02:14:29 | 00:00:00 | |
| DO3MHA-11 | 2026-08-31 04:00:32 | 47.52910 | 12.95065 | 66° | 29km/h | 4918m | -2.6m/s | -5.6°C | 0% | 0hPa | 2.5V | 00:00:00 | 02:14:28 | 00:00:00 | |
| OE5HKT-10 | 2026-08-31 04:00:31 | 47.52907 | 12.95054 | 65° | 29km/h | 4921m | -2.8m/s | -5.6°C | 0% | 0hPa | 2.5V | 00:00:00 | 02:14:27 | 00:00:00 | |
| DO3MHA-12 | 2026-08-31 04:00:28 | 47.52898 | 12.95024 | 68° | 27km/h | 4930m | -3.1m/s | -5.5°C | 0% | 0hPa | 2.5V | 00:00:00 | 02:14:24 | 00:00:00 | |
| DO3MHA-11 | 2026-08-31 04:00:27 | 47.52896 | 12.95015 | 72° | 27km/h | 4933m | -3.2m/s | -5.5°C | 0% | 0hPa | 2.5V | 08:06:00 | 02:14:23 | 00:00:00 | |
| DG1MFX-10 | 2026-08-31 04:00:25 | 47.52893 | 12.95005 | 69° | 27km/h | 4936m | -2.8m/s | -5.6°C | 126.4% | 0hPa | 2.5V | 08:06:00 | 00:00:00 | 00:00:00 | |
| OE5DXL-15 | 2026-08-31 04:00:23 | 47.52886 | 12.94976 | 68° | 31km/h | 4944m | -2.3m/s | -5.8°C | 0% | 0hPa | 2.5V | 00:00:00 | 00:00:00 | 00:00:00 | |
| DO3MHA-11 | 2026-08-31 04:00:22 | 47.52883 | 12.94966 | 67° | 29km/h | 4946m | -1.9m/s | -5.7°C | 0% | 0hPa | 2.6V | 00:00:00 | 02:14:18 | 00:00:00 | |
| BAUMI2-15 | 2026-08-31 04:00:21 | 47.52880 | 12.94956 | 65° | 27km/h | 4948m | -2.2m/s | -5.7°C | 0% | 0hPa | 2.6V | 00:00:00 | 02:14:17 | 00:00:00 | |
| PG1ADW-2 | 2026-08-31 04:00:19 | 47.52873 | 12.94938 | 65° | 29km/h | 4952m | -1.9m/s | -5.7°C | 0% | 0hPa | 2.6V | 00:00:00 | 00:00:00 | 00:00:00 | |
| DO3MHA-12 | 2026-08-31 04:00:18 | 47.52870 | 12.94928 | 63° | 29km/h | 4954m | -2.1m/s | -5.6°C | 0% | 0hPa | 2.6V | 08:07:00 | 02:14:14 | 00:00:00 | |
| DO3MHA-11 | 2026-08-31 04:00:17 | 47.52867 | 12.94918 | 66° | 31km/h | 4957m | -3.5m/s | -5.7°C | 0% | 0hPa | 2.5V | 00:00:00 | 02:14:13 | 00:00:00 | |
| OE5MMP-10 | 2026-08-31 04:00:16 | 47.52864 | 12.94908 | 70° | 29km/h | 4959m | -2.3m/s | -5.7°C | 0% | 0hPa | 2.5V | 00:00:00 | 02:14:12 | 00:00:00 | |
| DO3MHA-12 | 2026-08-31 04:00:13 | 47.52855 | 12.94876 | 71° | 29km/h | 4979m | -11.5m/s | -5.5°C | 0% | 0hPa | 2.5V | 00:00:00 | 02:14:09 | 00:00:00 | |
| DO3MHA-11 | 2026-08-31 04:00:12 | 47.52852 | 12.94866 | 68° | 29km/h | 4990m | -10.3m/s | -5.6°C | 0% | 0hPa | 2.5V | 00:00:00 | 02:14:08 | 00:00:00 | |
| OE5HKT-10 | 2026-08-31 04:00:11 | 47.52849 | 12.94856 | 66° | 31km/h | 5001m | -11.0m/s | -5.7°C | 0% | 0hPa | 2.5V | 08:07:00 | 00:00:00 | 00:00:00 | |
| BAUMI2-15 | 2026-08-31 04:00:10 | 47.52847 | 12.94846 | 69° | 29km/h | 5012m | -13.2m/s | -5.8°C | 0% | 0hPa | 2.5V | 00:00:00 | 02:14:06 | 00:00:00 | |
| DO3MHA-12 | 2026-08-31 04:00:08 | 47.52840 | 12.94826 | 69° | 31km/h | 5036m | -10.5m/s | -5.8°C | 0% | 0hPa | 2.6V | 00:00:00 | 02:14:04 | 00:00:00 | |
| OE5DRO-10 | 2026-08-31 04:00:07 | 47.52838 | 12.94816 | 65° | 31km/h | 5045m | -7.9m/s | -5.8°C | 0% | 0hPa | 2.6V | 00:00:00 | 00:00:00 | 00:00:00 | |
| OE5MMP-10 | 2026-08-31 04:00:06 | 47.52834 | 12.94805 | 66° | 31km/h | 5054m | -10.3m/s | -5.9°C | 0% | 0hPa | 2.6V | 00:00:00 | 02:14:02 | 00:00:00 | |
| DO3MHA-11 | 2026-08-31 04:00:05 | 47.52831 | 12.94795 | 67° | 31km/h | 5064m | -9.7m/s | -6.3°C | 0% | 0hPa | 2.6V | 00:00:00 | 02:14:01 | 00:00:00 | |
| DG1MFX-10 | 2026-08-31 04:00:04 | 47.52831 | 12.94795 | 68° | 29km/h | 5064m | -9.7m/s | -6.3°C | 113.0% | 0hPa | 2.6V | 00:00:00 | 00:00:00 | 00:00:00 | |
| OE3JTB-15 | 2026-08-31 04:00:03 | 47.52826 | 12.94774 | 74° | 33km/h | 5083m | -10.4m/s | -5.9°C | 0% | 0hPa | 2.6V | 00:00:00 | 02:13:59 | 00:00:00 | |
| BAUMI2-15 | 2026-08-31 04:00:00 | 47.52818 | 12.94742 | 70° | 31km/h | 5113m | -9.5m/s | -6.4°C | 0% | 0hPa | 2.6V | 00:00:00 | 02:13:56 | 00:00:00 | |
| PG1ADW-2 | 2026-08-31 03:59:59 | 47.52815 | 12.94731 | 67° | 33km/h | 5122m | -9.6m/s | -6.1°C | 0% | 0hPa | 2.6V | 00:00:00 | 00:00:00 | 00:00:00 | |
| DO3MHA-12 | 2026-08-31 03:59:58 | 47.52812 | 12.94721 | 66° | 33km/h | 5133m | -10.9m/s | -6.9°C | 0% | 0hPa | 2.6V | 00:00:00 | 02:13:54 | 00:00:00 | |
| OE5MMP-10 | 2026-08-31 03:59:56 | 47.52805 | 12.94698 | 65° | 33km/h | 5152m | -9.2m/s | -6.2°C | 0% | 0hPa | 2.6V | 00:00:00 | 02:13:52 | 00:00:00 | |
| DO3MHA-11 | 2026-08-31 03:59:55 | 47.52801 | 12.94687 | 64° | 31km/h | 5161m | -9.2m/s | -6.3°C | 0% | 0hPa | 2.6V | 00:00:00 | 02:13:51 | 00:00:00 | |
| OE5HKT-10 | 2026-08-31 03:59:54 | 47.52797 | 12.94676 | 67° | 33km/h | 5171m | -10.2m/s | -6.0°C | 0% | 0hPa | 2.6V | 00:00:00 | 00:00:00 | 00:00:00 | |
| OE5DXL-15 | 2026-08-31 03:59:53 | 47.52794 | 12.94665 | 66° | 35km/h | 5181m | -9.5m/s | -7.3°C | 0% | 0hPa | 2.6V | 00:00:00 | 00:00:00 | 00:00:00 | |
| BAUMI2-15 | 2026-08-31 03:59:52 | 47.52791 | 12.94654 | 65° | 31km/h | 5190m | -9.3m/s | -7.5°C | 0% | 0hPa | 2.6V | 00:00:00 | 02:13:48 | 00:00:00 | |
| OE5DRO-10 | 2026-08-31 03:59:51 | 47.52788 | 12.94643 | 67° | 33km/h | 5199m | -9.6m/s | -7.7°C | 0% | 0hPa | 2.6V | 00:00:00 | 00:00:00 | 00:00:00 | |
| DO3MHA-12 | 2026-08-31 03:59:48 | 47.52778 | 12.94610 | 67° | 33km/h | 5229m | -9.6m/s | -7.8°C | 0% | 0hPa | 2.6V | 00:00:00 | 02:13:44 | 00:00:00 | |
| DO3MHA-11 | 2026-08-31 03:59:45 | 47.52771 | 12.94577 | 73° | 33km/h | 5254m | -10.5m/s | -7.1°C | 0% | 0hPa | 2.6V | 00:00:00 | 02:13:41 | 00:00:00 | |
| BAUMI2-15 | 2026-08-31 03:59:44 | 47.52768 | 12.94564 | 75° | 35km/h | 5264m | -9.5m/s | -7.0°C | 0% | 0hPa | 2.5V | 08:07:00 | 02:13:40 | 00:00:00 | |
| OE5MMP-10 | 2026-08-31 03:59:43 | 47.52766 | 12.94552 | 73° | 33km/h | 5272m | -7.9m/s | -6.9°C | 0% | 0hPa | 2.5V | 08:07:00 | 02:13:39 | 00:00:00 | |
| PG1ADW-2 | 2026-08-31 03:59:39 | 47.52756 | 12.94503 | 78° | 37km/h | 5309m | -9.3m/s | -6.8°C | 0% | 0hPa | 2.5V | 00:00:00 | 00:00:00 | 00:00:00 | |
| DO3MHA-12 | 2026-08-31 03:59:38 | 47.52754 | 12.94491 | 74° | 35km/h | 5318m | -9.0m/s | -6.8°C | 0% | 0hPa | 2.5V | 00:00:00 | 02:13:34 | 00:00:00 | |
| OE5HKT-10 | 2026-08-31 03:59:37 | 47.52751 | 12.94479 | 73° | 37km/h | 5327m | -9.4m/s | -6.9°C | 0% | 0hPa | 2.5V | 00:00:00 | 02:13:33 | 00:00:00 | |
| DO3MHA-11 | 2026-08-31 03:59:35 | 47.52747 | 12.94455 | 75° | 37km/h | 5344m | -8.1m/s | -7.5°C | 0% | 0hPa | 2.5V | 00:00:00 | 02:13:31 | 00:00:00 | |
| OE3JTB-15 | 2026-08-31 03:59:34 | 47.52744 | 12.94443 | 73° | 40km/h | 5352m | -8.4m/s | -8.3°C | 0% | 0hPa | 2.5V | 08:07:00 | 00:00:00 | 00:00:00 | |
| OE5MMP-10 | 2026-08-31 03:59:33 | 47.52742 | 12.94432 | 73° | 38km/h | 5362m | -11.3m/s | -8.1°C | 0% | 0hPa | 2.5V | 00:00:00 | 02:13:29 | 00:00:00 | |
| DO3MHA-12 | 2026-08-31 03:59:28 | 47.52727 | 12.94364 | 70° | 42km/h | 5412m | -10.6m/s | -7.8°C | 0% | 0hPa | 2.5V | 00:00:00 | 02:13:24 | 00:00:00 | |
| BAUMI2-15 | 2026-08-31 03:59:27 | 47.52725 | 12.94351 | 75° | 38km/h | 5423m | -10.1m/s | -7.6°C | 0% | 0hPa | 2.6V | 00:00:00 | 02:13:23 | 00:00:00 | |
| DO3MHA-11 | 2026-08-31 03:59:25 | 47.52718 | 12.94324 | 68° | 42km/h | 5445m | -11.3m/s | -8.4°C | 0% | 0hPa | 2.6V | 00:00:00 | 02:13:21 | 00:00:00 | |
| OE5MMP-10 | 2026-08-31 03:59:23 | 47.52711 | 12.94297 | 70° | 42km/h | 5465m | -8.6m/s | -9.4°C | 0% | 0hPa | 2.6V | 00:00:00 | 02:13:19 | 00:00:00 | |
| BAUMI2-15 | 2026-08-31 03:59:22 | 47.52708 | 12.94283 | 69° | 42km/h | 5475m | -9.6m/s | -9.4°C | 0% | 0hPa | 2.6V | 00:00:00 | 02:13:18 | 00:00:00 | |
| OE5HKT-10 | 2026-08-31 03:59:20 | 47.52700 | 12.94255 | 69° | 44km/h | 5497m | -10.4m/s | -9.6°C | 0% | 0hPa | 2.6V | 00:00:00 | 00:00:00 | 00:00:00 | |
| OE5DRO-10 | 2026-08-31 03:59:19 | 47.52696 | 12.94240 | 73° | 44km/h | 5508m | -10.3m/s | -9.7°C | 0% | 0hPa | 2.5V | 00:00:00 | 00:00:00 | 00:00:00 | |
| BAUMI2-15 | 2026-08-31 03:59:17 | 47.52689 | 12.94209 | 72° | 42km/h | 5528m | -10.3m/s | -9.8°C | 0% | 0hPa | 2.5V | 00:00:00 | 02:13:13 | 00:00:00 | |
| DO3MHA-12 | 2026-08-31 03:59:16 | 47.52686 | 12.94194 | 72° | 42km/h | 5539m | -11.0m/s | -9.8°C | 0% | 0hPa | 2.5V | 00:00:00 | 02:13:12 | 00:00:00 | |
| DO3MHA-11 | 2026-08-31 03:59:15 | 47.52682 | 12.94179 | 71° | 42km/h | 5550m | -11.4m/s | -9.8°C | 0% | 0hPa | 2.5V | 08:08:00 | 02:13:11 | 00:00:00 | |
| OE5MMP-10 | 2026-08-31 03:59:13 | 47.52676 | 12.94148 | 77° | 44km/h | 5571m | -10.2m/s | -9.6°C | 0% | 0hPa | 2.6V | 00:00:00 | 02:13:09 | 00:00:00 | |
| BAUMI2-15 | 2026-08-31 03:59:12 | 47.52673 | 12.94133 | 75° | 42km/h | 5582m | -9.8m/s | -9.9°C | 0% | 0hPa | 2.6V | 00:00:00 | 02:13:08 | 00:00:00 | |
| DO3MHA-12 | 2026-08-31 03:59:06 | 47.52653 | 12.94041 | 75° | 46km/h | 5644m | -10.2m/s | -10.7°C | 0% | 0hPa | 2.6V | 00:00:00 | 02:13:02 | 00:00:00 | |
| DO3MHA-11 | 2026-08-31 03:59:05 | 47.52650 | 12.94025 | 71° | 46km/h | 5654m | -10.0m/s | -10.7°C | 0% | 0hPa | 2.6V | 00:00:00 | 02:13:01 | 00:00:00 | |
| OE5MMP-10 | 2026-08-31 03:59:03 | 47.52643 | 12.93992 | 73° | 46km/h | 5672m | -9.1m/s | -10.8°C | 0% | 0hPa | 2.6V | 00:00:00 | 02:12:59 | 00:00:00 | |
| PG1ADW-2 | 2026-08-31 03:58:59 | 47.52631 | 12.93928 | 74° | 47km/h | 5712m | -11.1m/s | -11.0°C | 0% | 0hPa | 2.6V | 00:00:00 | 00:00:00 | 00:00:00 | |
| DO3MHA-12 | 2026-08-31 03:58:56 | 47.52621 | 12.93879 | 77° | 47km/h | 5744m | -9.5m/s | -11.3°C | 0% | 0hPa | 2.6V | 08:08:00 | 02:12:52 | 00:00:00 | |
| DO3MHA-11 | 2026-08-31 03:58:55 | 47.52618 | 12.93862 | 74° | 47km/h | 5754m | -10.5m/s | -11.3°C | 0% | 0hPa | 2.6V | 00:00:00 | 02:12:51 | 00:00:00 | |
| OE5DXL-15 | 2026-08-31 03:58:53 | 47.52611 | 12.93829 | 72° | 51km/h | 5774m | -9.5m/s | -11.5°C | 0% | 0hPa | 2.6V | 00:00:00 | 00:00:00 | 00:00:00 | |
| OE5DRO-10 | 2026-08-31 03:58:47 | 47.52590 | 12.93724 | 77° | 49km/h | 5839m | -11.1m/s | -12.0°C | 0% | 0hPa | 2.6V | 00:00:00 | 00:00:00 | 00:00:00 | |
| DO3MHA-12 | 2026-08-31 03:58:46 | 47.52587 | 12.93706 | 76° | 49km/h | 5849m | -9.9m/s | -12.1°C | 0% | 0hPa | 2.6V | 00:00:00 | 02:12:42 | 00:00:00 | |
| DO3MHA-11 | 2026-08-31 03:58:45 | 47.52584 | 12.93689 | 73° | 49km/h | 5859m | -10.0m/s | -12.1°C | 0% | 0hPa | 2.6V | 00:00:00 | 02:12:41 | 00:00:00 | |
| DB0NH | 2026-08-31 03:58:40 | 47.52566 | 12.93602 | 73° | 58km/h | 5909m | -11.1m/s | -12.4°C | 99.3% | 0hPa | 2.6V | 00:00:00 | 02:12:36 | 00:00:00 | |
| PG1ADW-2 | 2026-08-31 03:58:39 | 47.52562 | 12.93584 | 73° | 55km/h | 5920m | -10.5m/s | -12.4°C | 95.0% | 0hPa | 2.5V | 00:00:00 | 00:00:00 | 00:00:00 | |
| DO3MHA-12 | 2026-08-31 03:58:36 | 47.52549 | 12.93530 | 74° | 55km/h | 5950m | -10.2m/s | -12.6°C | 95.6% | 0hPa | 2.5V | 00:00:00 | 02:12:32 | 00:00:00 | |
| DO3MHA-11 | 2026-08-31 03:58:35 | 47.52545 | 12.93512 | 72° | 55km/h | 5960m | -9.1m/s | -12.7°C | 96.3% | 0hPa | 2.5V | 00:00:00 | 02:12:31 | 00:00:00 | |
| OE5MMP-10 | 2026-08-31 03:58:33 | 47.52537 | 12.93476 | 72° | 57km/h | 5980m | -10.9m/s | -12.9°C | 98.5% | 0hPa | 2.5V | 00:00:00 | 02:12:29 | 00:00:00 | |
| OE5DRO-10 | 2026-08-31 03:58:31 | 47.52529 | 12.93438 | 72° | 60km/h | 6001m | -10.1m/s | -13.1°C | 0% | 0hPa | 2.5V | 00:00:00 | 00:00:00 | 00:00:00 | |
| OE5HKT-10 | 2026-08-31 03:58:29 | 47.52520 | 12.93398 | 72° | 60km/h | 6022m | -11.4m/s | -13.3°C | 0% | 0hPa | 2.5V | 00:00:00 | 00:00:00 | 00:00:00 | |
| DO3MHA-12 | 2026-08-31 03:58:26 | 47.52506 | 12.93337 | 69° | 60km/h | 6053m | -10.0m/s | -13.5°C | 0% | 0hPa | 2.6V | 00:00:00 | 02:12:22 | 00:00:00 | |
| DO3MHA-11 | 2026-08-31 03:58:25 | 47.52500 | 12.93316 | 70° | 60km/h | 6063m | -10.0m/s | -13.6°C | 0% | 0hPa | 2.6V | 00:00:00 | 02:12:21 | 00:00:00 | |
| OE5DXL-15 | 2026-08-31 03:58:23 | 47.52489 | 12.93274 | 69° | 68km/h | 6084m | -10.5m/s | -13.1°C | 83.2% | 0hPa | 2.6V | 00:00:00 | 00:00:00 | 00:00:00 | |
| PG1ADW-2 | 2026-08-31 03:58:19 | 47.52465 | 12.93191 | 68° | 68km/h | 6126m | -9.9m/s | -12.2°C | 56.7% | 0hPa | 2.6V | 08:09:00 | 00:00:00 | 00:00:00 | |
| DO3MHA-12 | 2026-08-31 03:58:16 | 47.52445 | 12.93129 | 66° | 66km/h | 6156m | -11.0m/s | -12.0°C | 45.9% | 0hPa | 2.5V | 00:00:00 | 02:12:12 | 00:00:00 | |
| DO3MHA-11 | 2026-08-31 03:58:15 | 47.52438 | 12.93107 | 68° | 68km/h | 6166m | -10.2m/s | -11.5°C | 35.4% | 0hPa | 2.5V | 00:00:00 | 02:12:11 | 00:00:00 | |
| OE5MMP-10 | 2026-08-31 03:58:13 | 47.52426 | 12.93063 | 67° | 68km/h | 6189m | -11.4m/s | -11.3°C | 23.9% | 0hPa | 2.6V | 08:09:00 | 02:12:09 | 00:00:00 | |
| OE5HKT-10 | 2026-08-31 03:58:12 | 47.52419 | 12.93040 | 65° | 69km/h | 6200m | -10.7m/s | -11.4°C | 25.4% | 0hPa | 2.5V | 00:00:00 | 00:00:00 | 00:00:00 | |
| DG1MFX-10 | 2026-08-31 03:58:11 | 47.52419 | 12.93040 | 66° | 64km/h | 6200m | -10.8m/s | -11.5°C | 24.2% | 0hPa | 2.5V | 08:09:00 | 00:00:00 | 00:00:00 | |
| DB0NH | 2026-08-31 03:58:10 | 47.52405 | 12.92995 | 66° | 71km/h | 6221m | -11.2m/s | -11.7°C | 27.8% | 0hPa | 2.5V | 00:00:00 | 02:12:06 | 00:00:00 | |
| OE3JTB-15 | 2026-08-31 03:58:07 | 47.52386 | 12.92924 | 69° | 71km/h | 6257m | -13.1m/s | -11.9°C | 22.0% | 0hPa | 2.5V | 00:00:00 | 00:00:00 | 00:00:00 | |
| DO3MHA-12 | 2026-08-31 03:58:06 | 47.52379 | 12.92899 | 70° | 71km/h | 6270m | -12.2m/s | -11.8°C | 17.5% | 0hPa | 2.5V | 00:00:00 | 02:12:02 | 00:00:00 | |
| DO3MHA-11 | 2026-08-31 03:58:05 | 47.52373 | 12.92875 | 70° | 71km/h | 6282m | -12.1m/s | -11.9°C | 18.4% | 0hPa | 2.5V | 00:00:00 | 02:12:01 | 00:00:00 | |
| OE5MMP-10 | 2026-08-31 03:58:03 | 47.52359 | 12.92825 | 68° | 71km/h | 6304m | -11.2m/s | -12.1°C | 18.1% | 0hPa | 2.5V | 00:00:00 | 02:11:59 | 00:00:00 | |
| PG1ADW-2 | 2026-08-31 03:57:59 | 47.52332 | 12.92727 | 68° | 73km/h | 6347m | -9.6m/s | -12.5°C | 29.0% | 0hPa | 2.5V | 00:00:00 | 02:11:55 | 00:00:00 | |
| DO3MHA-12 | 2026-08-31 03:57:56 | 47.52310 | 12.92654 | 67° | 73km/h | 6378m | -10.8m/s | -12.7°C | 29.4% | 0hPa | 2.5V | 00:00:00 | 02:11:52 | 00:00:00 | |
| DO3MHA-11 | 2026-08-31 03:57:55 | 47.52303 | 12.92629 | 67° | 73km/h | 6388m | -10.7m/s | -12.8°C | 29.1% | 0hPa | 2.5V | 00:00:00 | 02:11:51 | 00:00:00 | |
| OE5MMP-10 | 2026-08-31 03:57:53 | 47.52288 | 12.92579 | 67° | 73km/h | 6410m | -10.7m/s | -13.0°C | 29.3% | 0hPa | 2.5V | 00:00:00 | 02:11:49 | 00:00:00 | |
| DG1MFX-10 | 2026-08-31 03:57:50 | 47.52272 | 12.92529 | 66° | 73km/h | 6429m | -10.1m/s | -13.2°C | 28.2% | 0hPa | 2.5V | 08:09:00 | 00:00:00 | 00:00:00 | |
| DO3MHA-12 | 2026-08-31 03:57:46 | 47.52234 | 12.92405 | 65° | 73km/h | 6481m | -11.4m/s | -13.6°C | 29.6% | 0hPa | 2.5V | 00:00:00 | 02:11:42 | 00:00:00 | |
| DO3MHA-11 | 2026-08-31 03:57:45 | 47.52226 | 12.92380 | 66° | 73km/h | 6492m | -11.1m/s | -13.7°C | 29.6% | 0hPa | 2.5V | 08:09:00 | 02:11:41 | 00:00:00 | |
| OE5MMP-10 | 2026-08-31 03:57:43 | 47.52211 | 12.92330 | 66° | 71km/h | 6514m | -11.4m/s | -13.9°C | 29.8% | 0hPa | 2.6V | 00:00:00 | 02:11:39 | 00:00:00 | |
| DB0NH | 2026-08-31 03:57:40 | 47.52188 | 12.92257 | 65° | 71km/h | 6546m | -10.7m/s | -14.2°C | 29.9% | 0hPa | 2.6V | 00:00:00 | 02:11:36 | 00:00:00 | |
| PG1ADW-2 | 2026-08-31 03:57:39 | 47.52180 | 12.92232 | 65° | 71km/h | 6556m | -11.3m/s | -14.3°C | 29.6% | 0hPa | 2.6V | 00:00:00 | 00:00:00 | 00:00:00 | |
| OE3JTB-15 | 2026-08-31 03:57:38 | 47.52172 | 12.92208 | 66° | 71km/h | 6567m | -10.1m/s | -14.4°C | 29.4% | 0hPa | 2.6V | 00:00:00 | 00:00:00 | 00:00:00 | |
| DO3MHA-12 | 2026-08-31 03:57:36 | 47.52158 | 12.92159 | 65° | 69km/h | 6587m | -10.9m/s | -14.4°C | 25.3% | 0hPa | 2.6V | 00:00:00 | 02:11:32 | 00:00:00 | |
| DO3MHA-11 | 2026-08-31 03:57:35 | 47.52150 | 12.92136 | 64° | 69km/h | 6598m | -10.1m/s | -14.5°C | 24.6% | 0hPa | 2.6V | 00:00:00 | 02:11:31 | 00:00:00 | |
| OE5MMP-10 | 2026-08-31 03:57:33 | 47.52134 | 12.92089 | 64° | 71km/h | 6618m | -10.2m/s | -14.6°C | 23.8% | 0hPa | 2.6V | 00:00:00 | 02:11:29 | 00:00:00 | |
| DG1MFX-10 | 2026-08-31 03:57:29 | 47.52111 | 12.92019 | 65° | 71km/h | 6651m | -11.3m/s | -14.7°C | 17.9% | 0hPa | 2.6V | 08:10:00 | 00:00:00 | 00:00:00 | |
| DO3MHA-12 | 2026-08-31 03:57:26 | 47.52082 | 12.91921 | 67° | 71km/h | 6692m | -10.6m/s | -14.8°C | 13.9% | 0hPa | 2.6V | 08:09:00 | 02:11:22 | 00:00:00 | |
| DO3MHA-11 | 2026-08-31 03:57:25 | 47.52075 | 12.91897 | 66° | 71km/h | 6703m | -10.3m/s | -14.8°C | 13.3% | 0hPa | 2.5V | 00:00:00 | 02:11:21 | 00:00:00 | |
| OE5DRO-10 | 2026-08-31 03:57:24 | 47.52068 | 12.91873 | 66° | 71km/h | 6714m | -11.9m/s | -14.9°C | 12.9% | 0hPa | 2.5V | 00:00:00 | 00:00:00 | 00:00:00 | |
| OE5MMP-10 | 2026-08-31 03:57:23 | 47.52060 | 12.91849 | 66° | 71km/h | 6725m | -11.0m/s | -15.0°C | 12.3% | 0hPa | 2.6V | 00:00:00 | 02:11:19 | 00:00:00 | |
| OE5HKT-10 | 2026-08-31 03:57:21 | 47.52045 | 12.91800 | 67° | 71km/h | 6746m | -10.0m/s | -15.1°C | 10.9% | 0hPa | 2.6V | 00:00:00 | 00:00:00 | 00:00:00 | |
| PG1ADW-2 | 2026-08-31 03:57:19 | 47.52030 | 12.91753 | 64° | 71km/h | 6767m | -10.0m/s | -15.1°C | 9.1% | 0hPa | 2.6V | 00:00:00 | 00:00:00 | 00:00:00 | |
| NBG1-10 | 2026-08-31 03:57:17 | 47.52015 | 12.91705 | 65° | 73km/h | 6788m | -10.4m/s | -15.1°C | 8.6% | 0hPa | 2.5V | 00:00:00 | 02:11:13 | 00:00:00 | |
| DO3MHA-12 | 2026-08-31 03:57:16 | 47.52007 | 12.91681 | 65° | 71km/h | 6798m | -10.4m/s | -15.2°C | 8.6% | 0hPa | 2.6V | 00:00:00 | 02:11:12 | 00:00:00 | |
| DO3MHA-11 | 2026-08-31 03:57:15 | 47.51999 | 12.91656 | 65° | 71km/h | 6809m | -10.5m/s | -15.3°C | 8.6% | 0hPa | 2.6V | 00:00:00 | 02:11:11 | 00:00:00 | |
| OE5MMP-10 | 2026-08-31 03:57:13 | 47.51983 | 12.91608 | 65° | 71km/h | 6831m | -10.6m/s | -15.5°C | 8.6% | 0hPa | 2.5V | 00:00:00 | 02:11:09 | 00:00:00 | |
| DB0NH | 2026-08-31 03:57:10 | 47.51959 | 12.91537 | 63° | 75km/h | 6863m | -10.8m/s | -15.7°C | 8.6% | 0hPa | 2.6V | 00:00:00 | 02:11:06 | 00:00:00 | |
| OE3JTB-15 | 2026-08-31 03:57:09 | 47.51951 | 12.91514 | 63° | 73km/h | 6874m | -11.1m/s | -15.8°C | 8.5% | 0hPa | 2.6V | 00:00:00 | 02:11:05 | 00:00:00 | |
| DO3MHA-12 | 2026-08-31 03:57:06 | 47.51926 | 12.91441 | 65° | 73km/h | 6907m | -11.4m/s | -16.0°C | 8.9% | 0hPa | 2.6V | 00:00:00 | 02:11:02 | 00:00:00 | |
| DO3MHA-11 | 2026-08-31 03:57:05 | 47.51918 | 12.91417 | 65° | 73km/h | 6918m | -10.5m/s | -16.1°C | 9.3% | 0hPa | 2.6V | 00:00:00 | 02:11:01 | 00:00:00 | |
| OE5HKT-10 | 2026-08-31 03:57:00 | 47.51877 | 12.91295 | 64° | 73km/h | 6972m | -11.9m/s | -16.4°C | 10.5% | 0hPa | 2.6V | 00:00:00 | 02:10:56 | 00:00:00 | |
| PG1ADW-2 | 2026-08-31 03:56:59 | 47.51869 | 12.91271 | 66° | 73km/h | 6984m | -10.5m/s | -16.5°C | 10.0% | 0hPa | 2.6V | 00:00:00 | 00:00:00 | 00:00:00 | |
| DO3MHA-12 | 2026-08-31 03:56:56 | 47.51847 | 12.91197 | 65° | 73km/h | 7018m | -11.1m/s | -16.8°C | 9.7% | 0hPa | 2.6V | 00:00:00 | 02:10:52 | 00:00:00 | |
| OE5DXL-15 | 2026-08-31 03:56:53 | 47.51823 | 12.91123 | 65° | 73km/h | 7051m | -11.2m/s | -17.1°C | 10.8% | 0hPa | 2.5V | 00:00:00 | 00:00:00 | 00:00:00 | |
| OE5DRO-10 | 2026-08-31 03:56:49 | 47.51792 | 12.91024 | 66° | 73km/h | 7096m | -11.1m/s | -17.4°C | 11.3% | 0hPa | 2.5V | 00:00:00 | 00:00:00 | 00:00:00 | |
| DG1MFX-10 | 2026-08-31 03:56:48 | 47.51791 | 12.91024 | 67° | 73km/h | 7096m | -11.1m/s | -17.4°C | 10.4% | 0hPa | 2.5V | 08:11:00 | 00:00:00 | 00:00:00 | |
| DO3MHA-12 | 2026-08-31 03:56:46 | 47.51769 | 12.90949 | 66° | 73km/h | 7129m | -10.4m/s | -17.6°C | 12.3% | 0hPa | 2.5V | 00:00:00 | 02:10:42 | 00:00:00 | |
| DO3MHA-11 | 2026-08-31 03:56:45 | 47.51762 | 12.90925 | 66° | 73km/h | 7140m | -10.6m/s | -17.7°C | 13.0% | 0hPa | 2.5V | 00:00:00 | 02:10:41 | 00:00:00 | |
| NBG1-10 | 2026-08-31 03:56:44 | 47.51754 | 12.90900 | 66° | 73km/h | 7151m | -11.8m/s | -17.8°C | 13.4% | 0hPa | 2.5V | 00:00:00 | 02:10:40 | 00:00:00 | |
| OE5MMP-10 | 2026-08-31 03:56:43 | 47.51747 | 12.90875 | 68° | 73km/h | 7162m | -11.0m/s | -17.9°C | 13.8% | 0hPa | 2.5V | 08:10:00 | 02:10:39 | 00:00:00 | |
| OE5WHR-10 | 2026-08-31 03:56:40 | 47.51724 | 12.90802 | 66° | 88km/h | 7196m | -11.4m/s | -18.2°C | 14.4% | 0hPa | 2.5V | 00:00:00 | 00:00:00 | 00:00:00 | |
| OE5HKT-10 | 2026-08-31 03:56:39 | 47.51717 | 12.90777 | 66° | 73km/h | 7208m | -11.5m/s | -18.3°C | 14.7% | 0hPa | 2.5V | 00:00:00 | 00:00:00 | 00:00:00 | |
| BAUMI2-15 | 2026-08-31 03:56:38 | 47.51709 | 12.90753 | 68° | 73km/h | 7219m | -9.9m/s | -18.4°C | 15.1% | 0hPa | 2.5V | 00:00:00 | 02:10:34 | 00:00:00 | |
| DO3MHA-12 | 2026-08-31 03:56:36 | 47.51694 | 12.90703 | 68° | 73km/h | 7241m | -11.3m/s | -18.6°C | 15.6% | 0hPa | 2.5V | 00:00:00 | 02:10:32 | 00:00:00 | |
| DO3MHA-11 | 2026-08-31 03:56:35 | 47.51687 | 12.90677 | 68° | 73km/h | 7251m | -10.3m/s | -18.7°C | 16.1% | 0hPa | 2.5V | 00:00:00 | 02:10:31 | 00:00:00 | |
| OE5MMP-10 | 2026-08-31 03:56:33 | 47.51673 | 12.90627 | 68° | 73km/h | 7273m | -11.8m/s | -18.9°C | 16.9% | 0hPa | 2.5V | 00:00:00 | 02:10:29 | 00:00:00 | |
| DG1MFX-10 | 2026-08-31 03:56:28 | 47.51643 | 12.90526 | 68° | 75km/h | 7318m | -11.7m/s | -19.4°C | 16.2% | 0hPa | 2.5V | 08:11:00 | 00:00:00 | 00:00:00 | |
| DO3MHA-12 | 2026-08-31 03:56:26 | 47.51623 | 12.90449 | 68° | 80km/h | 7350m | -10.7m/s | -19.7°C | 18.0% | 0hPa | 2.5V | 00:00:00 | 02:10:22 | 00:00:00 | |
| DO3MHA-11 | 2026-08-31 03:56:25 | 47.51616 | 12.90423 | 68° | 75km/h | 7360m | -11.1m/s | -19.7°C | 17.8% | 0hPa | 2.6V | 00:00:00 | 02:10:21 | 00:00:00 | |
| OE5DXL-15 | 2026-08-31 03:56:23 | 47.51601 | 12.90372 | 69° | 77km/h | 7383m | -11.7m/s | -19.9°C | 17.3% | 0hPa | 2.6V | 00:00:00 | 00:00:00 | 00:00:00 | |
| PG1ADW-2 | 2026-08-31 03:56:19 | 47.51571 | 12.90269 | 67° | 77km/h | 7430m | -12.5m/s | -20.3°C | 17.2% | 0hPa | 2.6V | 00:00:00 | 00:00:00 | 00:00:00 | |
| OE5HKT-10 | 2026-08-31 03:56:18 | 47.51564 | 12.90243 | 70° | 77km/h | 7441m | -11.1m/s | -20.4°C | 17.2% | 0hPa | 2.5V | 00:00:00 | 00:00:00 | 00:00:00 | |
| DO3MHA-11 | 2026-08-31 03:56:15 | 47.51542 | 12.90166 | 67° | 78km/h | 7474m | -11.6m/s | -20.7°C | 17.5% | 0hPa | 2.5V | 08:11:00 | 02:10:11 | 00:00:00 | |
| OE5DRO-10 | 2026-08-31 03:56:14 | 47.51535 | 12.90140 | 68° | 77km/h | 7485m | -11.1m/s | -20.8°C | 17.6% | 0hPa | 2.5V | 00:00:00 | 00:00:00 | 00:00:00 | |
| OE5MMP-10 | 2026-08-31 03:56:13 | 47.51528 | 12.90114 | 68° | 77km/h | 7496m | -11.8m/s | -20.9°C | 17.6% | 0hPa | 2.5V | 00:00:00 | 02:10:09 | 00:00:00 | |
| BAUMI2-15 | 2026-08-31 03:56:11 | 47.51513 | 12.90062 | 67° | 77km/h | 7519m | -11.0m/s | -21.1°C | 17.7% | 0hPa | 2.5V | 08:11:00 | 02:10:07 | 00:00:00 | |
| DB0NH | 2026-08-31 03:56:09 | 47.51498 | 12.90009 | 69° | 80km/h | 7541m | -10.5m/s | -21.2°C | 17.7% | 0hPa | 2.5V | 00:00:00 | 02:10:05 | 00:00:00 | |
| DG1MFX-10 | 2026-08-31 03:56:07 | 47.51490 | 12.89983 | 70° | 77km/h | 7551m | -10.7m/s | -21.4°C | 16.4% | 0hPa | 2.5V | 08:11:00 | 00:00:00 | 00:00:00 | |
| OE5MMP-10 | 2026-08-31 03:56:03 | 47.51453 | 12.89851 | 67° | 80km/h | 7606m | -11.2m/s | -21.8°C | 18.0% | 0hPa | 2.5V | 00:00:00 | 02:09:59 | 00:00:00 | |
| DL6DJ-15 | 2026-08-31 03:55:52 | 47.51358 | 12.89519 | 67° | 82km/h | 7741m | -11.6m/s | -22.9°C | 15.9% | -1.0hPa | 2.5V | 00:00:00 | 00:00:00 | 00:00:00 | |
| BAUMI2-15 | 2026-08-31 03:55:47 | 47.51327 | 12.89406 | 67° | 82km/h | 7788m | -11.6m/s | -23.2°C | 17.0% | 0hPa | 2.5V | 00:00:00 | 02:09:43 | 00:00:00 | |
| DG1MFX-10 | 2026-08-31 03:55:46 | 47.51327 | 12.89406 | 67° | 80km/h | 7788m | -11.7m/s | -23.2°C | 15.5% | 0hPa | 2.6V | 08:12:00 | 00:00:00 | 00:00:00 | |
| DO3MHA-11 | 2026-08-31 03:55:44 | 47.51303 | 12.89320 | 68° | 82km/h | 7821m | -12.1m/s | -23.5°C | 17.2% | 0hPa | 2.6V | 00:00:00 | 02:09:40 | 00:00:00 | |
| OE5MMP-10 | 2026-08-31 03:55:43 | 47.51295 | 12.89291 | 69° | 82km/h | 7833m | -11.9m/s | -23.6°C | 17.3% | 0hPa | 2.6V | 00:00:00 | 02:09:39 | 00:00:00 | |
| BAUMI2-15 | 2026-08-31 03:55:42 | 47.51288 | 12.89262 | 69° | 82km/h | 7845m | -10.8m/s | -23.7°C | 17.4% | 0hPa | 2.6V | 00:00:00 | 02:09:38 | 00:00:00 | |
| DB0NH | 2026-08-31 03:55:39 | 47.51265 | 12.89178 | 68° | 88km/h | 7876m | -11.4m/s | -24.0°C | 17.4% | 0hPa | 2.6V | 00:00:00 | 02:09:35 | 00:00:00 | |
| NBG1-10 | 2026-08-31 03:55:38 | 47.51257 | 12.89150 | 68° | 89km/h | 7888m | -12.1m/s | -24.1°C | 17.2% | 0hPa | 2.6V | 00:00:00 | 02:09:34 | 00:00:00 | |
| BAUMI2-15 | 2026-08-31 03:55:36 | 47.51242 | 12.89092 | 69° | 84km/h | 7912m | -11.5m/s | -24.2°C | 16.1% | 0hPa | 2.5V | 00:00:00 | 02:09:32 | 00:00:00 | |
| DO3MHA-11 | 2026-08-31 03:55:34 | 47.51227 | 12.89033 | 72° | 86km/h | 7935m | -10.1m/s | -24.2°C | 13.5% | 0hPa | 2.5V | 00:00:00 | 02:09:30 | 00:00:00 | |
| OE5MMP-10 | 2026-08-31 03:55:33 | 47.51221 | 12.89003 | 72° | 86km/h | 7946m | -12.1m/s | -24.2°C | 11.5% | 0hPa | 2.5V | 00:00:00 | 02:09:29 | 00:00:00 | |
| BAUMI2-15 | 2026-08-31 03:55:30 | 47.51200 | 12.88913 | 71° | 88km/h | 7982m | -12.2m/s | -24.5°C | 11.2% | 0hPa | 2.5V | 00:00:00 | 02:09:26 | 00:00:00 | |
| DG1MFX-10 | 2026-08-31 03:55:25 | 47.51172 | 12.88789 | 74° | 88km/h | 8031m | -12.1m/s | -24.7°C | 10.1% | 0hPa | 2.4V | 08:12:00 | 00:00:00 | 00:00:00 | |
| BAUMI2-15 | 2026-08-31 03:55:24 | 47.51159 | 12.88727 | 74° | 88km/h | 8055m | -12.0m/s | -24.7°C | 11.1% | 0hPa | 2.4V | 00:00:00 | 02:09:20 | 00:00:00 | |
| OE5DXL-15 | 2026-08-31 03:55:23 | 47.51153 | 12.88696 | 74° | 97km/h | 8067m | -11.1m/s | -24.8°C | 11.1% | 0hPa | 2.4V | 00:00:00 | 00:00:00 | 00:00:00 | |
| DO3MHA-11 | 2026-08-31 03:55:21 | 47.51140 | 12.88634 | 73° | 91km/h | 8088m | -11.0m/s | -25.0°C | 11.0% | 0hPa | 2.4V | 00:00:00 | 02:09:17 | 00:00:00 | |
| PG1ADW-2 | 2026-08-31 03:55:19 | 47.51127 | 12.88570 | 74° | 97km/h | 8110m | -11.8m/s | -25.1°C | 11.1% | 0hPa | 2.4V | 08:12:00 | 02:09:15 | 00:00:00 | |
| BAUMI2-15 | 2026-08-31 03:55:18 | 47.51121 | 12.88538 | 75° | 95km/h | 8122m | -11.6m/s | -25.2°C | 11.1% | 0hPa | 2.4V | 00:00:00 | 02:09:14 | 00:00:00 | |
| DO3MHA-12 | 2026-08-31 03:55:17 | 47.51115 | 12.88505 | 76° | 95km/h | 8133m | -10.9m/s | -25.2°C | 10.9% | 0hPa | 2.4V | 00:00:00 | 02:09:13 | 00:00:00 | |
| OE5HKT-10 | 2026-08-31 03:55:15 | 47.51103 | 12.88438 | 76° | 100km/h | 8156m | -11.7m/s | -25.3°C | 10.5% | 0hPa | 2.4V | 00:00:00 | 00:00:00 | 00:00:00 | |
| OE5MMP-10 | 2026-08-31 03:55:13 | 47.51092 | 12.88370 | 78° | 99km/h | 8181m | -12.1m/s | -25.4°C | 10.4% | 0hPa | 2.4V | 08:12:00 | 02:09:09 | 00:00:00 | |
| DO3MHA-11 | 2026-08-31 03:55:11 | 47.51081 | 12.88301 | 77° | 99km/h | 8202m | -11.0m/s | -25.6°C | 10.6% | 0hPa | 2.5V | 00:00:00 | 02:09:07 | 00:00:00 | |
| DB0NH | 2026-08-31 03:55:09 | 47.51070 | 12.88230 | 78° | 102km/h | 8224m | -10.7m/s | -25.8°C | 10.7% | 0hPa | 2.5V | 08:12:00 | 02:09:05 | 00:00:00 | |
| DO3MHA-12 | 2026-08-31 03:55:07 | 47.51060 | 12.88158 | 78° | 102km/h | 8247m | -11.9m/s | -25.8°C | 10.7% | 0hPa | 2.6V | 00:00:00 | 02:09:03 | 00:00:00 | |
| BAUMI2-15 | 2026-08-31 03:55:05 | 47.51049 | 12.88084 | 80° | 100km/h | 8272m | -12.0m/s | -26.0°C | 11.2% | 0hPa | 2.6V | 00:00:00 | 02:09:01 | 00:00:00 | |
| OE5MMP-10 | 2026-08-31 03:55:03 | 47.51040 | 12.88010 | 80° | 102km/h | 8296m | -12.3m/s | -26.0°C | 12.1% | 0hPa | 2.6V | 00:00:00 | 02:08:59 | 00:00:00 | |
| DL6DJ-15 | 2026-08-31 03:54:49 | 47.50971 | 12.87477 | 78° | 102km/h | 8458m | -10.4m/s | -27.3°C | 22.7% | -1.0hPa | 2.6V | 00:00:00 | 00:00:00 | 00:00:00 | |
| DO3MHA-12 | 2026-08-31 03:54:47 | 47.50960 | 12.87401 | 79° | 100km/h | 8481m | -12.6m/s | -27.5°C | 26.4% | 0hPa | 2.6V | 00:00:00 | 02:08:43 | 00:00:00 | |
| OE3JTB-15 | 2026-08-31 03:54:44 | 47.50944 | 12.87290 | 78° | 100km/h | 8516m | -11.2m/s | -27.8°C | 28.2% | 0hPa | 2.6V | 00:00:00 | 00:00:00 | 00:00:00 | |
| OE5MMP-10 | 2026-08-31 03:54:43 | 47.50939 | 12.87253 | 78° | 99km/h | 8527m | -11.5m/s | -27.9°C | 28.7% | 0hPa | 2.6V | 00:00:00 | 02:08:39 | 00:00:00 | |
| DO3MHA-11 | 2026-08-31 03:54:41 | 47.50928 | 12.87180 | 78° | 100km/h | 8553m | -13.5m/s | -28.2°C | 29.7% | 0hPa | 2.5V | 00:00:00 | 02:08:37 | 00:00:00 | |
| DB0NH | 2026-08-31 03:54:39 | 47.50917 | 12.87107 | 78° | 102km/h | 8578m | -12.1m/s | -28.4°C | 30.9% | 0hPa | 2.5V | 00:00:00 | 02:08:35 | 00:00:00 | |
| OE5WHR-10 | 2026-08-31 03:54:37 | 47.50906 | 12.87035 | 78° | 100km/h | 8603m | -12.6m/s | -28.6°C | 31.9% | 0hPa | 2.5V | 08:12:00 | 00:00:00 | 00:00:00 | |
| OE5MMP-10 | 2026-08-31 03:54:33 | 47.50884 | 12.86891 | 78° | 100km/h | 8653m | -12.0m/s | -29.1°C | 34.0% | 0hPa | 2.5V | 00:00:00 | 02:08:29 | 00:00:00 | |
| DO3MHA-11 | 2026-08-31 03:54:31 | 47.50872 | 12.86818 | 77° | 100km/h | 8678m | -12.1m/s | -29.4°C | 34.9% | 0hPa | 2.5V | 08:12:00 | 02:08:27 | 00:00:00 | |
| DO3MHA-12 | 2026-08-31 03:54:29 | 47.50861 | 12.86745 | 78° | 100km/h | 8704m | -13.3m/s | -29.6°C | 35.4% | 0hPa | 2.4V | 00:00:00 | 02:08:25 | 00:00:00 | |
| OE5DXL-15 | 2026-08-31 03:54:23 | 47.50828 | 12.86525 | 78° | 106km/h | 8782m | -12.9m/s | -30.4°C | 36.6% | 0hPa | 2.4V | 00:00:00 | 00:00:00 | 00:00:00 | |
| DO3MHA-11 | 2026-08-31 03:54:21 | 47.50817 | 12.86451 | 78° | 104km/h | 8807m | -12.4m/s | -30.6°C | 36.7% | 0hPa | 2.4V | 00:00:00 | 02:08:17 | 00:00:00 | |
| OE5DRO-10 | 2026-08-31 03:54:20 | 47.50811 | 12.86414 | 77° | 106km/h | 8819m | -12.8m/s | -30.7°C | 36.7% | 0hPa | 2.4V | 00:00:00 | 00:00:00 | 00:00:00 | |
| DO3MHA-12 | 2026-08-31 03:54:19 | 47.50805 | 12.86377 | 77° | 104km/h | 8832m | -13.5m/s | -30.8°C | 36.6% | 0hPa | 2.4V | 00:00:00 | 02:08:15 | 00:00:00 | |
| DL6DJ-15 | 2026-08-31 03:54:18 | 47.50800 | 12.86339 | 77° | 102km/h | 8844m | -11.4m/s | -31.0°C | 32.9% | -1.0hPa | 2.4V | 00:00:00 | 00:00:00 | 00:00:00 | |
| OE5WHR-10 | 2026-08-31 03:54:16 | 47.50788 | 12.86264 | 77° | 108km/h | 8867m | -12.5m/s | -31.1°C | 35.3% | 0hPa | 2.4V | 00:00:00 | 00:00:00 | 00:00:00 | |
| OE3JTB-15 | 2026-08-31 03:54:15 | 47.50782 | 12.86226 | 77° | 108km/h | 8879m | -12.2m/s | -31.2°C | 34.8% | 0hPa | 2.4V | 00:00:00 | 02:08:11 | 00:00:00 | |
| OE5MMP-10 | 2026-08-31 03:54:13 | 47.50769 | 12.86150 | 76° | 106km/h | 8904m | -12.5m/s | -31.4°C | 32.8% | 0hPa | 2.4V | 00:00:00 | 02:08:09 | 00:00:00 | |
| OE5HKT-10 | 2026-08-31 03:54:12 | 47.50762 | 12.86112 | 76° | 108km/h | 8917m | -12.9m/s | -31.4°C | 31.5% | 0hPa | 2.5V | 00:00:00 | 00:00:00 | 00:00:00 | |
| DO3MHA-11 | 2026-08-31 03:54:11 | 47.50756 | 12.86074 | 75° | 106km/h | 8930m | -12.4m/s | -31.5°C | 30.5% | 0hPa | 2.5V | 00:00:00 | 02:08:07 | 00:00:00 | |
| DO3MHA-12 | 2026-08-31 03:54:09 | 47.50742 | 12.85997 | 76° | 108km/h | 8954m | -12.7m/s | -31.7°C | 29.5% | 0hPa | 2.5V | 00:00:00 | 02:08:05 | 00:00:00 | |
| OE5MMP-10 | 2026-08-31 03:54:03 | 47.50701 | 12.85765 | 75° | 108km/h | 9028m | -11.2m/s | -32.1°C | 26.9% | 0hPa | 2.5V | 00:00:00 | 02:07:59 | 00:00:00 | |
| DB0ND-19 | 2026-08-31 03:54:01 | 47.50687 | 12.85689 | 73° | 106km/h | 9053m | -12.9m/s | -32.3°C | 22.2% | -1.0hPa | 2.5V | 00:00:00 | 00:00:00 | 00:00:00 | |
| DL6DJ-15 | 2026-08-31 03:53:47 | 47.50587 | 12.85133 | 75° | 113km/h | 9233m | -13.5m/s | -33.5°C | 17.6% | -1.0hPa | 2.5V | 00:00:00 | 00:00:00 | 00:00:00 | |
| OE3JTB-15 | 2026-08-31 03:53:46 | 47.50580 | 12.85092 | 76° | 111km/h | 9246m | -13.4m/s | -33.5°C | 20.4% | 0hPa | 2.5V | 00:00:00 | 00:00:00 | 00:00:00 | |
| OE5MMP-10 | 2026-08-31 03:53:43 | 47.50558 | 12.84969 | 76° | 113km/h | 9285m | -13.8m/s | -33.8°C | 20.9% | 0hPa | 2.5V | 08:13:00 | 02:07:39 | 00:00:00 | |
| OE5DRO-10 | 2026-08-31 03:53:42 | 47.50551 | 12.84928 | 75° | 113km/h | 9297m | -12.9m/s | -33.9°C | 21.1% | 0hPa | 2.5V | 00:00:00 | 00:00:00 | 00:00:00 | |
| DO3MHA-11 | 2026-08-31 03:53:41 | 47.50544 | 12.84887 | 75° | 113km/h | 9310m | -12.3m/s | -34.1°C | 21.3% | 0hPa | 2.4V | 00:00:00 | 02:07:37 | 00:00:00 | |
| DO3MHA-12 | 2026-08-31 03:53:39 | 47.50528 | 12.84805 | 75° | 113km/h | 9335m | -13.5m/s | -34.2°C | 21.5% | 0hPa | 2.4V | 00:00:00 | 02:07:35 | 00:00:00 | |
| OE5WHR-10 | 2026-08-31 03:53:33 | 47.50482 | 12.84560 | 75° | 111km/h | 9411m | -12.9m/s | -34.8°C | 22.3% | 0hPa | 2.4V | 00:00:00 | 00:00:00 | 00:00:00 | |
| DO3MHA-11 | 2026-08-31 03:53:31 | 47.50466 | 12.84479 | 74° | 111km/h | 9436m | -12.5m/s | -35.1°C | 22.5% | 0hPa | 2.4V | 00:00:00 | 02:07:27 | 00:00:00 | |
| OE5HKT-10 | 2026-08-31 03:53:30 | 47.50458 | 12.84438 | 75° | 110km/h | 9449m | -12.7m/s | -35.2°C | 22.5% | 0hPa | 2.5V | 00:00:00 | 00:00:00 | 00:00:00 | |
| DO3MHA-12 | 2026-08-31 03:53:29 | 47.50450 | 12.84397 | 75° | 111km/h | 9460m | -11.5m/s | -35.2°C | 22.4% | 0hPa | 2.5V | 00:00:00 | 02:07:25 | 00:00:00 | |
| NBG1-10 | 2026-08-31 03:53:26 | 47.50426 | 12.84277 | 74° | 108km/h | 9499m | -13.2m/s | -35.5°C | 22.3% | 0hPa | 2.5V | 00:00:00 | 02:07:22 | 00:00:00 | |
| OE5MMP-10 | 2026-08-31 03:53:23 | 47.50403 | 12.84157 | 76° | 110km/h | 9537m | -12.3m/s | -35.9°C | 22.9% | 0hPa | 2.5V | 00:00:00 | 02:07:19 | 00:00:00 | |
| OE5DXL-15 | 2026-08-31 03:53:22 | 47.50395 | 12.84117 | 74° | 108km/h | 9550m | -13.3m/s | -36.0°C | 23.0% | 0hPa | 2.5V | 00:00:00 | 00:00:00 | 00:00:00 | |
| DO3MHA-11 | 2026-08-31 03:53:21 | 47.50388 | 12.84077 | 76° | 110km/h | 9563m | -12.2m/s | -36.1°C | 23.2% | 0hPa | 2.5V | 00:00:00 | 02:07:17 | 00:00:00 | |
| DO3MHA-12 | 2026-08-31 03:53:19 | 47.50373 | 12.83997 | 75° | 110km/h | 9587m | -12.4m/s | -36.4°C | 23.5% | 0hPa | 2.5V | 08:14:00 | 02:07:15 | 00:00:00 | |
| OE3JTB-15 | 2026-08-31 03:53:17 | 47.50359 | 12.83918 | 75° | 108km/h | 9614m | -12.8m/s | -36.6°C | 23.9% | 0hPa | 2.5V | 00:00:00 | 00:00:00 | 00:00:00 | |
| DL6DJ-15 | 2026-08-31 03:53:16 | 47.50352 | 12.83879 | 74° | 110km/h | 9626m | -11.9m/s | -36.8°C | 20.9% | -1.0hPa | 2.5V | 00:00:00 | 00:00:00 | 00:00:00 | |
| OE5MMP-10 | 2026-08-31 03:53:13 | 47.50331 | 12.83760 | 77° | 108km/h | 9661m | -12.0m/s | -37.0°C | 24.3% | 0hPa | 2.5V | 00:00:00 | 02:07:09 | 00:00:00 | |
| OE5WHR-10 | 2026-08-31 03:53:12 | 47.50324 | 12.83720 | 77° | 108km/h | 9673m | -12.8m/s | -37.1°C | 24.3% | 0hPa | 2.5V | 00:00:00 | 00:00:00 | 00:00:00 | |
| DO3MHA-11 | 2026-08-31 03:53:11 | 47.50317 | 12.83681 | 76° | 108km/h | 9686m | -12.8m/s | -37.3°C | 24.5% | 0hPa | 2.5V | 00:00:00 | 02:07:07 | 00:00:00 | |
| DB0NH | 2026-08-31 03:53:09 | 47.50304 | 12.83603 | 76° | 108km/h | 9712m | -12.9m/s | -37.5°C | 24.6% | 0hPa | 2.5V | 00:00:00 | 02:07:05 | 00:00:00 | |
| OE8JPQ-2 | 2026-08-31 03:53:04 | 47.50269 | 12.83409 | 76° | 110km/h | 9777m | -11.8m/s | -38.0°C | 25.4% | 0hPa | 2.5V | 08:14:00 | 00:00:00 | 00:00:00 | |
| DO3MHA-11 | 2026-08-31 03:53:01 | 47.50249 | 12.83293 | 76° | 106km/h | 9812m | -12.9m/s | -38.3°C | 25.6% | 0hPa | 2.5V | 08:14:00 | 02:06:57 | 00:00:00 | |
| DO3MHA-12 | 2026-08-31 03:52:59 | 47.50235 | 12.83216 | 76° | 106km/h | 9838m | -14.1m/s | -38.6°C | 26.0% | 0hPa | 2.5V | 00:00:00 | 02:06:55 | 00:00:00 | |
| OE5MMP-10 | 2026-08-31 03:52:53 | 47.50197 | 12.82983 | 77° | 108km/h | 9909m | -11.8m/s | -39.3°C | 27.4% | 0hPa | 2.5V | 00:00:00 | 02:06:49 | 00:00:00 | |
| DO3MHA-11 | 2026-08-31 03:52:51 | 47.50184 | 12.82906 | 77° | 108km/h | 9932m | -12.1m/s | -39.5°C | 27.7% | 0hPa | 2.5V | 00:00:00 | 02:06:47 | 00:00:00 | |
| DO3MHA-12 | 2026-08-31 03:52:49 | 47.50172 | 12.82828 | 78° | 108km/h | 9955m | -11.9m/s | -39.7°C | 28.0% | 0hPa | 2.5V | 00:00:00 | 02:06:45 | 00:00:00 | |
| OE3JTB-15 | 2026-08-31 03:52:48 | 47.50167 | 12.82789 | 79° | 110km/h | 9966m | -11.1m/s | -39.8°C | 28.2% | 0hPa | 2.5V | 00:00:00 | 02:06:44 | 00:00:00 | |
| BAUMI2-15 | 2026-08-31 03:52:47 | 47.50161 | 12.82750 | 79° | 108km/h | 9978m | -11.3m/s | -39.9°C | 28.3% | 0hPa | 2.5V | 00:00:00 | 02:06:43 | 00:00:00 | |
| OE5DRO-10 | 2026-08-31 03:52:45 | 47.50150 | 12.82671 | 78° | 110km/h | 10000m | -10.7m/s | -40.1°C | 28.7% | 0hPa | 2.5V | 08:14:00 | 00:00:00 | 00:00:00 | |
| IN3HCDX | 2026-08-31 03:52:44 | 47.50150 | 12.82671 | 79° | 108km/h | 10000m | -10.8m/s | -40.1°C | 24.8% | 0hPa | 2.4V | 00:00:00 | 00:00:00 | 00:00:00 | |
| OE5MMP-10 | 2026-08-31 03:52:43 | 47.50140 | 12.82592 | 80° | 110km/h | 10019m | -10.3m/s | -40.3°C | 28.5% | 0hPa | 2.4V | 00:00:00 | 02:06:39 | 00:00:00 | |
| BAUMI2-15 | 2026-08-31 03:52:42 | 47.50134 | 12.82553 | 79° | 110km/h | 10030m | -12.0m/s | -40.4°C | 28.3% | 0hPa | 2.5V | 00:00:00 | 02:06:38 | 00:00:00 | |
| DO3MHA-11 | 2026-08-31 03:52:41 | 47.50129 | 12.82514 | 79° | 110km/h | 10041m | -11.5m/s | -40.5°C | 28.2% | 0hPa | 2.5V | 00:00:00 | 02:06:37 | 00:00:00 | |
| DG1MFX-10 | 2026-08-31 03:52:40 | 47.50129 | 12.82514 | 80° | 110km/h | 10041m | -11.5m/s | -40.5°C | 24.4% | 0hPa | 2.5V | 08:15:00 | 00:00:00 | 00:00:00 | |
| DB0NH | 2026-08-31 03:52:39 | 47.50119 | 12.82434 | 80° | 113km/h | 10064m | -11.7m/s | -40.7°C | 27.9% | 0hPa | 2.5V | 00:00:00 | 02:06:35 | 00:00:00 | |
| BAUMI2-15 | 2026-08-31 03:52:37 | 47.50109 | 12.82353 | 81° | 110km/h | 10086m | -10.8m/s | -40.9°C | 27.6% | 0hPa | 2.5V | 00:00:00 | 02:06:33 | 00:00:00 | |
| OE5MMP-10 | 2026-08-31 03:52:33 | 47.50089 | 12.82193 | 81° | 111km/h | 10128m | -8.8m/s | -41.1°C | 27.7% | 0hPa | 2.5V | 00:00:00 | 02:06:29 | 00:00:00 | |
| BAUMI2-15 | 2026-08-31 03:52:32 | 47.50084 | 12.82152 | 80° | 111km/h | 10136m | -7.9m/s | -41.2°C | 27.7% | 0hPa | 2.5V | 00:00:00 | 02:06:28 | 00:00:00 | |
| DO3MHA-11 | 2026-08-31 03:52:31 | 47.50080 | 12.82111 | 81° | 113km/h | 10146m | -10.0m/s | -41.2°C | 27.9% | 0hPa | 2.5V | 00:00:00 | 02:06:27 | 00:00:00 | |
| OE5WHR-10 | 2026-08-31 03:52:30 | 47.50075 | 12.82070 | 81° | 113km/h | 10155m | -8.9m/s | -41.3°C | 28.2% | 0hPa | 2.5V | 00:00:00 | 00:00:00 | 00:00:00 | |
| DO3MHA-12 | 2026-08-31 03:52:29 | 47.50070 | 12.82029 | 80° | 113km/h | 10164m | -10.0m/s | -41.4°C | 28.4% | 0hPa | 2.5V | 00:00:00 | 02:06:25 | 00:00:00 | |
| BAUMI2-15 | 2026-08-31 03:52:27 | 47.50060 | 12.81947 | 80° | 113km/h | 10183m | -8.5m/s | -41.6°C | 29.0% | 0hPa | 2.5V | 00:00:00 | 02:06:23 | 00:00:00 | |
| OE5DRO-10 | 2026-08-31 03:52:26 | 47.50056 | 12.81905 | 81° | 115km/h | 10193m | -9.4m/s | -41.7°C | 29.1% | 0hPa | 2.5V | 00:00:00 | 00:00:00 | 00:00:00 | |
| IN3HCDX | 2026-08-31 03:52:24 | 47.50051 | 12.81864 | 82° | 111km/h | 10203m | -10.8m/s | -41.8°C | 25.2% | 0hPa | 2.5V | 00:00:00 | 00:00:00 | 00:00:00 | |
| OE5DXL-15 | 2026-08-31 03:52:23 | 47.50042 | 12.81781 | 82° | 117km/h | 10225m | -9.8m/s | -42.0°C | 30.0% | 0hPa | 2.5V | 00:00:00 | 00:00:00 | 00:00:00 | |
| BAUMI2-15 | 2026-08-31 03:52:22 | 47.50037 | 12.81739 | 80° | 113km/h | 10234m | -9.6m/s | -42.1°C | 30.2% | 0hPa | 2.5V | 08:14:00 | 02:06:18 | 00:00:00 | |
| DO3MHA-11 | 2026-08-31 03:52:21 | 47.50032 | 12.81697 | 82° | 115km/h | 10243m | -8.6m/s | -42.2°C | 30.4% | 0hPa | 2.4V | 00:00:00 | 02:06:17 | 00:00:00 | |
| NBG1-10 | 2026-08-31 03:52:20 | 47.50028 | 12.81655 | 81° | 119km/h | 10253m | -9.8m/s | -42.3°C | 30.5% | 0hPa | 2.4V | 00:00:00 | 02:06:16 | 00:00:00 | |
| DO3MHA-12 | 2026-08-31 03:52:19 | 47.50023 | 12.81613 | 82° | 115km/h | 10263m | -11.0m/s | -42.4°C | 30.9% | 0hPa | 2.5V | 00:00:00 | 02:06:15 | 00:00:00 | |
| BAUMI2-15 | 2026-08-31 03:52:17 | 47.50014 | 12.81530 | 82° | 115km/h | 10285m | -10.4m/s | -42.6°C | 31.7% | 0hPa | 2.5V | 00:00:00 | 02:06:13 | 00:00:00 | |
| DL6DJ-15 | 2026-08-31 03:52:14 | 47.50000 | 12.81402 | 80° | 113km/h | 10313m | -10.0m/s | -42.9°C | 27.7% | -1.0hPa | 2.5V | 00:00:00 | 00:00:00 | 00:00:00 | |
| OE5MMP-10 | 2026-08-31 03:52:13 | 47.49996 | 12.81359 | 82° | 117km/h | 10323m | -11.0m/s | -43.0°C | 32.7% | 0hPa | 2.5V | 08:15:00 | 02:06:09 | 00:00:00 | |
| BAUMI2-15 | 2026-08-31 03:52:12 | 47.49991 | 12.81316 | 82° | 115km/h | 10334m | -10.2m/s | -43.0°C | 33.1% | 0hPa | 2.4V | 00:00:00 | 02:06:08 | 00:00:00 | |
| DO3MHA-11 | 2026-08-31 03:52:11 | 47.49987 | 12.81273 | 81° | 117km/h | 10344m | -11.0m/s | -43.1°C | 33.5% | 0hPa | 2.4V | 00:00:00 | 02:06:07 | 00:00:00 | |
| DO3MHA-12 | 2026-08-31 03:52:09 | 47.49977 | 12.81188 | 81° | 117km/h | 10364m | -10.4m/s | -43.3°C | 34.3% | 0hPa | 2.4V | 00:00:00 | 02:06:05 | 00:00:00 | |
| BAUMI2-15 | 2026-08-31 03:52:07 | 47.49969 | 12.81102 | 82° | 117km/h | 10384m | -10.7m/s | -43.5°C | 34.8% | 0hPa | 2.4V | 00:00:00 | 02:06:03 | 00:00:00 | |
| OE5REO-15 | 2026-08-31 03:52:05 | 47.49964 | 12.81059 | 82° | 117km/h | 10395m | -10.9m/s | -43.6°C | 30.2% | 0hPa | 2.5V | 00:00:00 | 00:00:00 | 00:00:00 | |
| OE5MMP-10 | 2026-08-31 03:52:03 | 47.49951 | 12.80928 | 82° | 120km/h | 10426m | -10.4m/s | -43.9°C | 36.3% | 0hPa | 2.5V | 00:00:00 | 02:05:59 | 00:00:00 | |
| BAUMI2-15 | 2026-08-31 03:52:02 | 47.49946 | 12.80885 | 81° | 120km/h | 10437m | -10.1m/s | -44.0°C | 36.7% | 0hPa | 2.5V | 00:00:00 | 02:05:58 | 00:00:00 | |
| DO3MHA-11 | 2026-08-31 03:52:01 | 47.49942 | 12.80841 | 81° | 120km/h | 10448m | -10.9m/s | -44.1°C | 37.1% | 0hPa | 2.5V | 00:00:00 | 02:05:57 | 00:00:00 | |
| DO3MHA-12 | 2026-08-31 03:51:59 | 47.49932 | 12.80752 | 83° | 122km/h | 10467m | -7.7m/s | -44.3°C | 38.4% | 0hPa | 2.5V | 00:00:00 | 02:05:55 | 00:00:00 | |
| DG1MFX-10 | 2026-08-31 03:51:58 | 47.49932 | 12.80752 | 83° | 120km/h | 10467m | -7.8m/s | -44.3°C | 33.1% | 0hPa | 2.5V | 08:15:00 | 00:00:00 | 00:00:00 | |
| BAUMI2-15 | 2026-08-31 03:51:57 | 47.49924 | 12.80662 | 82° | 122km/h | 10485m | -9.3m/s | -44.4°C | 39.0% | 0hPa | 2.5V | 00:00:00 | 02:05:53 | 00:00:00 | |
| OE5MMP-10 | 2026-08-31 03:51:53 | 47.49907 | 12.80482 | 83° | 124km/h | 10522m | -10.5m/s | -44.7°C | 39.8% | 0hPa | 2.5V | 00:00:00 | 02:05:49 | 00:00:00 | |
| BAUMI2-15 | 2026-08-31 03:51:52 | 47.49903 | 12.80437 | 83° | 122km/h | 10532m | -9.0m/s | -44.8°C | 40.2% | 0hPa | 2.5V | 00:00:00 | 02:05:48 | 00:00:00 | |
| DO3MHA-11 | 2026-08-31 03:51:51 | 47.49899 | 12.80391 | 84° | 124km/h | 10541m | -8.0m/s | -44.9°C | 40.0% | 0hPa | 2.5V | 00:00:00 | 02:05:47 | 00:00:00 | |
| DB0UT-7 | 2026-08-31 03:51:50 | 47.49895 | 12.80346 | 84° | 130km/h | 10550m | -9.9m/s | -45.0°C | 39.7% | 0hPa | 2.5V | 00:00:00 | 02:05:46 | 00:00:00 | |
| DO3MHA-12 | 2026-08-31 03:51:49 | 47.49892 | 12.80299 | 84° | 124km/h | 10561m | -12.6m/s | -45.0°C | 39.6% | 0hPa | 2.5V | 08:15:00 | 02:05:45 | 00:00:00 | |
| OE5WHR-10 | 2026-08-31 03:51:48 | 47.49888 | 12.80253 | 83° | 124km/h | 10574m | -12.4m/s | -45.1°C | 39.4% | 0hPa | 2.5V | 00:00:00 | 02:05:44 | 00:00:00 | |
| BAUMI2-15 | 2026-08-31 03:51:47 | 47.49884 | 12.80208 | 84° | 124km/h | 10585m | -9.2m/s | -45.2°C | 39.5% | 0hPa | 2.5V | 00:00:00 | 02:05:43 | 00:00:00 | |
| OE8JPQ-2 | 2026-08-31 03:51:44 | 47.49874 | 12.80070 | 84° | 126km/h | 10612m | -10.2m/s | -45.4°C | 37.1% | 0hPa | 2.5V | 00:00:00 | 02:05:40 | 00:00:00 | |
| OE5MMP-10 | 2026-08-31 03:51:43 | 47.49871 | 12.80024 | 84° | 124km/h | 10622m | -8.3m/s | -45.5°C | 36.3% | 0hPa | 2.5V | 00:00:00 | 02:05:39 | 00:00:00 | |
| BAUMI2-15 | 2026-08-31 03:51:42 | 47.49868 | 12.79978 | 85° | 124km/h | 10631m | -9.0m/s | -45.5°C | 35.4% | 0hPa | 2.4V | 00:00:00 | 02:05:38 | 00:00:00 | |
| DO3MHA-11 | 2026-08-31 03:51:41 | 47.49865 | 12.79932 | 85° | 124km/h | 10640m | -9.0m/s | -45.6°C | 34.4% | 0hPa | 2.4V | 00:00:00 | 02:05:37 | 00:00:00 | |
| DB0NH | 2026-08-31 03:51:39 | 47.49859 | 12.79840 | 86° | 130km/h | 10660m | -10.2m/s | -45.7°C | 32.9% | 0hPa | 2.4V | 00:00:00 | 02:05:35 | 00:00:00 | |
| BAUMI2-15 | 2026-08-31 03:51:37 | 47.49853 | 12.79747 | 85° | 124km/h | 10678m | -7.1m/s | -45.8°C | 31.9% | 0hPa | 2.4V | 08:15:00 | 02:05:33 | 00:00:00 | |
| OE5MMP-10 | 2026-08-31 03:51:33 | 47.49841 | 12.79562 | 85° | 128km/h | 10712m | -8.8m/s | -46.0°C | 30.1% | 0hPa | 2.5V | 00:00:00 | 02:05:29 | 00:00:00 | |
| BAUMI2-15 | 2026-08-31 03:51:32 | 47.49838 | 12.79514 | 84° | 128km/h | 10720m | -7.0m/s | -46.0°C | 29.8% | 0hPa | 2.5V | 00:00:00 | 02:05:28 | 00:00:00 | |
| DO3MHA-11 | 2026-08-31 03:51:31 | 47.49834 | 12.79467 | 84° | 128km/h | 10727m | -8.6m/s | -46.1°C | 29.6% | 0hPa | 2.5V | 08:15:00 | 02:05:27 | 00:00:00 | |
| DO3MHA-12 | 2026-08-31 03:51:29 | 47.49828 | 12.79373 | 85° | 130km/h | 10744m | -8.4m/s | -46.1°C | 29.2% | 0hPa | 2.5V | 00:00:00 | 02:05:25 | 00:00:00 | |
| OE5WHR-10 | 2026-08-31 03:51:27 | 47.49821 | 12.79277 | 85° | 131km/h | 10762m | -11.1m/s | -46.2°C | 28.8% | 0hPa | 2.5V | 08:15:00 | 00:00:00 | 00:00:00 | |
| OE5HKT-10 | 2026-08-31 03:51:26 | 47.49818 | 12.79230 | 84° | 131km/h | 10772m | -9.2m/s | -46.2°C | 28.8% | 0hPa | 2.6V | 00:00:00 | 00:00:00 | 00:00:00 | |
| OE5MMP-10 | 2026-08-31 03:51:23 | 47.49808 | 12.79086 | 84° | 131km/h | 10799m | -8.5m/s | -46.4°C | 28.6% | 0hPa | 2.5V | 00:00:00 | 02:05:19 | 00:00:00 | |
| BAUMI2-15 | 2026-08-31 03:51:22 | 47.49805 | 12.79039 | 86° | 131km/h | 10809m | -11.2m/s | -46.5°C | 28.7% | 0hPa | 2.5V | 00:00:00 | 02:05:18 | 00:00:00 | |
| DO3MHA-11 | 2026-08-31 03:51:21 | 47.49801 | 12.78990 | 84° | 131km/h | 10819m | -8.9m/s | -46.6°C | 28.8% | 0hPa | 2.5V | 00:00:00 | 02:05:17 | 00:00:00 | |
| DO3MHA-12 | 2026-08-31 03:51:19 | 47.49795 | 12.78892 | 86° | 131km/h | 10838m | -10.3m/s | -46.7°C | 28.6% | 0hPa | 2.5V | 00:00:00 | 02:05:15 | 00:00:00 | |
| OE5REO-15 | 2026-08-31 03:51:18 | 47.49795 | 12.78892 | 86° | 130km/h | 10838m | -10.4m/s | -46.7°C | 23.9% | 0hPa | 2.6V | 08:16:00 | 00:00:00 | 00:00:00 | |
| BAUMI2-15 | 2026-08-31 03:51:17 | 47.49789 | 12.78795 | 85° | 131km/h | 10858m | -10.9m/s | -46.8°C | 28.9% | 0hPa | 2.6V | 00:00:00 | 02:05:13 | 00:00:00 | |
| IN3HCDX | 2026-08-31 03:51:15 | 47.49786 | 12.78745 | 85° | 133km/h | 10869m | -12.6m/s | -46.9°C | 24.5% | 0hPa | 2.6V | 00:00:00 | 00:00:00 | 00:00:00 | |
| NBG1-10 | 2026-08-31 03:51:14 | 47.49779 | 12.78648 | 85° | 135km/h | 10889m | -10.3m/s | -47.0°C | 29.7% | 0hPa | 2.6V | 00:00:00 | 02:05:10 | 00:00:00 | |
| OE5MMP-10 | 2026-08-31 03:51:13 | 47.49776 | 12.78599 | 85° | 133km/h | 10900m | -11.0m/s | -47.1°C | 29.7% | 0hPa | 2.6V | 00:00:00 | 02:05:09 | 00:00:00 | |
| BAUMI2-15 | 2026-08-31 03:51:12 | 47.49773 | 12.78550 | 85° | 133km/h | 10911m | -11.2m/s | -47.2°C | 29.7% | 0hPa | 2.6V | 00:00:00 | 02:05:08 | 00:00:00 | |
| DO3MHA-11 | 2026-08-31 03:51:11 | 47.49769 | 12.78501 | 84° | 133km/h | 10922m | -12.0m/s | -47.2°C | 30.0% | 0hPa | 2.6V | 00:00:00 | 02:05:07 | 00:00:00 | |
| OE5DRO-10 | 2026-08-31 03:51:10 | 47.49766 | 12.78452 | 85° | 133km/h | 10933m | -10.2m/s | -47.3°C | 30.4% | 0hPa | 2.6V | 00:00:00 | 00:00:00 | 00:00:00 | |
| DB0NH | 2026-08-31 03:51:09 | 47.49763 | 12.78402 | 84° | 137km/h | 10943m | -8.7m/s | -47.4°C | 30.5% | 0hPa | 2.6V | 00:00:00 | 02:05:05 | 00:00:00 | |
| DB0UT-7 | 2026-08-31 03:51:08 | 47.49759 | 12.78353 | 85° | 137km/h | 10952m | -9.9m/s | -47.5°C | 30.8% | 0hPa | 2.6V | 00:00:00 | 00:00:00 | 00:00:00 | |
| BAUMI2-15 | 2026-08-31 03:51:07 | 47.49756 | 12.78304 | 84° | 133km/h | 10962m | -8.8m/s | -47.6°C | 31.2% | 0hPa | 2.6V | 00:00:00 | 02:05:03 | 00:00:00 | |
| OE5WHR-10 | 2026-08-31 03:51:06 | 47.49752 | 12.78254 | 84° | 135km/h | 10970m | -8.7m/s | -47.6°C | 31.1% | 0hPa | 2.5V | 00:00:00 | 00:00:00 | 00:00:00 | |
| OE5HKT-10 | 2026-08-31 03:51:05 | 47.49749 | 12.78205 | 84° | 135km/h | 10980m | -9.0m/s | !°C | 31.0% | 0hPa | 2.5V | 00:00:00 | 00:00:00 | 00:00:00 | |
| OE5MMP-10 | 2026-08-31 03:51:03 | 47.49741 | 12.78106 | 84° | 133km/h | 10999m | -10.2m/s | -47.9°C | 31.1% | 0hPa | 2.5V | 00:00:00 | 02:04:59 | 00:00:00 | |
| BAUMI2-15 | 2026-08-31 03:51:02 | 47.49738 | 12.78057 | 84° | 133km/h | 11009m | -9.3m/s | -48.0°C | 31.4% | 0hPa | 2.5V | 00:00:00 | 02:04:58 | 00:00:00 | |
| DO3MHA-11 | 2026-08-31 03:51:01 | 47.49734 | 12.78008 | 84° | 133km/h | 11019m | -9.9m/s | -48.1°C | 31.8% | 0hPa | 2.5V | 00:00:00 | 02:04:57 | 00:00:00 | |
| DO3MHA-12 | 2026-08-31 03:50:59 | 47.49727 | 12.77908 | 85° | 135km/h | 11037m | -8.7m/s | -48.2°C | 32.3% | 0hPa | 2.5V | 00:00:00 | 02:04:55 | 00:00:00 | |
| BAUMI2-15 | 2026-08-31 03:50:57 | 47.49720 | 12.77810 | 84° | 133km/h | 11053m | -8.9m/s | -48.3°C | 32.9% | 0hPa | 2.5V | 00:00:00 | 02:04:53 | 00:00:00 | |
| DG1MFX-10 | 2026-08-31 03:50:56 | 47.49720 | 12.77810 | 85° | 131km/h | 11053m | -9.0m/s | -48.4°C | 27.5% | 0hPa | 2.5V | 08:17:00 | 00:00:00 | 00:00:00 | |
| OE5DXL-15 | 2026-08-31 03:50:53 | 47.49705 | 12.77611 | 84° | 139km/h | 11086m | -9.6m/s | -48.6°C | 33.9% | 0hPa | 2.5V | 00:00:00 | 00:00:00 | 00:00:00 | |
| BAUMI2-15 | 2026-08-31 03:50:52 | 47.49701 | 12.77560 | 83° | 133km/h | 11096m | -8.7m/s | -48.7°C | 34.3% | 0hPa | 2.5V | 08:16:00 | 02:04:48 | 00:00:00 | |
| DO3MHA-11 | 2026-08-31 03:50:51 | 47.49696 | 12.77510 | 84° | 137km/h | 11104m | -9.2m/s | -48.7°C | 34.6% | 0hPa | 2.5V | 00:00:00 | 02:04:47 | 00:00:00 | |
| IN3HCDX | 2026-08-31 03:50:50 | 47.49696 | 12.77510 | 84° | 135km/h | 11104m | -9.2m/s | -48.8°C | 29.0% | 0hPa | 2.5V | 00:00:00 | 00:00:00 | 00:00:00 | |
| DO3MHA-12 | 2026-08-31 03:50:49 | 47.49689 | 12.77409 | 83° | 137km/h | 11122m | -8.6m/s | -48.9°C | 35.3% | 0hPa | 2.5V | 00:00:00 | 02:04:45 | 00:00:00 | |
| OM5KV | 2026-08-31 03:50:48 | 47.49689 | 12.77409 | 84° | 137km/h | 11122m | -8.6m/s | -49.0°C | 29.5% | 0hPa | 2.5V | 08:17:00 | 00:00:00 | 00:00:00 | |
| OE5REO-15 | 2026-08-31 03:50:47 | 47.49684 | 12.77359 | 84° | 135km/h | 11130m | -7.4m/s | -49.0°C | 29.6% | 0hPa | 2.5V | 08:17:00 | 00:00:00 | 00:00:00 | |
| OE5WHR-10 | 2026-08-31 03:50:45 | 47.49673 | 12.77207 | 84° | 139km/h | 11157m | -10.9m/s | -49.2°C | 35.6% | 0hPa | 2.5V | 00:00:00 | 02:04:41 | 00:00:00 | |
| OE5HKT-10 | 2026-08-31 03:50:44 | 47.49669 | 12.77157 | 84° | 139km/h | 11168m | -11.1m/s | -49.3°C | 36.0% | 0hPa | 2.5V | 00:00:00 | 02:04:40 | 00:00:00 | |
| OE8JPQ-2 | 2026-08-31 03:50:43 | 47.49665 | 12.77106 | 84° | 139km/h | 11178m | -9.4m/s | -49.3°C | 36.7% | 0hPa | 2.5V | 00:00:00 | 02:04:39 | 00:00:00 | |
| DL6DJ-15 | 2026-08-31 03:50:41 | 47.49657 | 12.77005 | 82° | 135km/h | 11196m | -9.1m/s | -49.5°C | 31.1% | -1.0hPa | 2.5V | 00:00:00 | 00:00:00 | 00:00:00 | |
| DO3MHA-12 | 2026-08-31 03:50:39 | 47.49649 | 12.76903 | 84° | 141km/h | 11213m | -9.7m/s | -49.6°C | 38.2% | 0hPa | 2.5V | 00:00:00 | 02:04:35 | 00:00:00 | |
| DG1MFX-10 | 2026-08-31 03:50:36 | 47.49640 | 12.76799 | 84° | 141km/h | 11232m | -7.8m/s | -49.8°C | 32.4% | 0hPa | 2.5V | 08:17:00 | 00:00:00 | 00:00:00 | |
| OE5MMP-10 | 2026-08-31 03:50:33 | 47.49622 | 12.76592 | 83° | 139km/h | 11263m | -9.4m/s | -50.0°C | 39.0% | 0hPa | 2.5V | 00:00:00 | 02:04:29 | 00:00:00 | |
| OE5DRO-10 | 2026-08-31 03:50:32 | 47.49618 | 12.76541 | 83° | 139km/h | 11272m | -9.1m/s | -50.0°C | 39.1% | 0hPa | 2.5V | 00:00:00 | 00:00:00 | 00:00:00 | |
| DO3MHA-11 | 2026-08-31 03:50:31 | 47.49613 | 12.76489 | 83° | 139km/h | 11282m | -10.7m/s | -50.1°C | 39.0% | 0hPa | 2.5V | 00:00:00 | 02:04:27 | 00:00:00 | |
| DO3MHA-12 | 2026-08-31 03:50:29 | 47.49604 | 12.76386 | 84° | 139km/h | 11302m | -9.6m/s | -50.3°C | 39.7% | 0hPa | 2.5V | 00:00:00 | 02:04:25 | 00:00:00 | |
| OM5KV | 2026-08-31 03:50:25 | 47.49592 | 12.76231 | 84° | 141km/h | 11330m | -9.3m/s | -50.6°C | 33.7% | 0hPa | 2.5V | 08:17:00 | 00:00:00 | 00:00:00 | |
| OE5WHR-10 | 2026-08-31 03:50:24 | 47.49584 | 12.76128 | 84° | 137km/h | 11348m | -9.3m/s | -50.7°C | 39.8% | 0hPa | 2.5V | 00:00:00 | 00:00:00 | 00:00:00 | |
| OE5DXL-15 | 2026-08-31 03:50:23 | 47.49580 | 12.76077 | 84° | 135km/h | 11357m | -9.6m/s | -50.8°C | 39.7% | 0hPa | 2.5V | 00:00:00 | 00:00:00 | 00:00:00 | |
| IN3HCDX | 2026-08-31 03:50:21 | 47.49572 | 12.75974 | 85° | 137km/h | 11377m | -11.7m/s | -51.0°C | 32.5% | 0hPa | 2.5V | 00:00:00 | 00:00:00 | 00:00:00 | |
| OM5KV | 2026-08-31 03:50:20 | 47.49572 | 12.75974 | 85° | 137km/h | 11377m | -11.7m/s | -51.0°C | 32.6% | 0hPa | 2.5V | 08:17:00 | 00:00:00 | 00:00:00 | |
| DO3MHA-12 | 2026-08-31 03:50:19 | 47.49564 | 12.75872 | 84° | 137km/h | 11397m | -7.8m/s | -51.1°C | 39.1% | 0hPa | 2.5V | 08:17:00 | 02:04:15 | 00:00:00 | |
| OM5KV | 2026-08-31 03:50:16 | 47.49553 | 12.75719 | 86° | 137km/h | 11425m | -8.9m/s | -51.3°C | 31.2% | 0hPa | 2.5V | 08:17:00 | 00:00:00 | 00:00:00 | |
| DG1MFX-10 | 2026-08-31 03:50:15 | 47.49553 | 12.75719 | 86° | 137km/h | 11425m | -8.9m/s | -51.3°C | 31.3% | 0hPa | 2.5V | 08:17:00 | 00:00:00 | 00:00:00 | |
| OE5MMP-10 | 2026-08-31 03:50:13 | 47.49543 | 12.75566 | 85° | 135km/h | 11454m | -11.3m/s | -51.5°C | 36.6% | 0hPa | 2.5V | 00:00:00 | 02:04:09 | 00:00:00 | |
| DO3MHA-11 | 2026-08-31 03:50:11 | 47.49536 | 12.75464 | 84° | 135km/h | 11471m | -8.2m/s | -51.7°C | 36.4% | 0hPa | 2.6V | 00:00:00 | 02:04:07 | 00:00:00 | |
| DL6DJ-15 | 2026-08-31 03:50:10 | 47.49532 | 12.75414 | 83° | 133km/h | 11480m | -8.4m/s | -51.8°C | 29.4% | -1.0hPa | 2.6V | 00:00:00 | 00:00:00 | 00:00:00 | |
| DO3MHA-12 | 2026-08-31 03:50:09 | 47.49527 | 12.75364 | 84° | 135km/h | 11489m | -10.5m/s | -51.8°C | 35.9% | 0hPa | 2.6V | 00:00:00 | 02:04:05 | 00:00:00 | |
| NBG1-10 | 2026-08-31 03:50:08 | 47.49524 | 12.75314 | 84° | 133km/h | 11499m | -8.9m/s | -51.9°C | 36.1% | 0hPa | 2.6V | 00:00:00 | 02:04:04 | 00:00:00 | |
| OM5KV | 2026-08-31 03:50:07 | 47.49523 | 12.75314 | 84° | 133km/h | 11499m | -9.0m/s | -51.9°C | 29.7% | 0hPa | 2.6V | 08:18:00 | 00:00:00 | 00:00:00 | |
| DO3MHA-11 | 2026-08-31 03:50:01 | 47.49498 | 12.74965 | 84° | 133km/h | 11563m | -11.1m/s | -52.4°C | 36.2% | 0hPa | 2.6V | 08:17:00 | 02:03:57 | 00:00:00 | |
| OE5REO-15 | 2026-08-31 03:50:00 | 47.49498 | 12.74965 | 84° | 135km/h | 11563m | -11.2m/s | -52.4°C | 29.7% | 0hPa | 2.5V | 08:18:00 | 00:00:00 | 00:00:00 | |
| DO3MHA-12 | 2026-08-31 03:49:59 | 47.49490 | 12.74866 | 85° | 133km/h | 11582m | -8.1m/s | -52.5°C | 36.4% | 0hPa | 2.5V | 00:00:00 | 02:03:55 | 00:00:00 | |
| OM5KV | 2026-08-31 03:49:57 | 47.49486 | 12.74816 | 85° | 133km/h | 11591m | -10.0m/s | -52.6°C | 29.6% | 0hPa | 2.5V | 00:00:00 | 00:00:00 | 00:00:00 | |
| OE3JTB-15 | 2026-08-31 03:49:54 | 47.49472 | 12.74616 | 84° | 131km/h | 11633m | -10.5m/s | -52.9°C | 36.7% | 0hPa | 2.5V | 00:00:00 | 02:03:50 | 00:00:00 | |
| OE5MMP-10 | 2026-08-31 03:49:53 | 47.49469 | 12.74567 | 84° | 133km/h | 11644m | -10.5m/s | -53.0°C | 37.1% | 0hPa | 2.5V | 00:00:00 | 02:03:49 | 00:00:00 | |
| OE5DXL-15 | 2026-08-31 03:49:52 | 47.49465 | 12.74517 | 84° | 131km/h | 11653m | -9.2m/s | -53.1°C | 37.3% | 0hPa | 2.5V | 00:00:00 | 00:00:00 | 00:00:00 | |
| DO3MHA-11 | 2026-08-31 03:49:51 | 47.49461 | 12.74468 | 84° | 131km/h | 11662m | -9.2m/s | -53.1°C | 37.4% | 0hPa | 2.6V | 00:00:00 | 02:03:47 | 00:00:00 | |
| DO3MHA-12 | 2026-08-31 03:49:49 | 47.49453 | 12.74369 | 85° | 131km/h | 11681m | -9.0m/s | -53.3°C | 37.6% | 0hPa | 2.6V | 00:00:00 | 02:03:45 | 00:00:00 | |
| OE5MMP-10 | 2026-08-31 03:49:43 | 47.49433 | 12.74074 | 86° | 131km/h | 11740m | -9.0m/s | -53.6°C | 37.9% | 0hPa | 2.5V | 00:00:00 | 02:03:39 | 00:00:00 | |
| OE5WHR-10 | 2026-08-31 03:49:42 | 47.49430 | 12.74025 | 85° | 131km/h | 11749m | -9.3m/s | -53.7°C | 37.8% | 0hPa | 2.5V | 00:00:00 | 02:03:38 | 00:00:00 | |
| DO3MHA-11 | 2026-08-31 03:49:41 | 47.49427 | 12.73977 | 85° | 131km/h | 11759m | -9.5m/s | -53.8°C | 37.8% | 0hPa | 2.5V | 00:00:00 | 02:03:37 | 00:00:00 | |
| DO3MHA-12 | 2026-08-31 03:49:39 | 47.49421 | 12.73879 | 85° | 130km/h | 11780m | -9.9m/s | -53.9°C | 37.7% | 0hPa | 2.5V | 00:00:00 | 02:03:35 | 00:00:00 | |
| OM5KV | 2026-08-31 03:49:38 | 47.49421 | 12.73879 | 85° | 131km/h | 11780m | -9.9m/s | -53.9°C | 30.7% | 0hPa | 2.5V | 08:18:00 | 00:00:00 | 00:00:00 | |
| DB0NH | 2026-08-31 03:49:35 | 47.49409 | 12.73685 | 86° | 130km/h | 11821m | -9.3m/s | -54.1°C | 38.5% | 0hPa | 2.5V | 00:00:00 | 02:03:31 | 00:00:00 | |
| OE5MMP-10 | 2026-08-31 03:49:33 | 47.49402 | 12.73588 | 85° | 130km/h | 11840m | -8.8m/s | -54.3°C | 38.4% | 0hPa | 2.5V | 00:00:00 | 02:03:29 | 00:00:00 | |
| DO3MHA-11 | 2026-08-31 03:49:31 | 47.49396 | 12.73491 | 86° | 131km/h | 11859m | -9.9m/s | -54.4°C | 38.4% | 0hPa | 2.5V | 00:00:00 | 02:03:27 | 00:00:00 | |
| OM5KV | 2026-08-31 03:49:30 | 47.49396 | 12.73491 | 87° | 130km/h | 11859m | -9.9m/s | -54.5°C | 31.2% | 0hPa | 2.5V | 08:18:00 | 00:00:00 | 00:00:00 | |
| DO3MHA-12 | 2026-08-31 03:49:29 | 47.49391 | 12.73395 | 86° | 131km/h | 11880m | -11.5m/s | -54.6°C | 38.5% | 0hPa | 2.5V | 00:00:00 | 02:03:25 | 00:00:00 | |
| OE5REO-15 | 2026-08-31 03:49:28 | 47.49391 | 12.73395 | 87° | 130km/h | 11880m | -11.6m/s | -54.6°C | 31.2% | 0hPa | 2.5V | 08:18:00 | 00:00:00 | 00:00:00 | |
| OE3JTB-15 | 2026-08-31 03:49:25 | 47.49380 | 12.73201 | 86° | 130km/h | 11919m | -8.0m/s | -54.8°C | 38.9% | 0hPa | 2.5V | 00:00:00 | 00:00:00 | 00:00:00 | |
| OE8JPQ-2 | 2026-08-31 03:49:23 | 47.49376 | 12.73103 | 86° | 130km/h | 11937m | -9.8m/s | -55.0°C | 39.0% | 0hPa | 2.6V | 08:17:00 | 00:00:00 | 00:00:00 | |
| OE5DXL-15 | 2026-08-31 03:49:22 | 47.49373 | 12.73053 | 87° | 128km/h | 11946m | -8.1m/s | -55.1°C | 39.1% | 0hPa | 2.5V | 00:00:00 | 00:00:00 | 00:00:00 | |
| OE5WHR-10 | 2026-08-31 03:49:21 | 47.49371 | 12.73004 | 86° | 130km/h | 11954m | -8.5m/s | -55.1°C | 39.2% | 0hPa | 2.5V | 00:00:00 | 00:00:00 | 00:00:00 | |
| OE5HKT-10 | 2026-08-31 03:49:20 | 47.49369 | 12.72955 | 87° | 130km/h | 11962m | -9.2m/s | -55.2°C | 38.9% | 0hPa | 2.5V | 00:00:00 | 00:00:00 | 00:00:00 | |
| DO3MHA-12 | 2026-08-31 03:49:19 | 47.49367 | 12.72906 | 86° | 130km/h | 11972m | -10.1m/s | -55.2°C | 38.7% | 0hPa | 2.5V | 00:00:00 | 02:03:15 | 00:00:00 | |
| OM5KV | 2026-08-31 03:49:17 | 47.49365 | 12.72858 | 86° | 128km/h | 11981m | -8.7m/s | -55.3°C | 31.3% | 0hPa | 2.5V | 08:18:00 | 00:00:00 | 00:00:00 | |
| OE5DRO-10 | 2026-08-31 03:49:16 | 47.49360 | 12.72761 | 85° | 128km/h | 12002m | -9.9m/s | -55.4°C | 39.3% | 0hPa | 2.5V | 00:00:00 | 00:00:00 | 00:00:00 | |
| OE5MMP-10 | 2026-08-31 03:49:13 | 47.49351 | 12.72618 | 85° | 130km/h | 12029m | -8.4m/s | -55.6°C | 38.8% | 0hPa | 2.5V | 08:18:00 | 02:03:09 | 00:00:00 | |
| OE5REO-15 | 2026-08-31 03:49:12 | 47.49351 | 12.72618 | 86° | 130km/h | 12029m | -8.4m/s | -55.7°C | 31.3% | 0hPa | 2.6V | 08:18:00 | 00:00:00 | 00:00:00 | |
| DO3MHA-11 | 2026-08-31 03:49:11 | 47.49345 | 12.72522 | 86° | 128km/h | 12049m | -9.7m/s | -55.7°C | 38.7% | 0hPa | 2.6V | 00:00:00 | 02:03:07 | 00:00:00 | |
| DO3MHA-12 | 2026-08-31 03:49:09 | 47.49338 | 12.72425 | 84° | 128km/h | 12067m | -7.0m/s | -55.8°C | 38.5% | 0hPa | 2.6V | 00:00:00 | 02:03:05 | 00:00:00 | |
| DL6DJ-15 | 2026-08-31 03:49:08 | 47.49334 | 12.72377 | 83° | 126km/h | 12076m | -10.5m/s | -55.9°C | 30.1% | -1.0hPa | 2.6V | 00:00:00 | 00:00:00 | 00:00:00 | |
| DB0NH | 2026-08-31 03:49:05 | 47.49323 | 12.72234 | 83° | 126km/h | 12107m | -9.3m/s | -55.9°C | 37.5% | 0hPa | 2.6V | 00:00:00 | 02:03:01 | 00:00:00 | |
| OM5KV | 2026-08-31 03:49:04 | 47.49323 | 12.72234 | 84° | 128km/h | 12107m | -9.3m/s | -56.0°C | 30.1% | 0hPa | 2.6V | 08:18:00 | 00:00:00 | 00:00:00 | |
| OE5MMP-10 | 2026-08-31 03:49:03 | 47.49315 | 12.72139 | 83° | 126km/h | 12128m | -11.2m/s | -56.0°C | 37.2% | 0hPa | 2.6V | 00:00:00 | 02:02:59 | 00:00:00 | |
| NBG1-10 | 2026-08-31 03:49:02 | 47.49311 | 12.72092 | 84° | 126km/h | 12138m | -10.2m/s | -56.1°C | 37.3% | 0hPa | 2.6V | 08:18:00 | 02:02:58 | 00:00:00 | |
| DO3MHA-11 | 2026-08-31 03:49:01 | 47.49308 | 12.72045 | 85° | 126km/h | 12150m | -12.2m/s | -56.2°C | 37.6% | 0hPa | 2.5V | 00:00:00 | 02:02:57 | 00:00:00 | |
| OE5WHR-10 | 2026-08-31 03:49:00 | 47.49304 | 12.71998 | 85° | 126km/h | 12160m | -8.4m/s | -56.3°C | 38.1% | 0hPa | 2.6V | 00:00:00 | 00:00:00 | 00:00:00 | |
| DO3MHA-12 | 2026-08-31 03:48:59 | 47.49301 | 12.71950 | 84° | 126km/h | 12169m | -10.7m/s | -56.4°C | 38.1% | 0hPa | 2.6V | 00:00:00 | 02:02:55 | 00:00:00 | |
| OE5DRO-10 | 2026-08-31 03:48:57 | 47.49294 | 12.71856 | 84° | 126km/h | 12186m | -7.2m/s | -56.4°C | 37.9% | 0hPa | 2.6V | 00:00:00 | 00:00:00 | 00:00:00 | |
| OE3JTB-15 | 2026-08-31 03:48:56 | 47.49291 | 12.71810 | 85° | 126km/h | 12194m | -9.2m/s | -56.4°C | 37.6% | 0hPa | 2.5V | 00:00:00 | 00:00:00 | 00:00:00 | |
| DB0UT-7 | 2026-08-31 03:48:53 | 47.49281 | 12.71669 | 84° | 124km/h | 12223m | -11.1m/s | -56.6°C | 37.6% | 0hPa | 2.5V | 08:18:00 | 00:00:00 | 00:00:00 | |
| OE5DXL-15 | 2026-08-31 03:48:52 | 47.49277 | 12.71621 | 85° | 124km/h | 12233m | -9.7m/s | -56.7°C | 38.0% | 0hPa | 2.6V | 00:00:00 | 00:00:00 | 00:00:00 | |
| DO3MHA-11 | 2026-08-31 03:48:51 | 47.49273 | 12.71575 | 84° | 126km/h | 12243m | -9.7m/s | -56.8°C | 38.5% | 0hPa | 2.6V | 00:00:00 | 02:02:47 | 00:00:00 | |
| DO3MHA-12 | 2026-08-31 03:48:49 | 47.49266 | 12.71481 | 84° | 126km/h | 12260m | -8.5m/s | -56.9°C | 39.0% | 0hPa | 2.6V | 08:18:00 | 02:02:45 | 00:00:00 | |
| BAUMI2-15 | 2026-08-31 03:48:47 | 47.49260 | 12.71388 | 84° | 126km/h | 12278m | -10.7m/s | -57.0°C | 38.9% | 0hPa | 2.6V | 00:00:00 | 02:02:43 | 00:00:00 | |
| OE8JPQ-2 | 2026-08-31 03:48:43 | 47.49244 | 12.71201 | 83° | 124km/h | 12316m | -8.4m/s | -57.3°C | 39.0% | 0hPa | 2.6V | 00:00:00 | 02:02:39 | 00:00:00 | |
| DO3MHA-11 | 2026-08-31 03:48:41 | 47.49235 | 12.71108 | 82° | 126km/h | 12338m | -12.4m/s | -57.4°C | 38.7% | 0hPa | 2.6V | 00:00:00 | 02:02:37 | 00:00:00 | |
| OE5REO-15 | 2026-08-31 03:48:40 | 47.49236 | 12.71108 | 83° | 126km/h | 12338m | -12.5m/s | -57.4°C | 30.7% | 0hPa | 2.6V | 08:18:00 | 00:00:00 | 00:00:00 | |
| OE5WHR-10 | 2026-08-31 03:48:39 | 47.49226 | 12.71016 | 82° | 124km/h | 12360m | -9.2m/s | -57.4°C | 38.3% | 0hPa | 2.6V | 00:00:00 | 02:02:35 | 00:00:00 | |
| OE5HKT-10 | 2026-08-31 03:48:38 | 47.49221 | 12.70969 | 82° | 122km/h | 12370m | -9.2m/s | -57.5°C | 37.8% | 0hPa | 2.6V | 00:00:00 | 02:02:34 | 00:00:00 | |
| BAUMI2-15 | 2026-08-31 03:48:37 | 47.49217 | 12.70923 | 81° | 126km/h | 12379m | -9.5m/s | -57.5°C | 37.4% | 0hPa | 2.6V | 00:00:00 | 02:02:33 | 00:00:00 | |
| IN3HCDX | 2026-08-31 03:48:36 | 47.49217 | 12.70923 | 82° | 126km/h | 12379m | -9.6m/s | -57.6°C | 29.6% | 0hPa | 2.5V | 00:00:00 | 00:00:00 | 00:00:00 | |
| DB0NH | 2026-08-31 03:48:35 | 47.49207 | 12.70830 | 81° | 120km/h | 12403m | -11.5m/s | -57.7°C | 37.5% | 0hPa | 2.5V | 00:00:00 | 02:02:31 | 00:00:00 | |
| OE5MMP-10 | 2026-08-31 03:48:33 | 47.49196 | 12.70737 | 81° | 122km/h | 12424m | -9.4m/s | -57.8°C | 37.6% | 0hPa | 2.6V | 00:00:00 | 02:02:29 | 00:00:00 | |
| BAUMI2-15 | 2026-08-31 03:48:32 | 47.49191 | 12.70692 | 80° | 122km/h | 12433m | -9.3m/s | -57.7°C | 37.3% | 0hPa | 2.6V | 00:00:00 | 02:02:28 | 00:00:00 | |
| DO3MHA-11 | 2026-08-31 03:48:31 | 47.49185 | 12.70646 | 80° | 122km/h | 12442m | -8.9m/s | -57.6°C | 36.6% | 0hPa | 2.6V | 08:18:00 | 02:02:27 | 00:00:00 | |
| NBG1-10 | 2026-08-31 03:48:29 | 47.49173 | 12.70556 | 79° | 120km/h | 12463m | -10.8m/s | -57.6°C | 35.8% | 0hPa | 2.5V | 00:00:00 | 02:02:25 | 00:00:00 | |
| BAUMI2-15 | 2026-08-31 03:48:27 | 47.49161 | 12.70467 | 79° | 122km/h | 12483m | -8.3m/s | -57.6°C | 35.4% | 0hPa | 2.5V | 00:00:00 | 02:02:23 | 00:00:00 | |
| OE5REO-15 | 2026-08-31 03:48:24 | 47.49149 | 12.70377 | 79° | 122km/h | 12501m | -10.7m/s | -57.7°C | 27.5% | 0hPa | 2.5V | 08:19:00 | 00:00:00 | 00:00:00 | |
| DB0UT-7 | 2026-08-31 03:48:23 | 47.49136 | 12.70289 | 80° | 120km/h | 12523m | -10.8m/s | -57.6°C | 35.2% | 0hPa | 2.5V | 00:00:00 | 02:02:19 | 00:00:00 | |
| BAUMI2-15 | 2026-08-31 03:48:22 | 47.49130 | 12.70244 | 79° | 120km/h | 12532m | -8.2m/s | -57.5°C | 35.0% | 0hPa | 2.5V | 00:00:00 | 02:02:18 | 00:00:00 | |
| DO3MHA-11 | 2026-08-31 03:48:21 | 47.49124 | 12.70200 | 79° | 120km/h | 12540m | -7.8m/s | -57.5°C | 34.8% | 0hPa | 2.5V | 00:00:00 | 02:02:17 | 00:00:00 | |
| PG1ADW-2 | 2026-08-31 03:48:19 | 47.49112 | 12.70112 | 79° | 119km/h | 12557m | -7.6m/s | -57.5°C | 34.6% | 0hPa | 2.5V | 00:00:00 | 00:00:00 | 00:00:00 | |
| OE5WHR-10 | 2026-08-31 03:48:18 | 47.49106 | 12.70068 | 79° | 119km/h | 12565m | -8.9m/s | -57.6°C | 34.3% | 0hPa | 2.6V | 08:19:00 | 00:00:00 | 00:00:00 | |
| OE5HKT-10 | 2026-08-31 03:48:17 | 47.49100 | 12.70024 | 80° | 119km/h | 12575m | -9.7m/s | -57.6°C | 34.1% | 0hPa | 2.6V | 00:00:00 | 00:00:00 | 00:00:00 | |
| OE5MMP-10 | 2026-08-31 03:48:13 | 47.49078 | 12.69850 | 80° | 119km/h | 12615m | -11.1m/s | -57.8°C | 33.9% | 0hPa | 2.5V | 00:00:00 | 02:02:09 | 00:00:00 | |
| BAUMI2-15 | 2026-08-31 03:48:12 | 47.49073 | 12.69806 | 81° | 119km/h | 12625m | -7.9m/s | -57.8°C | 34.1% | 0hPa | 2.5V | 00:00:00 | 02:02:08 | 00:00:00 | |
| DG1MFX-10 | 2026-08-31 03:48:09 | 47.49063 | 12.69719 | 82° | 119km/h | 12642m | -9.1m/s | -58.0°C | 26.5% | 0hPa | 2.5V | 08:19:00 | 00:00:00 | 00:00:00 | |
| BAUMI2-15 | 2026-08-31 03:48:07 | 47.49048 | 12.69588 | 81° | 119km/h | 12669m | -9.5m/s | -58.0°C | 32.8% | 0hPa | 2.5V | 08:19:00 | 02:02:03 | 00:00:00 | |
| DL6DJ-15 | 2026-08-31 03:48:06 | 47.49039 | 12.69500 | 80° | 119km/h | 12689m | -9.8m/s | -58.2°C | 24.6% | -1.0hPa | 2.5V | 00:00:00 | 00:00:00 | 00:00:00 | |
| DB0NH | 2026-08-31 03:48:05 | 47.49039 | 12.69500 | 81° | 120km/h | 12689m | -9.8m/s | -58.1°C | 32.2% | 0hPa | 2.5V | 00:00:00 | 02:02:01 | 00:00:00 | |
| OE8JPQ-2 | 2026-08-31 03:48:03 | 47.49030 | 12.69412 | 82° | 120km/h | 12709m | -11.1m/s | -58.2°C | 31.7% | 0hPa | 2.5V | 00:00:00 | 00:00:00 | 00:00:00 | |
| BAUMI2-15 | 2026-08-31 03:48:02 | 47.49025 | 12.69369 | 83° | 120km/h | 12719m | -8.7m/s | -58.3°C | 31.7% | 0hPa | 2.5V | 00:00:00 | 02:01:58 | 00:00:00 | |
| DO3MHA-12 | 2026-08-31 03:48:01 | 47.49021 | 12.69324 | 82° | 120km/h | 12728m | -10.2m/s | -58.3°C | 31.5% | 0hPa | 2.5V | 00:00:00 | 02:01:57 | 00:00:00 | |
| OE5DRO-10 | 2026-08-31 03:48:00 | 47.49017 | 12.69280 | 83° | 120km/h | 12739m | -10.5m/s | -58.3°C | 31.5% | 0hPa | 2.5V | 00:00:00 | 00:00:00 | 00:00:00 | |
| PG1ADW-2 | 2026-08-31 03:47:59 | 47.49013 | 12.69236 | 82° | 120km/h | 12749m | -9.7m/s | -58.4°C | 32.0% | 0hPa | 2.6V | 00:00:00 | 00:00:00 | 00:00:00 | |
| OE3JTB-15 | 2026-08-31 03:47:58 | 47.49008 | 12.69192 | 82° | 120km/h | 12758m | -8.4m/s | -58.5°C | 32.4% | 0hPa | 2.6V | 00:00:00 | 00:00:00 | 00:00:00 | |
| OE5WHR-10 | 2026-08-31 03:47:57 | 47.49004 | 12.69147 | 82° | 122km/h | 12767m | -9.3m/s | -58.5°C | 32.8% | 0hPa | 2.6V | 00:00:00 | 00:00:00 | 00:00:00 | |
| OE5HKT-10 | 2026-08-31 03:47:56 | 47.48999 | 12.69103 | 82° | 91km/h | 12775m | -6.7m/s | -58.5°C | 33.1% | 0hPa | 2.6V | 00:00:00 | 00:00:00 | 00:00:00 | |
| OM5KV | 2026-08-31 03:47:54 | 47.48995 | 12.69058 | 82° | 122km/h | 12782m | -7.9m/s | -58.6°C | 25.3% | 0hPa | 2.6V | 08:19:00 | 00:00:00 | 00:00:00 | |
| DB0UT-7 | 2026-08-31 03:47:53 | 47.48986 | 12.68968 | 83° | 119km/h | 12798m | -7.1m/s | -58.6°C | 32.0% | 0hPa | 2.6V | 00:00:00 | 00:00:00 | 00:00:00 | |
| OE5DXL-15 | 2026-08-31 03:47:52 | 47.48981 | 12.68922 | 82° | 119km/h | 12806m | -9.5m/s | -58.7°C | 31.4% | 0hPa | 2.6V | 00:00:00 | 00:00:00 | 00:00:00 | |
| DO3MHA-12 | 2026-08-31 03:47:51 | 47.48977 | 12.68877 | 83° | 120km/h | 12816m | -11.0m/s | -58.7°C | 31.1% | 0hPa | 2.6V | 00:00:00 | 02:01:47 | 00:00:00 | |
| DO3MHA-11 | 2026-08-31 03:47:48 | 47.48963 | 12.68743 | 82° | 120km/h | 12848m | -11.4m/s | -58.9°C | 30.4% | 0hPa | 2.5V | 00:00:00 | 02:01:44 | 00:00:00 | |
| BAUMI2-15 | 2026-08-31 03:47:47 | 47.48958 | 12.68699 | 81° | 120km/h | 12860m | -13.4m/s | -58.9°C | 30.0% | 0hPa | 2.5V | 00:00:00 | 02:01:43 | 00:00:00 | |
| OE5MMP-10 | 2026-08-31 03:47:43 | 47.48938 | 12.68520 | 81° | 120km/h | 12907m | -10.1m/s | -59.2°C | 30.2% | 0hPa | 2.5V | 08:19:00 | 02:01:39 | 00:00:00 | |
| BAUMI2-15 | 2026-08-31 03:47:42 | 47.48934 | 12.68475 | 81° | 122km/h | 12917m | -11.4m/s | -59.3°C | 30.3% | 0hPa | 2.5V | 00:00:00 | 02:01:38 | 00:00:00 | |
| DO3MHA-12 | 2026-08-31 03:47:41 | 47.48929 | 12.68430 | 81° | 120km/h | 12928m | -9.9m/s | -59.3°C | 30.3% | 0hPa | 2.5V | 00:00:00 | 02:01:37 | 00:00:00 | |
| OM5KV | 2026-08-31 03:47:40 | 47.48929 | 12.68430 | 82° | 122km/h | 12928m | -9.9m/s | -59.4°C | 23.0% | 0hPa | 2.5V | 08:19:00 | 00:00:00 | 00:00:00 | |
| PG1ADW-2 | 2026-08-31 03:47:39 | 47.48919 | 12.68340 | 81° | 115km/h | 12946m | -8.4m/s | -59.4°C | 29.9% | 0hPa | 2.5V | 00:00:00 | 00:00:00 | 00:00:00 | |
| DO3MHA-11 | 2026-08-31 03:47:38 | 47.48914 | 12.68295 | 82° | 119km/h | 12957m | -11.6m/s | -59.4°C | 29.9% | 0hPa | 2.5V | 00:00:00 | 02:01:34 | 00:00:00 | |
| BAUMI2-15 | 2026-08-31 03:47:37 | 47.48910 | 12.68251 | 83° | 119km/h | 12967m | -9.2m/s | -59.4°C | 30.1% | 0hPa | 2.5V | 00:00:00 | 02:01:33 | 00:00:00 | |
| OE5WHR-10 | 2026-08-31 03:47:36 | 47.48905 | 12.68207 | 82° | 113km/h | 12977m | -8.8m/s | -59.5°C | 30.3% | 0hPa | 2.5V | 00:00:00 | 02:01:32 | 00:00:00 | |
| DB0NH | 2026-08-31 03:47:35 | 47.48901 | 12.68162 | 83° | 111km/h | 12985m | -8.0m/s | -59.5°C | 30.2% | 0hPa | 2.5V | 00:00:00 | 02:01:31 | 00:00:00 | |
| OE5MMP-10 | 2026-08-31 03:47:33 | 47.48892 | 12.68076 | 82° | 115km/h | 13004m | -10.7m/s | -59.6°C | 29.9% | 0hPa | 2.5V | 00:00:00 | 02:01:29 | 00:00:00 | |
| BAUMI2-15 | 2026-08-31 03:47:32 | 47.48888 | 12.68032 | 83° | 117km/h | 13015m | -10.7m/s | -59.6°C | 29.8% | 0hPa | 2.5V | 00:00:00 | 02:01:28 | 00:00:00 | |
| DO3MHA-12 | 2026-08-31 03:47:31 | 47.48884 | 12.67988 | 82° | 113km/h | 13025m | -10.5m/s | -59.6°C | 29.8% | 0hPa | 2.5V | 00:00:00 | 02:01:27 | 00:00:00 | |
| OE3JTB-15 | 2026-08-31 03:47:29 | 47.48876 | 12.67903 | 82° | 110km/h | 13045m | -10.4m/s | -59.7°C | 29.3% | 0hPa | 2.5V | 00:00:00 | 00:00:00 | 00:00:00 | |
| DO3MHA-11 | 2026-08-31 03:47:28 | 47.48872 | 12.67860 | 82° | 111km/h | 13056m | -12.9m/s | -59.8°C | 29.0% | 0hPa | 2.5V | 00:00:00 | 02:01:24 | 00:00:00 | |
| BAUMI2-15 | 2026-08-31 03:47:27 | 47.48868 | 12.67817 | 82° | 113km/h | 13069m | -12.2m/s | -59.8°C | 29.0% | 0hPa | 2.5V | 00:00:00 | 02:01:23 | 00:00:00 | |
| OE5MMP-10 | 2026-08-31 03:47:23 | 47.48850 | 12.67651 | 81° | 110km/h | 13112m | -9.9m/s | -60.0°C | 28.3% | 0hPa | 2.5V | 00:00:00 | 02:01:19 | 00:00:00 | |
| OE5DXL-15 | 2026-08-31 03:47:22 | 47.48845 | 12.67610 | 81° | 110km/h | 13122m | -10.2m/s | -60.0°C | 28.0% | 0hPa | 2.5V | 00:00:00 | 00:00:00 | 00:00:00 | |
| DO3MHA-12 | 2026-08-31 03:47:21 | 47.48840 | 12.67570 | 81° | 110km/h | 13134m | -14.0m/s | -60.0°C | 27.5% | 0hPa | 2.5V | 00:00:00 | 02:01:17 | 00:00:00 | |
| OE5REO-15 | 2026-08-31 03:47:20 | 47.48841 | 12.67570 | 81° | 110km/h | 13134m | -14.1m/s | -60.0°C | 20.5% | 0hPa | 2.6V | 08:20:00 | 00:00:00 | 00:00:00 | |
| PG1ADW-2 | 2026-08-31 03:47:19 | 47.48830 | 12.67489 | 81° | 110km/h | 13161m | -11.1m/s | -59.9°C | 27.4% | 0hPa | 2.6V | 00:00:00 | 02:01:15 | 00:00:00 | |
| DO3MHA-11 | 2026-08-31 03:47:18 | 47.48826 | 12.67449 | 81° | 110km/h | 13172m | -10.8m/s | -60.0°C | 27.2% | 0hPa | 2.5V | 00:00:00 | 02:01:14 | 00:00:00 | |
| BAUMI2-15 | 2026-08-31 03:47:17 | 47.48821 | 12.67409 | 81° | 110km/h | 13183m | -11.4m/s | -60.0°C | 27.2% | 0hPa | 2.5V | 00:00:00 | 02:01:13 | 00:00:00 | |
| OE5WHR-10 | 2026-08-31 03:47:15 | 47.48812 | 12.67330 | 80° | 110km/h | 13205m | -11.1m/s | -60.1°C | 26.6% | 0hPa | 2.5V | 00:00:00 | 00:00:00 | 00:00:00 | |
| OE5MMP-10 | 2026-08-31 03:47:13 | 47.48802 | 12.67249 | 81° | 110km/h | 13228m | -10.9m/s | -60.1°C | 26.0% | 0hPa | 2.6V | 00:00:00 | 02:01:09 | 00:00:00 | |
| BAUMI2-15 | 2026-08-31 03:47:12 | 47.48798 | 12.67208 | 82° | 110km/h | 13239m | -9.4m/s | -60.1°C | 25.7% | 0hPa | 2.6V | 00:00:00 | 02:01:08 | 00:00:00 | |
| DO3MHA-12 | 2026-08-31 03:47:11 | 47.48794 | 12.67167 | 82° | 110km/h | 13248m | -9.4m/s | -60.1°C | 25.5% | 0hPa | 2.6V | 00:00:00 | 02:01:07 | 00:00:00 | |
| IN3HCDX | 2026-08-31 03:47:10 | 47.48794 | 12.67167 | 83° | 110km/h | 13248m | -9.5m/s | -60.2°C | 18.8% | 0hPa | 2.6V | 08:20:00 | 00:00:00 | 00:00:00 | |
| DO3MHA-11 | 2026-08-31 03:47:08 | 47.48782 | 12.67047 | 82° | 110km/h | 13278m | -10.7m/s | -60.3°C | 25.1% | 0hPa | 2.6V | 00:00:00 | 02:01:04 | 00:00:00 | |
| BAUMI2-15 | 2026-08-31 03:47:07 | 47.48777 | 12.67007 | 82° | 110km/h | 13289m | -10.3m/s | -60.3°C | 25.1% | 0hPa | 2.6V | 00:00:00 | 02:01:03 | 00:00:00 | |
| DB0NH | 2026-08-31 03:47:05 | 47.48770 | 12.66927 | 82° | 108km/h | 13308m | -9.6m/s | -60.5°C | 24.9% | 0hPa | 2.5V | 00:00:00 | 02:01:01 | 00:00:00 | |
| DL6DJ-15 | 2026-08-31 03:47:04 | 47.48762 | 12.66847 | 81° | 110km/h | 13328m | -9.8m/s | -60.6°C | 17.5% | -1.0hPa | 2.5V | 00:00:00 | 00:00:00 | 00:00:00 | |
| OE5MMP-10 | 2026-08-31 03:47:03 | 47.48762 | 12.66847 | 82° | 108km/h | 13328m | -9.8m/s | -60.6°C | 24.7% | 0hPa | 2.5V | 00:00:00 | 02:00:59 | 00:00:00 | |
| BAUMI2-15 | 2026-08-31 03:47:02 | 47.48758 | 12.66806 | 83° | 110km/h | 13337m | -9.3m/s | -60.6°C | 24.4% | 0hPa | 2.5V | 00:00:00 | 02:00:58 | 00:00:00 | |
| DO3MHA-12 | 2026-08-31 03:47:01 | 47.48754 | 12.66766 | 83° | 108km/h | 13347m | -9.0m/s | -60.6°C | 24.2% | 0hPa | 2.5V | 00:00:00 | 02:00:57 | 00:00:00 | |
| OE3JTB-15 | 2026-08-31 03:47:00 | 47.48750 | 12.66726 | 82° | 110km/h | 13356m | -9.5m/s | -60.6°C | 23.7% | 0hPa | 2.5V | 00:00:00 | 02:00:56 | 00:00:00 | |
| PG1ADW-2 | 2026-08-31 03:46:59 | 47.48746 | 12.66686 | 82° | 108km/h | 13365m | -9.5m/s | -60.5°C | 23.3% | 0hPa | 2.5V | 00:00:00 | 00:00:00 | 00:00:00 | |
| DO3MHA-11 | 2026-08-31 03:46:58 | 47.48742 | 12.66645 | 81° | 108km/h | 13375m | -9.3m/s | -60.5°C | 23.1% | 0hPa | 2.5V | 00:00:00 | 02:00:54 | 00:00:00 | |
| BAUMI2-15 | 2026-08-31 03:46:57 | 47.48738 | 12.66605 | 82° | 108km/h | 13384m | -9.0m/s | -60.5°C | 22.8% | 0hPa | 2.5V | 00:00:00 | 02:00:53 | 00:00:00 | |
| OE5WHR-10 | 2026-08-31 03:46:54 | 47.48725 | 12.66486 | 80° | 110km/h | 13413m | -10.5m/s | -60.6°C | 22.1% | 0hPa | 2.5V | 00:00:00 | 00:00:00 | 00:00:00 | |
| DB0UT-7 | 2026-08-31 03:46:53 | 47.48720 | 12.66447 | 80° | 111km/h | 13423m | -10.7m/s | -60.7°C | 22.0% | 0hPa | 2.5V | 00:00:00 | 00:00:00 | 00:00:00 | |
| OE5DXL-15 | 2026-08-31 03:46:52 | 47.48715 | 12.66407 | 80° | 111km/h | 13434m | -10.5m/s | -60.8°C | 22.0% | 0hPa | 2.5V | 00:00:00 | 00:00:00 | 00:00:00 | |
| DO3MHA-12 | 2026-08-31 03:46:51 | 47.48709 | 12.66367 | 80° | 108km/h | 13444m | -10.0m/s | -60.8°C | 21.9% | 0hPa | 2.5V | 08:20:00 | 02:00:47 | 00:00:00 | |
| NBG1-10 | 2026-08-31 03:46:50 | 47.48704 | 12.66327 | 80° | 113km/h | 13454m | -9.4m/s | -60.9°C | 21.8% | 0hPa | 2.6V | 00:00:00 | 02:00:46 | 00:00:00 | |
| OE5REO-15 | 2026-08-31 03:46:49 | 47.48704 | 12.66327 | 81° | 108km/h | 13454m | -9.5m/s | -61.0°C | 15.4% | 0hPa | 2.6V | 08:20:00 | 00:00:00 | 00:00:00 | |
| DO3MHA-11 | 2026-08-31 03:46:48 | 47.48694 | 12.66248 | 79° | 108km/h | 13473m | -9.5m/s | -61.1°C | 21.9% | 0hPa | 2.6V | 08:20:00 | 02:00:44 | 00:00:00 | |
| DG1MFX-10 | 2026-08-31 03:46:47 | 47.48694 | 12.66248 | 80° | 106km/h | 13473m | -9.6m/s | -61.2°C | 15.4% | 0hPa | 2.5V | 08:20:00 | 00:00:00 | 00:00:00 | |
| OE5DRO-10 | 2026-08-31 03:46:44 | 47.48671 | 12.66090 | 79° | 113km/h | 13512m | -9.3m/s | -61.5°C | 21.7% | 0hPa | 2.5V | 00:00:00 | 00:00:00 | 00:00:00 | |
| OE5MMP-10 | 2026-08-31 03:46:43 | 47.48665 | 12.66051 | 78° | 110km/h | 13522m | -9.7m/s | -61.5°C | 21.5% | 0hPa | 2.5V | 00:00:00 | 02:00:39 | 00:00:00 | |
| DO3MHA-12 | 2026-08-31 03:46:41 | 47.48653 | 12.65972 | 78° | 111km/h | 13541m | -9.1m/s | -61.6°C | 21.0% | 0hPa | 2.5V | 00:00:00 | 02:00:37 | 00:00:00 | |
| PG1ADW-2 | 2026-08-31 03:46:39 | 47.48642 | 12.65892 | 79° | 115km/h | 13558m | -8.7m/s | -61.6°C | 20.0% | 0hPa | 2.5V | 00:00:00 | 00:00:00 | 00:00:00 | |
| DO3MHA-11 | 2026-08-31 03:46:38 | 47.48636 | 12.65852 | 78° | 113km/h | 13569m | -11.7m/s | -61.5°C | 19.6% | 0hPa | 2.5V | 00:00:00 | 02:00:34 | 00:00:00 | |
| DB0NH | 2026-08-31 03:46:35 | 47.48618 | 12.65732 | 78° | 113km/h | 13606m | -12.5m/s | -61.2°C | 18.7% | 0hPa | 2.5V | 00:00:00 | 02:00:31 | 00:00:00 | |
| DL6DJ-15 | 2026-08-31 03:46:33 | 47.48601 | 12.65609 | 78° | 113km/h | 13639m | -9.0m/s | -61.4°C | 12.3% | -1.0hPa | 2.5V | 00:00:00 | 00:00:00 | 00:00:00 | |
| DO3MHA-12 | 2026-08-31 03:46:31 | 47.48595 | 12.65567 | 78° | 117km/h | 13649m | -10.9m/s | -61.3°C | 18.1% | 0hPa | 2.5V | 00:00:00 | 02:00:27 | 00:00:00 | |
| IN3HCDX | 2026-08-31 03:46:29 | 47.48589 | 12.65525 | 80° | 117km/h | 13661m | -12.0m/s | -61.4°C | 12.0% | 0hPa | 2.5V | 08:21:00 | 00:00:00 | 00:00:00 | |
| DO3MHA-11 | 2026-08-31 03:46:28 | 47.48578 | 12.65439 | 81° | 117km/h | 13685m | -13.4m/s | -61.3°C | 17.4% | 0hPa | 2.5V | 00:00:00 | 02:00:24 | 00:00:00 | |
| DG1MFX-10 | 2026-08-31 03:46:27 | 47.48578 | 12.65439 | 81° | 119km/h | 13685m | -13.4m/s | -61.4°C | 11.7% | 0hPa | 2.5V | 08:21:00 | 00:00:00 | 00:00:00 | |
| OE5DRO-10 | 2026-08-31 03:46:25 | 47.48565 | 12.65310 | 83° | 113km/h | 13725m | -14.5m/s | -61.4°C | 16.8% | 0hPa | 2.5V | 00:00:00 | 00:00:00 | 00:00:00 | |
| OE5MMP-10 | 2026-08-31 03:46:23 | 47.48557 | 12.65224 | 83° | 115km/h | 13753m | -12.6m/s | -61.5°C | 16.9% | 0hPa | 2.5V | 00:00:00 | 02:00:19 | 00:00:00 | |
| OE5DXL-15 | 2026-08-31 03:46:22 | 47.48553 | 12.65181 | 83° | 110km/h | 13765m | -12.7m/s | -61.5°C | 16.8% | 0hPa | 2.5V | 00:00:00 | 00:00:00 | 00:00:00 | |
| DO3MHA-12 | 2026-08-31 03:46:21 | 47.48549 | 12.65138 | 84° | 113km/h | 13777m | -11.2m/s | -61.6°C | 16.8% | 0hPa | 2.5V | 00:00:00 | 02:00:17 | 00:00:00 | |
| DO3MHA-11 | 2026-08-31 03:46:18 | 47.48538 | 12.65010 | 82° | 113km/h | 13808m | -8.9m/s | -61.8°C | 16.9% | 0hPa | 2.5V | 00:00:00 | 02:00:14 | 00:00:00 | |
| NBG1-10 | 2026-08-31 03:46:17 | 47.48534 | 12.64969 | 83° | 108km/h | 13817m | -8.8m/s | -61.8°C | 16.5% | 0hPa | 2.5V | 00:00:00 | 02:00:13 | 00:00:00 | |
| PG1ADW-2 | 2026-08-31 03:46:14 | 47.48522 | 12.64843 | 83° | 108km/h | 13849m | -8.2m/s | -62.0°C | 16.0% | 0hPa | 2.5V | 08:21:00 | 00:00:00 | 00:00:00 | |
| OE5MMP-10 | 2026-08-31 03:46:13 | 47.48519 | 12.64801 | 84° | 111km/h | 13858m | -10.4m/s | -62.0°C | 15.7% | 0hPa | 2.5V | 08:21:00 | 02:00:09 | 00:00:00 | |
| OE5WHR-10 | 2026-08-31 03:46:12 | 47.48515 | 12.64760 | 83° | 106km/h | 13869m | -12.2m/s | -62.1°C | 15.5% | 0hPa | 2.5V | 00:00:00 | 00:00:00 | 00:00:00 | |
| DO3MHA-12 | 2026-08-31 03:46:11 | 47.48511 | 12.64718 | 82° | 110km/h | 13882m | -12.9m/s | -61.9°C | 15.0% | 0hPa | 2.5V | 00:00:00 | 02:00:07 | 00:00:00 | |
| DO3MHA-11 | 2026-08-31 03:46:08 | 47.48499 | 12.64595 | 82° | 108km/h | 13914m | -11.8m/s | -61.8°C | 14.6% | 0hPa | 2.5V | 00:00:00 | 02:00:04 | 00:00:00 | |
| OE5DRO-10 | 2026-08-31 03:46:06 | 47.48490 | 12.64515 | 81° | 104km/h | 13937m | -9.2m/s | -61.8°C | 14.6% | 0hPa | 2.5V | 00:00:00 | 00:00:00 | 00:00:00 | |
| DB0NH | 2026-08-31 03:46:05 | 47.48486 | 12.64475 | 82° | 104km/h | 13946m | -9.3m/s | -61.7°C | 14.4% | 0hPa | 2.5V | 00:00:00 | 02:00:01 | 00:00:00 | |
| OE8JPQ-2 | 2026-08-31 03:46:03 | 47.48477 | 12.64396 | 82° | 104km/h | 13964m | -8.8m/s | -61.5°C | 14.0% | 0hPa | 2.5V | 00:00:00 | 00:00:00 | 00:00:00 | |
| OE3JTB-15 | 2026-08-31 03:46:02 | 47.48473 | 12.64356 | 81° | 104km/h | 13973m | -8.4m/s | -61.5°C | 13.7% | 0hPa | 2.5V | 00:00:00 | 00:00:00 | 00:00:00 | |
| DO3MHA-12 | 2026-08-31 03:46:01 | 47.48469 | 12.64317 | 81° | 104km/h | 13982m | -10.1m/s | -61.4°C | 13.4% | 0hPa | 2.5V | 00:00:00 | 01:59:57 | 00:00:00 | |
| DO3MHA-11 | 2026-08-31 03:45:58 | 47.48457 | 12.64200 | 83° | 102km/h | 14016m | -12.0m/s | -61.2°C | 12.5% | 0hPa | 2.5V | 00:00:00 | 01:59:54 | 00:00:00 | |
| DB0UT-7 | 2026-08-31 03:45:53 | 47.48438 | 12.64010 | 82° | 100km/h | 14070m | -8.4m/s | -61.3°C | 12.2% | 0hPa | 2.5V | 00:00:00 | 00:00:00 | 00:00:00 | |
| OE5DXL-15 | 2026-08-31 03:45:52 | 47.48435 | 12.63972 | 83° | 99km/h | 14079m | -10.2m/s | -61.2°C | 12.0% | 0hPa | 2.5V | 00:00:00 | 00:00:00 | 00:00:00 | |
| OE5WHR-10 | 2026-08-31 03:45:51 | 47.48431 | 12.63934 | 81° | 102km/h | 14089m | -11.0m/s | -61.1°C | 11.8% | 0hPa | 2.5V | 00:00:00 | 00:00:00 | 00:00:00 | |
| DO3MHA-11 | 2026-08-31 03:45:48 | 47.48419 | 12.63820 | 81° | 104km/h | 14120m | -10.4m/s | -60.7°C | 11.2% | 0hPa | 2.5V | 00:00:00 | 01:59:44 | 00:00:00 | |
| OE5DRO-10 | 2026-08-31 03:45:47 | 47.48416 | 12.63782 | 83° | 102km/h | 14132m | -11.1m/s | -60.4°C | 10.9% | 0hPa | 2.6V | 00:00:00 | 00:00:00 | 00:00:00 | |
| DG1MFX-10 | 2026-08-31 03:45:46 | 47.48416 | 12.63782 | 84° | 104km/h | 14132m | -11.1m/s | -60.5°C | 6.2% | 0hPa | 2.6V | 08:22:00 | 00:00:00 | 00:00:00 | |
| NBG1-10 | 2026-08-31 03:45:44 | 47.48405 | 12.63664 | 83° | 91km/h | 14165m | -10.2m/s | -60.0°C | 10.3% | 0hPa | 2.6V | 00:00:00 | 01:59:40 | 00:00:00 | |
| OE5MMP-10 | 2026-08-31 03:45:43 | 47.48402 | 12.63624 | 83° | 104km/h | 14175m | -11.0m/s | -59.9°C | 10.2% | 0hPa | 2.5V | 00:00:00 | 01:59:39 | 00:00:00 | |
| DO3MHA-12 | 2026-08-31 03:45:41 | 47.48395 | 12.63546 | 84° | 102km/h | 14196m | -11.6m/s | -59.6°C | 9.7% | 0hPa | 2.5V | 00:00:00 | 01:59:37 | 00:00:00 | |
| DO3MHA-11 | 2026-08-31 03:45:38 | 47.48386 | 12.63431 | 85° | 99km/h | 14231m | -10.3m/s | -59.3°C | 9.1% | 0hPa | 2.5V | 00:00:00 | 01:59:34 | 00:00:00 | |
| DB0NH | 2026-08-31 03:45:35 | 47.48377 | 12.63317 | 84° | 84km/h | 14263m | -9.9m/s | -59.1°C | 9.0% | 0hPa | 2.5V | 08:21:00 | 01:59:31 | 00:00:00 | |
| OE5MMP-10 | 2026-08-31 03:45:33 | 47.48371 | 12.63242 | 83° | 91km/h | 14283m | -12.0m/s | -58.7°C | 8.6% | 0hPa | 2.5V | 00:00:00 | 01:59:29 | 00:00:00 | |
| PG1ADW-2 | 2026-08-31 03:45:31 | 47.48365 | 12.63170 | 82° | 82km/h | 14304m | -10.9m/s | -58.3°C | 8.3% | 0hPa | 2.5V | 00:00:00 | 00:00:00 | 00:00:00 | |
| OE5WHR-10 | 2026-08-31 03:45:30 | 47.48362 | 12.63135 | 84° | 82km/h | 14316m | -11.1m/s | -58.2°C | 8.1% | 0hPa | 2.5V | 00:00:00 | 01:59:26 | 00:00:00 | |
| OE5DRO-10 | 2026-08-31 03:45:28 | 47.48355 | 12.63067 | 83° | 80km/h | 14338m | -12.5m/s | -58.1°C | 8.1% | 0hPa | 2.5V | 00:00:00 | 00:00:00 | 00:00:00 | |
| IN3HCDX | 2026-08-31 03:45:26 | 47.48353 | 12.63034 | 85° | 89km/h | 14349m | -10.0m/s | -58.2°C | 4.3% | 0hPa | 2.5V | 08:22:00 | 00:00:00 | 00:00:00 | |
| DG1MFX-10 | 2026-08-31 03:45:25 | 47.48350 | 12.63001 | 82° | 88km/h | 14359m | -10.6m/s | -58.3°C | 4.3% | 0hPa | 2.5V | 08:22:00 | 00:00:00 | 00:00:00 | |
| OE8JPQ-2 | 2026-08-31 03:45:23 | 47.48340 | 12.62906 | 81° | 77km/h | 14392m | -9.3m/s | -58.3°C | 8.2% | 0hPa | 2.5V | 00:00:00 | 00:00:00 | 00:00:00 | |
| OE5DXL-15 | 2026-08-31 03:45:22 | 47.48337 | 12.62876 | 82° | 77km/h | 14401m | -7.4m/s | -58.3°C | 8.2% | 0hPa | 2.5V | 00:00:00 | 00:00:00 | 00:00:00 | |
| DO3MHA-12 | 2026-08-31 03:45:21 | 47.48334 | 12.62846 | 80° | 77km/h | 14409m | -10.9m/s | -58.3°C | 8.0% | 0hPa | 2.5V | 08:22:00 | 01:59:17 | 00:00:00 | |
| DO3MHA-11 | 2026-08-31 03:45:18 | 47.48322 | 12.62759 | 78° | 75km/h | 14440m | -10.9m/s | -58.3°C | 8.0% | 0hPa | 2.5V | 08:22:00 | 01:59:14 | 00:00:00 | |
| DB0ND-19 | 2026-08-31 03:45:14 | 47.48304 | 12.62648 | 74° | 77km/h | 14480m | -10.9m/s | -58.3°C | 3.8% | -1.0hPa | 2.6V | 00:00:00 | 00:00:00 | 00:00:00 | |
| OE5MMP-10 | 2026-08-31 03:45:13 | 47.48298 | 12.62621 | 73° | 73km/h | 14491m | -10.7m/s | -58.2°C | 7.8% | 0hPa | 2.6V | 00:00:00 | 01:59:09 | 00:00:00 | |
| DO3MHA-12 | 2026-08-31 03:45:11 | 47.48287 | 12.62567 | 71° | 73km/h | 14511m | -9.8m/s | -57.9°C | 7.7% | 0hPa | 2.5V | 00:00:00 | 01:59:07 | 00:00:00 | |
| PG1ADW-2 | 2026-08-31 03:45:10 | 47.48281 | 12.62541 | 71° | 77km/h | 14521m | -11.0m/s | -57.8°C | 7.7% | 0hPa | 2.5V | 00:00:00 | 00:00:00 | 00:00:00 | |
| OE5WHR-10 | 2026-08-31 03:45:09 | 47.48274 | 12.62515 | 70° | 78km/h | 14532m | -10.6m/s | -57.8°C | 7.6% | 0hPa | 2.5V | 08:22:00 | 00:00:00 | 00:00:00 | |
| DO3MHA-11 | 2026-08-31 03:45:08 | 47.48267 | 12.62490 | 68° | 75km/h | 14543m | -10.6m/s | -57.5°C | 7.4% | 0hPa | 2.5V | 00:00:00 | 01:59:04 | 00:00:00 | |
| DF7PN | 2026-08-31 03:45:07 | 47.48247 | 12.62413 | 67° | 73km/h | 14577m | -10.5m/s | -57.6°C | 3.6% | -1.0hPa | 2.5V | 00:00:00 | 00:00:00 | 00:00:00 | |
| DB0NH | 2026-08-31 03:45:05 | 47.48247 | 12.62413 | 68° | 82km/h | 14577m | -10.5m/s | -57.5°C | 7.4% | 0hPa | 2.5V | 00:00:00 | 01:59:01 | 00:00:00 | |
| DG1MFX-10 | 2026-08-31 03:45:04 | 47.48247 | 12.62413 | 69° | 75km/h | 14577m | -10.5m/s | -57.6°C | 3.8% | 0hPa | 2.5V | 08:22:00 | 00:00:00 | 00:00:00 | |
| DL6DJ-15 | 2026-08-31 03:44:59 | 47.48201 | 12.62258 | 65° | 78km/h | 14644m | -12.2m/s | -57.8°C | 3.6% | -1.0hPa | 2.5V | 00:00:00 | 00:00:00 | 00:00:00 | |
| DO3MHA-11 | 2026-08-31 03:44:58 | 47.48193 | 12.62232 | 65° | 82km/h | 14657m | -11.1m/s | -57.8°C | 7.4% | 0hPa | 2.5V | 00:00:00 | 01:58:54 | 00:00:00 | |
| DB0UT-7 | 2026-08-31 03:44:53 | 47.48150 | 12.62097 | 65° | 86km/h | 14712m | -12.9m/s | -58.0°C | 7.2% | 0hPa | 2.5V | 00:00:00 | 00:00:00 | 00:00:00 | |
| OE5DXL-15 | 2026-08-31 03:44:52 | 47.48141 | 12.62070 | 64° | 86km/h | 14725m | -13.0m/s | -58.0°C | 7.3% | 0hPa | 2.5V | 00:00:00 | 00:00:00 | 00:00:00 | |
| DO3MHA-12 | 2026-08-31 03:44:51 | 47.48132 | 12.62042 | 66° | 88km/h | 14738m | -12.1m/s | -58.1°C | 7.3% | 0hPa | 2.5V | 00:00:00 | 01:58:47 | 00:00:00 | |
| OE5DRO-10 | 2026-08-31 03:44:50 | 47.48123 | 12.62013 | 67° | 88km/h | 14749m | -10.4m/s | -58.1°C | 7.3% | 0hPa | 2.6V | 00:00:00 | 00:00:00 | 00:00:00 | |
| DO3MHA-11 | 2026-08-31 03:44:48 | 47.48104 | 12.61954 | 67° | 88km/h | 14771m | -12.7m/s | -58.1°C | 7.4% | 0hPa | 2.6V | 00:00:00 | 01:58:44 | 00:00:00 | |
| S52SK | 2026-08-31 03:44:45 | 47.48086 | 12.61893 | 67° | 88km/h | 14792m | -8.0m/s | -58.3°C | 0% | 0hPa | 2.5V | 00:00:00 | 00:00:00 | 00:00:00 | |
| DG1MFX-10 | 2026-08-31 03:44:44 | 47.48077 | 12.61863 | 68° | 91km/h | 14799m | -6.3m/s | -58.4°C | 3.9% | 0hPa | 2.5V | 08:23:00 | 00:00:00 | 00:00:00 | |
| BAUMI2-15 | 2026-08-31 03:44:43 | 47.48058 | 12.61803 | 67° | 88km/h | 14820m | -12.9m/s | -58.3°C | 7.5% | 0hPa | 2.5V | 00:00:00 | 01:58:39 | 00:00:00 | |
| DO3MHA-12 | 2026-08-31 03:44:41 | 47.48041 | 12.61742 | 67° | 86km/h | 14841m | -9.2m/s | -58.4°C | 7.7% | 0hPa | 2.5V | 00:00:00 | 01:58:37 | 00:00:00 | |
| DO3MHA-11 | 2026-08-31 03:44:38 | 47.48014 | 12.61653 | 66° | 86km/h | 14872m | -11.6m/s | -58.6°C | 7.7% | 0hPa | 2.5V | 00:00:00 | 01:58:34 | 00:00:00 | |
| DB0NH | 2026-08-31 03:44:35 | 47.47986 | 12.61565 | 65° | 80km/h | 14902m | -10.5m/s | -58.7°C | 7.7% | 0hPa | 2.5V | 00:00:00 | 01:58:31 | 00:00:00 | |
| S52SK | 2026-08-31 03:44:34 | 47.47986 | 12.61565 | 66° | 89km/h | 14902m | -10.5m/s | -58.8°C | 0% | 0hPa | 2.5V | 00:00:00 | 00:00:00 | 00:00:00 | |
| BAUMI2-15 | 2026-08-31 03:44:33 | 47.47967 | 12.61507 | 64° | 84km/h | 14925m | -12.0m/s | -58.5°C | 7.4% | 0hPa | 2.5V | 00:00:00 | 01:58:29 | 00:00:00 | |
| DO3MHA-12 | 2026-08-31 03:44:31 | 47.47949 | 12.61450 | 65° | 82km/h | 14952m | -14.8m/s | -58.5°C | 7.3% | 0hPa | 2.5V | 00:00:00 | 01:58:27 | 00:00:00 | |
| PG1ADW-2 | 2026-08-31 03:44:30 | 47.47940 | 12.61422 | 65° | 80km/h | 14966m | -11.5m/s | -58.6°C | 7.3% | 0hPa | 2.5V | 00:00:00 | 01:58:26 | 00:00:00 | |
| DO3MHA-11 | 2026-08-31 03:44:28 | 47.47922 | 12.61367 | 67° | 82km/h | 14992m | -13.3m/s | -58.7°C | 7.5% | 0hPa | 2.5V | 00:00:00 | 01:58:24 | 00:00:00 | |
| OE5WHR-10 | 2026-08-31 03:44:27 | 47.47913 | 12.61339 | 65° | 80km/h | 15004m | -11.7m/s | -58.8°C | 7.5% | 0hPa | 2.5V | 00:00:00 | 01:58:23 | 00:00:00 | |
| IN3HCDX | 2026-08-31 03:44:24 | 47.47896 | 12.61283 | 65° | 80km/h | 15027m | -11.2m/s | -58.9°C | 3.6% | 0hPa | 2.5V | 00:00:00 | 00:00:00 | 00:00:00 | |
| OE5MMP-10 | 2026-08-31 03:44:23 | 47.47879 | 12.61226 | 67° | 82km/h | 15050m | -10.5m/s | -58.9°C | 7.5% | 0hPa | 2.5V | 00:00:00 | 01:58:19 | 00:00:00 | |
| OE5DXL-15 | 2026-08-31 03:44:22 | 47.47872 | 12.61198 | 71° | 77km/h | 15060m | -9.2m/s | -58.8°C | 7.5% | 0hPa | 2.5V | 00:00:00 | 00:00:00 | 00:00:00 | |
| DO3MHA-12 | 2026-08-31 03:44:21 | 47.47864 | 12.61169 | 69° | 80km/h | 15069m | -9.3m/s | -58.7°C | 7.4% | 0hPa | 2.5V | 00:00:00 | 01:58:17 | 00:00:00 | |
| DG1MJG | 2026-08-31 03:44:20 | 47.47864 | 12.61169 | 69° | 82km/h | 15069m | -9.4m/s | -58.8°C | 3.7% | 0hPa | 2.6V | 08:23:00 | 00:00:00 | 00:00:00 | |
| DO3MHA-11 | 2026-08-31 03:44:18 | 47.47844 | 12.61082 | 72° | 78km/h | 15102m | -11.2m/s | -58.5°C | 7.1% | 0hPa | 2.6V | 00:00:00 | 01:58:14 | 00:00:00 | |
| OE5DRO-10 | 2026-08-31 03:44:12 | 47.47812 | 12.60910 | 75° | 73km/h | 15174m | -14.6m/s | -58.8°C | 7.1% | 0hPa | 2.6V | 08:23:00 | 00:00:00 | 00:00:00 | |
| DO3MHA-12 | 2026-08-31 03:44:11 | 47.47807 | 12.60881 | 78° | 75km/h | 15187m | -12.1m/s | -58.8°C | 7.2% | 0hPa | 2.5V | 00:00:00 | 01:58:07 | 00:00:00 | |
| PG1ADW-2 | 2026-08-31 03:44:10 | 47.47803 | 12.60853 | 76° | 73km/h | 15199m | -12.0m/s | -58.7°C | 7.2% | 0hPa | 2.5V | 00:00:00 | 00:00:00 | 00:00:00 | |
| DO3MHA-11 | 2026-08-31 03:44:08 | 47.47794 | 12.60797 | 77° | 73km/h | 15224m | -13.2m/s | -58.6°C | 7.1% | 0hPa | 2.6V | 00:00:00 | 01:58:04 | 00:00:00 | |
| OE5WHR-10 | 2026-08-31 03:44:06 | 47.47786 | 12.60742 | 77° | 73km/h | 15245m | -11.1m/s | -58.7°C | 7.1% | 0hPa | 2.6V | 00:00:00 | 00:00:00 | 00:00:00 | |
| DB0NH | 2026-08-31 03:44:05 | 47.47781 | 12.60715 | 79° | 73km/h | 15257m | -11.6m/s | -58.8°C | 7.2% | 0hPa | 2.6V | 00:00:00 | 01:58:01 | 00:00:00 | |
| OE5MMP-10 | 2026-08-31 03:44:03 | 47.47773 | 12.60661 | 79° | 71km/h | 15281m | -10.4m/s | -58.9°C | 7.3% | 0hPa | 2.5V | 00:00:00 | 01:57:59 | 00:00:00 | |
| OE5HKT-10 | 2026-08-31 03:44:02 | 47.47769 | 12.60634 | 77° | 73km/h | 15291m | -10.8m/s | -59.0°C | 7.3% | 0hPa | 2.5V | 00:00:00 | 01:57:58 | 00:00:00 | |
| DL6DJ-15 | 2026-08-31 03:43:57 | 47.47745 | 12.60505 | 71° | 71km/h | 15349m | -14.1m/s | -59.0°C | 3.2% | -1.0hPa | 2.5V | 00:00:00 | 00:00:00 | 00:00:00 | |
| DB0UT-7 | 2026-08-31 03:43:53 | 47.47722 | 12.60404 | 72° | 75km/h | 15400m | -10.8m/s | -59.1°C | 7.3% | 0hPa | 2.5V | 00:00:00 | 00:00:00 | 00:00:00 | |
| OE5DXL-15 | 2026-08-31 03:43:52 | 47.47716 | 12.60379 | 69° | 77km/h | 15413m | -14.5m/s | -59.1°C | 7.3% | 0hPa | 2.5V | 08:23:00 | 00:00:00 | 00:00:00 | |
| DO3MHA-12 | 2026-08-31 03:43:51 | 47.47710 | 12.60354 | 73° | 75km/h | 15425m | -10.9m/s | -59.1°C | 7.4% | 0hPa | 2.5V | 08:23:00 | 01:57:47 | 00:00:00 | |
| PG1ADW-2 | 2026-08-31 03:43:50 | 47.47705 | 12.60329 | 72° | 75km/h | 15436m | -10.9m/s | -59.2°C | 7.3% | 0hPa | 2.5V | 00:00:00 | 00:00:00 | 00:00:00 | |
| BAUMI2-15 | 2026-08-31 03:43:48 | 47.47692 | 12.60278 | 72° | 75km/h | 15459m | -11.2m/s | -59.3°C | 7.4% | 0hPa | 2.5V | 00:00:00 | 01:57:44 | 00:00:00 | |
| OE5WHR-10 | 2026-08-31 03:43:45 | 47.47673 | 12.60199 | 69° | 77km/h | 15495m | -11.4m/s | -59.1°C | 7.2% | 0hPa | 2.5V | 00:00:00 | 00:00:00 | 00:00:00 | |
| OE5MMP-10 | 2026-08-31 03:43:43 | 47.47660 | 12.60145 | 72° | 77km/h | 15519m | -11.7m/s | -59.3°C | 7.3% | 0hPa | 2.5V | 00:00:00 | 01:57:39 | 00:00:00 | |
| DG1MFX-10 | 2026-08-31 03:43:42 | 47.47660 | 12.60145 | 73° | 77km/h | 15519m | -11.7m/s | -59.3°C | 3.4% | 0hPa | 2.5V | 00:00:00 | 00:00:00 | 00:00:00 | |
| DO3MHA-12 | 2026-08-31 03:43:41 | 47.47648 | 12.60092 | 70° | 77km/h | 15544m | -14.2m/s | -59.3°C | 7.2% | 0hPa | 2.5V | 00:00:00 | 01:57:37 | 00:00:00 | |
| DO3MHA-11 | 2026-08-31 03:43:38 | 47.47629 | 12.60012 | 72° | 77km/h | 15583m | -13.3m/s | -59.2°C | 7.1% | 0hPa | 2.5V | 00:00:00 | 01:57:34 | 00:00:00 | |
| OE3JTB-15 | 2026-08-31 03:43:37 | 47.47623 | 12.59985 | 73° | 73km/h | 15596m | -11.9m/s | -59.2°C | 7.1% | 0hPa | 2.5V | 00:00:00 | 00:00:00 | 00:00:00 | |
| DB0NH | 2026-08-31 03:43:35 | 47.47611 | 12.59930 | 74° | 71km/h | 15619m | -11.3m/s | -59.2°C | 7.2% | 0hPa | 2.6V | 00:00:00 | 01:57:31 | 00:00:00 | |
| OE5DRO-10 | 2026-08-31 03:43:34 | 47.47606 | 12.59903 | 74° | 77km/h | 15632m | -13.7m/s | -59.1°C | 7.0% | 0hPa | 2.6V | 00:00:00 | 00:00:00 | 00:00:00 | |
| BAUMI2-15 | 2026-08-31 03:43:33 | 47.47601 | 12.59875 | 75° | 77km/h | 15644m | -11.2m/s | -59.1°C | 7.0% | 0hPa | 2.6V | 00:00:00 | 01:57:29 | 00:00:00 | |
| NBG1-10 | 2026-08-31 03:43:32 | 47.47595 | 12.59847 | 77° | 66km/h | 15656m | -11.4m/s | -59.1°C | 7.0% | 0hPa | 2.6V | 00:00:00 | 01:57:28 | 00:00:00 | |
| DO3MHA-12 | 2026-08-31 03:43:31 | 47.47591 | 12.59819 | 77° | 78km/h | 15668m | -13.3m/s | -59.2°C | 7.0% | 0hPa | 2.6V | 00:00:00 | 01:57:27 | 00:00:00 | |
| PG1ADW-2 | 2026-08-31 03:43:30 | 47.47587 | 12.59791 | 79° | 73km/h | 15680m | -12.2m/s | -59.1°C | 7.0% | 0hPa | 2.6V | 00:00:00 | 00:00:00 | 00:00:00 | |
| BAUMI2-15 | 2026-08-31 03:43:28 | 47.47580 | 12.59734 | 81° | 78km/h | 15706m | -13.4m/s | -59.1°C | 7.0% | 0hPa | 2.6V | 00:00:00 | 01:57:24 | 00:00:00 | |
| DL6DJ-15 | 2026-08-31 03:43:26 | 47.47573 | 12.59676 | 82° | 77km/h | 15728m | -10.5m/s | -59.1°C | 2.8% | -1.0hPa | 2.6V | 00:00:00 | 00:00:00 | 00:00:00 | |
| OE5WHR-10 | 2026-08-31 03:43:24 | 47.47568 | 12.59618 | 83° | 66km/h | 15748m | -9.9m/s | -59.0°C | 6.9% | 0hPa | 2.6V | 00:00:00 | 01:57:20 | 00:00:00 | |
| OE8JPQ-2 | 2026-08-31 03:43:23 | 47.47566 | 12.59590 | 85° | 66km/h | 15760m | -13.4m/s | -58.9°C | 6.9% | 0hPa | 2.6V | 08:23:00 | 00:00:00 | 00:00:00 | |
| OE5DXL-15 | 2026-08-31 03:43:22 | 47.47565 | 12.59561 | 86° | 55km/h | 15772m | -12.1m/s | -58.8°C | 6.7% | 0hPa | 2.5V | 00:00:00 | 00:00:00 | 00:00:00 | |
| DO3MHA-12 | 2026-08-31 03:43:21 | 47.47564 | 12.59533 | 88° | 69km/h | 15785m | -12.9m/s | -58.6°C | 6.7% | 0hPa | 2.5V | 00:00:00 | 01:57:17 | 00:00:00 | |
| DO3MHA-11 | 2026-08-31 03:43:19 | 47.47564 | 12.59450 | 91° | 66km/h | 15822m | -11.0m/s | -58.4°C | 6.6% | 0hPa | 2.6V | 00:00:00 | 01:57:14 | 00:00:00 | |
| BAUMI2-15 | 2026-08-31 03:43:18 | 47.47564 | 12.59450 | 91° | 69km/h | 15822m | -11.0m/s | -58.4°C | 6.6% | 0hPa | 2.5V | 00:00:00 | 01:57:14 | 00:00:00 | |
| OE5DRO-10 | 2026-08-31 03:43:15 | 47.47568 | 12.59371 | 97° | 53km/h | 15857m | -13.3m/s | -58.1°C | 6.3% | 0hPa | 2.5V | 00:00:00 | 00:00:00 | 00:00:00 | |
| DO3MHA-12 | 2026-08-31 03:43:11 | 47.47575 | 12.59272 | 97° | 47km/h | 15910m | -11.9m/s | -57.6°C | 6.1% | 0hPa | 2.5V | 00:00:00 | 01:57:07 | 00:00:00 | |
| PG1ADW-2 | 2026-08-31 03:43:10 | 47.47577 | 12.59249 | 98° | 44km/h | 15922m | -10.5m/s | -57.5°C | 6.0% | 0hPa | 2.5V | 08:24:00 | 01:57:06 | 00:00:00 | |
| DO3MHA-11 | 2026-08-31 03:43:09 | 47.47581 | 12.59206 | 98° | 49km/h | 15944m | -11.3m/s | -57.2°C | 5.8% | 0hPa | 2.5V | 00:00:00 | 01:57:04 | 00:00:00 | |
| BAUMI2-15 | 2026-08-31 03:43:08 | 47.47581 | 12.59206 | 98° | 51km/h | 15944m | -11.3m/s | -57.2°C | 5.8% | 0hPa | 2.5V | 08:24:00 | 01:57:04 | 00:00:00 | |
| DB0NH | 2026-08-31 03:43:05 | 47.47585 | 12.59148 | 97° | 38km/h | 15978m | -10.1m/s | -56.8°C | 5.5% | 0hPa | 2.5V | 00:00:00 | 01:57:01 | 00:00:00 | |
| OE5WHR-10 | 2026-08-31 03:43:03 | 47.47588 | 12.59111 | 95° | 35km/h | 15998m | -11.4m/s | -57.0°C | 5.4% | 0hPa | 2.5V | 00:00:00 | 00:00:00 | 00:00:00 | |
| DL6DJ-15 | 2026-08-31 03:42:55 | 47.47594 | 12.58985 | 90° | 33km/h | 16090m | -13.0m/s | -57.0°C | 2.1% | -1.0hPa | 2.6V | 00:00:00 | 00:00:00 | 00:00:00 | |
| DB0UT-7 | 2026-08-31 03:42:53 | 47.47595 | 12.58960 | 92° | 33km/h | 16113m | -9.1m/s | -57.0°C | 5.4% | 0hPa | 2.6V | 00:00:00 | 00:00:00 | 00:00:00 | |
| OE5DXL-15 | 2026-08-31 03:42:52 | 47.47595 | 12.58948 | 92° | 33km/h | 16123m | -11.7m/s | -57.0°C | 5.3% | 0hPa | 2.6V | 00:00:00 | 00:00:00 | 00:00:00 | |
| PG1ADW-2 | 2026-08-31 03:42:50 | 47.47595 | 12.58925 | 84° | 33km/h | 16152m | -15.1m/s | -57.2°C | 5.3% | 0hPa | 2.6V | 00:00:00 | 00:00:00 | 00:00:00 | |
| DO3MHA-11 | 2026-08-31 03:42:48 | 47.47593 | 12.58902 | 82° | 31km/h | 16185m | -17.8m/s | -57.4°C | 5.3% | 0hPa | 2.6V | 00:00:00 | 01:56:44 | 00:00:00 | |
| DO3MHA-12 | 2026-08-31 03:42:46 | 47.47591 | 12.58880 | 77° | 31km/h | 16219m | -16.1m/s | -57.8°C | 5.5% | 0hPa | 2.5V | 00:00:00 | 01:56:42 | 00:00:00 | |
| IN3HCDX | 2026-08-31 03:42:45 | 47.47591 | 12.58880 | 78° | 29km/h | 16219m | -16.2m/s | -57.8°C | 2.2% | 0hPa | 2.6V | 00:00:00 | 00:00:00 | 00:00:00 | |
| OE8JPQ-2 | 2026-08-31 03:42:43 | 47.47586 | 12.58846 | 79° | 35km/h | 16259m | -10.9m/s | -58.2°C | 5.6% | 0hPa | 2.6V | 00:00:00 | 01:56:39 | 00:00:00 | |
| OE5WHR-10 | 2026-08-31 03:42:41 | 47.47584 | 12.58822 | 80° | 35km/h | 16284m | -13.6m/s | -58.4°C | 5.8% | 0hPa | 2.6V | 00:00:00 | 00:00:00 | 00:00:00 | |
| OE3JTB-15 | 2026-08-31 03:42:39 | 47.47581 | 12.58799 | 83° | 37km/h | 16312m | -11.4m/s | -58.6°C | 5.9% | 0hPa | 2.6V | 00:00:00 | 01:56:35 | 00:00:00 | |
| DO3MHA-11 | 2026-08-31 03:42:38 | 47.47580 | 12.58786 | 79° | 35km/h | 16323m | -12.0m/s | -58.7°C | 6.0% | 0hPa | 2.6V | 00:00:00 | 01:56:34 | 00:00:00 | |
| OE5DRO-10 | 2026-08-31 03:42:37 | 47.47578 | 12.58774 | 78° | 37km/h | 16335m | -12.3m/s | -58.8°C | 6.1% | 0hPa | 2.6V | 00:00:00 | 00:00:00 | 00:00:00 | |
| DO3MHA-12 | 2026-08-31 03:42:36 | 47.47576 | 12.58763 | 78° | 35km/h | 16346m | -10.8m/s | -58.9°C | 6.1% | 0hPa | 2.6V | 00:00:00 | 01:56:32 | 00:00:00 | |
| DB0NH | 2026-08-31 03:42:35 | 47.47574 | 12.58751 | 75° | 42km/h | 16357m | -11.3m/s | -59.0°C | 6.2% | 0hPa | 2.6V | 00:00:00 | 01:56:31 | 00:00:00 | |
| OE5MMP-10 | 2026-08-31 03:42:33 | 47.47568 | 12.58728 | 69° | 37km/h | 16380m | -10.5m/s | -59.1°C | 6.2% | 0hPa | 2.5V | 00:00:00 | 01:56:29 | 00:00:00 | |
| DF7PN | 2026-08-31 03:42:32 | 47.47558 | 12.58693 | 63° | 37km/h | 16411m | -12.9m/s | -59.4°C | 2.2% | -1.0hPa | 2.5V | 00:00:00 | 00:00:00 | 00:00:00 | |
| PG1ADW-2 | 2026-08-31 03:42:30 | 47.47558 | 12.58693 | 64° | 40km/h | 16411m | -12.9m/s | -59.3°C | 6.2% | 0hPa | 2.5V | 00:00:00 | 00:00:00 | 00:00:00 | |
| DO3MHA-11 | 2026-08-31 03:42:28 | 47.47549 | 12.58669 | 58° | 37km/h | 16435m | -11.5m/s | -59.4°C | 6.3% | 0hPa | 2.5V | 00:00:00 | 01:56:24 | 00:00:00 | |
| NBG1-10 | 2026-08-31 03:42:26 | 47.47538 | 12.58647 | 54° | 47km/h | 16456m | -10.7m/s | -59.4°C | 6.4% | 0hPa | 2.5V | 00:00:00 | 01:56:22 | 00:00:00 | |
| IN3HCDX | 2026-08-31 03:42:24 | 47.47527 | 12.58626 | 47° | 37km/h | 16478m | -12.0m/s | -58.8°C | 2.3% | 0hPa | 2.5V | 08:25:00 | 00:00:00 | 00:00:00 | |
| DB0UT-7 | 2026-08-31 03:42:23 | 47.47520 | 12.58617 | 48° | 49km/h | 16490m | -10.6m/s | -58.3°C | 5.8% | 0hPa | 2.5V | 00:00:00 | 01:56:19 | 00:00:00 | |
| OE5DXL-15 | 2026-08-31 03:42:22 | 47.47513 | 12.58607 | 43° | 49km/h | 16501m | -12.4m/s | -58.1°C | 5.6% | 0hPa | 2.5V | 00:00:00 | 00:00:00 | 00:00:00 | |
| OE5WHR-10 | 2026-08-31 03:42:20 | 47.47499 | 12.58588 | 41° | 47km/h | 16525m | -13.1m/s | -58.1°C | 5.6% | 0hPa | 2.6V | 00:00:00 | 01:56:16 | 00:00:00 | |
| OE5DRO-10 | 2026-08-31 03:42:18 | 47.47483 | 12.58569 | 40° | 49km/h | 16552m | -14.1m/s | -58.2°C | 5.7% | 0hPa | 2.6V | 00:00:00 | 00:00:00 | 00:00:00 | |
| DG1MJG | 2026-08-31 03:42:17 | 47.47483 | 12.58569 | 40° | 40km/h | 16552m | -14.2m/s | -58.3°C | 2.2% | 0hPa | 2.5V | 08:25:00 | 00:00:00 | 00:00:00 | |
| DO3MHA-12 | 2026-08-31 03:42:16 | 47.47467 | 12.58551 | 36° | 46km/h | 16577m | -10.4m/s | -58.4°C | 5.9% | 0hPa | 2.5V | 08:25:00 | 01:56:12 | 00:00:00 | |
| OE5MMP-10 | 2026-08-31 03:42:13 | 47.47441 | 12.58525 | 35° | 51km/h | 16606m | -9.9m/s | -58.5°C | 6.0% | 0hPa | 2.5V | 00:00:00 | 01:56:09 | 00:00:00 | |
| OE3JTB-15 | 2026-08-31 03:42:10 | 47.47411 | 12.58496 | 37° | 57km/h | 16641m | -11.4m/s | -58.7°C | 6.1% | 0hPa | 2.5V | 08:25:00 | 00:00:00 | 00:00:00 | |
| DO3MHA-11 | 2026-08-31 03:42:08 | 47.47391 | 12.58474 | 40° | 55km/h | 16664m | -12.3m/s | -58.4°C | 6.0% | 0hPa | 2.6V | 00:00:00 | 01:56:04 | 00:00:00 | |
| DO3MHA-12 | 2026-08-31 03:42:06 | 47.47370 | 12.58449 | 37° | 55km/h | 16688m | -10.7m/s | -58.1°C | 5.8% | 0hPa | 2.6V | 00:00:00 | 01:56:02 | 00:00:00 | |
| DB0NH | 2026-08-31 03:42:04 | 47.47348 | 12.58425 | 38° | 57km/h | 16709m | -12.8m/s | -57.8°C | 5.6% | 0hPa | 2.6V | 00:00:00 | 01:56:00 | 00:00:00 | |
| DF7PN | 2026-08-31 03:42:01 | 47.47305 | 12.58371 | 40° | 55km/h | 16757m | -12.4m/s | -57.3°C | 1.8% | -1.0hPa | 2.6V | 00:00:00 | 00:00:00 | 00:00:00 | |
| OE5WHR-10 | 2026-08-31 03:41:59 | 47.47295 | 12.58357 | 45° | 58km/h | 16769m | -10.7m/s | -57.1°C | 5.4% | 0hPa | 2.6V | 08:25:00 | 00:00:00 | 00:00:00 | |
| DO3MHA-11 | 2026-08-31 03:41:58 | 47.47285 | 12.58342 | 46° | 58km/h | 16780m | -11.0m/s | -56.9°C | 5.3% | 0hPa | 2.6V | 00:00:00 | 01:55:54 | 00:00:00 | |
| DO3MHA-12 | 2026-08-31 03:41:56 | 47.47265 | 12.58312 | 48° | 58km/h | 16801m | -10.7m/s | -56.7°C | 5.2% | 0hPa | 2.6V | 00:00:00 | 01:55:52 | 00:00:00 | |
| DG1MFX-10 | 2026-08-31 03:41:55 | 47.47265 | 12.58312 | 49° | 57km/h | 16801m | -10.8m/s | -56.8°C | 2.0% | 0hPa | 2.6V | 08:25:00 | 00:00:00 | 00:00:00 | |
| OE5REO-15 | 2026-08-31 03:41:54 | 47.47255 | 12.58297 | 47° | 58km/h | 16813m | -12.2m/s | -56.7°C | 1.9% | 0hPa | 2.6V | 00:00:00 | 00:00:00 | 00:00:00 | |
| DB0UT-7 | 2026-08-31 03:41:53 | 47.47236 | 12.58265 | 53° | 55km/h | 16841m | -14.9m/s | -56.6°C | 5.2% | 0hPa | 2.6V | 00:00:00 | 00:00:00 | 00:00:00 | |
| OE5DXL-15 | 2026-08-31 03:41:52 | 47.47226 | 12.58247 | 51° | 55km/h | 16853m | -9.1m/s | -56.6°C | 5.4% | 0hPa | 2.6V | 00:00:00 | 00:00:00 | 00:00:00 | |
| PG1ADW-2 | 2026-08-31 03:41:50 | 47.47208 | 12.58213 | 51° | 57km/h | 16875m | -12.3m/s | -56.6°C | 5.3% | 0hPa | 2.6V | 00:00:00 | 01:55:46 | 00:00:00 | |
| DO3MHA-11 | 2026-08-31 03:41:49 | 47.47190 | 12.58178 | 54° | 57km/h | 16899m | -14.1m/s | -56.7°C | 5.3% | 0hPa | 2.6V | 00:00:00 | 01:55:44 | 00:00:00 | |
| DO3MHA-12 | 2026-08-31 03:41:47 | 47.47174 | 12.58142 | 59° | 57km/h | 16927m | -13.9m/s | -56.7°C | 5.2% | 0hPa | 2.5V | 00:00:00 | 01:55:42 | 00:00:00 | |
| OE5MMP-10 | 2026-08-31 03:41:43 | 47.47153 | 12.58086 | 65° | 57km/h | 16971m | -13.3m/s | -56.6°C | 5.2% | 0hPa | 2.5V | 08:25:00 | 01:55:39 | 00:00:00 | |
| DM7RM-13 | 2026-08-31 03:41:42 | 47.47153 | 12.58086 | 66° | 57km/h | 16971m | -13.3m/s | -56.7°C | 1.9% | 0hPa | 2.5V | 00:00:00 | 00:00:00 | 00:00:00 | |
| OE3JTB-15 | 2026-08-31 03:41:41 | 47.47142 | 12.58046 | 68° | 47km/h | 16996m | -12.7m/s | -56.6°C | 5.1% | 0hPa | 2.5V | 00:00:00 | 00:00:00 | 00:00:00 | |
| OE5DRO-10 | 2026-08-31 03:41:40 | 47.47136 | 12.58027 | 66° | 51km/h | 17010m | -16.4m/s | -56.6°C | 5.2% | 0hPa | 2.5V | 00:00:00 | 00:00:00 | 00:00:00 | |
| OE5WHR-10 | 2026-08-31 03:41:38 | 47.47127 | 12.57987 | 71° | 49km/h | 17038m | -11.6m/s | -56.6°C | 5.3% | 0hPa | 2.5V | 00:00:00 | 00:00:00 | 00:00:00 | |
| DB0ND-19 | 2026-08-31 03:41:37 | 47.47118 | 12.57946 | 71° | 55km/h | 17061m | -11.9m/s | 0°C | -1.0% | -1.0hPa | 2.5V | 00:00:00 | 00:00:00 | 00:00:00 | |
| DO3MHA-12 | 2026-08-31 03:41:36 | 47.47118 | 12.57946 | 72° | 44km/h | 17061m | -11.9m/s | -56.4°C | 5.3% | 0hPa | 2.5V | 00:00:00 | 01:55:32 | 00:00:00 | |
| DG1MFX-10 | 2026-08-31 03:41:35 | 47.47118 | 12.57946 | 72° | 57km/h | 17061m | -11.9m/s | -56.5°C | 2.0% | 0hPa | 2.5V | 08:26:00 | 00:00:00 | 00:00:00 | |
| DB0NH | 2026-08-31 03:41:34 | 47.47109 | 12.57906 | 73° | 44km/h | 17087m | -13.4m/s | -56.2°C | 5.3% | 0hPa | 2.5V | 00:00:00 | 01:55:30 | 00:00:00 | |
| OE5MMP-10 | 2026-08-31 03:41:33 | 47.47105 | 12.57887 | 74° | 51km/h | 17099m | -10.2m/s | -56.2°C | 5.3% | 0hPa | 2.5V | 00:00:00 | 01:55:29 | 00:00:00 | |
| PG1ADW-2 | 2026-08-31 03:41:30 | 47.47096 | 12.57829 | 76° | 44km/h | 17132m | -9.1m/s | -56.2°C | 5.3% | 0hPa | 2.5V | 00:00:00 | 00:00:00 | 00:00:00 | |
| DO3MHA-11 | 2026-08-31 03:41:28 | 47.47090 | 12.57792 | 77° | 40km/h | 17156m | -15.1m/s | -56.0°C | 5.1% | 0hPa | 2.5V | 00:00:00 | 01:55:24 | 00:00:00 | |
| OE5DXL-15 | 2026-08-31 03:41:22 | 47.47075 | 12.57689 | 76° | 35km/h | 17234m | -13.9m/s | -55.5°C | 4.9% | 0hPa | 2.5V | 00:00:00 | 00:00:00 | 00:00:00 | |
| OE5DRO-10 | 2026-08-31 03:41:21 | 47.47072 | 12.57674 | 73° | 38km/h | 17248m | -15.1m/s | -55.2°C | 4.8% | 0hPa | 2.5V | 08:26:00 | 00:00:00 | 00:00:00 | |
| NBG1-10 | 2026-08-31 03:41:20 | 47.47069 | 12.57660 | 70° | 33km/h | 17261m | -12.5m/s | -54.9°C | 4.6% | 0hPa | 2.5V | 00:00:00 | 01:55:16 | 00:00:00 | |
| OE5WHR-10 | 2026-08-31 03:41:17 | 47.47059 | 12.57619 | 68° | 37km/h | 17299m | -10.9m/s | -55.1°C | 4.7% | 0hPa | 2.5V | 00:00:00 | 01:55:13 | 00:00:00 | |
| IN3HCDX | 2026-08-31 03:41:16 | 47.47059 | 12.57619 | 69° | 40km/h | 17299m | -11.0m/s | -55.1°C | 1.7% | 0hPa | 2.5V | 08:26:00 | 00:00:00 | 00:00:00 | |
| DG1MFX-10 | 2026-08-31 03:41:14 | 47.47051 | 12.57592 | 70° | 38km/h | 17323m | -12.1m/s | -55.3°C | 1.8% | 0hPa | 2.5V | 08:26:00 | 00:00:00 | 00:00:00 | |
| OE5MMP-10 | 2026-08-31 03:41:13 | 47.47044 | 12.57564 | 69° | 38km/h | 17350m | -13.5m/s | -55.3°C | 4.8% | 0hPa | 2.5V | 00:00:00 | 01:55:09 | 00:00:00 | |
| OE3JTB-15 | 2026-08-31 03:41:12 | 47.47041 | 12.57550 | 69° | 27km/h | 17362m | -10.3m/s | -55.3°C | 4.8% | 0hPa | 2.5V | 00:00:00 | 01:55:08 | 00:00:00 | |
| PG1ADW-2 | 2026-08-31 03:41:10 | 47.47034 | 12.57523 | 71° | 31km/h | 17386m | -13.2m/s | -55.2°C | 4.8% | 0hPa | 2.5V | 00:00:00 | 00:00:00 | 00:00:00 | |
| DO3MHA-11 | 2026-08-31 03:41:09 | 47.47031 | 12.57509 | 73° | 35km/h | 17399m | -13.3m/s | -55.2°C | 4.7% | 0hPa | 2.5V | 00:00:00 | 01:55:05 | 00:00:00 | |
| DB0ND-19 | 2026-08-31 03:41:06 | 47.47023 | 12.57454 | 81° | 35km/h | 17451m | -13.0m/s | 0°C | -1.0% | -1.0hPa | 2.5V | 00:00:00 | 00:00:00 | 00:00:00 | |
| DB0NH | 2026-08-31 03:41:04 | 47.47021 | 12.57442 | 82° | 20km/h | 17464m | -13.9m/s | -55.2°C | 4.8% | 0hPa | 2.5V | 08:26:00 | 01:55:00 | 00:00:00 | |
| OE5MMP-10 | 2026-08-31 03:41:03 | 47.47021 | 12.57428 | 85° | 31km/h | 17478m | -13.8m/s | -55.3°C | 4.8% | 0hPa | 2.6V | 00:00:00 | 01:54:59 | 00:00:00 | |
| OE5DRO-10 | 2026-08-31 03:41:02 | 47.47019 | 12.57415 | 86° | 22km/h | 17491m | -12.8m/s | -55.4°C | 4.9% | 0hPa | 2.6V | 00:00:00 | 00:00:00 | 00:00:00 | |
| DF7PN | 2026-08-31 03:40:59 | 47.47019 | 12.57367 | 92° | 31km/h | 17537m | -9.9m/s | -55.4°C | 1.6% | -1.0hPa | 2.6V | 00:00:00 | 00:00:00 | 00:00:00 | |
| DL6DJ-15 | 2026-08-31 03:40:51 | 47.47017 | 12.57295 | 84° | 18km/h | 17635m | -10.9m/s | -55.5°C | 1.6% | -1.0hPa | 2.6V | 00:00:00 | 00:00:00 | 00:00:00 | |
| PG1ADW-2 | 2026-08-31 03:40:50 | 47.47017 | 12.57295 | 85° | 11km/h | 17635m | -10.8m/s | -55.4°C | 5.0% | 0hPa | 2.6V | 00:00:00 | 00:00:00 | 00:00:00 | |
| DO3MHA-11 | 2026-08-31 03:40:49 | 47.47017 | 12.57288 | 87° | 13km/h | 17647m | -13.1m/s | -55.5°C | 5.0% | 0hPa | 2.6V | 00:00:00 | 01:54:45 | 00:00:00 | |
| NBG1-10 | 2026-08-31 03:40:47 | 47.47017 | 12.57278 | 88° | 13km/h | 17670m | -10.5m/s | -55.5°C | 5.0% | 0hPa | 2.6V | 00:00:00 | 01:54:43 | 00:00:00 | |
| DG1MJG | 2026-08-31 03:40:46 | 47.47017 | 12.57278 | 89° | 15km/h | 17670m | -10.5m/s | -55.5°C | 1.8% | 0hPa | 2.5V | 08:27:00 | 00:00:00 | 00:00:00 | |
| DO3MHA-12 | 2026-08-31 03:40:45 | 47.47016 | 12.57269 | 102° | 11km/h | 17693m | -12.8m/s | -55.1°C | 4.9% | 0hPa | 2.5V | 00:00:00 | 01:54:41 | 00:00:00 | |
| OE5MMP-10 | 2026-08-31 03:40:43 | 47.47017 | 12.57259 | 92° | 11km/h | 17716m | -12.6m/s | -54.6°C | 4.7% | 0hPa | 2.5V | 00:00:00 | 01:54:39 | 00:00:00 | |
| BAUMI2-15 | 2026-08-31 03:40:42 | 47.47017 | 12.57255 | 85° | 11km/h | 17728m | -11.5m/s | -54.4°C | 4.6% | 0hPa | 2.5V | 00:00:00 | 01:54:38 | 00:00:00 | |
| OE5REO-15 | 2026-08-31 03:40:40 | 47.47017 | 12.57251 | 94° | 11km/h | 17739m | -11.4m/s | -54.3°C | 1.7% | 0hPa | 2.5V | 08:27:00 | 00:00:00 | 00:00:00 | |
| DO3MHA-11 | 2026-08-31 03:40:39 | 47.47016 | 12.57242 | 76° | 9km/h | 17760m | -10.1m/s | -54.2°C | 4.5% | 0hPa | 2.5V | 08:26:00 | 01:54:35 | 00:00:00 | |
| BAUMI2-15 | 2026-08-31 03:40:37 | 47.47015 | 12.57235 | 76° | 9km/h | 17782m | -10.2m/s | -54.3°C | 4.5% | 0hPa | 2.5V | 00:00:00 | 01:54:33 | 00:00:00 | |
| OE5WHR-10 | 2026-08-31 03:40:35 | 47.47014 | 12.57228 | 73° | 15km/h | 17807m | -12.2m/s | -54.3°C | 4.5% | 0hPa | 2.5V | 00:00:00 | 00:00:00 | 00:00:00 | |
| DB0NH | 2026-08-31 03:40:34 | 47.47013 | 12.57225 | 76° | 18km/h | 17820m | -13.3m/s | -54.3°C | 4.5% | 0hPa | 2.5V | 00:00:00 | 01:54:30 | 00:00:00 | |
| OE5MMP-10 | 2026-08-31 03:40:33 | 47.47013 | 12.57222 | 80° | 11km/h | 17833m | -12.2m/s | -54.2°C | 4.5% | 0hPa | 2.5V | 00:00:00 | 01:54:29 | 00:00:00 | |
| BAUMI2-15 | 2026-08-31 03:40:32 | 47.47012 | 12.57219 | 68° | 9km/h | 17844m | -10.3m/s | -54.2°C | 4.5% | 0hPa | 2.5V | 00:00:00 | 01:54:28 | 00:00:00 | |
| PG1ADW-2 | 2026-08-31 03:40:30 | 47.47010 | 12.57213 | 55° | 16km/h | 17865m | -12.3m/s | -54.2°C | 4.4% | 0hPa | 2.5V | 00:00:00 | 01:54:26 | 00:00:00 | |
| DO3MHA-11 | 2026-08-31 03:40:29 | 47.47008 | 12.57210 | 52° | 15km/h | 17877m | -10.4m/s | -54.2°C | 4.4% | 0hPa | 2.5V | 00:00:00 | 01:54:25 | 00:00:00 | |
| BAUMI2-15 | 2026-08-31 03:40:27 | 47.47004 | 12.57204 | 35° | 15km/h | 17902m | -12.3m/s | -54.4°C | 4.5% | 0hPa | 2.5V | 00:00:00 | 01:54:23 | 00:00:00 | |
| DO3MHA-12 | 2026-08-31 03:40:25 | 47.46999 | 12.57198 | 37° | 18km/h | 17926m | -10.4m/s | -54.6°C | 4.5% | 0hPa | 2.5V | 08:26:00 | 01:54:21 | 00:00:00 | |
| OE5DRO-10 | 2026-08-31 03:40:24 | 47.46996 | 12.57195 | 34° | 20km/h | 17937m | -13.2m/s | -54.6°C | 4.5% | 0hPa | 2.6V | 00:00:00 | 00:00:00 | 00:00:00 | |
| DB0UT-7 | 2026-08-31 03:40:23 | 47.46993 | 12.57192 | 40° | 22km/h | 17950m | -10.7m/s | -54.7°C | 4.5% | 0hPa | 2.5V | 00:00:00 | 01:54:19 | 00:00:00 | |
| DL6DJ-15 | 2026-08-31 03:40:20 | 47.46977 | 12.57178 | 24° | 18km/h | 17999m | -15.0m/s | -55.0°C | 1.5% | -1.0hPa | 2.5V | 00:00:00 | 00:00:00 | 00:00:00 | |
| DO3MHA-11 | 2026-08-31 03:40:19 | 47.46977 | 12.57178 | 25° | 20km/h | 17999m | -14.9m/s | -54.9°C | 4.4% | 0hPa | 2.5V | 00:00:00 | 01:54:15 | 00:00:00 | |
| BAUMI2-15 | 2026-08-31 03:40:17 | 47.46968 | 12.57171 | 22° | 20km/h | 18026m | -12.4m/s | -55.1°C | 4.5% | 0hPa | 2.5V | 00:00:00 | 01:54:13 | 00:00:00 | |
| DO3MHA-12 | 2026-08-31 03:40:15 | 47.46958 | 12.57163 | 30° | 22km/h | 18052m | -14.7m/s | -55.2°C | 4.6% | 0hPa | 2.5V | 00:00:00 | 01:54:11 | 00:00:00 | |
| OE5WHR-10 | 2026-08-31 03:40:14 | 47.46954 | 12.57160 | 28° | 24km/h | 18066m | -13.6m/s | -55.2°C | 4.7% | 0hPa | 2.5V | 00:00:00 | 01:54:10 | 00:00:00 | |
| OE5MMP-10 | 2026-08-31 03:40:13 | 47.46950 | 12.57156 | 35° | 24km/h | 18078m | -10.2m/s | -55.4°C | 4.7% | 0hPa | 2.5V | 08:27:00 | 01:54:09 | 00:00:00 | |
| BAUMI2-15 | 2026-08-31 03:40:12 | 47.46946 | 12.57151 | 38° | 22km/h | 18087m | -8.9m/s | -55.5°C | 4.7% | 0hPa | 2.5V | 00:00:00 | 01:54:08 | 00:00:00 | |
| PG1ADW-2 | 2026-08-31 03:40:10 | 47.46936 | 12.57143 | 34° | 24km/h | 18108m | -11.8m/s | -55.6°C | 4.8% | 0hPa | 2.5V | 08:27:00 | 00:00:00 | 00:00:00 | |
| BAUMI2-15 | 2026-08-31 03:40:07 | 47.46922 | 12.57126 | 42° | 26km/h | 18140m | -11.9m/s | -55.8°C | 4.8% | 0hPa | 2.5V | 00:00:00 | 01:54:03 | 00:00:00 | |
| DO3MHA-12 | 2026-08-31 03:40:05 | 47.46911 | 12.57114 | 42° | 26km/h | 18163m | -12.2m/s | -56.0°C | 4.8% | 0hPa | 2.5V | 00:00:00 | 01:54:01 | 00:00:00 | |
| DB0NH | 2026-08-31 03:40:04 | 47.46906 | 12.57107 | 43° | 20km/h | 18175m | -13.2m/s | -56.1°C | 4.9% | 0hPa | 2.5V | 00:00:00 | 01:54:00 | 00:00:00 | |
| OE8JPQ-2 | 2026-08-31 03:40:03 | 47.46901 | 12.57100 | 42° | 20km/h | 18188m | -13.0m/s | -56.2°C | 4.9% | 0hPa | 2.5V | 00:00:00 | 00:00:00 | 00:00:00 | |
| BAUMI2-15 | 2026-08-31 03:40:02 | 47.46897 | 12.57094 | 47° | 26km/h | 18201m | -12.7m/s | -56.3°C | 5.0% | 0hPa | 2.5V | 00:00:00 | 01:53:58 | 00:00:00 | |
| DM7RM-13 | 2026-08-31 03:40:01 | 47.46897 | 12.57094 | 47° | 26km/h | 18201m | -12.7m/s | -56.3°C | 1.8% | 0hPa | 2.5V | 00:00:00 | 00:00:00 | 00:00:00 | |
| DF7PN | 2026-08-31 03:39:56 | 47.46871 | 12.57053 | 45° | 22km/h | 18273m | -17.3m/s | -56.4°C | 1.6% | -1.0hPa | 2.5V | 00:00:00 | 00:00:00 | 00:00:00 | |
| DL6DJ-15 | 2026-08-31 03:39:49 | 47.46842 | 12.57014 | 29° | 18km/h | 18376m | -16.4m/s | -56.6°C | 1.5% | -1.0hPa | 2.5V | 00:00:00 | 00:00:00 | 00:00:00 | |
| BAUMI2-15 | 2026-08-31 03:39:47 | 47.46838 | 12.57010 | 38° | 16km/h | 18391m | -13.9m/s | -56.6°C | 4.9% | 0hPa | 2.5V | 00:00:00 | 01:53:43 | 00:00:00 | |
| OE5DRO-10 | 2026-08-31 03:39:46 | 47.46834 | 12.57006 | 35° | 13km/h | 18403m | -11.1m/s | -56.7°C | 5.0% | 0hPa | 2.5V | 00:00:00 | 00:00:00 | 00:00:00 | |
| OE3JTB-15 | 2026-08-31 03:39:45 | 47.46830 | 12.57002 | 38° | 18km/h | 18414m | -11.8m/s | -56.7°C | 4.9% | 0hPa | 2.5V | 00:00:00 | 01:53:41 | 00:00:00 | |
| OE5MMP-10 | 2026-08-31 03:39:43 | 47.46824 | 12.56996 | 34° | 11km/h | 18439m | -13.3m/s | -56.9°C | 5.0% | 0hPa | 2.5V | 00:00:00 | 01:53:39 | 00:00:00 | |
| BAUMI2-15 | 2026-08-31 03:39:42 | 47.46821 | 12.56994 | 20° | 11km/h | 18452m | -14.7m/s | -57.0°C | 5.0% | 0hPa | 2.5V | 00:00:00 | 01:53:38 | 00:00:00 | |
| NBG1-10 | 2026-08-31 03:39:41 | 47.46818 | 12.56992 | 32° | 18km/h | 18467m | -13.9m/s | -57.1°C | 5.0% | 0hPa | 2.5V | 00:00:00 | 01:53:37 | 00:00:00 | |
| DO3MHA-11 | 2026-08-31 03:39:39 | 47.46813 | 12.56989 | 12° | 13km/h | 18494m | -13.8m/s | -57.4°C | 5.2% | 0hPa | 2.5V | 00:00:00 | 01:53:35 | 00:00:00 | |
| BAUMI2-15 | 2026-08-31 03:39:37 | 47.46808 | 12.56987 | 27° | 11km/h | 18522m | -15.7m/s | -57.6°C | 5.3% | 0hPa | 2.5V | 08:27:00 | 01:53:33 | 00:00:00 | |
| DO3MHA-12 | 2026-08-31 03:39:35 | 47.46803 | 12.56985 | 28° | 16km/h | 18549m | -11.5m/s | -57.7°C | 5.4% | 0hPa | 2.5V | 00:00:00 | 01:53:31 | 00:00:00 | |
| DB0NH | 2026-08-31 03:39:34 | 47.46801 | 12.56983 | 15° | 20km/h | 18560m | -12.3m/s | -57.7°C | 5.3% | 0hPa | 2.5V | 00:00:00 | 01:53:30 | 00:00:00 | |
| OE5MMP-10 | 2026-08-31 03:39:33 | 47.46797 | 12.56982 | 15° | 18km/h | 18573m | -12.4m/s | -57.8°C | 5.4% | 0hPa | 2.5V | 00:00:00 | 01:53:29 | 00:00:00 | |
| OE5WHR-10 | 2026-08-31 03:39:32 | 47.46794 | 12.56980 | 24° | 22km/h | 18584m | -11.9m/s | -57.8°C | 5.4% | 0hPa | 2.5V | 00:00:00 | 00:00:00 | 00:00:00 | |
| DM7RM-13 | 2026-08-31 03:39:31 | 47.46794 | 12.56980 | 25° | 15km/h | 18584m | -11.9m/s | -57.9°C | 2.0% | 0hPa | 2.5V | 00:00:00 | 00:00:00 | 00:00:00 | |
| PG1ADW-2 | 2026-08-31 03:39:30 | 47.46787 | 12.56976 | 19° | 22km/h | 18608m | -14.0m/s | -57.9°C | 5.5% | 0hPa | 2.5V | 00:00:00 | 00:00:00 | 00:00:00 | |
| DO3MHA-11 | 2026-08-31 03:39:29 | 47.46783 | 12.56973 | 27° | 22km/h | 18622m | -12.6m/s | -57.9°C | 5.4% | 0hPa | 2.5V | 00:00:00 | 01:53:25 | 00:00:00 | |
| BAUMI2-15 | 2026-08-31 03:39:27 | 47.46775 | 12.56966 | 36° | 24km/h | 18647m | -10.5m/s | -57.9°C | 5.5% | 0hPa | 2.5V | 00:00:00 | 01:53:23 | 00:00:00 | |
| DO3MHA-12 | 2026-08-31 03:39:25 | 47.46766 | 12.56956 | 33° | 24km/h | 18669m | -13.1m/s | -57.8°C | 5.4% | 0hPa | 2.5V | 00:00:00 | 01:53:21 | 00:00:00 | |
| OE5MMP-10 | 2026-08-31 03:39:23 | 47.46756 | 12.56944 | 42° | 24km/h | 18696m | -12.0m/s | -57.8°C | 5.4% | 0hPa | 2.5V | 00:00:00 | 01:53:19 | 00:00:00 | |
| OE5DXL-15 | 2026-08-31 03:39:22 | 47.46751 | 12.56938 | 51° | 22km/h | 18708m | -11.3m/s | -57.9°C | 5.4% | 0hPa | 2.5V | 08:27:00 | 00:00:00 | 00:00:00 | |
| OE5REO-15 | 2026-08-31 03:39:20 | 47.46747 | 12.56930 | 54° | 26km/h | 18721m | -14.2m/s | -58.0°C | 1.9% | 0hPa | 2.5V | 08:28:00 | 00:00:00 | 00:00:00 | |
| DO3MHA-11 | 2026-08-31 03:39:19 | 47.46740 | 12.56916 | 63° | 22km/h | 18745m | -11.9m/s | -57.9°C | 5.5% | 0hPa | 2.5V | 00:00:00 | 01:53:15 | 00:00:00 | |
| DL6DJ-15 | 2026-08-31 03:39:18 | 47.46735 | 12.56901 | 59° | 20km/h | 18767m | -9.9m/s | -57.8°C | 1.7% | -1.0hPa | 2.5V | 00:00:00 | 00:00:00 | 00:00:00 | |
| BAUMI2-15 | 2026-08-31 03:39:17 | 47.46735 | 12.56901 | 60° | 22km/h | 18767m | -9.9m/s | -57.8°C | 5.5% | 0hPa | 2.5V | 00:00:00 | 01:53:13 | 00:00:00 | |
| OE3JTB-15 | 2026-08-31 03:39:16 | 47.46733 | 12.56893 | 71° | 22km/h | 18777m | -10.7m/s | -57.8°C | 5.5% | 0hPa | 2.5V | 00:00:00 | 00:00:00 | 00:00:00 | |
| DO3MHA-12 | 2026-08-31 03:39:15 | 47.46731 | 12.56885 | 71° | 20km/h | 18787m | -10.4m/s | -57.8°C | 5.5% | 0hPa | 2.5V | 00:00:00 | 01:53:11 | 00:00:00 | |
| OE5MMP-10 | 2026-08-31 03:39:13 | 47.46727 | 12.56870 | 72° | 18km/h | 18811m | -10.9m/s | -57.5°C | 5.3% | 0hPa | 2.5V | 00:00:00 | 01:53:09 | 00:00:00 | |
| BAUMI2-15 | 2026-08-31 03:39:12 | 47.46725 | 12.56862 | 73° | 18km/h | 18821m | -11.3m/s | -57.4°C | 5.3% | 0hPa | 2.5V | 00:00:00 | 01:53:08 | 00:00:00 | |
| OE5WHR-10 | 2026-08-31 03:39:11 | 47.46724 | 12.56855 | 67° | 20km/h | 18832m | -10.8m/s | -57.4°C | 5.3% | 0hPa | 2.5V | 00:00:00 | 01:53:07 | 00:00:00 | |
| PG1ADW-2 | 2026-08-31 03:39:10 | 47.46722 | 12.56848 | 67° | 13km/h | 18843m | -12.7m/s | -57.4°C | 5.2% | 0hPa | 2.5V | 00:00:00 | 01:53:06 | 00:00:00 | |
| DO3MHA-11 | 2026-08-31 03:39:09 | 47.46719 | 12.56842 | 56° | 18km/h | 18857m | -15.9m/s | -57.4°C | 5.2% | 0hPa | 2.5V | 08:28:00 | 01:53:05 | 00:00:00 | |
| NBG1-10 | 2026-08-31 03:39:08 | 47.46717 | 12.56836 | 62° | 26km/h | 18872m | -13.9m/s | -57.4°C | 5.3% | 0hPa | 2.5V | 08:28:00 | 01:53:04 | 00:00:00 | |
| BAUMI2-15 | 2026-08-31 03:39:07 | 47.46715 | 12.56831 | 56° | 16km/h | 18885m | -14.2m/s | -57.5°C | 5.3% | 0hPa | 2.5V | 00:00:00 | 01:53:03 | 00:00:00 | |
| DB0NH | 2026-08-31 03:39:04 | 47.46707 | 12.56817 | 45° | 26km/h | 18926m | -13.7m/s | -57.2°C | 5.3% | 0hPa | 2.5V | 00:00:00 | 01:53:00 | 00:00:00 | |
| OE8JPQ-2 | 2026-08-31 03:39:03 | 47.46704 | 12.56812 | 44° | 26km/h | 18939m | -12.9m/s | -57.0°C | 5.2% | 0hPa | 2.5V | 00:00:00 | 00:00:00 | 00:00:00 | |
| BAUMI2-15 | 2026-08-31 03:39:02 | 47.46700 | 12.56808 | 26° | 22km/h | 18953m | -15.5m/s | -57.0°C | 5.2% | 0hPa | 2.5V | 00:00:00 | 01:52:58 | 00:00:00 | |
| DL6DJ-15 | 2026-08-31 03:38:46 | 47.46619 | 12.56718 | 45° | 29km/h | 19182m | -12.7m/s | -57.3°C | 1.7% | -1.0hPa | 2.5V | 00:00:00 | 00:00:00 | 00:00:00 | |
| DO3MHA-12 | 2026-08-31 03:38:45 | 47.46614 | 12.56710 | 47° | 29km/h | 19196m | -15.1m/s | -56.8°C | 5.3% | 0hPa | 2.5V | 00:00:00 | 01:52:41 | 00:00:00 | |
| DG1MJG | 2026-08-31 03:38:44 | 47.46614 | 12.56710 | 48° | 29km/h | 19196m | -15.1m/s | -56.8°C | 1.8% | 0hPa | 2.5V | 08:29:00 | 00:00:00 | 00:00:00 | |
| OE5MMP-10 | 2026-08-31 03:38:43 | 47.46604 | 12.56694 | 48° | 29km/h | 19221m | -9.2m/s | -56.7°C | 5.2% | 0hPa | 2.5V | 08:28:00 | 01:52:39 | 00:00:00 | |
| DO3MHA-11 | 2026-08-31 03:38:39 | 47.46584 | 12.56663 | 50° | 27km/h | 19271m | -8.3m/s | -56.7°C | 5.3% | 0hPa | 2.5V | 00:00:00 | 01:52:35 | 00:00:00 | |
| NBG1-10 | 2026-08-31 03:38:35 | 47.46568 | 12.56628 | 60° | 16km/h | 19319m | -12.4m/s | -56.5°C | 5.3% | 0hPa | 2.6V | 00:00:00 | 01:52:31 | 00:00:00 | |
| DB0NH | 2026-08-31 03:38:34 | 47.46564 | 12.56619 | 56° | 16km/h | 19331m | -11.6m/s | -56.4°C | 5.2% | 0hPa | 2.6V | 00:00:00 | 01:52:30 | 00:00:00 | |
| OE5MMP-10 | 2026-08-31 03:38:33 | 47.46561 | 12.56611 | 65° | 26km/h | 19343m | -13.4m/s | -56.3°C | 5.1% | 0hPa | 2.6V | 00:00:00 | 01:52:29 | 00:00:00 | |
| OE5DRO-10 | 2026-08-31 03:38:30 | 47.46553 | 12.56584 | 66° | 16km/h | 19386m | -12.9m/s | -56.2°C | 5.1% | 0hPa | 2.6V | 08:28:00 | 00:00:00 | 00:00:00 | |
| OE5WHR-10 | 2026-08-31 03:38:29 | 47.46551 | 12.56574 | 74° | 16km/h | 19400m | -15.2m/s | -56.2°C | 5.1% | 0hPa | 2.5V | 00:00:00 | 00:00:00 | 00:00:00 | |
| DG1MFX-10 | 2026-08-31 03:38:26 | 47.46548 | 12.56556 | 72° | 24km/h | 19429m | -12.6m/s | -56.2°C | 1.7% | 0hPa | 2.5V | 08:29:00 | 00:00:00 | 00:00:00 | |
| DO3MHA-12 | 2026-08-31 03:38:25 | 47.46545 | 12.56539 | 78° | 16km/h | 19457m | -15.4m/s | -56.1°C | 5.1% | 0hPa | 2.5V | 00:00:00 | 01:52:21 | 00:00:00 | |
| DB0UT-7 | 2026-08-31 03:38:23 | 47.46542 | 12.56523 | 78° | 9km/h | 19485m | -14.7m/s | -56.0°C | 5.1% | 0hPa | 2.6V | 00:00:00 | 01:52:19 | 00:00:00 | |
| OE5DXL-15 | 2026-08-31 03:38:22 | 47.46542 | 12.56516 | 82° | 9km/h | 19500m | -15.0m/s | -55.9°C | 5.0% | 0hPa | 2.5V | 00:00:00 | 00:00:00 | 00:00:00 | |
| DO3MHA-11 | 2026-08-31 03:38:19 | 47.46538 | 12.56498 | 60° | 9km/h | 19547m | -16.8m/s | -55.5°C | 4.8% | 0hPa | 2.5V | 00:00:00 | 01:52:15 | 00:00:00 | |
| OE3JTB-15 | 2026-08-31 03:38:17 | 47.46534 | 12.56490 | 48° | 5km/h | 19581m | -15.2m/s | -55.6°C | 4.8% | 0hPa | 2.5V | 00:00:00 | 01:52:13 | 00:00:00 | |
| DO3MHA-12 | 2026-08-31 03:38:15 | 47.46531 | 12.56485 | 41° | 9km/h | 19609m | -14.1m/s | -55.8°C | 4.9% | 0hPa | 2.5V | 00:00:00 | 01:52:11 | 00:00:00 | |
| DG1MJG | 2026-08-31 03:38:14 | 47.46531 | 12.56485 | 42° | 11km/h | 19609m | -14.1m/s | -55.8°C | 1.6% | 0hPa | 2.5V | 08:29:00 | 00:00:00 | 00:00:00 | |
| OE5MMP-10 | 2026-08-31 03:38:13 | 47.46528 | 12.56482 | 25° | 7km/h | 19639m | -15.7m/s | -56.0°C | 5.0% | 0hPa | 2.5V | 00:00:00 | 01:52:09 | 00:00:00 | |
| OE5DRO-10 | 2026-08-31 03:38:11 | 47.46523 | 12.56481 | 353° | 7km/h | 19671m | -15.6m/s | -56.0°C | 5.1% | 0hPa | 2.5V | 00:00:00 | 00:00:00 | 00:00:00 | |
| DO3MHA-11 | 2026-08-31 03:38:09 | 47.46519 | 12.56481 | 354° | 7km/h | 19703m | -17.7m/s | -55.7°C | 5.0% | 0hPa | 2.5V | 00:00:00 | 01:52:05 | 00:00:00 | |
| OE5WHR-10 | 2026-08-31 03:38:08 | 47.46517 | 12.56481 | 358° | 7km/h | 19720m | -15.8m/s | -55.6°C | 4.9% | 0hPa | 2.5V | 00:00:00 | 01:52:04 | 00:00:00 | |
| DO3MHA-12 | 2026-08-31 03:38:05 | 47.46512 | 12.56482 | 348° | 7km/h | 19767m | -14.0m/s | -55.4°C | 4.8% | 0hPa | 2.5V | 00:00:00 | 01:52:01 | 00:00:00 | |
| DB0NH | 2026-08-31 03:38:04 | 47.46510 | 12.56482 | 358° | 7km/h | 19781m | -14.3m/s | -55.5°C | 4.8% | 0hPa | 2.5V | 00:00:00 | 01:52:00 | 00:00:00 | |
| OE8JPQ-2 | 2026-08-31 03:38:03 | 47.46509 | 12.56482 | 30° | 5km/h | 19796m | -16.7m/s | -55.6°C | 4.8% | 0hPa | 2.5V | 00:00:00 | 00:00:00 | 00:00:00 | |
| NBG1-10 | 2026-08-31 03:38:02 | 47.46507 | 12.56481 | 10° | 7km/h | 19813m | -17.0m/s | -55.5°C | 4.8% | 0hPa | 2.5V | 00:00:00 | 01:51:58 | 00:00:00 | |
| OE5REO-15 | 2026-08-31 03:38:01 | 47.46507 | 12.56481 | 11° | 7km/h | 19813m | -17.1m/s | -55.6°C | 1.6% | 0hPa | 2.5V | 08:29:00 | 00:00:00 | 00:00:00 | |
| DF7PN | 2026-08-31 03:37:52 | 47.46492 | 12.56461 | 307° | 5km/h | 20084m | -15.2m/s | -55.5°C | 1.4% | -1.0hPa | 2.5V | 00:00:00 | 00:00:00 | 00:00:00 | |
| DL6DJ-15 | 2026-08-31 03:37:44 | 47.46492 | 12.56461 | 307° | 5km/h | 20084m | -15.2m/s | -55.5°C | 1.4% | -1.0hPa | 2.5V | 00:00:00 | 00:00:00 | 00:00:00 | |
| OE5MMP-10 | 2026-08-31 03:37:43 | 47.46490 | 12.56462 | 321° | 7km/h | 20098m | -12.6m/s | -55.5°C | 4.7% | 0hPa | 2.5V | 00:00:00 | 01:51:39 | 00:00:00 | |
| DO3MHA-11 | 2026-08-31 03:37:39 | 47.46485 | 12.56467 | 351° | 13km/h | 20153m | -15.2m/s | -55.7°C | 4.7% | 0hPa | 2.5V | 08:29:00 | 01:51:35 | 00:00:00 | |
| OE3JTB-15 | 2026-08-31 03:37:38 | 47.46483 | 12.56468 | 351° | 18km/h | 20167m | -14.3m/s | -55.7°C | 4.8% | 0hPa | 2.5V | 00:00:00 | 00:00:00 | 08:30:00 | |
| DO3MHA-12 | 2026-08-31 03:37:35 | 47.46476 | 12.56469 | 4° | 16km/h | 20207m | -10.7m/s | -56.0°C | 4.9% | 0hPa | 2.6V | 00:00:00 | 01:51:31 | 00:00:00 | |
| DB0NH | 2026-08-31 03:37:34 | 47.46473 | 12.56469 | 10° | 18km/h | 20218m | -11.3m/s | -56.1°C | 5.0% | 0hPa | 2.6V | 00:00:00 | 01:51:30 | 00:00:00 | |
| OE5MMP-10 | 2026-08-31 03:37:33 | 47.46470 | 12.56468 | 19° | 18km/h | 20229m | -12.1m/s | -56.1°C | 5.0% | 0hPa | 2.6V | 00:00:00 | 01:51:29 | 00:00:00 | |
| NBG1-10 | 2026-08-31 03:37:29 | 47.46454 | 12.56462 | 11° | 18km/h | 20276m | -11.3m/s | -56.1°C | 5.0% | 0hPa | 2.6V | 00:00:00 | 01:51:25 | 00:00:00 | |
| OE5WHR-10 | 2026-08-31 03:37:26 | 47.46439 | 12.56459 | 7° | 18km/h | 20311m | -9.7m/s | -56.1°C | 5.0% | 0hPa | 2.5V | 00:00:00 | 00:00:00 | 00:00:00 | |
| PG1ADW-2 | 2026-08-31 03:37:25 | 47.46434 | 12.56459 | 353° | 18km/h | 20321m | -11.8m/s | -56.1°C | 5.0% | 0hPa | 2.5V | 00:00:00 | 00:00:00 | 00:00:00 | |
| DG1MFX-10 | 2026-08-31 03:37:24 | 47.46434 | 12.56459 | 354° | 20km/h | 20321m | -11.9m/s | -56.2°C | 1.7% | 0hPa | 2.5V | 08:29:00 | 00:00:00 | 00:00:00 | |
| DB0UT-7 | 2026-08-31 03:37:23 | 47.46424 | 12.56460 | 357° | 18km/h | 20343m | -11.2m/s | -56.3°C | 5.0% | 0hPa | 2.5V | 00:00:00 | 01:51:19 | 00:00:00 | |
| OE5DXL-15 | 2026-08-31 03:37:22 | 47.46419 | 12.56462 | 347° | 18km/h | 20355m | -13.3m/s | -56.3°C | 5.1% | 0hPa | 2.5V | 00:00:00 | 00:00:00 | 00:00:00 | |
| DF7PN | 2026-08-31 03:37:21 | 47.46414 | 12.56463 | 353° | 15km/h | 20367m | -12.0m/s | -56.4°C | 1.5% | -1.0hPa | 2.5V | 00:00:00 | 00:00:00 | 00:00:00 | |
| DO3MHA-11 | 2026-08-31 03:37:19 | 47.46406 | 12.56464 | 356° | 20km/h | 20390m | -9.5m/s | -56.4°C | 5.2% | 0hPa | 2.5V | 00:00:00 | 01:51:15 | 00:00:00 | |
| DO3MHA-12 | 2026-08-31 03:37:15 | 47.46388 | 12.56469 | 345° | 20km/h | 20437m | -11.6m/s | -56.2°C | 5.1% | 0hPa | 2.5V | 00:00:00 | 01:51:11 | 00:00:00 | |
| OE5DRO-10 | 2026-08-31 03:37:14 | 47.46382 | 12.56471 | 349° | 18km/h | 20449m | -10.9m/s | -56.1°C | 5.0% | 0hPa | 2.5V | 00:00:00 | 00:00:00 | 00:00:00 | |
| OE5MMP-10 | 2026-08-31 03:37:13 | 47.46377 | 12.56472 | 355° | 18km/h | 20459m | -11.0m/s | -56.0°C | 5.1% | 0hPa | 2.5V | 00:00:00 | 01:51:09 | 08:30:00 | |
| DO3MHA-11 | 2026-08-31 03:37:09 | 47.46357 | 12.56473 | 359° | 20km/h | 20504m | -11.4m/s | -55.7°C | 4.9% | 0hPa | 2.5V | 00:00:00 | 01:51:05 | 00:00:00 | |
| OE5WHR-10 | 2026-08-31 03:37:05 | 47.46339 | 12.56467 | 18° | 16km/h | 20548m | -10.9m/s | -55.7°C | 4.8% | 0hPa | 2.5V | 00:00:00 | 01:51:01 | 00:00:00 | |
| DB0NH | 2026-08-31 03:37:04 | 47.46335 | 12.56464 | 22° | 18km/h | 20560m | -12.3m/s | -55.7°C | 4.9% | 0hPa | 2.5V | 00:00:00 | 01:51:00 | 00:00:00 | |
| DB0ND-19 | 2026-08-31 03:36:57 | 47.46309 | 12.56433 | 45° | 15km/h | 20652m | -12.6m/s | 0°C | -1.0% | -1.0hPa | 2.5V | 00:00:00 | 00:00:00 | 00:00:00 | |
| DF7PN | 2026-08-31 03:36:50 | 47.46294 | 12.56402 | 50° | 13km/h | 20708m | 4.2m/s | -55.8°C | 1.5% | -1.0hPa | 2.5V | 00:00:00 | 00:00:00 | 00:00:00 | |
| DO3MHA-11 | 2026-08-31 03:36:49 | 47.46292 | 12.56398 | 42° | 18km/h | 20704m | 4.8m/s | -55.7°C | 4.9% | 0hPa | 2.5V | 00:00:00 | 01:50:45 | 00:00:00 | |
| DO3MHA-12 | 2026-08-31 03:36:45 | 47.46278 | 12.56381 | 43° | 18km/h | 20687m | 3.8m/s | -55.7°C | 4.8% | 0hPa | 2.5V | 00:00:00 | 01:50:41 | 00:00:00 | |
| OE5WHR-10 | 2026-08-31 03:36:44 | 47.46274 | 12.56376 | 40° | 18km/h | 20683m | 4.9m/s | -55.7°C | 4.8% | 0hPa | 2.5V | 00:00:00 | 00:00:00 | 00:00:00 | |
| OE5MMP-10 | 2026-08-31 03:36:43 | 47.46270 | 12.56371 | 42° | 18km/h | 20678m | 3.9m/s | -55.8°C | 4.9% | 0hPa | 2.5V | 00:00:00 | 01:50:39 | 00:00:00 | |
| DL6DJ-15 | 2026-08-31 03:36:42 | 47.46267 | 12.56366 | 50° | 18km/h | 20673m | 5.5m/s | -55.9°C | 1.5% | -1.0hPa | 2.5V | 00:00:00 | 00:00:00 | 00:00:00 | |
| DO3MHA-11 | 2026-08-31 03:36:39 | 47.46258 | 12.56348 | 51° | 20km/h | 20660m | 5.1m/s | -56.0°C | 5.0% | 0hPa | 2.5V | 00:00:00 | 01:50:35 | 00:00:00 | |
| OE5DRO-10 | 2026-08-31 03:36:36 | 47.46249 | 12.56334 | 47° | 18km/h | 20646m | 4.6m/s | -56.1°C | 5.1% | 0hPa | 2.6V | 00:00:00 | 00:00:00 | 00:00:00 | |
| DO3MHA-12 | 2026-08-31 03:36:35 | 47.46245 | 12.56330 | 50° | 20km/h | 20642m | 4.1m/s | -56.0°C | 5.1% | 0hPa | 2.5V | 00:00:00 | 01:50:31 | 00:00:00 | |
| DB0NH | 2026-08-31 03:36:34 | 47.46242 | 12.56324 | 43° | 20km/h | 20637m | 4.8m/s | -56.0°C | 5.0% | 0hPa | 2.5V | 00:00:00 | 01:50:30 | 08:30:00 | |
| OE5MMP-10 | 2026-08-31 03:36:33 | 47.46238 | 12.56319 | 39° | 18km/h | 20633m | 4.8m/s | -56.0°C | 5.0% | 0hPa | 2.5V | 00:00:00 | 01:50:29 | 00:00:00 | |
| DO3MHA-11 | 2026-08-31 03:36:29 | 47.46221 | 12.56298 | 44° | 16km/h | 20615m | 5.1m/s | -55.9°C | 5.0% | 0hPa | 2.5V | 00:00:00 | 01:50:25 | 00:00:00 | |
| OE5REO-15 | 2026-08-31 03:36:27 | 47.46217 | 12.56293 | 38° | 20km/h | 20610m | 4.5m/s | -55.9°C | 1.6% | 0hPa | 2.5V | 00:00:00 | 00:00:00 | 00:00:00 | |
| PG1ADW-2 | 2026-08-31 03:36:25 | 47.46208 | 12.56281 | 48° | 18km/h | 20597m | 4.2m/s | -55.8°C | 4.9% | 0hPa | 2.5V | 00:00:00 | 00:00:00 | 08:30:00 | |
| BAUMI2-15 | 2026-08-31 03:36:24 | 47.46205 | 12.56277 | 42° | 15km/h | 20592m | 5.1m/s | -55.7°C | 4.9% | 0hPa | 2.5V | 00:00:00 | 01:50:20 | 00:00:00 | |
| DB0UT-7 | 2026-08-31 03:36:23 | 47.46203 | 12.56275 | 31° | 20km/h | 20587m | 4.3m/s | -55.7°C | 4.9% | 0hPa | 2.5V | 00:00:00 | 01:50:19 | 00:00:00 | |
| OE5DXL-15 | 2026-08-31 03:36:22 | 47.46200 | 12.56272 | 25° | 20km/h | 20583m | 3.7m/s | -55.7°C | 4.9% | 0hPa | 2.5V | 00:00:00 | 00:00:00 | 00:00:00 | |
| BAUMI2-15 | 2026-08-31 03:36:19 | 47.46189 | 12.56264 | 27° | 22km/h | 20571m | 3.4m/s | -55.7°C | 4.9% | 0hPa | 2.5V | 00:00:00 | 01:50:15 | 00:00:00 | |
| OE5DRO-10 | 2026-08-31 03:36:17 | 47.46179 | 12.56258 | 18° | 22km/h | 20561m | 4.4m/s | -55.6°C | 4.8% | 0hPa | 2.5V | 00:00:00 | 00:00:00 | 00:00:00 | |
| DO3MHA-12 | 2026-08-31 03:36:15 | 47.46168 | 12.56252 | 24° | 22km/h | 20552m | 4.1m/s | -55.7°C | 4.8% | 0hPa | 2.5V | 00:00:00 | 01:50:11 | 00:00:00 | |
| BAUMI2-15 | 2026-08-31 03:36:14 | 47.46162 | 12.56249 | 21° | 22km/h | 20548m | 3.1m/s | -55.7°C | 4.8% | 0hPa | 2.5V | 00:00:00 | 01:50:10 | 00:00:00 | |
| OE5MMP-10 | 2026-08-31 03:36:13 | 47.46157 | 12.56246 | 18° | 20km/h | 20544m | 5.1m/s | -55.7°C | 4.8% | 0hPa | 2.5V | 00:00:00 | 01:50:09 | 00:00:00 | |
| OE5REO-15 | 2026-08-31 03:36:12 | 47.46157 | 12.56246 | 18° | 20km/h | 20544m | 5.1m/s | -55.7°C | 1.6% | 0hPa | 2.5V | 00:00:00 | 00:00:00 | 00:00:00 | |
| DL6DJ-15 | 2026-08-31 03:36:11 | 47.46147 | 12.56244 | 5° | 20km/h | 20535m | 3.6m/s | -55.7°C | 1.4% | -1.0hPa | 2.5V | 00:00:00 | 00:00:00 | 00:00:00 | |
| DO3MHA-11 | 2026-08-31 03:36:09 | 47.46137 | 12.56242 | 12° | 22km/h | 20526m | 4.6m/s | -55.7°C | 4.7% | 0hPa | 2.5V | 00:00:00 | 01:50:05 | 08:30:00 | |
| DO3MHA-12 | 2026-08-31 03:36:05 | 47.46117 | 12.56234 | 8° | 22km/h | 20509m | 4.2m/s | -55.7°C | 4.7% | 0hPa | 2.5V | 00:00:00 | 01:50:01 | 00:00:00 | |
| BAUMI2-15 | 2026-08-31 03:36:04 | 47.46112 | 12.56233 | 8° | 22km/h | 20505m | 5.0m/s | -55.7°C | 4.7% | 0hPa | 2.5V | 00:00:00 | 01:50:00 | 08:30:00 | |
| OE5WHR-10 | 2026-08-31 03:36:02 | 47.46100 | 12.56232 | 358° | 20km/h | 20496m | 5.1m/s | -55.8°C | 4.8% | 0hPa | 2.5V | 00:00:00 | 01:49:58 | 00:00:00 | |
| OE5DRO-10 | 2026-08-31 03:35:58 | 47.46077 | 12.56240 | 348° | 18km/h | 20478m | 4.6m/s | -56.0°C | 4.9% | 0hPa | 2.5V | 00:00:00 | 00:00:00 | 00:00:00 | |
| OE5REO-15 | 2026-08-31 03:35:56 | 47.46071 | 12.56242 | 357° | 20km/h | 20474m | 4.1m/s | -56.0°C | 1.6% | 0hPa | 2.5V | 00:00:00 | 00:00:00 | 00:00:00 | |
| DO3MHA-12 | 2026-08-31 03:35:55 | 47.46062 | 12.56242 | 356° | 18km/h | 20465m | 4.6m/s | -56.0°C | 4.8% | 0hPa | 2.5V | 00:00:00 | 01:49:51 | 08:30:00 | |
| BAUMI2-15 | 2026-08-31 03:35:54 | 47.46058 | 12.56243 | 353° | 16km/h | 20460m | 4.1m/s | -56.1°C | 4.9% | 0hPa | 2.5V | 00:00:00 | 01:49:50 | 00:00:00 | |
| DB0UT-7 | 2026-08-31 03:35:53 | 47.46054 | 12.56243 | 360° | 18km/h | 20456m | 4.6m/s | -56.1°C | 4.9% | 0hPa | 2.5V | 00:00:00 | 00:00:00 | 00:00:00 | |
| OE5DXL-15 | 2026-08-31 03:35:52 | 47.46050 | 12.56243 | 8° | 18km/h | 20451m | 4.5m/s | -56.1°C | 4.9% | 0hPa | 2.5V | 00:00:00 | 00:00:00 | 00:00:00 | |
| NBG1-10 | 2026-08-31 03:35:50 | 47.46041 | 12.56242 | 355° | 20km/h | 20442m | 4.9m/s | -56.2°C | 4.9% | 0hPa | 2.5V | 00:00:00 | 01:49:46 | 00:00:00 | |
| BAUMI2-15 | 2026-08-31 03:35:49 | 47.46036 | 12.56244 | 346° | 22km/h | 20438m | 4.0m/s | -56.3°C | 5.0% | 0hPa | 2.5V | 00:00:00 | 01:49:45 | 00:00:00 | |
| PG1ADW-2 | 2026-08-31 03:35:45 | 47.46015 | 12.56250 | 353° | 18km/h | 20421m | 4.4m/s | -56.4°C | 5.0% | 0hPa | 2.5V | 00:00:00 | 01:49:41 | 00:00:00 | |
| BAUMI2-15 | 2026-08-31 03:35:44 | 47.46010 | 12.56252 | 345° | 15km/h | 20416m | 5.4m/s | -56.4°C | 5.0% | 0hPa | 2.5V | 00:00:00 | 01:49:40 | 00:00:00 | |
| OE5MMP-10 | 2026-08-31 03:35:43 | 47.46006 | 12.56254 | 343° | 16km/h | 20411m | 3.8m/s | -56.4°C | 5.0% | 0hPa | 2.5V | 00:00:00 | 01:49:39 | 08:30:00 | |
| DG1MFX-10 | 2026-08-31 03:35:42 | 47.46006 | 12.56254 | 343° | 18km/h | 20411m | 3.9m/s | -56.4°C | 1.7% | 0hPa | 2.6V | 00:00:00 | 00:00:00 | 00:00:00 | |
| OE5WHR-10 | 2026-08-31 03:35:41 | 47.45999 | 12.56256 | 357° | 18km/h | 20402m | 4.7m/s | -56.4°C | 5.0% | 0hPa | 2.6V | 00:00:00 | 00:00:00 | 08:30:00 | |
| DL6DJ-15 | 2026-08-31 03:35:40 | 47.45995 | 12.56256 | 1° | 11km/h | 20397m | 4.2m/s | -56.4°C | 1.5% | -1.0hPa | 2.5V | 00:00:00 | 00:00:00 | 00:00:00 | |
| DO3MHA-11 | 2026-08-31 03:35:39 | 47.45992 | 12.56256 | 352° | 18km/h | 20392m | 5.2m/s | -56.4°C | 5.0% | 0hPa | 2.5V | 00:00:00 | 01:49:35 | 00:00:00 | |
| DO3MHA-12 | 2026-08-31 03:35:35 | 47.45976 | 12.56260 | 359° | 22km/h | 20375m | 4.0m/s | -56.4°C | 5.1% | 0hPa | 2.5V | 00:00:00 | 01:49:31 | 00:00:00 | |
| BAUMI2-15 | 2026-08-31 03:35:34 | 47.45971 | 12.56261 | 357° | 22km/h | 20371m | 4.3m/s | -56.3°C | 5.1% | 0hPa | 2.5V | 00:00:00 | 01:49:30 | 00:00:00 | |
| OE5MMP-10 | 2026-08-31 03:35:33 | 47.45966 | 12.56262 | 355° | 22km/h | 20366m | 4.9m/s | -56.3°C | 5.0% | 0hPa | 2.5V | 00:00:00 | 01:49:29 | 00:00:00 | |
| BAUMI2-15 | 2026-08-31 03:35:29 | 47.45943 | 12.56262 | 7° | 20km/h | 20349m | 3.7m/s | -56.3°C | 5.1% | 0hPa | 2.5V | 00:00:00 | 01:49:25 | 00:00:00 | |
| DO3MHA-12 | 2026-08-31 03:35:25 | 47.45923 | 12.56261 | 5° | 22km/h | 20331m | 4.6m/s | -56.1°C | 5.0% | 0hPa | 2.5V | 00:00:00 | 01:49:21 | 00:00:00 | |
| BAUMI2-15 | 2026-08-31 03:35:24 | 47.45917 | 12.56260 | 10° | 20km/h | 20327m | 4.1m/s | -56.1°C | 5.0% | 0hPa | 2.6V | 00:00:00 | 01:49:20 | 00:00:00 | |
| OE8JPQ-2 | 2026-08-31 03:35:23 | 47.45912 | 12.56259 | 9° | 18km/h | 20322m | 4.8m/s | -56.1°C | 5.0% | 0hPa | 2.6V | 00:00:00 | 00:00:00 | 00:00:00 | |
| OE5DXL-15 | 2026-08-31 03:35:22 | 47.45907 | 12.56258 | 3° | 16km/h | 20317m | 4.6m/s | -56.0°C | 5.0% | 0hPa | 2.5V | 00:00:00 | 00:00:00 | 00:00:00 | |
| OE3JTB-15 | 2026-08-31 03:35:21 | 47.45902 | 12.56258 | 3° | 16km/h | 20313m | 3.5m/s | -56.0°C | 5.0% | 0hPa | 2.5V | 00:00:00 | 00:00:00 | 00:00:00 | |
| OE5WHR-10 | 2026-08-31 03:35:20 | 47.45898 | 12.56257 | 10° | 15km/h | 20309m | 4.6m/s | -56.0°C | 4.9% | 0hPa | 2.5V | 00:00:00 | 00:00:00 | 00:00:00 | |
| DO3MHA-11 | 2026-08-31 03:35:19 | 47.45893 | 12.56255 | 14° | 20km/h | 20305m | 4.4m/s | -56.0°C | 4.9% | 0hPa | 2.5V | 00:00:00 | 01:49:15 | 00:00:00 | |
| NBG1-10 | 2026-08-31 03:35:17 | 47.45881 | 12.56253 | 5° | 13km/h | 20297m | 4.3m/s | -56.0°C | 4.9% | 0hPa | 2.5V | 00:00:00 | 01:49:13 | 00:00:00 | |
| DO3MHA-12 | 2026-08-31 03:35:15 | 47.45869 | 12.56252 | 359° | 16km/h | 20287m | 4.6m/s | -56.0°C | 4.9% | 0hPa | 2.5V | 00:00:00 | 01:49:11 | 00:00:00 | |
| BAUMI2-15 | 2026-08-31 03:35:14 | 47.45864 | 12.56252 | 360° | 18km/h | 20283m | 4.4m/s | -56.0°C | 4.9% | 0hPa | 2.5V | 00:00:00 | 01:49:10 | 00:00:00 | |
| OE5MMP-10 | 2026-08-31 03:35:13 | 47.45858 | 12.56252 | 4° | 15km/h | 20278m | 4.5m/s | -56.0°C | 4.9% | 0hPa | 2.5V | 00:00:00 | 01:49:09 | 00:00:00 | |
| DG1MJG | 2026-08-31 03:35:10 | 47.45849 | 12.56251 | 4° | 15km/h | 20269m | 5.1m/s | -56.1°C | 1.7% | 0hPa | 2.5V | 00:00:00 | 00:00:00 | 00:00:00 | |
| DO3MHA-11 | 2026-08-31 03:35:09 | 47.45843 | 12.56252 | 352° | 13km/h | 20260m | 3.6m/s | -56.1°C | 5.0% | 0hPa | 2.5V | 00:00:00 | 01:49:05 | 00:00:00 | |
| OE5HKT-10 | 2026-08-31 03:35:07 | 47.45838 | 12.56251 | 20° | 13km/h | 20251m | 4.5m/s | -56.1°C | 5.0% | 0hPa | 2.5V | 00:00:00 | 00:00:00 | 00:00:00 | |
| OE5REO-15 | 2026-08-31 03:35:06 | 47.45838 | 12.56251 | 20° | 15km/h | 20251m | 4.5m/s | -56.1°C | 1.7% | 0hPa | 2.5V | 00:00:00 | 00:00:00 | 00:00:00 | |
| DO3MHA-12 | 2026-08-31 03:35:05 | 47.45830 | 12.56247 | 17° | 13km/h | 20243m | 4.5m/s | -56.0°C | 5.0% | 0hPa | 2.5V | 00:00:00 | 01:49:01 | 00:00:00 | |
| DB0NH | 2026-08-31 03:35:04 | 47.45827 | 12.56245 | 15° | 11km/h | 20239m | 4.6m/s | -56.0°C | 5.0% | 0hPa | 2.5V | 00:00:00 | 01:49:00 | 00:00:00 | |
| OE5MMP-10 | 2026-08-31 03:35:03 | 47.45823 | 12.56244 | 11° | 13km/h | 20234m | 3.8m/s | -56.0°C | 5.0% | 0hPa | 2.5V | 00:00:00 | 01:48:59 | 00:00:00 | |
| OE5DRO-10 | 2026-08-31 03:35:01 | 47.45817 | 12.56242 | 16° | 11km/h | 20226m | 4.4m/s | -55.9°C | 5.0% | 0hPa | 2.5V | 00:00:00 | 00:00:00 | 00:00:00 | |
| IN3HCDX | 2026-08-31 03:35:00 | 47.45817 | 12.56242 | 17° | 13km/h | 20226m | 4.5m/s | -56.0°C | 1.7% | 0hPa | 2.5V | 00:00:00 | 00:00:00 | 00:00:00 | |
| BAUMI2-15 | 2026-08-31 03:34:59 | 47.45810 | 12.56240 | 2° | 11km/h | 20217m | 5.3m/s | -55.9°C | 4.9% | 0hPa | 2.5V | 00:00:00 | 01:48:55 | 00:00:00 | |
| OE5WHR-10 | 2026-08-31 03:34:58 | 47.45808 | 12.56241 | 342° | 11km/h | 20212m | 4.4m/s | -55.9°C | 5.0% | 0hPa | 2.5V | 00:00:00 | 01:48:54 | 00:00:00 | |
| DO3MHA-12 | 2026-08-31 03:34:55 | 47.45799 | 12.56246 | 346° | 11km/h | 20199m | 4.3m/s | -55.8°C | 4.9% | 0hPa | 2.5V | 00:00:00 | 01:48:51 | 00:00:00 | |
| BAUMI2-15 | 2026-08-31 03:34:54 | 47.45797 | 12.56247 | 352° | 11km/h | 20195m | 3.6m/s | -55.8°C | 4.9% | 0hPa | 2.5V | 00:00:00 | 01:48:50 | 00:00:00 | |
| OE5MMP-10 | 2026-08-31 03:34:53 | 47.45793 | 12.56247 | 352° | 9km/h | 20191m | 5.1m/s | -55.7°C | 4.9% | 0hPa | 2.5V | 00:00:00 | 01:48:49 | 00:00:00 | |
| OE5DXL-15 | 2026-08-31 03:34:52 | 47.45791 | 12.56249 | 338° | 7km/h | 20186m | 4.6m/s | -55.7°C | 4.9% | 0hPa | 2.5V | 00:00:00 | 00:00:00 | 08:30:00 | |
| OE5REO-15 | 2026-08-31 03:34:51 | 47.45791 | 12.56249 | 339° | 11km/h | 20186m | 4.7m/s | -55.7°C | 1.6% | 0hPa | 2.6V | 00:00:00 | 00:00:00 | 00:00:00 | |
| DO3MHA-11 | 2026-08-31 03:34:49 | 47.45783 | 12.56251 | 356° | 9km/h | 20173m | 3.7m/s | -55.6°C | 4.9% | 0hPa | 2.6V | 00:00:00 | 01:48:45 | 00:00:00 | |
| OE5HKT-10 | 2026-08-31 03:34:46 | 47.45778 | 12.56256 | 305° | 27km/h | 20159m | 3.9m/s | -55.5°C | 4.9% | 0hPa | 2.6V | 00:00:00 | 00:00:00 | 00:00:00 | |
| PG1ADW-2 | 2026-08-31 03:34:45 | 47.45776 | 12.56259 | 315° | 5km/h | 20155m | 4.8m/s | -55.5°C | 4.8% | 0hPa | 2.6V | 00:00:00 | 00:00:00 | 00:00:00 | |
| NBG1-10 | 2026-08-31 03:34:44 | 47.45775 | 12.56261 | 325° | 5km/h | 20151m | 4.1m/s | -55.5°C | 4.8% | 0hPa | 2.6V | 00:00:00 | 01:48:40 | 00:00:00 | |
| OE8JPQ-2 | 2026-08-31 03:34:43 | 47.45773 | 12.56263 | 328° | 5km/h | 20147m | 3.5m/s | -55.5°C | 4.8% | 0hPa | 2.6V | 00:00:00 | 01:48:39 | 00:00:00 | |
| OE5DRO-10 | 2026-08-31 03:34:42 | 47.45771 | 12.56265 | 318° | 5km/h | 20142m | 5.3m/s | -55.4°C | 4.8% | 0hPa | 2.6V | 00:00:00 | 00:00:00 | 00:00:00 | |
| DG1MFX-10 | 2026-08-31 03:34:41 | 47.45771 | 12.56265 | 318° | 9km/h | 20142m | 5.4m/s | -55.5°C | 1.6% | 0hPa | 2.5V | 00:00:00 | 00:00:00 | 00:00:00 | |
| DG1MJG | 2026-08-31 03:34:40 | 47.45769 | 12.56267 | 323° | 9km/h | 20137m | 4.6m/s | 0°C | 0% | 0hPa | 2.5V | 00:00:00 | 00:00:00 | 00:00:00 | |
| DO3MHA-11 | 2026-08-31 03:34:39 | 47.45765 | 12.56271 | 344° | 5km/h | 20128m | 4.3m/s | -55.4°C | 4.8% | 0hPa | 2.5V | 00:00:00 | 01:48:35 | 08:30:00 | |
| DL6DJ-15 | 2026-08-31 03:34:38 | 47.45763 | 12.56271 | 354° | 4km/h | 20124m | 3.7m/s | -55.4°C | 1.5% | -1.0hPa | 2.5V | 00:00:00 | 00:00:00 | 00:00:00 | |
| OE5WHR-10 | 2026-08-31 03:34:37 | 47.45762 | 12.56271 | 343° | 4km/h | 20120m | 4.8m/s | -55.4°C | 4.8% | 0hPa | 2.5V | 00:00:00 | 00:00:00 | 00:00:00 | |
| DO3MHA-12 | 2026-08-31 03:34:35 | 47.45761 | 12.56275 | 279° | 5km/h | 20111m | 3.8m/s | -55.3°C | 4.8% | 0hPa | 2.5V | 00:00:00 | 01:48:31 | 00:00:00 | |
| DB0NH | 2026-08-31 03:34:34 | 47.45761 | 12.56277 | 265° | 4km/h | 20106m | 4.4m/s | -55.3°C | 4.8% | 0hPa | 2.5V | 00:00:00 | 01:48:30 | 00:00:00 | |
| OE5MMP-10 | 2026-08-31 03:34:33 | 47.45761 | 12.56279 | 281° | 4km/h | 20102m | 4.6m/s | -55.3°C | 4.8% | 0hPa | 2.5V | 00:00:00 | 01:48:29 | 00:00:00 | |
| DO3MHA-11 | 2026-08-31 03:34:30 | 47.45760 | 12.56286 | 290° | 4km/h | 20085m | 3.6m/s | -55.3°C | 4.9% | 0hPa | 2.5V | 00:00:00 | 01:48:25 | 00:00:00 | |
| PG1ADW-2 | 2026-08-31 03:34:25 | 47.45756 | 12.56289 | 318° | 4km/h | 20067m | 4.5m/s | -55.2°C | 4.8% | 0hPa | 2.5V | 00:00:00 | 01:48:21 | 00:00:00 | |
| DB0UT-7 | 2026-08-31 03:34:23 | 47.45756 | 12.56290 | 150° | 5km/h | 20059m | 4.2m/s | -55.1°C | 4.7% | 0hPa | 2.5V | 00:00:00 | 01:48:19 | 00:00:00 | |
| OE5DXL-15 | 2026-08-31 03:34:22 | 47.45757 | 12.56289 | 119° | 5km/h | 20055m | 4.3m/s | -55.1°C | 4.7% | 0hPa | 2.5V | 00:00:00 | 00:00:00 | 00:00:00 | |
| DG1MFX-10 | 2026-08-31 03:34:20 | 47.45758 | 12.56288 | 122° | 4km/h | 20051m | 4.3m/s | -55.1°C | 1.6% | 0hPa | 2.5V | 00:00:00 | 00:00:00 | 00:00:00 | |
| DO3MHA-11 | 2026-08-31 03:34:19 | 47.45759 | 12.56286 | 177° | 4km/h | 20042m | 4.2m/s | -55.0°C | 4.7% | 0hPa | 2.5V | 00:00:00 | 01:48:15 | 00:00:00 | |
| IN3HCDX | 2026-08-31 03:34:18 | 47.45759 | 12.56286 | 178° | 2km/h | 20042m | 4.2m/s | -55.1°C | 1.6% | 0hPa | 2.5V | 00:00:00 | 00:00:00 | 00:00:00 | |
| OE5WHR-10 | 2026-08-31 03:34:16 | 47.45758 | 12.56286 | 10° | 5km/h | 20029m | 3.8m/s | -55.0°C | 4.6% | 0hPa | 2.5V | 00:00:00 | 00:00:00 | 00:00:00 | |
| DO3MHA-12 | 2026-08-31 03:34:15 | 47.45757 | 12.56286 | 11° | 4km/h | 20025m | 4.1m/s | -55.0°C | 4.7% | 0hPa | 2.5V | 00:00:00 | 01:48:11 | 00:00:00 | |
| OE5MMP-10 | 2026-08-31 03:34:13 | 47.45755 | 12.56287 | 319° | 4km/h | 20015m | 4.0m/s | -55.0°C | 4.7% | 0hPa | 2.5V | 00:00:00 | 01:48:09 | 08:30:00 | |
| DO3MHA-11 | 2026-08-31 03:34:09 | 47.45751 | 12.56286 | 52° | 5km/h | 19998m | 4.1m/s | -54.9°C | 4.7% | 0hPa | 2.5V | 00:00:00 | 01:48:05 | 00:00:00 | |
| DL6DJ-15 | 2026-08-31 03:34:07 | 47.45750 | 12.56284 | 350° | 0km/h | 19989m | 3.5m/s | -55.0°C | 1.4% | -1.0hPa | 2.5V | 00:00:00 | 00:00:00 | 00:00:00 | |
| DO3MHA-12 | 2026-08-31 03:34:05 | 47.45749 | 12.56283 | 47° | 7km/h | 19982m | 4.8m/s | -54.9°C | 4.6% | 0hPa | 2.5V | 00:00:00 | 01:48:01 | 00:00:00 | |
| DB0NH | 2026-08-31 03:34:04 | 47.45748 | 12.56282 | 31° | 9km/h | 19977m | 4.2m/s | -54.9°C | 4.6% | 0hPa | 2.5V | 00:00:00 | 01:48:00 | 00:00:00 | |
| OE8JPQ-2 | 2026-08-31 03:34:03 | 47.45746 | 12.56281 | 17° | 9km/h | 19973m | 4.1m/s | -54.9°C | 4.6% | 0hPa | 2.5V | 00:00:00 | 00:00:00 | 00:00:00 | |
| OE5REO-15 | 2026-08-31 03:34:00 | 47.45743 | 12.56280 | 19° | 9km/h | 19965m | 3.5m/s | -55.0°C | 1.5% | 0hPa | 2.5V | 00:00:00 | 00:00:00 | 00:00:00 | |
| DO3MHA-11 | 2026-08-31 03:33:59 | 47.45738 | 12.56277 | 39° | 7km/h | 19956m | 4.0m/s | -55.0°C | 4.6% | 0hPa | 2.5V | 00:00:00 | 01:47:55 | 00:00:00 | |
| IN3HCDX | 2026-08-31 03:33:58 | 47.45738 | 12.56277 | 39° | 9km/h | 19956m | 4.1m/s | -55.1°C | 1.6% | 0hPa | 2.5V | 00:00:00 | 00:00:00 | 00:00:00 | |
| OE5WHR-10 | 2026-08-31 03:33:55 | 47.45733 | 12.56269 | 81° | 9km/h | 19939m | 4.3m/s | -55.2°C | 4.7% | 0hPa | 2.5V | 00:00:00 | 01:47:51 | 00:00:00 | |
| OE5MMP-10 | 2026-08-31 03:33:53 | 47.45732 | 12.56264 | 69° | 9km/h | 19931m | 3.9m/s | -55.2°C | 4.7% | 0hPa | 2.5V | 00:00:00 | 01:47:49 | 00:00:00 | |
| OE5DXL-15 | 2026-08-31 03:33:52 | 47.45732 | 12.56261 | 71° | 7km/h | 19926m | 4.1m/s | -55.2°C | 4.7% | 0hPa | 2.5V | 00:00:00 | 00:00:00 | 00:00:00 | |
| OE3JTB-15 | 2026-08-31 03:33:51 | 47.45731 | 12.56258 | 93° | 7km/h | 19922m | 4.4m/s | -55.2°C | 4.7% | 0hPa | 2.5V | 00:00:00 | 00:00:00 | 00:00:00 | |
| DO3MHA-11 | 2026-08-31 03:33:49 | 47.45731 | 12.56251 | 77° | 9km/h | 19913m | 5.1m/s | -55.3°C | 4.7% | 0hPa | 2.5V | 00:00:00 | 01:47:45 | 00:00:00 | |
| DO3MHA-12 | 2026-08-31 03:33:45 | 47.45728 | 12.56235 | 80° | 9km/h | 19896m | 4.1m/s | -55.3°C | 4.7% | 0hPa | 2.5V | 00:00:00 | 01:47:41 | 00:00:00 | |
| OE5REO-15 | 2026-08-31 03:33:44 | 47.45728 | 12.56235 | 81° | 7km/h | 19896m | 4.2m/s | -55.3°C | 1.6% | 0hPa | 2.5V | 00:00:00 | 00:00:00 | 00:00:00 | |
| OE5MMP-10 | 2026-08-31 03:33:43 | 47.45727 | 12.56229 | 69° | 9km/h | 19887m | 4.7m/s | -55.3°C | 4.7% | 0hPa | 2.5V | 00:00:00 | 01:47:39 | 00:00:00 | |
| DO3MHA-11 | 2026-08-31 03:33:39 | 47.45723 | 12.56220 | 53° | 7km/h | 19870m | 3.7m/s | -55.5°C | 4.8% | 0hPa | 2.5V | 00:00:00 | 01:47:35 | 00:00:00 | |
| NBG1-10 | 2026-08-31 03:33:38 | 47.45721 | 12.56218 | 61° | 7km/h | 19866m | 4.8m/s | -55.5°C | 4.8% | 0hPa | 2.5V | 00:00:00 | 01:47:34 | 00:00:00 | |
| IN3HCDX | 2026-08-31 03:33:37 | 47.45721 | 12.56218 | 61° | 9km/h | 19866m | 4.9m/s | -55.6°C | 1.6% | 0hPa | 2.5V | 00:00:00 | 00:00:00 | 00:00:00 | |
| DL6DJ-15 | 2026-08-31 03:33:36 | 47.45718 | 12.56208 | 63° | 7km/h | 19853m | 4.5m/s | -55.6°C | 1.5% | -1.0hPa | 2.5V | 00:00:00 | 00:00:00 | 00:00:00 | |
| DO3MHA-12 | 2026-08-31 03:33:35 | 47.45718 | 12.56208 | 64° | 5km/h | 19853m | 4.5m/s | -55.6°C | 4.8% | 0hPa | 2.5V | 00:00:00 | 01:47:31 | 00:00:00 | |
| DB0NH | 2026-08-31 03:33:34 | 47.45717 | 12.56205 | 66° | 7km/h | 19849m | 3.7m/s | -55.5°C | 4.8% | 0hPa | 2.5V | 00:00:00 | 01:47:30 | 00:00:00 | |
| OE5MMP-10 | 2026-08-31 03:33:33 | 47.45717 | 12.56203 | 67° | 5km/h | 19844m | 5.0m/s | -55.5°C | 4.8% | 0hPa | 2.5V | 00:00:00 | 01:47:29 | 00:00:00 | |
| DO3MHA-11 | 2026-08-31 03:33:29 | 47.45715 | 12.56196 | 38° | 5km/h | 19827m | 4.1m/s | -55.4°C | 4.7% | 0hPa | 2.5V | 00:00:00 | 01:47:25 | 00:00:00 | |
| OE5REO-15 | 2026-08-31 03:33:28 | 47.45715 | 12.56196 | 39° | 2km/h | 19827m | 4.1m/s | -55.4°C | 1.6% | 0hPa | 2.5V | 00:00:00 | 00:00:00 | 00:00:00 | |
| OE5DRO-10 | 2026-08-31 03:33:26 | 47.45713 | 12.56192 | 40° | 7km/h | 19815m | 3.2m/s | -55.4°C | 4.7% | 0hPa | 2.5V | 00:00:00 | 00:00:00 | 00:00:00 | |
| DO3MHA-12 | 2026-08-31 03:33:25 | 47.45712 | 12.56191 | 24° | 7km/h | 19811m | 4.9m/s | -55.5°C | 4.8% | 0hPa | 2.5V | 00:00:00 | 01:47:21 | 00:00:00 | |
| OE5MMP-10 | 2026-08-31 03:33:23 | 47.45709 | 12.56191 | 354° | 7km/h | 19803m | 3.6m/s | -55.6°C | 4.8% | 0hPa | 2.5V | 00:00:00 | 01:47:19 | 00:00:00 | |
| OE5DXL-15 | 2026-08-31 03:33:22 | 47.45707 | 12.56191 | 358° | 7km/h | 19799m | 4.7m/s | -55.6°C | 4.8% | 0hPa | 2.5V | 00:00:00 | 00:00:00 | 00:00:00 | |
| DO3MHA-11 | 2026-08-31 03:33:19 | 47.45702 | 12.56188 | 25° | 7km/h | 19786m | 4.6m/s | -55.6°C | 4.8% | 0hPa | 2.5V | 00:00:00 | 01:47:15 | 00:00:00 | |
| DG1MFX-10 | 2026-08-31 03:33:18 | 47.45702 | 12.56188 | 25° | 7km/h | 19786m | 4.6m/s | -55.6°C | 1.7% | 0hPa | 2.5V | 00:00:00 | 00:00:00 | 00:00:00 | |
| IN3HCDX | 2026-08-31 03:33:16 | 47.45699 | 12.56186 | 32° | 5km/h | 19777m | 4.5m/s | -55.6°C | 1.6% | 0hPa | 2.5V | 00:00:00 | 00:00:00 | 00:00:00 | |
| DO3MHA-12 | 2026-08-31 03:33:14 | 47.45694 | 12.56183 | 5° | 9km/h | 19765m | 5.1m/s | -55.5°C | 4.7% | 0hPa | 2.5V | 00:00:00 | 01:47:10 | 00:00:00 | |
| OE5WHR-10 | 2026-08-31 03:33:13 | 47.45692 | 12.56183 | 350° | 9km/h | 19760m | 4.0m/s | -55.5°C | 4.7% | 0hPa | 2.5V | 00:00:00 | 00:00:00 | 00:00:00 | |
| OE5REO-15 | 2026-08-31 03:33:12 | 47.45693 | 12.56183 | 351° | 7km/h | 19760m | 4.0m/s | -55.6°C | 1.6% | 0hPa | 2.5V | 00:00:00 | 00:00:00 | 00:00:00 | |
| DO3MHA-11 | 2026-08-31 03:33:09 | 47.45683 | 12.56182 | 5° | 7km/h | 19744m | 4.7m/s | -55.9°C | 4.9% | 0hPa | 2.5V | 00:00:00 | 01:47:05 | 08:30:00 | |
| OE5DRO-10 | 2026-08-31 03:33:07 | 47.45678 | 12.56181 | 13° | 7km/h | 19735m | 4.3m/s | -56.0°C | 4.9% | 0hPa | 2.6V | 00:00:00 | 00:00:00 | 00:00:00 | |
| DL6DJ-15 | 2026-08-31 03:33:05 | 47.45672 | 12.56177 | 30° | 5km/h | 19721m | 5.1m/s | -56.1°C | 1.5% | -1.0hPa | 2.6V | 00:00:00 | 00:00:00 | 00:00:00 | |
| DB0NH | 2026-08-31 03:33:04 | 47.45671 | 12.56177 | 31° | 9km/h | 19722m | 5.1m/s | -56.0°C | 4.9% | 0hPa | 2.6V | 00:00:00 | 01:47:00 | 00:00:00 | |
| DO3MHA-11 | 2026-08-31 03:32:59 | 47.45667 | 12.56172 | 56° | 9km/h | 19702m | 3.9m/s | -56.3°C | 5.0% | 0hPa | 2.6V | 00:00:00 | 01:46:55 | 00:00:00 | |
| DG1MFX-10 | 2026-08-31 03:32:57 | 47.45666 | 12.56170 | 36° | 9km/h | 19698m | 4.7m/s | -56.3°C | 1.8% | 0hPa | 2.6V | 00:00:00 | 00:00:00 | 00:00:00 | |
| OE5REO-15 | 2026-08-31 03:32:56 | 47.45664 | 12.56168 | 24° | 11km/h | 19693m | 4.1m/s | -56.3°C | 1.7% | 0hPa | 2.6V | 00:00:00 | 00:00:00 | 00:00:00 | |
| IN3HCDX | 2026-08-31 03:32:55 | 47.45661 | 12.56166 | 26° | 13km/h | 19689m | 4.5m/s | -56.3°C | 1.7% | 0hPa | 2.6V | 00:00:00 | 00:00:00 | 00:00:00 | |
| DO3MHA-12 | 2026-08-31 03:32:54 | 47.45657 | 12.56161 | 45° | 9km/h | 19681m | 3.0m/s | -56.3°C | 5.0% | 0hPa | 2.6V | 00:00:00 | 01:46:50 | 08:30:00 | |
| DB0UT-7 | 2026-08-31 03:32:53 | 47.45655 | 12.56158 | 35° | 13km/h | 19678m | 3.9m/s | -56.3°C | 5.0% | 0hPa | 2.6V | 00:00:00 | 00:00:00 | 00:00:00 | |
| OE5WHR-10 | 2026-08-31 03:32:52 | 47.45652 | 12.56157 | 21° | 11km/h | 19674m | 4.5m/s | -56.2°C | 5.0% | 0hPa | 2.6V | 00:00:00 | 01:46:48 | 00:00:00 | |
| DO3MHA-11 | 2026-08-31 03:32:49 | 47.45648 | 12.56153 | 70° | 11km/h | 19661m | 4.1m/s | -56.2°C | 5.0% | 0hPa | 2.6V | 00:00:00 | 01:46:45 | 00:00:00 | |
| OE5DRO-10 | 2026-08-31 03:32:48 | 47.45647 | 12.56150 | 78° | 13km/h | 19657m | 3.9m/s | -56.2°C | 5.0% | 0hPa | 2.6V | 00:00:00 | 00:00:00 | 08:30:00 | |
| BAUMI2-15 | 2026-08-31 03:32:47 | 47.45647 | 12.56147 | 67° | 11km/h | 19653m | 4.4m/s | -56.2°C | 5.0% | 0hPa | 2.6V | 00:00:00 | 01:46:43 | 00:00:00 | |
| PG1ADW-2 | 2026-08-31 03:32:45 | 47.45645 | 12.56142 | 52° | 15km/h | 19645m | 3.2m/s | -56.1°C | 5.0% | 0hPa | 2.5V | 00:00:00 | 00:00:00 | 00:00:00 | |
| DO3MHA-12 | 2026-08-31 03:32:44 | 47.45643 | 12.56138 | 54° | 13km/h | 19641m | 4.5m/s | -56.1°C | 5.0% | 0hPa | 2.5V | 00:00:00 | 01:46:40 | 00:00:00 | |
| OE5MMP-10 | 2026-08-31 03:32:43 | 47.45641 | 12.56134 | 60° | 13km/h | 19636m | 4.2m/s | -56.1°C | 5.0% | 0hPa | 2.5V | 00:00:00 | 01:46:39 | 08:30:00 | |
| BAUMI2-15 | 2026-08-31 03:32:42 | 47.45640 | 12.56130 | 64° | 11km/h | 19632m | 4.2m/s | -56.1°C | 4.9% | 0hPa | 2.5V | 00:00:00 | 01:46:38 | 00:00:00 | |
| DO3MHA-11 | 2026-08-31 03:32:39 | 47.45635 | 12.56119 | 66° | 15km/h | 19620m | 4.5m/s | -56.0°C | 4.9% | 0hPa | 2.5V | 00:00:00 | 01:46:35 | 00:00:00 | |
| OE5REO-15 | 2026-08-31 03:32:38 | 47.45636 | 12.56119 | 67° | 11km/h | 19620m | 4.6m/s | -56.1°C | 1.7% | 0hPa | 2.5V | 00:00:00 | 00:00:00 | 00:00:00 | |
| BAUMI2-15 | 2026-08-31 03:32:37 | 47.45634 | 12.56110 | 89° | 13km/h | 19612m | 4.1m/s | -56.0°C | 4.9% | 0hPa | 2.5V | 00:00:00 | 01:46:33 | 00:00:00 | |
| DL6DJ-15 | 2026-08-31 03:32:34 | 47.45631 | 12.56092 | 73° | 15km/h | 19595m | 4.4m/s | -56.0°C | 1.5% | -1.0hPa | 2.5V | 00:00:00 | 00:00:00 | 00:00:00 | |
| OE5MMP-10 | 2026-08-31 03:32:33 | 47.45631 | 12.56092 | 74° | 16km/h | 19596m | 4.3m/s | -55.9°C | 4.9% | 0hPa | 2.5V | 00:00:00 | 01:46:29 | 00:00:00 | |
| BAUMI2-15 | 2026-08-31 03:32:32 | 47.45630 | 12.56086 | 74° | 16km/h | 19591m | 3.8m/s | -55.9°C | 4.9% | 0hPa | 2.5V | 00:00:00 | 01:46:28 | 08:30:00 | |
| OE5WHR-10 | 2026-08-31 03:32:31 | 47.45628 | 12.56080 | 69° | 20km/h | 19587m | 4.7m/s | -55.9°C | 4.8% | 0hPa | 2.5V | 00:00:00 | 00:00:00 | 08:30:00 | |
| DO3MHA-11 | 2026-08-31 03:32:29 | 47.45625 | 12.56069 | 66° | 18km/h | 19579m | 3.9m/s | -56.0°C | 4.9% | 0hPa | 2.5V | 00:00:00 | 01:46:25 | 00:00:00 | |
| BAUMI2-15 | 2026-08-31 03:32:27 | 47.45623 | 12.56057 | 77° | 16km/h | 19570m | 3.6m/s | -56.0°C | 4.9% | 0hPa | 2.5V | 00:00:00 | 01:46:23 | 00:00:00 | |
| PG1ADW-2 | 2026-08-31 03:32:25 | 47.45620 | 12.56045 | 68° | 22km/h | 19561m | 3.9m/s | -56.0°C | 4.9% | 0hPa | 2.5V | 00:00:00 | 00:00:00 | 00:00:00 | |
| OE3JTB-15 | 2026-08-31 03:32:24 | 47.45619 | 12.56039 | 74° | 24km/h | 19557m | 3.8m/s | -56.0°C | 4.8% | 0hPa | 2.6V | 00:00:00 | 00:00:00 | 00:00:00 | |
| DB0UT-7 | 2026-08-31 03:32:23 | 47.45618 | 12.56033 | 74° | 24km/h | 19553m | 4.6m/s | -56.1°C | 4.9% | 0hPa | 2.6V | 00:00:00 | 01:46:19 | 00:00:00 | |
| BAUMI2-15 | 2026-08-31 03:32:22 | 47.45616 | 12.56026 | 76° | 20km/h | 19549m | 3.6m/s | -56.1°C | 4.9% | 0hPa | 2.6V | 00:00:00 | 01:46:18 | 00:00:00 | |
| DO3MHA-11 | 2026-08-31 03:32:19 | 47.45612 | 12.56005 | 73° | 22km/h | 19536m | 3.3m/s | -56.2°C | 4.9% | 0hPa | 2.6V | 00:00:00 | 01:46:15 | 00:00:00 | |
| BAUMI2-15 | 2026-08-31 03:32:17 | 47.45610 | 12.55990 | 82° | 22km/h | 19528m | 3.8m/s | -56.3°C | 4.9% | 0hPa | 2.6V | 00:00:00 | 01:46:13 | 00:00:00 | |
| DG1MFX-10 | 2026-08-31 03:32:16 | 47.45610 | 12.55990 | 83° | 22km/h | 19528m | 3.9m/s | -56.3°C | 1.7% | 0hPa | 2.5V | 00:00:00 | 00:00:00 | 00:00:00 | |
| DO3MHA-12 | 2026-08-31 03:32:14 | 47.45606 | 12.55967 | 74° | 24km/h | 19516m | 3.3m/s | -56.4°C | 5.0% | 0hPa | 2.5V | 00:00:00 | 01:46:10 | 00:00:00 | |
| OE5MMP-10 | 2026-08-31 03:32:13 | 47.45605 | 12.55959 | 72° | 26km/h | 19512m | 4.7m/s | -56.5°C | 5.0% | 0hPa | 2.5V | 00:00:00 | 01:46:09 | 00:00:00 | |
| BAUMI2-15 | 2026-08-31 03:32:12 | 47.45603 | 12.55951 | 75° | 24km/h | 19508m | 3.6m/s | -56.5°C | 5.0% | 0hPa | 2.5V | 00:00:00 | 01:46:08 | 00:00:00 | |
| DF7PN | 2026-08-31 03:32:11 | 47.45600 | 12.55934 | 71° | 24km/h | 19499m | 4.8m/s | -56.6°C | 1.6% | -1.0hPa | 2.5V | 00:00:00 | 00:00:00 | 00:00:00 | |
| OE5DRO-10 | 2026-08-31 03:32:10 | 47.45600 | 12.55934 | 72° | 27km/h | 19500m | 4.7m/s | -56.5°C | 5.1% | 0hPa | 2.5V | 00:00:00 | 00:00:00 | 00:00:00 | |
| DO3MHA-11 | 2026-08-31 03:32:09 | 47.45598 | 12.55926 | 69° | 27km/h | 19495m | 3.7m/s | -56.5°C | 5.1% | 0hPa | 2.5V | 00:00:00 | 01:46:05 | 00:00:00 | |
| BAUMI2-15 | 2026-08-31 03:32:07 | 47.45594 | 12.55908 | 80° | 29km/h | 19487m | 4.2m/s | -56.5°C | 5.0% | 0hPa | 2.5V | 00:00:00 | 01:46:03 | 00:00:00 | |
| OE5WHR-10 | 2026-08-31 03:32:06 | 47.45593 | 12.55898 | 81° | 27km/h | 19483m | 3.3m/s | -56.5°C | 5.0% | 0hPa | 2.5V | 00:00:00 | 00:00:00 | 00:00:00 | |
| PG1ADW-2 | 2026-08-31 03:32:05 | 47.45592 | 12.55888 | 78° | 27km/h | 19479m | 4.5m/s | -56.5°C | 5.0% | 0hPa | 2.5V | 00:00:00 | 00:00:00 | 00:00:00 | |
| DO3MHA-12 | 2026-08-31 03:32:04 | 47.45590 | 12.55877 | 73° | 27km/h | 19475m | 3.9m/s | -56.5°C | 5.1% | 0hPa | 2.5V | 00:00:00 | 01:46:00 | 00:00:00 | |
| BAUMI2-15 | 2026-08-31 03:32:02 | 47.45586 | 12.55856 | 77° | 29km/h | 19467m | 4.2m/s | -56.5°C | 5.0% | 0hPa | 2.5V | 00:00:00 | 01:45:58 | 00:00:00 | |
| DO3MHA-11 | 2026-08-31 03:31:59 | 47.45579 | 12.55824 | 68° | 26km/h | 19454m | 4.0m/s | -56.5°C | 5.0% | 0hPa | 2.6V | 00:00:00 | 01:45:55 | 00:00:00 | |
| BAUMI2-15 | 2026-08-31 03:31:57 | 47.45573 | 12.55806 | 66° | 26km/h | 19446m | 3.8m/s | -56.5°C | 5.1% | 0hPa | 2.6V | 00:00:00 | 01:45:53 | 00:00:00 | |
| DG1MFX-10 | 2026-08-31 03:31:56 | 47.45573 | 12.55806 | 67° | 27km/h | 19446m | 3.8m/s | -56.6°C | 1.8% | 0hPa | 2.6V | 00:00:00 | 00:00:00 | 00:00:00 | |
| OE3JTB-15 | 2026-08-31 03:31:55 | 47.45568 | 12.55788 | 67° | 27km/h | 19438m | 5.0m/s | -56.6°C | 5.1% | 0hPa | 2.6V | 00:00:00 | 01:45:51 | 00:00:00 | |
| DO3MHA-12 | 2026-08-31 03:31:54 | 47.45566 | 12.55780 | 64° | 26km/h | 19433m | 3.8m/s | -56.6°C | 5.1% | 0hPa | 2.6V | 00:00:00 | 01:45:50 | 00:00:00 | |
| DB0UT-7 | 2026-08-31 03:31:53 | 47.45563 | 12.55772 | 69° | 27km/h | 19429m | 4.5m/s | -56.5°C | 5.0% | 0hPa | 2.5V | 00:00:00 | 00:00:00 | 00:00:00 | |
| OE5DXL-15 | 2026-08-31 03:31:52 | 47.45561 | 12.55764 | 75° | 27km/h | 19425m | 3.9m/s | -56.5°C | 5.0% | 0hPa | 2.5V | 00:00:00 | 00:00:00 | 00:00:00 | |
| OE5DRO-10 | 2026-08-31 03:31:51 | 47.45560 | 12.55755 | 81° | 27km/h | 19421m | 3.4m/s | -56.5°C | 5.1% | 0hPa | 2.5V | 00:00:00 | 00:00:00 | 00:00:00 | |
| DO3MHA-11 | 2026-08-31 03:31:49 | 47.45556 | 12.55736 | 69° | 27km/h | 19413m | 4.0m/s | -56.5°C | 5.1% | 0hPa | 2.6V | 00:00:00 | 01:45:45 | 00:00:00 | |
| BAUMI2-15 | 2026-08-31 03:31:47 | 47.45551 | 12.55719 | 66° | 29km/h | 19405m | 4.5m/s | -56.5°C | 5.0% | 0hPa | 2.6V | 00:00:00 | 01:45:43 | 08:30:00 | |
| PG1ADW-2 | 2026-08-31 03:31:45 | 47.45544 | 12.55699 | 62° | 27km/h | 19397m | 3.4m/s | -56.5°C | 5.0% | 0hPa | 2.5V | 00:00:00 | 01:45:41 | 00:00:00 | |
| OE5WHR-10 | 2026-08-31 03:31:44 | 47.45540 | 12.55690 | 57° | 27km/h | 19393m | 4.4m/s | -56.5°C | 5.0% | 0hPa | 2.5V | 00:00:00 | 01:45:40 | 00:00:00 | |
| OE5MMP-10 | 2026-08-31 03:31:43 | 47.45536 | 12.55681 | 56° | 27km/h | 19389m | 3.9m/s | -56.5°C | 5.0% | 0hPa | 2.5V | 00:00:00 | 01:45:39 | 00:00:00 | |
| BAUMI2-15 | 2026-08-31 03:31:42 | 47.45532 | 12.55672 | 58° | 27km/h | 19384m | 4.5m/s | -56.5°C | 5.0% | 0hPa | 2.5V | 00:00:00 | 01:45:38 | 00:00:00 | |
| DF7PN | 2026-08-31 03:31:40 | 47.45522 | 12.55645 | 58° | 26km/h | 19372m | 4.8m/s | -56.7°C | 1.6% | -1.0hPa | 2.5V | 00:00:00 | 00:00:00 | 00:00:00 | |
| DO3MHA-11 | 2026-08-31 03:31:39 | 47.45521 | 12.55645 | 59° | 27km/h | 19372m | 4.7m/s | -56.7°C | 5.1% | 0hPa | 2.5V | 00:00:00 | 01:45:35 | 08:30:00 | |
| BAUMI2-15 | 2026-08-31 03:31:37 | 47.45514 | 12.55629 | 59° | 27km/h | 19364m | 3.6m/s | -56.8°C | 5.1% | 0hPa | 2.5V | 00:00:00 | 01:45:33 | 00:00:00 | |
| DG1MFX-10 | 2026-08-31 03:31:35 | 47.45512 | 12.55621 | 67° | 26km/h | 19360m | 4.7m/s | -56.9°C | 1.8% | 0hPa | 2.5V | 00:00:00 | 00:00:00 | 00:00:00 | |
| DB0NH | 2026-08-31 03:31:34 | 47.45506 | 12.55603 | 60° | 29km/h | 19351m | 4.4m/s | -56.8°C | 5.1% | 0hPa | 2.5V | 00:00:00 | 01:45:30 | 00:00:00 | |
| OE5MMP-10 | 2026-08-31 03:31:33 | 47.45501 | 12.55594 | 55° | 27km/h | 19347m | 3.7m/s | -56.8°C | 5.1% | 0hPa | 2.5V | 00:00:00 | 01:45:29 | 00:00:00 | |
| BAUMI2-15 | 2026-08-31 03:31:32 | 47.45497 | 12.55585 | 54° | 29km/h | 19344m | 3.3m/s | -56.8°C | 5.1% | 0hPa | 2.5V | 00:00:00 | 01:45:28 | 00:00:00 | |
| DL6DJ-15 | 2026-08-31 03:31:31 | 47.45493 | 12.55576 | 56° | 29km/h | 19340m | 4.6m/s | -56.9°C | 1.6% | -1.0hPa | 2.5V | 00:00:00 | 00:00:00 | 00:00:00 | |
| IN3HCDX | 2026-08-31 03:31:30 | 47.45493 | 12.55575 | 57° | 29km/h | 19340m | 4.6m/s | -56.9°C | 1.8% | 0hPa | 2.5V | 00:00:00 | 00:00:00 | 00:00:00 | |
| DO3MHA-11 | 2026-08-31 03:31:29 | 47.45485 | 12.55558 | 55° | 29km/h | 19332m | 4.3m/s | -56.8°C | 5.1% | 0hPa | 2.5V | 00:00:00 | 01:45:25 | 00:00:00 | |
| BAUMI2-15 | 2026-08-31 03:31:27 | 47.45475 | 12.55543 | 43° | 29km/h | 19323m | 3.3m/s | -56.8°C | 5.1% | 0hPa | 2.5V | 00:00:00 | 01:45:23 | 00:00:00 | |
| OE3JTB-15 | 2026-08-31 03:31:26 | 47.45470 | 12.55536 | 43° | 29km/h | 19319m | 4.0m/s | -56.8°C | 5.1% | 0hPa | 2.5V | 00:00:00 | 00:00:00 | 08:30:00 | |
| PG1ADW-2 | 2026-08-31 03:31:25 | 47.45465 | 12.55529 | 50° | 29km/h | 19315m | 4.2m/s | -56.9°C | 5.1% | 0hPa | 2.5V | 00:00:00 | 00:00:00 | 00:00:00 | |
| DO3MHA-12 | 2026-08-31 03:31:24 | 47.45461 | 12.55521 | 55° | 31km/h | 19311m | 3.3m/s | -56.9°C | 5.1% | 0hPa | 2.6V | 00:00:00 | 01:45:20 | 08:30:00 | |
| DB0UT-7 | 2026-08-31 03:31:23 | 47.45456 | 12.55512 | 52° | 29km/h | 19307m | 4.4m/s | -56.9°C | 5.1% | 0hPa | 2.6V | 00:00:00 | 01:45:19 | 00:00:00 | |
| BAUMI2-15 | 2026-08-31 03:31:22 | 47.45452 | 12.55503 | 54° | 33km/h | 19303m | 4.8m/s | -56.9°C | 5.2% | 0hPa | 2.6V | 00:00:00 | 01:45:18 | 00:00:00 | |
| DO3MHA-11 | 2026-08-31 03:31:19 | 47.45436 | 12.55473 | 55° | 29km/h | 19290m | 3.4m/s | -56.9°C | 5.1% | 0hPa | 2.6V | 00:00:00 | 01:45:15 | 00:00:00 | |
| BAUMI2-15 | 2026-08-31 03:31:17 | 47.45427 | 12.55455 | 47° | 27km/h | 19282m | 4.5m/s | -56.9°C | 5.1% | 0hPa | 2.6V | 00:00:00 | 01:45:13 | 00:00:00 | |
| DO3MHA-12 | 2026-08-31 03:31:14 | 47.45412 | 12.55434 | 46° | 29km/h | 19269m | 3.7m/s | -56.9°C | 5.1% | 0hPa | 2.5V | 00:00:00 | 01:45:10 | 00:00:00 | |
| OE5MMP-10 | 2026-08-31 03:31:13 | 47.45407 | 12.55427 | 43° | 31km/h | 19265m | 3.0m/s | -56.9°C | 5.1% | 0hPa | 2.5V | 00:00:00 | 01:45:09 | 08:30:00 | |
| BAUMI2-15 | 2026-08-31 03:31:12 | 47.45402 | 12.55421 | 42° | 29km/h | 19262m | 4.2m/s | -56.8°C | 5.0% | 0hPa | 2.5V | 00:00:00 | 01:45:08 | 00:00:00 | |
| OE5REO-15 | 2026-08-31 03:31:10 | 47.45397 | 12.55414 | 41° | 29km/h | 19258m | 4.0m/s | -56.9°C | 1.8% | 0hPa | 2.5V | 00:00:00 | 00:00:00 | 00:00:00 | |
| DF7PN | 2026-08-31 03:31:09 | 47.45380 | 12.55390 | 50° | 29km/h | 19246m | 3.7m/s | -56.9°C | 1.6% | -1.0hPa | 2.5V | 00:00:00 | 00:00:00 | 00:00:00 | |
| BAUMI2-15 | 2026-08-31 03:31:07 | 47.45375 | 12.55382 | 49° | 33km/h | 19242m | 3.9m/s | -56.9°C | 5.0% | 0hPa | 2.5V | 00:00:00 | 01:45:03 | 00:00:00 | |
| PG1ADW-2 | 2026-08-31 03:31:05 | 47.45364 | 12.55364 | 43° | 26km/h | 19234m | 3.5m/s | -56.9°C | 5.0% | 0hPa | 2.5V | 00:00:00 | 00:00:00 | 00:00:00 | |
| DB0NH | 2026-08-31 03:31:04 | 47.45358 | 12.55355 | 47° | 26km/h | 19230m | 4.5m/s | -56.9°C | 4.9% | 0hPa | 2.5V | 00:00:00 | 01:45:00 | 00:00:00 | |
| OE5MMP-10 | 2026-08-31 03:31:03 | 47.45352 | 12.55347 | 46° | 26km/h | 19226m | 4.1m/s | -56.9°C | 5.0% | 0hPa | 2.5V | 00:00:00 | 01:44:59 | 00:00:00 | |
| BAUMI2-15 | 2026-08-31 03:31:02 | 47.45347 | 12.55339 | 42° | 27km/h | 19221m | 4.2m/s | -56.9°C | 4.9% | 0hPa | 2.5V | 00:00:00 | 01:44:58 | 08:30:00 | |
| DL6DJ-15 | 2026-08-31 03:31:00 | 47.45335 | 12.55326 | 33° | 27km/h | 19212m | 3.8m/s | -57.3°C | 1.6% | -1.0hPa | 2.6V | 00:00:00 | 00:00:00 | 00:00:00 | |
| DO3MHA-11 | 2026-08-31 03:30:59 | 47.45329 | 12.55320 | 35° | 24km/h | 19208m | 4.2m/s | -57.4°C | 5.2% | 0hPa | 2.6V | 00:00:00 | 01:44:55 | 00:00:00 | |
| BAUMI2-15 | 2026-08-31 03:30:57 | 47.45318 | 12.55309 | 37° | 22km/h | 19200m | 3.8m/s | -57.7°C | 5.3% | 0hPa | 2.6V | 00:00:00 | 01:44:53 | 00:00:00 | |
| DO3MHA-12 | 2026-08-31 03:30:54 | 47.45305 | 12.55293 | 45° | 24km/h | 19187m | 4.5m/s | -57.8°C | 5.5% | 0hPa | 2.6V | 00:00:00 | 01:44:50 | 00:00:00 | |
| DB0UT-7 | 2026-08-31 03:30:53 | 47.45301 | 12.55287 | 53° | 26km/h | 19183m | 4.2m/s | -57.8°C | 5.5% | 0hPa | 2.6V | 00:00:00 | 00:00:00 | 08:30:00 | |
| OE5DXL-15 | 2026-08-31 03:30:52 | 47.45298 | 12.55280 | 52° | 26km/h | 19179m | 3.8m/s | -57.8°C | 5.5% | 0hPa | 2.6V | 00:00:00 | 00:00:00 | 00:00:00 | |
| DO3MHA-11 | 2026-08-31 03:30:49 | 47.45285 | 12.55262 | 40° | 24km/h | 19166m | 3.5m/s | -57.8°C | 5.5% | 0hPa | 2.6V | 00:00:00 | 01:44:45 | 00:00:00 | |
| IN3HCDX | 2026-08-31 03:30:48 | 47.45285 | 12.55262 | 41° | 24km/h | 19166m | 3.5m/s | -57.9°C | 1.9% | 0hPa | 2.6V | 00:00:00 | 00:00:00 | 00:00:00 | |
| PG1ADW-2 | 2026-08-31 03:30:45 | 47.45266 | 12.55239 | 35° | 26km/h | 19150m | 5.0m/s | -57.9°C | 5.5% | 0hPa | 2.6V | 00:00:00 | 00:00:00 | 00:00:00 | |
| DO3MHA-12 | 2026-08-31 03:30:44 | 47.45260 | 12.55234 | 31° | 24km/h | 19145m | 3.5m/s | -57.8°C | 5.5% | 0hPa | 2.6V | 00:00:00 | 01:44:40 | 00:00:00 | |
| OE5MMP-10 | 2026-08-31 03:30:43 | 47.45255 | 12.55229 | 30° | 26km/h | 19141m | 4.7m/s | -57.8°C | 5.5% | 0hPa | 2.6V | 00:00:00 | 01:44:39 | 00:00:00 | |
| OE5WHR-10 | 2026-08-31 03:30:41 | 47.45245 | 12.55220 | 39° | 26km/h | 19133m | 3.5m/s | -57.8°C | 5.5% | 0hPa | 2.5V | 00:00:00 | 01:44:37 | 00:00:00 | |
| DO3MHA-11 | 2026-08-31 03:30:39 | 47.45236 | 12.55210 | 31° | 27km/h | 19124m | 4.5m/s | -57.8°C | 5.4% | 0hPa | 2.5V | 00:00:00 | 01:44:35 | 00:00:00 | |
| DF7PN | 2026-08-31 03:30:38 | 47.45225 | 12.55200 | 34° | 26km/h | 19115m | 4.7m/s | -57.9°C | 1.7% | -1.0hPa | 2.6V | 00:00:00 | 00:00:00 | 00:00:00 | |
| OE5DRO-10 | 2026-08-31 03:30:35 | 47.45215 | 12.55188 | 39° | 24km/h | 19107m | 3.0m/s | -57.8°C | 5.5% | 0hPa | 2.6V | 00:00:00 | 00:00:00 | 00:00:00 | |
| DO3MHA-12 | 2026-08-31 03:30:34 | 47.45209 | 12.55181 | 38° | 27km/h | 19103m | 4.6m/s | -57.7°C | 5.4% | 0hPa | 2.6V | 00:00:00 | 01:44:30 | 00:00:00 | |
| OE5MMP-10 | 2026-08-31 03:30:33 | 47.45203 | 12.55175 | 37° | 26km/h | 19099m | 4.0m/s | -57.7°C | 5.5% | 0hPa | 2.6V | 00:00:00 | 01:44:29 | 00:00:00 | |
| DG1MFX-10 | 2026-08-31 03:30:32 | 47.45203 | 12.55175 | 37° | 29km/h | 19099m | 4.0m/s | -57.8°C | 1.9% | 0hPa | 2.6V | 00:00:00 | 00:00:00 | 00:00:00 | |
| DO3MHA-11 | 2026-08-31 03:30:29 | 47.45180 | 12.55149 | 29° | 24km/h | 19082m | 5.2m/s | -57.6°C | 5.4% | 0hPa | 2.6V | 00:00:00 | 01:44:25 | 00:00:00 | |
| OE3JTB-15 | 2026-08-31 03:30:28 | 47.45174 | 12.55145 | 23° | 20km/h | 19077m | 4.2m/s | -57.5°C | 5.5% | 0hPa | 2.6V | 00:00:00 | 01:44:24 | 00:00:00 | |
| IN3HCDX | 2026-08-31 03:30:27 | 47.45173 | 12.55145 | 24° | 27km/h | 19077m | 4.3m/s | -57.6°C | 1.9% | 0hPa | 2.6V | 00:00:00 | 00:00:00 | 00:00:00 | |
| PG1ADW-2 | 2026-08-31 03:30:25 | 47.45157 | 12.55134 | 29° | 22km/h | 19065m | 3.3m/s | -57.5°C | 5.4% | 0hPa | 2.6V | 00:00:00 | 01:44:21 | 08:30:00 | |
| DO3MHA-12 | 2026-08-31 03:30:24 | 47.45152 | 12.55130 | 34° | 20km/h | 19061m | 3.8m/s | -57.4°C | 5.4% | 0hPa | 2.6V | 00:00:00 | 01:44:20 | 00:00:00 | |
| DB0UT-7 | 2026-08-31 03:30:23 | 47.45147 | 12.55125 | 31° | 18km/h | 19057m | 4.7m/s | -57.4°C | 5.4% | 0hPa | 2.5V | 00:00:00 | 01:44:19 | 00:00:00 | |
| OE5DXL-15 | 2026-08-31 03:30:22 | 47.45143 | 12.55122 | 26° | 18km/h | 19052m | 3.6m/s | -57.4°C | 5.3% | 0hPa | 2.5V | 00:00:00 | 00:00:00 | 08:30:00 | |
| OE5WHR-10 | 2026-08-31 03:30:20 | 47.45134 | 12.55114 | 40° | 20km/h | 19044m | 3.8m/s | -57.3°C | 5.3% | 0hPa | 2.5V | 00:00:00 | 00:00:00 | 00:00:00 | |
| DO3MHA-11 | 2026-08-31 03:30:19 | 47.45130 | 12.55110 | 32° | 22km/h | 19040m | 4.0m/s | -57.3°C | 5.3% | 0hPa | 2.6V | 00:00:00 | 01:44:15 | 00:00:00 | |
| OE5DRO-10 | 2026-08-31 03:30:16 | 47.45116 | 12.55099 | 27° | 18km/h | 19027m | 4.4m/s | -57.2°C | 5.3% | 0hPa | 2.6V | 00:00:00 | 00:00:00 | 00:00:00 | |
| DO3MHA-12 | 2026-08-31 03:30:14 | 47.45107 | 12.55091 | 31° | 20km/h | 19019m | 3.3m/s | -57.1°C | 5.3% | 0hPa | 2.6V | 00:00:00 | 01:44:10 | 00:00:00 | |
| OE5MMP-10 | 2026-08-31 03:30:13 | 47.45102 | 12.55087 | 29° | 20km/h | 19015m | 4.9m/s | -57.0°C | 5.2% | 0hPa | 2.6V | 00:00:00 | 01:44:09 | 00:00:00 | |
| DG1MFX-10 | 2026-08-31 03:30:12 | 47.45102 | 12.55087 | 29° | 22km/h | 19015m | 4.9m/s | -57.1°C | 1.9% | 0hPa | 2.5V | 00:00:00 | 00:00:00 | 00:00:00 | |
| DO3MHA-11 | 2026-08-31 03:30:09 | 47.45082 | 12.55071 | 38° | 16km/h | 18998m | 3.0m/s | -56.9°C | 5.3% | 0hPa | 2.5V | 00:00:00 | 01:44:05 | 08:30:00 | |
| IN3HCDX | 2026-08-31 03:30:06 | 47.45074 | 12.55062 | 29° | 20km/h | 18990m | 4.6m/s | -56.9°C | 1.8% | 0hPa | 2.5V | 00:00:00 | 00:00:00 | 00:00:00 | |
| PG1ADW-2 | 2026-08-31 03:30:05 | 47.45065 | 12.55058 | 19° | 15km/h | 18982m | 3.7m/s | -56.8°C | 5.2% | 0hPa | 2.5V | 00:00:00 | 00:00:00 | 00:00:00 | |
| DO3MHA-12 | 2026-08-31 03:30:04 | 47.45062 | 12.55056 | 25° | 15km/h | 18978m | 4.5m/s | -56.7°C | 5.2% | 0hPa | 2.5V | 00:00:00 | 01:44:00 | 00:00:00 | |
| DL6DJ-15 | 2026-08-31 03:29:58 | 47.45040 | 12.55044 | 25° | 15km/h | 18952m | 4.1m/s | -56.7°C | 1.6% | -1.0hPa | 2.5V | 00:00:00 | 00:00:00 | 00:00:00 | |
| OE5DRO-10 | 2026-08-31 03:29:57 | 47.45036 | 12.55041 | 31° | 15km/h | 18949m | 3.3m/s | -56.6°C | 5.1% | 0hPa | 2.5V | 00:00:00 | 00:00:00 | 08:30:00 | |
| DO3MHA-12 | 2026-08-31 03:29:54 | 47.45026 | 12.55034 | 19° | 13km/h | 18937m | 3.1m/s | -56.6°C | 5.0% | 0hPa | 2.6V | 00:00:00 | 01:43:50 | 08:30:00 | |
| OE5MMP-10 | 2026-08-31 03:29:53 | 47.45022 | 12.55033 | 20° | 13km/h | 18933m | 4.6m/s | -56.6°C | 5.1% | 0hPa | 2.6V | 00:00:00 | 01:43:49 | 00:00:00 | |
| OE5DXL-15 | 2026-08-31 03:29:52 | 47.45019 | 12.55031 | 26° | 13km/h | 18928m | 4.0m/s | -56.6°C | 5.1% | 0hPa | 2.6V | 00:00:00 | 00:00:00 | 00:00:00 | |
| DG1MFX-10 | 2026-08-31 03:29:51 | 47.45019 | 12.55031 | 26° | 11km/h | 18928m | 4.0m/s | -56.6°C | 1.8% | 0hPa | 2.6V | 00:00:00 | 00:00:00 | 00:00:00 | |
| DO3MHA-11 | 2026-08-31 03:29:49 | 47.45011 | 12.55029 | 2° | 15km/h | 18916m | 3.5m/s | -56.6°C | 5.0% | 0hPa | 2.6V | 00:00:00 | 01:43:45 | 00:00:00 | |
| NBG1-10 | 2026-08-31 03:29:47 | 47.45005 | 12.55027 | 24° | 15km/h | 18907m | 3.9m/s | -56.6°C | 5.0% | 0hPa | 2.6V | 00:00:00 | 01:43:43 | 00:00:00 | |
| PG1ADW-2 | 2026-08-31 03:29:45 | 47.44999 | 12.55022 | 28° | 15km/h | 18899m | 4.2m/s | -56.6°C | 5.0% | 0hPa | 2.6V | 00:00:00 | 00:00:00 | 00:00:00 | |
| DO3MHA-12 | 2026-08-31 03:29:44 | 47.44995 | 12.55019 | 26° | 15km/h | 18895m | 3.9m/s | -56.7°C | 5.1% | 0hPa | 2.6V | 00:00:00 | 01:43:40 | 00:00:00 | |
| OE5MMP-10 | 2026-08-31 03:29:43 | 47.44992 | 12.55017 | 37° | 15km/h | 18891m | 4.3m/s | -56.7°C | 5.1% | 0hPa | 2.6V | 00:00:00 | 01:43:39 | 08:30:00 | |
| DO3MHA-11 | 2026-08-31 03:29:39 | 47.44980 | 12.55001 | 33° | 13km/h | 18873m | 4.2m/s | -56.8°C | 5.1% | 0hPa | 2.5V | 00:00:00 | 01:43:35 | 00:00:00 | |
| OE5WHR-10 | 2026-08-31 03:29:38 | 47.44977 | 12.54999 | 34° | 15km/h | 18869m | 3.7m/s | -56.9°C | 5.1% | 0hPa | 2.6V | 00:00:00 | 01:43:34 | 00:00:00 | |
| DF7PN | 2026-08-31 03:29:36 | 47.44969 | 12.54991 | 36° | 9km/h | 18856m | 4.5m/s | -57.0°C | 1.7% | -1.0hPa | 2.6V | 00:00:00 | 00:00:00 | 00:00:00 | |
| DB0NH | 2026-08-31 03:29:34 | 47.44967 | 12.54988 | 49° | 16km/h | 18852m | 3.4m/s | -57.0°C | 5.2% | 0hPa | 2.6V | 00:00:00 | 01:43:30 | 00:00:00 | |
| OE5MMP-10 | 2026-08-31 03:29:33 | 47.44966 | 12.54985 | 71° | 13km/h | 18849m | 4.2m/s | -57.0°C | 5.2% | 0hPa | 2.6V | 00:00:00 | 01:43:29 | 00:00:00 | |
| OE3JTB-15 | 2026-08-31 03:29:30 | 47.44966 | 12.54969 | 98° | 18km/h | 18835m | 4.2m/s | -57.0°C | 5.2% | 0hPa | 2.6V | 00:00:00 | 00:00:00 | 00:00:00 | |
| DO3MHA-11 | 2026-08-31 03:29:29 | 47.44967 | 12.54964 | 99° | 15km/h | 18831m | 4.2m/s | -56.9°C | 5.2% | 0hPa | 2.6V | 00:00:00 | 01:43:25 | 00:00:00 | |
| DL6DJ-15 | 2026-08-31 03:29:27 | 47.44967 | 12.54954 | 82° | 13km/h | 18823m | 3.8m/s | -56.9°C | 1.7% | -1.0hPa | 2.6V | 00:00:00 | 00:00:00 | 00:00:00 | |
| PG1ADW-2 | 2026-08-31 03:29:25 | 47.44965 | 12.54945 | 68° | 18km/h | 18816m | 3.9m/s | -56.8°C | 5.2% | 0hPa | 2.6V | 00:00:00 | 00:00:00 | 00:00:00 | |
| DO3MHA-12 | 2026-08-31 03:29:24 | 47.44964 | 12.54940 | 61° | 16km/h | 18811m | 4.9m/s | -56.8°C | 5.2% | 0hPa | 2.5V | 00:00:00 | 01:43:20 | 00:00:00 | |
| OE5MMP-10 | 2026-08-31 03:29:23 | 47.44962 | 12.54936 | 69° | 18km/h | 18806m | 3.9m/s | -56.8°C | 5.2% | 0hPa | 2.5V | 00:00:00 | 01:43:19 | 00:00:00 | |
| OE5DXL-15 | 2026-08-31 03:29:22 | 47.44961 | 12.54932 | 68° | 22km/h | 18802m | 4.5m/s | -56.8°C | 5.2% | 0hPa | 2.5V | 00:00:00 | 01:43:18 | 00:00:00 | |
| DO3MHA-11 | 2026-08-31 03:29:19 | 47.44958 | 12.54913 | 78° | 18km/h | 18790m | 4.1m/s | -56.7°C | 5.1% | 0hPa | 2.5V | 00:00:00 | 01:43:15 | 00:00:00 | |
| OE5WHR-10 | 2026-08-31 03:29:17 | 47.44956 | 12.54900 | 79° | 22km/h | 18782m | 3.7m/s | -56.7°C | 5.1% | 0hPa | 2.5V | 00:00:00 | 00:00:00 | 08:30:00 | |
| NBG1-10 | 2026-08-31 03:29:14 | 47.44952 | 12.54879 | 71° | 24km/h | 18768m | 4.4m/s | -56.7°C | 5.1% | 0hPa | 2.6V | 00:00:00 | 01:43:10 | 08:30:00 | |
| OE5MMP-10 | 2026-08-31 03:29:13 | 47.44951 | 12.54872 | 66° | 20km/h | 18764m | 3.9m/s | -56.7°C | 5.1% | 0hPa | 2.6V | 00:00:00 | 01:43:09 | 00:00:00 | |
| DG1MFX-10 | 2026-08-31 03:29:10 | 47.44947 | 12.54861 | 60° | 18km/h | 18756m | 5.0m/s | -56.8°C | 1.8% | 0hPa | 2.5V | 00:00:00 | 00:00:00 | 00:00:00 | |
| DO3MHA-11 | 2026-08-31 03:29:09 | 47.44942 | 12.54848 | 63° | 22km/h | 18748m | 3.3m/s | -56.8°C | 5.1% | 0hPa | 2.5V | 00:00:00 | 01:43:05 | 00:00:00 | |
| PG1ADW-2 | 2026-08-31 03:29:05 | 47.44935 | 12.54818 | 74° | 26km/h | 18732m | 4.3m/s | -57.1°C | 5.2% | 0hPa | 2.5V | 00:00:00 | 01:43:01 | 00:00:00 | |
| DB0NH | 2026-08-31 03:29:04 | 47.44933 | 12.54809 | 71° | 26km/h | 18728m | 3.0m/s | -57.1°C | 5.2% | 0hPa | 2.5V | 00:00:00 | 01:43:00 | 00:00:00 | |
| IN3HCDX | 2026-08-31 03:29:03 | 47.44933 | 12.54809 | 72° | 26km/h | 18728m | 3.0m/s | -57.1°C | 1.8% | 0hPa | 2.5V | 00:00:00 | 00:00:00 | 00:00:00 | |
| OE3JTB-15 | 2026-08-31 03:29:01 | 47.44927 | 12.54785 | 69° | 26km/h | 18717m | 2.6m/s | -57.1°C | 5.2% | 0hPa | 2.5V | 00:00:00 | 01:42:57 | 00:00:00 | |
| OE5DRO-10 | 2026-08-31 03:29:00 | 47.44925 | 12.54778 | 65° | 26km/h | 18714m | 3.7m/s | -57.1°C | 5.2% | 0hPa | 2.5V | 00:00:00 | 00:00:00 | 00:00:00 | |
| DO3MHA-11 | 2026-08-31 03:28:59 | 47.44923 | 12.54771 | 66° | 27km/h | 18710m | 4.4m/s | -57.1°C | 5.1% | 0hPa | 2.5V | 00:00:00 | 01:42:55 | 00:00:00 | |
| OE5WHR-10 | 2026-08-31 03:28:56 | 47.44912 | 12.54747 | 50° | 26km/h | 18697m | 4.1m/s | -57.1°C | 5.2% | 0hPa | 2.5V | 00:00:00 | 00:00:00 | 00:00:00 | |
| DO3MHA-12 | 2026-08-31 03:28:54 | 47.44901 | 12.54731 | 45° | 27km/h | 18688m | 4.6m/s | -57.1°C | 5.2% | 0hPa | 2.5V | 00:00:00 | 01:42:50 | 00:00:00 | |
| OE5MMP-10 | 2026-08-31 03:28:53 | 47.44896 | 12.54723 | 48° | 26km/h | 18684m | 3.9m/s | -57.1°C | 5.2% | 0hPa | 2.5V | 00:00:00 | 01:42:49 | 00:00:00 | |
| OE5DXL-15 | 2026-08-31 03:28:52 | 47.44891 | 12.54714 | 47° | 24km/h | 18680m | 4.3m/s | -57.1°C | 5.2% | 0hPa | 2.5V | 00:00:00 | 00:00:00 | 00:00:00 | |
| DO3MHA-11 | 2026-08-31 03:28:49 | 47.44877 | 12.54692 | 51° | 26km/h | 18668m | 4.7m/s | -57.1°C | 5.3% | 0hPa | 2.5V | 00:00:00 | 01:42:45 | 00:00:00 | |
| BAUMI2-15 | 2026-08-31 03:28:46 | 47.44865 | 12.54669 | 54° | 24km/h | 18656m | 4.7m/s | -57.2°C | 5.2% | 0hPa | 2.5V | 00:00:00 | 01:42:42 | 00:00:00 | |
| PG1ADW-2 | 2026-08-31 03:28:45 | 47.44861 | 12.54662 | 52° | 24km/h | 18651m | 3.5m/s | -57.2°C | 5.2% | 0hPa | 2.5V | 00:00:00 | 00:00:00 | 00:00:00 | |
| DO3MHA-12 | 2026-08-31 03:28:44 | 47.44858 | 12.54656 | 51° | 24km/h | 18647m | 4.3m/s | -57.2°C | 5.2% | 0hPa | 2.5V | 00:00:00 | 01:42:40 | 00:00:00 | |
| OE5MMP-10 | 2026-08-31 03:28:43 | 47.44854 | 12.54648 | 53° | 24km/h | 18643m | 3.9m/s | -57.2°C | 5.2% | 0hPa | 2.5V | 00:00:00 | 01:42:39 | 00:00:00 | |
| NBG1-10 | 2026-08-31 03:28:41 | 47.44845 | 12.54634 | 47° | 22km/h | 18636m | 4.7m/s | -57.1°C | 5.2% | 0hPa | 2.6V | 00:00:00 | 01:42:37 | 00:00:00 | |
| DO3MHA-11 | 2026-08-31 03:28:39 | 47.44838 | 12.54621 | 44° | 26km/h | 18627m | 3.9m/s | -57.1°C | 5.2% | 0hPa | 2.6V | 00:00:00 | 01:42:35 | 08:30:00 | |
| BAUMI2-15 | 2026-08-31 03:28:36 | 47.44823 | 12.54603 | 38° | 26km/h | 18615m | 3.6m/s | -57.0°C | 5.2% | 0hPa | 2.6V | 00:00:00 | 01:42:32 | 00:00:00 | |
| OE5WHR-10 | 2026-08-31 03:28:35 | 47.44818 | 12.54598 | 30° | 22km/h | 18611m | 4.5m/s | -57.0°C | 5.2% | 0hPa | 2.6V | 00:00:00 | 01:42:31 | 00:00:00 | |
| DO3MHA-12 | 2026-08-31 03:28:34 | 47.44812 | 12.54594 | 29° | 24km/h | 18607m | 3.5m/s | -57.0°C | 5.2% | 0hPa | 2.6V | 00:00:00 | 01:42:30 | 00:00:00 | |
| OE5MMP-10 | 2026-08-31 03:28:33 | 47.44807 | 12.54590 | 29° | 24km/h | 18603m | 3.6m/s | -57.0°C | 5.2% | 0hPa | 2.6V | 00:00:00 | 01:42:29 | 00:00:00 | |
| OE3JTB-15 | 2026-08-31 03:28:32 | 47.44801 | 12.54585 | 29° | 18km/h | 18600m | 3.9m/s | -57.0°C | 5.2% | 0hPa | 2.6V | 00:00:00 | 00:00:00 | 00:00:00 | |
| BAUMI2-15 | 2026-08-31 03:28:31 | 47.44796 | 12.54580 | 35° | 24km/h | 18596m | 2.8m/s | -57.0°C | 5.2% | 0hPa | 2.5V | 00:00:00 | 01:42:27 | 00:00:00 | |
| DO3MHA-11 | 2026-08-31 03:28:29 | 47.44785 | 12.54569 | 33° | 22km/h | 18588m | 4.1m/s | -57.1°C | 5.2% | 0hPa | 2.5V | 00:00:00 | 01:42:25 | 00:00:00 | |
| OM5KV | 2026-08-31 03:28:28 | 47.44785 | 12.54569 | 33° | 22km/h | 18588m | 4.1m/s | -57.2°C | 1.8% | 0hPa | 2.5V | 00:00:00 | 00:00:00 | 00:00:00 | |
| BAUMI2-15 | 2026-08-31 03:28:26 | 47.44773 | 12.54553 | 47° | 22km/h | 18576m | 3.6m/s | -57.3°C | 5.2% | 0hPa | 2.5V | 00:00:00 | 01:42:22 | 00:00:00 | |
| PG1ADW-2 | 2026-08-31 03:28:25 | 47.44769 | 12.54547 | 46° | 18km/h | 18572m | 3.9m/s | -57.3°C | 5.2% | 0hPa | 2.5V | 00:00:00 | 00:00:00 | 00:00:00 | |
| DO3MHA-12 | 2026-08-31 03:28:24 | 47.44766 | 12.54542 | 37° | 22km/h | 18568m | 4.5m/s | -57.3°C | 5.3% | 0hPa | 2.5V | 00:00:00 | 01:42:20 | 08:30:00 | |
| OE5MMP-10 | 2026-08-31 03:28:23 | 47.44761 | 12.54538 | 23° | 20km/h | 18564m | 3.3m/s | -57.3°C | 5.3% | 0hPa | 2.6V | 00:00:00 | 01:42:19 | 00:00:00 | |
| OE5DXL-15 | 2026-08-31 03:28:22 | 47.44756 | 12.54535 | 23° | 16km/h | 18560m | 4.0m/s | -57.3°C | 5.2% | 0hPa | 2.6V | 00:00:00 | 00:00:00 | 00:00:00 | |
| BAUMI2-15 | 2026-08-31 03:28:21 | 47.44751 | 12.54532 | 25° | 22km/h | 18556m | 4.3m/s | -57.3°C | 5.3% | 0hPa | 2.6V | 00:00:00 | 01:42:17 | 00:00:00 | |
| OM5KV | 2026-08-31 03:28:20 | 47.44751 | 12.54532 | 26° | 26km/h | 18556m | 4.3m/s | -57.4°C | 1.9% | 0hPa | 2.6V | 00:00:00 | 00:00:00 | 00:00:00 | |
| DO3MHA-11 | 2026-08-31 03:28:19 | 47.44739 | 12.54524 | 27° | 16km/h | 18549m | 3.5m/s | -57.4°C | 5.3% | 0hPa | 2.6V | 00:00:00 | 01:42:15 | 00:00:00 | |
| BAUMI2-15 | 2026-08-31 03:28:16 | 47.44726 | 12.54514 | 29° | 16km/h | 18537m | 3.7m/s | -57.4°C | 5.4% | 0hPa | 2.6V | 00:00:00 | 01:42:12 | 08:30:00 | |
| OE5WHR-10 | 2026-08-31 03:28:14 | 47.44719 | 12.54506 | 45° | 15km/h | 18529m | 3.7m/s | -57.4°C | 5.4% | 0hPa | 2.5V | 00:00:00 | 00:00:00 | 00:00:00 | |
| OE5MMP-10 | 2026-08-31 03:28:13 | 47.44716 | 12.54502 | 44° | 13km/h | 18524m | 4.9m/s | -57.4°C | 5.4% | 0hPa | 2.5V | 00:00:00 | 01:42:09 | 08:30:00 | |
| BAUMI2-15 | 2026-08-31 03:28:11 | 47.44711 | 12.54495 | 45° | 13km/h | 18516m | 4.2m/s | -57.5°C | 5.4% | 0hPa | 2.6V | 00:00:00 | 01:42:07 | 00:00:00 | |
| OM5KV | 2026-08-31 03:28:10 | 47.44711 | 12.54495 | 46° | 13km/h | 18516m | 4.2m/s | -57.5°C | 1.9% | 0hPa | 2.6V | 00:00:00 | 00:00:00 | 00:00:00 | |
| DO3MHA-11 | 2026-08-31 03:28:09 | 47.44706 | 12.54487 | 44° | 13km/h | 18507m | 3.3m/s | -57.4°C | 5.5% | 0hPa | 2.6V | 00:00:00 | 01:42:05 | 00:00:00 | |
| NBG1-10 | 2026-08-31 03:28:08 | 47.44704 | 12.54484 | 34° | 16km/h | 18503m | 4.7m/s | -57.4°C | 5.5% | 0hPa | 2.5V | 00:00:00 | 01:42:04 | 00:00:00 | |
| BAUMI2-15 | 2026-08-31 03:28:06 | 47.44699 | 12.54480 | 28° | 13km/h | 18495m | 3.8m/s | -57.4°C | 5.4% | 0hPa | 2.5V | 00:00:00 | 01:42:02 | 00:00:00 | |
| PG1ADW-2 | 2026-08-31 03:28:05 | 47.44697 | 12.54478 | 33° | 15km/h | 18491m | 4.4m/s | -57.3°C | 5.4% | 0hPa | 2.5V | 00:00:00 | 00:00:00 | 00:00:00 | |
| DO3MHA-12 | 2026-08-31 03:28:04 | 47.44694 | 12.54476 | 31° | 15km/h | 18487m | 3.4m/s | -57.3°C | 5.4% | 0hPa | 2.5V | 00:00:00 | 01:42:00 | 00:00:00 | |
| OM5KV | 2026-08-31 03:28:03 | 47.44694 | 12.54476 | 32° | 13km/h | 18487m | 3.5m/s | -57.3°C | 1.9% | 0hPa | 2.5V | 00:00:00 | 00:00:00 | 00:00:00 | |
| BAUMI2-15 | 2026-08-31 03:28:01 | 47.44686 | 12.54468 | 38° | 15km/h | 18475m | 2.9m/s | -57.2°C | 5.4% | 0hPa | 2.5V | 00:00:00 | 01:41:57 | 00:00:00 | |
| DO3MHA-11 | 2026-08-31 03:27:59 | 47.44681 | 12.54461 | 49° | 16km/h | 18467m | 4.0m/s | -57.1°C | 5.3% | 0hPa | 2.5V | 00:00:00 | 01:41:55 | 00:00:00 | |
| DB0NH | 2026-08-31 03:27:57 | 47.44675 | 12.54451 | 43° | 18km/h | 18457m | 4.4m/s | -57.0°C | 5.3% | 0hPa | 2.5V | 00:00:00 | 01:41:53 | 00:00:00 | |
| BAUMI2-15 | 2026-08-31 03:27:56 | 47.44672 | 12.54448 | 38° | 16km/h | 18454m | 2.9m/s | -57.0°C | 5.3% | 0hPa | 2.5V | 00:00:00 | 01:41:52 | 00:00:00 | |
| DO3MHA-12 | 2026-08-31 03:27:54 | 47.44665 | 12.54439 | 37° | 16km/h | 18445m | 4.1m/s | -57.0°C | 5.2% | 0hPa | 2.5V | 00:00:00 | 01:41:50 | 00:00:00 | |
| OE5MMP-10 | 2026-08-31 03:27:53 | 47.44661 | 12.54436 | 29° | 18km/h | 18441m | 4.5m/s | -56.9°C | 5.1% | 0hPa | 2.6V | 00:00:00 | 01:41:49 | 00:00:00 | |
| OE5DXL-15 | 2026-08-31 03:27:52 | 47.44658 | 12.54433 | 29° | 20km/h | 18436m | 4.6m/s | -56.9°C | 5.1% | 0hPa | 2.6V | 00:00:00 | 00:00:00 | 00:00:00 | |
| OE5WHR-10 | 2026-08-31 03:27:51 | 47.44654 | 12.54430 | 27° | 20km/h | 18432m | 3.0m/s | -56.9°C | 5.2% | 0hPa | 2.6V | 00:00:00 | 00:00:00 | 00:00:00 | |
| OM5KV | 2026-08-31 03:27:50 | 47.44654 | 12.54430 | 28° | 16km/h | 18432m | 3.0m/s | -56.9°C | 1.8% | 0hPa | 2.6V | 00:00:00 | 00:00:00 | 00:00:00 | |
| DO3MHA-11 | 2026-08-31 03:27:49 | 47.44647 | 12.54425 | 31° | 18km/h | 18424m | 3.7m/s | -56.9°C | 5.1% | 0hPa | 2.6V | 00:00:00 | 01:41:45 | 00:00:00 | |
| DG1MFX-10 | 2026-08-31 03:27:47 | 47.44644 | 12.54421 | 37° | 15km/h | 18420m | 4.7m/s | -56.9°C | 1.9% | 0hPa | 2.6V | 00:00:00 | 00:00:00 | 00:00:00 | |
| BAUMI2-15 | 2026-08-31 03:27:46 | 47.44638 | 12.54414 | 48° | 22km/h | 18411m | 3.8m/s | -56.9°C | 5.2% | 0hPa | 2.6V | 00:00:00 | 01:41:42 | 00:00:00 | |
| PG1ADW-2 | 2026-08-31 03:27:45 | 47.44635 | 12.54408 | 52° | 22km/h | 18407m | 4.4m/s | -56.9°C | 5.2% | 0hPa | 2.5V | 00:00:00 | 01:41:41 | 00:00:00 | |
| DO3MHA-12 | 2026-08-31 03:27:44 | 47.44631 | 12.54401 | 50° | 20km/h | 18403m | 3.7m/s | -56.9°C | 5.2% | 0hPa | 2.5V | 00:00:00 | 01:41:40 | 00:00:00 | |
| OE5MMP-10 | 2026-08-31 03:27:43 | 47.44627 | 12.54395 | 48° | 20km/h | 18399m | 3.7m/s | -56.9°C | 5.2% | 0hPa | 2.5V | 00:00:00 | 01:41:39 | 00:00:00 | |
| BAUMI2-15 | 2026-08-31 03:27:41 | 47.44620 | 12.54384 | 41° | 20km/h | 18392m | 3.2m/s | -56.9°C | 5.3% | 0hPa | 2.5V | 00:00:00 | 01:41:37 | 00:00:00 | |
| DO3MHA-11 | 2026-08-31 03:27:39 | 47.44612 | 12.54376 | 31° | 22km/h | 18384m | 3.8m/s | -56.9°C | 5.2% | 0hPa | 2.5V | 00:00:00 | 01:41:35 | 00:00:00 | |
| IN3HCDX | 2026-08-31 03:27:38 | 47.44612 | 12.54375 | 32° | 22km/h | 18384m | 3.9m/s | -56.9°C | 1.8% | 0hPa | 2.6V | 00:00:00 | 00:00:00 | 00:00:00 | |
| BAUMI2-15 | 2026-08-31 03:27:36 | 47.44599 | 12.54363 | 41° | 22km/h | 18372m | 3.8m/s | -56.8°C | 5.2% | 0hPa | 2.6V | 00:00:00 | 01:41:32 | 00:00:00 | |
| NBG1-10 | 2026-08-31 03:27:35 | 47.44596 | 12.54358 | 46° | 24km/h | 18368m | 3.2m/s | -56.8°C | 5.2% | 0hPa | 2.6V | 00:00:00 | 01:41:31 | 00:00:00 | |
| OE3JTB-15 | 2026-08-31 03:27:34 | 47.44592 | 12.54353 | 48° | 24km/h | 18364m | 4.6m/s | -56.8°C | 5.2% | 0hPa | 2.5V | 00:00:00 | 01:41:30 | 00:00:00 | |
| OE5MMP-10 | 2026-08-31 03:27:33 | 47.44588 | 12.54347 | 46° | 22km/h | 18360m | 3.8m/s | -56.8°C | 5.2% | 0hPa | 2.5V | 00:00:00 | 01:41:29 | 00:00:00 | |
| OM5KV | 2026-08-31 03:27:32 | 47.44588 | 12.54347 | 47° | 24km/h | 18360m | 3.9m/s | -56.8°C | 1.8% | 0hPa | 2.5V | 00:00:00 | 00:00:00 | 00:00:00 | |
| BAUMI2-15 | 2026-08-31 03:27:31 | 47.44580 | 12.54334 | 49° | 22km/h | 18351m | 4.6m/s | -56.8°C | 5.2% | 0hPa | 2.5V | 00:00:00 | 01:41:27 | 08:30:00 | |
| OE5WHR-10 | 2026-08-31 03:27:30 | 47.44577 | 12.54329 | 49° | 24km/h | 18347m | 3.6m/s | -56.8°C | 5.2% | 0hPa | 2.5V | 00:00:00 | 01:41:26 | 00:00:00 | |
| DO3MHA-11 | 2026-08-31 03:27:29 | 47.44573 | 12.54323 | 45° | 22km/h | 18343m | 4.6m/s | -56.9°C | 5.3% | 0hPa | 2.5V | 00:00:00 | 01:41:25 | 00:00:00 | |
| DB0NH | 2026-08-31 03:27:27 | 47.44565 | 12.54311 | 45° | 26km/h | 18334m | 4.4m/s | -56.9°C | 5.3% | 0hPa | 2.5V | 00:00:00 | 01:41:23 | 08:30:00 | |
| BAUMI2-15 | 2026-08-31 03:27:26 | 47.44561 | 12.54306 | 45° | 22km/h | 18330m | 4.1m/s | -56.9°C | 5.3% | 0hPa | 2.5V | 00:00:00 | 01:41:22 | 00:00:00 | |
| PG1ADW-2 | 2026-08-31 03:27:25 | 47.44558 | 12.54301 | 47° | 24km/h | 18326m | 4.1m/s | -56.8°C | 5.2% | 0hPa | 2.5V | 00:00:00 | 00:00:00 | 08:30:00 | |
| DO3MHA-12 | 2026-08-31 03:27:24 | 47.44554 | 12.54295 | 43° | 24km/h | 18321m | 4.4m/s | -56.8°C | 5.2% | 0hPa | 2.6V | 00:00:00 | 01:41:20 | 00:00:00 | |
| OE8JPQ-2 | 2026-08-31 03:27:23 | 47.44549 | 12.54289 | 37° | 26km/h | 18317m | 3.3m/s | -56.8°C | 5.3% | 0hPa | 2.6V | 00:00:00 | 00:00:00 | 00:00:00 | |
| OE5DXL-15 | 2026-08-31 03:27:22 | 47.44545 | 12.54284 | 40° | 26km/h | 18314m | 3.9m/s | -56.7°C | 5.2% | 0hPa | 2.5V | 00:00:00 | 00:00:00 | 00:00:00 | |
| BAUMI2-15 | 2026-08-31 03:27:21 | 47.44540 | 12.54279 | 40° | 22km/h | 18310m | 4.3m/s | -56.7°C | 5.2% | 0hPa | 2.5V | 00:00:00 | 01:41:17 | 00:00:00 | |
| DO3MHA-11 | 2026-08-31 03:27:19 | 47.44533 | 12.54269 | 46° | 26km/h | 18302m | 4.3m/s | -56.7°C | 5.1% | 0hPa | 2.5V | 00:00:00 | 01:41:15 | 00:00:00 | |
| IN3HCDX | 2026-08-31 03:27:18 | 47.44533 | 12.54269 | 47° | 22km/h | 18302m | 4.4m/s | -56.7°C | 1.8% | 0hPa | 2.5V | 00:00:00 | 00:00:00 | 00:00:00 | |
| BAUMI2-15 | 2026-08-31 03:27:16 | 47.44520 | 12.54250 | 47° | 27km/h | 18290m | 4.7m/s | -56.6°C | 5.1% | 0hPa | 2.5V | 00:00:00 | 01:41:12 | 00:00:00 | |
| DO3MHA-12 | 2026-08-31 03:27:14 | 47.44512 | 12.54236 | 49° | 26km/h | 18281m | 3.8m/s | -56.7°C | 5.2% | 0hPa | 2.5V | 00:00:00 | 01:41:10 | 00:00:00 | |
| OE5MMP-10 | 2026-08-31 03:27:13 | 47.44507 | 12.54229 | 43° | 26km/h | 18277m | 4.6m/s | -56.7°C | 5.2% | 0hPa | 2.5V | 00:00:00 | 01:41:09 | 00:00:00 | |
| BAUMI2-15 | 2026-08-31 03:27:11 | 47.44497 | 12.54214 | 43° | 26km/h | 18268m | 4.9m/s | -56.7°C | 5.2% | 0hPa | 2.5V | 00:00:00 | 01:41:07 | 00:00:00 | |
| DO3MHA-11 | 2026-08-31 03:27:09 | 47.44488 | 12.54201 | 45° | 27km/h | 18260m | 3.6m/s | -56.7°C | 5.2% | 0hPa | 2.5V | 00:00:00 | 01:41:05 | 08:30:00 | |
| BAUMI2-15 | 2026-08-31 03:27:06 | 47.44473 | 12.54182 | 42° | 27km/h | 18247m | 4.8m/s | -56.7°C | 5.2% | 0hPa | 2.6V | 00:00:00 | 01:41:02 | 00:00:00 | |
| OE3JTB-15 | 2026-08-31 03:27:05 | 47.44468 | 12.54175 | 48° | 26km/h | 18243m | 3.9m/s | -56.6°C | 5.2% | 0hPa | 2.6V | 00:00:00 | 00:00:00 | 08:30:00 | |
| DO3MHA-12 | 2026-08-31 03:27:04 | 47.44464 | 12.54169 | 45° | 27km/h | 18239m | 4.3m/s | -56.6°C | 5.2% | 0hPa | 2.6V | 00:00:00 | 01:41:00 | 00:00:00 | |
| NBG1-10 | 2026-08-31 03:27:02 | 47.44454 | 12.54154 | 50° | 26km/h | 18231m | 3.7m/s | -56.6°C | 5.1% | 0hPa | 2.6V | 00:00:00 | 01:40:58 | 00:00:00 | |
| DF7PN | 2026-08-31 03:27:00 | 47.44445 | 12.54137 | 53° | 27km/h | 18222m | 4.1m/s | 0°C | -1.0% | -1.0hPa | 2.6V | 00:00:00 | 00:00:00 | 00:00:00 | |
| DO3MHA-11 | 2026-08-31 03:26:59 | 47.44440 | 12.54129 | 50° | 26km/h | 18218m | 5.0m/s | -56.5°C | 5.1% | 0hPa | 2.6V | 00:00:00 | 01:40:55 | 00:00:00 | |
| IN3HCDX | 2026-08-31 03:26:58 | 47.44440 | 12.54129 | 51° | 29km/h | 18218m | 5.1m/s | -56.5°C | 1.8% | 0hPa | 2.6V | 00:00:00 | 00:00:00 | 00:00:00 | |
| DB0NH | 2026-08-31 03:26:57 | 47.44430 | 12.54112 | 48° | 24km/h | 18210m | 3.9m/s | -56.4°C | 5.2% | 0hPa | 2.6V | 00:00:00 | 01:40:53 | 00:00:00 | |
| DO3MHA-12 | 2026-08-31 03:26:54 | 47.44417 | 12.54091 | 41° | 26km/h | 18197m | 3.9m/s | -56.4°C | 5.2% | 0hPa | 2.6V | 00:00:00 | 01:40:50 | 08:30:00 | |
| DB0UT-7 | 2026-08-31 03:26:53 | 47.44412 | 12.54086 | 37° | 24km/h | 18193m | 4.7m/s | -56.4°C | 5.2% | 0hPa | 2.5V | 00:00:00 | 00:00:00 | 00:00:00 | |
| OE5DXL-15 | 2026-08-31 03:26:52 | 47.44407 | 12.54081 | 31° | 24km/h | 18188m | 3.6m/s | -56.3°C | 5.2% | 0hPa | 2.5V | 00:00:00 | 00:00:00 | 00:00:00 | |
| BAUMI2-15 | 2026-08-31 03:26:51 | 47.44402 | 12.54076 | 28° | 24km/h | 18184m | 4.3m/s | -56.3°C | 5.2% | 0hPa | 2.5V | 00:00:00 | 01:40:47 | 00:00:00 | |
| DO3MHA-11 | 2026-08-31 03:26:49 | 47.44391 | 12.54068 | 29° | 26km/h | 18176m | 3.9m/s | -56.2°C | 5.1% | 0hPa | 2.5V | 00:00:00 | 01:40:45 | 00:00:00 | |
| OE5WHR-10 | 2026-08-31 03:26:48 | 47.44386 | 12.54063 | 33° | 24km/h | 18171m | 4.8m/s | -56.2°C | 5.1% | 0hPa | 2.5V | 00:00:00 | 00:00:00 | 00:00:00 | |
| OE5DRO-10 | 2026-08-31 03:26:47 | 47.44380 | 12.54058 | 33° | 24km/h | 18167m | 3.2m/s | -56.1°C | 5.2% | 0hPa | 2.5V | 00:00:00 | 00:00:00 | 00:00:00 | |
| PG1ADW-2 | 2026-08-31 03:26:45 | 47.44369 | 12.54047 | 41° | 24km/h | 18159m | 4.0m/s | -56.1°C | 5.1% | 0hPa | 2.5V | 00:00:00 | 00:00:00 | 00:00:00 | |
| DO3MHA-12 | 2026-08-31 03:26:44 | 47.44365 | 12.54041 | 37° | 24km/h | 18156m | 3.0m/s | -56.0°C | 5.2% | 0hPa | 2.5V | 00:00:00 | 01:40:40 | 00:00:00 | |
| OE8JPQ-2 | 2026-08-31 03:26:43 | 47.44360 | 12.54036 | 39° | 24km/h | 18152m | 4.4m/s | -56.0°C | 5.1% | 0hPa | 2.5V | 00:00:00 | 01:40:39 | 00:00:00 | |
| DO3MHA-11 | 2026-08-31 03:26:39 | 47.44339 | 12.54014 | 36° | 22km/h | 18135m | 3.6m/s | -55.9°C | 5.1% | 0hPa | 2.5V | 00:00:00 | 01:40:35 | 00:00:00 | |
| IN3HCDX | 2026-08-31 03:26:37 | 47.44335 | 12.54009 | 37° | 24km/h | 18131m | 4.5m/s | -55.9°C | 1.8% | 0hPa | 2.6V | 00:00:00 | 00:00:00 | 00:00:00 | |
| OE3JTB-15 | 2026-08-31 03:26:36 | 47.44324 | 12.54000 | 29° | 20km/h | 18122m | 4.2m/s | -55.8°C | 5.0% | 0hPa | 2.6V | 00:00:00 | 00:00:00 | 00:00:00 | |
| OM5KV | 2026-08-31 03:26:35 | 47.44324 | 12.54000 | 29° | 22km/h | 18122m | 4.3m/s | -55.9°C | 1.8% | 0hPa | 2.6V | 00:00:00 | 00:00:00 | 00:00:00 | |
| DO3MHA-12 | 2026-08-31 03:26:34 | 47.44315 | 12.53993 | 24° | 22km/h | 18113m | 3.5m/s | -55.8°C | 5.1% | 0hPa | 2.6V | 00:00:00 | 01:40:30 | 00:00:00 | |
| OE5MMP-10 | 2026-08-31 03:26:33 | 47.44310 | 12.53990 | 26° | 22km/h | 18109m | 3.5m/s | -55.8°C | 5.0% | 0hPa | 2.6V | 00:00:00 | 01:40:29 | 00:00:00 | |
| OM5KV | 2026-08-31 03:26:30 | 47.44300 | 12.53984 | 28° | 24km/h | 18101m | 3.6m/s | -55.8°C | 1.8% | 0hPa | 2.6V | 00:00:00 | 00:00:00 | 00:00:00 | |
| DO3MHA-11 | 2026-08-31 03:26:29 | 47.44289 | 12.53975 | 31° | 22km/h | 18094m | 4.9m/s | -55.7°C | 5.0% | 0hPa | 2.6V | 00:00:00 | 01:40:25 | 00:00:00 | |
| DB0NH | 2026-08-31 03:26:27 | 47.44280 | 12.53967 | 34° | 16km/h | 18085m | 3.8m/s | -55.7°C | 5.0% | 0hPa | 2.6V | 00:00:00 | 01:40:23 | 00:00:00 | |
| PG1ADW-2 | 2026-08-31 03:26:25 | 47.44270 | 12.53958 | 33° | 18km/h | 18076m | 3.4m/s | -55.6°C | 5.0% | 0hPa | 2.6V | 00:00:00 | 01:40:21 | 00:00:00 | |
| DO3MHA-12 | 2026-08-31 03:26:24 | 47.44265 | 12.53953 | 33° | 18km/h | 18072m | 3.5m/s | -55.6°C | 5.0% | 0hPa | 2.5V | 00:00:00 | 01:40:20 | 00:00:00 | |
| DB0UT-7 | 2026-08-31 03:26:23 | 47.44260 | 12.53949 | 31° | 15km/h | 18068m | 4.9m/s | -55.6°C | 5.0% | 0hPa | 2.5V | 00:00:00 | 01:40:19 | 08:30:00 | |
| OE5DXL-15 | 2026-08-31 03:26:22 | 47.44256 | 12.53945 | 36° | 15km/h | 18064m | 3.7m/s | -55.6°C | 5.0% | 0hPa | 2.6V | 00:00:00 | 00:00:00 | 00:00:00 | |
| DL6DJ-15 | 2026-08-31 03:26:21 | 47.44248 | 12.53939 | 27° | 18km/h | 18055m | 4.5m/s | -55.6°C | 1.6% | -1.0hPa | 2.6V | 00:00:00 | 00:00:00 | 00:00:00 | |
| DO3MHA-11 | 2026-08-31 03:26:19 | 47.44244 | 12.53936 | 25° | 18km/h | 18051m | 3.8m/s | -55.5°C | 4.9% | 0hPa | 2.6V | 00:00:00 | 01:40:15 | 00:00:00 | |
| OM5KV | 2026-08-31 03:26:17 | 47.44240 | 12.53932 | 36° | 16km/h | 18047m | 5.1m/s | -55.5°C | 1.8% | 0hPa | 2.6V | 00:00:00 | 00:00:00 | 00:00:00 | |
| IN3HCDX | 2026-08-31 03:26:16 | 47.44237 | 12.53929 | 37° | 18km/h | 18042m | 4.1m/s | -55.5°C | 1.8% | 0hPa | 2.6V | 00:00:00 | 00:00:00 | 00:00:00 | |
| DO3MHA-12 | 2026-08-31 03:26:14 | 47.44225 | 12.53915 | 40° | 16km/h | 18029m | 3.8m/s | 0°C | 0% | 0hPa | 2.6V | 00:00:00 | 01:40:10 | 00:00:00 | |
| OE5MMP-10 | 2026-08-31 03:26:13 | 47.44221 | 12.53910 | 48° | 15km/h | 18025m | 4.3m/s | -55.4°C | 4.9% | 0hPa | 2.6V | 00:00:00 | 01:40:09 | 00:00:00 | |
| OM5KV | 2026-08-31 03:26:11 | 47.44218 | 12.53905 | 42° | 18km/h | 18021m | 3.7m/s | -55.4°C | 1.8% | 0hPa | 2.6V | 00:00:00 | 00:00:00 | 00:00:00 | |
| DO3MHA-11 | 2026-08-31 03:26:09 | 47.44208 | 12.53894 | 31° | 13km/h | 18008m | 4.2m/s | -55.3°C | 4.9% | 0hPa | 2.6V | 00:00:00 | 01:40:05 | 00:00:00 | |
| OE3JTB-15 | 2026-08-31 03:26:07 | 47.44202 | 12.53890 | 28° | 13km/h | 17998m | 4.2m/s | -55.3°C | 4.9% | 0hPa | 2.5V | 00:00:00 | 01:40:03 | 00:00:00 | |
| OM5KV | 2026-08-31 03:26:06 | 47.44201 | 12.53890 | 28° | 13km/h | 17998m | 4.3m/s | -55.3°C | 1.8% | 0hPa | 2.5V | 00:00:00 | 00:00:00 | 00:00:00 | |
| PG1ADW-2 | 2026-08-31 03:26:05 | 47.44196 | 12.53886 | 28° | 13km/h | 17990m | 3.1m/s | -55.2°C | 4.8% | 0hPa | 2.5V | 00:00:00 | 00:00:00 | 00:00:00 | |
| DO3MHA-12 | 2026-08-31 03:26:04 | 47.44193 | 12.53884 | 31° | 13km/h | 17985m | 4.5m/s | -55.2°C | 4.8% | 0hPa | 2.5V | 00:00:00 | 01:40:00 | 00:00:00 | |
| DG1MFX-10 | 2026-08-31 03:26:03 | 47.44193 | 12.53884 | 31° | 11km/h | 17985m | 4.5m/s | -55.2°C | 1.8% | 0hPa | 2.5V | 00:00:00 | 00:00:00 | 00:00:00 | |
| OM5KV | 2026-08-31 03:26:01 | 47.44189 | 12.53880 | 46° | 11km/h | 17977m | 3.6m/s | -55.2°C | 1.8% | 0hPa | 2.5V | 00:00:00 | 00:00:00 | 00:00:00 | |
| DL6DJ-15 | 2026-08-31 03:25:50 | 47.44164 | 12.53837 | 53° | 9km/h | 17921m | 4.7m/s | -55.1°C | 1.6% | -1.0hPa | 2.5V | 00:00:00 | 00:00:00 | 00:00:00 | |
| DO3MHA-11 | 2026-08-31 03:25:49 | 47.44164 | 12.53836 | 54° | 13km/h | 17921m | 4.6m/s | -55.0°C | 4.8% | 0hPa | 2.5V | 00:00:00 | 01:39:45 | 00:00:00 | |
| OE5WHR-10 | 2026-08-31 03:25:45 | 47.44159 | 12.53819 | 71° | 11km/h | 17905m | 3.8m/s | -55.1°C | 4.9% | 0hPa | 2.5V | 00:00:00 | 00:00:00 | 00:00:00 | |
| DO3MHA-12 | 2026-08-31 03:25:44 | 47.44158 | 12.53814 | 78° | 13km/h | 17900m | 4.1m/s | -55.1°C | 4.8% | 0hPa | 2.5V | 00:00:00 | 01:39:40 | 00:00:00 | |
| OE5MMP-10 | 2026-08-31 03:25:43 | 47.44157 | 12.53808 | 91° | 11km/h | 17896m | 4.4m/s | -55.1°C | 4.9% | 0hPa | 2.5V | 00:00:00 | 01:39:39 | 00:00:00 | |
| DO3MHA-11 | 2026-08-31 03:25:39 | 47.44156 | 12.53790 | 91° | 11km/h | 17880m | 4.4m/s | -55.1°C | 4.8% | 0hPa | 2.7V | 00:00:00 | 01:39:35 | 08:30:00 | |
| OE3JTB-15 | 2026-08-31 03:25:38 | 47.44156 | 12.53786 | 94° | 11km/h | 17875m | 5.1m/s | -55.0°C | 4.8% | 0hPa | 2.7V | 00:00:00 | 00:00:00 | 00:00:00 | |
| IN3HCDX | 2026-08-31 03:25:35 | 47.44157 | 12.53778 | 100° | 11km/h | 17866m | 4.1m/s | -55.0°C | 1.8% | 0hPa | 2.6V | 00:00:00 | 00:00:00 | 00:00:00 | |
| DO3MHA-12 | 2026-08-31 03:25:34 | 47.44158 | 12.53770 | 88° | 11km/h | 17857m | 3.9m/s | -54.9°C | 4.7% | 0hPa | 2.6V | 00:00:00 | 01:39:30 | 00:00:00 | |
| OE5MMP-10 | 2026-08-31 03:25:33 | 47.44158 | 12.53766 | 97° | 11km/h | 17853m | 4.9m/s | -54.9°C | 4.8% | 0hPa | 2.6V | 00:00:00 | 01:39:29 | 00:00:00 | |
| OE5DRO-10 | 2026-08-31 03:25:31 | 47.44158 | 12.53758 | 91° | 11km/h | 17845m | 3.7m/s | -54.9°C | 4.7% | 0hPa | 2.6V | 00:00:00 | 00:00:00 | 00:00:00 | |
| DO3MHA-11 | 2026-08-31 03:25:29 | 47.44156 | 12.53749 | 72° | 11km/h | 17836m | 4.2m/s | -54.9°C | 4.7% | 0hPa | 2.6V | 00:00:00 | 01:39:25 | 00:00:00 | |
| DB0NH | 2026-08-31 03:25:27 | 47.44155 | 12.53741 | 76° | 11km/h | 17827m | 3.4m/s | -54.8°C | 4.6% | 0hPa | 2.6V | 00:00:00 | 01:39:23 | 00:00:00 | |
| OM5KV | 2026-08-31 03:25:26 | 47.44155 | 12.53741 | 76° | 11km/h | 17827m | 3.4m/s | -54.9°C | 1.7% | 0hPa | 2.6V | 00:00:00 | 00:00:00 | 00:00:00 | |
| PG1ADW-2 | 2026-08-31 03:25:25 | 47.44153 | 12.53734 | 77° | 9km/h | 17819m | 4.2m/s | -54.8°C | 4.6% | 0hPa | 2.6V | 00:00:00 | 00:00:00 | 00:00:00 | |
| DO3MHA-12 | 2026-08-31 03:25:24 | 47.44153 | 12.53731 | 92° | 11km/h | 17814m | 4.3m/s | -54.8°C | 4.6% | 0hPa | 2.6V | 00:00:00 | 01:39:20 | 08:30:00 | |
| OE5MMP-10 | 2026-08-31 03:25:23 | 47.44153 | 12.53728 | 116° | 11km/h | 17810m | 3.8m/s | -54.8°C | 4.7% | 0hPa | 2.5V | 00:00:00 | 01:39:19 | 00:00:00 | |
| OE5DXL-15 | 2026-08-31 03:25:22 | 47.44155 | 12.53724 | 112° | 13km/h | 17806m | 3.2m/s | -54.9°C | 4.6% | 0hPa | 2.5V | 00:00:00 | 00:00:00 | 00:00:00 | |
| DL6DJ-15 | 2026-08-31 03:25:19 | 47.44158 | 12.53707 | 95° | 11km/h | 17789m | 4.7m/s | -55.0°C | 1.6% | -1.0hPa | 2.5V | 00:00:00 | 00:00:00 | 00:00:00 | |
| DO3MHA-12 | 2026-08-31 03:25:14 | 47.44156 | 12.53693 | 62° | 9km/h | 17772m | 4.2m/s | -55.1°C | 4.7% | 0hPa | 2.5V | 00:00:00 | 01:39:10 | 00:00:00 | |
| OE5MMP-10 | 2026-08-31 03:25:13 | 47.44156 | 12.53690 | 87° | 9km/h | 17767m | 4.9m/s | -55.3°C | 4.8% | 0hPa | 2.5V | 00:00:00 | 01:39:09 | 08:30:00 | |
| OE5DRO-10 | 2026-08-31 03:25:12 | 47.44156 | 12.53688 | 91° | 15km/h | 17763m | 3.5m/s | -55.3°C | 4.8% | 0hPa | 2.6V | 00:00:00 | 00:00:00 | 00:00:00 | |
| DO3MHA-11 | 2026-08-31 03:25:09 | 47.44156 | 12.53680 | 84° | 9km/h | 17750m | 3.6m/s | -55.7°C | 4.9% | 0hPa | 2.6V | 00:00:00 | 01:39:05 | 00:00:00 | |
| PG1ADW-2 | 2026-08-31 03:25:05 | 47.44157 | 12.53665 | 95° | 18km/h | 17732m | 5.0m/s | -55.9°C | 5.0% | 0hPa | 2.6V | 00:00:00 | 01:39:01 | 00:00:00 | |
| DO3MHA-12 | 2026-08-31 03:25:04 | 47.44157 | 12.53661 | 91° | 20km/h | 17727m | 4.9m/s | -55.9°C | 5.0% | 0hPa | 2.6V | 00:00:00 | 01:39:00 | 00:00:00 | |
| OE5WHR-10 | 2026-08-31 03:25:03 | 47.44157 | 12.53657 | 90° | 20km/h | 17723m | 3.6m/s | -55.8°C | 5.0% | 0hPa | 2.6V | 00:00:00 | 00:00:00 | 00:00:00 | |
| DL6DJ-15 | 2026-08-31 03:24:48 | 47.44167 | 12.53542 | 99° | 22km/h | 17653m | 5.2m/s | -55.6°C | 1.7% | -1.0hPa | 2.7V | 00:00:00 | 00:00:00 | 00:00:00 | |
| DM7RM-13 | 2026-08-31 03:24:47 | 47.44166 | 12.53550 | 98° | 24km/h | 17658m | 4.0m/s | -55.7°C | 1.8% | 0hPa | 2.7V | 00:00:00 | 00:00:00 | 00:00:00 | |
| BAUMI2-15 | 2026-08-31 03:24:46 | 47.44168 | 12.53533 | 99° | 22km/h | 17649m | 4.4m/s | -55.6°C | 5.0% | 0hPa | 2.7V | 00:00:00 | 01:38:42 | 08:30:00 | |
| PG1ADW-2 | 2026-08-31 03:24:45 | 47.44169 | 12.53525 | 106° | 26km/h | 17644m | 4.4m/s | -55.6°C | 5.0% | 0hPa | 2.6V | 00:00:00 | 00:00:00 | 00:00:00 | |
| DO3MHA-12 | 2026-08-31 03:24:44 | 47.44170 | 12.53517 | 104° | 24km/h | 17640m | 4.1m/s | -55.5°C | 5.0% | 0hPa | 2.6V | 00:00:00 | 01:38:40 | 00:00:00 | |
| OE5MMP-10 | 2026-08-31 03:24:43 | 47.44172 | 12.53509 | 105° | 24km/h | 17635m | 4.1m/s | -55.5°C | 4.9% | 0hPa | 2.6V | 00:00:00 | 01:38:39 | 00:00:00 | |
| OE5WHR-10 | 2026-08-31 03:24:42 | 47.44173 | 12.53501 | 96° | 27km/h | 17631m | 4.7m/s | -55.5°C | 4.9% | 0hPa | 2.5V | 00:00:00 | 00:00:00 | 00:00:00 | |
| BAUMI2-15 | 2026-08-31 03:24:41 | 47.44173 | 12.53492 | 86° | 24km/h | 17627m | 3.1m/s | -55.5°C | 4.9% | 0hPa | 2.5V | 00:00:00 | 01:38:37 | 00:00:00 | |
| OE3JTB-15 | 2026-08-31 03:24:40 | 47.44173 | 12.53484 | 88° | 29km/h | 17623m | 4.1m/s | -55.5°C | 4.9% | 0hPa | 2.5V | 00:00:00 | 01:38:36 | 00:00:00 | |
| DO3MHA-11 | 2026-08-31 03:24:39 | 47.44172 | 12.53476 | 89° | 26km/h | 17618m | 4.7m/s | -55.5°C | 4.9% | 0hPa | 2.5V | 00:00:00 | 01:38:35 | 00:00:00 | |
| OM5KV | 2026-08-31 03:24:37 | 47.44172 | 12.53467 | 92° | 26km/h | 17614m | 3.6m/s | -55.5°C | 1.8% | 0hPa | 2.6V | 00:00:00 | 00:00:00 | 00:00:00 | |
| BAUMI2-15 | 2026-08-31 03:24:36 | 47.44172 | 12.53448 | 89° | 27km/h | 17606m | 4.1m/s | -55.5°C | 4.9% | 0hPa | 2.6V | 00:00:00 | 01:38:32 | 00:00:00 | |
| DO3MHA-12 | 2026-08-31 03:24:34 | 47.44172 | 12.53428 | 93° | 27km/h | 17597m | 4.6m/s | -55.5°C | 4.9% | 0hPa | 2.6V | 00:00:00 | 01:38:30 | 00:00:00 | |
| OE5MMP-10 | 2026-08-31 03:24:33 | 47.44172 | 12.53418 | 95° | 27km/h | 17593m | 3.5m/s | -55.5°C | 4.9% | 0hPa | 2.6V | 00:00:00 | 01:38:29 | 00:00:00 | |
| IN3HCDX | 2026-08-31 03:24:32 | 47.44172 | 12.53418 | 96° | 29km/h | 17593m | 3.5m/s | -55.5°C | 1.8% | 0hPa | 2.6V | 00:00:00 | 00:00:00 | 00:00:00 | |
| BAUMI2-15 | 2026-08-31 03:24:31 | 47.44173 | 12.53397 | 90° | 27km/h | 17584m | 4.2m/s | -55.4°C | 4.9% | 0hPa | 2.6V | 00:00:00 | 01:38:27 | 00:00:00 | |
| DO3MHA-11 | 2026-08-31 03:24:29 | 47.44173 | 12.53377 | 93° | 31km/h | 17576m | 4.5m/s | -55.4°C | 4.9% | 0hPa | 2.5V | 00:00:00 | 01:38:25 | 00:00:00 | |
| DB0NH | 2026-08-31 03:24:27 | 47.44173 | 12.53357 | 87° | 33km/h | 17567m | 4.7m/s | -55.4°C | 4.9% | 0hPa | 2.5V | 00:00:00 | 01:38:23 | 00:00:00 | |
| BAUMI2-15 | 2026-08-31 03:24:26 | 47.44172 | 12.53347 | 83° | 31km/h | 17563m | 3.4m/s | -55.4°C | 4.9% | 0hPa | 2.6V | 00:00:00 | 01:38:22 | 00:00:00 | |
| PG1ADW-2 | 2026-08-31 03:24:25 | 47.44171 | 12.53337 | 87° | 33km/h | 17559m | 4.1m/s | -55.4°C | 4.9% | 0hPa | 2.6V | 00:00:00 | 00:00:00 | 08:30:00 | |
| DO3MHA-12 | 2026-08-31 03:24:24 | 47.44171 | 12.53325 | 87° | 35km/h | 17554m | 4.4m/s | -55.4°C | 4.9% | 0hPa | 2.6V | 00:00:00 | 01:38:20 | 00:00:00 | |
| OE5MMP-10 | 2026-08-31 03:24:23 | 47.44171 | 12.53313 | 92° | 35km/h | 17550m | 3.3m/s | -55.4°C | 5.0% | 0hPa | 2.7V | 00:00:00 | 01:38:19 | 00:00:00 | |
| OE5DXL-15 | 2026-08-31 03:24:22 | 47.44171 | 12.53300 | 89° | 35km/h | 17546m | 4.0m/s | -55.4°C | 4.9% | 0hPa | 2.7V | 00:00:00 | 00:00:00 | 00:00:00 | |
| OE5WHR-10 | 2026-08-31 03:24:21 | 47.44171 | 12.53288 | 88° | 35km/h | 17542m | 3.9m/s | -55.5°C | 5.0% | 0hPa | 2.5V | 00:00:00 | 01:38:17 | 00:00:00 | |
| DO3MHA-11 | 2026-08-31 03:24:19 | 47.44170 | 12.53263 | 89° | 33km/h | 17535m | 3.8m/s | -55.5°C | 4.9% | 0hPa | 2.5V | 00:00:00 | 01:38:15 | 00:00:00 | |
| DM7RM-13 | 2026-08-31 03:24:18 | 47.44170 | 12.53263 | 89° | 33km/h | 17535m | 3.9m/s | -55.5°C | 1.8% | 0hPa | 2.5V | 00:00:00 | 00:00:00 | 00:00:00 | |
| DL6DJ-15 | 2026-08-31 03:24:17 | 47.44169 | 12.53226 | 86° | 33km/h | 17522m | 4.6m/s | -55.5°C | 1.7% | -1.0hPa | 2.5V | 00:00:00 | 00:00:00 | 00:00:00 | |
| BAUMI2-15 | 2026-08-31 03:24:16 | 47.44169 | 12.53225 | 87° | 35km/h | 17522m | 4.5m/s | -55.4°C | 5.0% | 0hPa | 2.5V | 00:00:00 | 01:38:12 | 00:00:00 | |
| OE5DRO-10 | 2026-08-31 03:24:15 | 47.44169 | 12.53213 | 84° | 35km/h | 17518m | 3.9m/s | -55.4°C | 4.9% | 0hPa | 2.6V | 00:00:00 | 00:00:00 | 08:30:00 | |
| OE5MMP-10 | 2026-08-31 03:24:13 | 47.44167 | 12.53188 | 86° | 35km/h | 17509m | 3.6m/s | -55.4°C | 5.0% | 0hPa | 2.6V | 00:00:00 | 01:38:09 | 00:00:00 | |
| OE3JTB-15 | 2026-08-31 03:24:11 | 47.44165 | 12.53162 | 84° | 37km/h | 17502m | 4.6m/s | -55.3°C | 4.9% | 0hPa | 2.6V | 00:00:00 | 00:00:00 | 00:00:00 | |
| OM5KV | 2026-08-31 03:24:10 | 47.44165 | 12.53162 | 85° | 33km/h | 17502m | 4.6m/s | -55.4°C | 1.8% | 0hPa | 2.6V | 00:00:00 | 00:00:00 | 00:00:00 | |
| DO3MHA-11 | 2026-08-31 03:24:09 | 47.44162 | 12.53138 | 80° | 35km/h | 17493m | 3.7m/s | -55.3°C | 4.9% | 0hPa | 2.6V | 00:00:00 | 01:38:05 | 08:30:00 | |
| BAUMI2-15 | 2026-08-31 03:24:06 | 47.44158 | 12.53100 | 79° | 37km/h | 17481m | 4.3m/s | -55.2°C | 4.9% | 0hPa | 2.6V | 00:00:00 | 01:38:02 | 00:00:00 | |
| PG1ADW-2 | 2026-08-31 03:24:05 | 47.44156 | 12.53086 | 75° | 37km/h | 17477m | 4.1m/s | -55.2°C | 4.9% | 0hPa | 2.6V | 00:00:00 | 00:00:00 | 00:00:00 | |
| OM5KV | 2026-08-31 03:24:01 | 47.44150 | 12.53047 | 79° | 35km/h | 17464m | 3.6m/s | -55.2°C | 1.8% | 0hPa | 2.6V | 00:00:00 | 00:00:00 | 00:00:00 | |
| DF7PN | 2026-08-31 03:23:54 | 47.44132 | 12.52950 | 73° | 33km/h | 17431m | 4.4m/s | -55.2°C | 1.6% | -1.0hPa | 2.6V | 00:00:00 | 00:00:00 | 00:00:00 | |
| DB0UT-7 | 2026-08-31 03:23:53 | 47.44129 | 12.52937 | 80° | 37km/h | 17426m | 4.5m/s | -55.1°C | 4.8% | 0hPa | 2.6V | 00:00:00 | 00:00:00 | 00:00:00 | |
| OE5DXL-15 | 2026-08-31 03:23:52 | 47.44128 | 12.52924 | 78° | 37km/h | 17422m | 2.9m/s | -55.2°C | 4.8% | 0hPa | 2.6V | 00:00:00 | 00:00:00 | 00:00:00 | |
| BAUMI2-15 | 2026-08-31 03:23:51 | 47.44125 | 12.52910 | 76° | 40km/h | 17419m | 4.4m/s | -55.2°C | 4.8% | 0hPa | 2.6V | 00:00:00 | 01:37:47 | 00:00:00 | |
| IN3HCDX | 2026-08-31 03:23:50 | 47.44125 | 12.52910 | 76° | 38km/h | 17419m | 4.4m/s | -55.2°C | 1.8% | 0hPa | 2.6V | 00:00:00 | 00:00:00 | 00:00:00 | |
| BAUMI2-15 | 2026-08-31 03:23:46 | 47.44107 | 12.52840 | 66° | 40km/h | 17399m | 4.0m/s | -55.2°C | 4.9% | 0hPa | 2.6V | 00:00:00 | 01:37:42 | 00:00:00 | |
| PG1ADW-2 | 2026-08-31 03:23:45 | 47.44103 | 12.52826 | 62° | 37km/h | 17395m | 4.3m/s | -55.2°C | 4.9% | 0hPa | 2.7V | 00:00:00 | 01:37:41 | 00:00:00 | |
| NBG1-10 | 2026-08-31 03:23:44 | 47.44097 | 12.52812 | 62° | 37km/h | 17391m | 3.4m/s | -55.2°C | 4.9% | 0hPa | 2.7V | 00:00:00 | 01:37:40 | 00:00:00 | |
| OE5MMP-10 | 2026-08-31 03:23:43 | 47.44093 | 12.52799 | 63° | 35km/h | 17387m | 4.4m/s | -55.2°C | 4.8% | 0hPa | 2.7V | 00:00:00 | 01:37:39 | 08:30:00 | |
| OE3JTB-15 | 2026-08-31 03:23:42 | 47.44089 | 12.52786 | 72° | 37km/h | 17383m | 4.1m/s | -55.2°C | 4.8% | 0hPa | 2.7V | 00:00:00 | 00:00:00 | 00:00:00 | |
| BAUMI2-15 | 2026-08-31 03:23:41 | 47.44086 | 12.52774 | 74° | 33km/h | 17379m | 3.1m/s | -55.2°C | 4.8% | 0hPa | 2.7V | 00:00:00 | 01:37:37 | 00:00:00 | |
| DG1MFX-10 | 2026-08-31 03:23:40 | 47.44086 | 12.52774 | 75° | 35km/h | 17379m | 3.2m/s | -55.2°C | 1.8% | 0hPa | 2.7V | 00:00:00 | 00:00:00 | 00:00:00 | |
| OE5WHR-10 | 2026-08-31 03:23:39 | 47.44081 | 12.52751 | 71° | 37km/h | 17371m | 3.8m/s | -55.1°C | 4.9% | 0hPa | 2.7V | 00:00:00 | 00:00:00 | 00:00:00 | |
| OM5KV | 2026-08-31 03:23:38 | 47.44081 | 12.52751 | 72° | 31km/h | 17371m | 3.9m/s | -55.2°C | 1.8% | 0hPa | 2.7V | 00:00:00 | 00:00:00 | 00:00:00 | |
| OE5DRO-10 | 2026-08-31 03:23:37 | 47.44076 | 12.52728 | 75° | 37km/h | 17363m | 4.7m/s | -55.1°C | 4.8% | 0hPa | 2.7V | 00:00:00 | 00:00:00 | 00:00:00 | |
| BAUMI2-15 | 2026-08-31 03:23:36 | 47.44073 | 12.52716 | 72° | 37km/h | 17359m | 3.5m/s | -55.1°C | 4.8% | 0hPa | 2.7V | 00:00:00 | 01:37:32 | 00:00:00 | |
| OE5MMP-10 | 2026-08-31 03:23:33 | 47.44063 | 12.52678 | 66° | 37km/h | 17346m | 3.9m/s | -55.1°C | 4.9% | 0hPa | 2.7V | 00:00:00 | 01:37:29 | 00:00:00 | |
| DM7RM-13 | 2026-08-31 03:23:32 | 47.44064 | 12.52678 | 66° | 37km/h | 17346m | 4.0m/s | -55.2°C | 1.9% | 0hPa | 2.7V | 00:00:00 | 00:00:00 | 00:00:00 | |
| BAUMI2-15 | 2026-08-31 03:23:31 | 47.44056 | 12.52653 | 65° | 37km/h | 17338m | 3.4m/s | -55.1°C | 4.9% | 0hPa | 2.7V | 00:00:00 | 01:37:27 | 00:00:00 | |
| OM5KV | 2026-08-31 03:23:30 | 47.44056 | 12.52653 | 66° | 37km/h | 17338m | 3.4m/s | -55.2°C | 1.8% | 0hPa | 2.6V | 00:00:00 | 00:00:00 | 00:00:00 | |
| IN3HCDX | 2026-08-31 03:23:29 | 47.44052 | 12.52641 | 65° | 37km/h | 17334m | 4.4m/s | -55.2°C | 1.8% | 0hPa | 2.6V | 00:00:00 | 00:00:00 | 00:00:00 | |
| DB0NH | 2026-08-31 03:23:27 | 47.44042 | 12.52604 | 73° | 40km/h | 17321m | 3.8m/s | -55.1°C | 4.9% | 0hPa | 2.6V | 00:00:00 | 01:37:23 | 00:00:00 | |
| BAUMI2-15 | 2026-08-31 03:23:26 | 47.44039 | 12.52590 | 78° | 37km/h | 17318m | 3.6m/s | -55.1°C | 4.9% | 0hPa | 2.6V | 00:00:00 | 01:37:22 | 00:00:00 | |
| DO3MHA-12 | 2026-08-31 03:23:25 | 47.44037 | 12.52578 | 74° | 38km/h | 17314m | 4.3m/s | -55.1°C | 4.9% | 0hPa | 2.6V | 00:00:00 | 01:37:21 | 00:00:00 | |
| OE8JPQ-2 | 2026-08-31 03:23:23 | 47.44032 | 12.52552 | 72° | 40km/h | 17306m | 2.8m/s | -55.1°C | 5.0% | 0hPa | 2.6V | 00:00:00 | 00:00:00 | 00:00:00 | |
| OE5DXL-15 | 2026-08-31 03:23:22 | 47.44029 | 12.52539 | 71° | 40km/h | 17303m | 4.0m/s | -55.1°C | 4.9% | 0hPa | 2.6V | 00:00:00 | 00:00:00 | 00:00:00 | |
| BAUMI2-15 | 2026-08-31 03:23:21 | 47.44026 | 12.52524 | 73° | 42km/h | 17299m | 4.0m/s | -55.1°C | 4.9% | 0hPa | 2.6V | 00:00:00 | 01:37:17 | 00:00:00 | |
| DG1MFX-10 | 2026-08-31 03:23:20 | 47.44026 | 12.52524 | 73° | 42km/h | 17299m | 4.0m/s | -55.1°C | 1.9% | 0hPa | 2.6V | 00:00:00 | 00:00:00 | 00:00:00 | |
| OE5WHR-10 | 2026-08-31 03:23:18 | 47.44014 | 12.52481 | 68° | 40km/h | 17286m | 3.8m/s | -55.0°C | 4.8% | 0hPa | 2.6V | 00:00:00 | 01:37:14 | 00:00:00 | |
| OM5KV | 2026-08-31 03:23:17 | 47.44015 | 12.52481 | 69° | 40km/h | 17286m | 3.8m/s | -55.0°C | 1.8% | 0hPa | 2.6V | 00:00:00 | 00:00:00 | 00:00:00 | |
| BAUMI2-15 | 2026-08-31 03:23:16 | 47.44007 | 12.52451 | 72° | 38km/h | 17278m | 3.7m/s | -54.9°C | 4.8% | 0hPa | 2.6V | 00:00:00 | 01:37:12 | 08:30:00 | |
| DO3MHA-11 | 2026-08-31 03:23:15 | 47.44005 | 12.52437 | 75° | 40km/h | 17273m | 4.7m/s | -54.9°C | 4.8% | 0hPa | 2.6V | 00:00:00 | 01:37:11 | 00:00:00 | |
| DL6DJ-15 | 2026-08-31 03:23:14 | 47.44002 | 12.52424 | 73° | 37km/h | 17269m | 3.8m/s | -54.9°C | 1.6% | -1.0hPa | 2.7V | 00:00:00 | 00:00:00 | 00:00:00 | |
| OE5MMP-10 | 2026-08-31 03:23:13 | 47.43999 | 12.52410 | 79° | 40km/h | 17265m | 4.0m/s | -54.8°C | 4.8% | 0hPa | 2.7V | 00:00:00 | 01:37:09 | 00:00:00 | |
| NBG1-10 | 2026-08-31 03:23:11 | 47.43996 | 12.52382 | 82° | 42km/h | 17257m | 3.4m/s | -54.7°C | 4.8% | 0hPa | 2.7V | 00:00:00 | 01:37:07 | 00:00:00 | |
| DM7RM-13 | 2026-08-31 03:23:10 | 47.43996 | 12.52382 | 82° | 38km/h | 17257m | 3.5m/s | -54.8°C | 0% | 0hPa | 2.7V | 00:00:00 | 00:00:00 | 00:00:00 | |
| IN3HCDX | 2026-08-31 03:23:08 | 47.43992 | 12.52354 | 81° | 38km/h | 17249m | 3.6m/s | -54.7°C | 1.8% | 0hPa | 2.7V | 00:00:00 | 00:00:00 | 00:00:00 | |
| OM5KV | 2026-08-31 03:23:07 | 47.43990 | 12.52340 | 78° | 40km/h | 17245m | 3.8m/s | -54.7°C | 1.8% | 0hPa | 2.7V | 00:00:00 | 00:00:00 | 00:00:00 | |
| BAUMI2-15 | 2026-08-31 03:23:06 | 47.43986 | 12.52309 | 77° | 42km/h | 17236m | 3.9m/s | -54.6°C | 4.7% | 0hPa | 2.7V | 00:00:00 | 01:37:02 | 00:00:00 | |
| PG1ADW-2 | 2026-08-31 03:23:05 | 47.43984 | 12.52293 | 77° | 42km/h | 17232m | 4.7m/s | -54.6°C | 4.7% | 0hPa | 2.7V | 00:00:00 | 00:00:00 | 00:00:00 | |
| OE5MMP-10 | 2026-08-31 03:23:03 | 47.43978 | 12.52262 | 77° | 40km/h | 17224m | 3.8m/s | -54.6°C | 4.7% | 0hPa | 2.7V | 00:00:00 | 01:36:59 | 00:00:00 | |
| BAUMI2-15 | 2026-08-31 03:23:01 | 47.43974 | 12.52232 | 83° | 40km/h | 17216m | 3.1m/s | -54.6°C | 4.6% | 0hPa | 2.7V | 00:00:00 | 01:36:57 | 00:00:00 | |
| OM5KV | 2026-08-31 03:23:00 | 47.43974 | 12.52232 | 84° | 42km/h | 17216m | 3.2m/s | -54.6°C | 1.7% | 0hPa | 2.6V | 00:00:00 | 00:00:00 | 00:00:00 | |
| OE5DRO-10 | 2026-08-31 03:22:59 | 47.43972 | 12.52202 | 83° | 42km/h | 17209m | 4.1m/s | -54.7°C | 4.6% | 0hPa | 2.6V | 00:00:00 | 00:00:00 | 00:00:00 | |
| OE5WHR-10 | 2026-08-31 03:22:57 | 47.43969 | 12.52174 | 81° | 44km/h | 17201m | 3.6m/s | -54.9°C | 4.7% | 0hPa | 2.6V | 00:00:00 | 00:00:00 | 08:30:00 | |
| BAUMI2-15 | 2026-08-31 03:22:56 | 47.43968 | 12.52160 | 82° | 42km/h | 17197m | 4.4m/s | -55.0°C | 4.7% | 0hPa | 2.6V | 00:00:00 | 01:36:52 | 00:00:00 | |
| DO3MHA-12 | 2026-08-31 03:22:55 | 47.43966 | 12.52144 | 81° | 44km/h | 17193m | 3.4m/s | -55.1°C | 4.8% | 0hPa | 2.6V | 00:00:00 | 01:36:51 | 00:00:00 | |
| OM5KV | 2026-08-31 03:22:54 | 47.43966 | 12.52144 | 81° | 42km/h | 17193m | 3.5m/s | -55.2°C | 1.8% | 0hPa | 2.6V | 00:00:00 | 00:00:00 | 00:00:00 | |
| OE5MMP-10 | 2026-08-31 03:22:53 | 47.43963 | 12.52112 | 83° | 44km/h | 17186m | 4.4m/s | -55.1°C | 4.8% | 0hPa | 2.6V | 00:00:00 | 01:36:49 | 00:00:00 | |
| DB0UT-7 | 2026-08-31 03:22:52 | 47.43962 | 12.52097 | 80° | 47km/h | 17182m | 3.1m/s | -55.2°C | 4.8% | 0hPa | 2.6V | 00:00:00 | 00:00:00 | 00:00:00 | |
| BAUMI2-15 | 2026-08-31 03:22:51 | 47.43960 | 12.52081 | 84° | 46km/h | 17178m | 3.7m/s | -55.2°C | 4.8% | 0hPa | 2.6V | 00:00:00 | 01:36:47 | 00:00:00 | |
| DM7RM-13 | 2026-08-31 03:22:50 | 47.43960 | 12.52081 | 85° | 44km/h | 17178m | 3.7m/s | 0°C | 0% | 0hPa | 2.6V | 00:00:00 | 00:00:00 | 00:00:00 | |
| OM5KV | 2026-08-31 03:22:49 | 47.43959 | 12.52065 | 85° | 46km/h | 17174m | 3.7m/s | -55.3°C | 1.8% | 0hPa | 2.6V | 00:00:00 | 00:00:00 | 00:00:00 | |
| IN3HCDX | 2026-08-31 03:22:48 | 47.43958 | 12.52048 | 87° | 46km/h | 17170m | 3.2m/s | -55.3°C | 1.8% | 0hPa | 2.6V | 00:00:00 | 00:00:00 | 00:00:00 | |
| OM5KV | 2026-08-31 03:22:47 | 47.43958 | 12.52031 | 87° | 44km/h | 17167m | 4.3m/s | -55.3°C | 1.8% | 0hPa | 2.6V | 00:00:00 | 00:00:00 | 00:00:00 | |
| DO3MHA-11 | 2026-08-31 03:22:45 | 47.43954 | 12.51982 | 82° | 44km/h | 17154m | 3.5m/s | -55.4°C | 4.8% | 0hPa | 2.6V | 00:00:00 | 01:36:41 | 00:00:00 | |
| OE3JTB-15 | 2026-08-31 03:22:44 | 47.43952 | 12.51966 | 81° | 51km/h | 17150m | 3.3m/s | -55.5°C | 4.8% | 0hPa | 2.7V | 00:00:00 | 00:00:00 | 08:30:00 | |
| OE8JPQ-2 | 2026-08-31 03:22:43 | 47.43950 | 12.51951 | 79° | 49km/h | 17147m | 4.3m/s | -55.6°C | 4.8% | 0hPa | 2.7V | 00:00:00 | 01:36:39 | 00:00:00 | |
| OM5KV | 2026-08-31 03:22:42 | 47.43950 | 12.51951 | 80° | 40km/h | 17147m | 4.4m/s | -55.6°C | 1.8% | 0hPa | 2.7V | 00:00:00 | 00:00:00 | 00:00:00 | |
| OE5DRO-10 | 2026-08-31 03:22:40 | 47.43945 | 12.51906 | 84° | 51km/h | 17134m | 3.4m/s | -55.8°C | 4.9% | 0hPa | 2.7V | 00:00:00 | 00:00:00 | 00:00:00 | |
| NBG1-10 | 2026-08-31 03:22:38 | 47.43941 | 12.51872 | 77° | 55km/h | 17127m | 4.4m/s | -56.0°C | 5.0% | 0hPa | 2.7V | 00:00:00 | 01:36:34 | 00:00:00 | |
| OE5WHR-10 | 2026-08-31 03:22:36 | 47.43936 | 12.51837 | 77° | 53km/h | 17118m | 4.8m/s | -56.1°C | 5.1% | 0hPa | 2.6V | 00:00:00 | 00:00:00 | 00:00:00 | |
| DO3MHA-11 | 2026-08-31 03:22:35 | 47.43933 | 12.51819 | 79° | 51km/h | 17114m | 3.4m/s | -56.2°C | 5.1% | 0hPa | 2.6V | 00:00:00 | 01:36:31 | 00:00:00 | |
| OE5MMP-10 | 2026-08-31 03:22:33 | 47.43927 | 12.51782 | 76° | 53km/h | 17106m | 3.6m/s | -56.2°C | 5.1% | 0hPa | 2.6V | 00:00:00 | 01:36:29 | 00:00:00 | |
| DM7RM-13 | 2026-08-31 03:22:29 | 47.43919 | 12.51728 | 80° | 51km/h | 17093m | 3.2m/s | 0°C | 0% | 0hPa | 2.6V | 00:00:00 | 00:00:00 | 00:00:00 | |
| DB0NH | 2026-08-31 03:22:27 | 47.43909 | 12.51671 | 75° | 55km/h | 17083m | 3.4m/s | -56.5°C | 5.3% | 0hPa | 2.6V | 00:00:00 | 01:36:23 | 00:00:00 | |
| PG1ADW-2 | 2026-08-31 03:22:25 | 47.43902 | 12.51631 | 73° | 57km/h | 17075m | 2.7m/s | -56.5°C | 5.3% | 0hPa | 2.6V | 00:00:00 | 01:36:21 | 00:00:00 | |
| OE5MMP-10 | 2026-08-31 03:22:23 | 47.43892 | 12.51592 | 70° | 57km/h | 17068m | 3.5m/s | -56.6°C | 5.3% | 0hPa | 2.7V | 00:00:00 | 01:36:19 | 00:00:00 | |
| DB0UT-7 | 2026-08-31 03:22:22 | 47.43888 | 12.51573 | 71° | 57km/h | 17065m | 3.4m/s | -56.6°C | 5.3% | 0hPa | 2.7V | 00:00:00 | 01:36:18 | 00:00:00 | |
| OE5DRO-10 | 2026-08-31 03:22:21 | 47.43883 | 12.51553 | 72° | 57km/h | 17061m | 4.2m/s | -56.6°C | 5.3% | 0hPa | 2.7V | 00:00:00 | 00:00:00 | 00:00:00 | |
| OM5KV | 2026-08-31 03:22:19 | 47.43879 | 12.51533 | 72° | 57km/h | 17057m | 3.3m/s | -56.6°C | 2.0% | 0hPa | 2.7V | 00:00:00 | 00:00:00 | 00:00:00 | |
| OE5REO-15 | 2026-08-31 03:22:18 | 47.43874 | 12.51513 | 72° | 57km/h | 17053m | 4.1m/s | -56.6°C | 2.0% | 0hPa | 2.7V | 00:00:00 | 00:00:00 | 00:00:00 | |
| DG1MFX-10 | 2026-08-31 03:22:17 | 47.43869 | 12.51493 | 69° | 57km/h | 17049m | 3.6m/s | -56.6°C | 2.1% | 0hPa | 2.7V | 00:00:00 | 00:00:00 | 00:00:00 | |
| DO3MHA-11 | 2026-08-31 03:22:15 | 47.43853 | 12.51435 | 68° | 57km/h | 17037m | 3.1m/s | -56.5°C | 5.3% | 0hPa | 2.7V | 00:00:00 | 01:36:11 | 08:30:00 | |
| OE5MMP-10 | 2026-08-31 03:22:13 | 47.43841 | 12.51395 | 66° | 55km/h | 17029m | 3.7m/s | -56.6°C | 5.3% | 0hPa | 2.6V | 00:00:00 | 01:36:09 | 08:30:00 | |
| DL6DJ-15 | 2026-08-31 03:22:12 | 47.43835 | 12.51376 | 65° | 57km/h | 17025m | 4.0m/s | -56.6°C | 1.9% | -1.0hPa | 2.6V | 00:00:00 | 00:00:00 | 00:00:00 | |
| OM5KV | 2026-08-31 03:22:10 | 47.43829 | 12.51357 | 68° | 57km/h | 17022m | 3.7m/s | -56.6°C | 2.0% | 0hPa | 2.6V | 00:00:00 | 00:00:00 | 00:00:00 | |
| IN3HCDX | 2026-08-31 03:22:06 | 47.43806 | 12.51282 | 65° | 55km/h | 17007m | 4.4m/s | -56.9°C | 2.0% | 0hPa | 2.6V | 00:00:00 | 00:00:00 | 00:00:00 | |
| NBG1-10 | 2026-08-31 03:22:05 | 47.43794 | 12.51245 | 63° | 57km/h | 16999m | 2.9m/s | -56.9°C | 5.4% | 0hPa | 2.6V | 00:00:00 | 01:36:01 | 00:00:00 | |
| OM5KV | 2026-08-31 03:22:04 | 47.43794 | 12.51245 | 64° | 55km/h | 16999m | 2.9m/s | -56.9°C | 2.1% | 0hPa | 2.6V | 00:00:00 | 00:00:00 | 00:00:00 | |
| OE8JPQ-2 | 2026-08-31 03:22:03 | 47.43782 | 12.51210 | 62° | 57km/h | 16991m | 3.5m/s | -56.9°C | 5.4% | 0hPa | 2.6V | 00:00:00 | 00:00:00 | 00:00:00 | |
| OE5DRO-10 | 2026-08-31 03:22:02 | 47.43775 | 12.51193 | 62° | 57km/h | 16987m | 4.1m/s | -56.9°C | 5.3% | 0hPa | 2.6V | 00:00:00 | 00:00:00 | 00:00:00 | |
| OE5REO-15 | 2026-08-31 03:22:01 | 47.43775 | 12.51193 | 62° | 51km/h | 16987m | 4.1m/s | -57.0°C | 2.1% | 0hPa | 2.6V | 00:00:00 | 00:00:00 | 00:00:00 | |
| DF7PN | 2026-08-31 03:21:50 | 47.43670 | 12.50939 | 55° | 51km/h | 16936m | 3.8m/s | -56.8°C | 1.9% | -1.0hPa | 2.6V | 00:00:00 | 00:00:00 | 00:00:00 | |
| OE3JTB-15 | 2026-08-31 03:21:46 | 47.43655 | 12.50906 | 55° | 55km/h | 16929m | 4.4m/s | -56.7°C | 5.4% | 0hPa | 2.6V | 00:00:00 | 01:35:42 | 00:00:00 | |
| PG1ADW-2 | 2026-08-31 03:21:45 | 47.43646 | 12.50888 | 57° | 57km/h | 16925m | 3.1m/s | -56.7°C | 0% | 0hPa | 2.6V | 00:00:00 | 00:00:00 | 00:00:00 | |
| OE5MMP-10 | 2026-08-31 03:21:43 | 47.43629 | 12.50853 | 53° | 57km/h | 16917m | 3.5m/s | -56.7°C | 5.4% | 0hPa | 2.6V | 00:00:00 | 01:35:39 | 00:00:00 | |
| DL6DJ-15 | 2026-08-31 03:21:41 | 47.43612 | 12.50818 | 54° | 58km/h | 16909m | 3.5m/s | -56.8°C | 1.9% | -1.0hPa | 2.7V | 00:00:00 | 00:00:00 | 00:00:00 | |
| OM5KV | 2026-08-31 03:21:40 | 47.43612 | 12.50818 | 56° | 60km/h | 16909m | 3.5m/s | -56.8°C | 2.1% | 0hPa | 2.7V | 00:00:00 | 00:00:00 | 00:00:00 | |
| DO3MHA-12 | 2026-08-31 03:21:35 | 47.43559 | 12.50719 | 54° | 55km/h | 16887m | 3.0m/s | -56.8°C | 5.4% | 0hPa | 2.7V | 00:00:00 | 01:35:31 | 08:30:00 | |
| OM5KV | 2026-08-31 03:21:34 | 47.43559 | 12.50719 | 54° | 53km/h | 16887m | 3.0m/s | -56.8°C | 2.1% | 0hPa | 2.6V | 00:00:00 | 00:00:00 | 00:00:00 | |
| OE5WHR-10 | 2026-08-31 03:21:33 | 47.43542 | 12.50688 | 49° | 55km/h | 16878m | 3.8m/s | -56.8°C | 5.4% | 0hPa | 2.6V | 00:00:00 | 00:00:00 | 00:00:00 | |
| NBG1-10 | 2026-08-31 03:21:32 | 47.43533 | 12.50674 | 49° | 53km/h | 16874m | 4.0m/s | -56.8°C | 5.4% | 0hPa | 2.6V | 00:00:00 | 01:35:28 | 00:00:00 | |
| OM5KV | 2026-08-31 03:21:30 | 47.43524 | 12.50658 | 51° | 55km/h | 16870m | 3.4m/s | -56.9°C | 2.2% | 0hPa | 2.6V | 00:00:00 | 00:00:00 | 00:00:00 | |
| OM5KV | 2026-08-31 03:21:29 | 47.43515 | 12.50643 | 50° | 55km/h | 16867m | 3.1m/s | -56.9°C | 2.2% | 0hPa | 2.6V | 00:00:00 | 00:00:00 | 00:00:00 | |
| DB0NH | 2026-08-31 03:21:27 | 47.43487 | 12.50598 | 50° | 53km/h | 16856m | 4.2m/s | -56.8°C | 5.4% | 0hPa | 2.6V | 00:00:00 | 01:35:23 | 00:00:00 | |
| PG1ADW-2 | 2026-08-31 03:21:25 | 47.43468 | 12.50566 | 49° | 55km/h | 16848m | 4.6m/s | -56.9°C | 5.4% | 0hPa | 2.6V | 00:00:00 | 00:00:00 | 08:30:00 | |
| OE5DRO-10 | 2026-08-31 03:21:24 | 47.43459 | 12.50551 | 47° | 55km/h | 16843m | 3.6m/s | -57.0°C | 5.4% | 0hPa | 2.6V | 00:00:00 | 00:00:00 | 08:30:00 | |
| OE8JPQ-2 | 2026-08-31 03:21:23 | 47.43449 | 12.50536 | 48° | 53km/h | 16839m | 4.0m/s | -57.0°C | 5.5% | 0hPa | 2.7V | 00:00:00 | 00:00:00 | 00:00:00 | |
| OE5DXL-15 | 2026-08-31 03:21:22 | 47.43440 | 12.50521 | 50° | 53km/h | 16835m | 3.8m/s | -57.0°C | 5.5% | 0hPa | 2.7V | 00:00:00 | 00:00:00 | 08:30:00 | |
| DF7PN | 2026-08-31 03:21:19 | 47.43404 | 12.50463 | 46° | 51km/h | 16820m | 4.5m/s | -57.1°C | 2.0% | -1.0hPa | 2.7V | 00:00:00 | 00:00:00 | 00:00:00 | |
| OE3JTB-15 | 2026-08-31 03:21:17 | 47.43394 | 12.50449 | 46° | 53km/h | 16816m | 3.3m/s | -57.1°C | 5.5% | 0hPa | 2.7V | 00:00:00 | 00:00:00 | 00:00:00 | |
| DO3MHA-11 | 2026-08-31 03:21:15 | 47.43374 | 12.50422 | 40° | 55km/h | 16808m | 4.4m/s | -57.1°C | 5.5% | 0hPa | 2.6V | 00:00:00 | 01:35:11 | 00:00:00 | |
| OE5MMP-10 | 2026-08-31 03:21:13 | 47.43353 | 12.50396 | 40° | 53km/h | 16800m | 4.3m/s | -57.2°C | 5.5% | 0hPa | 2.6V | 00:00:00 | 01:35:09 | 00:00:00 | |
| OE5WHR-10 | 2026-08-31 03:21:12 | 47.43342 | 12.50382 | 41° | 53km/h | 16796m | 3.3m/s | -57.2°C | 5.5% | 0hPa | 2.6V | 00:00:00 | 01:35:08 | 00:00:00 | |
| OE5REO-15 | 2026-08-31 03:21:11 | 47.43342 | 12.50382 | 42° | 55km/h | 16796m | 3.4m/s | -57.3°C | 2.2% | 0hPa | 2.6V | 00:00:00 | 00:00:00 | 00:00:00 | |
| DL6DJ-15 | 2026-08-31 03:21:10 | 47.43321 | 12.50356 | 40° | 53km/h | 16788m | 3.9m/s | -57.3°C | 2.0% | -1.0hPa | 2.6V | 00:00:00 | 00:00:00 | 00:00:00 | |
| OM5KV | 2026-08-31 03:21:07 | 47.43301 | 12.50329 | 46° | 53km/h | 16781m | 4.7m/s | -57.5°C | 2.3% | 0hPa | 2.6V | 00:00:00 | 00:00:00 | 00:00:00 | |
| OM5KV | 2026-08-31 03:21:06 | 47.43292 | 12.50315 | 47° | 53km/h | 16777m | 3.5m/s | -57.7°C | 2.2% | 0hPa | 2.6V | 00:00:00 | 00:00:00 | 00:00:00 | |
| DO3MHA-11 | 2026-08-31 03:21:05 | 47.43273 | 12.50289 | 41° | 51km/h | 16768m | 3.4m/s | -57.8°C | 5.8% | 0hPa | 2.6V | 00:00:00 | 01:35:01 | 00:00:00 | |
| OE5MMP-10 | 2026-08-31 03:21:03 | 47.43253 | 12.50265 | 41° | 51km/h | 16761m | 4.4m/s | -57.7°C | 5.7% | 0hPa | 2.6V | 00:00:00 | 01:34:59 | 00:00:00 | |
| DF7PN | 2026-08-31 03:20:48 | 47.43048 | 12.50064 | 36° | 47km/h | 16684m | 4.9m/s | -58.1°C | 2.3% | -1.0hPa | 2.6V | 00:00:00 | 00:00:00 | 00:00:00 | |
| BAUMI2-15 | 2026-08-31 03:20:46 | 47.43069 | 12.50084 | 33° | 49km/h | 16693m | 4.1m/s | -58.0°C | 5.9% | 0hPa | 2.6V | 00:00:00 | 01:34:42 | 00:00:00 | |
| DO3MHA-12 | 2026-08-31 03:20:45 | 47.43058 | 12.50074 | 33° | 46km/h | 16689m | 3.3m/s | -58.0°C | 5.9% | 0hPa | 2.7V | 00:00:00 | 01:34:41 | 00:00:00 | |
| OE8JPQ-2 | 2026-08-31 03:20:43 | 47.43038 | 12.50053 | 39° | 44km/h | 16680m | 4.0m/s | -58.0°C | 5.9% | 0hPa | 2.7V | 00:00:00 | 01:34:39 | 00:00:00 | |
| BAUMI2-15 | 2026-08-31 03:20:41 | 47.43019 | 12.50032 | 35° | 44km/h | 16672m | 4.4m/s | -58.1°C | 6.0% | 0hPa | 2.7V | 00:00:00 | 01:34:37 | 00:00:00 | |
| OE5HKT-10 | 2026-08-31 03:20:39 | 47.43000 | 12.50013 | 33° | 42km/h | 16664m | 3.7m/s | -58.3°C | 6.0% | 0hPa | 2.7V | 00:00:00 | 01:34:35 | 00:00:00 | |
| OM5KV | 2026-08-31 03:20:38 | 47.43000 | 12.50013 | 33° | 44km/h | 16664m | 3.7m/s | -58.3°C | 2.5% | 0hPa | 2.7V | 00:00:00 | 00:00:00 | 00:00:00 | |
| OM5KV | 2026-08-31 03:20:37 | 47.42990 | 12.50004 | 35° | 44km/h | 16659m | 4.3m/s | -58.4°C | 2.5% | 0hPa | 2.7V | 00:00:00 | 00:00:00 | 00:00:00 | |
| BAUMI2-15 | 2026-08-31 03:20:36 | 47.42973 | 12.49985 | 35° | 44km/h | 16652m | 3.9m/s | -58.4°C | 6.1% | 0hPa | 2.7V | 00:00:00 | 01:34:32 | 00:00:00 | |
| DG1MFX-10 | 2026-08-31 03:20:34 | 47.42963 | 12.49976 | 34° | 46km/h | 16648m | 3.6m/s | -58.5°C | 2.6% | 0hPa | 2.7V | 00:00:00 | 00:00:00 | 00:00:00 | |
| OE5MMP-10 | 2026-08-31 03:20:33 | 47.42944 | 12.49957 | 37° | 44km/h | 16641m | 3.9m/s | -58.4°C | 6.1% | 0hPa | 2.7V | 00:00:00 | 01:34:29 | 00:00:00 | |
| OM5KV | 2026-08-31 03:20:32 | 47.42944 | 12.49957 | 37° | 46km/h | 16641m | 4.0m/s | -58.5°C | 2.6% | 0hPa | 2.7V | 00:00:00 | 00:00:00 | 00:00:00 | |
| BAUMI2-15 | 2026-08-31 03:20:31 | 47.42927 | 12.49937 | 44° | 42km/h | 16633m | 3.3m/s | -58.4°C | 6.1% | 0hPa | 2.7V | 00:00:00 | 01:34:27 | 08:30:00 | |
| OE5WHR-10 | 2026-08-31 03:20:30 | 47.42919 | 12.49926 | 44° | 38km/h | 16629m | 4.3m/s | -58.4°C | 6.1% | 0hPa | 2.7V | 00:00:00 | 00:00:00 | 00:00:00 | |
| DM7RM-13 | 2026-08-31 03:20:28 | 47.42912 | 12.49916 | 40° | 42km/h | 16625m | 4.0m/s | 0°C | 0% | 0hPa | 2.7V | 00:00:00 | 00:00:00 | 00:00:00 | |
| DB0NH | 2026-08-31 03:20:27 | 47.42895 | 12.49896 | 42° | 37km/h | 16617m | 4.4m/s | -58.3°C | 6.1% | 0hPa | 2.7V | 00:00:00 | 01:34:23 | 00:00:00 | |
| DO3MHA-11 | 2026-08-31 03:20:26 | 47.42878 | 12.49875 | 40° | 40km/h | 16609m | 4.4m/s | -58.4°C | 6.1% | 0hPa | 2.7V | 00:00:00 | 01:34:21 | 00:00:00 | |
| PG1ADW-2 | 2026-08-31 03:20:25 | 47.42878 | 12.49875 | 40° | 37km/h | 16609m | 4.4m/s | -58.4°C | 6.1% | 0hPa | 2.7V | 00:00:00 | 00:00:00 | 00:00:00 | |
| OE5MMP-10 | 2026-08-31 03:20:23 | 47.42861 | 12.49856 | 34° | 38km/h | 16601m | 3.1m/s | -58.5°C | 6.2% | 0hPa | 2.6V | 00:00:00 | 01:34:19 | 00:00:00 | |
| OE5DXL-15 | 2026-08-31 03:20:22 | 47.42852 | 12.49847 | 37° | 33km/h | 16597m | 4.2m/s | -58.6°C | 6.2% | 0hPa | 2.6V | 00:00:00 | 00:00:00 | 00:00:00 | |
| BAUMI2-15 | 2026-08-31 03:20:21 | 47.42844 | 12.49838 | 40° | 38km/h | 16593m | 3.7m/s | -58.7°C | 6.3% | 0hPa | 2.6V | 00:00:00 | 01:34:17 | 00:00:00 | |
| OM5KV | 2026-08-31 03:20:20 | 47.42844 | 12.49838 | 40° | 40km/h | 16593m | 3.7m/s | -58.7°C | 2.7% | 0hPa | 2.6V | 00:00:00 | 00:00:00 | 00:00:00 | |
| OE3JTB-15 | 2026-08-31 03:20:19 | 47.42829 | 12.49819 | 40° | 33km/h | 16586m | 4.2m/s | -58.8°C | 6.3% | 0hPa | 2.6V | 00:00:00 | 01:34:15 | 00:00:00 | |
| OE5HKT-10 | 2026-08-31 03:20:18 | 47.42821 | 12.49810 | 39° | 33km/h | 16582m | 3.8m/s | -58.8°C | 6.3% | 0hPa | 2.6V | 00:00:00 | 00:00:00 | 00:00:00 | |
| DF7PN | 2026-08-31 03:20:17 | 47.42807 | 12.49793 | 41° | 35km/h | 16574m | 4.6m/s | -58.8°C | 2.5% | -1.0hPa | 2.6V | 00:00:00 | 00:00:00 | 00:00:00 | |
| BAUMI2-15 | 2026-08-31 03:20:16 | 47.42807 | 12.49793 | 42° | 35km/h | 16574m | 4.6m/s | -58.8°C | 6.3% | 0hPa | 2.6V | 00:00:00 | 01:34:12 | 00:00:00 | |
| DO3MHA-12 | 2026-08-31 03:20:15 | 47.42801 | 12.49784 | 47° | 33km/h | 16570m | 4.1m/s | -58.8°C | 6.3% | 0hPa | 2.7V | 00:00:00 | 01:34:11 | 00:00:00 | |
| DG1MFX-10 | 2026-08-31 03:20:14 | 47.42801 | 12.49784 | 47° | 35km/h | 16570m | 4.2m/s | -58.9°C | 2.7% | 0hPa | 2.7V | 00:00:00 | 00:00:00 | 00:00:00 | |
| OE5MMP-10 | 2026-08-31 03:20:13 | 47.42788 | 12.49766 | 43° | 31km/h | 16561m | 3.9m/s | -58.8°C | 6.3% | 0hPa | 2.7V | 00:00:00 | 01:34:09 | 00:00:00 | |
| BAUMI2-15 | 2026-08-31 03:20:11 | 47.42777 | 12.49749 | 47° | 31km/h | 16554m | 4.6m/s | -58.8°C | 6.3% | 0hPa | 2.7V | 00:00:00 | 01:34:07 | 00:00:00 | |
| OE5WHR-10 | 2026-08-31 03:20:09 | 47.42767 | 12.49732 | 50° | 31km/h | 16545m | 3.5m/s | -59.1°C | 6.5% | 0hPa | 2.7V | 00:00:00 | 01:34:05 | 00:00:00 | |
| OE5DRO-10 | 2026-08-31 03:20:08 | 47.42762 | 12.49723 | 49° | 31km/h | 16541m | 4.1m/s | -59.1°C | 6.5% | 0hPa | 2.7V | 00:00:00 | 00:00:00 | 00:00:00 | |
| BAUMI2-15 | 2026-08-31 03:20:06 | 47.42752 | 12.49706 | 53° | 35km/h | 16533m | 4.3m/s | -59.2°C | 6.4% | 0hPa | 2.7V | 00:00:00 | 01:34:02 | 00:00:00 | |
| PG1ADW-2 | 2026-08-31 03:20:05 | 47.42747 | 12.49697 | 54° | 33km/h | 16529m | 3.5m/s | -59.2°C | 6.5% | 0hPa | 2.7V | 00:00:00 | 00:00:00 | 00:00:00 | |
| DM7RM-13 | 2026-08-31 03:20:04 | 47.42747 | 12.49697 | 54° | 33km/h | 16529m | 3.5m/s | 0°C | 0% | 0hPa | 2.7V | 00:00:00 | 00:00:00 | 00:00:00 | |
| OE8JPQ-2 | 2026-08-31 03:20:03 | 47.42736 | 12.49677 | 52° | 33km/h | 16521m | 3.5m/s | -59.2°C | 6.5% | 0hPa | 2.7V | 00:00:00 | 00:00:00 | 00:00:00 | |
| OM5KV | 2026-08-31 03:19:58 | 47.42717 | 12.49632 | 60° | 37km/h | 16504m | 4.8m/s | -59.2°C | 2.8% | 0hPa | 2.7V | 00:00:00 | 00:00:00 | 00:00:00 | |
| DB0NH | 2026-08-31 03:19:57 | 47.42709 | 12.49610 | 63° | 33km/h | 16497m | 3.7m/s | -59.2°C | 6.5% | 0hPa | 2.7V | 00:00:00 | 01:33:53 | 00:00:00 | |
| DO3MHA-12 | 2026-08-31 03:19:56 | 47.42703 | 12.49589 | 72° | 31km/h | 16487m | 4.2m/s | -59.2°C | 6.5% | 0hPa | 2.6V | 00:00:00 | 01:33:51 | 00:00:00 | |
| DO3MHA-11 | 2026-08-31 03:19:55 | 47.42703 | 12.49589 | 72° | 31km/h | 16487m | 4.2m/s | -59.2°C | 6.5% | 0hPa | 2.6V | 00:00:00 | 01:33:51 | 00:00:00 | |
| NBG1-10 | 2026-08-31 03:19:53 | 47.42699 | 12.49570 | 69° | 35km/h | 16479m | 4.7m/s | -59.2°C | 6.5% | 0hPa | 2.6V | 00:00:00 | 01:33:49 | 00:00:00 | |
| OE5DXL-15 | 2026-08-31 03:19:52 | 47.42696 | 12.49561 | 63° | 35km/h | 16475m | 3.6m/s | -59.2°C | 6.5% | 0hPa | 2.6V | 00:00:00 | 00:00:00 | 00:00:00 | |
| BAUMI2-15 | 2026-08-31 03:19:51 | 47.42692 | 12.49551 | 64° | 33km/h | 16471m | 3.8m/s | -59.3°C | 6.5% | 0hPa | 2.7V | 00:00:00 | 01:33:47 | 00:00:00 | |
| OE3JTB-15 | 2026-08-31 03:19:50 | 47.42690 | 12.49542 | 68° | 35km/h | 16467m | 4.6m/s | -59.3°C | 6.6% | 0hPa | 2.7V | 00:00:00 | 00:00:00 | 00:00:00 | |
| OE5DRO-10 | 2026-08-31 03:19:49 | 47.42686 | 12.49531 | 69° | 35km/h | 16462m | 3.5m/s | -59.3°C | 6.5% | 0hPa | 2.6V | 00:00:00 | 00:00:00 | 00:00:00 | |
| OE5WHR-10 | 2026-08-31 03:19:48 | 47.42683 | 12.49519 | 67° | 35km/h | 16458m | 4.5m/s | -59.4°C | 6.6% | 0hPa | 2.6V | 00:00:00 | 00:00:00 | 08:30:00 | |
| BAUMI2-15 | 2026-08-31 03:19:46 | 47.42677 | 12.49495 | 71° | 33km/h | 16450m | 3.6m/s | -59.5°C | 6.7% | 0hPa | 2.6V | 00:00:00 | 01:33:42 | 08:30:00 | |
| PG1ADW-2 | 2026-08-31 03:19:45 | 47.42674 | 12.49482 | 75° | 37km/h | 16445m | 4.7m/s | -59.5°C | 6.7% | 0hPa | 2.6V | 00:00:00 | 01:33:41 | 00:00:00 | |
| OE5MMP-10 | 2026-08-31 03:19:43 | 47.42671 | 12.49457 | 81° | 33km/h | 16438m | 3.7m/s | -59.5°C | 6.7% | 0hPa | 2.6V | 00:00:00 | 01:33:39 | 00:00:00 | |
| BAUMI2-15 | 2026-08-31 03:19:41 | 47.42667 | 12.49434 | 74° | 33km/h | 16430m | 3.6m/s | -59.4°C | 6.6% | 0hPa | 2.6V | 00:00:00 | 01:33:37 | 00:00:00 | |
| IN3HCDX | 2026-08-31 03:19:40 | 47.42667 | 12.49434 | 75° | 31km/h | 16430m | 3.6m/s | -59.4°C | 2.8% | 0hPa | 2.6V | 00:00:00 | 00:00:00 | 00:00:00 | |
| DL6DJ-15 | 2026-08-31 03:19:37 | 47.42660 | 12.49386 | 85° | 35km/h | 16413m | 3.7m/s | -59.4°C | 2.6% | -1.0hPa | 2.6V | 00:00:00 | 00:00:00 | 00:00:00 | |
| OE5HKT-10 | 2026-08-31 03:19:36 | 47.42660 | 12.49373 | 85° | 58km/h | 16409m | 4.2m/s | 0°C | 0% | 0hPa | 2.6V | 00:00:00 | 01:33:32 | 00:00:00 | |
| DO3MHA-11 | 2026-08-31 03:19:35 | 47.42659 | 12.49360 | 82° | 38km/h | 16405m | 4.2m/s | -59.3°C | 6.7% | 0hPa | 2.6V | 00:00:00 | 01:33:31 | 00:00:00 | |
| OE5MMP-10 | 2026-08-31 03:19:33 | 47.42656 | 12.49333 | 83° | 38km/h | 16396m | 5.1m/s | -59.2°C | 6.6% | 0hPa | 2.6V | 00:00:00 | 01:33:29 | 00:00:00 | |
| BAUMI2-15 | 2026-08-31 03:19:31 | 47.42654 | 12.49306 | 82° | 40km/h | 16388m | 3.5m/s | -59.2°C | 6.6% | 0hPa | 2.6V | 00:00:00 | 01:33:27 | 00:00:00 | |
| OE5DRO-10 | 2026-08-31 03:19:30 | 47.42652 | 12.49292 | 79° | 37km/h | 16384m | 4.1m/s | -59.1°C | 6.6% | 0hPa | 2.6V | 00:00:00 | 00:00:00 | 00:00:00 | |
| OE5WHR-10 | 2026-08-31 03:19:27 | 47.42647 | 12.49247 | 86° | 37km/h | 16371m | 3.6m/s | -59.1°C | 6.6% | 0hPa | 2.6V | 00:00:00 | 00:00:00 | 00:00:00 | |
| BAUMI2-15 | 2026-08-31 03:19:26 | 47.42647 | 12.49233 | 85° | 35km/h | 16368m | 3.4m/s | -59.1°C | 6.6% | 0hPa | 2.6V | 00:00:00 | 01:33:22 | 00:00:00 | |
| DO3MHA-12 | 2026-08-31 03:19:25 | 47.42646 | 12.49219 | 86° | 35km/h | 16364m | 4.3m/s | -59.0°C | 6.6% | 0hPa | 2.6V | 00:00:00 | 01:33:21 | 00:00:00 | |
| OM5KV | 2026-08-31 03:19:24 | 47.42645 | 12.49219 | 86° | 37km/h | 16364m | 4.3m/s | -59.1°C | 2.8% | 0hPa | 2.6V | 00:00:00 | 00:00:00 | 00:00:00 | |
| OE5MMP-10 | 2026-08-31 03:19:23 | 47.42645 | 12.49193 | 88° | 35km/h | 16356m | 4.3m/s | -59.0°C | 6.6% | 0hPa | 2.6V | 00:00:00 | 01:33:19 | 00:00:00 | |
| DB0UT-7 | 2026-08-31 03:19:22 | 47.42644 | 12.49181 | 88° | 40km/h | 16352m | 3.2m/s | -59.0°C | 6.6% | 0hPa | 2.6V | 00:00:00 | 01:33:18 | 00:00:00 | |
| BAUMI2-15 | 2026-08-31 03:19:21 | 47.42644 | 12.49169 | 84° | 35km/h | 16348m | 4.7m/s | -59.1°C | 6.6% | 0hPa | 2.6V | 00:00:00 | 01:33:17 | 00:00:00 | |
| NBG1-10 | 2026-08-31 03:19:20 | 47.42642 | 12.49156 | 81° | 42km/h | 16344m | 3.5m/s | -59.0°C | 6.6% | 0hPa | 2.6V | 00:00:00 | 01:33:16 | 08:30:00 | |
| OM5KV | 2026-08-31 03:19:19 | 47.42642 | 12.49156 | 82° | 35km/h | 16344m | 3.6m/s | -59.1°C | 2.8% | 0hPa | 2.7V | 00:00:00 | 00:00:00 | 00:00:00 | |
| OM5KV | 2026-08-31 03:19:18 | 47.42641 | 12.49144 | 84° | 35km/h | 16340m | 4.0m/s | -59.1°C | 2.8% | 0hPa | 2.7V | 00:00:00 | 00:00:00 | 00:00:00 | |
| BAUMI2-15 | 2026-08-31 03:19:16 | 47.42639 | 12.49103 | 86° | 37km/h | 16328m | 3.6m/s | -59.1°C | 6.6% | 0hPa | 2.7V | 00:00:00 | 01:33:12 | 00:00:00 | |
| DO3MHA-12 | 2026-08-31 03:19:15 | 47.42638 | 12.49089 | 84° | 40km/h | 16324m | 4.3m/s | -59.1°C | 6.6% | 0hPa | 2.6V | 00:00:00 | 01:33:11 | 00:00:00 | |
| DF7PN | 2026-08-31 03:19:14 | 47.42637 | 12.49076 | 83° | 35km/h | 16319m | 3.1m/s | -59.1°C | -1.0% | -1.0hPa | 2.6V | 00:00:00 | 00:00:00 | 00:00:00 | |
| OE5MMP-10 | 2026-08-31 03:19:13 | 47.42636 | 12.49063 | 86° | 42km/h | 16316m | 4.1m/s | -59.0°C | 6.6% | 0hPa | 2.6V | 00:00:00 | 01:33:09 | 08:30:00 | |
| DG1MFX-10 | 2026-08-31 03:19:12 | 47.42636 | 12.49063 | 87° | 35km/h | 16316m | 4.2m/s | -59.1°C | 2.9% | 0hPa | 2.6V | 00:00:00 | 00:00:00 | 00:00:00 | |
| BAUMI2-15 | 2026-08-31 03:19:11 | 47.42636 | 12.49036 | 92° | 42km/h | 16308m | 3.1m/s | -59.0°C | 6.7% | 0hPa | 2.6V | 00:00:00 | 01:33:07 | 00:00:00 | |
| OM5KV | 2026-08-31 03:19:07 | 47.42634 | 12.48991 | 85° | 44km/h | 16295m | 3.9m/s | -59.0°C | 2.9% | 0hPa | 2.6V | 00:00:00 | 00:00:00 | 00:00:00 | |
| OE5WHR-10 | 2026-08-31 03:19:06 | 47.42632 | 12.48958 | 87° | 44km/h | 16286m | 3.6m/s | -58.9°C | 6.7% | 0hPa | 2.6V | 00:00:00 | 01:33:02 | 00:00:00 | |
| DO3MHA-11 | 2026-08-31 03:19:05 | 47.42632 | 12.48941 | 86° | 44km/h | 16283m | 3.4m/s | -58.9°C | 6.7% | 0hPa | 2.6V | 00:00:00 | 01:33:01 | 00:00:00 | |
| BAUMI2-15 | 2026-08-31 03:19:01 | 47.42629 | 12.48876 | 93° | 44km/h | 16267m | 3.2m/s | -58.8°C | 6.7% | 0hPa | 2.6V | 00:00:00 | 01:32:57 | 08:30:00 | |
| OM5KV | 2026-08-31 03:19:00 | 47.42629 | 12.48876 | 94° | 44km/h | 16267m | 3.2m/s | -58.8°C | 2.9% | 0hPa | 2.6V | 00:00:00 | 00:00:00 | 00:00:00 | |
| IN3HCDX | 2026-08-31 03:18:58 | 47.42630 | 12.48844 | 92° | 42km/h | 16260m | 3.9m/s | -58.8°C | 2.9% | 0hPa | 2.6V | 00:00:00 | 00:00:00 | 00:00:00 | |
| DB0NH | 2026-08-31 03:18:57 | 47.42630 | 12.48812 | 90° | 46km/h | 16253m | 4.2m/s | -58.6°C | 6.6% | 0hPa | 2.6V | 00:00:00 | 01:32:53 | 00:00:00 | |
| BAUMI2-15 | 2026-08-31 03:18:56 | 47.42630 | 12.48795 | 90° | 46km/h | 16249m | 3.6m/s | -58.6°C | 6.6% | 0hPa | 2.6V | 00:00:00 | 01:32:52 | 00:00:00 | |
| DO3MHA-12 | 2026-08-31 03:18:55 | 47.42630 | 12.48778 | 88° | 44km/h | 16245m | 4.6m/s | -58.6°C | 6.6% | 0hPa | 2.6V | 00:00:00 | 01:32:51 | 00:00:00 | |
| OE5MMP-10 | 2026-08-31 03:18:53 | 47.42628 | 12.48743 | 89° | 44km/h | 16237m | 3.7m/s | -58.5°C | 6.6% | 0hPa | 2.6V | 00:00:00 | 01:32:49 | 00:00:00 | |
| DB0UT-7 | 2026-08-31 03:18:52 | 47.42628 | 12.48726 | 92° | 44km/h | 16232m | 4.2m/s | -58.5°C | 6.6% | 0hPa | 2.6V | 00:00:00 | 00:00:00 | 00:00:00 | |
| BAUMI2-15 | 2026-08-31 03:18:51 | 47.42629 | 12.48710 | 95° | 58km/h | 16228m | 3.7m/s | -58.4°C | 6.5% | 0hPa | 2.6V | 00:00:00 | 01:32:47 | 00:00:00 | |
| OE5REO-15 | 2026-08-31 03:18:50 | 47.42629 | 12.48709 | 96° | 44km/h | 16228m | 3.7m/s | -58.5°C | 2.8% | 0hPa | 2.6V | 00:00:00 | 00:00:00 | 00:00:00 | |
| OM5KV | 2026-08-31 03:18:49 | 47.42630 | 12.48693 | 94° | 42km/h | 16224m | 4.5m/s | -58.5°C | 2.9% | 0hPa | 2.6V | 00:00:00 | 00:00:00 | 00:00:00 | |
| NBG1-10 | 2026-08-31 03:18:47 | 47.42632 | 12.48646 | 95° | 46km/h | 16212m | 4.0m/s | -58.3°C | 6.5% | 0hPa | 2.6V | 00:00:00 | 01:32:43 | 00:00:00 | |
| DO3MHA-11 | 2026-08-31 03:18:45 | 47.42633 | 12.48613 | 90° | 44km/h | 16204m | 4.8m/s | -58.2°C | 6.5% | 0hPa | 2.6V | 00:00:00 | 01:32:41 | 00:00:00 | |
| OM5KV | 2026-08-31 03:18:44 | 47.42633 | 12.48613 | 91° | 44km/h | 16204m | 4.9m/s | -58.3°C | 2.8% | 0hPa | 2.7V | 00:00:00 | 00:00:00 | 00:00:00 | |
| OE5MMP-10 | 2026-08-31 03:18:43 | 47.42633 | 12.48579 | 91° | 44km/h | 16196m | 4.6m/s | -58.2°C | 6.5% | 0hPa | 2.7V | 00:00:00 | 01:32:39 | 00:00:00 | |
| OE8JPQ-2 | 2026-08-31 03:18:42 | 47.42633 | 12.48562 | 94° | 46km/h | 16191m | 3.3m/s | 0°C | 0% | 0hPa | 2.6V | 00:00:00 | 01:32:38 | 00:00:00 | |
| OM5KV | 2026-08-31 03:18:38 | 47.42634 | 12.48513 | 90° | 42km/h | 16179m | 3.8m/s | -58.1°C | 2.9% | 0hPa | 2.6V | 00:00:00 | 00:00:00 | 00:00:00 | |
| IN3HCDX | 2026-08-31 03:18:37 | 47.42634 | 12.48497 | 92° | 44km/h | 16175m | 4.2m/s | -58.0°C | 2.8% | 0hPa | 2.6V | 00:00:00 | 00:00:00 | 00:00:00 | |
| OM5KV | 2026-08-31 03:18:36 | 47.42634 | 12.48481 | 94° | 46km/h | 16171m | 3.7m/s | -58.0°C | 2.9% | 0hPa | 2.6V | 00:00:00 | 00:00:00 | 00:00:00 | |
| DO3MHA-11 | 2026-08-31 03:18:35 | 47.42636 | 12.48447 | 94° | 46km/h | 16164m | 4.5m/s | -57.9°C | 6.5% | 0hPa | 2.6V | 00:00:00 | 01:32:31 | 00:00:00 | |
| OE5REO-15 | 2026-08-31 03:18:34 | 47.42636 | 12.48447 | 94° | 44km/h | 16164m | 4.6m/s | -57.9°C | 2.9% | 0hPa | 2.6V | 00:00:00 | 00:00:00 | 00:00:00 | |
| OE5MMP-10 | 2026-08-31 03:18:33 | 47.42637 | 12.48415 | 95° | 46km/h | 16156m | 3.6m/s | -57.9°C | 6.5% | 0hPa | 2.6V | 00:00:00 | 01:32:29 | 00:00:00 | |
| DG1MFX-10 | 2026-08-31 03:18:31 | 47.42638 | 12.48398 | 96° | 46km/h | 16152m | 4.2m/s | -57.9°C | 3.0% | 0hPa | 2.6V | 00:00:00 | 00:00:00 | 00:00:00 | |
| DB0NH | 2026-08-31 03:18:27 | 47.42642 | 12.48312 | 93° | 55km/h | 16132m | 3.5m/s | -57.7°C | 6.5% | 0hPa | 2.6V | 00:00:00 | 01:32:23 | 08:30:00 | |
| DO3MHA-11 | 2026-08-31 03:18:25 | 47.42643 | 12.48279 | 91° | 47km/h | 16125m | 4.6m/s | -57.7°C | 6.4% | 0hPa | 2.6V | 00:00:00 | 01:32:21 | 00:00:00 | |
| OE5WHR-10 | 2026-08-31 03:18:24 | 47.42643 | 12.48262 | 90° | 51km/h | 16121m | 3.5m/s | -57.7°C | 6.4% | 0hPa | 2.6V | 00:00:00 | 00:00:00 | 00:00:00 | |
| OE5MMP-10 | 2026-08-31 03:18:23 | 47.42643 | 12.48246 | 91° | 49km/h | 16117m | 4.3m/s | -57.7°C | 6.5% | 0hPa | 2.6V | 00:00:00 | 01:32:19 | 00:00:00 | |
| OE5DXL-15 | 2026-08-31 03:18:22 | 47.42643 | 12.48230 | 92° | 53km/h | 16113m | 2.9m/s | -57.7°C | 6.5% | 0hPa | 2.6V | 00:00:00 | 00:00:00 | 00:00:00 | |
| OM5KV | 2026-08-31 03:18:21 | 47.42643 | 12.48230 | 92° | 44km/h | 16113m | 3.0m/s | -57.8°C | 0% | 0hPa | 2.7V | 00:00:00 | 00:00:00 | 00:00:00 | |
| OE5REO-15 | 2026-08-31 03:18:18 | 47.42643 | 12.48176 | 91° | 49km/h | 16102m | 3.3m/s | -57.7°C | 3.0% | 0hPa | 2.7V | 00:00:00 | 00:00:00 | 00:00:00 | |
| DO3MHA-12 | 2026-08-31 03:18:15 | 47.42645 | 12.48100 | 91° | 51km/h | 16084m | 4.1m/s | -57.6°C | 6.4% | 0hPa | 2.7V | 00:00:00 | 01:32:11 | 00:00:00 | |
| NBG1-10 | 2026-08-31 03:18:14 | 47.42645 | 12.48082 | 92° | 58km/h | 16080m | 5.0m/s | -57.6°C | 6.4% | 0hPa | 2.7V | 00:00:00 | 01:32:10 | 00:00:00 | |
| OE5MMP-10 | 2026-08-31 03:18:13 | 47.42645 | 12.48064 | 93° | 53km/h | 16075m | 3.5m/s | -57.6°C | 6.4% | 0hPa | 2.7V | 00:00:00 | 01:32:09 | 00:00:00 | |
| DG1MFX-10 | 2026-08-31 03:18:10 | 47.42645 | 12.48028 | 90° | 49km/h | 16068m | 4.4m/s | -57.6°C | 3.0% | 0hPa | 2.7V | 00:00:00 | 00:00:00 | 00:00:00 | |
| OM5KV | 2026-08-31 03:18:07 | 47.42645 | 12.47970 | 92° | 53km/h | 16055m | 4.6m/s | -57.7°C | 0% | 0hPa | 2.7V | 00:00:00 | 00:00:00 | 00:00:00 | |
| DO3MHA-11 | 2026-08-31 03:18:05 | 47.42646 | 12.47908 | 90° | 57km/h | 16041m | 4.0m/s | -57.7°C | 6.3% | 0hPa | 2.7V | 00:00:00 | 01:32:01 | 00:00:00 | |
| DL6DJ-15 | 2026-08-31 03:18:04 | 47.42647 | 12.47867 | 92° | 55km/h | 16032m | 3.2m/s | -57.8°C | 2.8% | -1.0hPa | 2.7V | 00:00:00 | 00:00:00 | 00:00:00 | |
| OE5WHR-10 | 2026-08-31 03:18:03 | 47.42647 | 12.47867 | 93° | 60km/h | 16032m | 3.2m/s | -57.7°C | 6.4% | 0hPa | 2.7V | 00:00:00 | 01:31:59 | 00:00:00 | |
| OM5KV | 2026-08-31 03:18:02 | 47.42647 | 12.47867 | 93° | 55km/h | 16032m | 3.2m/s | -57.8°C | 0% | 0hPa | 2.7V | 00:00:00 | 00:00:00 | 00:00:00 | |
| PG1ADW-2 | 2026-08-31 03:18:01 | 47.42647 | 12.47826 | 90° | 60km/h | 16024m | 4.1m/s | -57.8°C | 6.4% | 0hPa | 2.7V | 00:00:00 | 00:00:00 | 00:00:00 | |
| OE8JPQ-2 | 2026-08-31 03:18:00 | 47.42647 | 12.47805 | 91° | 62km/h | 16019m | 3.9m/s | 0°C | 0% | 0hPa | 2.7V | 00:00:00 | 00:00:00 | 00:00:00 | |
| OM5KV | 2026-08-31 03:17:58 | 47.42647 | 12.47784 | 92° | 57km/h | 16015m | 3.5m/s | -57.9°C | 0% | 0hPa | 2.7V | 00:00:00 | 00:00:00 | 00:00:00 | |
| DO3MHA-11 | 2026-08-31 03:17:55 | 47.42647 | 12.47699 | 92° | 62km/h | 16001m | 4.4m/s | -58.0°C | 6.6% | 0hPa | 2.7V | 00:00:00 | 01:31:51 | 00:00:00 | |
| OE3JTB-15 | 2026-08-31 03:17:54 | 47.42647 | 12.47677 | 94° | 71km/h | 15997m | 3.4m/s | -58.1°C | 6.6% | 0hPa | 2.7V | 00:00:00 | 00:00:00 | 00:00:00 | |
| OE5MMP-10 | 2026-08-31 03:17:53 | 47.42649 | 12.47655 | 94° | 64km/h | 15993m | 3.3m/s | -58.4°C | 6.7% | 0hPa | 2.7V | 00:00:00 | 01:31:49 | 00:00:00 | |
| OE5DXL-15 | 2026-08-31 03:17:52 | 47.42649 | 12.47632 | 93° | 73km/h | 15989m | 4.3m/s | -58.5°C | 6.8% | 0hPa | 2.7V | 00:00:00 | 00:00:00 | 00:00:00 | |
| DG1MFX-10 | 2026-08-31 03:17:49 | 47.42651 | 12.47586 | 94° | 62km/h | 15981m | 4.7m/s | -59.1°C | 3.4% | 0hPa | 2.7V | 00:00:00 | 00:00:00 | 00:00:00 | |
| DB0NH | 2026-08-31 03:17:48 | 47.42653 | 12.47538 | 91° | 71km/h | 15973m | 3.4m/s | -59.5°C | 7.4% | 0hPa | 2.7V | 00:00:00 | 01:31:44 | 00:00:00 | |
| OM5KV | 2026-08-31 03:17:47 | 47.42653 | 12.47538 | 92° | 64km/h | 15973m | 3.4m/s | 0°C | 0% | 0hPa | 2.7V | 00:00:00 | 00:00:00 | 00:00:00 | |
| DO3MHA-11 | 2026-08-31 03:17:45 | 47.42650 | 12.47467 | 85° | 75km/h | 15961m | 3.1m/s | -59.7°C | 7.6% | 0hPa | 2.7V | 00:00:00 | 01:31:41 | 08:30:00 | |
| OE5MMP-10 | 2026-08-31 03:17:43 | 47.42648 | 12.47418 | 90° | 77km/h | 15952m | 4.2m/s | -59.7°C | 7.6% | 0hPa | 2.6V | 00:00:00 | 01:31:39 | 08:30:00 | |
| OE5WHR-10 | 2026-08-31 03:17:42 | 47.42648 | 12.47393 | 92° | 77km/h | 15948m | 4.0m/s | -59.7°C | 7.6% | 0hPa | 2.6V | 00:00:00 | 00:00:00 | 00:00:00 | |
| NBG1-10 | 2026-08-31 03:17:41 | 47.42648 | 12.47366 | 91° | 78km/h | 15944m | 3.8m/s | -59.7°C | 7.6% | 0hPa | 2.6V | 00:00:00 | 01:31:37 | 00:00:00 | |
| OE8JPQ-2 | 2026-08-31 03:17:40 | 47.42648 | 12.47337 | 90° | 78km/h | 15939m | 5.1m/s | 0°C | 0% | 0hPa | 2.6V | 00:00:00 | 01:31:36 | 00:00:00 | |
| OM5KV | 2026-08-31 03:17:39 | 47.42648 | 12.47337 | 90° | 78km/h | 15939m | 5.1m/s | 0°C | 0% | 0hPa | 2.6V | 00:00:00 | 00:00:00 | 00:00:00 | |
| OE5DRO-10 | 2026-08-31 03:17:36 | 47.42645 | 12.47218 | 88° | 77km/h | 15922m | 3.0m/s | -59.9°C | 7.8% | 0hPa | 2.6V | 00:00:00 | 00:00:00 | 00:00:00 | |
| DO3MHA-12 | 2026-08-31 03:17:35 | 47.42644 | 12.47189 | 86° | 77km/h | 15919m | 3.1m/s | -59.9°C | 7.8% | 0hPa | 2.7V | 00:00:00 | 01:31:31 | 00:00:00 | |
| OM5KV | 2026-08-31 03:17:34 | 47.42644 | 12.47189 | 87° | 77km/h | 15919m | 3.2m/s | 0°C | 0% | 0hPa | 2.7V | 00:00:00 | 00:00:00 | 00:00:00 | |
| OE5MMP-10 | 2026-08-31 03:17:33 | 47.42640 | 12.47132 | 82° | 77km/h | 15911m | 3.3m/s | -59.9°C | 7.8% | 0hPa | 2.7V | 00:00:00 | 01:31:29 | 00:00:00 | |
| OM5KV | 2026-08-31 03:17:32 | 47.42640 | 12.47132 | 83° | 78km/h | 15911m | 3.4m/s | 0°C | 0% | 0hPa | 2.7V | 00:00:00 | 00:00:00 | 00:00:00 | |
| DG1MFX-10 | 2026-08-31 03:17:29 | 47.42632 | 12.47047 | 86° | 75km/h | 15900m | 3.3m/s | -59.9°C | 3.8% | 0hPa | 2.7V | 00:00:00 | 00:00:00 | 00:00:00 | |
| OM5KV | 2026-08-31 03:17:27 | 47.42628 | 12.46990 | 85° | 78km/h | 15893m | 4.2m/s | 0°C | 0% | 0hPa | 2.7V | 00:00:00 | 00:00:00 | 00:00:00 | |
| DO3MHA-12 | 2026-08-31 03:17:26 | 47.42622 | 12.46903 | 83° | 78km/h | 15880m | 3.6m/s | -59.7°C | 7.9% | 0hPa | 2.7V | 00:00:00 | 01:31:21 | 00:00:00 | |
| OE3JTB-15 | 2026-08-31 03:17:25 | 47.42622 | 12.46903 | 83° | 77km/h | 15880m | 3.6m/s | -59.7°C | 7.9% | 0hPa | 2.7V | 00:00:00 | 01:31:21 | 00:00:00 | |
| OE5MMP-10 | 2026-08-31 03:17:23 | 47.42616 | 12.46847 | 81° | 78km/h | 15873m | 4.2m/s | -59.7°C | 7.9% | 0hPa | 2.7V | 00:00:00 | 01:31:19 | 00:00:00 | |
| DB0UT-7 | 2026-08-31 03:17:22 | 47.42612 | 12.46818 | 80° | 77km/h | 15869m | 3.3m/s | -59.7°C | 8.0% | 0hPa | 2.7V | 00:00:00 | 01:31:18 | 08:30:00 | |
| OE5WHR-10 | 2026-08-31 03:17:21 | 47.42608 | 12.46788 | 80° | 78km/h | 15865m | 3.4m/s | -59.7°C | 8.0% | 0hPa | 2.6V | 00:00:00 | 00:00:00 | 00:00:00 | |
| OE8JPQ-2 | 2026-08-31 03:17:20 | 47.42605 | 12.46760 | 80° | 77km/h | 15861m | 4.4m/s | 0°C | 0% | 0hPa | 2.6V | 00:00:00 | 00:00:00 | 00:00:00 | |
| DB0NH | 2026-08-31 03:17:18 | 47.42598 | 12.46703 | 80° | 75km/h | 15854m | 4.5m/s | -59.7°C | 8.0% | 0hPa | 2.6V | 00:00:00 | 01:31:14 | 00:00:00 | |
| OE5DRO-10 | 2026-08-31 03:17:17 | 47.42595 | 12.46674 | 81° | 77km/h | 15850m | 3.3m/s | -59.7°C | 8.0% | 0hPa | 2.6V | 00:00:00 | 00:00:00 | 00:00:00 | |
| OM5KV | 2026-08-31 03:17:15 | 47.42591 | 12.46646 | 81° | 77km/h | 15846m | 4.3m/s | 0°C | 0% | 0hPa | 2.6V | 00:00:00 | 00:00:00 | 00:00:00 | |
| IN3HCDX | 2026-08-31 03:17:14 | 47.42588 | 12.46618 | 82° | 77km/h | 15841m | 3.7m/s | -59.7°C | 3.9% | 0hPa | 2.6V | 00:00:00 | 00:00:00 | 00:00:00 | |
| OE5MMP-10 | 2026-08-31 03:17:13 | 47.42581 | 12.46560 | 80° | 78km/h | 15834m | 3.7m/s | -59.7°C | 8.0% | 0hPa | 2.6V | 00:00:00 | 01:31:09 | 00:00:00 | |
| OM5KV | 2026-08-31 03:17:09 | 47.42569 | 12.46475 | 79° | 77km/h | 15822m | 3.5m/s | 0°C | 0% | 0hPa | 2.6V | 00:00:00 | 00:00:00 | 00:00:00 | |
| NBG1-10 | 2026-08-31 03:17:08 | 47.42562 | 12.46418 | 80° | 75km/h | 15815m | 4.3m/s | -59.8°C | 8.1% | 0hPa | 2.6V | 00:00:00 | 01:31:04 | 00:00:00 | |
| DO3MHA-12 | 2026-08-31 03:17:05 | 47.42549 | 12.46333 | 77° | 77km/h | 15803m | 4.1m/s | -59.7°C | 8.1% | 0hPa | 2.6V | 00:00:00 | 01:31:01 | 08:30:00 | |
| OE5MMP-10 | 2026-08-31 03:17:03 | 47.42541 | 12.46277 | 79° | 75km/h | 15795m | 4.0m/s | -59.7°C | 8.1% | 0hPa | 2.6V | 00:00:00 | 01:30:59 | 00:00:00 | |
| DL6DJ-15 | 2026-08-31 03:17:02 | 47.42533 | 12.46222 | 77° | 75km/h | 15787m | 4.5m/s | -59.7°C | 3.8% | -1.0hPa | 2.6V | 00:00:00 | 00:00:00 | 00:00:00 | |
| OE5WHR-10 | 2026-08-31 03:17:00 | 47.42529 | 12.46195 | 79° | 75km/h | 15783m | 3.7m/s | -59.6°C | 8.1% | 0hPa | 2.6V | 00:00:00 | 01:30:56 | 00:00:00 | |
| OE5DRO-10 | 2026-08-31 03:16:58 | 47.42521 | 12.46139 | 79° | 75km/h | 15775m | 3.4m/s | -59.6°C | 8.2% | 0hPa | 2.6V | 00:00:00 | 00:00:00 | 00:00:00 | |
| OE3JTB-15 | 2026-08-31 03:16:56 | 47.42514 | 12.46085 | 77° | 73km/h | 15766m | 3.6m/s | -59.5°C | 8.2% | 0hPa | 2.6V | 00:00:00 | 00:00:00 | 00:00:00 | |
| DO3MHA-12 | 2026-08-31 03:16:55 | 47.42509 | 12.46058 | 77° | 73km/h | 15763m | 3.3m/s | -59.5°C | 8.1% | 0hPa | 2.6V | 00:00:00 | 01:30:51 | 00:00:00 | |
| OM5KV | 2026-08-31 03:16:54 | 47.42509 | 12.46058 | 78° | 73km/h | 15763m | 3.4m/s | 0°C | 0% | 0hPa | 2.6V | 00:00:00 | 00:00:00 | 00:00:00 | |
| OE5MMP-10 | 2026-08-31 03:16:53 | 47.42500 | 12.46005 | 76° | 73km/h | 15755m | 3.5m/s | -59.5°C | 8.2% | 0hPa | 2.6V | 00:00:00 | 01:30:49 | 00:00:00 | |
| DB0UT-7 | 2026-08-31 03:16:52 | 47.42495 | 12.45979 | 75° | 73km/h | 15751m | 4.5m/s | -59.5°C | 8.2% | 0hPa | 2.6V | 00:00:00 | 00:00:00 | 00:00:00 | |
| DG1MFX-10 | 2026-08-31 03:16:48 | 47.42479 | 12.45901 | 73° | 75km/h | 15739m | 3.6m/s | -59.5°C | 4.1% | 0hPa | 2.6V | 00:00:00 | 00:00:00 | 00:00:00 | |
| DB0NH | 2026-08-31 03:16:47 | 47.42468 | 12.45848 | 73° | 75km/h | 15731m | 4.5m/s | -59.5°C | 8.2% | 0hPa | 2.6V | 00:00:00 | 01:30:43 | 00:00:00 | |
| OM5KV | 2026-08-31 03:16:46 | 47.42468 | 12.45848 | 74° | 75km/h | 15731m | 4.5m/s | 0°C | 0% | 0hPa | 2.6V | 00:00:00 | 00:00:00 | 00:00:00 | |
| DO3MHA-11 | 2026-08-31 03:16:45 | 47.42458 | 12.45795 | 76° | 73km/h | 15723m | 4.3m/s | -59.4°C | 8.1% | 0hPa | 2.6V | 00:00:00 | 01:30:41 | 00:00:00 | |
| OE5MMP-10 | 2026-08-31 03:16:43 | 47.42448 | 12.45740 | 77° | 73km/h | 15715m | 4.2m/s | -59.4°C | 8.2% | 0hPa | 2.7V | 00:00:00 | 01:30:39 | 00:00:00 | |
| BAUMI2-15 | 2026-08-31 03:16:42 | 47.42444 | 12.45713 | 78° | 75km/h | 15710m | 4.0m/s | -59.4°C | 8.1% | 0hPa | 2.6V | 00:00:00 | 01:30:38 | 00:00:00 | |
| OE8JPQ-2 | 2026-08-31 03:16:40 | 47.42436 | 12.45658 | 78° | 78km/h | 15702m | 4.1m/s | 0°C | 0% | 0hPa | 2.7V | 00:00:00 | 01:30:36 | 00:00:00 | |
| OE5WHR-10 | 2026-08-31 03:16:39 | 47.42432 | 12.45631 | 78° | 75km/h | 15698m | 3.6m/s | -59.3°C | 8.1% | 0hPa | 2.7V | 00:00:00 | 00:00:00 | 08:30:00 | |
| BAUMI2-15 | 2026-08-31 03:16:37 | 47.42423 | 12.45580 | 76° | 71km/h | 15690m | 3.4m/s | -59.3°C | 8.1% | 0hPa | 2.6V | 00:00:00 | 01:30:33 | 00:00:00 | |
| DO3MHA-11 | 2026-08-31 03:16:35 | 47.42414 | 12.45530 | 75° | 73km/h | 15682m | 4.0m/s | -59.4°C | 8.2% | 0hPa | 2.6V | 00:00:00 | 01:30:31 | 00:00:00 | |
| DO3MHA-12 | 2026-08-31 03:16:34 | 47.42410 | 12.45504 | 76° | 75km/h | 15678m | 3.6m/s | -59.4°C | 8.2% | 0hPa | 2.6V | 00:00:00 | 01:30:30 | 00:00:00 | |
| OE5MMP-10 | 2026-08-31 03:16:33 | 47.42405 | 12.45478 | 77° | 75km/h | 15674m | 4.0m/s | -59.4°C | 8.2% | 0hPa | 2.6V | 00:00:00 | 01:30:29 | 00:00:00 | |
| BAUMI2-15 | 2026-08-31 03:16:32 | 47.42401 | 12.45451 | 78° | 75km/h | 15670m | 3.8m/s | -59.4°C | 8.1% | 0hPa | 2.6V | 00:00:00 | 01:30:28 | 00:00:00 | |
| DL6DJ-15 | 2026-08-31 03:16:31 | 47.42393 | 12.45398 | 76° | 75km/h | 15662m | 4.2m/s | -59.4°C | 3.9% | -1.0hPa | 2.6V | 00:00:00 | 00:00:00 | 00:00:00 | |
| DG1MFX-10 | 2026-08-31 03:16:28 | 47.42389 | 12.45370 | 77° | 77km/h | 15658m | 3.2m/s | -59.5°C | 4.2% | 0hPa | 2.6V | 00:00:00 | 00:00:00 | 00:00:00 | |
| OE3JTB-15 | 2026-08-31 03:16:27 | 47.42379 | 12.45316 | 76° | 77km/h | 15651m | 3.7m/s | -59.5°C | 8.2% | 0hPa | 2.6V | 00:00:00 | 00:00:00 | 00:00:00 | |
| DO3MHA-11 | 2026-08-31 03:16:25 | 47.42369 | 12.45263 | 73° | 77km/h | 15643m | 4.4m/s | -59.5°C | 8.3% | 0hPa | 2.6V | 00:00:00 | 01:30:21 | 00:00:00 | |
| DO3MHA-12 | 2026-08-31 03:16:24 | 47.42363 | 12.45236 | 73° | 77km/h | 15639m | 3.9m/s | -59.5°C | 8.3% | 0hPa | 2.6V | 00:00:00 | 01:30:20 | 00:00:00 | |
| OE5MMP-10 | 2026-08-31 03:16:23 | 47.42358 | 12.45210 | 73° | 77km/h | 15634m | 4.3m/s | -59.5°C | 8.2% | 0hPa | 2.6V | 00:00:00 | 01:30:19 | 00:00:00 | |
| BAUMI2-15 | 2026-08-31 03:16:22 | 47.42352 | 12.45184 | 74° | 77km/h | 15630m | 3.6m/s | -59.4°C | 8.3% | 0hPa | 2.6V | 00:00:00 | 01:30:18 | 00:00:00 | |
| OE5DRO-10 | 2026-08-31 03:16:20 | 47.42342 | 12.45130 | 74° | 77km/h | 15623m | 4.1m/s | -59.4°C | 8.3% | 0hPa | 2.6V | 00:00:00 | 00:00:00 | 00:00:00 | |
| BAUMI2-15 | 2026-08-31 03:16:17 | 47.42324 | 12.45047 | 73° | 77km/h | 15611m | 3.3m/s | -59.3°C | 8.2% | 0hPa | 2.6V | 00:00:00 | 01:30:13 | 00:00:00 | |
| OE5WHR-10 | 2026-08-31 03:16:15 | 47.42312 | 12.44993 | 71° | 77km/h | 15602m | 3.4m/s | -59.2°C | 8.2% | 0hPa | 2.6V | 00:00:00 | 00:00:00 | 00:00:00 | |
| DO3MHA-12 | 2026-08-31 03:16:14 | 47.42306 | 12.44966 | 71° | 75km/h | 15598m | 4.7m/s | -59.2°C | 8.1% | 0hPa | 2.6V | 00:00:00 | 01:30:10 | 00:00:00 | |
| OE5MMP-10 | 2026-08-31 03:16:13 | 47.42299 | 12.44940 | 71° | 77km/h | 15594m | 3.7m/s | -59.1°C | 8.1% | 0hPa | 2.6V | 00:00:00 | 01:30:09 | 08:30:00 | |
| BAUMI2-15 | 2026-08-31 03:16:12 | 47.42293 | 12.44913 | 71° | 77km/h | 15590m | 4.3m/s | -59.1°C | 8.0% | 0hPa | 2.6V | 00:00:00 | 01:30:08 | 08:30:00 | |
| IN3HCDX | 2026-08-31 03:16:11 | 47.42293 | 12.44913 | 72° | 77km/h | 15590m | 4.3m/s | -59.2°C | 4.1% | 0hPa | 2.6V | 00:00:00 | 00:00:00 | 00:00:00 | |
| BAUMI2-15 | 2026-08-31 03:16:07 | 47.42261 | 12.44777 | 71° | 78km/h | 15570m | 4.5m/s | -59.1°C | 8.0% | 0hPa | 2.6V | 00:00:00 | 01:30:03 | 00:00:00 | |
| DO3MHA-11 | 2026-08-31 03:16:05 | 47.42248 | 12.44723 | 72° | 77km/h | 15561m | 4.5m/s | -59.1°C | 7.9% | 0hPa | 2.6V | 00:00:00 | 01:30:01 | 00:00:00 | |
| OE5MMP-10 | 2026-08-31 03:16:03 | 47.42236 | 12.44668 | 71° | 77km/h | 15553m | 4.6m/s | -59.2°C | 8.0% | 0hPa | 2.6V | 00:00:00 | 01:29:59 | 00:00:00 | |
| BAUMI2-15 | 2026-08-31 03:16:02 | 47.42229 | 12.44640 | 72° | 77km/h | 15549m | 3.5m/s | -59.3°C | 8.1% | 0hPa | 2.6V | 00:00:00 | 01:29:58 | 00:00:00 | |
| DL6DJ-15 | 2026-08-31 03:15:59 | 47.42210 | 12.44559 | 69° | 73km/h | 15537m | 3.0m/s | -59.5°C | 3.8% | -1.0hPa | 2.6V | 00:00:00 | 00:00:00 | 00:00:00 | |
| OE3JTB-15 | 2026-08-31 03:15:58 | 47.42203 | 12.44533 | 69° | 78km/h | 15533m | 4.3m/s | -59.5°C | 8.2% | 0hPa | 2.6V | 00:00:00 | 01:29:54 | 00:00:00 | |
| BAUMI2-15 | 2026-08-31 03:15:57 | 47.42196 | 12.44508 | 68° | 77km/h | 15529m | 3.7m/s | -59.5°C | 8.1% | 0hPa | 2.6V | 00:00:00 | 01:29:53 | 00:00:00 | |
| DO3MHA-11 | 2026-08-31 03:15:55 | 47.42182 | 12.44455 | 70° | 80km/h | 15522m | 4.3m/s | -59.6°C | 8.2% | 0hPa | 2.6V | 00:00:00 | 01:29:51 | 00:00:00 | |
| OE5WHR-10 | 2026-08-31 03:15:53 | 47.42168 | 12.44401 | 70° | 78km/h | 15513m | 4.0m/s | -59.6°C | 8.2% | 0hPa | 2.6V | 00:00:00 | 01:29:49 | 00:00:00 | |
| OE5DXL-15 | 2026-08-31 03:15:52 | 47.42161 | 12.44374 | 69° | 77km/h | 15509m | 4.1m/s | -59.6°C | 8.2% | 0hPa | 2.6V | 00:00:00 | 00:00:00 | 00:00:00 | |
| IN3HCDX | 2026-08-31 03:15:50 | 47.42154 | 12.44346 | 71° | 80km/h | 15505m | 3.4m/s | -59.6°C | 4.1% | 0hPa | 2.6V | 00:00:00 | 00:00:00 | 00:00:00 | |
| OE5REO-15 | 2026-08-31 03:15:49 | 47.42147 | 12.44318 | 72° | 80km/h | 15502m | 4.5m/s | -59.6°C | 4.1% | 0hPa | 2.6V | 00:00:00 | 00:00:00 | 00:00:00 | |
| DB0NH | 2026-08-31 03:15:47 | 47.42127 | 12.44232 | 71° | 77km/h | 15489m | 3.5m/s | -59.4°C | 8.1% | 0hPa | 2.6V | 00:00:00 | 01:29:43 | 00:00:00 | |
| DG1MFX-10 | 2026-08-31 03:15:46 | 47.42126 | 12.44232 | 71° | 80km/h | 15489m | 3.5m/s | -59.5°C | 4.1% | 0hPa | 2.6V | 00:00:00 | 00:00:00 | 00:00:00 | |
| DO3MHA-11 | 2026-08-31 03:15:45 | 47.42113 | 12.44176 | 71° | 77km/h | 15481m | 3.6m/s | -59.4°C | 8.2% | 0hPa | 2.6V | 00:00:00 | 01:29:41 | 00:00:00 | |
| OE5MMP-10 | 2026-08-31 03:15:43 | 47.42100 | 12.44122 | 70° | 77km/h | 15473m | 4.4m/s | -59.5°C | 8.2% | 0hPa | 2.7V | 00:00:00 | 01:29:39 | 00:00:00 | |
| BAUMI2-15 | 2026-08-31 03:15:42 | 47.42093 | 12.44095 | 69° | 77km/h | 15469m | 3.0m/s | -59.5°C | 8.2% | 0hPa | 2.7V | 00:00:00 | 01:29:38 | 00:00:00 | |
| BAUMI2-15 | 2026-08-31 03:15:37 | 47.42061 | 12.43962 | 72° | 77km/h | 15450m | 3.6m/s | -59.5°C | 8.1% | 0hPa | 2.7V | 00:00:00 | 01:29:33 | 00:00:00 | |
| DO3MHA-11 | 2026-08-31 03:15:36 | 47.42049 | 12.43907 | 74° | 77km/h | 15441m | 3.8m/s | -59.4°C | 8.1% | 0hPa | 2.7V | 00:00:00 | 01:29:31 | 00:00:00 | |
| OE5MMP-10 | 2026-08-31 03:15:33 | 47.42038 | 12.43852 | 72° | 77km/h | 15434m | 4.2m/s | -59.4°C | 8.0% | 0hPa | 2.7V | 00:00:00 | 01:29:29 | 00:00:00 | |
| OE5WHR-10 | 2026-08-31 03:15:32 | 47.42031 | 12.43824 | 70° | 75km/h | 15430m | 3.3m/s | -59.4°C | 8.0% | 0hPa | 2.7V | 00:00:00 | 00:00:00 | 00:00:00 | |
| NBG1-10 | 2026-08-31 03:15:29 | 47.42010 | 12.43744 | 68° | 75km/h | 15417m | 3.7m/s | -59.3°C | 7.8% | 0hPa | 2.7V | 00:00:00 | 01:29:25 | 00:00:00 | |
| DL6DJ-15 | 2026-08-31 03:15:28 | 47.42003 | 12.43718 | 66° | 75km/h | 15413m | 4.5m/s | -59.4°C | 3.6% | -1.0hPa | 2.7V | 00:00:00 | 00:00:00 | 00:00:00 | |
| BAUMI2-15 | 2026-08-31 03:15:27 | 47.41995 | 12.43692 | 68° | 75km/h | 15409m | 3.1m/s | -59.3°C | 7.8% | 0hPa | 2.7V | 00:00:00 | 01:29:23 | 08:30:00 | |
| DG1MFX-10 | 2026-08-31 03:15:26 | 47.41995 | 12.43692 | 68° | 77km/h | 15409m | 3.1m/s | -59.3°C | 3.9% | 0hPa | 2.6V | 00:00:00 | 00:00:00 | 00:00:00 | |
| DO3MHA-11 | 2026-08-31 03:15:25 | 47.41982 | 12.43639 | 72° | 75km/h | 15402m | 3.3m/s | -59.2°C | 7.7% | 0hPa | 2.6V | 00:00:00 | 01:29:21 | 00:00:00 | |
| OE5MMP-10 | 2026-08-31 03:15:23 | 47.41971 | 12.43586 | 73° | 75km/h | 15394m | 4.3m/s | -59.2°C | 7.7% | 0hPa | 2.6V | 00:00:00 | 01:29:19 | 00:00:00 | |
| DB0UT-7 | 2026-08-31 03:15:22 | 47.41965 | 12.43558 | 74° | 77km/h | 15390m | 3.6m/s | -59.1°C | 7.7% | 0hPa | 2.6V | 00:00:00 | 01:29:18 | 00:00:00 | |
| OE5REO-15 | 2026-08-31 03:15:18 | 47.41949 | 12.43476 | 74° | 77km/h | 15377m | 4.7m/s | -59.1°C | 3.8% | 0hPa | 2.6V | 00:00:00 | 00:00:00 | 00:00:00 | |
| DB0NH | 2026-08-31 03:15:17 | 47.41937 | 12.43423 | 71° | 77km/h | 15369m | 4.1m/s | -59.0°C | 7.5% | 0hPa | 2.6V | 00:00:00 | 01:29:13 | 00:00:00 | |
| DO3MHA-11 | 2026-08-31 03:15:15 | 47.41925 | 12.43372 | 72° | 75km/h | 15360m | 3.3m/s | -59.0°C | 7.6% | 0hPa | 2.7V | 00:00:00 | 01:29:11 | 00:00:00 | |
| DO3MHA-12 | 2026-08-31 03:15:14 | 47.41919 | 12.43347 | 71° | 77km/h | 15356m | 4.2m/s | -59.0°C | 7.5% | 0hPa | 2.6V | 00:00:00 | 01:29:10 | 00:00:00 | |
| BAUMI2-15 | 2026-08-31 03:15:12 | 47.41907 | 12.43295 | 72° | 77km/h | 15348m | 4.0m/s | -58.9°C | 7.5% | 0hPa | 2.6V | 00:00:00 | 01:29:08 | 00:00:00 | |
| OE5WHR-10 | 2026-08-31 03:15:11 | 47.41902 | 12.43269 | 74° | 80km/h | 15344m | 4.3m/s | -58.9°C | 7.5% | 0hPa | 2.7V | 00:00:00 | 00:00:00 | 00:00:00 | |
| PG1ADW-2 | 2026-08-31 03:15:09 | 47.41892 | 12.43214 | 76° | 77km/h | 15336m | 4.7m/s | -58.8°C | 7.4% | 0hPa | 2.7V | 00:00:00 | 00:00:00 | 00:00:00 | |
| OE5HKT-10 | 2026-08-31 03:15:08 | 47.41886 | 12.43186 | 75° | 78km/h | 15331m | 3.3m/s | 0°C | 0% | 0hPa | 2.6V | 00:00:00 | 00:00:00 | 08:30:00 | |
| BAUMI2-15 | 2026-08-31 03:15:07 | 47.41881 | 12.43157 | 75° | 77km/h | 15328m | 3.6m/s | -58.9°C | 7.4% | 0hPa | 2.6V | 00:00:00 | 01:29:03 | 00:00:00 | |
| DG1MFX-10 | 2026-08-31 03:15:06 | 47.41881 | 12.43157 | 76° | 78km/h | 15328m | 3.7m/s | -58.9°C | 3.6% | 0hPa | 2.6V | 00:00:00 | 00:00:00 | 00:00:00 | |
| DO3MHA-11 | 2026-08-31 03:15:05 | 47.41872 | 12.43101 | 78° | 77km/h | 15320m | 3.3m/s | -59.1°C | 7.5% | 0hPa | 2.6V | 00:00:00 | 01:29:01 | 00:00:00 | |
| DO3MHA-12 | 2026-08-31 03:15:04 | 47.41867 | 12.43073 | 77° | 77km/h | 15316m | 4.0m/s | -59.1°C | 7.6% | 0hPa | 2.6V | 00:00:00 | 01:29:00 | 00:00:00 | |
| OE5MMP-10 | 2026-08-31 03:15:03 | 47.41863 | 12.43045 | 76° | 77km/h | 15312m | 3.8m/s | -59.1°C | 7.6% | 0hPa | 2.6V | 00:00:00 | 01:28:59 | 00:00:00 | |
| BAUMI2-15 | 2026-08-31 03:15:02 | 47.41858 | 12.43018 | 76° | 75km/h | 15308m | 3.2m/s | -59.1°C | 7.6% | 0hPa | 2.6V | 00:00:00 | 01:28:58 | 00:00:00 | |
| OE3JTB-15 | 2026-08-31 03:15:00 | 47.41849 | 12.42964 | 78° | 80km/h | 15300m | 3.9m/s | -59.1°C | 7.6% | 0hPa | 2.6V | 00:00:00 | 00:00:00 | 00:00:00 | |
| BAUMI2-15 | 2026-08-31 03:14:57 | 47.41837 | 12.42883 | 78° | 78km/h | 15288m | 3.4m/s | -59.1°C | 7.7% | 0hPa | 2.6V | 00:00:00 | 01:28:53 | 00:00:00 | |
| NBG1-10 | 2026-08-31 03:14:56 | 47.41833 | 12.42856 | 79° | 80km/h | 15284m | 4.1m/s | -59.1°C | 7.6% | 0hPa | 2.6V | 00:00:00 | 01:28:52 | 00:00:00 | |
| DO3MHA-11 | 2026-08-31 03:14:55 | 47.41830 | 12.42827 | 80° | 80km/h | 15281m | 3.6m/s | -59.1°C | 7.7% | 0hPa | 2.6V | 00:00:00 | 01:28:51 | 00:00:00 | |
| OE5MMP-10 | 2026-08-31 03:14:53 | 47.41822 | 12.42769 | 79° | 80km/h | 15273m | 4.3m/s | -59.1°C | 7.6% | 0hPa | 2.6V | 00:00:00 | 01:28:49 | 00:00:00 | |
| DB0UT-7 | 2026-08-31 03:14:52 | 47.41817 | 12.42740 | 77° | 80km/h | 15269m | 3.7m/s | -59.1°C | 7.6% | 0hPa | 2.6V | 00:00:00 | 00:00:00 | 00:00:00 | |
| PG1ADW-2 | 2026-08-31 03:14:49 | 47.41803 | 12.42651 | 77° | 82km/h | 15256m | 4.2m/s | -59.2°C | 7.7% | 0hPa | 2.6V | 00:00:00 | 01:28:45 | 00:00:00 | |
| IN3HCDX | 2026-08-31 03:14:48 | 47.41803 | 12.42651 | 78° | 80km/h | 15256m | 4.3m/s | -59.3°C | 3.7% | 0hPa | 2.6V | 00:00:00 | 00:00:00 | 00:00:00 | |
| DB0NH | 2026-08-31 03:14:47 | 47.41793 | 12.42593 | 76° | 80km/h | 15248m | 4.1m/s | -59.2°C | 7.6% | 0hPa | 2.6V | 00:00:00 | 01:28:43 | 00:00:00 | |
| OE5HKT-10 | 2026-08-31 03:14:46 | 47.41789 | 12.42563 | 78° | 80km/h | 15244m | 4.4m/s | 0°C | 0% | 0hPa | 2.6V | 00:00:00 | 00:00:00 | 00:00:00 | |
| DO3MHA-11 | 2026-08-31 03:14:45 | 47.41784 | 12.42534 | 78° | 80km/h | 15240m | 2.7m/s | -59.2°C | 7.6% | 0hPa | 2.6V | 00:00:00 | 01:28:41 | 08:30:00 | |
| OE5MMP-10 | 2026-08-31 03:14:43 | 47.41775 | 12.42476 | 75° | 82km/h | 15232m | 4.0m/s | -59.2°C | 7.7% | 0hPa | 2.7V | 00:00:00 | 01:28:39 | 08:30:00 | |
| DO3MHA-11 | 2026-08-31 03:14:35 | 47.41726 | 12.42246 | 74° | 82km/h | 15200m | 2.9m/s | -59.0°C | 7.7% | 0hPa | 2.7V | 00:00:00 | 01:28:31 | 00:00:00 | |
| OE5MMP-10 | 2026-08-31 03:14:33 | 47.41713 | 12.42186 | 72° | 78km/h | 15192m | 3.9m/s | -59.0°C | 7.7% | 0hPa | 2.7V | 00:00:00 | 01:28:29 | 00:00:00 | |
| OE5REO-15 | 2026-08-31 03:14:32 | 47.41713 | 12.42186 | 72° | 84km/h | 15192m | 3.9m/s | -59.0°C | 3.8% | 0hPa | 2.7V | 00:00:00 | 00:00:00 | 00:00:00 | |
| OE3JTB-15 | 2026-08-31 03:14:31 | 47.41698 | 12.42127 | 70° | 80km/h | 15185m | 4.2m/s | -59.0°C | 7.6% | 0hPa | 2.7V | 00:00:00 | 01:28:27 | 00:00:00 | |
| PG1ADW-2 | 2026-08-31 03:14:29 | 47.41685 | 12.42071 | 71° | 78km/h | 15178m | 3.3m/s | -59.0°C | 7.7% | 0hPa | 2.7V | 00:00:00 | 00:00:00 | 00:00:00 | |
| OE8JPQ-2 | 2026-08-31 03:14:27 | 47.41671 | 12.42016 | 69° | 78km/h | 15170m | 3.2m/s | 0°C | 0% | 0hPa | 2.7V | 00:00:00 | 00:00:00 | 00:00:00 | |
| OE5DRO-10 | 2026-08-31 03:14:26 | 47.41664 | 12.41989 | 69° | 80km/h | 15167m | 3.1m/s | -58.9°C | 7.6% | 0hPa | 2.7V | 00:00:00 | 00:00:00 | 00:00:00 | |
| DO3MHA-11 | 2026-08-31 03:14:25 | 47.41657 | 12.41962 | 70° | 80km/h | 15163m | 4.0m/s | -58.8°C | 7.6% | 0hPa | 2.7V | 00:00:00 | 01:28:21 | 00:00:00 | |
| DG1MFX-10 | 2026-08-31 03:14:24 | 47.41657 | 12.41962 | 70° | 75km/h | 15163m | 4.1m/s | -58.9°C | 3.8% | 0hPa | 2.7V | 00:00:00 | 00:00:00 | 00:00:00 | |
| DO3MHA-12 | 2026-08-31 03:14:23 | 47.41644 | 12.41910 | 72° | 80km/h | 15156m | 3.4m/s | -58.8°C | 7.7% | 0hPa | 2.7V | 00:00:00 | 01:28:19 | 00:00:00 | |
| OE5DXL-15 | 2026-08-31 03:14:22 | 47.41638 | 12.41882 | 71° | 82km/h | 15153m | 3.6m/s | -58.8°C | 7.7% | 0hPa | 2.7V | 00:00:00 | 00:00:00 | 00:00:00 | |
| OE5HKT-10 | 2026-08-31 03:14:18 | 47.41612 | 12.41769 | 73° | 82km/h | 15139m | 3.2m/s | 0°C | 0% | 0hPa | 2.7V | 00:00:00 | 01:28:14 | 00:00:00 | |
| DB0NH | 2026-08-31 03:14:17 | 47.41606 | 12.41740 | 72° | 82km/h | 15135m | 4.2m/s | -58.8°C | 7.7% | 0hPa | 2.7V | 00:00:00 | 01:28:13 | 00:00:00 | |
| OE5REO-15 | 2026-08-31 03:14:16 | 47.41606 | 12.41740 | 73° | 82km/h | 15135m | 4.2m/s | -58.8°C | 3.9% | 0hPa | 2.7V | 00:00:00 | 00:00:00 | 00:00:00 | |
| DO3MHA-11 | 2026-08-31 03:14:14 | 47.41587 | 12.41653 | 74° | 82km/h | 15123m | 3.3m/s | -58.7°C | 7.6% | 0hPa | 2.7V | 00:00:00 | 01:28:10 | 00:00:00 | |
| OE5MMP-10 | 2026-08-31 03:14:13 | 47.41581 | 12.41625 | 73° | 82km/h | 15120m | 3.6m/s | -58.7°C | 7.7% | 0hPa | 2.6V | 00:00:00 | 01:28:09 | 00:00:00 | |
| PG1ADW-2 | 2026-08-31 03:14:09 | 47.41555 | 12.41514 | 72° | 84km/h | 15106m | 3.5m/s | -58.9°C | 7.8% | 0hPa | 2.7V | 00:00:00 | 00:00:00 | 00:00:00 | |
| OE5DRO-10 | 2026-08-31 03:14:07 | 47.41541 | 12.41454 | 71° | 84km/h | 15098m | 4.1m/s | -58.8°C | 7.9% | 0hPa | 2.6V | 00:00:00 | 00:00:00 | 00:00:00 | |
| IN3HCDX | 2026-08-31 03:14:06 | 47.41541 | 12.41454 | 72° | 88km/h | 15098m | 4.2m/s | -58.9°C | 4.0% | 0hPa | 2.6V | 00:00:00 | 00:00:00 | 00:00:00 | |
| DO3MHA-11 | 2026-08-31 03:14:04 | 47.41520 | 12.41362 | 73° | 82km/h | 15087m | 3.2m/s | -58.8°C | 7.9% | 0hPa | 2.6V | 00:00:00 | 01:28:00 | 00:00:00 | |
| OE3JTB-15 | 2026-08-31 03:14:02 | 47.41506 | 12.41304 | 71° | 84km/h | 15080m | 3.8m/s | -58.8°C | 7.9% | 0hPa | 2.6V | 00:00:00 | 00:00:00 | 08:30:00 | |
| DL6DJ-15 | 2026-08-31 03:13:55 | 47.41454 | 12.41105 | 69° | 86km/h | 15055m | 4.0m/s | -58.8°C | 3.9% | -1.0hPa | 2.7V | 00:00:00 | 00:00:00 | 00:00:00 | |
| DO3MHA-11 | 2026-08-31 03:13:54 | 47.41447 | 12.41075 | 70° | 84km/h | 15052m | 3.3m/s | -58.7°C | 7.9% | 0hPa | 2.7V | 00:00:00 | 01:27:50 | 00:00:00 | |
| OE5MMP-10 | 2026-08-31 03:13:53 | 47.41439 | 12.41046 | 69° | 84km/h | 15048m | 3.9m/s | -58.7°C | 8.0% | 0hPa | 2.7V | 00:00:00 | 01:27:49 | 00:00:00 | |
| OE5DXL-15 | 2026-08-31 03:13:52 | 47.41431 | 12.41017 | 67° | 86km/h | 15044m | 4.2m/s | -58.7°C | 8.0% | 0hPa | 2.7V | 00:00:00 | 00:00:00 | 00:00:00 | |
| NBG1-10 | 2026-08-31 03:13:50 | 47.41414 | 12.40960 | 68° | 86km/h | 15035m | 4.2m/s | -58.7°C | 7.9% | 0hPa | 2.7V | 00:00:00 | 01:27:46 | 00:00:00 | |
| PG1ADW-2 | 2026-08-31 03:13:49 | 47.41406 | 12.40932 | 68° | 84km/h | 15032m | 3.6m/s | -58.8°C | 8.0% | 0hPa | 2.7V | 00:00:00 | 00:00:00 | 00:00:00 | |
| OE5DRO-10 | 2026-08-31 03:13:48 | 47.41398 | 12.40903 | 67° | 84km/h | 15028m | 3.9m/s | -59.0°C | 8.3% | 0hPa | 2.7V | 00:00:00 | 00:00:00 | 00:00:00 | |
| DB0NH | 2026-08-31 03:13:47 | 47.41389 | 12.40875 | 65° | 86km/h | 15024m | 3.8m/s | -59.1°C | 8.3% | 0hPa | 2.7V | 00:00:00 | 01:27:43 | 08:30:00 | |
| IN3HCDX | 2026-08-31 03:13:45 | 47.41380 | 12.40846 | 66° | 84km/h | 15020m | 3.6m/s | -59.1°C | 4.3% | 0hPa | 2.6V | 00:00:00 | 00:00:00 | 00:00:00 | |
| DO3MHA-11 | 2026-08-31 03:13:44 | 47.41362 | 12.40789 | 66° | 84km/h | 15012m | 2.9m/s | -59.0°C | 8.2% | 0hPa | 2.6V | 00:00:00 | 01:27:40 | 00:00:00 | |
| OE5MMP-10 | 2026-08-31 03:13:43 | 47.41353 | 12.40762 | 65° | 86km/h | 15009m | 4.2m/s | -59.0°C | 8.2% | 0hPa | 2.6V | 00:00:00 | 01:27:39 | 00:00:00 | |
| OE5HKT-10 | 2026-08-31 03:13:35 | 47.41277 | 12.40535 | 67° | 88km/h | 14979m | 3.3m/s | 0°C | 0% | 0hPa | 2.7V | 00:00:00 | 00:00:00 | 00:00:00 | |
| DO3MHA-12 | 2026-08-31 03:13:34 | 47.41259 | 12.40476 | 67° | 86km/h | 14972m | 3.9m/s | -59.4°C | 8.3% | 0hPa | 2.7V | 00:00:00 | 01:27:29 | 00:00:00 | |
| OE5MMP-10 | 2026-08-31 03:13:33 | 47.41259 | 12.40476 | 67° | 86km/h | 14972m | 3.9m/s | -59.4°C | 8.3% | 0hPa | 2.7V | 00:00:00 | 01:27:29 | 00:00:00 | |
| OE5DRO-10 | 2026-08-31 03:13:29 | 47.41226 | 12.40361 | 69° | 88km/h | 14958m | 2.6m/s | -59.6°C | 8.4% | 0hPa | 2.7V | 00:00:00 | 00:00:00 | 00:00:00 | |
| OE5REO-15 | 2026-08-31 03:13:28 | 47.41226 | 12.40361 | 70° | 84km/h | 14958m | 2.7m/s | -59.6°C | 0% | 0hPa | 2.7V | 00:00:00 | 00:00:00 | 00:00:00 | |
| DO3MHA-11 | 2026-08-31 03:13:24 | 47.41186 | 12.40211 | 70° | 89km/h | 14940m | 3.0m/s | -59.6°C | 8.5% | 0hPa | 2.7V | 00:00:00 | 01:27:20 | 00:00:00 | |
| OE5MMP-10 | 2026-08-31 03:13:23 | 47.41177 | 12.40180 | 69° | 89km/h | 14937m | 3.6m/s | -59.6°C | 8.5% | 0hPa | 2.7V | 00:00:00 | 01:27:19 | 00:00:00 | |
| DB0UT-7 | 2026-08-31 03:13:22 | 47.41169 | 12.40150 | 67° | 86km/h | 14933m | 3.5m/s | -59.6°C | 8.6% | 0hPa | 2.7V | 00:00:00 | 01:27:18 | 00:00:00 | |
| DB0NH | 2026-08-31 03:13:17 | 47.41125 | 12.39997 | 68° | 84km/h | 14915m | 3.5m/s | -59.5°C | 8.4% | 0hPa | 2.7V | 00:00:00 | 01:27:13 | 00:00:00 | |
| DO3MHA-11 | 2026-08-31 03:13:15 | 47.41100 | 12.39903 | 69° | 84km/h | 14904m | 3.0m/s | -59.4°C | 8.4% | 0hPa | 2.7V | 00:00:00 | 01:27:10 | 08:30:00 | |
| OE5HKT-10 | 2026-08-31 03:13:14 | 47.41100 | 12.39903 | 69° | 84km/h | 14904m | 3.0m/s | 0°C | 0% | 0hPa | 2.6V | 00:00:00 | 01:27:10 | 00:00:00 | |
| OE5MMP-10 | 2026-08-31 03:13:13 | 47.41092 | 12.39872 | 67° | 84km/h | 14901m | 3.8m/s | -59.4°C | 8.4% | 0hPa | 2.6V | 00:00:00 | 01:27:09 | 08:30:00 | |
| OE5DRO-10 | 2026-08-31 03:13:10 | 47.41064 | 12.39787 | 65° | 82km/h | 14890m | 4.0m/s | -59.4°C | 8.4% | 0hPa | 2.7V | 00:00:00 | 00:00:00 | 00:00:00 | |
| PG1ADW-2 | 2026-08-31 03:13:09 | 47.41056 | 12.39760 | 65° | 82km/h | 14886m | 3.4m/s | -59.4°C | 8.4% | 0hPa | 2.7V | 00:00:00 | 00:00:00 | 08:30:00 | |
| OE3JTB-15 | 2026-08-31 03:13:04 | 47.41014 | 12.39619 | 68° | 78km/h | 14868m | 3.8m/s | -59.3°C | 8.3% | 0hPa | 2.6V | 00:00:00 | 01:27:00 | 00:00:00 | |
| OE5MMP-10 | 2026-08-31 03:13:03 | 47.41006 | 12.39590 | 68° | 84km/h | 14864m | 3.7m/s | -59.3°C | 8.4% | 0hPa | 2.6V | 00:00:00 | 01:26:59 | 00:00:00 | |
| DG1MFX-10 | 2026-08-31 03:13:02 | 47.41006 | 12.39590 | 68° | 84km/h | 14864m | 3.8m/s | -59.4°C | 4.4% | 0hPa | 2.6V | 00:00:00 | 00:00:00 | 00:00:00 | |
| OE5WHR-10 | 2026-08-31 03:12:57 | 47.40958 | 12.39416 | 69° | 78km/h | 14842m | 3.6m/s | -59.2°C | 8.2% | 0hPa | 2.6V | 00:00:00 | 01:26:53 | 00:00:00 | |
| OE5REO-15 | 2026-08-31 03:12:56 | 47.40958 | 12.39417 | 69° | 84km/h | 14842m | 3.7m/s | -59.3°C | 0% | 0hPa | 2.6V | 00:00:00 | 00:00:00 | 00:00:00 | |
| DO3MHA-11 | 2026-08-31 03:12:54 | 47.40934 | 12.39330 | 68° | 78km/h | 14831m | 4.1m/s | -59.2°C | 8.3% | 0hPa | 2.6V | 00:00:00 | 01:26:50 | 00:00:00 | |
| OE5MMP-10 | 2026-08-31 03:12:53 | 47.40926 | 12.39303 | 66° | 77km/h | 14828m | 3.3m/s | -59.2°C | 8.3% | 0hPa | 2.6V | 00:00:00 | 01:26:49 | 00:00:00 | |
| DB0UT-7 | 2026-08-31 03:12:52 | 47.40918 | 12.39275 | 67° | 73km/h | 14824m | 3.5m/s | -59.1°C | 8.4% | 0hPa | 2.6V | 00:00:00 | 00:00:00 | 08:30:00 | |
| OE5DRO-10 | 2026-08-31 03:12:51 | 47.40910 | 12.39249 | 68° | 75km/h | 14821m | 3.9m/s | -59.1°C | 8.3% | 0hPa | 2.6V | 00:00:00 | 00:00:00 | 08:30:00 | |
| PG1ADW-2 | 2026-08-31 03:12:49 | 47.40896 | 12.39197 | 68° | 73km/h | 14813m | 4.4m/s | -59.1°C | 8.2% | 0hPa | 2.6V | 00:00:00 | 00:00:00 | 00:00:00 | |
| BAUMI2-15 | 2026-08-31 03:12:47 | 47.40881 | 12.39144 | 69° | 77km/h | 14805m | 4.7m/s | -59.0°C | 8.2% | 0hPa | 2.6V | 00:00:00 | 01:26:43 | 00:00:00 | |
| NBG1-10 | 2026-08-31 03:12:44 | 47.40860 | 12.39063 | 69° | 69km/h | 14793m | 3.3m/s | -59.0°C | 8.3% | 0hPa | 2.6V | 00:00:00 | 01:26:40 | 00:00:00 | |
| OE5MMP-10 | 2026-08-31 03:12:43 | 47.40853 | 12.39036 | 69° | 73km/h | 14789m | 3.8m/s | -59.0°C | 8.2% | 0hPa | 2.7V | 00:00:00 | 01:26:39 | 00:00:00 | |
| BAUMI2-15 | 2026-08-31 03:12:42 | 47.40846 | 12.39010 | 69° | 75km/h | 14785m | 3.6m/s | -58.9°C | 8.3% | 0hPa | 2.7V | 00:00:00 | 01:26:38 | 08:30:00 | |
| OE5REO-15 | 2026-08-31 03:12:40 | 47.40839 | 12.38983 | 69° | 77km/h | 14782m | 3.0m/s | 0°C | 0% | 0hPa | 2.6V | 00:00:00 | 00:00:00 | 00:00:00 | |
| BAUMI2-15 | 2026-08-31 03:12:37 | 47.40809 | 12.38881 | 69° | 69km/h | 14767m | 3.9m/s | -58.8°C | 8.3% | 0hPa | 2.6V | 00:00:00 | 01:26:33 | 00:00:00 | |
| OE5WHR-10 | 2026-08-31 03:12:36 | 47.40803 | 12.38857 | 71° | 68km/h | 14763m | 3.1m/s | -58.8°C | 8.3% | 0hPa | 2.6V | 00:00:00 | 00:00:00 | 00:00:00 | |
| OE3JTB-15 | 2026-08-31 03:12:35 | 47.40797 | 12.38833 | 69° | 68km/h | 14759m | 4.5m/s | -58.8°C | 8.3% | 0hPa | 2.6V | 00:00:00 | 00:00:00 | 00:00:00 | |
| DO3MHA-12 | 2026-08-31 03:12:34 | 47.40784 | 12.38786 | 70° | 69km/h | 14751m | 2.9m/s | -58.7°C | 8.2% | 0hPa | 2.7V | 00:00:00 | 01:26:29 | 00:00:00 | |
| OE5MMP-10 | 2026-08-31 03:12:33 | 47.40784 | 12.38786 | 70° | 69km/h | 14751m | 2.9m/s | -58.7°C | 8.2% | 0hPa | 2.7V | 00:00:00 | 01:26:29 | 00:00:00 | |
| BAUMI2-15 | 2026-08-31 03:12:32 | 47.40779 | 12.38762 | 71° | 69km/h | 14748m | 3.5m/s | -58.7°C | 8.2% | 0hPa | 2.7V | 00:00:00 | 01:26:28 | 00:00:00 | |
| PG1ADW-2 | 2026-08-31 03:12:29 | 47.40760 | 12.38690 | 67° | 68km/h | 14736m | 3.0m/s | -58.6°C | 8.2% | 0hPa | 2.7V | 00:00:00 | 00:00:00 | 00:00:00 | |
| BAUMI2-15 | 2026-08-31 03:12:27 | 47.40745 | 12.38643 | 67° | 69km/h | 14729m | 3.7m/s | -58.6°C | 8.2% | 0hPa | 2.7V | 00:00:00 | 01:26:23 | 00:00:00 | |
| DO3MHA-11 | 2026-08-31 03:12:25 | 47.40724 | 12.38573 | 67° | 68km/h | 14717m | 3.4m/s | -58.5°C | 8.2% | 0hPa | 2.6V | 00:00:00 | 01:26:20 | 00:00:00 | |
| DO3MHA-12 | 2026-08-31 03:12:24 | 47.40718 | 12.38549 | 68° | 68km/h | 14713m | 3.6m/s | -58.5°C | 8.2% | 0hPa | 2.6V | 00:00:00 | 01:26:19 | 00:00:00 | |
| OE5MMP-10 | 2026-08-31 03:12:23 | 47.40718 | 12.38549 | 68° | 68km/h | 14713m | 3.6m/s | -58.5°C | 8.2% | 0hPa | 2.6V | 00:00:00 | 01:26:19 | 00:00:00 | |
| BAUMI2-15 | 2026-08-31 03:12:22 | 47.40711 | 12.38526 | 69° | 66km/h | 14710m | 2.9m/s | -58.4°C | 8.1% | 0hPa | 2.6V | 00:00:00 | 01:26:18 | 00:00:00 | |
| DB0NH | 2026-08-31 03:12:17 | 47.40678 | 12.38412 | 67° | 66km/h | 14691m | 3.4m/s | -58.4°C | 8.2% | 0hPa | 2.6V | 00:00:00 | 01:26:13 | 00:00:00 | |
| OE5WHR-10 | 2026-08-31 03:12:15 | 47.40664 | 12.38367 | 67° | 66km/h | 14684m | 2.9m/s | -58.3°C | 8.2% | 0hPa | 2.6V | 00:00:00 | 00:00:00 | 00:00:00 | |
| DO3MHA-11 | 2026-08-31 03:12:14 | 47.40657 | 12.38344 | 68° | 66km/h | 14681m | 3.9m/s | -58.3°C | 8.2% | 0hPa | 2.6V | 00:00:00 | 01:26:10 | 00:00:00 | |
| BAUMI2-15 | 2026-08-31 03:12:12 | 47.40645 | 12.38299 | 69° | 68km/h | 14673m | 3.8m/s | -58.2°C | 8.1% | 0hPa | 2.6V | 00:00:00 | 01:26:08 | 00:00:00 | |
| NBG1-10 | 2026-08-31 03:12:11 | 47.40639 | 12.38276 | 69° | 66km/h | 14670m | 3.2m/s | -58.2°C | 8.1% | 0hPa | 2.6V | 00:00:00 | 01:26:07 | 00:00:00 | |
| PG1ADW-2 | 2026-08-31 03:12:09 | 47.40626 | 12.38229 | 69° | 66km/h | 14662m | 3.1m/s | -58.2°C | 8.2% | 0hPa | 2.6V | 00:00:00 | 01:26:05 | 00:00:00 | |
| BAUMI2-15 | 2026-08-31 03:12:07 | 47.40614 | 12.38181 | 70° | 64km/h | 14655m | 4.0m/s | -58.1°C | 8.2% | 0hPa | 2.7V | 00:00:00 | 01:26:03 | 00:00:00 | |
| OE3JTB-15 | 2026-08-31 03:12:06 | 47.40608 | 12.38159 | 70° | 66km/h | 14651m | 3.0m/s | -58.1°C | 8.1% | 0hPa | 2.7V | 00:00:00 | 00:00:00 | 00:00:00 | |
| DO3MHA-11 | 2026-08-31 03:12:04 | 47.40597 | 12.38115 | 72° | 66km/h | 14644m | 4.0m/s | -58.0°C | 8.1% | 0hPa | 2.7V | 00:00:00 | 01:26:00 | 00:00:00 | |
| OE5MMP-10 | 2026-08-31 03:12:03 | 47.40592 | 12.38092 | 72° | 66km/h | 14641m | 3.4m/s | -58.0°C | 8.1% | 0hPa | 2.7V | 00:00:00 | 01:25:59 | 00:00:00 | |
| BAUMI2-15 | 2026-08-31 03:12:02 | 47.40587 | 12.38069 | 72° | 66km/h | 14637m | 3.1m/s | -58.0°C | 8.1% | 0hPa | 2.7V | 00:00:00 | 01:25:58 | 00:00:00 | |
| DG1MFX-10 | 2026-08-31 03:12:01 | 47.40587 | 12.38069 | 72° | 66km/h | 14637m | 3.2m/s | -58.1°C | 4.3% | 0hPa | 2.7V | 00:00:00 | 00:00:00 | 00:00:00 | |
| DL6DJ-15 | 2026-08-31 03:11:51 | 47.40530 | 12.37809 | 71° | 66km/h | 14597m | 3.7m/s | -57.9°C | 4.1% | -1.0hPa | 2.7V | 00:00:00 | 00:00:00 | 00:00:00 | |
| PG1ADW-2 | 2026-08-31 03:11:49 | 47.40519 | 12.37762 | 72° | 62km/h | 14590m | 4.5m/s | -57.8°C | 8.1% | 0hPa | 2.7V | 00:00:00 | 00:00:00 | 00:00:00 | |
| DB0NH | 2026-08-31 03:11:47 | 47.40509 | 12.37715 | 74° | 62km/h | 14583m | 3.4m/s | -57.8°C | 8.1% | 0hPa | 2.7V | 00:00:00 | 01:25:43 | 00:00:00 | |
| DO3MHA-11 | 2026-08-31 03:11:44 | 47.40495 | 12.37647 | 74° | 62km/h | 14571m | 4.1m/s | -57.9°C | 8.1% | 0hPa | 2.7V | 00:00:00 | 01:25:40 | 08:30:00 | |
| DO3MHA-12 | 2026-08-31 03:11:43 | 47.40491 | 12.37625 | 75° | 62km/h | 14568m | 2.7m/s | -57.8°C | 8.2% | 0hPa | 2.6V | 00:00:00 | 01:25:39 | 08:30:00 | |
| BAUMI2-15 | 2026-08-31 03:11:42 | 47.40486 | 12.37602 | 73° | 62km/h | 14564m | 4.3m/s | -57.8°C | 8.2% | 0hPa | 2.6V | 00:00:00 | 01:25:38 | 00:00:00 | |
| DG1MFX-10 | 2026-08-31 03:11:41 | 47.40486 | 12.37602 | 74° | 64km/h | 14564m | 4.3m/s | -57.9°C | 4.5% | 0hPa | 2.6V | 00:00:00 | 00:00:00 | 00:00:00 | |
| IN3HCDX | 2026-08-31 03:11:40 | 47.40482 | 12.37580 | 73° | 62km/h | 14560m | 3.5m/s | -57.9°C | 4.4% | 0hPa | 2.6V | 00:00:00 | 00:00:00 | 00:00:00 | |
| NBG1-10 | 2026-08-31 03:11:38 | 47.40467 | 12.37514 | 72° | 64km/h | 14549m | 3.2m/s | -57.7°C | 8.2% | 0hPa | 2.6V | 00:00:00 | 01:25:34 | 00:00:00 | |
| BAUMI2-15 | 2026-08-31 03:11:37 | 47.40462 | 12.37491 | 73° | 62km/h | 14545m | 3.9m/s | -57.7°C | 8.2% | 0hPa | 2.6V | 00:00:00 | 01:25:33 | 00:00:00 | |
| OE5DRO-10 | 2026-08-31 03:11:35 | 47.40453 | 12.37448 | 73° | 62km/h | 14538m | 3.2m/s | -57.7°C | 8.2% | 0hPa | 2.6V | 00:00:00 | 00:00:00 | 00:00:00 | |
| DO3MHA-11 | 2026-08-31 03:11:34 | 47.40448 | 12.37426 | 74° | 62km/h | 14534m | 4.1m/s | -57.7°C | 8.3% | 0hPa | 2.6V | 00:00:00 | 01:25:30 | 00:00:00 | |
| OE5MMP-10 | 2026-08-31 03:11:33 | 47.40444 | 12.37404 | 74° | 62km/h | 14530m | 3.3m/s | -57.7°C | 8.4% | 0hPa | 2.6V | 00:00:00 | 01:25:29 | 00:00:00 | |
| BAUMI2-15 | 2026-08-31 03:11:32 | 47.40440 | 12.37382 | 74° | 62km/h | 14526m | 4.6m/s | -57.7°C | 8.4% | 0hPa | 2.6V | 00:00:00 | 01:25:28 | 00:00:00 | |
| PG1ADW-2 | 2026-08-31 03:11:29 | 47.40427 | 12.37316 | 76° | 64km/h | 14515m | 3.6m/s | -57.8°C | 8.7% | 0hPa | 2.6V | 00:00:00 | 00:00:00 | 00:00:00 | |
| BAUMI2-15 | 2026-08-31 03:11:27 | 47.40419 | 12.37269 | 76° | 62km/h | 14508m | 4.2m/s | -57.9°C | 8.8% | 0hPa | 2.6V | 00:00:00 | 01:25:23 | 00:00:00 | |
| DO3MHA-11 | 2026-08-31 03:11:24 | 47.40409 | 12.37202 | 80° | 64km/h | 14497m | 4.2m/s | -57.9°C | 8.8% | 0hPa | 2.6V | 00:00:00 | 01:25:20 | 00:00:00 | |
| OE5MMP-10 | 2026-08-31 03:11:23 | 47.40406 | 12.37180 | 80° | 64km/h | 14493m | 3.2m/s | -57.8°C | 8.9% | 0hPa | 2.6V | 00:00:00 | 01:25:19 | 00:00:00 | |
| DB0UT-7 | 2026-08-31 03:11:22 | 47.40403 | 12.37158 | 80° | 69km/h | 14489m | 4.4m/s | -57.8°C | 8.8% | 0hPa | 2.6V | 00:00:00 | 01:25:18 | 00:00:00 | |
| DG1MFX-10 | 2026-08-31 03:11:20 | 47.40400 | 12.37136 | 80° | 60km/h | 14486m | 3.3m/s | -57.9°C | 5.0% | 0hPa | 2.6V | 00:00:00 | 00:00:00 | 00:00:00 | |
| IN3HCDX | 2026-08-31 03:11:19 | 47.40397 | 12.37114 | 80° | 62km/h | 14482m | 4.4m/s | -58.0°C | 5.0% | 0hPa | 2.6V | 00:00:00 | 00:00:00 | 00:00:00 | |
| DB0NH | 2026-08-31 03:11:17 | 47.40387 | 12.37043 | 78° | 73km/h | 14470m | 3.8m/s | -57.8°C | 8.9% | 0hPa | 2.6V | 00:00:00 | 01:25:13 | 00:00:00 | |
| OE5DRO-10 | 2026-08-31 03:11:16 | 47.40384 | 12.37019 | 78° | 69km/h | 14467m | 3.1m/s | -57.9°C | 8.9% | 0hPa | 2.6V | 00:00:00 | 00:00:00 | 00:00:00 | |
| DO3MHA-11 | 2026-08-31 03:11:15 | 47.40377 | 12.36969 | 80° | 68km/h | 14459m | 3.4m/s | -57.9°C | 9.0% | 0hPa | 2.6V | 00:00:00 | 01:25:10 | 00:00:00 | |
| DO3MHA-12 | 2026-08-31 03:11:14 | 47.40373 | 12.36944 | 80° | 68km/h | 14455m | 4.1m/s | -57.9°C | 8.9% | 0hPa | 2.6V | 00:00:00 | 01:25:09 | 00:00:00 | |
| OE5MMP-10 | 2026-08-31 03:11:13 | 47.40373 | 12.36944 | 80° | 68km/h | 14455m | 4.1m/s | -57.9°C | 8.9% | 0hPa | 2.6V | 00:00:00 | 01:25:09 | 00:00:00 | |
| OE5WHR-10 | 2026-08-31 03:11:12 | 47.40371 | 12.36919 | 81° | 71km/h | 14451m | 3.8m/s | -57.9°C | 9.0% | 0hPa | 2.6V | 00:00:00 | 00:00:00 | 00:00:00 | |
| PG1ADW-2 | 2026-08-31 03:11:09 | 47.40364 | 12.36845 | 85° | 73km/h | 14440m | 4.9m/s | -57.9°C | 9.2% | 0hPa | 2.6V | 00:00:00 | 00:00:00 | 00:00:00 | |
| OE3JTB-15 | 2026-08-31 03:11:08 | 47.40362 | 12.36820 | 86° | 77km/h | 14435m | 4.7m/s | -57.9°C | 9.3% | 0hPa | 2.6V | 00:00:00 | 00:00:00 | 00:00:00 | |
| BAUMI2-15 | 2026-08-31 03:11:07 | 47.40361 | 12.36794 | 86° | 71km/h | 14430m | 5.1m/s | -57.9°C | 9.5% | 0hPa | 2.7V | 00:00:00 | 01:25:03 | 00:00:00 | |
| NBG1-10 | 2026-08-31 03:11:05 | 47.40357 | 12.36743 | 82° | 80km/h | 14422m | 3.4m/s | -58.0°C | 9.7% | 0hPa | 2.7V | 00:00:00 | 01:25:01 | 00:00:00 | |
| DO3MHA-12 | 2026-08-31 03:11:04 | 47.40352 | 12.36690 | 83° | 73km/h | 14414m | 3.5m/s | -58.0°C | 9.9% | 0hPa | 2.6V | 00:00:00 | 01:24:59 | 00:00:00 | |
| BAUMI2-15 | 2026-08-31 03:11:02 | 47.40350 | 12.36663 | 83° | 73km/h | 14410m | 4.5m/s | -58.1°C | 9.9% | 0hPa | 2.6V | 00:00:00 | 01:24:58 | 00:00:00 | |
| DL6DJ-15 | 2026-08-31 03:10:49 | 47.40328 | 12.36295 | 86° | 82km/h | 14359m | 4.1m/s | -58.2°C | 5.9% | -1.0hPa | 2.6V | 00:00:00 | 00:00:00 | 00:00:00 | |
| DB0NH | 2026-08-31 03:10:47 | 47.40326 | 12.36233 | 88° | 89km/h | 14351m | 3.8m/s | -58.1°C | 10.5% | 0hPa | 2.6V | 00:00:00 | 01:24:43 | 00:00:00 | |
| DO3MHA-11 | 2026-08-31 03:10:45 | 47.40322 | 12.36141 | 87° | 86km/h | 14339m | 4.1m/s | -58.1°C | 10.8% | 0hPa | 2.7V | 00:00:00 | 01:24:40 | 00:00:00 | |
| DO3MHA-12 | 2026-08-31 03:10:44 | 47.40321 | 12.36110 | 87° | 88km/h | 14335m | 3.4m/s | -58.1°C | 11.0% | 0hPa | 2.6V | 00:00:00 | 01:24:39 | 00:00:00 | |
| OE5MMP-10 | 2026-08-31 03:10:43 | 47.40321 | 12.36110 | 87° | 88km/h | 14335m | 3.4m/s | -58.1°C | 11.0% | 0hPa | 2.6V | 00:00:00 | 01:24:39 | 00:00:00 | |
| OE3JTB-15 | 2026-08-31 03:10:39 | 47.40315 | 12.35982 | 86° | 93km/h | 14322m | 4.1m/s | -58.2°C | 11.2% | 0hPa | 2.6V | 00:00:00 | 00:00:00 | 00:00:00 | |
| OE5DRO-10 | 2026-08-31 03:10:38 | 47.40313 | 12.35949 | 88° | 91km/h | 14318m | 3.2m/s | -58.1°C | 11.3% | 0hPa | 2.6V | 00:00:00 | 00:00:00 | 00:00:00 | |
| IN3HCDX | 2026-08-31 03:10:37 | 47.40313 | 12.35949 | 89° | 89km/h | 14318m | 3.3m/s | -58.2°C | 7.0% | 0hPa | 2.6V | 00:00:00 | 00:00:00 | 00:00:00 | |
| DO3MHA-11 | 2026-08-31 03:10:36 | 47.40310 | 12.35818 | 88° | 89km/h | 14304m | 3.3m/s | -58.1°C | 11.4% | 0hPa | 2.6V | 00:00:00 | 01:24:30 | 00:00:00 | |
| DO3MHA-12 | 2026-08-31 03:10:34 | 47.40308 | 12.35786 | 88° | 89km/h | 14301m | 3.7m/s | -58.2°C | 11.5% | 0hPa | 2.6V | 00:00:00 | 01:24:29 | 00:00:00 | |
| OE5MMP-10 | 2026-08-31 03:10:33 | 47.40308 | 12.35786 | 88° | 89km/h | 14301m | 3.7m/s | -58.2°C | 11.5% | 0hPa | 2.6V | 00:00:00 | 01:24:29 | 00:00:00 | |
| NBG1-10 | 2026-08-31 03:10:32 | 47.40308 | 12.35752 | 88° | 99km/h | 14297m | 2.9m/s | -58.2°C | 11.6% | 0hPa | 2.6V | 00:00:00 | 01:24:28 | 00:00:00 | |
| OE5WHR-10 | 2026-08-31 03:10:30 | 47.40305 | 12.35687 | 87° | 95km/h | 14291m | 2.7m/s | -58.2°C | 11.7% | 0hPa | 2.6V | 00:00:00 | 00:00:00 | 00:00:00 | |
| DO3MHA-11 | 2026-08-31 03:10:24 | 47.40296 | 12.35485 | 86° | 95km/h | 14269m | 3.3m/s | -58.9°C | 12.4% | 0hPa | 2.6V | 00:00:00 | 01:24:20 | 00:00:00 | |
| OE5MMP-10 | 2026-08-31 03:10:23 | 47.40295 | 12.35450 | 87° | 97km/h | 14266m | 3.9m/s | -59.0°C | 12.5% | 0hPa | 2.6V | 00:00:00 | 01:24:19 | 00:00:00 | |
| OE5DXL-15 | 2026-08-31 03:10:22 | 47.40293 | 12.35414 | 87° | 100km/h | 14262m | 2.8m/s | -59.2°C | 12.8% | 0hPa | 2.6V | 00:00:00 | 00:00:00 | 00:00:00 | |
| OE5DRO-10 | 2026-08-31 03:10:19 | 47.40288 | 12.35308 | 86° | 102km/h | 14251m | 3.9m/s | -59.6°C | 13.4% | 0hPa | 2.6V | 00:00:00 | 00:00:00 | 00:00:00 | |
| DB0NH | 2026-08-31 03:10:17 | 47.40284 | 12.35238 | 86° | 102km/h | 14244m | 3.4m/s | -59.8°C | 14.0% | 0hPa | 2.6V | 00:00:00 | 01:24:13 | 00:00:00 | |
| IN3HCDX | 2026-08-31 03:10:16 | 47.40284 | 12.35238 | 86° | 95km/h | 14244m | 3.4m/s | -59.8°C | 9.0% | 0hPa | 2.6V | 00:00:00 | 00:00:00 | 00:00:00 | |
| DO3MHA-12 | 2026-08-31 03:10:14 | 47.40275 | 12.35091 | 86° | 106km/h | 14230m | 3.2m/s | -59.9°C | 14.7% | 0hPa | 2.6V | 00:00:00 | 01:24:09 | 08:30:00 | |
| OE5MMP-10 | 2026-08-31 03:10:13 | 47.40275 | 12.35091 | 86° | 106km/h | 14230m | 3.2m/s | -59.9°C | 14.7% | 0hPa | 2.6V | 00:00:00 | 01:24:09 | 08:30:00 | |
| OE3JTB-15 | 2026-08-31 03:10:10 | 47.40267 | 12.34976 | 83° | 102km/h | 14220m | 2.9m/s | -60.0°C | 14.9% | 0hPa | 2.6V | 00:00:00 | 01:24:06 | 00:00:00 | |
| OE5WHR-10 | 2026-08-31 03:10:09 | 47.40263 | 12.34937 | 83° | 102km/h | 14216m | 3.9m/s | -60.0°C | 14.9% | 0hPa | 2.6V | 00:00:00 | 00:00:00 | 00:00:00 | |
| DO3MHA-12 | 2026-08-31 03:10:04 | 47.40239 | 12.34702 | 83° | 102km/h | 14196m | 2.7m/s | -60.6°C | 16.1% | 0hPa | 2.6V | 00:00:00 | 01:23:59 | 00:00:00 | |
| OE5MMP-10 | 2026-08-31 03:10:03 | 47.40239 | 12.34702 | 83° | 102km/h | 14196m | 2.7m/s | -60.6°C | 16.1% | 0hPa | 2.6V | 00:00:00 | 01:23:59 | 00:00:00 | |
| DL6DJ-15 | 2026-08-31 03:09:47 | 47.40167 | 12.34066 | 78° | 102km/h | 14139m | 3.0m/s | -61.1°C | 11.5% | -1.0hPa | 2.6V | 00:00:00 | 00:00:00 | 00:00:00 | |
| DO3MHA-11 | 2026-08-31 03:09:45 | 47.40158 | 12.33991 | 81° | 100km/h | 14132m | 2.9m/s | -61.0°C | 17.7% | 0hPa | 2.6V | 00:00:00 | 01:23:40 | 00:00:00 | |
| DO3MHA-12 | 2026-08-31 03:09:44 | 47.40153 | 12.33953 | 81° | 99km/h | 14129m | 3.7m/s | -61.0°C | 17.8% | 0hPa | 2.6V | 00:00:00 | 01:23:39 | 00:00:00 | |
| OE5MMP-10 | 2026-08-31 03:09:43 | 47.40153 | 12.33953 | 81° | 99km/h | 14129m | 3.7m/s | -61.0°C | 17.8% | 0hPa | 2.6V | 00:00:00 | 01:23:39 | 00:00:00 | |
| OE3JTB-15 | 2026-08-31 03:09:41 | 47.40145 | 12.33878 | 82° | 99km/h | 14122m | 3.4m/s | -61.1°C | 18.1% | 0hPa | 2.7V | 00:00:00 | 00:00:00 | 08:30:00 | |
| DG1MFX-10 | 2026-08-31 03:09:38 | 47.40137 | 12.33805 | 83° | 99km/h | 14116m | 2.9m/s | -61.1°C | 12.5% | 0hPa | 2.6V | 00:00:00 | 00:00:00 | 00:00:00 | |
| DO3MHA-11 | 2026-08-31 03:09:34 | 47.40117 | 12.33626 | 81° | 95km/h | 14098m | 3.8m/s | -61.3°C | 19.6% | 0hPa | 2.6V | 00:00:00 | 01:23:30 | 00:00:00 | |
| OE5MMP-10 | 2026-08-31 03:09:33 | 47.40113 | 12.33590 | 80° | 95km/h | 14095m | 3.1m/s | -61.4°C | 19.9% | 0hPa | 2.6V | 00:00:00 | 01:23:29 | 00:00:00 | |
| S52SK | 2026-08-31 03:09:32 | 47.40113 | 12.33590 | 81° | 97km/h | 14095m | 3.2m/s | -61.4°C | 0% | 0hPa | 2.6V | 00:00:00 | 00:00:00 | 00:00:00 | |
| PG1ADW-2 | 2026-08-31 03:09:29 | 47.40096 | 12.33449 | 80° | 99km/h | 14081m | 3.9m/s | -61.4°C | 20.0% | 0hPa | 2.6V | 00:00:00 | 01:23:25 | 00:00:00 | |
| OE5WHR-10 | 2026-08-31 03:09:27 | 47.40088 | 12.33380 | 81° | 100km/h | 14075m | 3.8m/s | -61.4°C | 20.0% | 0hPa | 2.6V | 00:00:00 | 00:00:00 | 00:00:00 | |
| NBG1-10 | 2026-08-31 03:09:26 | 47.40084 | 12.33345 | 81° | 104km/h | 14071m | 3.0m/s | -61.4°C | 20.1% | 0hPa | 2.6V | 00:00:00 | 01:23:22 | 08:30:00 | |
| DO3MHA-11 | 2026-08-31 03:09:24 | 47.40075 | 12.33276 | 80° | 99km/h | 14064m | 3.3m/s | -61.4°C | 20.3% | 0hPa | 2.6V | 00:00:00 | 01:23:20 | 00:00:00 | |
| OE5MMP-10 | 2026-08-31 03:09:23 | 47.40071 | 12.33240 | 80° | 99km/h | 14061m | 2.6m/s | -61.4°C | 20.4% | 0hPa | 2.6V | 00:00:00 | 01:23:19 | 00:00:00 | |
| DB0UT-7 | 2026-08-31 03:09:22 | 47.40066 | 12.33205 | 81° | 106km/h | 14058m | 3.7m/s | -61.4°C | 20.3% | 0hPa | 2.6V | 00:00:00 | 01:23:18 | 00:00:00 | |
| S52SK | 2026-08-31 03:09:20 | 47.40062 | 12.33169 | 81° | 99km/h | 14055m | 3.4m/s | 0°C | 0% | 0hPa | 2.6V | 00:00:00 | 00:00:00 | 00:00:00 | |
| DB0NH | 2026-08-31 03:09:17 | 47.40044 | 12.33024 | 82° | 106km/h | 14041m | 3.3m/s | -61.4°C | 20.7% | 0hPa | 2.6V | 00:00:00 | 01:23:13 | 08:30:00 | |
| DO3MHA-11 | 2026-08-31 03:09:14 | 47.40032 | 12.32912 | 82° | 104km/h | 14031m | 3.0m/s | -61.4°C | 20.8% | 0hPa | 2.7V | 00:00:00 | 01:23:10 | 00:00:00 | |
| OE5MMP-10 | 2026-08-31 03:09:13 | 47.40029 | 12.32875 | 82° | 104km/h | 14027m | 3.9m/s | -61.4°C | 20.9% | 0hPa | 2.6V | 00:00:00 | 01:23:09 | 00:00:00 | |
| OE3JTB-15 | 2026-08-31 03:09:12 | 47.40025 | 12.32837 | 83° | 108km/h | 14024m | 2.7m/s | -61.4°C | 21.2% | 0hPa | 2.7V | 00:00:00 | 00:00:00 | 00:00:00 | |
| PG1ADW-2 | 2026-08-31 03:09:09 | 47.40012 | 12.32725 | 80° | 110km/h | 14014m | 2.9m/s | -61.5°C | 21.6% | 0hPa | 2.7V | 00:00:00 | 00:00:00 | 00:00:00 | |
| OE5WHR-10 | 2026-08-31 03:09:06 | 47.39999 | 12.32610 | 80° | 110km/h | 14004m | 4.0m/s | -61.6°C | 22.0% | 0hPa | 2.7V | 00:00:00 | 00:00:00 | 00:00:00 | |
| DO3MHA-11 | 2026-08-31 03:09:04 | 47.39989 | 12.32531 | 81° | 110km/h | 13997m | 3.9m/s | -61.7°C | 22.5% | 0hPa | 2.7V | 00:00:00 | 01:23:00 | 00:00:00 | |
| DO3MHA-12 | 2026-08-31 03:09:03 | 47.39985 | 12.32490 | 82° | 110km/h | 13993m | 2.5m/s | -61.7°C | 22.6% | 0hPa | 2.7V | 00:00:00 | 01:22:59 | 00:00:00 | |
| DG1MFX-10 | 2026-08-31 03:08:57 | 47.39962 | 12.32288 | 81° | 110km/h | 13977m | 3.4m/s | -61.8°C | 16.2% | 0hPa | 2.7V | 00:00:00 | 00:00:00 | 00:00:00 | |
| DO3MHA-11 | 2026-08-31 03:08:54 | 47.39942 | 12.32126 | 82° | 108km/h | 13964m | 3.0m/s | -61.9°C | 23.6% | 0hPa | 2.7V | 00:00:00 | 01:22:50 | 00:00:00 | |
| OE5MMP-10 | 2026-08-31 03:08:53 | 47.39938 | 12.32085 | 82° | 108km/h | 13961m | 3.4m/s | -61.9°C | 23.5% | 0hPa | 2.7V | 00:00:00 | 01:22:49 | 00:00:00 | |
| DB0UT-7 | 2026-08-31 03:08:52 | 47.39934 | 12.32045 | 81° | 104km/h | 13958m | 3.1m/s | -62.0°C | 23.7% | 0hPa | 2.7V | 00:00:00 | 00:00:00 | 00:00:00 | |
| PG1ADW-2 | 2026-08-31 03:08:49 | 47.39921 | 12.31924 | 82° | 104km/h | 13948m | 2.7m/s | -61.9°C | 24.0% | 0hPa | 2.7V | 00:00:00 | 00:00:00 | 00:00:00 | |
| DB0NH | 2026-08-31 03:08:47 | 47.39912 | 12.31845 | 80° | 104km/h | 13941m | 2.7m/s | -61.9°C | 24.2% | 0hPa | 2.7V | 00:00:00 | 01:22:43 | 00:00:00 | |
| BAUMI2-15 | 2026-08-31 03:08:46 | 47.39907 | 12.31806 | 80° | 104km/h | 13938m | 3.6m/s | -61.9°C | 24.0% | 0hPa | 2.7V | 00:00:00 | 01:22:42 | 00:00:00 | |
| OE5WHR-10 | 2026-08-31 03:08:45 | 47.39903 | 12.31768 | 80° | 102km/h | 13935m | 3.5m/s | -61.9°C | 24.0% | 0hPa | 2.7V | 00:00:00 | 01:22:41 | 00:00:00 | |
| DO3MHA-11 | 2026-08-31 03:08:44 | 47.39897 | 12.31729 | 79° | 102km/h | 13931m | 3.3m/s | -61.9°C | 24.1% | 0hPa | 2.7V | 00:00:00 | 01:22:40 | 08:30:00 | |
| DO3MHA-12 | 2026-08-31 03:08:43 | 47.39892 | 12.31691 | 78° | 102km/h | 13928m | 3.3m/s | -61.9°C | 24.2% | 0hPa | 2.6V | 00:00:00 | 01:22:39 | 08:30:00 | |
| BAUMI2-15 | 2026-08-31 03:08:41 | 47.39881 | 12.31616 | 80° | 100km/h | 13921m | 3.2m/s | -61.8°C | 24.2% | 0hPa | 2.6V | 00:00:00 | 01:22:37 | 00:00:00 | |
| BAUMI2-15 | 2026-08-31 03:08:36 | 47.39857 | 12.31431 | 80° | 100km/h | 13904m | 3.2m/s | -61.8°C | 24.3% | 0hPa | 2.6V | 00:00:00 | 01:22:32 | 00:00:00 | |
| DO3MHA-11 | 2026-08-31 03:08:34 | 47.39848 | 12.31357 | 80° | 102km/h | 13897m | 3.4m/s | -61.8°C | 24.5% | 0hPa | 2.6V | 00:00:00 | 01:22:30 | 00:00:00 | |
| OE5MMP-10 | 2026-08-31 03:08:33 | 47.39843 | 12.31320 | 81° | 102km/h | 13894m | 3.1m/s | -61.8°C | 24.5% | 0hPa | 2.6V | 00:00:00 | 01:22:29 | 00:00:00 | |
| IN3HCDX | 2026-08-31 03:08:32 | 47.39844 | 12.31320 | 81° | 102km/h | 13894m | 3.2m/s | -61.9°C | 17.4% | 0hPa | 2.6V | 00:00:00 | 00:00:00 | 00:00:00 | |
| BAUMI2-15 | 2026-08-31 03:08:31 | 47.39836 | 12.31245 | 82° | 102km/h | 13887m | 3.3m/s | -62.0°C | 25.0% | 0hPa | 2.6V | 00:00:00 | 01:22:27 | 00:00:00 | |
| PG1ADW-2 | 2026-08-31 03:08:29 | 47.39827 | 12.31169 | 81° | 106km/h | 13879m | 2.9m/s | -62.2°C | 25.6% | 0hPa | 2.6V | 00:00:00 | 00:00:00 | 00:00:00 | |
| BAUMI2-15 | 2026-08-31 03:08:26 | 47.39815 | 12.31056 | 82° | 104km/h | 13869m | 2.8m/s | -62.2°C | 25.7% | 0hPa | 2.6V | 00:00:00 | 01:22:22 | 08:30:00 | |
| OE5DRO-10 | 2026-08-31 03:08:25 | 47.39811 | 12.31018 | 81° | 108km/h | 13866m | 4.1m/s | -62.2°C | 25.8% | 0hPa | 2.7V | 00:00:00 | 00:00:00 | 00:00:00 | |
| OE5WHR-10 | 2026-08-31 03:08:24 | 47.39806 | 12.30980 | 81° | 110km/h | 13862m | 3.5m/s | -62.2°C | 25.9% | 0hPa | 2.7V | 00:00:00 | 00:00:00 | 08:30:00 | |
| DO3MHA-12 | 2026-08-31 03:08:23 | 47.39803 | 12.30942 | 83° | 108km/h | 13858m | 4.3m/s | -62.2°C | 25.8% | 0hPa | 2.7V | 00:00:00 | 01:22:19 | 00:00:00 | |
| OE5DXL-15 | 2026-08-31 03:08:22 | 47.39799 | 12.30903 | 83° | 110km/h | 13855m | 2.7m/s | -62.2°C | 25.9% | 0hPa | 2.7V | 00:00:00 | 00:00:00 | 00:00:00 | |
| BAUMI2-15 | 2026-08-31 03:08:21 | 47.39795 | 12.30862 | 83° | 110km/h | 13851m | 4.3m/s | -62.1°C | 25.7% | 0hPa | 2.7V | 00:00:00 | 01:22:17 | 00:00:00 | |
| NBG1-10 | 2026-08-31 03:08:20 | 47.39792 | 12.30822 | 83° | 108km/h | 13847m | 3.6m/s | -62.1°C | 25.8% | 0hPa | 2.7V | 00:00:00 | 01:22:16 | 00:00:00 | |
| DB0NH | 2026-08-31 03:08:17 | 47.39782 | 12.30699 | 83° | 108km/h | 13837m | 3.5m/s | -62.1°C | 25.7% | 0hPa | 2.7V | 00:00:00 | 01:22:13 | 00:00:00 | |
| BAUMI2-15 | 2026-08-31 03:08:16 | 47.39779 | 12.30658 | 83° | 108km/h | 13833m | 3.6m/s | -62.1°C | 25.9% | 0hPa | 2.7V | 00:00:00 | 01:22:12 | 00:00:00 | |
| DO3MHA-11 | 2026-08-31 03:08:14 | 47.39771 | 12.30579 | 83° | 110km/h | 13826m | 3.9m/s | -62.0°C | 25.7% | 0hPa | 2.7V | 00:00:00 | 01:22:10 | 00:00:00 | |
| OE5MMP-10 | 2026-08-31 03:08:13 | 47.39768 | 12.30540 | 83° | 110km/h | 13823m | 3.0m/s | -62.0°C | 25.7% | 0hPa | 2.6V | 00:00:00 | 01:22:09 | 00:00:00 | |
| BAUMI2-15 | 2026-08-31 03:08:11 | 47.39760 | 12.30462 | 82° | 111km/h | 13816m | 3.2m/s | -62.0°C | 25.8% | 0hPa | 2.6V | 00:00:00 | 01:22:07 | 00:00:00 | |
| PG1ADW-2 | 2026-08-31 03:08:09 | 47.39752 | 12.30382 | 82° | 110km/h | 13808m | 3.5m/s | -62.0°C | 25.8% | 0hPa | 2.7V | 00:00:00 | 01:22:05 | 00:00:00 | |
| S52SK | 2026-08-31 03:08:07 | 47.39748 | 12.30340 | 82° | 113km/h | 13804m | 4.3m/s | 0°C | 0% | 0hPa | 2.6V | 00:00:00 | 00:00:00 | 00:00:00 | |
| BAUMI2-15 | 2026-08-31 03:08:06 | 47.39738 | 12.30257 | 81° | 111km/h | 13797m | 4.0m/s | -62.1°C | 25.9% | 0hPa | 2.6V | 00:00:00 | 01:22:02 | 00:00:00 | |
| DO3MHA-11 | 2026-08-31 03:08:04 | 47.39730 | 12.30174 | 82° | 108km/h | 13790m | 2.4m/s | -62.1°C | 26.1% | 0hPa | 2.6V | 00:00:00 | 01:22:00 | 00:00:00 | |
| DO3MHA-12 | 2026-08-31 03:08:03 | 47.39726 | 12.30133 | 82° | 108km/h | 13787m | 4.1m/s | -62.1°C | 26.1% | 0hPa | 2.6V | 00:00:00 | 01:21:59 | 00:00:00 | |
| BAUMI2-15 | 2026-08-31 03:08:01 | 47.39717 | 12.30053 | 81° | 106km/h | 13779m | 3.8m/s | -62.1°C | 26.1% | 0hPa | 2.6V | 00:00:00 | 01:21:57 | 00:00:00 | |
| BAUMI2-15 | 2026-08-31 03:07:56 | 47.39695 | 12.29858 | 79° | 108km/h | 13761m | 2.7m/s | -62.1°C | 26.0% | 0hPa | 2.6V | 00:00:00 | 01:21:52 | 00:00:00 | |
| DO3MHA-11 | 2026-08-31 03:07:54 | 47.39684 | 12.29779 | 80° | 106km/h | 13753m | 3.4m/s | -62.1°C | 26.1% | 0hPa | 2.6V | 00:00:00 | 01:21:50 | 00:00:00 | |
| OE5MMP-10 | 2026-08-31 03:07:53 | 47.39679 | 12.29739 | 80° | 106km/h | 13750m | 3.6m/s | -62.1°C | 25.9% | 0hPa | 2.6V | 00:00:00 | 01:21:49 | 00:00:00 | |
| OE5DXL-15 | 2026-08-31 03:07:52 | 47.39674 | 12.29700 | 79° | 104km/h | 13746m | 4.0m/s | -62.1°C | 25.9% | 0hPa | 2.6V | 00:00:00 | 00:00:00 | 08:30:00 | |
| BAUMI2-15 | 2026-08-31 03:07:51 | 47.39669 | 12.29660 | 80° | 106km/h | 13742m | 3.3m/s | -62.0°C | 25.8% | 0hPa | 2.6V | 00:00:00 | 01:21:47 | 00:00:00 | |
| IN3HCDX | 2026-08-31 03:07:50 | 47.39669 | 12.29660 | 80° | 108km/h | 13742m | 3.4m/s | -62.1°C | 18.4% | 0hPa | 2.6V | 00:00:00 | 00:00:00 | 00:00:00 | |
| PG1ADW-2 | 2026-08-31 03:07:49 | 47.39660 | 12.29583 | 81° | 104km/h | 13735m | 3.5m/s | -62.0°C | 25.8% | 0hPa | 2.6V | 00:00:00 | 00:00:00 | 00:00:00 | |
| DB0NH | 2026-08-31 03:07:47 | 47.39650 | 12.29506 | 80° | 102km/h | 13727m | 3.0m/s | -62.0°C | 25.8% | 0hPa | 2.6V | 00:00:00 | 01:21:43 | 00:00:00 | |
| BAUMI2-15 | 2026-08-31 03:07:46 | 47.39645 | 12.29467 | 81° | 104km/h | 13724m | 4.2m/s | -62.0°C | 25.9% | 0hPa | 2.7V | 00:00:00 | 01:21:42 | 00:00:00 | |
| OE3JTB-15 | 2026-08-31 03:07:45 | 47.39641 | 12.29429 | 81° | 102km/h | 13720m | 3.4m/s | -62.0°C | 25.9% | 0hPa | 2.7V | 00:00:00 | 00:00:00 | 00:00:00 | |
| DO3MHA-11 | 2026-08-31 03:07:44 | 47.39636 | 12.29391 | 80° | 104km/h | 13716m | 3.9m/s | -61.9°C | 25.8% | 0hPa | 2.7V | 00:00:00 | 01:21:40 | 00:00:00 | |
| DO3MHA-12 | 2026-08-31 03:07:43 | 47.39631 | 12.29353 | 78° | 104km/h | 13713m | 3.5m/s | -61.9°C | 25.8% | 0hPa | 2.7V | 00:00:00 | 01:21:39 | 00:00:00 | |
| OE5WHR-10 | 2026-08-31 03:07:42 | 47.39625 | 12.29314 | 77° | 102km/h | 13709m | 3.2m/s | -61.9°C | 25.6% | 0hPa | 2.6V | 00:00:00 | 01:21:38 | 00:00:00 | |
| BAUMI2-15 | 2026-08-31 03:07:41 | 47.39619 | 12.29277 | 77° | 104km/h | 13705m | 4.5m/s | -61.9°C | 25.5% | 0hPa | 2.6V | 00:00:00 | 01:21:37 | 08:30:00 | |
| BAUMI2-15 | 2026-08-31 03:07:36 | 47.39590 | 12.29089 | 79° | 102km/h | 13685m | 3.5m/s | -61.8°C | 25.7% | 0hPa | 2.7V | 00:00:00 | 01:21:32 | 00:00:00 | |
| DG1MFX-10 | 2026-08-31 03:07:35 | 47.39590 | 12.29089 | 80° | 100km/h | 13685m | 3.5m/s | -61.8°C | 18.4% | 0hPa | 2.7V | 00:00:00 | 00:00:00 | 00:00:00 | |
| DO3MHA-11 | 2026-08-31 03:07:34 | 47.39580 | 12.29014 | 79° | 102km/h | 13678m | 3.8m/s | -61.8°C | 25.7% | 0hPa | 2.7V | 00:00:00 | 01:21:30 | 00:00:00 | |
| OE5MMP-10 | 2026-08-31 03:07:33 | 47.39575 | 12.28977 | 79° | 102km/h | 13674m | 3.0m/s | -61.7°C | 25.7% | 0hPa | 2.7V | 00:00:00 | 01:21:29 | 00:00:00 | |
| BAUMI2-15 | 2026-08-31 03:07:31 | 47.39565 | 12.28903 | 79° | 102km/h | 13666m | 3.1m/s | -61.7°C | 25.8% | 0hPa | 2.7V | 00:00:00 | 01:21:27 | 00:00:00 | |
| PG1ADW-2 | 2026-08-31 03:07:29 | 47.39555 | 12.28828 | 78° | 100km/h | 13659m | 3.7m/s | -61.7°C | 25.8% | 0hPa | 2.7V | 00:00:00 | 00:00:00 | 00:00:00 | |
| OE5DRO-10 | 2026-08-31 03:07:28 | 47.39549 | 12.28791 | 78° | 100km/h | 13656m | 3.4m/s | -61.7°C | 25.6% | 0hPa | 2.7V | 00:00:00 | 00:00:00 | 00:00:00 | |
| BAUMI2-15 | 2026-08-31 03:07:26 | 47.39537 | 12.28717 | 77° | 100km/h | 13648m | 3.7m/s | -61.7°C | 25.8% | 0hPa | 2.7V | 00:00:00 | 01:21:22 | 00:00:00 | |
| DO3MHA-11 | 2026-08-31 03:07:24 | 47.39525 | 12.28643 | 77° | 100km/h | 13639m | 3.3m/s | -61.7°C | 26.1% | 0hPa | 2.7V | 00:00:00 | 01:21:20 | 00:00:00 | |
| OE5MMP-10 | 2026-08-31 03:07:23 | 47.39519 | 12.28606 | 78° | 100km/h | 13636m | 4.7m/s | -61.7°C | 26.1% | 0hPa | 2.7V | 00:00:00 | 01:21:19 | 00:00:00 | |
| DB0UT-7 | 2026-08-31 03:07:22 | 47.39514 | 12.28570 | 79° | 99km/h | 13632m | 3.2m/s | -61.7°C | 26.5% | 0hPa | 2.7V | 00:00:00 | 01:21:18 | 00:00:00 | |
| OE5WHR-10 | 2026-08-31 03:07:21 | 47.39509 | 12.28533 | 79° | 99km/h | 13628m | 3.4m/s | -61.8°C | 26.3% | 0hPa | 2.7V | 00:00:00 | 00:00:00 | 00:00:00 | |
| DB0NH | 2026-08-31 03:07:17 | 47.39488 | 12.28388 | 78° | 99km/h | 13613m | 3.5m/s | -61.9°C | 27.3% | 0hPa | 2.7V | 00:00:00 | 01:21:13 | 00:00:00 | |
| BAUMI2-15 | 2026-08-31 03:07:16 | 47.39483 | 12.28352 | 78° | 100km/h | 13610m | 4.0m/s | -61.9°C | 27.3% | 0hPa | 2.7V | 00:00:00 | 01:21:12 | 00:00:00 | |
| DG1MFX-10 | 2026-08-31 03:07:15 | 47.39483 | 12.28352 | 79° | 99km/h | 13610m | 4.0m/s | -61.9°C | 19.8% | 0hPa | 2.7V | 00:00:00 | 00:00:00 | 00:00:00 | |
| DO3MHA-11 | 2026-08-31 03:07:14 | 47.39471 | 12.28279 | 76° | 100km/h | 13602m | 2.7m/s | -61.9°C | 27.6% | 0hPa | 2.7V | 00:00:00 | 01:21:10 | 08:30:00 | |
| OE5MMP-10 | 2026-08-31 03:07:13 | 47.39465 | 12.28242 | 75° | 99km/h | 13598m | 4.5m/s | -61.9°C | 27.3% | 0hPa | 2.7V | 00:00:00 | 01:21:09 | 08:30:00 | |
| BAUMI2-15 | 2026-08-31 03:07:11 | 47.39452 | 12.28171 | 76° | 100km/h | 13590m | 3.2m/s | -61.8°C | 27.7% | 0hPa | 2.6V | 00:00:00 | 01:21:07 | 00:00:00 | |
| PG1ADW-2 | 2026-08-31 03:07:09 | 47.39439 | 12.28099 | 77° | 99km/h | 13583m | 3.5m/s | -61.8°C | 27.8% | 0hPa | 2.7V | 00:00:00 | 00:00:00 | 08:30:00 | |
| IN3HCDX | 2026-08-31 03:07:08 | 47.39439 | 12.28099 | 77° | 100km/h | 13583m | 3.6m/s | -61.9°C | 20.2% | 0hPa | 2.7V | 00:00:00 | 00:00:00 | 00:00:00 | |
| BAUMI2-15 | 2026-08-31 03:07:06 | 47.39420 | 12.27991 | 76° | 97km/h | 13572m | 3.8m/s | -61.7°C | 27.7% | 0hPa | 2.7V | 00:00:00 | 01:21:02 | 00:00:00 | |
| OE5HKT-10 | 2026-08-31 03:07:05 | 47.39415 | 12.27956 | 78° | 99km/h | 13567m | 4.6m/s | 0°C | 0% | 0hPa | 2.7V | 00:00:00 | 01:21:01 | 00:00:00 | |
| DO3MHA-11 | 2026-08-31 03:07:04 | 47.39409 | 12.27921 | 78° | 99km/h | 13563m | 3.2m/s | -61.7°C | 28.0% | 0hPa | 2.7V | 00:00:00 | 01:21:00 | 00:00:00 | |
| OE5MMP-10 | 2026-08-31 03:07:03 | 47.39404 | 12.27886 | 78° | 99km/h | 13560m | 4.3m/s | -61.7°C | 27.8% | 0hPa | 2.7V | 00:00:00 | 01:20:59 | 00:00:00 | |
| BAUMI2-15 | 2026-08-31 03:07:01 | 47.39394 | 12.27817 | 78° | 99km/h | 13552m | 3.2m/s | -61.6°C | 27.9% | 0hPa | 2.7V | 00:00:00 | 01:20:57 | 00:00:00 | |
| OE5WHR-10 | 2026-08-31 03:07:00 | 47.39389 | 12.27782 | 79° | 99km/h | 13548m | 4.5m/s | -61.6°C | 28.0% | 0hPa | 2.7V | 00:00:00 | 00:00:00 | 00:00:00 | |
| BAUMI2-15 | 2026-08-31 03:06:56 | 47.39369 | 12.27638 | 80° | 100km/h | 13532m | 4.6m/s | -61.5°C | 28.2% | 0hPa | 2.7V | 00:00:00 | 01:20:52 | 08:30:00 | |
| DO3MHA-11 | 2026-08-31 03:06:54 | 47.39359 | 12.27564 | 79° | 99km/h | 13523m | 4.4m/s | -61.5°C | 28.4% | 0hPa | 2.6V | 00:00:00 | 01:20:50 | 00:00:00 | |
| DO3MHA-12 | 2026-08-31 03:06:53 | 47.39354 | 12.27527 | 78° | 99km/h | 13519m | 3.3m/s | -61.5°C | 28.7% | 0hPa | 2.6V | 00:00:00 | 01:20:49 | 00:00:00 | |
| DB0UT-7 | 2026-08-31 03:06:52 | 47.39349 | 12.27490 | 79° | 100km/h | 13516m | 3.1m/s | -61.4°C | 28.6% | 0hPa | 2.6V | 00:00:00 | 00:00:00 | 00:00:00 | |
| BAUMI2-15 | 2026-08-31 03:06:51 | 47.39344 | 12.27454 | 80° | 99km/h | 13513m | 4.4m/s | -61.4°C | 28.6% | 0hPa | 2.7V | 00:00:00 | 01:20:47 | 00:00:00 | |
| OE5DRO-10 | 2026-08-31 03:06:50 | 47.39339 | 12.27419 | 81° | 99km/h | 13509m | 3.5m/s | -61.3°C | 28.7% | 0hPa | 2.7V | 00:00:00 | 00:00:00 | 00:00:00 | |
| PG1ADW-2 | 2026-08-31 03:06:49 | 47.39335 | 12.27383 | 80° | 100km/h | 13505m | 3.5m/s | -61.3°C | 28.6% | 0hPa | 2.7V | 00:00:00 | 01:20:45 | 00:00:00 | |
| IN3HCDX | 2026-08-31 03:06:48 | 47.39335 | 12.27383 | 81° | 97km/h | 13505m | 3.6m/s | -61.4°C | 20.9% | 0hPa | 2.7V | 00:00:00 | 00:00:00 | 00:00:00 | |
| DB0NH | 2026-08-31 03:06:47 | 47.39326 | 12.27312 | 80° | 102km/h | 13497m | 3.7m/s | -61.2°C | 28.4% | 0hPa | 2.7V | 00:00:00 | 01:20:43 | 00:00:00 | |
| DO3MHA-11 | 2026-08-31 03:06:44 | 47.39312 | 12.27202 | 79° | 100km/h | 13486m | 4.5m/s | -61.1°C | 28.4% | 0hPa | 2.7V | 00:00:00 | 01:20:40 | 00:00:00 | |
| DO3MHA-12 | 2026-08-31 03:06:43 | 47.39307 | 12.27165 | 79° | 99km/h | 13482m | 3.8m/s | -61.1°C | 28.4% | 0hPa | 2.6V | 00:00:00 | 01:20:39 | 00:00:00 | |
| S52SK | 2026-08-31 03:06:42 | 47.39307 | 12.27165 | 79° | 102km/h | 13482m | 3.9m/s | 0°C | 0% | 0hPa | 2.6V | 00:00:00 | 00:00:00 | 00:00:00 | |
| NBG1-10 | 2026-08-31 03:06:41 | 47.39298 | 12.27091 | 81° | 102km/h | 13474m | 3.5m/s | -61.1°C | 28.4% | 0hPa | 2.6V | 00:00:00 | 01:20:37 | 00:00:00 | |
| DL6DJ-15 | 2026-08-31 03:06:40 | 47.39293 | 12.27055 | 80° | 99km/h | 13470m | 4.1m/s | -61.1°C | 20.3% | -1.0hPa | 2.6V | 00:00:00 | 00:00:00 | 00:00:00 | |
| OE5WHR-10 | 2026-08-31 03:06:39 | 47.39289 | 12.27018 | 80° | 102km/h | 13466m | 4.4m/s | -61.0°C | 28.2% | 0hPa | 2.6V | 00:00:00 | 01:20:35 | 00:00:00 | |
| DO3MHA-11 | 2026-08-31 03:06:34 | 47.39269 | 12.26837 | 81° | 102km/h | 13445m | 3.8m/s | -60.8°C | 28.4% | 0hPa | 2.6V | 00:00:00 | 01:20:30 | 00:00:00 | |
| OE5MMP-10 | 2026-08-31 03:06:33 | 47.39265 | 12.26801 | 81° | 102km/h | 13441m | 4.7m/s | -60.8°C | 28.4% | 0hPa | 2.6V | 00:00:00 | 01:20:29 | 00:00:00 | |
| OE5DRO-10 | 2026-08-31 03:06:31 | 47.39257 | 12.26726 | 81° | 104km/h | 13433m | 3.8m/s | -60.7°C | 28.5% | 0hPa | 2.6V | 00:00:00 | 00:00:00 | 00:00:00 | |
| PG1ADW-2 | 2026-08-31 03:06:29 | 47.39248 | 12.26651 | 80° | 104km/h | 13424m | 3.3m/s | -60.7°C | 28.5% | 0hPa | 2.6V | 00:00:00 | 00:00:00 | 00:00:00 | |
| IN3HCDX | 2026-08-31 03:06:27 | 47.39243 | 12.26614 | 81° | 100km/h | 13421m | 4.2m/s | -60.7°C | 20.9% | 0hPa | 2.6V | 00:00:00 | 00:00:00 | 00:00:00 | |
| DO3MHA-11 | 2026-08-31 03:06:24 | 47.39226 | 12.26464 | 81° | 104km/h | 13404m | 3.8m/s | -60.5°C | 28.4% | 0hPa | 2.6V | 00:00:00 | 01:20:20 | 00:00:00 | |
| OE5MMP-10 | 2026-08-31 03:06:23 | 47.39222 | 12.26426 | 82° | 104km/h | 13400m | 4.4m/s | -60.4°C | 28.5% | 0hPa | 2.6V | 00:00:00 | 01:20:19 | 00:00:00 | |
| OE5DXL-15 | 2026-08-31 03:06:22 | 47.39218 | 12.26388 | 81° | 108km/h | 13396m | 4.0m/s | -60.4°C | 28.5% | 0hPa | 2.6V | 00:00:00 | 00:00:00 | 00:00:00 | |
| OE5WHR-10 | 2026-08-31 03:06:18 | 47.39200 | 12.26235 | 82° | 108km/h | 13378m | 4.2m/s | -60.3°C | 28.8% | 0hPa | 2.7V | 00:00:00 | 00:00:00 | 00:00:00 | |
| DB0NH | 2026-08-31 03:06:17 | 47.39196 | 12.26196 | 81° | 110km/h | 13374m | 4.4m/s | 0°C | 0% | 0hPa | 2.6V | 00:00:00 | 01:20:13 | 00:00:00 | |
| DO3MHA-11 | 2026-08-31 03:06:14 | 47.39182 | 12.26082 | 81° | 106km/h | 13361m | 4.1m/s | -60.2°C | 28.5% | 0hPa | 2.6V | 00:00:00 | 01:20:10 | 00:00:00 | |
| OE5MMP-10 | 2026-08-31 03:06:13 | 47.39178 | 12.26043 | 81° | 106km/h | 13357m | 3.4m/s | -60.2°C | 28.2% | 0hPa | 2.6V | 00:00:00 | 01:20:09 | 00:00:00 | |
| OE5DRO-10 | 2026-08-31 03:06:12 | 47.39173 | 12.26005 | 80° | 110km/h | 13353m | 5.0m/s | -60.2°C | 28.2% | 0hPa | 2.6V | 00:00:00 | 00:00:00 | 00:00:00 | |
| PG1ADW-2 | 2026-08-31 03:06:09 | 47.39159 | 12.25889 | 82° | 110km/h | 13340m | 4.6m/s | -60.4°C | 28.5% | 0hPa | 2.7V | 00:00:00 | 00:00:00 | 00:00:00 | |
| NBG1-10 | 2026-08-31 03:06:08 | 47.39155 | 12.25849 | 82° | 110km/h | 13336m | 4.4m/s | -60.3°C | 28.6% | 0hPa | 2.6V | 00:00:00 | 01:20:04 | 00:00:00 | |
| IN3HCDX | 2026-08-31 03:06:06 | 47.39151 | 12.25810 | 82° | 106km/h | 13331m | 4.6m/s | -60.4°C | 21.2% | 0hPa | 2.6V | 00:00:00 | 00:00:00 | 00:00:00 | |
| DO3MHA-11 | 2026-08-31 03:06:04 | 47.39138 | 12.25694 | 80° | 111km/h | 13318m | 5.1m/s | -60.2°C | 28.6% | 0hPa | 2.6V | 00:00:00 | 01:20:00 | 00:00:00 | |
| OE5MMP-10 | 2026-08-31 03:06:03 | 47.39132 | 12.25654 | 80° | 113km/h | 13314m | 3.9m/s | -60.2°C | 28.7% | 0hPa | 2.6V | 00:00:00 | 01:19:59 | 00:00:00 | |
| OE5WHR-10 | 2026-08-31 03:05:57 | 47.39097 | 12.25408 | 78° | 110km/h | 13288m | 4.8m/s | -60.0°C | 28.2% | 0hPa | 2.6V | 00:00:00 | 00:00:00 | 00:00:00 | |
| DO3MHA-11 | 2026-08-31 03:05:54 | 47.39079 | 12.25285 | 79° | 110km/h | 13276m | 3.9m/s | -59.9°C | 28.0% | 0hPa | 2.6V | 00:00:00 | 01:19:50 | 00:00:00 | |
| DO3MHA-12 | 2026-08-31 03:05:53 | 47.39074 | 12.25244 | 79° | 110km/h | 13271m | 4.4m/s | -59.8°C | 27.9% | 0hPa | 2.6V | 00:00:00 | 01:19:49 | 00:00:00 | |
| OE5DXL-15 | 2026-08-31 03:05:52 | 47.39068 | 12.25204 | 79° | 110km/h | 13267m | 4.3m/s | -59.8°C | 27.9% | 0hPa | 2.6V | 00:00:00 | 00:00:00 | 00:00:00 | |
| OE3JTB-15 | 2026-08-31 03:05:49 | 47.39053 | 12.25083 | 81° | 110km/h | 13254m | 3.9m/s | -59.7°C | 27.7% | 0hPa | 2.6V | 00:00:00 | 01:19:45 | 00:00:00 | |
| DB0NH | 2026-08-31 03:05:47 | 47.39043 | 12.25002 | 80° | 110km/h | 13245m | 4.0m/s | 0°C | 0% | 0hPa | 2.6V | 00:00:00 | 01:19:43 | 00:00:00 | |
| IN3HCDX | 2026-08-31 03:05:45 | 47.39038 | 12.24962 | 80° | 110km/h | 13241m | 3.9m/s | -59.6°C | 20.5% | 0hPa | 2.6V | 00:00:00 | 00:00:00 | 00:00:00 | |
| DO3MHA-11 | 2026-08-31 03:05:44 | 47.39027 | 12.24881 | 80° | 110km/h | 13233m | 3.3m/s | -59.5°C | 27.7% | 0hPa | 2.6V | 00:00:00 | 01:19:40 | 08:30:00 | |
| DO3MHA-12 | 2026-08-31 03:05:43 | 47.39022 | 12.24841 | 80° | 110km/h | 13229m | 4.3m/s | -59.4°C | 27.6% | 0hPa | 2.7V | 00:00:00 | 01:19:39 | 08:30:00 | |
| DL6DJ-15 | 2026-08-31 03:05:38 | 47.38994 | 12.24601 | 80° | 110km/h | 13205m | 3.9m/s | -59.3°C | 19.7% | -1.0hPa | 2.6V | 00:00:00 | 00:00:00 | 00:00:00 | |
| OE5WHR-10 | 2026-08-31 03:05:36 | 47.38989 | 12.24561 | 81° | 110km/h | 13201m | 4.5m/s | -59.2°C | 26.8% | 0hPa | 2.6V | 00:00:00 | 01:19:32 | 00:00:00 | |
| NBG1-10 | 2026-08-31 03:05:35 | 47.38984 | 12.24520 | 80° | 108km/h | 13196m | 4.3m/s | -59.1°C | 26.8% | 0hPa | 2.6V | 00:00:00 | 01:19:31 | 00:00:00 | |
| DO3MHA-11 | 2026-08-31 03:05:34 | 47.38979 | 12.24480 | 80° | 110km/h | 13192m | 4.2m/s | -59.1°C | 26.9% | 0hPa | 2.6V | 00:00:00 | 01:19:30 | 00:00:00 | |
| OE5MMP-10 | 2026-08-31 03:05:33 | 47.38974 | 12.24439 | 79° | 110km/h | 13188m | 3.4m/s | -59.1°C | 26.8% | 0hPa | 2.6V | 00:00:00 | 01:19:29 | 00:00:00 | |
| DG1MFX-10 | 2026-08-31 03:05:32 | 47.38973 | 12.24439 | 80° | 110km/h | 13188m | 3.4m/s | -59.1°C | 20.0% | 0hPa | 2.6V | 00:00:00 | 00:00:00 | 00:00:00 | |
| PG1ADW-2 | 2026-08-31 03:05:29 | 47.38954 | 12.24279 | 80° | 108km/h | 13172m | 4.1m/s | -59.0°C | 26.8% | 0hPa | 2.6V | 00:00:00 | 01:19:25 | 00:00:00 | |
| DO3MHA-11 | 2026-08-31 03:05:24 | 47.38930 | 12.24079 | 79° | 108km/h | 13152m | 3.8m/s | -58.9°C | 26.7% | 0hPa | 2.6V | 00:00:00 | 01:19:20 | 00:00:00 | |
| OE5MMP-10 | 2026-08-31 03:05:23 | 47.38924 | 12.24038 | 80° | 108km/h | 13148m | 4.8m/s | -58.8°C | 26.7% | 0hPa | 2.6V | 00:00:00 | 01:19:19 | 00:00:00 | |
| DB0UT-7 | 2026-08-31 03:05:22 | 47.38919 | 12.23997 | 81° | 108km/h | 13144m | 3.6m/s | -58.8°C | 26.9% | 0hPa | 2.6V | 00:00:00 | 01:19:18 | 00:00:00 | |
| OE3JTB-15 | 2026-08-31 03:05:20 | 47.38910 | 12.23916 | 80° | 106km/h | 13135m | 3.8m/s | -58.8°C | 26.8% | 0hPa | 2.7V | 00:00:00 | 00:00:00 | 08:30:00 | |
| DB0NH | 2026-08-31 03:05:17 | 47.38898 | 12.23799 | 83° | 106km/h | 13123m | 3.5m/s | 0°C | 0% | 0hPa | 2.6V | 00:00:00 | 01:19:13 | 00:00:00 | |
| OE5DRO-10 | 2026-08-31 03:05:15 | 47.38890 | 12.23721 | 82° | 106km/h | 13116m | 3.3m/s | -58.7°C | 27.2% | 0hPa | 2.6V | 00:00:00 | 00:00:00 | 00:00:00 | |
| OE5WHR-10 | 2026-08-31 03:05:14 | 47.38886 | 12.23682 | 82° | 108km/h | 13112m | 3.5m/s | -58.7°C | 27.1% | 0hPa | 2.6V | 00:00:00 | 00:00:00 | 08:30:00 | |
| OE5MMP-10 | 2026-08-31 03:05:13 | 47.38882 | 12.23642 | 82° | 108km/h | 13108m | 4.1m/s | -58.7°C | 27.2% | 0hPa | 2.7V | 00:00:00 | 01:19:09 | 00:00:00 | |
| DG1MFX-10 | 2026-08-31 03:05:12 | 47.38882 | 12.23642 | 83° | 110km/h | 13108m | 4.1m/s | -58.7°C | 20.4% | 0hPa | 2.6V | 00:00:00 | 00:00:00 | 00:00:00 | |
| PG1ADW-2 | 2026-08-31 03:05:09 | 47.38865 | 12.23481 | 82° | 106km/h | 13093m | 4.3m/s | -58.7°C | 27.5% | 0hPa | 2.6V | 00:00:00 | 00:00:00 | 00:00:00 | |
| DL6DJ-15 | 2026-08-31 03:05:07 | 47.38858 | 12.23401 | 82° | 106km/h | 13086m | 3.8m/s | -58.8°C | 20.4% | -1.0hPa | 2.6V | 00:00:00 | 00:00:00 | 00:00:00 | |
| DO3MHA-11 | 2026-08-31 03:05:04 | 47.38848 | 12.23285 | 84° | 106km/h | 13074m | 4.5m/s | -58.7°C | 27.7% | 0hPa | 2.6V | 00:00:00 | 01:19:00 | 00:00:00 | |
| DO3MHA-12 | 2026-08-31 03:05:03 | 47.38845 | 12.23247 | 84° | 108km/h | 13070m | 3.4m/s | -58.7°C | 27.8% | 0hPa | 2.6V | 00:00:00 | 01:18:59 | 00:00:00 | |
| NBG1-10 | 2026-08-31 03:05:02 | 47.38842 | 12.23208 | 83° | 106km/h | 13066m | 4.3m/s | -58.6°C | 27.7% | 0hPa | 2.6V | 00:00:00 | 01:18:58 | 00:00:00 | |
| OE5DRO-10 | 2026-08-31 03:04:56 | 47.38820 | 12.22973 | 82° | 104km/h | 13043m | 3.5m/s | -58.6°C | 27.9% | 0hPa | 2.6V | 00:00:00 | 00:00:00 | 00:00:00 | |
| DO3MHA-11 | 2026-08-31 03:04:54 | 47.38813 | 12.22893 | 83° | 104km/h | 13036m | 3.8m/s | -58.6°C | 27.9% | 0hPa | 2.6V | 00:00:00 | 01:18:50 | 00:00:00 | |
| OE5MMP-10 | 2026-08-31 03:04:53 | 47.38810 | 12.22854 | 83° | 102km/h | 13032m | 3.5m/s | -58.6°C | 27.8% | 0hPa | 2.6V | 00:00:00 | 01:18:49 | 00:00:00 | |
| DO3MHA-12 | 2026-08-31 03:04:52 | 47.38806 | 12.22815 | 83° | 102km/h | 13028m | 4.2m/s | -58.6°C | 27.7% | 0hPa | 2.6V | 00:00:00 | 01:18:48 | 00:00:00 | |
| OE3JTB-15 | 2026-08-31 03:04:51 | 47.38803 | 12.22776 | 82° | 106km/h | 13025m | 3.5m/s | -58.5°C | 27.7% | 0hPa | 2.6V | 00:00:00 | 00:00:00 | 00:00:00 | |
| PG1ADW-2 | 2026-08-31 03:04:49 | 47.38796 | 12.22700 | 83° | 104km/h | 13016m | 3.6m/s | -58.5°C | 27.7% | 0hPa | 2.6V | 00:00:00 | 00:00:00 | 00:00:00 | |
| DB0NH | 2026-08-31 03:04:47 | 47.38788 | 12.22624 | 81° | 102km/h | 13008m | 3.0m/s | 0°C | 0% | 0hPa | 2.6V | 00:00:00 | 01:18:43 | 00:00:00 | |
| BAUMI2-15 | 2026-08-31 03:04:46 | 47.38784 | 12.22586 | 82° | 102km/h | 13005m | 4.3m/s | -58.4°C | 27.4% | 0hPa | 2.6V | 00:00:00 | 01:18:42 | 00:00:00 | |
| DO3MHA-11 | 2026-08-31 03:04:44 | 47.38777 | 12.22512 | 82° | 104km/h | 12997m | 3.9m/s | -58.4°C | 27.4% | 0hPa | 2.6V | 00:00:00 | 01:18:40 | 00:00:00 | |
| OE5MMP-10 | 2026-08-31 03:04:43 | 47.38773 | 12.22474 | 82° | 106km/h | 12992m | 4.4m/s | -58.4°C | 27.6% | 0hPa | 2.6V | 00:00:00 | 01:18:39 | 00:00:00 | |
| DO3MHA-12 | 2026-08-31 03:04:42 | 47.38769 | 12.22436 | 82° | 106km/h | 12989m | 3.1m/s | -58.4°C | 27.7% | 0hPa | 2.6V | 00:00:00 | 01:18:38 | 00:00:00 | |
| BAUMI2-15 | 2026-08-31 03:04:41 | 47.38765 | 12.22398 | 83° | 106km/h | 12985m | 4.7m/s | -58.4°C | 27.6% | 0hPa | 2.7V | 00:00:00 | 01:18:37 | 00:00:00 | |
| OE5DRO-10 | 2026-08-31 03:04:37 | 47.38753 | 12.22242 | 83° | 108km/h | 12970m | 3.5m/s | -58.3°C | 27.6% | 0hPa | 2.6V | 00:00:00 | 00:00:00 | 00:00:00 | |
| BAUMI2-15 | 2026-08-31 03:04:36 | 47.38749 | 12.22203 | 83° | 106km/h | 12965m | 4.5m/s | -58.3°C | 27.6% | 0hPa | 2.6V | 00:00:00 | 01:18:32 | 00:00:00 | |
| DO3MHA-11 | 2026-08-31 03:04:34 | 47.38742 | 12.22125 | 82° | 108km/h | 12958m | 3.6m/s | -58.2°C | 27.6% | 0hPa | 2.6V | 00:00:00 | 01:18:30 | 00:00:00 | |
| OE5MMP-10 | 2026-08-31 03:04:33 | 47.38738 | 12.22086 | 81° | 108km/h | 12954m | 3.8m/s | -58.2°C | 27.7% | 0hPa | 2.6V | 00:00:00 | 01:18:29 | 00:00:00 | |
| DO3MHA-12 | 2026-08-31 03:04:32 | 47.38734 | 12.22046 | 81° | 108km/h | 12951m | 2.8m/s | -58.2°C | 27.5% | 0hPa | 2.6V | 00:00:00 | 01:18:28 | 00:00:00 | |
| BAUMI2-15 | 2026-08-31 03:04:31 | 47.38730 | 12.22006 | 82° | 108km/h | 12947m | 4.2m/s | -58.1°C | 27.3% | 0hPa | 2.6V | 00:00:00 | 01:18:27 | 00:00:00 | |
| DG1MFX-10 | 2026-08-31 03:04:30 | 47.38730 | 12.22006 | 83° | 110km/h | 12947m | 4.2m/s | -58.2°C | 20.6% | 0hPa | 2.6V | 00:00:00 | 00:00:00 | 00:00:00 | |
| PG1ADW-2 | 2026-08-31 03:04:29 | 47.38723 | 12.21925 | 84° | 110km/h | 12939m | 3.7m/s | -58.1°C | 27.5% | 0hPa | 2.6V | 00:00:00 | 00:00:00 | 00:00:00 | |
| BAUMI2-15 | 2026-08-31 03:04:26 | 47.38714 | 12.21805 | 85° | 108km/h | 12927m | 4.1m/s | -58.0°C | 27.7% | 0hPa | 2.6V | 00:00:00 | 01:18:22 | 00:00:00 | |
| DO3MHA-11 | 2026-08-31 03:04:24 | 47.38708 | 12.21725 | 84° | 110km/h | 12920m | 4.6m/s | -58.0°C | 27.8% | 0hPa | 2.6V | 00:00:00 | 01:18:20 | 00:00:00 | |
| OE5MMP-10 | 2026-08-31 03:04:23 | 47.38705 | 12.21685 | 83° | 110km/h | 12916m | 3.2m/s | -58.0°C | 28.0% | 0hPa | 2.6V | 00:00:00 | 01:18:19 | 00:00:00 | |
| OE5DXL-15 | 2026-08-31 03:04:22 | 47.38701 | 12.21645 | 83° | 113km/h | 12913m | 3.1m/s | -58.0°C | 28.0% | 0hPa | 2.6V | 00:00:00 | 00:00:00 | 00:00:00 | |
| IN3HCDX | 2026-08-31 03:04:21 | 47.38701 | 12.21645 | 83° | 110km/h | 12913m | 3.1m/s | -58.0°C | 21.2% | 0hPa | 2.6V | 00:00:00 | 00:00:00 | 00:00:00 | |
| OE5DRO-10 | 2026-08-31 03:04:18 | 47.38688 | 12.21482 | 84° | 113km/h | 12898m | 3.6m/s | -57.9°C | 28.5% | 0hPa | 2.6V | 00:00:00 | 00:00:00 | 08:30:00 | |
| BAUMI2-15 | 2026-08-31 03:04:16 | 47.38682 | 12.21401 | 85° | 111km/h | 12890m | 4.0m/s | -57.9°C | 28.8% | 0hPa | 2.6V | 00:00:00 | 01:18:12 | 00:00:00 | |
| DO3MHA-11 | 2026-08-31 03:04:14 | 47.38677 | 12.21318 | 84° | 113km/h | 12883m | 4.5m/s | -57.9°C | 28.7% | 0hPa | 2.6V | 00:00:00 | 01:18:10 | 08:30:00 | |
| OE5MMP-10 | 2026-08-31 03:04:13 | 47.38673 | 12.21277 | 84° | 113km/h | 12879m | 3.3m/s | -58.0°C | 28.6% | 0hPa | 2.6V | 00:00:00 | 01:18:09 | 08:30:00 | |
| DO3MHA-12 | 2026-08-31 03:04:12 | 47.38670 | 12.21235 | 84° | 113km/h | 12875m | 4.0m/s | -58.0°C | 28.6% | 0hPa | 2.7V | 00:00:00 | 01:18:08 | 08:30:00 | |
| OE5WHR-10 | 2026-08-31 03:04:11 | 47.38667 | 12.21193 | 85° | 117km/h | 12871m | 3.8m/s | -58.0°C | 28.8% | 0hPa | 2.7V | 00:00:00 | 00:00:00 | 00:00:00 | |
| PG1ADW-2 | 2026-08-31 03:04:09 | 47.38661 | 12.21111 | 84° | 117km/h | 12863m | 3.7m/s | -58.0°C | 29.2% | 0hPa | 2.6V | 00:00:00 | 01:18:05 | 08:30:00 | |
| BAUMI2-15 | 2026-08-31 03:04:06 | 47.38653 | 12.20985 | 85° | 117km/h | 12851m | 2.8m/s | -58.0°C | 29.6% | 0hPa | 2.6V | 00:00:00 | 01:18:02 | 00:00:00 | |
| DL6DJ-15 | 2026-08-31 03:04:05 | 47.38650 | 12.20942 | 84° | 115km/h | 12847m | 4.5m/s | -58.0°C | 22.2% | -1.0hPa | 2.6V | 00:00:00 | 00:00:00 | 00:00:00 | |
| DO3MHA-11 | 2026-08-31 03:04:04 | 47.38647 | 12.20899 | 84° | 117km/h | 12843m | 3.5m/s | -58.0°C | 29.8% | 0hPa | 2.6V | 00:00:00 | 01:18:00 | 00:00:00 | |
| OE5MMP-10 | 2026-08-31 03:04:03 | 47.38643 | 12.20856 | 83° | 117km/h | 12839m | 3.6m/s | -58.0°C | 29.8% | 0hPa | 2.6V | 00:00:00 | 01:17:59 | 00:00:00 | |
| DO3MHA-12 | 2026-08-31 03:04:02 | 47.38640 | 12.20812 | 83° | 117km/h | 12835m | 4.0m/s | -57.9°C | 29.9% | 0hPa | 2.6V | 00:00:00 | 01:17:58 | 00:00:00 | |
| BAUMI2-15 | 2026-08-31 03:04:01 | 47.38636 | 12.20769 | 83° | 117km/h | 12832m | 3.3m/s | -57.9°C | 29.8% | 0hPa | 2.6V | 00:00:00 | 01:17:57 | 00:00:00 | |
| OE5DRO-10 | 2026-08-31 03:03:59 | 47.38628 | 12.20683 | 83° | 117km/h | 12824m | 3.9m/s | -57.9°C | 29.9% | 0hPa | 2.6V | 00:00:00 | 00:00:00 | 00:00:00 | |
| NBG1-10 | 2026-08-31 03:03:56 | 47.38616 | 12.20554 | 82° | 119km/h | 12813m | 4.2m/s | -57.9°C | 30.1% | 0hPa | 2.6V | 00:00:00 | 01:17:52 | 00:00:00 | |
| DO3MHA-11 | 2026-08-31 03:03:54 | 47.38608 | 12.20467 | 82° | 119km/h | 12805m | 4.6m/s | -57.9°C | 30.3% | 0hPa | 2.6V | 00:00:00 | 01:17:50 | 00:00:00 | |
| OE5MMP-10 | 2026-08-31 03:03:53 | 47.38603 | 12.20423 | 83° | 117km/h | 12801m | 3.5m/s | -58.0°C | 30.5% | 0hPa | 2.6V | 00:00:00 | 01:17:49 | 00:00:00 | |
| OE5DXL-15 | 2026-08-31 03:03:52 | 47.38599 | 12.20379 | 82° | 119km/h | 12797m | 4.1m/s | -58.0°C | 30.4% | 0hPa | 2.6V | 00:00:00 | 00:00:00 | 00:00:00 | |
| BAUMI2-15 | 2026-08-31 03:03:51 | 47.38595 | 12.20334 | 82° | 119km/h | 12793m | 3.7m/s | -58.0°C | 30.7% | 0hPa | 2.6V | 00:00:00 | 01:17:47 | 00:00:00 | |
| OE5WHR-10 | 2026-08-31 03:03:50 | 47.38590 | 12.20290 | 82° | 120km/h | 12790m | 3.3m/s | -58.0°C | 30.6% | 0hPa | 2.6V | 00:00:00 | 00:00:00 | 00:00:00 | |
| PG1ADW-2 | 2026-08-31 03:03:49 | 47.38586 | 12.20247 | 83° | 119km/h | 12786m | 4.4m/s | -57.9°C | 30.5% | 0hPa | 2.6V | 00:00:00 | 00:00:00 | 00:00:00 | |
| DG1MFX-10 | 2026-08-31 03:03:48 | 47.38586 | 12.20247 | 84° | 119km/h | 12786m | 4.4m/s | -58.0°C | 23.4% | 0hPa | 2.6V | 00:00:00 | 00:00:00 | 00:00:00 | |
| BAUMI2-15 | 2026-08-31 03:03:46 | 47.38574 | 12.20118 | 82° | 117km/h | 12774m | 2.7m/s | -57.9°C | 30.8% | 0hPa | 2.6V | 00:00:00 | 01:17:42 | 00:00:00 | |
| DO3MHA-11 | 2026-08-31 03:03:44 | 47.38566 | 12.20033 | 83° | 120km/h | 12767m | 3.6m/s | -57.8°C | 30.9% | 0hPa | 2.6V | 00:00:00 | 01:17:40 | 00:00:00 | |
| OE5MMP-10 | 2026-08-31 03:03:43 | 47.38561 | 12.19990 | 82° | 120km/h | 12764m | 3.1m/s | -57.8°C | 30.7% | 0hPa | 2.7V | 00:00:00 | 01:17:39 | 00:00:00 | |
| DO3MHA-12 | 2026-08-31 03:03:42 | 47.38557 | 12.19947 | 81° | 120km/h | 12760m | 3.8m/s | -57.8°C | 30.5% | 0hPa | 2.7V | 00:00:00 | 01:17:38 | 00:00:00 | |
| BAUMI2-15 | 2026-08-31 03:03:41 | 47.38552 | 12.19903 | 81° | 120km/h | 12757m | 3.3m/s | -57.8°C | 30.6% | 0hPa | 2.7V | 00:00:00 | 01:17:37 | 00:00:00 | |
| OE5DRO-10 | 2026-08-31 03:03:40 | 47.38547 | 12.19859 | 81° | 120km/h | 12753m | 4.3m/s | -57.8°C | 30.5% | 0hPa | 2.7V | 00:00:00 | 00:00:00 | 00:00:00 | |
| BAUMI2-15 | 2026-08-31 03:03:36 | 47.38526 | 12.19681 | 81° | 120km/h | 12737m | 4.3m/s | -57.7°C | 30.6% | 0hPa | 2.7V | 00:00:00 | 01:17:32 | 00:00:00 | |
| DO3MHA-11 | 2026-08-31 03:03:34 | 47.38515 | 12.19592 | 81° | 120km/h | 12730m | 4.1m/s | -57.7°C | 30.4% | 0hPa | 2.7V | 00:00:00 | 01:17:30 | 00:00:00 | |
| OE5MMP-10 | 2026-08-31 03:03:33 | 47.38510 | 12.19547 | 81° | 119km/h | 12726m | 3.3m/s | -57.7°C | 30.4% | 0hPa | 2.7V | 00:00:00 | 01:17:29 | 00:00:00 | |
| DO3MHA-12 | 2026-08-31 03:03:32 | 47.38505 | 12.19503 | 81° | 119km/h | 12722m | 4.5m/s | -57.6°C | 30.3% | 0hPa | 2.7V | 00:00:00 | 01:17:28 | 00:00:00 | |
| BAUMI2-15 | 2026-08-31 03:03:31 | 47.38501 | 12.19459 | 82° | 120km/h | 12718m | 3.5m/s | -57.6°C | 30.5% | 0hPa | 2.7V | 00:00:00 | 01:17:27 | 00:00:00 | |
| PG1ADW-2 | 2026-08-31 03:03:29 | 47.38491 | 12.19370 | 81° | 119km/h | 12711m | 4.1m/s | -57.5°C | 30.3% | 0hPa | 2.7V | 00:00:00 | 00:00:00 | 00:00:00 | |
| DG1MFX-10 | 2026-08-31 03:03:27 | 47.38486 | 12.19327 | 81° | 119km/h | 12707m | 3.0m/s | -57.5°C | 23.3% | 0hPa | 2.7V | 00:00:00 | 00:00:00 | 00:00:00 | |
| BAUMI2-15 | 2026-08-31 03:03:26 | 47.38476 | 12.19239 | 81° | 119km/h | 12699m | 3.3m/s | -57.5°C | 30.5% | 0hPa | 2.7V | 00:00:00 | 01:17:22 | 08:30:00 | |
| DO3MHA-11 | 2026-08-31 03:03:24 | 47.38466 | 12.19152 | 80° | 120km/h | 12692m | 3.6m/s | -57.4°C | 30.5% | 0hPa | 2.7V | 00:00:00 | 01:17:20 | 00:00:00 | |
| OE5MMP-10 | 2026-08-31 03:03:23 | 47.38460 | 12.19108 | 81° | 120km/h | 12689m | 2.8m/s | -57.4°C | 30.5% | 0hPa | 2.7V | 00:00:00 | 01:17:19 | 00:00:00 | |
| DO3MHA-12 | 2026-08-31 03:03:22 | 47.38456 | 12.19064 | 81° | 120km/h | 12685m | 3.8m/s | -57.4°C | 30.5% | 0hPa | 2.7V | 00:00:00 | 01:17:18 | 00:00:00 | |
| BAUMI2-15 | 2026-08-31 03:03:21 | 47.38451 | 12.19020 | 81° | 122km/h | 12682m | 3.3m/s | -57.4°C | 30.6% | 0hPa | 2.7V | 00:00:00 | 01:17:17 | 00:00:00 | |
| IN3HCDX | 2026-08-31 03:03:19 | 47.38445 | 12.18975 | 81° | 122km/h | 12678m | 3.8m/s | -57.4°C | 23.7% | 0hPa | 2.7V | 00:00:00 | 00:00:00 | 00:00:00 | |
| BAUMI2-15 | 2026-08-31 03:03:16 | 47.38426 | 12.18795 | 81° | 119km/h | 12664m | 4.2m/s | -57.2°C | 30.5% | 0hPa | 2.7V | 00:00:00 | 01:17:12 | 00:00:00 | |
| DO3MHA-11 | 2026-08-31 03:03:14 | 47.38417 | 12.18706 | 81° | 117km/h | 12657m | 3.8m/s | -57.2°C | 30.5% | 0hPa | 2.7V | 00:00:00 | 01:17:10 | 00:00:00 | |
| OE5MMP-10 | 2026-08-31 03:03:13 | 47.38412 | 12.18662 | 82° | 117km/h | 12653m | 3.3m/s | -57.1°C | 30.6% | 0hPa | 2.6V | 00:00:00 | 01:17:09 | 00:00:00 | |
| DO3MHA-12 | 2026-08-31 03:03:12 | 47.38408 | 12.18619 | 82° | 117km/h | 12650m | 3.4m/s | -57.1°C | 30.6% | 0hPa | 2.6V | 00:00:00 | 01:17:08 | 00:00:00 | |
| BAUMI2-15 | 2026-08-31 03:03:11 | 47.38403 | 12.18577 | 81° | 117km/h | 12646m | 3.7m/s | -57.1°C | 30.7% | 0hPa | 2.6V | 00:00:00 | 01:17:07 | 00:00:00 | |
| PG1ADW-2 | 2026-08-31 03:03:09 | 47.38394 | 12.18492 | 82° | 120km/h | 12639m | 4.1m/s | -57.1°C | 30.8% | 0hPa | 2.7V | 00:00:00 | 00:00:00 | 00:00:00 | |
| BAUMI2-15 | 2026-08-31 03:03:06 | 47.38380 | 12.18362 | 81° | 120km/h | 12629m | 3.5m/s | -57.0°C | 31.0% | 0hPa | 2.6V | 00:00:00 | 01:17:02 | 00:00:00 | |
| OE5WHR-10 | 2026-08-31 03:03:05 | 47.38375 | 12.18318 | 81° | 120km/h | 12625m | 3.4m/s | -57.0°C | 31.1% | 0hPa | 2.6V | 00:00:00 | 00:00:00 | 00:00:00 | |
| DO3MHA-11 | 2026-08-31 03:03:04 | 47.38370 | 12.18274 | 82° | 120km/h | 12621m | 3.8m/s | -57.0°C | 31.3% | 0hPa | 2.6V | 00:00:00 | 01:17:00 | 00:00:00 | |
| OE5MMP-10 | 2026-08-31 03:03:03 | 47.38365 | 12.18230 | 81° | 120km/h | 12618m | 3.1m/s | -57.0°C | 31.5% | 0hPa | 2.6V | 00:00:00 | 01:16:59 | 00:00:00 | |
| DO3MHA-12 | 2026-08-31 03:03:02 | 47.38360 | 12.18186 | 81° | 120km/h | 12614m | 3.8m/s | -57.0°C | 31.6% | 0hPa | 2.6V | 00:00:00 | 01:16:58 | 00:00:00 | |
| BAUMI2-15 | 2026-08-31 03:03:01 | 47.38355 | 12.18142 | 81° | 120km/h | 12611m | 3.5m/s | -57.0°C | 31.9% | 0hPa | 2.6V | 00:00:00 | 01:16:57 | 00:00:00 | |
| IN3HCDX | 2026-08-31 03:02:58 | 47.38346 | 12.18052 | 83° | 120km/h | 12604m | 2.8m/s | -57.0°C | 25.3% | 0hPa | 2.6V | 00:00:00 | 00:00:00 | 00:00:00 | |
| BAUMI2-15 | 2026-08-31 03:02:56 | 47.38333 | 12.17920 | 83° | 119km/h | 12593m | 3.4m/s | -57.0°C | 32.9% | 0hPa | 2.6V | 00:00:00 | 01:16:52 | 00:00:00 | |
| OE3JTB-15 | 2026-08-31 03:02:55 | 47.38329 | 12.17876 | 83° | 119km/h | 12590m | 3.5m/s | -57.0°C | 33.1% | 0hPa | 2.6V | 00:00:00 | 01:16:51 | 00:00:00 | |
| DO3MHA-11 | 2026-08-31 03:02:54 | 47.38325 | 12.17832 | 83° | 120km/h | 12586m | 3.9m/s | -57.0°C | 33.1% | 0hPa | 2.6V | 00:00:00 | 01:16:50 | 00:00:00 | |
| OE5MMP-10 | 2026-08-31 03:02:53 | 47.38320 | 12.17788 | 82° | 120km/h | 12582m | 3.1m/s | -56.9°C | 0% | 0hPa | 2.6V | 00:00:00 | 01:16:49 | 00:00:00 | |
| DB0UT-7 | 2026-08-31 03:02:52 | 47.38316 | 12.17744 | 83° | 119km/h | 12579m | 3.3m/s | -56.9°C | 33.2% | 0hPa | 2.6V | 00:00:00 | 00:00:00 | 00:00:00 | |
| BAUMI2-15 | 2026-08-31 03:02:51 | 47.38312 | 12.17699 | 83° | 120km/h | 12575m | 3.6m/s | -56.9°C | 33.2% | 0hPa | 2.6V | 00:00:00 | 01:16:47 | 00:00:00 | |
| NBG1-10 | 2026-08-31 03:02:50 | 47.38308 | 12.17655 | 83° | 119km/h | 12572m | 2.3m/s | -56.9°C | 33.1% | 0hPa | 2.6V | 00:00:00 | 01:16:46 | 00:00:00 | |
| PG1ADW-2 | 2026-08-31 03:02:49 | 47.38304 | 12.17610 | 83° | 117km/h | 12569m | 3.6m/s | -56.9°C | 32.9% | 0hPa | 2.7V | 00:00:00 | 01:16:45 | 00:00:00 | |
| DG1MFX-10 | 2026-08-31 03:02:45 | 47.38292 | 12.17477 | 84° | 120km/h | 12559m | 3.1m/s | -56.9°C | 26.0% | 0hPa | 2.7V | 00:00:00 | 00:00:00 | 00:00:00 | |
| OE5WHR-10 | 2026-08-31 03:02:44 | 47.38284 | 12.17390 | 82° | 117km/h | 12552m | 3.0m/s | -56.9°C | 33.4% | 0hPa | 2.7V | 00:00:00 | 00:00:00 | 00:00:00 | |
| OE5MMP-10 | 2026-08-31 03:02:43 | 47.38280 | 12.17347 | 83° | 119km/h | 12548m | 3.9m/s | 0°C | 0% | 0hPa | 2.7V | 00:00:00 | 01:16:39 | 08:30:00 | |
| DO3MHA-12 | 2026-08-31 03:02:42 | 47.38275 | 12.17303 | 82° | 117km/h | 12544m | 3.2m/s | -56.9°C | 33.5% | 0hPa | 2.7V | 00:00:00 | 01:16:38 | 08:30:00 | |
| IN3HCDX | 2026-08-31 03:02:37 | 47.38256 | 12.17129 | 81° | 119km/h | 12531m | 3.9m/s | -56.8°C | 26.1% | 0hPa | 2.6V | 00:00:00 | 00:00:00 | 00:00:00 | |
| DO3MHA-11 | 2026-08-31 03:02:34 | 47.38234 | 12.16957 | 79° | 115km/h | 12516m | 4.1m/s | -56.7°C | 33.3% | 0hPa | 2.6V | 00:00:00 | 01:16:30 | 00:00:00 | |
| OE5MMP-10 | 2026-08-31 03:02:33 | 47.38228 | 12.16915 | 80° | 117km/h | 12512m | 3.3m/s | 0°C | 0% | 0hPa | 2.6V | 00:00:00 | 01:16:29 | 00:00:00 | |
| DL6DJ-15 | 2026-08-31 03:02:32 | 47.38218 | 12.16830 | 79° | 113km/h | 12505m | 4.0m/s | -56.7°C | 25.8% | -1.0hPa | 2.6V | 00:00:00 | 00:00:00 | 00:00:00 | |
| PG1ADW-2 | 2026-08-31 03:02:29 | 47.38207 | 12.16747 | 80° | 119km/h | 12499m | 3.2m/s | -56.6°C | 33.5% | 0hPa | 2.6V | 00:00:00 | 00:00:00 | 00:00:00 | |
| OE3JTB-15 | 2026-08-31 03:02:26 | 47.38190 | 12.16619 | 78° | 120km/h | 12489m | 3.4m/s | -56.6°C | 33.6% | 0hPa | 2.6V | 00:00:00 | 00:00:00 | 00:00:00 | |
| DG1MFX-10 | 2026-08-31 03:02:25 | 47.38190 | 12.16619 | 79° | 117km/h | 12489m | 3.5m/s | -56.7°C | 26.4% | 0hPa | 2.6V | 00:00:00 | 00:00:00 | 00:00:00 | |
| DO3MHA-11 | 2026-08-31 03:02:24 | 47.38178 | 12.16534 | 79° | 119km/h | 12483m | 3.8m/s | -56.7°C | 33.8% | 0hPa | 2.6V | 00:00:00 | 01:16:20 | 00:00:00 | |
| OE5MMP-10 | 2026-08-31 03:02:23 | 47.38171 | 12.16490 | 79° | 119km/h | 12479m | 2.9m/s | 0°C | 0% | 0hPa | 2.6V | 00:00:00 | 01:16:19 | 00:00:00 | |
| OE5DXL-15 | 2026-08-31 03:02:22 | 47.38165 | 12.16446 | 78° | 122km/h | 12476m | 3.9m/s | -56.7°C | 33.8% | 0hPa | 2.6V | 00:00:00 | 00:00:00 | 00:00:00 | |
| NBG1-10 | 2026-08-31 03:02:17 | 47.38135 | 12.16231 | 78° | 122km/h | 12459m | 3.0m/s | -56.8°C | 34.2% | 0hPa | 2.6V | 00:00:00 | 01:16:13 | 00:00:00 | |
| IN3HCDX | 2026-08-31 03:02:15 | 47.38129 | 12.16188 | 78° | 119km/h | 12456m | 2.8m/s | -56.8°C | 26.8% | 0hPa | 2.6V | 00:00:00 | 00:00:00 | 00:00:00 | |
| DO3MHA-11 | 2026-08-31 03:02:14 | 47.38115 | 12.16102 | 77° | 120km/h | 12450m | 2.4m/s | -56.8°C | 34.4% | 0hPa | 2.6V | 00:00:00 | 01:16:10 | 00:00:00 | |
| OE5MMP-10 | 2026-08-31 03:02:13 | 47.38108 | 12.16059 | 77° | 120km/h | 12447m | 3.2m/s | 0°C | 0% | 0hPa | 2.7V | 00:00:00 | 01:16:09 | 00:00:00 | |
| DO3MHA-12 | 2026-08-31 03:02:12 | 47.38101 | 12.16016 | 76° | 122km/h | 12444m | 2.9m/s | -56.7°C | 34.3% | 0hPa | 2.7V | 00:00:00 | 01:16:08 | 00:00:00 | |
| PG1ADW-2 | 2026-08-31 03:02:09 | 47.38079 | 12.15886 | 77° | 124km/h | 12434m | 3.0m/s | -56.7°C | 34.2% | 0hPa | 2.6V | 00:00:00 | 00:00:00 | 00:00:00 | |
| OE5DRO-10 | 2026-08-31 03:02:05 | 47.38051 | 12.15708 | 77° | 124km/h | 12422m | 2.8m/s | -56.6°C | 34.5% | 0hPa | 2.6V | 00:00:00 | 00:00:00 | 00:00:00 | |
| DO3MHA-11 | 2026-08-31 03:02:04 | 47.38043 | 12.15663 | 77° | 124km/h | 12418m | 3.7m/s | -56.6°C | 34.5% | 0hPa | 2.6V | 00:00:00 | 01:16:00 | 00:00:00 | |
| DO3MHA-12 | 2026-08-31 03:02:02 | 47.38028 | 12.15573 | 77° | 124km/h | 12413m | 3.6m/s | -56.5°C | 34.6% | 0hPa | 2.6V | 00:00:00 | 01:15:58 | 00:00:00 | |
| DL6DJ-15 | 2026-08-31 03:02:01 | 47.38000 | 12.15392 | 76° | 124km/h | 12401m | 2.8m/s | -56.6°C | 27.4% | -1.0hPa | 2.6V | 00:00:00 | 00:00:00 | 00:00:00 | |
| OE3JTB-15 | 2026-08-31 03:01:57 | 47.37993 | 12.15346 | 78° | 124km/h | 12398m | 3.7m/s | -56.5°C | 35.3% | 0hPa | 2.6V | 00:00:00 | 00:00:00 | 00:00:00 | |
| DO3MHA-11 | 2026-08-31 03:01:54 | 47.37973 | 12.15211 | 77° | 122km/h | 12389m | 3.2m/s | -56.5°C | 35.5% | 0hPa | 2.6V | 00:00:00 | 01:15:50 | 00:00:00 | |
| OE5MMP-10 | 2026-08-31 03:01:53 | 47.37965 | 12.15166 | 77° | 122km/h | 12386m | 2.6m/s | 0°C | 0% | 0hPa | 2.6V | 00:00:00 | 01:15:49 | 00:00:00 | |
| OE5DXL-15 | 2026-08-31 03:01:52 | 47.37958 | 12.15122 | 77° | 124km/h | 12383m | 3.8m/s | -56.5°C | 35.4% | 0hPa | 2.6V | 00:00:00 | 00:00:00 | 00:00:00 | |
| PG1ADW-2 | 2026-08-31 03:01:49 | 47.37937 | 12.14990 | 77° | 124km/h | 12373m | 2.7m/s | -56.6°C | 35.6% | 0hPa | 2.6V | 00:00:00 | 00:00:00 | 00:00:00 | |
| OE5DRO-10 | 2026-08-31 03:01:46 | 47.37917 | 12.14857 | 78° | 124km/h | 12363m | 3.2m/s | -56.7°C | 35.9% | 0hPa | 2.6V | 00:00:00 | 00:00:00 | 00:00:00 | |
| NBG1-10 | 2026-08-31 03:01:44 | 47.37903 | 12.14769 | 78° | 126km/h | 12358m | 2.5m/s | -56.7°C | 36.3% | 0hPa | 2.6V | 00:00:00 | 01:15:40 | 00:00:00 | |
| OE5MMP-10 | 2026-08-31 03:01:43 | 47.37896 | 12.14724 | 79° | 124km/h | 12354m | 3.4m/s | 0°C | 0% | 0hPa | 2.6V | 00:00:00 | 01:15:39 | 00:00:00 | |
| DO3MHA-12 | 2026-08-31 03:01:42 | 47.37890 | 12.14679 | 79° | 124km/h | 12351m | 3.0m/s | -56.8°C | 36.8% | 0hPa | 2.6V | 00:00:00 | 01:15:38 | 00:00:00 | |
| OE5WHR-10 | 2026-08-31 03:01:40 | 47.37878 | 12.14589 | 80° | 126km/h | 12345m | 2.5m/s | -56.8°C | 37.4% | 0hPa | 2.7V | 00:00:00 | 00:00:00 | 00:00:00 | |
| DO3MHA-11 | 2026-08-31 03:01:34 | 47.37844 | 12.14316 | 80° | 126km/h | 12327m | 3.4m/s | -56.8°C | 37.9% | 0hPa | 2.7V | 00:00:00 | 01:15:30 | 00:00:00 | |
| OE5MMP-10 | 2026-08-31 03:01:33 | 47.37838 | 12.14270 | 80° | 128km/h | 12324m | 2.8m/s | 0°C | 0% | 0hPa | 2.7V | 00:00:00 | 01:15:29 | 00:00:00 | |
| DO3MHA-12 | 2026-08-31 03:01:32 | 47.37833 | 12.14223 | 80° | 128km/h | 12321m | 3.5m/s | -56.8°C | 38.2% | 0hPa | 2.7V | 00:00:00 | 01:15:28 | 00:00:00 | |
| PG1ADW-2 | 2026-08-31 03:01:29 | 47.37817 | 12.14084 | 82° | 128km/h | 12312m | 2.7m/s | -56.8°C | 38.4% | 0hPa | 2.7V | 00:00:00 | 01:15:25 | 00:00:00 | |
| OE3JTB-15 | 2026-08-31 03:01:28 | 47.37812 | 12.14036 | 82° | 128km/h | 12308m | 3.6m/s | -56.8°C | 38.3% | 0hPa | 2.7V | 00:00:00 | 01:15:24 | 00:00:00 | |
| OE5DRO-10 | 2026-08-31 03:01:27 | 47.37807 | 12.13990 | 82° | 128km/h | 12305m | 2.6m/s | -56.8°C | 38.6% | 0hPa | 2.7V | 00:00:00 | 00:00:00 | 08:30:00 | |
| DO3MHA-11 | 2026-08-31 03:01:24 | 47.37792 | 12.13849 | 81° | 130km/h | 12296m | 2.5m/s | -56.7°C | 38.7% | 0hPa | 2.6V | 00:00:00 | 01:15:20 | 00:00:00 | |
| OE5MMP-10 | 2026-08-31 03:01:23 | 47.37787 | 12.13802 | 81° | 128km/h | 12293m | 3.6m/s | 0°C | 0% | 0hPa | 2.6V | 00:00:00 | 01:15:19 | 00:00:00 | |
| OE5WHR-10 | 2026-08-31 03:01:19 | 47.37765 | 12.13611 | 82° | 130km/h | 12280m | 3.1m/s | -56.7°C | 39.1% | 0hPa | 2.6V | 00:00:00 | 01:15:15 | 00:00:00 | |
| DO3MHA-11 | 2026-08-31 03:01:14 | 47.37743 | 12.13375 | 83° | 128km/h | 12266m | 3.4m/s | -56.7°C | 40.0% | 0hPa | 2.6V | 00:00:00 | 01:15:10 | 08:30:00 | |
| OE5MMP-10 | 2026-08-31 03:01:13 | 47.37738 | 12.13329 | 82° | 128km/h | 12263m | 2.4m/s | 0°C | 0% | 0hPa | 2.7V | 00:00:00 | 01:15:09 | 00:00:00 | |
| DO3MHA-12 | 2026-08-31 03:01:12 | 47.37734 | 12.13282 | 83° | 128km/h | 12260m | 3.3m/s | -56.7°C | 40.2% | 0hPa | 2.7V | 00:00:00 | 01:15:08 | 08:30:00 | |
| NBG1-10 | 2026-08-31 03:01:11 | 47.37730 | 12.13235 | 83° | 131km/h | 12257m | 2.5m/s | -56.7°C | 40.4% | 0hPa | 2.7V | 00:00:00 | 01:15:07 | 00:00:00 | |
| PG1ADW-2 | 2026-08-31 03:01:09 | 47.37721 | 12.13141 | 83° | 131km/h | 12251m | 2.2m/s | -56.7°C | 40.7% | 0hPa | 2.6V | 00:00:00 | 00:00:00 | 08:30:00 | |
| OE5DRO-10 | 2026-08-31 03:01:08 | 47.37717 | 12.13094 | 84° | 131km/h | 12248m | 3.6m/s | -56.8°C | 40.7% | 0hPa | 2.6V | 00:00:00 | 00:00:00 | 00:00:00 | |
| DO3MHA-11 | 2026-08-31 03:01:04 | 47.37703 | 12.12903 | 85° | 131km/h | 12236m | 3.2m/s | -56.8°C | 41.7% | 0hPa | 2.6V | 00:00:00 | 01:15:00 | 00:00:00 | |
| DG1MFX-10 | 2026-08-31 03:01:03 | 47.37703 | 12.12903 | 85° | 131km/h | 12236m | 3.2m/s | -56.9°C | 33.5% | 0hPa | 2.6V | 00:00:00 | 00:00:00 | 00:00:00 | |
| DO3MHA-12 | 2026-08-31 03:01:02 | 47.37696 | 12.12805 | 84° | 131km/h | 12230m | 3.4m/s | -56.8°C | 42.0% | 0hPa | 2.6V | 00:00:00 | 01:14:58 | 00:00:00 | |
| OE3JTB-15 | 2026-08-31 03:00:59 | 47.37684 | 12.12660 | 82° | 133km/h | 12221m | 2.9m/s | -56.8°C | 42.1% | 0hPa | 2.6V | 00:00:00 | 00:00:00 | 08:30:00 | |
| OE5WHR-10 | 2026-08-31 03:00:58 | 47.37679 | 12.12610 | 82° | 133km/h | 12218m | 3.0m/s | -56.7°C | 42.0% | 0hPa | 2.6V | 00:00:00 | 00:00:00 | 00:00:00 | |
| DB0NH | 2026-08-31 03:00:55 | 47.37663 | 12.12465 | 82° | 133km/h | 12210m | 2.8m/s | -56.7°C | 42.2% | 0hPa | 2.7V | 00:00:00 | 01:14:51 | 00:00:00 | |
| DO3MHA-11 | 2026-08-31 03:00:54 | 47.37658 | 12.12416 | 82° | 133km/h | 12207m | 2.8m/s | -56.7°C | 42.1% | 0hPa | 2.7V | 00:00:00 | 01:14:50 | 00:00:00 | |
| DO3MHA-12 | 2026-08-31 03:00:52 | 47.37649 | 12.12319 | 82° | 133km/h | 12201m | 3.0m/s | -56.7°C | 41.5% | 0hPa | 2.7V | 00:00:00 | 01:14:48 | 00:00:00 | |
| OE5DRO-10 | 2026-08-31 03:00:49 | 47.37635 | 12.12170 | 83° | 133km/h | 12193m | 3.4m/s | -56.7°C | 41.5% | 0hPa | 2.7V | 00:00:00 | 00:00:00 | 00:00:00 | |
| DO3MHA-11 | 2026-08-31 03:00:44 | 47.37614 | 12.11923 | 84° | 131km/h | 12177m | 2.2m/s | -56.6°C | 42.9% | 0hPa | 2.7V | 00:00:00 | 01:14:40 | 00:00:00 | |
| DO3MHA-12 | 2026-08-31 03:00:42 | 47.37606 | 12.11825 | 83° | 131km/h | 12172m | 2.5m/s | -56.6°C | 43.4% | 0hPa | 2.7V | 00:00:00 | 01:14:38 | 00:00:00 | |
| BAUMI2-15 | 2026-08-31 03:00:41 | 47.37601 | 12.11775 | 83° | 133km/h | 12170m | 1.8m/s | -56.5°C | 43.1% | 0hPa | 2.6V | 00:00:00 | 01:14:37 | 08:30:00 | |
| NBG1-10 | 2026-08-31 03:00:38 | 47.37588 | 12.11629 | 83° | 135km/h | 12161m | 3.3m/s | -56.5°C | 42.8% | 0hPa | 2.7V | 00:00:00 | 01:14:34 | 00:00:00 | |
| OE5WHR-10 | 2026-08-31 03:00:37 | 47.37583 | 12.11580 | 83° | 135km/h | 12158m | 2.6m/s | -56.5°C | 42.9% | 0hPa | 2.7V | 00:00:00 | 00:00:00 | 00:00:00 | |
| BAUMI2-15 | 2026-08-31 03:00:36 | 47.37579 | 12.11532 | 83° | 131km/h | 12155m | 3.5m/s | -56.5°C | 43.1% | 0hPa | 2.7V | 00:00:00 | 01:14:32 | 00:00:00 | |
| DO3MHA-11 | 2026-08-31 03:00:34 | 47.37571 | 12.11435 | 84° | 133km/h | 12149m | 3.5m/s | -56.4°C | 43.1% | 0hPa | 2.7V | 00:00:00 | 01:14:30 | 00:00:00 | |
| DO3MHA-12 | 2026-08-31 03:00:32 | 47.37564 | 12.11336 | 84° | 133km/h | 12143m | 3.4m/s | -56.4°C | 43.1% | 0hPa | 2.7V | 00:00:00 | 01:14:28 | 00:00:00 | |
| BAUMI2-15 | 2026-08-31 03:00:31 | 47.37560 | 12.11288 | 84° | 133km/h | 12140m | 2.7m/s | -56.4°C | 43.4% | 0hPa | 2.7V | 00:00:00 | 01:14:27 | 00:00:00 | |
| OE3JTB-15 | 2026-08-31 03:00:30 | 47.37557 | 12.11238 | 84° | 137km/h | 12137m | 3.6m/s | -56.4°C | 43.3% | 0hPa | 2.7V | 00:00:00 | 00:00:00 | 00:00:00 | |
| PG1ADW-2 | 2026-08-31 03:00:29 | 47.37553 | 12.11189 | 84° | 135km/h | 12133m | 2.8m/s | -56.4°C | 43.5% | 0hPa | 2.7V | 00:00:00 | 00:00:00 | 00:00:00 | |
| DL6DJ-15 | 2026-08-31 03:00:27 | 47.37546 | 12.11091 | 84° | 131km/h | 12128m | 2.4m/s | -56.4°C | 34.9% | -1.0hPa | 2.7V | 00:00:00 | 00:00:00 | 00:00:00 | |
| BAUMI2-15 | 2026-08-31 03:00:26 | 47.37543 | 12.11042 | 85° | 135km/h | 12125m | 3.7m/s | -56.4°C | 43.5% | 0hPa | 2.7V | 00:00:00 | 01:14:22 | 00:00:00 | |
| DB0NH | 2026-08-31 03:00:25 | 47.37539 | 12.10992 | 84° | 137km/h | 12122m | 2.8m/s | -56.3°C | 43.8% | 0hPa | 2.7V | 00:00:00 | 01:14:21 | 08:30:00 | |
| DO3MHA-11 | 2026-08-31 03:00:24 | 47.37536 | 12.10941 | 84° | 135km/h | 12119m | 2.9m/s | -56.3°C | 43.6% | 0hPa | 2.7V | 00:00:00 | 01:14:20 | 00:00:00 | |
| DB0UT-7 | 2026-08-31 03:00:22 | 47.37529 | 12.10842 | 85° | 137km/h | 12113m | 2.1m/s | -56.3°C | 43.9% | 0hPa | 2.7V | 00:00:00 | 01:14:18 | 00:00:00 | |
| BAUMI2-15 | 2026-08-31 03:00:21 | 47.37525 | 12.10792 | 85° | 135km/h | 12110m | 3.4m/s | -56.3°C | 43.8% | 0hPa | 2.7V | 00:00:00 | 01:14:17 | 00:00:00 | |
| OE5WHR-10 | 2026-08-31 03:00:16 | 47.37510 | 12.10539 | 86° | 139km/h | 12096m | 3.3m/s | -56.2°C | 43.7% | 0hPa | 2.7V | 00:00:00 | 01:14:12 | 00:00:00 | |
| DO3MHA-12 | 2026-08-31 03:00:12 | 47.37499 | 12.10336 | 86° | 139km/h | 12083m | 2.7m/s | -56.1°C | 43.5% | 0hPa | 2.7V | 00:00:00 | 01:14:08 | 00:00:00 | |
| BAUMI2-15 | 2026-08-31 03:00:11 | 47.37496 | 12.10284 | 87° | 139km/h | 12080m | 3.2m/s | -56.1°C | 43.1% | 0hPa | 2.6V | 00:00:00 | 01:14:07 | 00:00:00 | |
| PG1ADW-2 | 2026-08-31 03:00:09 | 47.37491 | 12.10180 | 87° | 139km/h | 12074m | 3.5m/s | -56.1°C | 42.8% | 0hPa | 2.7V | 00:00:00 | 01:14:05 | 00:00:00 | |
| BAUMI2-15 | 2026-08-31 03:00:06 | 47.37483 | 12.10025 | 86° | 139km/h | 12064m | 2.7m/s | -56.0°C | 43.0% | 0hPa | 2.7V | 00:00:00 | 01:14:02 | 00:00:00 | |
| NBG1-10 | 2026-08-31 03:00:05 | 47.37480 | 12.09974 | 86° | 137km/h | 12062m | 2.5m/s | -55.9°C | 42.8% | 0hPa | 2.7V | 00:00:00 | 01:14:01 | 00:00:00 | |
| DO3MHA-11 | 2026-08-31 03:00:04 | 47.37477 | 12.09922 | 86° | 137km/h | 12059m | 3.6m/s | -55.9°C | 42.6% | 0hPa | 2.7V | 00:00:00 | 01:14:00 | 00:00:00 | |
| DO3MHA-12 | 2026-08-31 03:00:02 | 47.37471 | 12.09819 | 86° | 137km/h | 12053m | 3.3m/s | -55.9°C | 42.4% | 0hPa | 2.7V | 00:00:00 | 01:13:58 | 00:00:00 | |
| BAUMI2-15 | 2026-08-31 03:00:01 | 47.37469 | 12.09769 | 86° | 137km/h | 12050m | 2.7m/s | -55.8°C | 42.5% | 0hPa | 2.7V | 00:00:00 | 01:13:57 | 00:00:00 | |
| DG1MFX-10 | 2026-08-31 03:00:00 | 47.37469 | 12.09768 | 86° | 137km/h | 12050m | 2.8m/s | -55.9°C | 34.4% | 0hPa | 2.7V | 00:00:00 | 00:00:00 | 00:00:00 | |
| IN3IJJ | 2026-08-31 02:59:57 | 47.37460 | 12.09616 | 87° | 137km/h | 12041m | 3.7m/s | 0°C | 0% | 0hPa | 2.7V | 00:00:00 | 00:00:00 | 00:00:00 | |
| BAUMI2-15 | 2026-08-31 02:59:56 | 47.37455 | 12.09514 | 86° | 137km/h | 12034m | 4.0m/s | -55.7°C | 42.4% | 0hPa | 2.7V | 00:00:00 | 01:13:52 | 08:30:00 | |
| DB0NH | 2026-08-31 02:59:55 | 47.37452 | 12.09463 | 86° | 135km/h | 12030m | 2.6m/s | -55.7°C | 42.7% | 0hPa | 2.7V | 00:00:00 | 01:13:51 | 00:00:00 | |
| DO3MHA-11 | 2026-08-31 02:59:54 | 47.37449 | 12.09412 | 86° | 137km/h | 12027m | 3.3m/s | -55.7°C | 42.6% | 0hPa | 2.7V | 00:00:00 | 01:13:50 | 00:00:00 | |
| DB0UT-7 | 2026-08-31 02:59:52 | 47.37445 | 12.09310 | 87° | 135km/h | 12021m | 2.7m/s | -55.6°C | 42.6% | 0hPa | 2.7V | 00:00:00 | 00:00:00 | 00:00:00 | |
| BAUMI2-15 | 2026-08-31 02:59:51 | 47.37442 | 12.09259 | 86° | 137km/h | 12019m | 3.1m/s | -55.6°C | 42.8% | 0hPa | 2.7V | 00:00:00 | 01:13:47 | 00:00:00 | |
| PG1ADW-2 | 2026-08-31 02:59:49 | 47.37437 | 12.09156 | 86° | 137km/h | 12013m | 3.5m/s | 0°C | 0% | 0hPa | 2.7V | 00:00:00 | 00:00:00 | 00:00:00 | |
| BAUMI2-15 | 2026-08-31 02:59:46 | 47.37429 | 12.09003 | 85° | 137km/h | 12004m | 3.2m/s | -55.5°C | 42.6% | 0hPa | 2.7V | 00:00:00 | 01:13:42 | 00:00:00 | |
| DO3MHA-11 | 2026-08-31 02:59:44 | 47.37423 | 12.08901 | 86° | 137km/h | 11997m | 4.2m/s | -55.5°C | 42.4% | 0hPa | 2.7V | 00:00:00 | 01:13:40 | 08:30:00 | |
| DO3MHA-12 | 2026-08-31 02:59:42 | 47.37418 | 12.08799 | 86° | 135km/h | 11991m | 3.8m/s | -55.5°C | 42.7% | 0hPa | 2.7V | 00:00:00 | 01:13:38 | 08:30:00 | |
| BAUMI2-15 | 2026-08-31 02:59:41 | 47.37414 | 12.08747 | 85° | 135km/h | 11987m | 2.5m/s | -55.5°C | 43.0% | 0hPa | 2.6V | 00:00:00 | 01:13:37 | 00:00:00 | |
| DG1MFX-10 | 2026-08-31 02:59:39 | 47.37411 | 12.08696 | 86° | 137km/h | 11984m | 3.0m/s | -55.5°C | 34.7% | 0hPa | 2.7V | 00:00:00 | 00:00:00 | 00:00:00 | |
| BAUMI2-15 | 2026-08-31 02:59:36 | 47.37398 | 12.08496 | 85° | 135km/h | 11972m | 3.2m/s | -55.4°C | 42.6% | 0hPa | 2.7V | 00:00:00 | 01:13:32 | 00:00:00 | |
| OE5WHR-10 | 2026-08-31 02:59:34 | 47.37391 | 12.08396 | 85° | 133km/h | 11965m | 3.1m/s | -55.4°C | 42.3% | 0hPa | 2.7V | 00:00:00 | 00:00:00 | 00:00:00 | |
| OE5DRO-10 | 2026-08-31 02:59:33 | 47.37388 | 12.08346 | 84° | 133km/h | 11962m | 3.6m/s | -55.4°C | 42.4% | 0hPa | 2.7V | 00:00:00 | 00:00:00 | 00:00:00 | |
| DO3MHA-12 | 2026-08-31 02:59:32 | 47.37384 | 12.08296 | 85° | 133km/h | 11959m | 2.7m/s | -55.3°C | 42.4% | 0hPa | 2.7V | 00:00:00 | 01:13:28 | 00:00:00 | |
| BAUMI2-15 | 2026-08-31 02:59:31 | 47.37381 | 12.08246 | 85° | 133km/h | 11955m | 4.2m/s | -55.3°C | 42.3% | 0hPa | 2.7V | 00:00:00 | 01:13:27 | 00:00:00 | |
| PG1ADW-2 | 2026-08-31 02:59:29 | 47.37375 | 12.08147 | 85° | 135km/h | 11949m | 3.3m/s | 0°C | 0% | 0hPa | 2.7V | 00:00:00 | 00:00:00 | 00:00:00 | |
| BAUMI2-15 | 2026-08-31 02:59:26 | 47.37365 | 12.07999 | 86° | 135km/h | 11939m | 4.0m/s | -55.2°C | 41.9% | 0hPa | 2.7V | 00:00:00 | 01:13:22 | 00:00:00 | |
| DB0NH | 2026-08-31 02:59:25 | 47.37362 | 12.07949 | 85° | 135km/h | 11935m | 2.6m/s | -55.1°C | 42.0% | 0hPa | 2.7V | 00:00:00 | 01:13:21 | 00:00:00 | |
| DO3MHA-11 | 2026-08-31 02:59:24 | 47.37359 | 12.07899 | 85° | 135km/h | 11932m | 3.5m/s | -55.1°C | 41.6% | 0hPa | 2.7V | 00:00:00 | 01:13:20 | 00:00:00 | |
| IN3HCDX | 2026-08-31 02:59:23 | 47.37359 | 12.07899 | 85° | 135km/h | 11932m | 3.6m/s | -55.1°C | 33.8% | 0hPa | 2.7V | 00:00:00 | 00:00:00 | 00:00:00 | |
| DO3MHA-12 | 2026-08-31 02:59:22 | 47.37351 | 12.07799 | 84° | 133km/h | 11925m | 3.5m/s | -55.0°C | 41.7% | 0hPa | 2.7V | 00:00:00 | 01:13:18 | 00:00:00 | |
| BAUMI2-15 | 2026-08-31 02:59:21 | 47.37347 | 12.07748 | 84° | 133km/h | 11922m | 3.8m/s | -55.0°C | 41.8% | 0hPa | 2.7V | 00:00:00 | 01:13:17 | 00:00:00 | |
| DG1MFX-10 | 2026-08-31 02:59:19 | 47.37343 | 12.07698 | 84° | 135km/h | 11918m | 3.4m/s | -55.0°C | 34.0% | 0hPa | 2.7V | 00:00:00 | 00:00:00 | 00:00:00 | |
| BAUMI2-15 | 2026-08-31 02:59:16 | 47.37327 | 12.07501 | 85° | 133km/h | 11905m | 2.5m/s | -54.9°C | 42.4% | 0hPa | 2.7V | 00:00:00 | 01:13:12 | 00:00:00 | |
| DO3MHA-11 | 2026-08-31 02:59:14 | 47.37319 | 12.07403 | 84° | 137km/h | 11899m | 3.1m/s | -54.8°C | 42.2% | 0hPa | 2.7V | 00:00:00 | 01:13:10 | 00:00:00 | |
| OE5WHR-10 | 2026-08-31 02:59:13 | 47.37316 | 12.07353 | 84° | 135km/h | 11895m | 3.4m/s | -54.8°C | 42.1% | 0hPa | 2.7V | 00:00:00 | 01:13:09 | 00:00:00 | |
| DO3MHA-12 | 2026-08-31 02:59:12 | 47.37312 | 12.07303 | 85° | 137km/h | 11892m | 4.0m/s | -54.8°C | 42.2% | 0hPa | 2.7V | 00:00:00 | 01:13:08 | 00:00:00 | |
| BAUMI2-15 | 2026-08-31 02:59:11 | 47.37308 | 12.07253 | 84° | 139km/h | 11888m | 3.0m/s | -54.8°C | 42.3% | 0hPa | 2.7V | 00:00:00 | 01:13:07 | 08:30:00 | |
| PG1ADW-2 | 2026-08-31 02:59:09 | 47.37300 | 12.07151 | 84° | 137km/h | 11881m | 2.9m/s | 0°C | 0% | 0hPa | 2.7V | 00:00:00 | 00:00:00 | 00:00:00 | |
| BAUMI2-15 | 2026-08-31 02:59:06 | 47.37288 | 12.06998 | 83° | 133km/h | 11871m | 3.6m/s | -54.7°C | 43.5% | 0hPa | 2.7V | 00:00:00 | 01:13:02 | 00:00:00 | |
| DO3MHA-11 | 2026-08-31 02:59:04 | 47.37280 | 12.06899 | 84° | 133km/h | 11865m | 3.8m/s | -54.7°C | 43.9% | 0hPa | 2.7V | 00:00:00 | 01:13:00 | 00:00:00 | |
| BAUMI2-15 | 2026-08-31 02:59:01 | 47.37267 | 12.06751 | 83° | 133km/h | 11855m | 3.4m/s | -54.6°C | 45.0% | 0hPa | 2.7V | 00:00:00 | 01:12:57 | 00:00:00 | |
| NBG1-10 | 2026-08-31 02:58:59 | 47.37258 | 12.06653 | 83° | 137km/h | 11848m | 2.9m/s | -54.6°C | 45.8% | 0hPa | 2.7V | 00:00:00 | 01:12:55 | 00:00:00 | |
| BAUMI2-15 | 2026-08-31 02:58:56 | 47.37245 | 12.06505 | 84° | 135km/h | 11837m | 4.2m/s | -54.5°C | 47.0% | 0hPa | 2.7V | 00:00:00 | 01:12:52 | 00:00:00 | |
| OE5DRO-10 | 2026-08-31 02:58:55 | 47.37241 | 12.06455 | 84° | 137km/h | 11834m | 2.8m/s | -54.5°C | 47.3% | 0hPa | 2.7V | 00:00:00 | 00:00:00 | 00:00:00 | |
| DO3MHA-11 | 2026-08-31 02:58:54 | 47.37237 | 12.06405 | 84° | 137km/h | 11830m | 3.6m/s | -54.5°C | 47.2% | 0hPa | 2.7V | 00:00:00 | 01:12:50 | 00:00:00 | |
| DO3MHA-11 | 2026-08-31 02:58:44 | 47.37199 | 12.05898 | 84° | 139km/h | 11793m | 3.7m/s | -54.3°C | 50.9% | 0hPa | 2.7V | 00:00:00 | 01:12:40 | 00:00:00 | |
| DO3MHA-12 | 2026-08-31 02:58:42 | 47.37191 | 12.05797 | 83° | 139km/h | 11786m | 3.8m/s | -54.3°C | 51.5% | 0hPa | 2.7V | 00:00:00 | 01:12:38 | 00:00:00 | |
| IN3HCDX | 2026-08-31 02:58:41 | 47.37191 | 12.05797 | 84° | 137km/h | 11786m | 3.8m/s | -54.3°C | 42.8% | 0hPa | 2.7V | 00:00:00 | 00:00:00 | 00:00:00 | |
| DG1MFX-10 | 2026-08-31 02:58:38 | 47.37177 | 12.05644 | 84° | 137km/h | 11775m | 3.8m/s | -54.3°C | 43.9% | 0hPa | 2.7V | 00:00:00 | 00:00:00 | 00:00:00 | |
| OE5DRO-10 | 2026-08-31 02:58:36 | 47.37164 | 12.05488 | 83° | 141km/h | 11763m | 3.5m/s | -54.2°C | 53.5% | 0hPa | 2.7V | 00:00:00 | 00:00:00 | 08:30:00 | |
| DO3MHA-11 | 2026-08-31 02:58:34 | 47.37156 | 12.05384 | 85° | 141km/h | 11755m | 3.5m/s | -54.1°C | 54.2% | 0hPa | 2.7V | 00:00:00 | 01:12:30 | 00:00:00 | |
| DO3MHA-12 | 2026-08-31 02:58:32 | 47.37149 | 12.05280 | 84° | 141km/h | 11749m | 4.6m/s | -54.1°C | 53.9% | 0hPa | 2.7V | 00:00:00 | 01:12:28 | 00:00:00 | |
| IN3IJJ | 2026-08-31 02:58:27 | 47.37133 | 12.05072 | 84° | 139km/h | 11734m | 3.4m/s | 0°C | 0% | 0hPa | 2.7V | 00:00:00 | 00:00:00 | 00:00:00 | |
| OE5WHR-10 | 2026-08-31 02:58:26 | 47.37124 | 12.04969 | 83° | 141km/h | 11727m | 3.8m/s | -53.9°C | 56.4% | 0hPa | 2.7V | 00:00:00 | 00:00:00 | 00:00:00 | |
| DB0NH | 2026-08-31 02:58:24 | 47.37115 | 12.04866 | 83° | 142km/h | 11719m | 3.3m/s | -53.9°C | 57.4% | 0hPa | 2.7V | 00:00:00 | 01:12:20 | 00:00:00 | |
| DL6DJ-15 | 2026-08-31 02:58:23 | 47.37110 | 12.04814 | 81° | 139km/h | 11714m | 4.2m/s | -53.9°C | 48.3% | -1.0hPa | 2.7V | 00:00:00 | 00:00:00 | 00:00:00 | |
| OE5DXL-15 | 2026-08-31 02:58:22 | 47.37105 | 12.04762 | 83° | 142km/h | 11711m | 3.2m/s | -53.8°C | 58.6% | 0hPa | 2.7V | 00:00:00 | 00:00:00 | 00:00:00 | |
| IN3HCDX | 2026-08-31 02:58:21 | 47.37105 | 12.04762 | 83° | 141km/h | 11711m | 3.3m/s | -53.9°C | 49.2% | 0hPa | 2.7V | 00:00:00 | 00:00:00 | 00:00:00 | |
| DG1MFX-10 | 2026-08-31 02:58:18 | 47.37091 | 12.04608 | 83° | 141km/h | 11699m | 4.3m/s | -53.8°C | 50.7% | 0hPa | 2.7V | 00:00:00 | 00:00:00 | 00:00:00 | |
| OE5DRO-10 | 2026-08-31 02:58:17 | 47.37080 | 12.04504 | 82° | 142km/h | 11692m | 3.7m/s | -53.7°C | 61.2% | 0hPa | 2.7V | 00:00:00 | 00:00:00 | 00:00:00 | |
| DO3MHA-11 | 2026-08-31 02:58:14 | 47.37066 | 12.04349 | 83° | 142km/h | 11681m | 4.4m/s | -53.6°C | 62.9% | 0hPa | 2.7V | 00:00:00 | 01:12:10 | 08:30:00 | |
| DO3MHA-12 | 2026-08-31 02:58:12 | 47.37056 | 12.04243 | 83° | 142km/h | 11673m | 4.4m/s | -53.5°C | 63.7% | 0hPa | 2.7V | 00:00:00 | 01:12:08 | 08:30:00 | |
| IN3IJJ | 2026-08-31 02:58:06 | 47.37034 | 12.03982 | 83° | 141km/h | 11653m | 3.8m/s | 0°C | 0% | 0hPa | 2.7V | 00:00:00 | 00:00:00 | 00:00:00 | |
| OE3JTB-15 | 2026-08-31 02:58:05 | 47.37024 | 12.03877 | 82° | 146km/h | 11645m | 4.2m/s | -53.3°C | 63.8% | 0hPa | 2.7V | 00:00:00 | 00:00:00 | 00:00:00 | |
| DO3MHA-11 | 2026-08-31 02:58:04 | 47.37019 | 12.03824 | 83° | 146km/h | 11641m | 3.9m/s | -53.3°C | 63.4% | 0hPa | 2.7V | 00:00:00 | 01:12:00 | 00:00:00 | |
| OE5WHR-10 | 2026-08-31 02:58:03 | 47.37014 | 12.03772 | 83° | 146km/h | 11636m | 4.7m/s | 0°C | 0% | 0hPa | 2.7V | 00:00:00 | 01:11:59 | 00:00:00 | |
| DO3MHA-12 | 2026-08-31 02:58:02 | 47.37010 | 12.03719 | 83° | 146km/h | 11632m | 3.2m/s | -53.2°C | 63.5% | 0hPa | 2.7V | 00:00:00 | 01:11:58 | 00:00:00 | |
| IN3HCDX | 2026-08-31 02:58:00 | 47.37005 | 12.03665 | 83° | 146km/h | 11628m | 4.8m/s | -53.2°C | 53.3% | 0hPa | 2.7V | 00:00:00 | 00:00:00 | 00:00:00 | |
| OE5DRO-10 | 2026-08-31 02:57:58 | 47.36992 | 12.03502 | 84° | 146km/h | 11615m | 3.5m/s | -53.1°C | 62.3% | 0hPa | 2.7V | 00:00:00 | 00:00:00 | 00:00:00 | |
| DG1MFX-10 | 2026-08-31 02:57:57 | 47.36992 | 12.03502 | 85° | 146km/h | 11615m | 3.6m/s | -53.1°C | 52.8% | 0hPa | 2.7V | 00:00:00 | 00:00:00 | 00:00:00 | |
| DO3MHA-11 | 2026-08-31 02:57:54 | 47.36974 | 12.03285 | 84° | 146km/h | 11599m | 4.4m/s | -52.9°C | 61.9% | 0hPa | 2.7V | 00:00:00 | 01:11:50 | 00:00:00 | |
| NBG1-10 | 2026-08-31 02:57:53 | 47.36970 | 12.03232 | 84° | 146km/h | 11595m | 3.1m/s | -52.9°C | 61.9% | 0hPa | 2.7V | 00:00:00 | 01:11:49 | 00:00:00 | |
| DO3MHA-12 | 2026-08-31 02:57:52 | 47.36966 | 12.03179 | 83° | 146km/h | 11592m | 4.3m/s | -52.8°C | 61.3% | 0hPa | 2.7V | 00:00:00 | 01:11:48 | 00:00:00 | |
| DO3MHA-11 | 2026-08-31 02:57:44 | 47.36930 | 12.02747 | 84° | 146km/h | 11559m | 3.8m/s | -52.5°C | 59.2% | 0hPa | 2.7V | 00:00:00 | 01:11:40 | 00:00:00 | |
| DO3MHA-12 | 2026-08-31 02:57:42 | 47.36921 | 12.02638 | 84° | 146km/h | 11550m | 4.7m/s | -52.4°C | 58.4% | 0hPa | 2.7V | 00:00:00 | 01:11:38 | 00:00:00 | |
| IN3HCDX | 2026-08-31 02:57:40 | 47.36913 | 12.02528 | 85° | 148km/h | 11542m | 4.8m/s | -52.4°C | 48.6% | 0hPa | 2.7V | 00:00:00 | 00:00:00 | 00:00:00 | |
| OE5DRO-10 | 2026-08-31 02:57:39 | 47.36910 | 12.02474 | 85° | 146km/h | 11538m | 4.0m/s | -52.3°C | 57.5% | 0hPa | 2.7V | 00:00:00 | 00:00:00 | 00:00:00 | |
| OE3JTB-15 | 2026-08-31 02:57:36 | 47.36897 | 12.02312 | 83° | 146km/h | 11525m | 4.3m/s | -52.2°C | 56.7% | 0hPa | 2.7V | 00:00:00 | 00:00:00 | 00:00:00 | |
| DO3MHA-11 | 2026-08-31 02:57:34 | 47.36888 | 12.02205 | 83° | 148km/h | 11517m | 4.1m/s | -52.1°C | 56.0% | 0hPa | 2.7V | 00:00:00 | 01:11:30 | 00:00:00 | |
| DO3MHA-12 | 2026-08-31 02:57:32 | 47.36878 | 12.02097 | 83° | 148km/h | 11508m | 3.7m/s | -52.0°C | 55.4% | 0hPa | 2.7V | 00:00:00 | 01:11:28 | 00:00:00 | |
| IN3IJJ | 2026-08-31 02:57:28 | 47.36866 | 12.01933 | 84° | 148km/h | 11495m | 5.1m/s | 0°C | 0% | 0hPa | 2.7V | 00:00:00 | 00:00:00 | 00:00:00 | |
| DO3MHA-11 | 2026-08-31 02:57:24 | 47.36845 | 12.01660 | 84° | 146km/h | 11473m | 3.8m/s | -51.7°C | 51.5% | 0hPa | 2.7V | 00:00:00 | 01:11:20 | 00:00:00 | |
| DO3MHA-12 | 2026-08-31 02:57:22 | 47.36837 | 12.01552 | 84° | 144km/h | 11464m | 4.3m/s | -51.6°C | 50.5% | 0hPa | 2.7V | 00:00:00 | 01:11:18 | 00:00:00 | |
| OE5WHR-10 | 2026-08-31 02:57:21 | 47.36833 | 12.01498 | 84° | 146km/h | 11459m | 5.1m/s | 0°C | 0% | 0hPa | 2.7V | 00:00:00 | 00:00:00 | 00:00:00 | |
| NBG1-10 | 2026-08-31 02:57:20 | 47.36828 | 12.01444 | 83° | 144km/h | 11454m | 4.1m/s | -51.5°C | 49.7% | 0hPa | 2.7V | 00:00:00 | 01:11:16 | 00:00:00 | |
| IN3HCDX | 2026-08-31 02:57:18 | 47.36823 | 12.01390 | 83° | 144km/h | 11450m | 4.2m/s | -51.5°C | 41.2% | 0hPa | 2.7V | 00:00:00 | 00:00:00 | 00:00:00 | |
| DG1MFX-10 | 2026-08-31 02:57:16 | 47.36813 | 12.01284 | 83° | 142km/h | 11441m | 4.2m/s | -51.5°C | 40.4% | 0hPa | 2.7V | 00:00:00 | 00:00:00 | 00:00:00 | |
| DO3MHA-11 | 2026-08-31 02:57:14 | 47.36797 | 12.01124 | 83° | 146km/h | 11428m | 4.8m/s | -51.3°C | 46.2% | 0hPa | 2.7V | 00:00:00 | 01:11:10 | 00:00:00 | |
| DO3MHA-12 | 2026-08-31 02:57:12 | 47.36788 | 12.01016 | 84° | 146km/h | 11419m | 3.6m/s | -51.2°C | 45.8% | 0hPa | 2.7V | 00:00:00 | 01:11:08 | 00:00:00 | |
| OE3JTB-15 | 2026-08-31 02:57:07 | 47.36764 | 12.00744 | 83° | 144km/h | 11397m | 4.2m/s | -51.0°C | 45.4% | 0hPa | 2.7V | 00:00:00 | 01:11:03 | 00:00:00 | |
| DO3MHA-11 | 2026-08-31 02:57:04 | 47.36749 | 12.00585 | 82° | 144km/h | 11383m | 5.1m/s | -50.9°C | 45.5% | 0hPa | 2.7V | 00:00:00 | 01:11:00 | 00:00:00 | |
| DO3MHA-12 | 2026-08-31 02:57:02 | 47.36739 | 12.00480 | 82° | 144km/h | 11374m | 5.4m/s | -50.8°C | 45.6% | 0hPa | 2.7V | 00:00:00 | 01:10:58 | 00:00:00 | |
| DL6DJ-15 | 2026-08-31 02:56:50 | 47.36675 | 11.99842 | 81° | 144km/h | 11320m | 5.0m/s | -50.4°C | 36.3% | -1.0hPa | 2.7V | 00:00:00 | 00:00:00 | 00:00:00 | |
| NBG1-10 | 2026-08-31 02:56:47 | 47.36660 | 11.99682 | 82° | 146km/h | 11307m | 4.2m/s | -50.3°C | 42.6% | 0hPa | 2.7V | 00:00:00 | 01:10:43 | 00:00:00 | |
| BAUMI2-15 | 2026-08-31 02:56:45 | 47.36649 | 11.99575 | 83° | 146km/h | 11297m | 4.3m/s | -50.2°C | 42.2% | 0hPa | 2.7V | 00:00:00 | 01:10:41 | 00:00:00 | |
| DO3MHA-12 | 2026-08-31 02:56:42 | 47.36634 | 11.99414 | 83° | 146km/h | 11284m | 4.3m/s | -50.0°C | 41.3% | 0hPa | 2.7V | 00:00:00 | 01:10:38 | 08:30:00 | |
| BAUMI2-15 | 2026-08-31 02:56:40 | 47.36625 | 11.99306 | 83° | 146km/h | 11275m | 4.1m/s | -50.0°C | 40.8% | 0hPa | 2.7V | 00:00:00 | 01:10:36 | 00:00:00 | |
| OE3JTB-15 | 2026-08-31 02:56:38 | 47.36615 | 11.99197 | 83° | 146km/h | 11266m | 4.5m/s | -49.9°C | 40.1% | 0hPa | 2.7V | 00:00:00 | 00:00:00 | 08:30:00 | |
| IN3HCDX | 2026-08-31 02:56:37 | 47.36610 | 11.99143 | 84° | 146km/h | 11261m | 5.2m/s | -49.9°C | 33.3% | 0hPa | 2.7V | 00:00:00 | 00:00:00 | 00:00:00 | |
| IN3IJJ | 2026-08-31 02:56:36 | 47.36610 | 11.99143 | 84° | 146km/h | 11261m | 5.2m/s | 0°C | 0% | 0hPa | 2.7V | 00:00:00 | 00:00:00 | 00:00:00 | |
| BAUMI2-15 | 2026-08-31 02:56:35 | 47.36601 | 11.99035 | 83° | 144km/h | 11251m | 5.0m/s | -49.7°C | 39.1% | 0hPa | 2.7V | 00:00:00 | 01:10:31 | 00:00:00 | |
| DO3MHA-11 | 2026-08-31 02:56:34 | 47.36596 | 11.98981 | 82° | 146km/h | 11247m | 4.2m/s | -49.7°C | 38.6% | 0hPa | 2.7V | 00:00:00 | 01:10:30 | 00:00:00 | |
| DO3MHA-12 | 2026-08-31 02:56:32 | 47.36586 | 11.98875 | 83° | 146km/h | 11237m | 4.3m/s | -49.6°C | 37.8% | 0hPa | 2.7V | 00:00:00 | 01:10:28 | 00:00:00 | |
| BAUMI2-15 | 2026-08-31 02:56:30 | 47.36575 | 11.98768 | 82° | 146km/h | 11228m | 4.2m/s | -49.5°C | 36.9% | 0hPa | 2.7V | 00:00:00 | 01:10:26 | 00:00:00 | |
| BAUMI2-15 | 2026-08-31 02:56:25 | 47.36549 | 11.98498 | 83° | 148km/h | 11204m | 5.1m/s | -49.3°C | 35.1% | 0hPa | 2.7V | 00:00:00 | 01:10:21 | 08:30:00 | |
| DB0NH | 2026-08-31 02:56:24 | 47.36544 | 11.98443 | 83° | 144km/h | 11200m | 4.2m/s | -49.2°C | 35.2% | 0hPa | 2.7V | 00:00:00 | 01:10:20 | 00:00:00 | |
| OE5DRO-10 | 2026-08-31 02:56:23 | 47.36539 | 11.98388 | 83° | 146km/h | 11195m | 3.9m/s | -49.2°C | 34.9% | 0hPa | 2.7V | 00:00:00 | 00:00:00 | 00:00:00 | |
| OE5DXL-15 | 2026-08-31 02:56:22 | 47.36534 | 11.98334 | 82° | 144km/h | 11191m | 4.8m/s | -49.2°C | 34.7% | 0hPa | 2.7V | 00:00:00 | 00:00:00 | 00:00:00 | |
| BAUMI2-15 | 2026-08-31 02:56:20 | 47.36523 | 11.98226 | 82° | 146km/h | 11181m | 5.0m/s | -49.1°C | 34.5% | 0hPa | 2.7V | 00:00:00 | 01:10:16 | 00:00:00 | |
| DL6DJ-15 | 2026-08-31 02:56:19 | 47.36514 | 11.98119 | 82° | 144km/h | 11172m | 4.7m/s | -49.1°C | 28.3% | -1.0hPa | 2.7V | 00:00:00 | 00:00:00 | 00:00:00 | |
| BAUMI2-15 | 2026-08-31 02:56:15 | 47.36499 | 11.97957 | 83° | 146km/h | 11158m | 4.8m/s | -48.9°C | 34.3% | 0hPa | 2.7V | 00:00:00 | 01:10:11 | 00:00:00 | |
| DO3MHA-11 | 2026-08-31 02:56:14 | 47.36494 | 11.97903 | 83° | 146km/h | 11154m | 4.0m/s | -48.9°C | 34.4% | 0hPa | 2.7V | 00:00:00 | 01:10:10 | 00:00:00 | |
| OE5WHR-10 | 2026-08-31 02:56:12 | 47.36484 | 11.97795 | 83° | 144km/h | 11145m | 4.0m/s | 0°C | 0% | 0hPa | 2.7V | 00:00:00 | 01:10:08 | 00:00:00 | |
| BAUMI2-15 | 2026-08-31 02:56:10 | 47.36475 | 11.97686 | 84° | 144km/h | 11136m | 3.9m/s | -48.7°C | 34.6% | 0hPa | 2.7V | 00:00:00 | 01:10:06 | 00:00:00 | |
| OE3JTB-15 | 2026-08-31 02:56:09 | 47.36470 | 11.97632 | 83° | 142km/h | 11132m | 4.5m/s | -48.7°C | 34.4% | 0hPa | 2.7V | 00:00:00 | 00:00:00 | 00:00:00 | |
| DB0ND-19 | 2026-08-31 02:56:06 | 47.36451 | 11.97419 | 82° | 142km/h | 11113m | 4.1m/s | 0°C | -1.0% | -1.0hPa | 2.7V | 00:00:00 | 00:00:00 | 00:00:00 | |
| BAUMI2-15 | 2026-08-31 02:56:05 | 47.36451 | 11.97419 | 83° | 142km/h | 11113m | 4.0m/s | -48.5°C | 34.6% | 0hPa | 2.7V | 00:00:00 | 01:10:01 | 00:00:00 | |
| DO3MHA-11 | 2026-08-31 02:56:04 | 47.36445 | 11.97367 | 82° | 144km/h | 11109m | 4.7m/s | -48.5°C | 34.6% | 0hPa | 2.7V | 00:00:00 | 01:10:00 | 00:00:00 | |
| DO3MHA-12 | 2026-08-31 02:56:02 | 47.36435 | 11.97262 | 83° | 144km/h | 11100m | 4.5m/s | -48.4°C | 34.5% | 0hPa | 2.7V | 00:00:00 | 01:09:58 | 00:00:00 | |
| DL6DJ-15 | 2026-08-31 02:55:48 | 47.36356 | 11.96472 | 81° | 141km/h | 11031m | 4.1m/s | -47.8°C | 28.8% | -1.0hPa | 2.7V | 00:00:00 | 00:00:00 | 00:00:00 | |
| BAUMI2-15 | 2026-08-31 02:55:45 | 47.36345 | 11.96368 | 82° | 141km/h | 11023m | 4.0m/s | -47.7°C | 34.9% | 0hPa | 2.7V | 00:00:00 | 01:09:41 | 00:00:00 | |
| DO3MHA-11 | 2026-08-31 02:55:44 | 47.36340 | 11.96316 | 83° | 141km/h | 11018m | 5.0m/s | -47.6°C | 34.9% | 0hPa | 2.7V | 00:00:00 | 01:09:40 | 00:00:00 | |
| DO3MHA-12 | 2026-08-31 02:55:42 | 47.36331 | 11.96213 | 83° | 141km/h | 11010m | 4.3m/s | -47.6°C | 35.1% | 0hPa | 2.7V | 00:00:00 | 01:09:38 | 00:00:00 | |
| NBG1-10 | 2026-08-31 02:55:41 | 47.36326 | 11.96161 | 82° | 141km/h | 11005m | 4.5m/s | -47.6°C | 35.4% | 0hPa | 2.7V | 00:00:00 | 01:09:37 | 00:00:00 | |
| BAUMI2-15 | 2026-08-31 02:55:40 | 47.36320 | 11.96110 | 81° | 142km/h | 11001m | 3.5m/s | -47.5°C | 35.6% | 0hPa | 2.7V | 00:00:00 | 01:09:36 | 08:30:00 | |
| PG1ADW-2 | 2026-08-31 02:55:37 | 47.36303 | 11.95954 | 81° | 141km/h | 10989m | 4.1m/s | 0°C | 0% | 0hPa | 2.7V | 00:00:00 | 00:00:00 | 00:00:00 | |
| BAUMI2-15 | 2026-08-31 02:55:35 | 47.36292 | 11.95849 | 82° | 142km/h | 10980m | 4.7m/s | -47.4°C | 35.9% | 0hPa | 2.7V | 00:00:00 | 01:09:31 | 00:00:00 | |
| DO3MHA-11 | 2026-08-31 02:55:34 | 47.36286 | 11.95796 | 82° | 141km/h | 10975m | 4.3m/s | -47.4°C | 36.0% | 0hPa | 2.7V | 00:00:00 | 01:09:30 | 00:00:00 | |
| DG1MFX-10 | 2026-08-31 02:55:33 | 47.36286 | 11.95796 | 82° | 142km/h | 10975m | 4.3m/s | -47.4°C | 30.3% | 0hPa | 2.7V | 00:00:00 | 00:00:00 | 00:00:00 | |
| DO3MHA-12 | 2026-08-31 02:55:32 | 47.36275 | 11.95692 | 82° | 141km/h | 10966m | 4.3m/s | -47.3°C | 35.9% | 0hPa | 2.7V | 00:00:00 | 01:09:28 | 00:00:00 | |
| BAUMI2-15 | 2026-08-31 02:55:30 | 47.36265 | 11.95588 | 82° | 142km/h | 10958m | 4.4m/s | -47.2°C | 35.8% | 0hPa | 2.7V | 00:00:00 | 01:09:26 | 00:00:00 | |
| OE5DRO-10 | 2026-08-31 02:55:26 | 47.36243 | 11.95380 | 81° | 139km/h | 10942m | 4.8m/s | -47.1°C | 35.1% | 0hPa | 2.7V | 00:00:00 | 00:00:00 | 00:00:00 | |
| BAUMI2-15 | 2026-08-31 02:55:25 | 47.36238 | 11.95328 | 82° | 139km/h | 10938m | 3.7m/s | -47.0°C | 35.3% | 0hPa | 2.7V | 00:00:00 | 01:09:21 | 00:00:00 | |
| DO3MHA-11 | 2026-08-31 02:55:24 | 47.36232 | 11.95277 | 81° | 137km/h | 10933m | 5.0m/s | -47.0°C | 35.2% | 0hPa | 2.7V | 00:00:00 | 01:09:20 | 00:00:00 | |
| DB0UT-7 | 2026-08-31 02:55:22 | 47.36221 | 11.95175 | 82° | 139km/h | 10925m | 5.0m/s | -46.9°C | 35.4% | 0hPa | 2.7V | 00:00:00 | 01:09:18 | 00:00:00 | |
| BAUMI2-15 | 2026-08-31 02:55:20 | 47.36210 | 11.95075 | 82° | 137km/h | 10916m | 4.7m/s | -46.9°C | 35.3% | 0hPa | 2.7V | 00:00:00 | 01:09:16 | 00:00:00 | |
| DL6DJ-15 | 2026-08-31 02:55:17 | 47.36190 | 11.94873 | 81° | 137km/h | 10899m | 4.5m/s | -46.8°C | 29.6% | -1.0hPa | 2.7V | 00:00:00 | 00:00:00 | 00:00:00 | |
| OE5WHR-10 | 2026-08-31 02:55:15 | 47.36185 | 11.94822 | 81° | 135km/h | 10895m | 4.0m/s | 0°C | 0% | 0hPa | 2.7V | 00:00:00 | 00:00:00 | 00:00:00 | |
| DO3MHA-11 | 2026-08-31 02:55:14 | 47.36179 | 11.94771 | 81° | 139km/h | 10891m | 4.3m/s | -46.7°C | 35.3% | 0hPa | 2.7V | 00:00:00 | 01:09:10 | 08:30:00 | |
| DG1MFX-10 | 2026-08-31 02:55:13 | 47.36179 | 11.94771 | 82° | 139km/h | 10891m | 4.4m/s | -46.8°C | 29.8% | 0hPa | 2.7V | 00:00:00 | 00:00:00 | 00:00:00 | |
| DO3MHA-12 | 2026-08-31 02:55:12 | 47.36168 | 11.94668 | 81° | 139km/h | 10882m | 4.6m/s | -46.7°C | 34.6% | 0hPa | 2.7V | 00:00:00 | 01:09:08 | 08:30:00 | |
| OE3JTB-15 | 2026-08-31 02:55:11 | 47.36162 | 11.94617 | 81° | 139km/h | 10878m | 3.7m/s | -46.6°C | 34.2% | 0hPa | 2.7V | 00:00:00 | 00:00:00 | 00:00:00 | |
| BAUMI2-15 | 2026-08-31 02:55:10 | 47.36156 | 11.94566 | 81° | 141km/h | 10874m | 5.2m/s | -46.6°C | 33.7% | 0hPa | 2.7V | 00:00:00 | 01:09:06 | 00:00:00 | |
| NBG1-10 | 2026-08-31 02:55:08 | 47.36145 | 11.94463 | 82° | 137km/h | 10865m | 4.0m/s | -46.5°C | 32.7% | 0hPa | 2.7V | 00:00:00 | 01:09:04 | 00:00:00 | |
| OE5DRO-10 | 2026-08-31 02:55:07 | 47.36139 | 11.94412 | 81° | 139km/h | 10861m | 4.0m/s | -46.5°C | 32.5% | 0hPa | 2.7V | 00:00:00 | 00:00:00 | 00:00:00 | |
| BAUMI2-15 | 2026-08-31 02:55:05 | 47.36128 | 11.94310 | 82° | 139km/h | 10853m | 4.7m/s | -46.4°C | 31.5% | 0hPa | 2.7V | 00:00:00 | 01:09:01 | 00:00:00 | |
| DO3MHA-11 | 2026-08-31 02:55:04 | 47.36123 | 11.94258 | 83° | 139km/h | 10849m | 3.9m/s | -46.4°C | 31.2% | 0hPa | 2.7V | 00:00:00 | 01:09:00 | 00:00:00 | |
| DO3MHA-12 | 2026-08-31 02:55:02 | 47.36114 | 11.94156 | 82° | 139km/h | 10841m | 3.7m/s | -46.3°C | 30.7% | 0hPa | 2.7V | 00:00:00 | 01:08:58 | 00:00:00 | |
| DL6DJ-15 | 2026-08-31 02:54:46 | 47.36030 | 11.93292 | 81° | 133km/h | 10775m | 3.2m/s | -46.1°C | 25.8% | -1.0hPa | 2.7V | 00:00:00 | 00:00:00 | 00:00:00 | |
| DO3MHA-11 | 2026-08-31 02:54:44 | 47.36025 | 11.93242 | 82° | 137km/h | 10771m | 4.3m/s | -46.0°C | 30.7% | 0hPa | 2.7V | 00:00:00 | 01:08:40 | 00:00:00 | |
| DO3MHA-12 | 2026-08-31 02:54:42 | 47.36014 | 11.93143 | 82° | 135km/h | 10764m | 3.7m/s | -45.9°C | 30.6% | 0hPa | 2.7V | 00:00:00 | 01:08:38 | 00:00:00 | |
| NBG1-10 | 2026-08-31 02:54:35 | 47.35980 | 11.92791 | 82° | 133km/h | 10735m | 3.8m/s | -45.8°C | 31.0% | 0hPa | 2.7V | 00:00:00 | 01:08:31 | 08:30:00 | |
| DO3MHA-11 | 2026-08-31 02:54:34 | 47.35975 | 11.92741 | 82° | 135km/h | 10732m | 3.7m/s | -45.7°C | 31.0% | 0hPa | 2.7V | 00:00:00 | 01:08:30 | 00:00:00 | |
| DO3MHA-12 | 2026-08-31 02:54:32 | 47.35966 | 11.92642 | 83° | 135km/h | 10725m | 2.8m/s | -45.7°C | 31.4% | 0hPa | 2.7V | 00:00:00 | 01:08:28 | 00:00:00 | |
| OE5DRO-10 | 2026-08-31 02:54:29 | 47.35952 | 11.92494 | 83° | 133km/h | 10714m | 4.0m/s | -45.7°C | 31.7% | 0hPa | 2.7V | 00:00:00 | 00:00:00 | 00:00:00 | |
| IN3HCDX | 2026-08-31 02:54:27 | 47.35947 | 11.92444 | 83° | 135km/h | 10710m | 3.4m/s | -45.7°C | 26.9% | 0hPa | 2.7V | 00:00:00 | 00:00:00 | 00:00:00 | |
| DB0NH | 2026-08-31 02:54:24 | 47.35927 | 11.92245 | 82° | 131km/h | 10696m | 3.2m/s | -45.6°C | 33.2% | 0hPa | 2.7V | 00:00:00 | 01:08:20 | 00:00:00 | |
| DO3MHA-12 | 2026-08-31 02:54:22 | 47.35917 | 11.92147 | 82° | 131km/h | 10689m | 3.4m/s | -45.6°C | 33.6% | 0hPa | 2.7V | 00:00:00 | 01:08:18 | 00:00:00 | |
| DO3MHA-11 | 2026-08-31 02:54:14 | 47.35885 | 11.91756 | 84° | 131km/h | 10659m | 3.0m/s | -45.4°C | 38.5% | 0hPa | 2.7V | 00:00:00 | 01:08:10 | 00:00:00 | |
| OE3JTB-15 | 2026-08-31 02:54:13 | 47.35881 | 11.91707 | 84° | 130km/h | 10656m | 4.1m/s | -45.4°C | 38.6% | 0hPa | 2.7V | 00:00:00 | 01:08:09 | 00:00:00 | |
| DO3MHA-12 | 2026-08-31 02:54:12 | 47.35877 | 11.91659 | 84° | 131km/h | 10652m | 2.8m/s | -45.4°C | 39.3% | 0hPa | 2.7V | 00:00:00 | 01:08:08 | 00:00:00 | |
| DG1MFX-10 | 2026-08-31 02:54:11 | 47.35877 | 11.91659 | 85° | 130km/h | 10652m | 2.8m/s | -45.5°C | 33.7% | 0hPa | 2.7V | 00:00:00 | 00:00:00 | 00:00:00 | |
| OE5WHR-10 | 2026-08-31 02:54:10 | 47.35870 | 11.91563 | 83° | 131km/h | 10646m | 3.7m/s | 0°C | 0% | 0hPa | 2.7V | 00:00:00 | 01:08:06 | 00:00:00 | |
| IN3HCDX | 2026-08-31 02:54:06 | 47.35857 | 11.91419 | 84° | 130km/h | 10636m | 3.4m/s | -45.4°C | 34.7% | 0hPa | 2.7V | 00:00:00 | 00:00:00 | 00:00:00 | |
| DO3MHA-11 | 2026-08-31 02:54:04 | 47.35845 | 11.91273 | 84° | 131km/h | 10626m | 3.7m/s | -45.3°C | 39.9% | 0hPa | 2.7V | 00:00:00 | 01:08:00 | 00:00:00 | |
| DO3MHA-11 | 2026-08-31 02:53:54 | 47.35804 | 11.90790 | 83° | 130km/h | 10588m | 3.4m/s | -45.0°C | 39.7% | 0hPa | 2.7V | 00:00:00 | 01:07:50 | 00:00:00 | |
| DO3MHA-12 | 2026-08-31 02:53:52 | 47.35795 | 11.90695 | 83° | 130km/h | 10582m | 4.0m/s | -44.9°C | 39.8% | 0hPa | 2.7V | 00:00:00 | 01:07:48 | 00:00:00 | |
| OE5DRO-10 | 2026-08-31 02:53:51 | 47.35791 | 11.90647 | 83° | 130km/h | 10578m | 3.1m/s | -44.9°C | 40.3% | 0hPa | 2.7V | 00:00:00 | 00:00:00 | 00:00:00 | |
| DG1MFX-10 | 2026-08-31 02:53:50 | 47.35791 | 11.90647 | 84° | 128km/h | 10578m | 3.2m/s | -44.9°C | 34.7% | 0hPa | 2.7V | 00:00:00 | 00:00:00 | 00:00:00 | |
| OE5WHR-10 | 2026-08-31 02:53:47 | 47.35774 | 11.90455 | 82° | 130km/h | 10565m | 3.4m/s | 0°C | 0% | 0hPa | 2.7V | 00:00:00 | 00:00:00 | 00:00:00 | |
| IN3HCDX | 2026-08-31 02:53:45 | 47.35769 | 11.90407 | 83° | 130km/h | 10562m | 3.2m/s | -44.9°C | 35.4% | 0hPa | 2.7V | 00:00:00 | 00:00:00 | 00:00:00 | |
| OE3JTB-15 | 2026-08-31 02:53:44 | 47.35760 | 11.90312 | 83° | 128km/h | 10555m | 3.0m/s | -44.8°C | 40.4% | 0hPa | 2.7V | 00:00:00 | 00:00:00 | 00:00:00 | |
| DL6DJ-15 | 2026-08-31 02:53:43 | 47.35755 | 11.90264 | 82° | 128km/h | 10551m | 3.6m/s | -44.8°C | 34.5% | -1.0hPa | 2.7V | 00:00:00 | 00:00:00 | 00:00:00 | |
| DO3MHA-12 | 2026-08-31 02:53:42 | 47.35751 | 11.90217 | 84° | 130km/h | 10548m | 3.4m/s | -44.7°C | 39.8% | 0hPa | 2.7V | 00:00:00 | 01:07:38 | 08:30:00 | |
| DF3TZ-5 | 2026-08-31 02:53:40 | 47.35720 | 11.89884 | 80° | 130km/h | 10525m | 3.5m/s | 0°C | 0% | -1.0hPa | 2.7V | 00:00:00 | 00:00:00 | 00:00:00 | |
| DO3MHA-11 | 2026-08-31 02:53:34 | 47.35715 | 11.89836 | 81° | 130km/h | 10522m | 3.8m/s | -44.4°C | 38.8% | 0hPa | 2.7V | 00:00:00 | 01:07:30 | 00:00:00 | |
| DO3MHA-12 | 2026-08-31 02:53:32 | 47.35704 | 11.89742 | 81° | 130km/h | 10515m | 3.2m/s | -44.4°C | 38.9% | 0hPa | 2.7V | 00:00:00 | 01:07:28 | 00:00:00 | |
| NBG1-10 | 2026-08-31 02:53:29 | 47.35687 | 11.89599 | 81° | 126km/h | 10505m | 3.3m/s | -44.3°C | 39.4% | 0hPa | 2.7V | 00:00:00 | 01:07:25 | 00:00:00 | |
| DO3MHA-11 | 2026-08-31 02:53:24 | 47.35659 | 11.89362 | 80° | 126km/h | 10490m | 2.5m/s | -44.2°C | 39.9% | 0hPa | 2.7V | 00:00:00 | 01:07:20 | 00:00:00 | |
| DO3MHA-12 | 2026-08-31 02:53:22 | 47.35647 | 11.89269 | 79° | 126km/h | 10484m | 2.5m/s | -44.2°C | 39.6% | 0hPa | 2.7V | 00:00:00 | 01:07:18 | 00:00:00 | |
| OE3JTB-15 | 2026-08-31 02:53:15 | 47.35602 | 11.88950 | 80° | 124km/h | 10456m | 3.7m/s | -44.0°C | 37.1% | 0hPa | 2.7V | 00:00:00 | 00:00:00 | 00:00:00 | |
| DO3MHA-11 | 2026-08-31 02:53:14 | 47.35596 | 11.88904 | 79° | 126km/h | 10452m | 4.8m/s | -43.9°C | 36.8% | 0hPa | 2.7V | 00:00:00 | 01:07:10 | 00:00:00 | |
| OE5DRO-10 | 2026-08-31 02:53:13 | 47.35590 | 11.88858 | 79° | 126km/h | 10448m | 4.2m/s | -43.9°C | 36.9% | 0hPa | 2.7V | 00:00:00 | 00:00:00 | 00:00:00 | |
| DO3MHA-12 | 2026-08-31 02:53:12 | 47.35583 | 11.88812 | 78° | 126km/h | 10444m | 2.6m/s | -43.9°C | 36.9% | 0hPa | 2.7V | 00:00:00 | 01:07:08 | 00:00:00 | |
| DF3TZ-5 | 2026-08-31 02:53:09 | 47.35550 | 11.88583 | 77° | 126km/h | 10428m | 3.3m/s | 0°C | -1.0% | -1.0hPa | 2.7V | 00:00:00 | 00:00:00 | 00:00:00 | |
| DO3MHA-11 | 2026-08-31 02:53:04 | 47.35530 | 11.88443 | 78° | 124km/h | 10419m | 3.2m/s | -43.6°C | 35.2% | 0hPa | 2.7V | 00:00:00 | 01:07:00 | 00:00:00 | |
| DO3MHA-12 | 2026-08-31 02:53:02 | 47.35517 | 11.88352 | 78° | 124km/h | 10413m | 3.5m/s | -43.6°C | 34.9% | 0hPa | 2.7V | 00:00:00 | 01:06:58 | 00:00:00 | |
| NBG1-10 | 2026-08-31 02:52:56 | 47.35475 | 11.88082 | 77° | 122km/h | 10394m | 3.4m/s | -43.4°C | 33.9% | 0hPa | 2.7V | 00:00:00 | 01:06:52 | 00:00:00 | |
| DB0NH | 2026-08-31 02:52:54 | 47.35460 | 11.87993 | 78° | 124km/h | 10388m | 3.8m/s | -43.3°C | 33.8% | 0hPa | 2.7V | 00:00:00 | 01:06:50 | 00:00:00 | |
| IN3IJJ | 2026-08-31 02:52:53 | 47.35460 | 11.87993 | 78° | 122km/h | 10388m | 3.9m/s | 0°C | 0% | 0hPa | 2.7V | 00:00:00 | 00:00:00 | 00:00:00 | |
| DB0UT-7 | 2026-08-31 02:52:52 | 47.35447 | 11.87904 | 79° | 122km/h | 10381m | 3.2m/s | -43.3°C | 33.5% | 0hPa | 2.7V | 00:00:00 | 00:00:00 | 00:00:00 | |
| DG1MFX-10 | 2026-08-31 02:52:48 | 47.35429 | 11.87767 | 80° | 124km/h | 10372m | 3.1m/s | -43.3°C | 28.5% | 0hPa | 2.7V | 00:00:00 | 00:00:00 | 00:00:00 | |
| OE3JTB-15 | 2026-08-31 02:52:46 | 47.35408 | 11.87630 | 77° | 122km/h | 10363m | 2.3m/s | -43.1°C | 33.1% | 0hPa | 2.7V | 00:00:00 | 01:06:42 | 00:00:00 | |
| BAUMI2-15 | 2026-08-31 02:52:45 | 47.35401 | 11.87586 | 77° | 122km/h | 10360m | 3.7m/s | -43.1°C | 32.9% | 0hPa | 2.7V | 00:00:00 | 01:06:41 | 00:00:00 | |
| DO3MHA-11 | 2026-08-31 02:52:44 | 47.35394 | 11.87541 | 77° | 122km/h | 10357m | 2.7m/s | -43.1°C | 32.8% | 0hPa | 2.7V | 00:00:00 | 01:06:40 | 00:00:00 | |
| DO3MHA-12 | 2026-08-31 02:52:42 | 47.35380 | 11.87453 | 77° | 122km/h | 10350m | 2.9m/s | -43.0°C | 32.7% | 0hPa | 2.7V | 00:00:00 | 01:06:38 | 00:00:00 | |
| DL6DJ-15 | 2026-08-31 02:52:41 | 47.35372 | 11.87408 | 77° | 122km/h | 10347m | 2.7m/s | -43.0°C | 27.6% | -1.0hPa | 2.7V | 00:00:00 | 00:00:00 | 00:00:00 | |
| BAUMI2-15 | 2026-08-31 02:52:40 | 47.35365 | 11.87364 | 78° | 122km/h | 10345m | 3.4m/s | -43.0°C | 32.2% | 0hPa | 2.7V | 00:00:00 | 01:06:36 | 00:00:00 | |
| BAUMI2-15 | 2026-08-31 02:52:35 | 47.35332 | 11.87141 | 78° | 122km/h | 10328m | 3.1m/s | -42.8°C | 31.5% | 0hPa | 2.7V | 00:00:00 | 01:06:31 | 00:00:00 | |
| DO3MHA-11 | 2026-08-31 02:52:34 | 47.35326 | 11.87097 | 78° | 122km/h | 10324m | 3.5m/s | -42.8°C | 31.3% | 0hPa | 2.7V | 00:00:00 | 01:06:30 | 00:00:00 | |
| DO3MHA-12 | 2026-08-31 02:52:32 | 47.35312 | 11.87007 | 78° | 122km/h | 10318m | 3.2m/s | -42.7°C | 31.3% | 0hPa | 2.7V | 00:00:00 | 01:06:28 | 00:00:00 | |
| BAUMI2-15 | 2026-08-31 02:52:30 | 47.35298 | 11.86918 | 77° | 122km/h | 10312m | 3.4m/s | -42.7°C | 31.0% | 0hPa | 2.7V | 00:00:00 | 01:06:26 | 00:00:00 | |
| DG1MFX-10 | 2026-08-31 02:52:27 | 47.35283 | 11.86829 | 78° | 122km/h | 10306m | 3.5m/s | -42.7°C | 26.5% | 0hPa | 2.7V | 00:00:00 | 00:00:00 | 00:00:00 | |
| BAUMI2-15 | 2026-08-31 02:52:25 | 47.35262 | 11.86695 | 78° | 122km/h | 10297m | 2.5m/s | -42.5°C | 30.7% | 0hPa | 2.7V | 00:00:00 | 01:06:21 | 00:00:00 | |
| DB0NH | 2026-08-31 02:52:24 | 47.35256 | 11.86650 | 78° | 120km/h | 10294m | 3.2m/s | -42.5°C | 30.6% | 0hPa | 2.7V | 00:00:00 | 01:06:20 | 00:00:00 | |
| NBG1-10 | 2026-08-31 02:52:23 | 47.35249 | 11.86606 | 78° | 120km/h | 10291m | 2.7m/s | -42.5°C | 30.5% | 0hPa | 2.7V | 00:00:00 | 01:06:19 | 00:00:00 | |
| OE5DXL-15 | 2026-08-31 02:52:22 | 47.35242 | 11.86562 | 78° | 120km/h | 10288m | 3.0m/s | -42.5°C | 30.3% | 0hPa | 2.7V | 00:00:00 | 00:00:00 | 00:00:00 | |
| BAUMI2-15 | 2026-08-31 02:52:20 | 47.35229 | 11.86475 | 78° | 120km/h | 10281m | 3.5m/s | -42.4°C | 30.0% | 0hPa | 2.7V | 00:00:00 | 01:06:16 | 00:00:00 | |
| OE3JTB-15 | 2026-08-31 02:52:17 | 47.35210 | 11.86345 | 78° | 120km/h | 10272m | 3.9m/s | -42.3°C | 30.0% | 0hPa | 2.7V | 00:00:00 | 00:00:00 | 08:30:00 | |
| OE5DRO-10 | 2026-08-31 02:52:16 | 47.35203 | 11.86301 | 77° | 120km/h | 10268m | 2.2m/s | -42.3°C | 30.1% | 0hPa | 2.7V | 00:00:00 | 00:00:00 | 00:00:00 | |
| BAUMI2-15 | 2026-08-31 02:52:15 | 47.35197 | 11.86257 | 77° | 122km/h | 10266m | 2.7m/s | -42.3°C | 29.9% | 0hPa | 2.7V | 00:00:00 | 01:06:11 | 00:00:00 | |
| DO3MHA-11 | 2026-08-31 02:52:14 | 47.35190 | 11.86214 | 77° | 120km/h | 10263m | 3.2m/s | -42.3°C | 29.8% | 0hPa | 2.7V | 00:00:00 | 01:06:10 | 08:30:00 | |
| DO3MHA-12 | 2026-08-31 02:52:12 | 47.35176 | 11.86125 | 78° | 120km/h | 10257m | 3.2m/s | -42.2°C | 29.8% | 0hPa | 2.7V | 00:00:00 | 01:06:08 | 08:30:00 | |
| BAUMI2-15 | 2026-08-31 02:52:10 | 47.35162 | 11.86036 | 78° | 120km/h | 10250m | 3.4m/s | -42.2°C | 29.7% | 0hPa | 2.7V | 00:00:00 | 01:06:06 | 08:30:00 | |
| BAUMI2-15 | 2026-08-31 02:52:05 | 47.35128 | 11.85818 | 78° | 119km/h | 10234m | 2.1m/s | -42.0°C | 30.0% | 0hPa | 2.7V | 00:00:00 | 01:06:01 | 00:00:00 | |
| DO3MHA-11 | 2026-08-31 02:52:04 | 47.35122 | 11.85775 | 78° | 119km/h | 10231m | 3.7m/s | -42.0°C | 30.1% | 0hPa | 2.7V | 00:00:00 | 01:06:00 | 00:00:00 | |
| DO3MHA-12 | 2026-08-31 02:52:02 | 47.35109 | 11.85688 | 79° | 119km/h | 10225m | 2.9m/s | -42.0°C | 30.6% | 0hPa | 2.7V | 00:00:00 | 01:05:58 | 00:00:00 | |
| BAUMI2-15 | 2026-08-31 02:52:00 | 47.35097 | 11.85601 | 79° | 120km/h | 10220m | 2.4m/s | -42.0°C | 31.2% | 0hPa | 2.7V | 00:00:00 | 01:05:56 | 00:00:00 | |
| OE5DRO-10 | 2026-08-31 02:51:57 | 47.35079 | 11.85469 | 79° | 117km/h | 10211m | 3.4m/s | -42.0°C | 32.3% | 0hPa | 2.7V | 00:00:00 | 00:00:00 | 00:00:00 | |
| BAUMI2-15 | 2026-08-31 02:51:55 | 47.35066 | 11.85383 | 78° | 119km/h | 10205m | 2.4m/s | -41.9°C | 32.4% | 0hPa | 2.7V | 00:00:00 | 01:05:51 | 00:00:00 | |
| DB0NH | 2026-08-31 02:51:54 | 47.35060 | 11.85340 | 78° | 117km/h | 10202m | 3.2m/s | -41.9°C | 32.3% | 0hPa | 2.7V | 00:00:00 | 01:05:50 | 00:00:00 | |
| DB0UT-7 | 2026-08-31 02:51:52 | 47.35046 | 11.85253 | 78° | 117km/h | 10196m | 3.0m/s | -41.9°C | 32.4% | 0hPa | 2.7V | 00:00:00 | 00:00:00 | 00:00:00 | |
| NBG1-10 | 2026-08-31 02:51:50 | 47.35033 | 11.85168 | 78° | 117km/h | 10189m | 3.6m/s | -41.8°C | 32.3% | 0hPa | 2.7V | 00:00:00 | 01:05:46 | 00:00:00 | |
| OE3JTB-15 | 2026-08-31 02:51:48 | 47.35021 | 11.85082 | 79° | 117km/h | 10183m | 4.0m/s | -41.7°C | 32.4% | 0hPa | 2.7V | 00:00:00 | 00:00:00 | 00:00:00 | |
| BAUMI2-15 | 2026-08-31 02:51:45 | 47.35004 | 11.84955 | 79° | 117km/h | 10173m | 2.4m/s | -41.7°C | 32.8% | 0hPa | 2.7V | 00:00:00 | 01:05:41 | 00:00:00 | |
| DO3MHA-11 | 2026-08-31 02:51:44 | 47.34999 | 11.84913 | 79° | 117km/h | 10171m | 2.3m/s | -41.7°C | 32.6% | 0hPa | 2.7V | 00:00:00 | 01:05:40 | 00:00:00 | |
| DO3MHA-12 | 2026-08-31 02:51:42 | 47.34987 | 11.84828 | 78° | 117km/h | 10165m | 2.6m/s | -41.6°C | 32.5% | 0hPa | 2.7V | 00:00:00 | 01:05:38 | 00:00:00 | |
| BAUMI2-15 | 2026-08-31 02:51:40 | 47.34975 | 11.84743 | 78° | 117km/h | 10159m | 2.1m/s | -41.6°C | 32.7% | 0hPa | 2.7V | 00:00:00 | 01:05:36 | 00:00:00 | |
| DL6DJ-15 | 2026-08-31 02:51:39 | 47.34968 | 11.84701 | 78° | 115km/h | 10155m | 3.6m/s | -41.6°C | 27.9% | -1.0hPa | 2.7V | 00:00:00 | 00:00:00 | 00:00:00 | |
| OE5DRO-10 | 2026-08-31 02:51:38 | 47.34962 | 11.84658 | 79° | 117km/h | 10153m | 2.6m/s | -41.5°C | 32.7% | 0hPa | 2.7V | 00:00:00 | 00:00:00 | 00:00:00 | |
| BAUMI2-15 | 2026-08-31 02:51:35 | 47.34944 | 11.84530 | 79° | 119km/h | 10143m | 3.1m/s | -41.4°C | 32.4% | 0hPa | 2.7V | 00:00:00 | 01:05:31 | 00:00:00 | |
| DO3MHA-11 | 2026-08-31 02:51:34 | 47.34938 | 11.84487 | 79° | 117km/h | 10140m | 3.5m/s | -41.4°C | 32.4% | 0hPa | 2.7V | 00:00:00 | 01:05:30 | 00:00:00 | |
| DO3MHA-12 | 2026-08-31 02:51:32 | 47.34926 | 11.84401 | 79° | 117km/h | 10133m | 3.8m/s | -41.3°C | 32.0% | 0hPa | 2.7V | 00:00:00 | 01:05:28 | 00:00:00 | |
| BAUMI2-15 | 2026-08-31 02:51:30 | 47.34915 | 11.84315 | 80° | 117km/h | 10127m | 2.8m/s | -41.3°C | 32.0% | 0hPa | 2.7V | 00:00:00 | 01:05:26 | 00:00:00 | |
| BAUMI2-15 | 2026-08-31 02:51:25 | 47.34883 | 11.84104 | 78° | 113km/h | 10112m | 2.7m/s | -41.1°C | 31.6% | 0hPa | 2.7V | 00:00:00 | 01:05:21 | 08:30:00 | |
| DO3MHA-11 | 2026-08-31 02:51:24 | 47.34877 | 11.84062 | 78° | 115km/h | 10109m | 2.7m/s | -41.1°C | 31.5% | 0hPa | 2.7V | 00:00:00 | 01:05:20 | 00:00:00 | |
| DO3MHA-12 | 2026-08-31 02:51:22 | 47.34864 | 11.83979 | 79° | 117km/h | 10103m | 3.5m/s | -41.0°C | 31.3% | 0hPa | 2.7V | 00:00:00 | 01:05:18 | 00:00:00 | |
| BAUMI2-15 | 2026-08-31 02:51:20 | 47.34852 | 11.83895 | 79° | 117km/h | 10097m | 2.9m/s | -41.0°C | 31.2% | 0hPa | 2.7V | 00:00:00 | 01:05:16 | 00:00:00 | |
| OE3JTB-15 | 2026-08-31 02:51:19 | 47.34846 | 11.83852 | 78° | 117km/h | 10094m | 2.3m/s | -41.0°C | 31.3% | 0hPa | 2.7V | 00:00:00 | 01:05:15 | 00:00:00 | |
| NBG1-10 | 2026-08-31 02:51:17 | 47.34833 | 11.83768 | 78° | 117km/h | 10089m | 3.2m/s | -40.9°C | 31.2% | 0hPa | 2.7V | 00:00:00 | 01:05:13 | 00:00:00 | |
| BAUMI2-15 | 2026-08-31 02:51:15 | 47.34821 | 11.83683 | 78° | 117km/h | 10083m | 3.6m/s | -40.9°C | 31.3% | 0hPa | 2.7V | 00:00:00 | 01:05:11 | 00:00:00 | |
| DO3MHA-11 | 2026-08-31 02:51:14 | 47.34814 | 11.83641 | 77° | 117km/h | 10080m | 2.3m/s | -40.8°C | 31.4% | 0hPa | 2.7V | 00:00:00 | 01:05:10 | 00:00:00 | |
| DO3MHA-12 | 2026-08-31 02:51:12 | 47.34801 | 11.83556 | 78° | 115km/h | 10074m | 2.7m/s | -40.8°C | 31.4% | 0hPa | 2.7V | 00:00:00 | 01:05:08 | 00:00:00 | |
| BAUMI2-15 | 2026-08-31 02:51:10 | 47.34788 | 11.83472 | 78° | 115km/h | 10068m | 3.6m/s | -40.7°C | 31.2% | 0hPa | 2.7V | 00:00:00 | 01:05:06 | 00:00:00 | |
| IN3HCDX | 2026-08-31 02:51:09 | 47.34788 | 11.83472 | 78° | 117km/h | 10068m | 3.7m/s | -40.8°C | 27.0% | 0hPa | 2.7V | 00:00:00 | 00:00:00 | 00:00:00 | |
| BAUMI2-15 | 2026-08-31 02:51:05 | 47.34756 | 11.83262 | 76° | 117km/h | 10053m | 2.9m/s | -40.6°C | 30.6% | 0hPa | 2.7V | 00:00:00 | 01:05:01 | 00:00:00 | |
| DO3MHA-11 | 2026-08-31 02:51:04 | 47.34748 | 11.83220 | 76° | 117km/h | 10050m | 3.0m/s | -40.6°C | 30.4% | 0hPa | 2.7V | 00:00:00 | 01:05:00 | 00:00:00 | |
| DO3MHA-12 | 2026-08-31 02:51:02 | 47.34734 | 11.83136 | 77° | 117km/h | 10044m | 2.6m/s | -40.5°C | 30.3% | 0hPa | 2.7V | 00:00:00 | 01:04:58 | 00:00:00 | |
| BAUMI2-15 | 2026-08-31 02:51:00 | 47.34720 | 11.83051 | 77° | 117km/h | 10038m | 2.0m/s | -40.4°C | 30.2% | 0hPa | 2.7V | 00:00:00 | 01:04:56 | 00:00:00 | |
| DG1MFX-10 | 2026-08-31 02:50:56 | 47.34698 | 11.82925 | 77° | 117km/h | 10030m | 3.0m/s | -40.4°C | 25.8% | 0hPa | 2.7V | 00:00:00 | 00:00:00 | 00:00:00 | |
| BAUMI2-15 | 2026-08-31 02:50:55 | 47.34684 | 11.82841 | 77° | 115km/h | 10024m | 3.5m/s | -40.3°C | 29.7% | 0hPa | 2.7V | 00:00:00 | 01:04:51 | 00:00:00 | |
| DB0NH | 2026-08-31 02:50:54 | 47.34677 | 11.82799 | 77° | 117km/h | 10021m | 2.9m/s | -40.3°C | 29.8% | 0hPa | 2.7V | 00:00:00 | 01:04:50 | 00:00:00 | |
| OE5DXL-15 | 2026-08-31 02:50:52 | 47.34663 | 11.82716 | 77° | 117km/h | 10015m | 2.8m/s | -40.2°C | 29.9% | 0hPa | 2.7V | 00:00:00 | 00:00:00 | 00:00:00 | |
| BAUMI2-15 | 2026-08-31 02:50:50 | 47.34649 | 11.82631 | 77° | 115km/h | 10009m | 3.3m/s | -40.2°C | 29.8% | 0hPa | 2.7V | 00:00:00 | 01:04:46 | 00:00:00 | |
| IN3HCDX | 2026-08-31 02:50:48 | 47.34643 | 11.82590 | 78° | 115km/h | 10006m | 2.7m/s | -40.2°C | 25.9% | 0hPa | 2.7V | 00:00:00 | 00:00:00 | 00:00:00 | |
| DO3MHA-11 | 2026-08-31 02:50:44 | 47.34607 | 11.82380 | 76° | 117km/h | 9990m | 3.2m/s | -40.0°C | 29.6% | 0hPa | 2.7V | 00:00:00 | 01:04:40 | 08:30:00 | |
| DO3MHA-12 | 2026-08-31 02:50:42 | 47.34592 | 11.82296 | 76° | 117km/h | 9984m | 3.3m/s | -40.0°C | 29.8% | 0hPa | 2.7V | 00:00:00 | 01:04:38 | 08:30:00 | |
| DL6DJ-15 | 2026-08-31 02:50:37 | 47.34554 | 11.82086 | 75° | 115km/h | 9968m | 2.1m/s | -39.9°C | 25.6% | -1.0hPa | 2.7V | 00:00:00 | 00:00:00 | 00:00:00 | |
| DG1MFX-10 | 2026-08-31 02:50:36 | 47.34554 | 11.82086 | 77° | 117km/h | 9969m | 2.1m/s | -39.9°C | 25.8% | 0hPa | 2.7V | 00:00:00 | 00:00:00 | 00:00:00 | |
| DO3MHA-11 | 2026-08-31 02:50:34 | 47.34531 | 11.81961 | 75° | 117km/h | 9959m | 3.2m/s | -39.8°C | 29.5% | 0hPa | 2.7V | 00:00:00 | 01:04:30 | 00:00:00 | |
| DO3MHA-12 | 2026-08-31 02:50:32 | 47.34515 | 11.81878 | 75° | 115km/h | 9953m | 3.6m/s | -39.7°C | 29.5% | 0hPa | 2.7V | 00:00:00 | 01:04:28 | 00:00:00 | |
| IN3HCDX | 2026-08-31 02:50:27 | 47.34484 | 11.81710 | 76° | 117km/h | 9941m | 3.1m/s | -39.7°C | 25.4% | 0hPa | 2.7V | 00:00:00 | 00:00:00 | 00:00:00 | |
| DB0NH | 2026-08-31 02:50:24 | 47.34454 | 11.81544 | 75° | 119km/h | 9929m | 2.9m/s | -39.5°C | 29.2% | 0hPa | 2.7V | 00:00:00 | 01:04:20 | 00:00:00 | |
| OE5DXL-15 | 2026-08-31 02:50:22 | 47.34438 | 11.81462 | 74° | 119km/h | 9924m | 2.0m/s | -39.5°C | 29.6% | 0hPa | 2.7V | 00:00:00 | 00:00:00 | 00:00:00 | |
| OE3JTB-15 | 2026-08-31 02:50:21 | 47.34429 | 11.81421 | 74° | 119km/h | 9921m | 3.6m/s | -39.4°C | 29.4% | 0hPa | 2.7V | 00:00:00 | 00:00:00 | 00:00:00 | |
| DG1MFX-10 | 2026-08-31 02:50:15 | 47.34388 | 11.81211 | 75° | 119km/h | 9906m | 3.0m/s | -39.4°C | 25.6% | 0hPa | 2.7V | 00:00:00 | 00:00:00 | 00:00:00 | |
| DO3MHA-11 | 2026-08-31 02:50:14 | 47.34371 | 11.81126 | 74° | 119km/h | 9900m | 2.5m/s | -39.3°C | 29.6% | 0hPa | 2.7V | 00:00:00 | 01:04:10 | 00:00:00 | |
| DO3MHA-12 | 2026-08-31 02:50:12 | 47.34355 | 11.81041 | 74° | 119km/h | 9894m | 2.7m/s | -39.2°C | 29.8% | 0hPa | 2.7V | 00:00:00 | 01:04:08 | 00:00:00 | |
| NBG1-10 | 2026-08-31 02:50:11 | 47.34347 | 11.80999 | 74° | 119km/h | 9891m | 2.5m/s | -39.2°C | 29.7% | 0hPa | 2.7V | 00:00:00 | 01:04:07 | 00:00:00 | |
| DL6DJ-15 | 2026-08-31 02:50:06 | 47.34305 | 11.80787 | 74° | 119km/h | 9876m | 3.2m/s | -39.2°C | 25.8% | -1.0hPa | 2.7V | 00:00:00 | 00:00:00 | 00:00:00 | |
| DO3MHA-11 | 2026-08-31 02:50:04 | 47.34289 | 11.80702 | 75° | 119km/h | 9869m | 3.0m/s | -39.1°C | 29.7% | 0hPa | 2.7V | 00:00:00 | 01:04:00 | 00:00:00 | |
| OE5DRO-10 | 2026-08-31 02:50:03 | 47.34281 | 11.80659 | 74° | 119km/h | 9866m | 2.9m/s | -39.0°C | 29.8% | 0hPa | 2.7V | 00:00:00 | 00:00:00 | 08:30:00 | |
| DO3MHA-12 | 2026-08-31 02:50:02 | 47.34272 | 11.80617 | 74° | 119km/h | 9863m | 4.0m/s | -39.0°C | 29.8% | 0hPa | 2.7V | 00:00:00 | 01:03:58 | 00:00:00 | |
| DB0ND-19 | 2026-08-31 02:49:53 | 47.34139 | 11.79981 | 71° | 120km/h | 9819m | 3.5m/s | -38.7°C | 26.6% | -1.0hPa | 2.7V | 00:00:00 | 00:00:00 | 00:00:00 | |
| DO3MHA-12 | 2026-08-31 02:49:52 | 47.34185 | 11.80193 | 73° | 120km/h | 9833m | 3.5m/s | -38.8°C | 30.4% | 0hPa | 2.7V | 00:00:00 | 01:03:48 | 00:00:00 | |
| DO3MHA-11 | 2026-08-31 02:49:44 | 47.34111 | 11.79853 | 73° | 119km/h | 9810m | 2.2m/s | -38.6°C | 30.9% | 0hPa | 2.7V | 00:00:00 | 01:03:40 | 00:00:00 | |
| DO3MHA-12 | 2026-08-31 02:49:42 | 47.34092 | 11.79768 | 72° | 119km/h | 9804m | 2.9m/s | -38.6°C | 30.8% | 0hPa | 2.7V | 00:00:00 | 01:03:38 | 00:00:00 | |
| NBG1-10 | 2026-08-31 02:49:38 | 47.34055 | 11.79600 | 72° | 120km/h | 9793m | 3.1m/s | -38.5°C | 30.9% | 0hPa | 2.7V | 00:00:00 | 01:03:34 | 08:30:00 | |
| DL6DJ-15 | 2026-08-31 02:49:35 | 47.34026 | 11.79474 | 71° | 119km/h | 9783m | 3.5m/s | -38.5°C | 27.0% | -1.0hPa | 2.7V | 00:00:00 | 00:00:00 | 00:00:00 | |
| DO3MHA-11 | 2026-08-31 02:49:34 | 47.34016 | 11.79432 | 71° | 119km/h | 9780m | 2.2m/s | -38.4°C | 31.3% | 0hPa | 2.7V | 00:00:00 | 01:03:30 | 00:00:00 | |
| DO3MHA-12 | 2026-08-31 02:49:32 | 47.33996 | 11.79347 | 71° | 119km/h | 9774m | 2.9m/s | -38.4°C | 31.4% | 0hPa | 2.7V | 00:00:00 | 01:03:28 | 00:00:00 | |
| OE5DRO-10 | 2026-08-31 02:49:25 | 47.33925 | 11.79056 | 71° | 122km/h | 9755m | 3.0m/s | -38.3°C | 31.9% | 0hPa | 2.7V | 00:00:00 | 00:00:00 | 00:00:00 | |
| DO3MHA-11 | 2026-08-31 02:49:24 | 47.33915 | 11.79014 | 71° | 122km/h | 9752m | 2.4m/s | -38.3°C | 31.8% | 0hPa | 2.7V | 00:00:00 | 01:03:20 | 00:00:00 | |
| DO3MHA-12 | 2026-08-31 02:49:22 | 47.33895 | 11.78929 | 72° | 122km/h | 9746m | 2.4m/s | -38.3°C | 31.6% | 0hPa | 2.7V | 00:00:00 | 01:03:18 | 00:00:00 | |
| IN3IJJ | 2026-08-31 02:49:16 | 47.33845 | 11.78713 | 71° | 122km/h | 9731m | 3.4m/s | 0°C | 0% | 0hPa | 2.7V | 00:00:00 | 00:00:00 | 00:00:00 | |
| DO3MHA-11 | 2026-08-31 02:49:14 | 47.33815 | 11.78584 | 72° | 122km/h | 9722m | 2.4m/s | -38.1°C | 31.3% | 0hPa | 2.7V | 00:00:00 | 01:03:10 | 08:30:00 | |
| DG1MFX-10 | 2026-08-31 02:49:13 | 47.33814 | 11.78584 | 72° | 120km/h | 9722m | 2.5m/s | -38.1°C | 27.5% | 0hPa | 2.7V | 00:00:00 | 00:00:00 | 00:00:00 | |
| DO3MHA-12 | 2026-08-31 02:49:12 | 47.33795 | 11.78499 | 72° | 122km/h | 9718m | 3.4m/s | -38.0°C | 31.0% | 0hPa | 2.7V | 00:00:00 | 01:03:08 | 08:30:00 | |
| OE5DRO-10 | 2026-08-31 02:49:06 | 47.33735 | 11.78242 | 71° | 122km/h | 9700m | 3.2m/s | -37.9°C | 30.9% | 0hPa | 2.7V | 00:00:00 | 00:00:00 | 00:00:00 | |
| NBG1-10 | 2026-08-31 02:49:05 | 47.33725 | 11.78199 | 71° | 122km/h | 9697m | 2.6m/s | -37.9°C | 30.9% | 0hPa | 2.7V | 00:00:00 | 01:03:01 | 00:00:00 | |
| DO3MHA-11 | 2026-08-31 02:49:04 | 47.33715 | 11.78156 | 71° | 120km/h | 9694m | 3.4m/s | -37.8°C | 30.9% | 0hPa | 2.7V | 00:00:00 | 01:03:00 | 00:00:00 | |
| IN3HCDX | 2026-08-31 02:49:03 | 47.33715 | 11.78156 | 72° | 122km/h | 9694m | 3.4m/s | -37.9°C | 27.1% | 0hPa | 2.7V | 00:00:00 | 00:00:00 | 00:00:00 | |
| DO3MHA-12 | 2026-08-31 02:49:02 | 47.33695 | 11.78069 | 72° | 120km/h | 9688m | 3.3m/s | -37.8°C | 30.9% | 0hPa | 2.7V | 00:00:00 | 01:02:58 | 00:00:00 | |
| DB0ND-19 | 2026-08-31 02:48:51 | 47.33589 | 11.77599 | 71° | 122km/h | 9655m | 3.6m/s | -37.6°C | 26.8% | -1.0hPa | 2.7V | 00:00:00 | 00:00:00 | 00:00:00 | |
| OE5DRO-10 | 2026-08-31 02:48:47 | 47.33548 | 11.77427 | 71° | 122km/h | 9643m | 3.1m/s | -37.4°C | 30.7% | 0hPa | 2.7V | 00:00:00 | 00:00:00 | 00:00:00 | |
| BAUMI2-15 | 2026-08-31 02:48:46 | 47.33538 | 11.77384 | 71° | 120km/h | 9640m | 2.8m/s | -37.4°C | 30.6% | 0hPa | 2.7V | 00:00:00 | 01:02:42 | 00:00:00 | |
| DO3MHA-11 | 2026-08-31 02:48:44 | 47.33519 | 11.77299 | 72° | 122km/h | 9635m | 2.2m/s | -37.4°C | 30.9% | 0hPa | 2.7V | 00:00:00 | 01:02:40 | 00:00:00 | |
| DO3MHA-12 | 2026-08-31 02:48:42 | 47.33499 | 11.77213 | 72° | 122km/h | 9629m | 2.5m/s | -37.3°C | 30.9% | 0hPa | 2.7V | 00:00:00 | 01:02:38 | 00:00:00 | |
| BAUMI2-15 | 2026-08-31 02:48:41 | 47.33490 | 11.77170 | 73° | 122km/h | 9626m | 3.3m/s | -37.3°C | 30.8% | 0hPa | 2.7V | 00:00:00 | 01:02:37 | 08:30:00 | |
| IN3HCDX | 2026-08-31 02:48:39 | 47.33480 | 11.77127 | 73° | 120km/h | 9623m | 2.8m/s | -37.3°C | 27.4% | 0hPa | 2.7V | 00:00:00 | 00:00:00 | 00:00:00 | |
| BAUMI2-15 | 2026-08-31 02:48:36 | 47.33442 | 11.76953 | 73° | 122km/h | 9610m | 3.1m/s | -37.2°C | 31.9% | 0hPa | 2.7V | 00:00:00 | 01:02:32 | 00:00:00 | |
| DO3MHA-11 | 2026-08-31 02:48:34 | 47.33423 | 11.76865 | 73° | 122km/h | 9604m | 2.6m/s | -37.2°C | 32.3% | 0hPa | 2.7V | 00:00:00 | 01:02:30 | 00:00:00 | |
| DL6DJ-15 | 2026-08-31 02:48:33 | 47.33404 | 11.76778 | 72° | 120km/h | 9598m | 2.1m/s | -37.2°C | 28.5% | -1.0hPa | 2.7V | 00:00:00 | 00:00:00 | 00:00:00 | |
| DO3MHA-12 | 2026-08-31 02:48:32 | 47.33404 | 11.76778 | 73° | 122km/h | 9598m | 2.1m/s | -37.2°C | 32.5% | 0hPa | 2.7V | 00:00:00 | 01:02:28 | 00:00:00 | |
| BAUMI2-15 | 2026-08-31 02:48:31 | 47.33395 | 11.76735 | 73° | 122km/h | 9595m | 3.6m/s | -37.1°C | 32.3% | 0hPa | 2.7V | 00:00:00 | 01:02:27 | 00:00:00 | |
| IN3IJJ | 2026-08-31 02:48:30 | 47.33395 | 11.76735 | 73° | 122km/h | 9595m | 3.6m/s | 0°C | 0% | 0hPa | 2.7V | 00:00:00 | 00:00:00 | 00:00:00 | |
| OE5DRO-10 | 2026-08-31 02:48:28 | 47.33367 | 11.76604 | 73° | 120km/h | 9586m | 2.6m/s | -37.1°C | 32.4% | 0hPa | 2.7V | 00:00:00 | 00:00:00 | 00:00:00 | |
| BAUMI2-15 | 2026-08-31 02:48:26 | 47.33348 | 11.76516 | 73° | 122km/h | 9580m | 3.3m/s | -37.0°C | 32.5% | 0hPa | 2.7V | 00:00:00 | 01:02:22 | 00:00:00 | |
| OE3JTB-15 | 2026-08-31 02:48:25 | 47.33339 | 11.76473 | 74° | 120km/h | 9577m | 3.1m/s | -37.0°C | 32.7% | 0hPa | 2.7V | 00:00:00 | 01:02:21 | 00:00:00 | |
| DB0NH | 2026-08-31 02:48:24 | 47.33330 | 11.76429 | 74° | 119km/h | 9573m | 2.5m/s | -37.0°C | 32.8% | 0hPa | 2.7V | 00:00:00 | 01:02:20 | 00:00:00 | |
| DO3MHA-12 | 2026-08-31 02:48:22 | 47.33311 | 11.76343 | 72° | 120km/h | 9568m | 2.6m/s | -36.9°C | 32.9% | 0hPa | 2.7V | 00:00:00 | 01:02:18 | 00:00:00 | |
| BAUMI2-15 | 2026-08-31 02:48:21 | 47.33302 | 11.76300 | 73° | 120km/h | 9565m | 3.3m/s | -36.9°C | 32.8% | 0hPa | 2.7V | 00:00:00 | 01:02:17 | 00:00:00 | |
| DB0ND-19 | 2026-08-31 02:48:20 | 47.33293 | 11.76258 | 72° | 119km/h | 9561m | 3.1m/s | -36.9°C | 28.8% | -1.0hPa | 2.7V | 00:00:00 | 00:00:00 | 00:00:00 | |
| IN3HCDX | 2026-08-31 02:48:19 | 47.33293 | 11.76258 | 74° | 119km/h | 9561m | 3.1m/s | -36.9°C | 29.0% | 0hPa | 2.7V | 00:00:00 | 00:00:00 | 00:00:00 | |
| BAUMI2-15 | 2026-08-31 02:48:16 | 47.33255 | 11.76087 | 72° | 120km/h | 9549m | 3.4m/s | -36.8°C | 33.3% | 0hPa | 2.7V | 00:00:00 | 01:02:12 | 00:00:00 | |
| DO3MHA-11 | 2026-08-31 02:48:14 | 47.33236 | 11.76002 | 72° | 120km/h | 9543m | 3.2m/s | -36.8°C | 33.3% | 0hPa | 2.7V | 00:00:00 | 01:02:10 | 00:00:00 | |
| DO3MHA-12 | 2026-08-31 02:48:12 | 47.33216 | 11.75917 | 72° | 120km/h | 9537m | 2.6m/s | -36.7°C | 33.5% | 0hPa | 2.9V | 00:00:00 | 01:02:08 | 00:00:00 | |
| BAUMI2-15 | 2026-08-31 02:48:11 | 47.33206 | 11.75875 | 72° | 119km/h | 9535m | 3.2m/s | -36.7°C | 33.7% | 0hPa | 2.9V | 00:00:00 | 01:02:07 | 00:00:00 | |
| OE5DRO-10 | 2026-08-31 02:48:09 | 47.33186 | 11.75790 | 72° | 119km/h | 9530m | 3.4m/s | -36.7°C | 34.3% | 0hPa | 2.7V | 00:00:00 | 00:00:00 | 00:00:00 | |
| BAUMI2-15 | 2026-08-31 02:48:06 | 47.33157 | 11.75663 | 72° | 120km/h | 9520m | 3.0m/s | -36.6°C | 35.6% | 0hPa | 2.7V | 00:00:00 | 01:02:02 | 00:00:00 | |
| DO3MHA-11 | 2026-08-31 02:48:04 | 47.33138 | 11.75578 | 72° | 119km/h | 9514m | 2.8m/s | -36.6°C | 36.0% | 0hPa | 2.7V | 00:00:00 | 01:02:00 | 00:00:00 | |
| DL6DJ-15 | 2026-08-31 02:48:02 | 47.33110 | 11.75451 | 71° | 117km/h | 9504m | 3.8m/s | -36.5°C | 32.8% | -1.0hPa | 2.7V | 00:00:00 | 00:00:00 | 00:00:00 | |
| DB0ND-19 | 2026-08-31 02:47:49 | 47.32998 | 11.74952 | 71° | 119km/h | 9465m | 4.0m/s | -36.4°C | 37.6% | -1.0hPa | 2.7V | 00:00:00 | 00:00:00 | 00:00:00 | |
| IN3HCDX | 2026-08-31 02:47:48 | 47.32998 | 11.74952 | 72° | 120km/h | 9465m | 4.0m/s | -36.4°C | 37.8% | 0hPa | 2.7V | 00:00:00 | 00:00:00 | 00:00:00 | |
| BAUMI2-15 | 2026-08-31 02:47:46 | 47.32969 | 11.74825 | 72° | 119km/h | 9456m | 2.7m/s | -36.3°C | 42.6% | 0hPa | 2.7V | 00:00:00 | 01:01:42 | 00:00:00 | |
| DO3MHA-11 | 2026-08-31 02:47:44 | 47.32950 | 11.74740 | 72° | 117km/h | 9450m | 2.8m/s | -36.3°C | 42.4% | 0hPa | 2.7V | 00:00:00 | 01:01:40 | 08:30:00 | |
| DO3MHA-12 | 2026-08-31 02:47:42 | 47.32931 | 11.74656 | 73° | 117km/h | 9445m | 3.4m/s | -36.2°C | 42.1% | 0hPa | 2.9V | 00:00:00 | 01:01:38 | 08:30:00 | |
| BAUMI2-15 | 2026-08-31 02:47:41 | 47.32922 | 11.74614 | 72° | 117km/h | 9441m | 3.3m/s | -36.2°C | 42.1% | 0hPa | 2.9V | 00:00:00 | 01:01:37 | 00:00:00 | |
| BAUMI2-15 | 2026-08-31 02:47:36 | 47.32874 | 11.74410 | 71° | 117km/h | 9427m | 3.7m/s | -36.0°C | 41.6% | 0hPa | 2.7V | 00:00:00 | 01:01:32 | 00:00:00 | |
| DO3MHA-11 | 2026-08-31 02:47:34 | 47.32855 | 11.74328 | 72° | 119km/h | 9420m | 3.5m/s | -36.0°C | 41.6% | 0hPa | 2.7V | 00:00:00 | 01:01:30 | 00:00:00 | |
| DO3MHA-12 | 2026-08-31 02:47:32 | 47.32836 | 11.74245 | 72° | 119km/h | 9414m | 3.4m/s | -35.9°C | 41.2% | 0hPa | 2.7V | 00:00:00 | 01:01:28 | 00:00:00 | |
| DL6DJ-15 | 2026-08-31 02:47:31 | 47.32819 | 11.74162 | 73° | 117km/h | 9408m | 3.4m/s | -35.9°C | 36.7% | -1.0hPa | 2.7V | 00:00:00 | 00:00:00 | 00:00:00 | |
| OE3JTB-15 | 2026-08-31 02:47:27 | 47.32792 | 11.74036 | 73° | 120km/h | 9399m | 3.1m/s | -35.8°C | 41.2% | 0hPa | 2.7V | 00:00:00 | 00:00:00 | 00:00:00 | |
| BAUMI2-15 | 2026-08-31 02:47:26 | 47.32782 | 11.73993 | 73° | 119km/h | 9395m | 3.7m/s | -35.7°C | 41.0% | 0hPa | 2.7V | 00:00:00 | 01:01:22 | 00:00:00 | |
| DO3MHA-11 | 2026-08-31 02:47:24 | 47.32764 | 11.73909 | 72° | 119km/h | 9388m | 3.5m/s | -35.7°C | 41.1% | 0hPa | 2.9V | 00:00:00 | 01:01:20 | 00:00:00 | |
| DB0UT-7 | 2026-08-31 02:47:22 | 47.32745 | 11.73825 | 72° | 120km/h | 9382m | 3.6m/s | -35.6°C | 41.2% | 0hPa | 2.9V | 00:00:00 | 01:01:18 | 00:00:00 | |
| BAUMI2-15 | 2026-08-31 02:47:21 | 47.32735 | 11.73783 | 73° | 119km/h | 9379m | 2.3m/s | -35.6°C | 41.5% | 0hPa | 2.7V | 00:00:00 | 01:01:17 | 00:00:00 | |
| DB0ND-19 | 2026-08-31 02:47:18 | 47.32708 | 11.73657 | 73° | 119km/h | 9370m | 3.5m/s | 0°C | -1.0% | -1.0hPa | 2.7V | 00:00:00 | 00:00:00 | 00:00:00 | |
| DO3MHA-11 | 2026-08-31 02:47:14 | 47.32673 | 11.73486 | 73° | 119km/h | 9358m | 2.4m/s | -35.5°C | 46.0% | 0hPa | 2.7V | 00:00:00 | 01:01:10 | 00:00:00 | |
| DO3MHA-12 | 2026-08-31 02:47:12 | 47.32655 | 11.73401 | 73° | 120km/h | 9352m | 2.8m/s | -35.5°C | 47.0% | 0hPa | 2.9V | 00:00:00 | 01:01:08 | 00:00:00 | |
| BAUMI2-15 | 2026-08-31 02:47:11 | 47.32645 | 11.73359 | 72° | 119km/h | 9349m | 3.8m/s | -35.5°C | 47.6% | 0hPa | 2.9V | 00:00:00 | 01:01:07 | 08:30:00 | |
| DG1MFX-10 | 2026-08-31 02:47:10 | 47.32645 | 11.73358 | 73° | 119km/h | 9349m | 3.8m/s | -35.5°C | 43.0% | 0hPa | 2.7V | 00:00:00 | 00:00:00 | 00:00:00 | |
| BAUMI2-15 | 2026-08-31 02:47:06 | 47.32599 | 11.73148 | 73° | 122km/h | 9334m | 3.2m/s | -35.5°C | 51.8% | 0hPa | 2.7V | 00:00:00 | 01:01:02 | 00:00:00 | |
| DO3MHA-11 | 2026-08-31 02:47:04 | 47.32580 | 11.73061 | 74° | 122km/h | 9328m | 3.1m/s | -35.4°C | 52.7% | 0hPa | 2.7V | 00:00:00 | 01:01:00 | 00:00:00 | |
| DO3MHA-12 | 2026-08-31 02:47:02 | 47.32562 | 11.72974 | 72° | 120km/h | 9321m | 3.1m/s | -35.4°C | 53.4% | 0hPa | 2.7V | 00:00:00 | 01:00:58 | 00:00:00 | |
| IN3IJJ | 2026-08-31 02:47:01 | 47.32562 | 11.72974 | 73° | 122km/h | 9321m | 3.1m/s | 0°C | 0% | 0hPa | 2.7V | 00:00:00 | 00:00:00 | 00:00:00 | |
| DL6DJ-15 | 2026-08-31 02:47:00 | 47.32534 | 11.72844 | 73° | 120km/h | 9312m | 2.7m/s | -35.4°C | 49.1% | -1.0hPa | 2.7V | 00:00:00 | 00:00:00 | 00:00:00 | |
| DB0ND-19 | 2026-08-31 02:46:47 | 47.32431 | 11.72326 | 74° | 119km/h | 9274m | 3.1m/s | 0°C | -1.0% | -1.0hPa | 2.7V | 00:00:00 | 00:00:00 | 00:00:00 | |
| DO3MHA-11 | 2026-08-31 02:46:44 | 47.32407 | 11.72197 | 75° | 119km/h | 9266m | 3.1m/s | -35.0°C | 53.2% | 0hPa | 2.7V | 00:00:00 | 01:00:40 | 00:00:00 | |
| IN3HCDX | 2026-08-31 02:46:43 | 47.32407 | 11.72197 | 76° | 119km/h | 9266m | 3.1m/s | -35.1°C | 48.2% | 0hPa | 2.7V | 00:00:00 | 00:00:00 | 00:00:00 | |
| DO3MHA-12 | 2026-08-31 02:46:42 | 47.32392 | 11.72112 | 76° | 117km/h | 9260m | 3.0m/s | -35.0°C | 52.8% | 0hPa | 2.7V | 00:00:00 | 01:00:38 | 00:00:00 | |
| DO3MHA-11 | 2026-08-31 02:46:34 | 47.32330 | 11.71773 | 77° | 117km/h | 9236m | 2.8m/s | -34.7°C | 51.6% | 0hPa | 2.7V | 00:00:00 | 01:00:30 | 00:00:00 | |
| DO3MHA-12 | 2026-08-31 02:46:32 | 47.32317 | 11.71689 | 78° | 117km/h | 9230m | 2.0m/s | -34.7°C | 51.4% | 0hPa | 2.7V | 00:00:00 | 01:00:28 | 00:00:00 | |
| OE3JTB-15 | 2026-08-31 02:46:29 | 47.32296 | 11.71564 | 76° | 117km/h | 9222m | 3.5m/s | -34.6°C | 51.0% | 0hPa | 2.7V | 00:00:00 | 00:00:00 | 00:00:00 | |
| DL6DJ-15 | 2026-08-31 02:46:28 | 47.32273 | 11.71437 | 74° | 117km/h | 9213m | 3.0m/s | -34.6°C | 45.8% | -1.0hPa | 2.9V | 00:00:00 | 00:00:00 | 00:00:00 | |
| DB0NH | 2026-08-31 02:46:24 | 47.32257 | 11.71351 | 76° | 117km/h | 9208m | 3.2m/s | -34.4°C | 50.4% | 0hPa | 2.9V | 00:00:00 | 01:00:20 | 00:00:00 | |
| IN3HCDX | 2026-08-31 02:46:23 | 47.32257 | 11.71351 | 77° | 119km/h | 9208m | 3.2m/s | -34.5°C | 45.6% | 0hPa | 2.9V | 00:00:00 | 00:00:00 | 00:00:00 | |
| OE5DXL-15 | 2026-08-31 02:46:22 | 47.32242 | 11.71266 | 77° | 117km/h | 9201m | 3.3m/s | -34.4°C | 50.1% | 0hPa | 2.9V | 00:00:00 | 00:00:00 | 00:00:00 | |
| NBG1-10 | 2026-08-31 02:46:20 | 47.32229 | 11.71181 | 77° | 117km/h | 9195m | 2.7m/s | -34.3°C | 50.1% | 0hPa | 2.9V | 00:00:00 | 01:00:16 | 00:00:00 | |
| DB0ND-19 | 2026-08-31 02:46:16 | 47.32201 | 11.71012 | 76° | 117km/h | 9184m | 2.8m/s | 0°C | -1.0% | -1.0hPa | 2.9V | 00:00:00 | 00:00:00 | 00:00:00 | |
| OE5DRO-10 | 2026-08-31 02:46:15 | 47.32193 | 11.70969 | 76° | 117km/h | 9181m | 3.4m/s | -34.2°C | 49.5% | 0hPa | 2.9V | 00:00:00 | 00:00:00 | 00:00:00 | |
| DO3MHA-11 | 2026-08-31 02:46:14 | 47.32186 | 11.70927 | 75° | 119km/h | 9178m | 2.3m/s | -34.2°C | 49.4% | 0hPa | 2.9V | 00:00:00 | 01:00:10 | 08:30:00 | |
| DO3MHA-12 | 2026-08-31 02:46:12 | 47.32170 | 11.70842 | 75° | 117km/h | 9172m | 2.7m/s | -34.1°C | 48.9% | 0hPa | 2.9V | 00:00:00 | 01:00:08 | 08:30:00 | |
| DG1MFX-10 | 2026-08-31 02:46:09 | 47.32154 | 11.70758 | 77° | 117km/h | 9166m | 2.7m/s | -34.1°C | 43.9% | 0hPa | 2.9V | 00:00:00 | 00:00:00 | 00:00:00 | |
| DO3MHA-11 | 2026-08-31 02:46:04 | 47.32112 | 11.70503 | 78° | 117km/h | 9148m | 3.5m/s | -33.9°C | 47.0% | 0hPa | 2.9V | 00:00:00 | 01:00:00 | 00:00:00 | |
| DO3MHA-12 | 2026-08-31 02:46:02 | 47.32098 | 11.70418 | 76° | 117km/h | 9142m | 2.6m/s | -33.8°C | 46.7% | 0hPa | 2.9V | 00:00:00 | 00:59:58 | 00:00:00 | |
| DL6DJ-15 | 2026-08-31 02:45:57 | 47.32016 | 11.69954 | 77° | 117km/h | 9111m | 2.4m/s | -33.5°C | 41.6% | -1.0hPa | 2.9V | 00:00:00 | 00:00:00 | 00:00:00 | |
| OE5DRO-10 | 2026-08-31 02:45:56 | 47.32053 | 11.70164 | 76° | 117km/h | 9125m | 3.4m/s | -33.6°C | 46.2% | 0hPa | 2.9V | 00:00:00 | 00:00:00 | 00:00:00 | |
| DO3MHA-11 | 2026-08-31 02:45:54 | 47.32038 | 11.70080 | 75° | 117km/h | 9120m | 3.2m/s | -33.6°C | 46.1% | 0hPa | 2.9V | 00:00:00 | 00:59:50 | 00:00:00 | |
| OE5DXL-15 | 2026-08-31 02:45:52 | 47.32023 | 11.69996 | 76° | 119km/h | 9114m | 3.3m/s | -33.5°C | 45.8% | 0hPa | 2.9V | 00:00:00 | 00:00:00 | 00:00:00 | |
| DG1MFX-10 | 2026-08-31 02:45:49 | 47.32009 | 11.69911 | 78° | 117km/h | 9108m | 3.1m/s | -33.5°C | 41.4% | 0hPa | 2.9V | 00:00:00 | 00:00:00 | 00:00:00 | |
| DB0ND-19 | 2026-08-31 02:45:45 | 47.31959 | 11.69613 | 75° | 117km/h | 9088m | 2.9m/s | 0°C | -1.0% | -1.0hPa | 2.9V | 00:00:00 | 00:00:00 | 00:00:00 | |
| DO3MHA-12 | 2026-08-31 02:45:42 | 47.31951 | 11.69570 | 76° | 119km/h | 9085m | 3.2m/s | -33.2°C | 45.1% | 0hPa | 2.9V | 00:00:00 | 00:59:38 | 00:00:00 | |
| OE5DRO-10 | 2026-08-31 02:45:37 | 47.31913 | 11.69358 | 76° | 119km/h | 9070m | 2.8m/s | -33.1°C | 44.2% | 0hPa | 2.7V | 00:00:00 | 00:00:00 | 00:00:00 | |
| DO3MHA-11 | 2026-08-31 02:45:34 | 47.31891 | 11.69231 | 76° | 119km/h | 9060m | 3.5m/s | -33.0°C | 43.8% | 0hPa | 2.7V | 00:00:00 | 00:59:30 | 00:00:00 | |
| DO3MHA-12 | 2026-08-31 02:45:32 | 47.31877 | 11.69145 | 77° | 117km/h | 9054m | 3.3m/s | -32.9°C | 43.6% | 0hPa | 2.7V | 00:00:00 | 00:59:28 | 00:00:00 | |
| OE3JTB-15 | 2026-08-31 02:45:31 | 47.31869 | 11.69102 | 77° | 119km/h | 9052m | 2.3m/s | -32.9°C | 43.6% | 0hPa | 2.7V | 00:00:00 | 00:59:27 | 00:00:00 | |
| DG1MFX-10 | 2026-08-31 02:45:29 | 47.31855 | 11.69016 | 76° | 119km/h | 9045m | 3.0m/s | -32.9°C | 39.2% | 0hPa | 2.7V | 00:00:00 | 00:00:00 | 00:00:00 | |
| IN3HCDX | 2026-08-31 02:45:28 | 47.31855 | 11.69016 | 76° | 119km/h | 9045m | 3.0m/s | -32.9°C | 39.2% | 0hPa | 2.7V | 00:00:00 | 00:00:00 | 00:00:00 | |
| DL6DJ-15 | 2026-08-31 02:45:26 | 47.31833 | 11.68890 | 76° | 115km/h | 9037m | 3.8m/s | -32.8°C | 38.8% | -1.0hPa | 2.7V | 00:00:00 | 00:00:00 | 00:00:00 | |
| DO3MHA-11 | 2026-08-31 02:45:24 | 47.31819 | 11.68806 | 77° | 119km/h | 9030m | 3.1m/s | -32.7°C | 43.4% | 0hPa | 2.7V | 00:00:00 | 00:59:20 | 00:00:00 | |
| DO3MHA-12 | 2026-08-31 02:45:22 | 47.31806 | 11.68720 | 78° | 119km/h | 9024m | 2.5m/s | -32.6°C | 43.4% | 0hPa | 2.7V | 00:00:00 | 00:59:18 | 00:00:00 | |
| OE5DRO-10 | 2026-08-31 02:45:18 | 47.31779 | 11.68549 | 76° | 119km/h | 9013m | 3.3m/s | -32.5°C | 42.9% | 0hPa | 2.7V | 00:00:00 | 00:00:00 | 00:00:00 | |
| DO3MHA-11 | 2026-08-31 02:45:14 | 47.31749 | 11.68377 | 76° | 119km/h | 9001m | 3.8m/s | -32.4°C | 43.2% | 0hPa | 2.9V | 00:00:00 | 00:59:10 | 00:00:00 | |
| DO3MHA-12 | 2026-08-31 02:45:12 | 47.31734 | 11.68292 | 76° | 119km/h | 8995m | 3.5m/s | -32.3°C | 42.9% | 0hPa | 2.7V | 00:00:00 | 00:59:08 | 00:00:00 | |
| DG1MFX-10 | 2026-08-31 02:45:08 | 47.31712 | 11.68164 | 78° | 119km/h | 8986m | 2.2m/s | -32.3°C | 38.8% | 0hPa | 2.9V | 00:00:00 | 00:00:00 | 00:00:00 | |
| DO3MHA-11 | 2026-08-31 02:45:04 | 47.31677 | 11.67950 | 77° | 119km/h | 8969m | 3.6m/s | -32.1°C | 42.1% | 0hPa | 2.9V | 00:00:00 | 00:59:00 | 00:00:00 | |
| OE3JTB-15 | 2026-08-31 02:45:02 | 47.31663 | 11.67865 | 76° | 119km/h | 8962m | 3.7m/s | -32.0°C | 41.7% | 0hPa | 2.9V | 00:00:00 | 00:00:00 | 00:00:00 | |
| DL6DJ-15 | 2026-08-31 02:44:55 | 47.31611 | 11.67565 | 76° | 117km/h | 8941m | 3.7m/s | -31.9°C | 33.9% | -1.0hPa | 2.7V | 00:00:00 | 00:00:00 | 00:00:00 | |
| DO3MHA-11 | 2026-08-31 02:44:54 | 47.31604 | 11.67522 | 77° | 119km/h | 8938m | 2.6m/s | -31.8°C | 37.1% | 0hPa | 2.7V | 00:00:00 | 00:58:50 | 00:00:00 | |
| DB0UT-7 | 2026-08-31 02:44:52 | 47.31590 | 11.67435 | 78° | 119km/h | 8932m | 3.0m/s | -31.7°C | 34.9% | 0hPa | 2.7V | 00:00:00 | 00:00:00 | 00:00:00 | |
| DG1MFX-10 | 2026-08-31 02:44:48 | 47.31570 | 11.67306 | 78° | 120km/h | 8922m | 3.3m/s | -31.7°C | 30.4% | 0hPa | 2.7V | 00:00:00 | 00:00:00 | 00:00:00 | |
| IN3HCDX | 2026-08-31 02:44:47 | 47.31564 | 11.67263 | 77° | 119km/h | 8920m | 2.1m/s | -31.7°C | 29.7% | 0hPa | 2.7V | 00:00:00 | 00:00:00 | 00:00:00 | |
| BAUMI2-15 | 2026-08-31 02:44:45 | 47.31542 | 11.67135 | 76° | 120km/h | 8911m | 3.3m/s | -31.6°C | 29.2% | 0hPa | 2.7V | 00:00:00 | 00:58:41 | 00:00:00 | |
| DO3MHA-11 | 2026-08-31 02:44:44 | 47.31534 | 11.67092 | 76° | 120km/h | 8907m | 3.5m/s | -31.5°C | 27.5% | 0hPa | 2.7V | 00:00:00 | 00:58:40 | 08:30:00 | |
| DO3MHA-12 | 2026-08-31 02:44:42 | 47.31520 | 11.67005 | 76° | 120km/h | 8900m | 3.1m/s | -31.5°C | 24.2% | 0hPa | 2.9V | 00:00:00 | 00:58:38 | 08:30:00 | |
| NBG1-10 | 2026-08-31 02:44:41 | 47.31512 | 11.66962 | 76° | 119km/h | 8897m | 3.8m/s | -31.5°C | 22.8% | 0hPa | 2.9V | 00:00:00 | 00:58:37 | 08:30:00 | |
| BAUMI2-15 | 2026-08-31 02:44:40 | 47.31504 | 11.66918 | 76° | 120km/h | 8894m | 2.8m/s | -31.5°C | 22.4% | 0hPa | 2.9V | 00:00:00 | 00:58:36 | 00:00:00 | |
| BAUMI2-15 | 2026-08-31 02:44:35 | 47.31467 | 11.66701 | 77° | 120km/h | 8877m | 3.7m/s | -31.4°C | 22.0% | 0hPa | 2.9V | 00:00:00 | 00:58:31 | 00:00:00 | |
| DO3MHA-11 | 2026-08-31 02:44:34 | 47.31460 | 11.66658 | 77° | 120km/h | 8874m | 2.6m/s | -31.3°C | 22.0% | 0hPa | 2.9V | 00:00:00 | 00:58:30 | 00:00:00 | |
| OE3JTB-15 | 2026-08-31 02:44:33 | 47.31453 | 11.66615 | 76° | 119km/h | 8871m | 3.7m/s | -31.4°C | 21.6% | 0hPa | 2.9V | 00:00:00 | 00:00:00 | 00:00:00 | |
| DO3MHA-12 | 2026-08-31 02:44:32 | 47.31445 | 11.66571 | 76° | 119km/h | 8868m | 2.4m/s | -31.4°C | 21.3% | 0hPa | 2.9V | 00:00:00 | 00:58:28 | 00:00:00 | |
| BAUMI2-15 | 2026-08-31 02:44:30 | 47.31430 | 11.66484 | 76° | 120km/h | 8861m | 3.0m/s | -31.3°C | 20.8% | 0hPa | 2.9V | 00:00:00 | 00:58:26 | 00:00:00 | |
| DG1MFX-10 | 2026-08-31 02:44:28 | 47.31422 | 11.66441 | 76° | 120km/h | 8858m | 3.8m/s | -31.4°C | 18.3% | 0hPa | 2.9V | 00:00:00 | 00:00:00 | 00:00:00 | |
| BAUMI2-15 | 2026-08-31 02:44:25 | 47.31390 | 11.66269 | 75° | 119km/h | 8846m | 3.3m/s | -31.3°C | 19.2% | 0hPa | 2.9V | 00:00:00 | 00:58:21 | 08:30:00 | |
| DB0NH | 2026-08-31 02:44:24 | 47.31382 | 11.66227 | 75° | 117km/h | 8842m | 3.0m/s | -31.2°C | 18.9% | 0hPa | 2.9V | 00:00:00 | 00:58:20 | 00:00:00 | |
| DO3MHA-12 | 2026-08-31 02:44:22 | 47.31366 | 11.66143 | 75° | 119km/h | 8836m | 2.6m/s | -31.2°C | 18.5% | 0hPa | 2.9V | 00:00:00 | 00:58:18 | 00:00:00 | |
| OE5DRO-10 | 2026-08-31 02:44:21 | 47.31358 | 11.66100 | 75° | 117km/h | 8832m | 3.9m/s | -31.2°C | 18.2% | 0hPa | 2.9V | 00:00:00 | 00:00:00 | 08:30:00 | |
| BAUMI2-15 | 2026-08-31 02:44:20 | 47.31350 | 11.66058 | 75° | 120km/h | 8829m | 2.7m/s | -31.2°C | 17.9% | 0hPa | 2.9V | 00:00:00 | 00:58:16 | 00:00:00 | |
| BAUMI2-15 | 2026-08-31 02:44:15 | 47.31312 | 11.65841 | 75° | 117km/h | 8813m | 2.5m/s | -31.1°C | 16.1% | 0hPa | 2.9V | 00:00:00 | 00:58:11 | 00:00:00 | |
| DO3MHA-11 | 2026-08-31 02:44:14 | 47.31305 | 11.65799 | 76° | 115km/h | 8809m | 3.7m/s | -31.0°C | 15.9% | 0hPa | 2.9V | 00:00:00 | 00:58:10 | 00:00:00 | |
| DO3MHA-12 | 2026-08-31 02:44:12 | 47.31290 | 11.65715 | 75° | 115km/h | 8804m | 2.9m/s | -31.0°C | 15.7% | 0hPa | 2.9V | 00:00:00 | 00:58:08 | 00:00:00 | |
| BAUMI2-15 | 2026-08-31 02:44:10 | 47.31274 | 11.65632 | 75° | 115km/h | 8797m | 2.8m/s | -31.0°C | 15.3% | 0hPa | 2.7V | 00:00:00 | 00:58:06 | 00:00:00 | |
| NBG1-10 | 2026-08-31 02:44:08 | 47.31260 | 11.65549 | 76° | 115km/h | 8791m | 2.6m/s | -31.0°C | 14.9% | 0hPa | 2.9V | 00:00:00 | 00:58:04 | 00:00:00 | |
| BAUMI2-15 | 2026-08-31 02:44:05 | 47.31238 | 11.65425 | 77° | 115km/h | 8782m | 3.5m/s | -31.0°C | 15.0% | 0hPa | 2.9V | 00:00:00 | 00:58:01 | 00:00:00 | |
| DO3MHA-11 | 2026-08-31 02:44:04 | 47.31231 | 11.65384 | 77° | 115km/h | 8778m | 2.8m/s | -30.9°C | 15.1% | 0hPa | 2.9V | 00:00:00 | 00:58:00 | 00:00:00 | |
| IN3HCDX | 2026-08-31 02:44:03 | 47.31231 | 11.65384 | 77° | 113km/h | 8778m | 2.9m/s | -31.0°C | 13.2% | 0hPa | 2.9V | 00:00:00 | 00:00:00 | 00:00:00 | |
| DO3MHA-12 | 2026-08-31 02:44:02 | 47.31217 | 11.65301 | 76° | 117km/h | 8772m | 2.9m/s | -30.9°C | 15.0% | 0hPa | 2.9V | 00:00:00 | 00:57:58 | 00:00:00 | |
| DL6DJ-15 | 2026-08-31 02:43:53 | 47.31159 | 11.64921 | 78° | 117km/h | 8743m | 3.8m/s | -30.7°C | 12.5% | -1.0hPa | 2.9V | 00:00:00 | 00:00:00 | 00:00:00 | |
| OE5DXL-15 | 2026-08-31 02:43:52 | 47.31153 | 11.64878 | 78° | 113km/h | 8740m | 2.5m/s | -30.7°C | 14.5% | 0hPa | 2.9V | 00:00:00 | 00:00:00 | 00:00:00 | |
| BAUMI2-15 | 2026-08-31 02:43:50 | 47.31140 | 11.64792 | 79° | 115km/h | 8734m | 3.1m/s | -30.6°C | 14.5% | 0hPa | 2.9V | 00:00:00 | 00:57:46 | 00:00:00 | |
| DG1MFX-10 | 2026-08-31 02:43:48 | 47.31135 | 11.64750 | 79° | 115km/h | 8731m | 2.3m/s | -30.6°C | 12.7% | 0hPa | 2.9V | 00:00:00 | 00:00:00 | 00:00:00 | |
| BAUMI2-15 | 2026-08-31 02:43:45 | 47.31110 | 11.64584 | 78° | 113km/h | 8717m | 3.0m/s | -30.5°C | 14.5% | 0hPa | 2.9V | 00:00:00 | 00:57:41 | 00:00:00 | |
| DO3MHA-11 | 2026-08-31 02:43:44 | 47.31103 | 11.64542 | 78° | 113km/h | 8714m | 3.9m/s | -30.5°C | 14.5% | 0hPa | 2.9V | 00:00:00 | 00:57:40 | 00:00:00 | |
| OE5DRO-10 | 2026-08-31 02:43:43 | 47.31097 | 11.64501 | 78° | 111km/h | 8710m | 2.6m/s | -30.5°C | 14.6% | 0hPa | 2.7V | 00:00:00 | 00:00:00 | 00:00:00 | |
| DO3MHA-12 | 2026-08-31 02:43:42 | 47.31091 | 11.64460 | 79° | 113km/h | 8707m | 4.0m/s | -30.5°C | 14.6% | 0hPa | 2.7V | 00:00:00 | 00:57:38 | 00:00:00 | |
| DB0ND-19 | 2026-08-31 02:43:41 | 47.31085 | 11.64419 | 78° | 111km/h | 8704m | 3.0m/s | 0°C | -1.0% | -1.0hPa | 2.9V | 00:00:00 | 00:00:00 | 00:00:00 | |
| BAUMI2-15 | 2026-08-31 02:43:40 | 47.31079 | 11.64378 | 78° | 113km/h | 8700m | 4.0m/s | -30.4°C | 14.8% | 0hPa | 2.9V | 00:00:00 | 00:57:36 | 08:30:00 | |
| NBG1-10 | 2026-08-31 02:43:35 | 47.31047 | 11.64173 | 77° | 108km/h | 8683m | 3.2m/s | -30.4°C | 15.4% | 0hPa | 2.9V | 00:00:00 | 00:57:31 | 00:00:00 | |
| DO3MHA-11 | 2026-08-31 02:43:34 | 47.31040 | 11.64132 | 77° | 111km/h | 8679m | 3.1m/s | -30.4°C | 15.4% | 0hPa | 2.9V | 00:00:00 | 00:57:30 | 00:00:00 | |
| DO3MHA-12 | 2026-08-31 02:43:32 | 47.31027 | 11.64051 | 77° | 110km/h | 8673m | 2.8m/s | -30.3°C | 15.4% | 0hPa | 2.9V | 00:00:00 | 00:57:28 | 00:00:00 | |
| BAUMI2-15 | 2026-08-31 02:43:30 | 47.31014 | 11.63970 | 77° | 111km/h | 8666m | 3.3m/s | -30.3°C | 15.3% | 0hPa | 2.9V | 00:00:00 | 00:57:26 | 00:00:00 | |
| DG1MFX-10 | 2026-08-31 02:43:26 | 47.30996 | 11.63849 | 78° | 110km/h | 8655m | 4.0m/s | -30.2°C | 13.5% | 0hPa | 2.9V | 00:00:00 | 00:00:00 | 00:00:00 | |
| BAUMI2-15 | 2026-08-31 02:43:25 | 47.30984 | 11.63770 | 78° | 108km/h | 8648m | 2.9m/s | -30.2°C | 15.6% | 0hPa | 2.9V | 00:00:00 | 00:57:21 | 00:00:00 | |
| DO3MHA-11 | 2026-08-31 02:43:24 | 47.30977 | 11.63730 | 77° | 108km/h | 8645m | 3.6m/s | -30.2°C | 15.8% | 0hPa | 2.9V | 00:00:00 | 00:57:20 | 00:00:00 | |
| DB0UT-7 | 2026-08-31 02:43:22 | 47.30964 | 11.63653 | 75° | 106km/h | 8638m | 3.7m/s | -30.2°C | 16.3% | 0hPa | 2.9V | 00:00:00 | 00:57:18 | 00:00:00 | |
| IN3HCDX | 2026-08-31 02:43:21 | 47.30964 | 11.63653 | 76° | 108km/h | 8638m | 3.7m/s | -30.2°C | 14.3% | 0hPa | 2.9V | 00:00:00 | 00:00:00 | 00:00:00 | |
| BAUMI2-15 | 2026-08-31 02:43:20 | 47.30950 | 11.63575 | 77° | 108km/h | 8631m | 3.4m/s | -30.1°C | 16.6% | 0hPa | 2.9V | 00:00:00 | 00:57:16 | 00:00:00 | |
| BAUMI2-15 | 2026-08-31 02:43:15 | 47.30918 | 11.63380 | 78° | 108km/h | 8612m | 3.4m/s | -30.1°C | 16.6% | 0hPa | 2.9V | 00:00:00 | 00:57:11 | 00:00:00 | |
| DO3MHA-11 | 2026-08-31 02:43:14 | 47.30912 | 11.63341 | 77° | 106km/h | 8608m | 3.9m/s | -30.1°C | 16.5% | 0hPa | 2.9V | 00:00:00 | 00:57:10 | 08:30:00 | |
| DO3MHA-12 | 2026-08-31 02:43:12 | 47.30899 | 11.63262 | 77° | 104km/h | 8602m | 2.8m/s | -30.1°C | 16.5% | 0hPa | 2.7V | 00:00:00 | 00:57:08 | 08:30:00 | |
| BAUMI2-15 | 2026-08-31 02:43:10 | 47.30887 | 11.63185 | 76° | 104km/h | 8595m | 3.6m/s | -30.0°C | 16.4% | 0hPa | 2.9V | 00:00:00 | 00:57:06 | 00:00:00 | |
| OE3JTB-15 | 2026-08-31 02:43:06 | 47.30861 | 11.63034 | 76° | 104km/h | 8580m | 2.9m/s | -29.9°C | 16.3% | 0hPa | 2.9V | 00:00:00 | 00:00:00 | 00:00:00 | |
| BAUMI2-15 | 2026-08-31 02:43:05 | 47.30854 | 11.62997 | 75° | 102km/h | 8576m | 4.7m/s | -29.8°C | 16.2% | 0hPa | 2.9V | 00:00:00 | 00:57:01 | 00:00:00 | |
| DO3MHA-11 | 2026-08-31 02:43:04 | 47.30847 | 11.62959 | 74° | 104km/h | 8572m | 3.4m/s | -29.8°C | 16.2% | 0hPa | 2.9V | 00:00:00 | 00:57:00 | 00:00:00 | |
| DO3MHA-12 | 2026-08-31 02:43:02 | 47.30832 | 11.62886 | 74° | 104km/h | 8564m | 3.2m/s | -29.7°C | 16.1% | 0hPa | 2.9V | 00:00:00 | 00:56:58 | 00:00:00 | |
| DL6DJ-15 | 2026-08-31 02:42:51 | 47.30720 | 11.62295 | 75° | 102km/h | 8504m | 2.9m/s | -29.3°C | 14.0% | -1.0hPa | 2.9V | 00:00:00 | 00:00:00 | 00:00:00 | |
| BAUMI2-15 | 2026-08-31 02:42:50 | 47.30749 | 11.62441 | 75° | 97km/h | 8519m | 3.1m/s | -29.4°C | 16.1% | 0hPa | 2.9V | 00:00:00 | 00:56:46 | 00:00:00 | |
| OE5DRO-10 | 2026-08-31 02:42:46 | 47.30720 | 11.62295 | 76° | 102km/h | 8504m | 2.9m/s | -29.2°C | 16.0% | 0hPa | 2.9V | 00:00:00 | 00:00:00 | 00:00:00 | |
| DO3MHA-11 | 2026-08-31 02:42:44 | 47.30707 | 11.62220 | 75° | 104km/h | 8497m | 3.8m/s | -29.2°C | 15.9% | 0hPa | 2.9V | 00:00:00 | 00:56:40 | 00:00:00 | |
| DO3MHA-12 | 2026-08-31 02:42:42 | 47.30692 | 11.62146 | 75° | 102km/h | 8489m | 4.9m/s | -29.1°C | 15.8% | 0hPa | 2.7V | 00:00:00 | 00:56:38 | 00:00:00 | |
| IN3HCDX | 2026-08-31 02:42:39 | 47.30678 | 11.62072 | 74° | 102km/h | 8481m | 4.9m/s | -29.1°C | 13.9% | 0hPa | 2.7V | 00:00:00 | 00:00:00 | 00:00:00 | |
| OE3JTB-15 | 2026-08-31 02:42:37 | 47.30654 | 11.61963 | 72° | 102km/h | 8469m | 3.5m/s | -29.0°C | 16.1% | 0hPa | 2.7V | 00:00:00 | 00:56:33 | 00:00:00 | |
| DO3MHA-11 | 2026-08-31 02:42:34 | 47.30630 | 11.61854 | 72° | 102km/h | 8458m | 3.4m/s | -28.9°C | 16.3% | 0hPa | 2.7V | 00:00:00 | 00:56:30 | 00:00:00 | |
| DO3MHA-12 | 2026-08-31 02:42:32 | 47.30614 | 11.61782 | 74° | 102km/h | 8450m | 3.5m/s | -28.9°C | 16.4% | 0hPa | 2.7V | 00:00:00 | 00:56:28 | 00:00:00 | |
| NBG1-10 | 2026-08-31 02:42:29 | 47.30592 | 11.61673 | 74° | 100km/h | 8439m | 3.4m/s | -28.8°C | 16.5% | 0hPa | 2.7V | 00:00:00 | 00:56:25 | 00:00:00 | |
| OE5DRO-10 | 2026-08-31 02:42:27 | 47.30577 | 11.61599 | 74° | 102km/h | 8431m | 2.7m/s | -28.7°C | 16.9% | 0hPa | 2.7V | 00:00:00 | 00:00:00 | 00:00:00 | |
| DG1MFX-10 | 2026-08-31 02:42:25 | 47.30570 | 11.61563 | 74° | 102km/h | 8428m | 4.6m/s | -28.7°C | 15.2% | 0hPa | 2.9V | 00:00:00 | 00:00:00 | 00:00:00 | |
| DB0NH | 2026-08-31 02:42:24 | 47.30554 | 11.61490 | 72° | 99km/h | 8419m | 4.0m/s | -28.7°C | 18.2% | 0hPa | 2.9V | 00:00:00 | 00:56:20 | 08:30:00 | |
| OE5DXL-15 | 2026-08-31 02:42:22 | 47.30538 | 11.61419 | 73° | 99km/h | 8412m | 4.5m/s | -28.7°C | 19.1% | 0hPa | 2.9V | 00:00:00 | 00:00:00 | 00:00:00 | |
| DL6DJ-15 | 2026-08-31 02:42:20 | 47.30523 | 11.61347 | 72° | 100km/h | 8404m | 4.4m/s | -28.7°C | 17.7% | -1.0hPa | 2.9V | 00:00:00 | 00:00:00 | 00:00:00 | |
| IN3HCDX | 2026-08-31 02:42:16 | 47.30501 | 11.61239 | 75° | 102km/h | 8392m | 4.4m/s | -28.6°C | 17.5% | 0hPa | 2.9V | 00:00:00 | 00:00:00 | 00:00:00 | |
| DO3MHA-11 | 2026-08-31 02:42:14 | 47.30480 | 11.61129 | 75° | 100km/h | 8380m | 4.0m/s | -28.6°C | 22.5% | 0hPa | 2.9V | 00:00:00 | 00:56:10 | 00:00:00 | |
| DO3MHA-12 | 2026-08-31 02:42:12 | 47.30466 | 11.61056 | 75° | 100km/h | 8372m | 4.1m/s | -28.5°C | 22.8% | 0hPa | 2.7V | 00:00:00 | 00:56:08 | 00:00:00 | |
| OE3JTB-15 | 2026-08-31 02:42:08 | 47.30437 | 11.60911 | 74° | 95km/h | 8356m | 4.9m/s | -28.5°C | 24.6% | 0hPa | 2.9V | 00:00:00 | 00:00:00 | 00:00:00 | |
| DO3MHA-11 | 2026-08-31 02:42:04 | 47.30408 | 11.60770 | 74° | 95km/h | 8337m | 4.1m/s | -28.4°C | 24.8% | 0hPa | 2.9V | 00:00:00 | 00:56:00 | 00:00:00 | |
| DO3MHA-12 | 2026-08-31 02:42:02 | 47.30395 | 11.60701 | 74° | 93km/h | 8328m | 4.4m/s | -28.3°C | 24.7% | 0hPa | 2.9V | 00:00:00 | 00:55:58 | 00:00:00 | |
| NBG1-10 | 2026-08-31 02:41:56 | 47.30356 | 11.60499 | 76° | 93km/h | 8304m | 4.9m/s | -28.1°C | 24.3% | 0hPa | 2.9V | 00:00:00 | 00:55:52 | 00:00:00 | |
| DO3MHA-11 | 2026-08-31 02:41:54 | 47.30344 | 11.60434 | 74° | 93km/h | 8295m | 3.3m/s | -28.0°C | 24.2% | 0hPa | 2.9V | 00:00:00 | 00:55:50 | 00:00:00 | |
| OE5DXL-15 | 2026-08-31 02:41:52 | 47.30330 | 11.60367 | 74° | 95km/h | 8288m | 3.8m/s | -27.9°C | 24.0% | 0hPa | 2.9V | 00:00:00 | 00:00:00 | 00:00:00 | |
| OE5DRO-10 | 2026-08-31 02:41:49 | 47.30311 | 11.60266 | 75° | 95km/h | 8276m | 4.6m/s | -27.8°C | 23.8% | 0hPa | 2.9V | 00:00:00 | 00:00:00 | 00:00:00 | |
| DO3MHA-11 | 2026-08-31 02:41:44 | 47.30277 | 11.60098 | 74° | 95km/h | 8255m | 4.0m/s | -27.6°C | 23.4% | 0hPa | 2.9V | 00:00:00 | 00:55:40 | 08:30:00 | |
| DG1MFX-10 | 2026-08-31 02:41:43 | 47.30277 | 11.60098 | 75° | 95km/h | 8255m | 4.0m/s | -27.7°C | 21.2% | 0hPa | 2.9V | 00:00:00 | 00:00:00 | 00:00:00 | |
| DO3MHA-12 | 2026-08-31 02:41:42 | 47.30263 | 11.60031 | 74° | 95km/h | 8247m | 3.6m/s | -27.6°C | 23.4% | 0hPa | 2.9V | 00:00:00 | 00:55:38 | 08:30:00 | |
| OE3JTB-15 | 2026-08-31 02:41:39 | 47.30242 | 11.59928 | 74° | 93km/h | 8234m | 4.6m/s | -27.4°C | 23.2% | 0hPa | 2.9V | 00:00:00 | 00:00:00 | 00:00:00 | |
| DO3MHA-11 | 2026-08-31 02:41:34 | 47.30208 | 11.59760 | 74° | 93km/h | 8215m | 4.1m/s | -27.3°C | 23.1% | 0hPa | 2.9V | 00:00:00 | 00:55:30 | 00:00:00 | |
| DO3MHA-12 | 2026-08-31 02:41:32 | 47.30194 | 11.59692 | 73° | 93km/h | 8206m | 4.6m/s | -27.2°C | 23.0% | 0hPa | 2.9V | 00:00:00 | 00:55:28 | 00:00:00 | |
| OE5DRO-10 | 2026-08-31 02:41:30 | 47.30180 | 11.59625 | 74° | 91km/h | 8198m | 4.5m/s | -27.1°C | 23.0% | 0hPa | 2.9V | 00:00:00 | 00:00:00 | 08:30:00 | |
| DO3MHA-11 | 2026-08-31 02:41:24 | 47.30138 | 11.59427 | 73° | 91km/h | 8174m | 3.8m/s | -26.9°C | 23.5% | 0hPa | 2.7V | 00:00:00 | 00:55:20 | 00:00:00 | |
| NBG1-10 | 2026-08-31 02:41:23 | 47.30131 | 11.59395 | 73° | 91km/h | 8170m | 3.8m/s | -26.9°C | 23.9% | 0hPa | 2.7V | 00:00:00 | 00:55:19 | 00:00:00 | |
| DO3MHA-12 | 2026-08-31 02:41:22 | 47.30124 | 11.59362 | 73° | 91km/h | 8166m | 4.4m/s | -26.9°C | 23.9% | 0hPa | 2.7V | 00:00:00 | 00:55:18 | 00:00:00 | |
| DL6DJ-15 | 2026-08-31 02:41:18 | 47.30098 | 11.59232 | 73° | 89km/h | 8150m | 3.4m/s | -26.8°C | 21.6% | -1.0hPa | 2.7V | 00:00:00 | 00:00:00 | 00:00:00 | |
| DO3MHA-11 | 2026-08-31 02:41:14 | 47.30072 | 11.59101 | 73° | 91km/h | 8135m | 3.4m/s | -26.6°C | 23.5% | 0hPa | 2.7V | 00:00:00 | 00:55:10 | 00:00:00 | |
| DO3MHA-12 | 2026-08-31 02:41:12 | 47.30058 | 11.59036 | 74° | 93km/h | 8127m | 3.9m/s | -26.5°C | 23.3% | 0hPa | 2.9V | 00:00:00 | 00:55:08 | 00:00:00 | |
| OE5DRO-10 | 2026-08-31 02:41:11 | 47.30051 | 11.59004 | 73° | 91km/h | 8123m | 4.4m/s | -26.5°C | 23.2% | 0hPa | 2.9V | 00:00:00 | 00:00:00 | 00:00:00 | |
| OE3JTB-15 | 2026-08-31 02:41:10 | 47.30044 | 11.58971 | 71° | 91km/h | 8118m | 4.0m/s | -26.5°C | 23.1% | 0hPa | 2.9V | 00:00:00 | 00:55:06 | 00:00:00 | |
| DO3MHA-11 | 2026-08-31 02:41:04 | 47.30000 | 11.58775 | 73° | 91km/h | 8095m | 4.9m/s | -26.3°C | 23.2% | 0hPa | 2.9V | 00:00:00 | 00:55:00 | 00:00:00 | |
| DO3MHA-12 | 2026-08-31 02:41:02 | 47.29986 | 11.58709 | 74° | 91km/h | 8086m | 4.5m/s | -26.2°C | 23.3% | 0hPa | 2.9V | 00:00:00 | 00:54:58 | 00:00:00 | |
| DO3MHA-11 | 2026-08-31 02:40:54 | 47.29932 | 11.58453 | 73° | 89km/h | 8055m | 3.6m/s | -26.0°C | 23.9% | 0hPa | 2.9V | 00:00:00 | 00:54:50 | 00:00:00 | |
| DO3MHA-12 | 2026-08-31 02:40:52 | 47.29918 | 11.58388 | 73° | 89km/h | 8047m | 4.4m/s | -26.0°C | 24.5% | 0hPa | 2.9V | 00:00:00 | 00:54:48 | 00:00:00 | |
| NBG1-10 | 2026-08-31 02:40:50 | 47.29904 | 11.58324 | 72° | 86km/h | 8038m | 4.6m/s | -26.0°C | 25.1% | 0hPa | 2.9V | 00:00:00 | 00:54:46 | 00:00:00 | |
| DO3MHA-11 | 2026-08-31 02:40:44 | 47.29863 | 11.58133 | 73° | 88km/h | 8013m | 3.6m/s | -25.8°C | 24.8% | 0hPa | 2.9V | 00:00:00 | 00:54:40 | 00:00:00 | |
| DO3MHA-12 | 2026-08-31 02:40:42 | 47.29849 | 11.58068 | 73° | 88km/h | 8005m | 4.2m/s | -25.7°C | 24.6% | 0hPa | 2.7V | 00:00:00 | 00:54:38 | 00:00:00 | |
| BAUMI2-15 | 2026-08-31 02:40:41 | 47.29842 | 11.58036 | 73° | 88km/h | 8001m | 3.9m/s | -25.7°C | 24.7% | 0hPa | 2.9V | 00:00:00 | 00:54:37 | 00:00:00 | |
| BAUMI2-15 | 2026-08-31 02:40:36 | 47.29811 | 11.57879 | 74° | 84km/h | 7981m | 3.7m/s | -25.5°C | 24.4% | 0hPa | 2.9V | 00:00:00 | 00:54:32 | 00:00:00 | |
| DO3MHA-11 | 2026-08-31 02:40:34 | 47.29799 | 11.57819 | 73° | 84km/h | 7973m | 3.9m/s | -25.5°C | 24.2% | 0hPa | 2.7V | 00:00:00 | 00:54:30 | 00:00:00 | |
| OE5DRO-10 | 2026-08-31 02:40:33 | 47.29792 | 11.57788 | 72° | 82km/h | 7969m | 4.6m/s | -25.4°C | 24.2% | 0hPa | 2.7V | 00:00:00 | 00:00:00 | 00:00:00 | |
| DO3MHA-12 | 2026-08-31 02:40:32 | 47.29785 | 11.57759 | 73° | 84km/h | 7965m | 3.2m/s | -25.4°C | 24.2% | 0hPa | 2.9V | 00:00:00 | 00:54:28 | 00:00:00 | |
| BAUMI2-15 | 2026-08-31 02:40:31 | 47.29779 | 11.57729 | 74° | 82km/h | 7961m | 4.2m/s | -25.4°C | 24.1% | 0hPa | 2.9V | 00:00:00 | 00:54:27 | 00:00:00 | |
| BAUMI2-15 | 2026-08-31 02:40:26 | 47.29749 | 11.57582 | 74° | 84km/h | 7942m | 3.2m/s | -25.2°C | 23.7% | 0hPa | 2.9V | 00:00:00 | 00:54:22 | 00:00:00 | |
| DB0NH | 2026-08-31 02:40:24 | 47.29737 | 11.57522 | 74° | 82km/h | 7935m | 3.9m/s | -25.1°C | 23.6% | 0hPa | 2.9V | 00:00:00 | 00:54:20 | 00:00:00 | |
| OE5DXL-15 | 2026-08-31 02:40:22 | 47.29725 | 11.57462 | 75° | 82km/h | 7928m | 4.7m/s | -25.1°C | 23.4% | 0hPa | 2.9V | 00:00:00 | 00:00:00 | 00:00:00 | |
| BAUMI2-15 | 2026-08-31 02:40:21 | 47.29720 | 11.57433 | 74° | 80km/h | 7924m | 3.5m/s | -25.0°C | 23.5% | 0hPa | 2.9V | 00:00:00 | 00:54:17 | 00:00:00 | |
| DG1MFX-10 | 2026-08-31 02:40:20 | 47.29720 | 11.57432 | 75° | 82km/h | 7924m | 3.5m/s | -25.1°C | 21.5% | 0hPa | 2.9V | 00:00:00 | 00:00:00 | 00:00:00 | |
| NBG1-10 | 2026-08-31 02:40:17 | 47.29696 | 11.57318 | 73° | 82km/h | 7908m | 2.7m/s | -24.9°C | 23.3% | 0hPa | 2.9V | 00:00:00 | 00:54:13 | 00:00:00 | |
| BAUMI2-15 | 2026-08-31 02:40:16 | 47.29690 | 11.57289 | 73° | 82km/h | 7905m | 4.4m/s | -24.9°C | 23.2% | 0hPa | 2.9V | 00:00:00 | 00:54:12 | 00:00:00 | |
| DO3MHA-11 | 2026-08-31 02:40:14 | 47.29678 | 11.57232 | 75° | 82km/h | 7897m | 4.7m/s | -24.8°C | 23.1% | 0hPa | 2.9V | 00:00:00 | 00:54:10 | 08:30:00 | |
| DO3MHA-12 | 2026-08-31 02:40:12 | 47.29667 | 11.57173 | 74° | 82km/h | 7889m | 4.1m/s | -24.7°C | 23.0% | 0hPa | 2.7V | 00:00:00 | 00:54:08 | 08:30:00 | |
| BAUMI2-15 | 2026-08-31 02:40:11 | 47.29661 | 11.57144 | 75° | 84km/h | 7885m | 3.5m/s | -24.7°C | 22.9% | 0hPa | 2.9V | 00:00:00 | 00:54:07 | 00:00:00 | |
| BAUMI2-15 | 2026-08-31 02:40:06 | 47.29632 | 11.56994 | 76° | 80km/h | 7866m | 4.1m/s | -24.5°C | 22.8% | 0hPa | 2.9V | 00:00:00 | 00:54:02 | 08:30:00 | |
| DO3MHA-11 | 2026-08-31 02:40:04 | 47.29621 | 11.56936 | 74° | 82km/h | 7859m | 3.7m/s | -24.4°C | 22.6% | 0hPa | 2.9V | 00:00:00 | 00:54:00 | 00:00:00 | |
| DO3MHA-12 | 2026-08-31 02:40:02 | 47.29609 | 11.56879 | 75° | 82km/h | 7852m | 4.2m/s | -24.4°C | 22.6% | 0hPa | 2.9V | 00:00:00 | 00:53:58 | 00:00:00 | |
| BAUMI2-15 | 2026-08-31 02:40:01 | 47.29604 | 11.56850 | 76° | 82km/h | 7847m | 4.0m/s | -24.3°C | 22.6% | 0hPa | 2.9V | 00:00:00 | 00:53:57 | 00:00:00 | |
| DG1MFX-10 | 2026-08-31 02:39:58 | 47.29593 | 11.56791 | 75° | 82km/h | 7840m | 3.3m/s | -24.3°C | 20.7% | 0hPa | 2.9V | 00:00:00 | 00:00:00 | 00:00:00 | |
| BAUMI2-15 | 2026-08-31 02:39:56 | 47.29575 | 11.56703 | 74° | 82km/h | 7828m | 3.3m/s | -24.2°C | 22.4% | 0hPa | 2.9V | 00:00:00 | 00:53:52 | 00:00:00 | |
| OE5DRO-10 | 2026-08-31 02:39:55 | 47.29569 | 11.56674 | 74° | 82km/h | 7824m | 4.5m/s | -24.1°C | 22.3% | 0hPa | 2.9V | 00:00:00 | 00:00:00 | 00:00:00 | |
| DB0NH | 2026-08-31 02:39:54 | 47.29563 | 11.56645 | 74° | 82km/h | 7820m | 3.0m/s | -24.1°C | 22.4% | 0hPa | 2.9V | 00:00:00 | 00:53:50 | 00:00:00 | |
| OE5DXL-15 | 2026-08-31 02:39:52 | 47.29552 | 11.56586 | 74° | 82km/h | 7813m | 3.5m/s | -24.0°C | 22.1% | 0hPa | 2.9V | 00:00:00 | 00:00:00 | 00:00:00 | |
| BAUMI2-15 | 2026-08-31 02:39:51 | 47.29546 | 11.56557 | 74° | 82km/h | 7809m | 4.4m/s | -24.0°C | 22.0% | 0hPa | 2.9V | 00:00:00 | 00:53:47 | 00:00:00 | |
| BAUMI2-15 | 2026-08-31 02:39:46 | 47.29517 | 11.56412 | 75° | 82km/h | 7789m | 3.4m/s | -23.9°C | 22.2% | 0hPa | 2.7V | 00:00:00 | 00:53:42 | 00:00:00 | |
| DO3MHA-11 | 2026-08-31 02:39:44 | 47.29505 | 11.56352 | 73° | 82km/h | 7782m | 3.1m/s | -23.8°C | 22.3% | 0hPa | 2.7V | 00:00:00 | 00:53:40 | 00:00:00 | |
| OE3JTB-15 | 2026-08-31 02:39:43 | 47.29499 | 11.56323 | 75° | 82km/h | 7778m | 3.9m/s | 0°C | 0% | 0hPa | 2.9V | 00:00:00 | 00:53:39 | 00:00:00 | |
| DO3MHA-12 | 2026-08-31 02:39:42 | 47.29493 | 11.56293 | 74° | 82km/h | 7774m | 3.7m/s | -23.8°C | 22.3% | 0hPa | 2.9V | 00:00:00 | 00:53:38 | 00:00:00 | |
| BAUMI2-15 | 2026-08-31 02:39:41 | 47.29487 | 11.56264 | 73° | 80km/h | 7771m | 3.3m/s | -23.7°C | 22.2% | 0hPa | 2.7V | 00:00:00 | 00:53:37 | 00:00:00 | |
| DG1MFX-10 | 2026-08-31 02:39:38 | 47.29475 | 11.56206 | 75° | 80km/h | 7764m | 2.5m/s | -23.7°C | 20.5% | 0hPa | 2.7V | 00:00:00 | 00:00:00 | 00:00:00 | |
| BAUMI2-15 | 2026-08-31 02:39:36 | 47.29458 | 11.56119 | 74° | 82km/h | 7753m | 3.8m/s | -23.6°C | 22.2% | 0hPa | 2.7V | 00:00:00 | 00:53:32 | 00:00:00 | |
| DO3MHA-11 | 2026-08-31 02:39:34 | 47.29447 | 11.56061 | 76° | 80km/h | 7745m | 3.8m/s | -23.5°C | 22.3% | 0hPa | 2.7V | 00:00:00 | 00:53:30 | 00:00:00 | |
| DO3MHA-12 | 2026-08-31 02:39:32 | 47.29436 | 11.56002 | 75° | 82km/h | 7737m | 3.1m/s | -23.4°C | 22.5% | 0hPa | 2.7V | 00:00:00 | 00:53:28 | 00:00:00 | |
| BAUMI2-15 | 2026-08-31 02:39:31 | 47.29431 | 11.55973 | 75° | 80km/h | 7734m | 3.4m/s | -23.4°C | 22.6% | 0hPa | 2.7V | 00:00:00 | 00:53:27 | 00:00:00 | |
| BAUMI2-15 | 2026-08-31 02:39:26 | 47.29404 | 11.55828 | 76° | 82km/h | 7716m | 3.0m/s | -23.3°C | 23.3% | 0hPa | 2.7V | 00:00:00 | 00:53:22 | 00:00:00 | |
| DO3MHA-11 | 2026-08-31 02:39:24 | 47.29394 | 11.55769 | 76° | 82km/h | 7709m | 3.0m/s | -23.3°C | 23.3% | 0hPa | 2.7V | 00:00:00 | 00:53:20 | 00:00:00 | |
| DO3MHA-12 | 2026-08-31 02:39:22 | 47.29383 | 11.55710 | 74° | 80km/h | 7701m | 2.9m/s | -23.2°C | 23.4% | 0hPa | 2.7V | 00:00:00 | 00:53:18 | 00:00:00 | |
| BAUMI2-15 | 2026-08-31 02:39:21 | 47.29377 | 11.55682 | 74° | 82km/h | 7698m | 4.1m/s | -23.2°C | 23.4% | 0hPa | 2.7V | 00:00:00 | 00:53:17 | 08:30:00 | |
| OE5DRO-10 | 2026-08-31 02:39:17 | 47.29353 | 11.55565 | 75° | 78km/h | 7682m | 3.6m/s | -23.1°C | 23.5% | 0hPa | 2.9V | 00:00:00 | 00:00:00 | 00:00:00 | |
| BAUMI2-15 | 2026-08-31 02:39:16 | 47.29348 | 11.55536 | 76° | 80km/h | 7679m | 2.8m/s | -23.0°C | 23.5% | 0hPa | 2.9V | 00:00:00 | 00:53:12 | 00:00:00 | |
| DO3MHA-11 | 2026-08-31 02:39:14 | 47.29337 | 11.55478 | 74° | 78km/h | 7672m | 2.9m/s | -23.0°C | 23.6% | 0hPa | 2.9V | 00:00:00 | 00:53:10 | 00:00:00 | |
| DO3MHA-12 | 2026-08-31 02:39:12 | 47.29326 | 11.55422 | 73° | 78km/h | 7666m | 2.8m/s | -22.9°C | 23.6% | 0hPa | 2.7V | 00:00:00 | 00:53:08 | 00:00:00 | |
| BAUMI2-15 | 2026-08-31 02:39:11 | 47.29320 | 11.55394 | 73° | 78km/h | 7663m | 3.7m/s | -22.9°C | 23.5% | 0hPa | 2.9V | 00:00:00 | 00:53:07 | 00:00:00 | |
| BAUMI2-15 | 2026-08-31 02:39:06 | 47.29288 | 11.55255 | 73° | 78km/h | 7645m | 3.8m/s | -22.8°C | 23.9% | 0hPa | 2.9V | 00:00:00 | 00:53:02 | 00:00:00 | |
| DO3MHA-11 | 2026-08-31 02:39:04 | 47.29276 | 11.55199 | 72° | 78km/h | 7639m | 3.4m/s | -22.7°C | 24.0% | 0hPa | 2.9V | 00:00:00 | 00:53:00 | 00:00:00 | |
| DO3MHA-12 | 2026-08-31 02:39:02 | 47.29263 | 11.55144 | 72° | 77km/h | 7632m | 3.5m/s | -22.7°C | 24.2% | 0hPa | 2.9V | 00:00:00 | 00:52:58 | 00:00:00 | |
| BAUMI2-15 | 2026-08-31 02:39:01 | 47.29257 | 11.55117 | 71° | 78km/h | 7629m | 3.1m/s | -22.7°C | 24.3% | 0hPa | 2.9V | 00:00:00 | 00:52:57 | 00:00:00 | |
| OE5DRO-10 | 2026-08-31 02:38:58 | 47.29237 | 11.55036 | 72° | 77km/h | 7618m | 4.3m/s | -22.6°C | 24.5% | 0hPa | 2.9V | 00:00:00 | 00:00:00 | 00:00:00 | |
| BAUMI2-15 | 2026-08-31 02:38:56 | 47.29225 | 11.54980 | 72° | 77km/h | 7611m | 2.7m/s | -22.6°C | 24.9% | 0hPa | 2.9V | 00:00:00 | 00:52:52 | 00:00:00 | |
| DO3MHA-11 | 2026-08-31 02:38:54 | 47.29212 | 11.54926 | 72° | 77km/h | 7605m | 2.7m/s | -22.5°C | 25.0% | 0hPa | 2.9V | 00:00:00 | 00:52:50 | 00:00:00 | |
| OE5DXL-15 | 2026-08-31 02:38:52 | 47.29199 | 11.54872 | 71° | 75km/h | 7598m | 3.0m/s | -22.5°C | 24.6% | 0hPa | 2.9V | 00:00:00 | 00:00:00 | 00:00:00 | |
| BAUMI2-15 | 2026-08-31 02:38:51 | 47.29193 | 11.54845 | 72° | 73km/h | 7595m | 3.5m/s | -22.4°C | 24.1% | 0hPa | 2.9V | 00:00:00 | 00:52:47 | 00:00:00 | |
| DO3MHA-11 | 2026-08-31 02:38:44 | 47.29151 | 11.54657 | 72° | 75km/h | 7571m | 2.6m/s | -22.2°C | 23.1% | 0hPa | 2.9V | 00:00:00 | 00:52:40 | 08:30:00 | |
| DL6DJ-15 | 2026-08-31 02:38:43 | 47.29139 | 11.54605 | 71° | 73km/h | 7565m | 2.6m/s | -22.2°C | 20.5% | -1.0hPa | 2.9V | 00:00:00 | 00:00:00 | 00:00:00 | |
| DO3MHA-12 | 2026-08-31 02:38:42 | 47.29139 | 11.54605 | 72° | 75km/h | 7565m | 2.6m/s | -22.2°C | 22.3% | 0hPa | 2.9V | 00:00:00 | 00:52:38 | 08:30:00 | |
| OE5DRO-10 | 2026-08-31 02:38:39 | 47.29121 | 11.54527 | 72° | 75km/h | 7554m | 3.7m/s | -22.1°C | 20.7% | 0hPa | 2.9V | 00:00:00 | 00:00:00 | 08:30:00 | |
| NBG1-10 | 2026-08-31 02:38:38 | 47.29115 | 11.54501 | 73° | 73km/h | 7551m | 2.5m/s | -22.1°C | 19.7% | 0hPa | 2.9V | 00:00:00 | 00:52:34 | 00:00:00 | |
| DG1MFX-10 | 2026-08-31 02:38:36 | 47.29110 | 11.54475 | 72° | 73km/h | 7548m | 3.8m/s | -22.1°C | 17.8% | 0hPa | 2.9V | 00:00:00 | 00:00:00 | 00:00:00 | |
| DO3MHA-11 | 2026-08-31 02:38:34 | 47.29092 | 11.54395 | 73° | 75km/h | 7538m | 2.7m/s | -22.0°C | 19.3% | 0hPa | 2.9V | 00:00:00 | 00:52:30 | 00:00:00 | |
| DO3MHA-12 | 2026-08-31 02:38:32 | 47.29080 | 11.54342 | 71° | 75km/h | 7531m | 3.1m/s | -21.9°C | 18.9% | 0hPa | 2.9V | 00:00:00 | 00:52:28 | 00:00:00 | |
| DO3MHA-11 | 2026-08-31 02:38:24 | 47.29033 | 11.54132 | 73° | 73km/h | 7504m | 2.9m/s | -21.8°C | 17.0% | 0hPa | 2.9V | 00:00:00 | 00:52:20 | 00:00:00 | |
| OE5DXL-15 | 2026-08-31 02:38:22 | 47.29021 | 11.54080 | 73° | 71km/h | 7497m | 3.3m/s | -21.7°C | 14.0% | 0hPa | 2.9V | 00:00:00 | 00:00:00 | 00:00:00 | |
| OE5DRO-10 | 2026-08-31 02:38:20 | 47.29010 | 11.54027 | 73° | 71km/h | 7491m | 2.4m/s | -21.7°C | 13.0% | 0hPa | 2.9V | 00:00:00 | 00:00:00 | 00:00:00 | |
| DG1MFX-10 | 2026-08-31 02:38:16 | 47.28986 | 11.53925 | 70° | 71km/h | 7478m | 2.9m/s | -21.7°C | 11.4% | 0hPa | 2.9V | 00:00:00 | 00:00:00 | 00:00:00 | |
| DO3MHA-11 | 2026-08-31 02:38:14 | 47.28973 | 11.53876 | 71° | 71km/h | 7472m | 2.8m/s | -21.6°C | 12.4% | 0hPa | 2.9V | 00:00:00 | 00:52:10 | 00:00:00 | |
| DO3MHA-12 | 2026-08-31 02:38:12 | 47.28960 | 11.53826 | 70° | 71km/h | 7466m | 2.8m/s | -21.6°C | 12.4% | 0hPa | 2.9V | 00:00:00 | 00:52:08 | 00:00:00 | |
| DL6DJ-15 | 2026-08-31 02:38:11 | 47.28954 | 11.53802 | 69° | 69km/h | 7463m | 2.5m/s | -21.6°C | 11.2% | -1.0hPa | 2.9V | 00:00:00 | 00:00:00 | 00:00:00 | |
| IN3HCDX | 2026-08-31 02:38:06 | 47.28930 | 11.53701 | 71° | 71km/h | 7451m | 2.7m/s | -21.5°C | 11.2% | 0hPa | 2.9V | 00:00:00 | 00:00:00 | 00:00:00 | |
| NBG1-10 | 2026-08-31 02:38:05 | 47.28918 | 11.53652 | 71° | 71km/h | 7445m | 3.1m/s | -21.4°C | 12.4% | 0hPa | 2.9V | 00:00:00 | 00:52:01 | 00:00:00 | |
| DO3MHA-11 | 2026-08-31 02:38:04 | 47.28911 | 11.53627 | 70° | 71km/h | 7442m | 3.2m/s | -21.4°C | 12.3% | 0hPa | 2.9V | 00:00:00 | 00:52:00 | 00:00:00 | |
| DO3MHA-12 | 2026-08-31 02:38:02 | 47.28900 | 11.53578 | 73° | 71km/h | 7435m | 2.5m/s | -21.3°C | 12.4% | 0hPa | 2.9V | 00:00:00 | 00:51:58 | 00:00:00 | |
| OE5DRO-10 | 2026-08-31 02:38:01 | 47.28894 | 11.53553 | 72° | 71km/h | 7432m | 2.6m/s | -21.3°C | 12.3% | 0hPa | 2.9V | 00:00:00 | 00:00:00 | 00:00:00 | |
| DG1MFX-10 | 2026-08-31 02:37:55 | 47.28866 | 11.53424 | 72° | 71km/h | 7417m | 3.5m/s | -21.4°C | 12.7% | 0hPa | 2.9V | 00:00:00 | 00:00:00 | 00:00:00 | |
| DO3MHA-11 | 2026-08-31 02:37:54 | 47.28854 | 11.53374 | 73° | 71km/h | 7412m | 3.8m/s | -21.3°C | 14.4% | 0hPa | 2.9V | 00:00:00 | 00:51:50 | 00:00:00 | |
| OE5DXL-15 | 2026-08-31 02:37:52 | 47.28844 | 11.53323 | 73° | 69km/h | 7405m | 3.6m/s | -21.3°C | 15.7% | 0hPa | 2.9V | 00:00:00 | 00:00:00 | 00:00:00 | |
| IN3HCDX | 2026-08-31 02:37:45 | 47.28810 | 11.53169 | 73° | 71km/h | 7384m | 3.5m/s | -21.3°C | 16.4% | 0hPa | 2.9V | 00:00:00 | 00:00:00 | 00:00:00 | |
| DO3MHA-11 | 2026-08-31 02:37:44 | 47.28799 | 11.53119 | 73° | 69km/h | 7378m | 3.1m/s | -21.2°C | 18.7% | 0hPa | 2.9V | 00:00:00 | 00:51:40 | 00:00:00 | |
| DO3MHA-12 | 2026-08-31 02:37:42 | 47.28789 | 11.53068 | 74° | 69km/h | 7371m | 3.5m/s | -21.2°C | 18.9% | 0hPa | 2.9V | 00:00:00 | 00:51:38 | 00:00:00 | |
| DO3MHA-11 | 2026-08-31 02:37:34 | 47.28747 | 11.52869 | 71° | 69km/h | 7344m | 4.0m/s | -21.2°C | 23.6% | 0hPa | 2.9V | 00:00:00 | 00:51:30 | 00:00:00 | |
| DO3MHA-12 | 2026-08-31 02:37:32 | 47.28736 | 11.52820 | 74° | 68km/h | 7337m | 3.5m/s | -21.1°C | 24.1% | 0hPa | 2.9V | 00:00:00 | 00:51:28 | 00:00:00 | |
| DG1MFX-10 | 2026-08-31 02:37:24 | 47.28695 | 11.52625 | 74° | 66km/h | 7311m | 3.9m/s | -21.1°C | 25.3% | 0hPa | 2.9V | 00:00:00 | 00:00:00 | 00:00:00 | |
| OE5DRO-10 | 2026-08-31 02:37:23 | 47.28690 | 11.52602 | 73° | 64km/h | 7307m | 2.7m/s | -21.0°C | 27.2% | 0hPa | 2.9V | 00:00:00 | 00:00:00 | 00:00:00 | |
| DO3MHA-12 | 2026-08-31 02:37:22 | 47.28685 | 11.52579 | 72° | 64km/h | 7304m | 4.0m/s | -21.0°C | 27.5% | 0hPa | 2.9V | 00:00:00 | 00:51:18 | 00:00:00 | |
| DO3MHA-11 | 2026-08-31 02:37:14 | 47.28644 | 11.52396 | 71° | 62km/h | 7279m | 2.9m/s | -20.9°C | 29.3% | 0hPa | 2.9V | 00:00:00 | 00:51:10 | 08:30:00 | |
| DO3MHA-12 | 2026-08-31 02:37:12 | 47.28633 | 11.52352 | 71° | 62km/h | 7272m | 3.2m/s | -20.8°C | 28.9% | 0hPa | 2.9V | 00:00:00 | 00:51:08 | 08:30:00 | |
| OE5DRO-10 | 2026-08-31 02:37:04 | 47.28591 | 11.52179 | 70° | 58km/h | 7248m | 3.2m/s | -20.7°C | 31.9% | 0hPa | 2.9V | 00:00:00 | 00:00:00 | 00:00:00 | |
| DO3MHA-11 | 2026-08-31 02:37:03 | 47.28586 | 11.52157 | 69° | 60km/h | 7245m | 2.5m/s | -20.7°C | 32.9% | 0hPa | 2.9V | 00:00:00 | 00:50:59 | 00:00:00 | |
| DO3MHA-12 | 2026-08-31 02:37:02 | 47.28580 | 11.52136 | 70° | 60km/h | 7242m | 3.5m/s | -20.7°C | 33.5% | 0hPa | 2.9V | 00:00:00 | 00:50:58 | 00:00:00 | |
| NBG1-10 | 2026-08-31 02:36:59 | 47.28564 | 11.52074 | 72° | 57km/h | 7232m | 2.7m/s | -20.7°C | 36.5% | 0hPa | 2.9V | 00:00:00 | 00:50:55 | 00:00:00 | |
| DB0NH | 2026-08-31 02:36:54 | 47.28541 | 11.51969 | 72° | 57km/h | 7217m | 2.3m/s | -20.6°C | 36.8% | 0hPa | 2.9V | 00:00:00 | 00:50:50 | 00:00:00 | |
| DO3MHA-11 | 2026-08-31 02:36:53 | 47.28536 | 11.51948 | 73° | 57km/h | 7214m | 3.5m/s | -20.6°C | 37.0% | 0hPa | 2.9V | 00:00:00 | 00:50:49 | 00:00:00 | |
| OE5DXL-15 | 2026-08-31 02:36:52 | 47.28532 | 11.51928 | 73° | 57km/h | 7211m | 1.5m/s | -20.5°C | 37.0% | 0hPa | 2.9V | 00:00:00 | 00:00:00 | 00:00:00 | |
| OE5DRO-10 | 2026-08-31 02:36:45 | 47.28500 | 11.51790 | 70° | 57km/h | 7191m | 2.6m/s | -20.4°C | 38.5% | 0hPa | 2.9V | 00:00:00 | 00:00:00 | 00:00:00 | |
| BAUMI2-15 | 2026-08-31 02:36:44 | 47.28495 | 11.51771 | 71° | 55km/h | 7187m | 3.4m/s | -20.3°C | 38.3% | 0hPa | 2.9V | 00:00:00 | 00:50:40 | 00:00:00 | |
| DO3MHA-11 | 2026-08-31 02:36:43 | 47.28490 | 11.51751 | 71° | 57km/h | 7184m | 2.3m/s | -20.3°C | 38.4% | 0hPa | 2.9V | 00:00:00 | 00:50:39 | 00:00:00 | |
| DO3MHA-12 | 2026-08-31 02:36:42 | 47.28486 | 11.51732 | 72° | 57km/h | 7182m | 3.5m/s | -20.3°C | 38.4% | 0hPa | 2.9V | 00:00:00 | 00:50:38 | 00:00:00 | |
| BAUMI2-15 | 2026-08-31 02:36:39 | 47.28473 | 11.51673 | 72° | 57km/h | 7172m | 2.6m/s | -20.2°C | 38.7% | 0hPa | 2.9V | 00:00:00 | 00:50:35 | 00:00:00 | |
| BAUMI2-15 | 2026-08-31 02:36:34 | 47.28449 | 11.51574 | 70° | 58km/h | 7157m | 3.6m/s | -20.1°C | 39.9% | 0hPa | 2.9V | 00:00:00 | 00:50:30 | 08:30:00 | |
| DO3MHA-11 | 2026-08-31 02:36:33 | 47.28444 | 11.51553 | 70° | 57km/h | 7154m | 2.3m/s | -20.1°C | 40.2% | 0hPa | 2.9V | 00:00:00 | 00:50:29 | 00:00:00 | |
| DO3MHA-12 | 2026-08-31 02:36:32 | 47.28439 | 11.51533 | 70° | 57km/h | 7151m | 4.1m/s | -20.1°C | 40.0% | 0hPa | 2.9V | 00:00:00 | 00:50:28 | 00:00:00 | |
| BAUMI2-15 | 2026-08-31 02:36:29 | 47.28423 | 11.51473 | 70° | 57km/h | 7142m | 2.6m/s | -20.0°C | 40.2% | 0hPa | 2.9V | 00:00:00 | 00:50:25 | 00:00:00 | |
| NBG1-10 | 2026-08-31 02:36:26 | 47.28408 | 11.51414 | 70° | 55km/h | 7133m | 4.0m/s | -19.9°C | 40.0% | 0hPa | 2.9V | 00:00:00 | 00:50:22 | 00:00:00 | |
| DB0NH | 2026-08-31 02:36:24 | 47.28399 | 11.51374 | 71° | 55km/h | 7126m | 3.2m/s | -19.8°C | 39.8% | 0hPa | 2.9V | 00:00:00 | 00:50:20 | 00:00:00 | |
| OE5DXL-15 | 2026-08-31 02:36:22 | 47.28390 | 11.51335 | 69° | 55km/h | 7120m | 2.8m/s | -19.8°C | 39.4% | 0hPa | 2.7V | 00:00:00 | 00:00:00 | 08:30:00 | |
| BAUMI2-15 | 2026-08-31 02:36:19 | 47.28375 | 11.51277 | 71° | 55km/h | 7112m | 2.4m/s | -19.7°C | 39.0% | 0hPa | 2.9V | 00:00:00 | 00:50:15 | 00:00:00 | |
| BAUMI2-15 | 2026-08-31 02:36:14 | 47.28349 | 11.51182 | 69° | 57km/h | 7096m | 3.8m/s | -19.5°C | 37.3% | 0hPa | 2.9V | 00:00:00 | 00:50:10 | 00:00:00 | |
| DO3MHA-11 | 2026-08-31 02:36:13 | 47.28344 | 11.51162 | 69° | 55km/h | 7093m | 2.9m/s | -19.5°C | 37.0% | 0hPa | 2.9V | 00:00:00 | 00:50:09 | 00:00:00 | |
| DO3MHA-12 | 2026-08-31 02:36:12 | 47.28338 | 11.51143 | 67° | 55km/h | 7090m | 3.6m/s | -19.5°C | 36.8% | 0hPa | 2.9V | 00:00:00 | 00:50:08 | 00:00:00 | |
| BAUMI2-15 | 2026-08-31 02:36:09 | 47.28322 | 11.51084 | 70° | 55km/h | 7082m | 2.2m/s | -19.4°C | 36.3% | 0hPa | 2.9V | 00:00:00 | 00:50:05 | 00:00:00 | |
| OE5DRO-10 | 2026-08-31 02:36:07 | 47.28312 | 11.51045 | 70° | 55km/h | 7076m | 2.7m/s | -19.3°C | 35.8% | 0hPa | 2.9V | 00:00:00 | 00:00:00 | 00:00:00 | |
| DG1MFX-10 | 2026-08-31 02:36:06 | 47.28312 | 11.51045 | 71° | 55km/h | 7076m | 2.8m/s | -19.4°C | 33.6% | 0hPa | 2.9V | 00:00:00 | 00:00:00 | 00:00:00 | |
| DO3MHA-11 | 2026-08-31 02:36:03 | 47.28292 | 11.50969 | 68° | 55km/h | 7063m | 2.1m/s | -19.2°C | 36.1% | 0hPa | 2.9V | 00:00:00 | 00:49:59 | 00:00:00 | |
| DO3MHA-12 | 2026-08-31 02:36:02 | 47.28287 | 11.50950 | 69° | 55km/h | 7059m | 3.5m/s | -19.2°C | 36.0% | 0hPa | 2.9V | 00:00:00 | 00:49:58 | 00:00:00 | |
| IN3HCDX | 2026-08-31 02:36:01 | 47.28288 | 11.50950 | 70° | 55km/h | 7059m | 3.6m/s | -19.2°C | 33.8% | 0hPa | 2.9V | 00:00:00 | 00:00:00 | 00:00:00 | |
| BAUMI2-15 | 2026-08-31 02:35:59 | 47.28272 | 11.50893 | 69° | 55km/h | 7051m | 3.1m/s | -19.1°C | 35.8% | 0hPa | 2.9V | 00:00:00 | 00:49:55 | 00:00:00 | |
| DB0NH | 2026-08-31 02:35:54 | 47.28248 | 11.50797 | 69° | 57km/h | 7035m | 3.6m/s | -19.0°C | 36.1% | 0hPa | 2.9V | 00:00:00 | 00:49:50 | 00:00:00 | |
| DO3MHA-11 | 2026-08-31 02:35:53 | 47.28242 | 11.50778 | 69° | 55km/h | 7032m | 2.1m/s | -18.9°C | 36.1% | 0hPa | 2.9V | 00:00:00 | 00:49:49 | 00:00:00 | |
| OE5DXL-15 | 2026-08-31 02:35:52 | 47.28238 | 11.50759 | 71° | 57km/h | 7030m | 3.7m/s | -18.9°C | 35.9% | 0hPa | 2.9V | 00:00:00 | 00:00:00 | 00:00:00 | |
| BAUMI2-15 | 2026-08-31 02:35:49 | 47.28224 | 11.50701 | 70° | 55km/h | 7021m | 2.4m/s | -18.8°C | 36.0% | 0hPa | 2.9V | 00:00:00 | 00:49:45 | 08:30:00 | |
| OE5DRO-10 | 2026-08-31 02:35:48 | 47.28219 | 11.50682 | 69° | 57km/h | 7019m | 3.1m/s | -18.8°C | 35.8% | 0hPa | 2.9V | 00:00:00 | 00:00:00 | 08:30:00 | |
| BAUMI2-15 | 2026-08-31 02:35:44 | 47.28199 | 11.50605 | 71° | 55km/h | 7006m | 2.8m/s | -18.7°C | 35.7% | 0hPa | 2.9V | 00:00:00 | 00:49:40 | 00:00:00 | |
| DO3MHA-11 | 2026-08-31 02:35:43 | 47.28194 | 11.50586 | 71° | 57km/h | 7004m | 2.3m/s | -18.7°C | 35.8% | 0hPa | 2.9V | 00:00:00 | 00:49:39 | 08:30:00 | |
| DO3MHA-12 | 2026-08-31 02:35:42 | 47.28189 | 11.50566 | 71° | 57km/h | 7001m | 3.4m/s | -18.7°C | 35.6% | 0hPa | 2.9V | 00:00:00 | 00:49:38 | 08:30:00 | |
| IN3HCDX | 2026-08-31 02:35:40 | 47.28184 | 11.50547 | 73° | 57km/h | 6998m | 2.5m/s | -18.7°C | 33.6% | 0hPa | 2.9V | 00:00:00 | 00:00:00 | 00:00:00 | |
| BAUMI2-15 | 2026-08-31 02:35:39 | 47.28176 | 11.50507 | 73° | 57km/h | 6992m | 2.5m/s | -18.6°C | 35.4% | 0hPa | 2.9V | 00:00:00 | 00:49:35 | 00:00:00 | |
| BAUMI2-15 | 2026-08-31 02:35:34 | 47.28152 | 11.50406 | 70° | 57km/h | 6977m | 3.1m/s | -18.4°C | 35.0% | 0hPa | 2.9V | 00:00:00 | 00:49:30 | 00:00:00 | |
| DO3MHA-11 | 2026-08-31 02:35:33 | 47.28148 | 11.50387 | 72° | 57km/h | 6974m | 3.0m/s | -18.4°C | 35.0% | 0hPa | 2.9V | 00:00:00 | 00:49:29 | 00:00:00 | |
| DO3MHA-12 | 2026-08-31 02:35:32 | 47.28143 | 11.50367 | 70° | 57km/h | 6971m | 2.9m/s | -18.4°C | 34.9% | 0hPa | 2.9V | 00:00:00 | 00:49:28 | 00:00:00 | |
| BAUMI2-15 | 2026-08-31 02:35:29 | 47.28129 | 11.50306 | 72° | 57km/h | 6962m | 2.7m/s | -18.3°C | 34.5% | 0hPa | 2.9V | 00:00:00 | 00:49:25 | 00:00:00 | |
| BAUMI2-15 | 2026-08-31 02:35:24 | 47.28108 | 11.50205 | 72° | 57km/h | 6948m | 2.4m/s | -18.1°C | 34.4% | 0hPa | 2.9V | 00:00:00 | 00:49:20 | 00:00:00 | |
| DO3MHA-11 | 2026-08-31 02:35:23 | 47.28103 | 11.50186 | 72° | 57km/h | 6946m | 2.1m/s | -18.1°C | 34.4% | 0hPa | 2.9V | 00:00:00 | 00:49:19 | 00:00:00 | |
| DO3MHA-12 | 2026-08-31 02:35:22 | 47.28099 | 11.50166 | 72° | 57km/h | 6943m | 2.9m/s | -18.1°C | 34.3% | 0hPa | 2.9V | 00:00:00 | 00:49:18 | 00:00:00 | |
| DG1MFX-10 | 2026-08-31 02:35:21 | 47.28099 | 11.50166 | 73° | 57km/h | 6943m | 3.0m/s | -18.1°C | 32.3% | 0hPa | 2.9V | 00:00:00 | 00:00:00 | 00:00:00 | |
| NBG1-10 | 2026-08-31 02:35:20 | 47.28089 | 11.50126 | 70° | 58km/h | 6938m | 3.1m/s | -18.0°C | 34.2% | 0hPa | 2.9V | 00:00:00 | 00:49:16 | 00:00:00 | |
| BAUMI2-15 | 2026-08-31 02:35:19 | 47.28084 | 11.50106 | 71° | 57km/h | 6935m | 2.4m/s | -18.0°C | 34.1% | 0hPa | 2.9V | 00:00:00 | 00:49:15 | 00:00:00 | |
| BAUMI2-15 | 2026-08-31 02:35:14 | 47.28060 | 11.50006 | 70° | 57km/h | 6922m | 2.7m/s | -17.9°C | 33.8% | 0hPa | 2.9V | 00:00:00 | 00:49:10 | 00:00:00 | |
| DO3MHA-11 | 2026-08-31 02:35:13 | 47.28055 | 11.49986 | 71° | 57km/h | 6919m | 2.8m/s | -17.9°C | 33.8% | 0hPa | 2.9V | 00:00:00 | 00:49:09 | 00:00:00 | |
| DO3MHA-12 | 2026-08-31 02:35:12 | 47.28050 | 11.49966 | 71° | 57km/h | 6916m | 3.2m/s | -17.8°C | 33.6% | 0hPa | 2.9V | 00:00:00 | 00:49:08 | 00:00:00 | |
| OE5DRO-10 | 2026-08-31 02:35:10 | 47.28042 | 11.49926 | 74° | 57km/h | 6910m | 3.1m/s | -17.8°C | 33.4% | 0hPa | 2.7V | 00:00:00 | 00:00:00 | 00:00:00 | |
| BAUMI2-15 | 2026-08-31 02:35:09 | 47.28038 | 11.49905 | 76° | 57km/h | 6907m | 1.9m/s | -17.7°C | 33.5% | 0hPa | 2.7V | 00:00:00 | 00:49:05 | 00:00:00 | |
| BAUMI2-15 | 2026-08-31 02:35:04 | 47.28017 | 11.49805 | 73° | 58km/h | 6894m | 2.5m/s | -17.6°C | 31.3% | 0hPa | 2.7V | 00:00:00 | 00:49:00 | 08:30:00 | |
| DO3MHA-11 | 2026-08-31 02:35:03 | 47.28013 | 11.49784 | 70° | 58km/h | 6891m | 2.8m/s | -17.6°C | 31.0% | 0hPa | 2.9V | 00:00:00 | 00:48:59 | 00:00:00 | |
| DO3MHA-12 | 2026-08-31 02:35:02 | 47.28008 | 11.49764 | 70° | 57km/h | 6888m | 2.6m/s | -17.5°C | 30.8% | 0hPa | 2.9V | 00:00:00 | 00:48:58 | 00:00:00 | |
| DG1MFX-10 | 2026-08-31 02:35:01 | 47.28008 | 11.49764 | 71° | 60km/h | 6888m | 2.6m/s | -17.6°C | 29.0% | 0hPa | 2.9V | 00:00:00 | 00:00:00 | 00:00:00 | |
| BAUMI2-15 | 2026-08-31 02:34:59 | 47.27992 | 11.49701 | 71° | 57km/h | 6881m | 1.8m/s | -17.5°C | 30.9% | 0hPa | 2.9V | 00:00:00 | 00:48:55 | 00:00:00 | |
| IN3HCDX | 2026-08-31 02:34:58 | 47.27992 | 11.49701 | 72° | 57km/h | 6881m | 1.9m/s | -17.5°C | 29.1% | 0hPa | 2.9V | 00:00:00 | 00:00:00 | 00:00:00 | |
| BAUMI2-15 | 2026-08-31 02:34:54 | 47.27970 | 11.49601 | 71° | 58km/h | 6867m | 3.3m/s | -17.3°C | 30.4% | 0hPa | 2.9V | 00:00:00 | 00:48:50 | 00:00:00 | |
| DO3MHA-11 | 2026-08-31 02:34:53 | 47.27966 | 11.49582 | 73° | 60km/h | 6864m | 2.1m/s | -17.3°C | 29.9% | 0hPa | 2.9V | 00:00:00 | 00:48:49 | 00:00:00 | |
| OE5DXL-15 | 2026-08-31 02:34:52 | 47.27961 | 11.49561 | 72° | 58km/h | 6862m | 3.1m/s | -17.3°C | 29.4% | 0hPa | 2.9V | 00:00:00 | 00:00:00 | 00:00:00 | |
| OE5DRO-10 | 2026-08-31 02:34:51 | 47.27956 | 11.49540 | 72° | 58km/h | 6859m | 1.9m/s | -17.2°C | 30.0% | 0hPa | 2.9V | 00:00:00 | 00:00:00 | 00:00:00 | |
| BAUMI2-15 | 2026-08-31 02:34:49 | 47.27946 | 11.49498 | 71° | 60km/h | 6854m | 2.1m/s | -17.2°C | 28.7% | 0hPa | 2.9V | 00:00:00 | 00:48:45 | 00:00:00 | |
| DO3MHA-11 | 2026-08-31 02:34:43 | 47.27919 | 11.49371 | 74° | 58km/h | 6838m | 2.6m/s | -17.1°C | 29.9% | 0hPa | 2.7V | 00:00:00 | 00:48:39 | 00:00:00 | |
| DO3MHA-12 | 2026-08-31 02:34:42 | 47.27915 | 11.49351 | 73° | 58km/h | 6836m | 3.0m/s | -17.0°C | 29.2% | 0hPa | 2.9V | 00:00:00 | 00:48:38 | 00:00:00 | |
| DG1MFX-10 | 2026-08-31 02:34:41 | 47.27915 | 11.49351 | 73° | 57km/h | 6836m | 3.0m/s | -17.1°C | 27.5% | 0hPa | 2.9V | 00:00:00 | 00:00:00 | 00:00:00 | |
| IN3HCDX | 2026-08-31 02:34:37 | 47.27896 | 11.49269 | 73° | 60km/h | 6826m | 1.8m/s | -17.0°C | 27.5% | 0hPa | 2.9V | 00:00:00 | 00:00:00 | 00:00:00 | |
| DL6DJ-15 | 2026-08-31 02:34:34 | 47.27878 | 11.49185 | 72° | 58km/h | 6815m | 1.3m/s | -16.9°C | 27.3% | -1.0hPa | 2.9V | 00:00:00 | 00:00:00 | 00:00:00 | |
| DO3MHA-11 | 2026-08-31 02:34:33 | 47.27873 | 11.49164 | 72° | 58km/h | 6813m | 3.0m/s | -16.8°C | 28.7% | 0hPa | 2.9V | 00:00:00 | 00:48:29 | 00:00:00 | |
| DO3MHA-12 | 2026-08-31 02:34:32 | 47.27868 | 11.49143 | 73° | 58km/h | 6811m | 2.0m/s | -16.8°C | 28.6% | 0hPa | 2.9V | 00:00:00 | 00:48:28 | 00:00:00 | |
| DB0NH | 2026-08-31 02:34:24 | 47.27832 | 11.48976 | 71° | 60km/h | 6791m | 1.7m/s | -16.6°C | 20.7% | 0hPa | 2.9V | 00:00:00 | 00:48:20 | 00:00:00 | |
| DO3MHA-11 | 2026-08-31 02:34:23 | 47.27827 | 11.48956 | 71° | 60km/h | 6788m | 2.7m/s | -16.6°C | 19.9% | 0hPa | 2.9V | 00:00:00 | 00:48:19 | 00:00:00 | |
| OE5DXL-15 | 2026-08-31 02:34:22 | 47.27822 | 11.48934 | 74° | 60km/h | 6786m | 1.9m/s | -16.6°C | 19.5% | 0hPa | 2.9V | 00:00:00 | 00:00:00 | 00:00:00 | |
| DG1MFX-10 | 2026-08-31 02:34:18 | 47.27809 | 11.48870 | 75° | 60km/h | 6779m | 2.9m/s | -16.5°C | 18.1% | 0hPa | 2.9V | 00:00:00 | 00:00:00 | 00:00:00 | |
| IN3HCDX | 2026-08-31 02:34:17 | 47.27805 | 11.48849 | 72° | 62km/h | 6777m | 2.5m/s | -16.5°C | 17.8% | 0hPa | 2.9V | 00:00:00 | 00:00:00 | 00:00:00 | |
| NBG1-10 | 2026-08-31 02:34:14 | 47.27787 | 11.48760 | 74° | 60km/h | 6767m | 2.9m/s | -16.4°C | 19.9% | 0hPa | 2.9V | 00:00:00 | 00:48:10 | 00:00:00 | |
| DO3MHA-11 | 2026-08-31 02:34:13 | 47.27783 | 11.48739 | 74° | 60km/h | 6765m | 1.9m/s | -16.3°C | 20.1% | 0hPa | 2.9V | 00:00:00 | 00:48:09 | 08:30:00 | |
| DO3MHA-12 | 2026-08-31 02:34:12 | 47.27778 | 11.48718 | 74° | 60km/h | 6762m | 3.0m/s | -16.3°C | 19.8% | 0hPa | 2.7V | 00:00:00 | 00:48:08 | 08:30:00 | |
| DO3MHA-12 | 2026-08-31 02:34:02 | 47.27734 | 11.48501 | 75° | 58km/h | 6736m | 2.2m/s | -16.1°C | 9.4% | 0hPa | 2.9V | 00:00:00 | 00:47:58 | 00:00:00 | |
| DB0ND-19 | 2026-08-31 02:33:51 | 47.27689 | 11.48266 | 75° | 58km/h | 6707m | 2.9m/s | -15.9°C | 7.1% | -1.0hPa | 2.9V | 00:00:00 | 00:00:00 | 00:00:00 | |
| DO3MHA-11 | 2026-08-31 02:33:43 | 47.27657 | 11.48101 | 75° | 60km/h | 6689m | 3.3m/s | -15.7°C | 6.6% | 0hPa | 2.9V | 00:00:00 | 00:47:39 | 00:00:00 | |
| DO3MHA-12 | 2026-08-31 02:33:42 | 47.27652 | 11.48079 | 73° | 60km/h | 6687m | 1.7m/s | -15.7°C | 6.4% | 0hPa | 2.9V | 00:00:00 | 00:47:38 | 00:00:00 | |
| NBG1-10 | 2026-08-31 02:33:41 | 47.27648 | 11.48058 | 74° | 58km/h | 6684m | 3.3m/s | -15.7°C | 6.2% | 0hPa | 2.9V | 00:00:00 | 00:47:37 | 00:00:00 | |
| DG1MFX-10 | 2026-08-31 02:33:38 | 47.27638 | 11.48014 | 74° | 60km/h | 6679m | 3.0m/s | -15.7°C | 5.7% | 0hPa | 2.9V | 00:00:00 | 00:00:00 | 00:00:00 | |
| OE5DRO-10 | 2026-08-31 02:33:35 | 47.27621 | 11.47930 | 72° | 58km/h | 6669m | 2.7m/s | -15.6°C | 6.5% | 0hPa | 2.9V | 00:00:00 | 00:00:00 | 00:00:00 | |
| DO3MHA-11 | 2026-08-31 02:33:33 | 47.27613 | 11.47887 | 75° | 58km/h | 6663m | 2.5m/s | -15.5°C | 6.5% | 0hPa | 2.9V | 00:00:00 | 00:47:29 | 00:00:00 | |
| DO3MHA-12 | 2026-08-31 02:33:32 | 47.27609 | 11.47866 | 75° | 58km/h | 6661m | 1.9m/s | -15.5°C | 6.5% | 0hPa | 2.9V | 00:00:00 | 00:47:28 | 00:00:00 | |
| DB0NH | 2026-08-31 02:33:24 | 47.27575 | 11.47701 | 75° | 58km/h | 6640m | 2.3m/s | -15.3°C | 6.5% | 0hPa | 2.9V | 00:00:00 | 00:47:20 | 08:30:00 | |
| DO3MHA-11 | 2026-08-31 02:33:23 | 47.27572 | 11.47681 | 75° | 57km/h | 6637m | 3.1m/s | -15.3°C | 6.5% | 0hPa | 2.9V | 00:00:00 | 00:47:19 | 00:00:00 | |
| DO3MHA-12 | 2026-08-31 02:33:22 | 47.27567 | 11.47660 | 72° | 57km/h | 6635m | 2.5m/s | -15.3°C | 6.5% | 0hPa | 2.9V | 00:00:00 | 00:47:18 | 00:00:00 | |
| DB0ND-19 | 2026-08-31 02:33:20 | 47.27558 | 11.47620 | 70° | 57km/h | 6630m | 3.2m/s | -15.3°C | -1.0% | -1.0hPa | 2.9V | 00:00:00 | 00:00:00 | 00:00:00 | |
| DG1MFX-10 | 2026-08-31 02:33:18 | 47.27553 | 11.47599 | 73° | 57km/h | 6627m | 2.1m/s | -15.3°C | 6.1% | 0hPa | 2.9V | 00:00:00 | 00:00:00 | 00:00:00 | |
| OE5DRO-10 | 2026-08-31 02:33:16 | 47.27540 | 11.47538 | 72° | 58km/h | 6619m | 3.0m/s | -15.5°C | 10.4% | 0hPa | 2.9V | 00:00:00 | 00:00:00 | 00:00:00 | |
| IN3HCDX | 2026-08-31 02:33:14 | 47.27535 | 11.47517 | 73° | 57km/h | 6616m | 3.2m/s | -15.7°C | 16.4% | 0hPa | 2.9V | 00:00:00 | 00:00:00 | 00:00:00 | |
| DO3MHA-11 | 2026-08-31 02:33:13 | 47.27527 | 11.47478 | 74° | 55km/h | 6611m | 3.2m/s | -15.7°C | 18.7% | 0hPa | 2.9V | 00:00:00 | 00:47:09 | 00:00:00 | |
| DO3MHA-12 | 2026-08-31 02:33:12 | 47.27523 | 11.47458 | 72° | 55km/h | 6607m | 3.5m/s | -15.6°C | 15.9% | 0hPa | 2.7V | 00:00:00 | 00:47:08 | 00:00:00 | |
| NBG1-10 | 2026-08-31 02:33:08 | 47.27507 | 11.47376 | 80° | 57km/h | 6597m | 1.8m/s | -15.6°C | 20.5% | 0hPa | 2.9V | 00:00:00 | 00:47:04 | 00:00:00 | |
| DO3MHA-11 | 2026-08-31 02:33:03 | 47.27495 | 11.47282 | 81° | 60km/h | 6584m | 3.1m/s | -15.5°C | 23.3% | 0hPa | 2.7V | 00:00:00 | 00:46:59 | 00:00:00 | |
| DO3MHA-12 | 2026-08-31 02:33:02 | 47.27493 | 11.47260 | 79° | 58km/h | 6582m | 1.5m/s | -15.6°C | 27.5% | 0hPa | 2.7V | 00:00:00 | 00:46:58 | 00:00:00 | |
| DL6DJ-15 | 2026-08-31 02:33:01 | 47.27485 | 11.47212 | 76° | 68km/h | 6576m | 3.6m/s | -15.6°C | 27.3% | -1.0hPa | 2.7V | 00:00:00 | 00:00:00 | 00:00:00 | |
| DB0ND-19 | 2026-08-31 02:32:49 | 47.27427 | 11.46999 | 70° | 62km/h | 6527m | 4.7m/s | 0°C | -1.0% | -1.0hPa | 2.7V | 00:00:00 | 00:00:00 | 00:00:00 | |
| BAUMI2-15 | 2026-08-31 02:32:45 | 47.27405 | 11.46913 | 72° | 60km/h | 6506m | 4.5m/s | -15.1°C | 39.2% | 0hPa | 2.7V | 00:00:00 | 00:46:41 | 00:00:00 | |
| DO3MHA-11 | 2026-08-31 02:32:43 | 47.27397 | 11.46871 | 80° | 55km/h | 6495m | 7.6m/s | -14.9°C | 35.9% | 0hPa | 2.7V | 00:00:00 | 00:46:39 | 08:30:00 | |
| DO3MHA-12 | 2026-08-31 02:32:42 | 47.27396 | 11.46849 | 88° | 53km/h | 6488m | 7.0m/s | -14.9°C | 35.9% | 0hPa | 2.9V | 00:00:00 | 00:46:38 | 08:30:00 | |
| BAUMI2-15 | 2026-08-31 02:32:40 | 47.27397 | 11.46803 | 98° | 57km/h | 6475m | 4.1m/s | -14.8°C | 41.6% | 0hPa | 2.9V | 00:00:00 | 00:46:36 | 00:00:00 | |
| OE5DRO-10 | 2026-08-31 02:32:38 | 47.27401 | 11.46761 | 96° | 42km/h | 6466m | 4.3m/s | -14.7°C | 41.4% | 0hPa | 2.9V | 00:00:00 | 00:00:00 | 00:00:00 | |
| DG1MFX-10 | 2026-08-31 02:32:36 | 47.27402 | 11.46740 | 93° | 57km/h | 6460m | 7.8m/s | -14.7°C | 0% | 0hPa | 2.9V | 00:00:00 | 00:00:00 | 00:00:00 | |
| BAUMI2-15 | 2026-08-31 02:32:35 | 47.27399 | 11.46702 | 75° | 38km/h | 6443m | 8.2m/s | -14.5°C | 37.1% | 0hPa | 2.9V | 00:00:00 | 00:46:31 | 00:00:00 | |
| DO3MHA-11 | 2026-08-31 02:32:33 | 47.27393 | 11.46672 | 73° | 38km/h | 6429m | 6.3m/s | -14.4°C | 39.0% | 0hPa | 2.9V | 00:00:00 | 00:46:29 | 00:00:00 | |
| DO3MHA-12 | 2026-08-31 02:32:32 | 47.27391 | 11.46660 | 81° | 38km/h | 6423m | 5.0m/s | -14.3°C | 38.9% | 0hPa | 2.9V | 00:00:00 | 00:46:28 | 00:00:00 | |
| DL6DJ-15 | 2026-08-31 02:32:30 | 47.27377 | 11.46561 | 74° | 44km/h | 6377m | 5.6m/s | -14.0°C | 38.8% | -1.0hPa | 2.9V | 00:00:00 | 00:00:00 | 00:00:00 | |
| BAUMI2-15 | 2026-08-31 02:32:25 | 47.27377 | 11.46561 | 75° | 38km/h | 6377m | 5.5m/s | -14.0°C | 40.7% | 0hPa | 2.9V | 00:00:00 | 00:46:21 | 00:00:00 | |
| DB0NH | 2026-08-31 02:32:24 | 47.27374 | 11.46545 | 79° | 37km/h | 6372m | 5.4m/s | -13.9°C | 41.0% | 0hPa | 2.9V | 00:00:00 | 00:46:20 | 00:00:00 | |
| DO3MHA-11 | 2026-08-31 02:32:23 | 47.27372 | 11.46531 | 81° | 42km/h | 6365m | 8.0m/s | -13.8°C | 40.8% | 0hPa | 2.9V | 00:00:00 | 00:46:19 | 00:00:00 | |
| OE5DXL-15 | 2026-08-31 02:32:22 | 47.27370 | 11.46518 | 78° | 37km/h | 6357m | 7.5m/s | -13.6°C | 33.8% | 0hPa | 2.9V | 00:00:00 | 00:00:00 | 00:00:00 | |
| BAUMI2-15 | 2026-08-31 02:32:20 | 47.27365 | 11.46492 | 72° | 44km/h | 6345m | 4.2m/s | -13.4°C | 32.3% | 0hPa | 2.9V | 00:00:00 | 00:46:16 | 08:30:00 | |
| OE5DRO-10 | 2026-08-31 02:32:19 | 47.27362 | 11.46478 | 74° | 37km/h | 6340m | 6.3m/s | -13.3°C | 31.7% | 0hPa | 2.9V | 00:00:00 | 00:00:00 | 00:00:00 | |
| BAUMI2-15 | 2026-08-31 02:32:15 | 47.27353 | 11.46412 | 76° | 42km/h | 6315m | 5.2m/s | -13.1°C | 37.5% | 0hPa | 2.9V | 00:00:00 | 00:46:11 | 00:00:00 | |
| DO3MHA-11 | 2026-08-31 02:32:13 | 47.27345 | 11.46383 | 67° | 33km/h | 6305m | 5.6m/s | -13.0°C | 36.5% | 0hPa | 2.9V | 00:00:00 | 00:46:09 | 00:00:00 | |
| IN3HCDX | 2026-08-31 02:32:12 | 47.27341 | 11.46369 | 67° | 40km/h | 6299m | 5.8m/s | -13.0°C | 34.8% | 0hPa | 2.9V | 00:00:00 | 00:00:00 | 00:00:00 | |
| BAUMI2-15 | 2026-08-31 02:32:10 | 47.27334 | 11.46342 | 69° | 31km/h | 6287m | 6.4m/s | -12.8°C | 36.5% | 0hPa | 2.9V | 00:00:00 | 00:46:06 | 00:00:00 | |
| BAUMI2-15 | 2026-08-31 02:32:05 | 47.27328 | 11.46289 | 95° | 29km/h | 6258m | 4.4m/s | -12.5°C | 30.5% | 0hPa | 2.9V | 00:00:00 | 00:46:01 | 00:00:00 | |
| DO3MHA-11 | 2026-08-31 02:32:03 | 47.27327 | 11.46269 | 79° | 35km/h | 6246m | 5.3m/s | -12.4°C | 30.4% | 0hPa | 2.9V | 00:00:00 | 00:45:59 | 00:00:00 | |
| DO3MHA-12 | 2026-08-31 02:32:02 | 47.27325 | 11.46258 | 72° | 35km/h | 6240m | 6.6m/s | -12.3°C | 32.2% | 0hPa | 2.9V | 00:00:00 | 00:45:58 | 00:00:00 | |
| DL6DJ-15 | 2026-08-31 02:31:59 | 47.27314 | 11.46205 | 78° | 40km/h | 6214m | 7.8m/s | -12.1°C | 28.5% | -1.0hPa | 2.9V | 00:00:00 | 00:00:00 | 00:00:00 | |
| BAUMI2-15 | 2026-08-31 02:31:55 | 47.27307 | 11.46164 | 74° | 27km/h | 6193m | 6.0m/s | -12.1°C | 39.8% | 0hPa | 2.9V | 00:00:00 | 00:45:51 | 00:00:00 | |
| DB0NH | 2026-08-31 02:31:54 | 47.27305 | 11.46153 | 72° | 31km/h | 6187m | 4.7m/s | -12.0°C | 39.0% | 0hPa | 2.9V | 00:00:00 | 00:45:50 | 00:00:00 | |
| DO3MHA-11 | 2026-08-31 02:31:53 | 47.27303 | 11.46143 | 72° | 33km/h | 6183m | 4.4m/s | -12.0°C | 41.0% | 0hPa | 2.9V | 00:00:00 | 00:45:49 | 00:00:00 | |
| DO3MHA-12 | 2026-08-31 02:31:52 | 47.27301 | 11.46135 | 81° | 31km/h | 6178m | 4.3m/s | -12.0°C | 40.7% | 0hPa | 2.9V | 00:00:00 | 00:45:48 | 00:00:00 | |
| BAUMI2-15 | 2026-08-31 02:31:50 | 47.27300 | 11.46113 | 88° | 38km/h | 6167m | 6.1m/s | -11.8°C | 39.7% | 0hPa | 2.9V | 00:00:00 | 00:45:46 | 00:00:00 | |
| BAUMI2-15 | 2026-08-31 02:31:45 | 47.27297 | 11.46043 | 79° | 24km/h | 6134m | 5.8m/s | -11.2°C | 25.8% | 0hPa | 2.9V | 00:00:00 | 00:45:41 | 00:00:00 | |
| DO3MHA-11 | 2026-08-31 02:31:43 | 47.27294 | 11.46025 | 80° | 29km/h | 6122m | 6.2m/s | -11.3°C | 34.8% | 0hPa | 2.9V | 00:00:00 | 00:45:39 | 00:00:00 | |
| DO3MHA-12 | 2026-08-31 02:31:42 | 47.27293 | 11.46018 | 81° | 29km/h | 6116m | 5.7m/s | -11.3°C | 36.6% | 0hPa | 2.9V | 00:00:00 | 00:45:38 | 00:00:00 | |
| OE5DRO-10 | 2026-08-31 02:31:41 | 47.27293 | 11.46010 | 85° | 31km/h | 6110m | 6.2m/s | 0°C | 0% | 0hPa | 2.9V | 00:00:00 | 00:00:00 | 00:00:00 | |
| BAUMI2-15 | 2026-08-31 02:31:40 | 47.27292 | 11.46001 | 87° | 35km/h | 6103m | 6.0m/s | -11.4°C | 47.8% | 0hPa | 2.9V | 00:00:00 | 00:45:36 | 00:00:00 | |
| BAUMI2-15 | 2026-08-31 02:31:35 | 47.27290 | 11.45934 | 85° | 27km/h | 6069m | 5.4m/s | 0°C | 0% | 0hPa | 2.9V | 00:00:00 | 00:45:31 | 08:30:00 | |
| DO3MHA-11 | 2026-08-31 02:31:33 | 47.27290 | 11.45914 | 96° | 31km/h | 6059m | 5.3m/s | -10.8°C | 33.4% | 0hPa | 2.9V | 00:00:00 | 00:45:29 | 00:00:00 | |
| DO3MHA-12 | 2026-08-31 02:31:32 | 47.27291 | 11.45905 | 103° | 33km/h | 6053m | 5.6m/s | -10.8°C | 35.4% | 0hPa | 2.9V | 00:00:00 | 00:45:28 | 00:00:00 | |
| BAUMI2-15 | 2026-08-31 02:31:30 | 47.27294 | 11.45886 | 101° | 31km/h | 6043m | 6.4m/s | 0°C | 0% | 0hPa | 2.9V | 00:00:00 | 00:45:26 | 00:00:00 | |
| NBG1-10 | 2026-08-31 02:31:29 | 47.27295 | 11.45875 | 93° | 29km/h | 6036m | 7.2m/s | -10.9°C | 49.2% | 0hPa | 2.9V | 00:00:00 | 00:45:25 | 00:00:00 | |
| DL6DJ-15 | 2026-08-31 02:31:27 | 47.27292 | 11.45853 | 70° | 33km/h | 6023m | 6.4m/s | -10.8°C | 45.9% | -1.0hPa | 2.9V | 00:00:00 | 00:00:00 | 00:00:00 | |
| BAUMI2-15 | 2026-08-31 02:31:25 | 47.27285 | 11.45828 | 68° | 37km/h | 6009m | 8.0m/s | 0°C | 0% | 0hPa | 2.9V | 00:00:00 | 00:45:21 | 00:00:00 | |
| DB0NH | 2026-08-31 02:31:24 | 47.27282 | 11.45815 | 71° | 27km/h | 6002m | 7.5m/s | -10.7°C | 54.5% | 0hPa | 2.9V | 00:00:00 | 00:45:20 | 00:00:00 | |
| DO3MHA-11 | 2026-08-31 02:31:23 | 47.27279 | 11.45801 | 79° | 31km/h | 5995m | 6.2m/s | -10.6°C | 51.5% | 0hPa | 2.9V | 00:00:00 | 00:45:19 | 00:00:00 | |
| DO3MHA-12 | 2026-08-31 02:31:22 | 47.27278 | 11.45788 | 82° | 29km/h | 5989m | 5.1m/s | -10.6°C | 51.2% | 0hPa | 2.9V | 00:00:00 | 00:45:18 | 00:00:00 | |
| BAUMI2-15 | 2026-08-31 02:31:20 | 47.27275 | 11.45762 | 80° | 35km/h | 5978m | 5.2m/s | 0°C | 0% | 0hPa | 2.9V | 00:00:00 | 00:45:16 | 00:00:00 | |
| Es werden nur die letzten 3500 von 3625 Frames angezeigt. GPX/KML und Diagramme bleiben verfügbar. | |||||||||||||||